<?xml version="1.0" encoding="UTF-8" standalone="no" ?>
<gpx xmlns="http://www.topografix.com/GPX/1/1" xmlns:xsi="http://www.w3.org/2001/XMLSchema-instance" xsi:schemaLocation="http://www.topografix.com/GPX/1/1 http://www.topografix.com/GPX/1/1/gpx.xsd" version="1.1" creator="VisuGPX - https://www.visugpx.com">
  <metadata>
    <name>XMB Clans 2012</name>
    <desc><![CDATA[Parcours XMB Clans 2012]]></desc>
  </metadata>
  <trk>
    <name><![CDATA[XMB Clans - Balisage Final]]></name>
    <trkseg>
      <trkpt lat="43.99627" lon="7.14966">
        <ele>690</ele>
        <time>2012-05-05T07:12:13Z</time>
      </trkpt>
      <trkpt lat="43.99627" lon="7.14966">
        <ele>690</ele>
        <time>2012-05-05T07:12:14Z</time>
      </trkpt>
      <trkpt lat="43.99628" lon="7.14971">
        <ele>690</ele>
        <time>2012-05-05T07:12:18Z</time>
      </trkpt>
      <trkpt lat="43.99629" lon="7.14973">
        <ele>690</ele>
        <time>2012-05-05T07:12:19Z</time>
      </trkpt>
      <trkpt lat="43.99634" lon="7.14992">
        <ele>690</ele>
        <time>2012-05-05T07:12:25Z</time>
      </trkpt>
      <trkpt lat="43.9964" lon="7.15014">
        <ele>690</ele>
        <time>2012-05-05T07:12:31Z</time>
      </trkpt>
      <trkpt lat="43.99647" lon="7.15034">
        <ele>690</ele>
        <time>2012-05-05T07:12:36Z</time>
      </trkpt>
      <trkpt lat="43.99651" lon="7.15044">
        <ele>690</ele>
        <time>2012-05-05T07:12:39Z</time>
      </trkpt>
      <trkpt lat="43.99654" lon="7.15053">
        <ele>690</ele>
        <time>2012-05-05T07:12:42Z</time>
      </trkpt>
      <trkpt lat="43.99661" lon="7.15068">
        <ele>690</ele>
        <time>2012-05-05T07:12:49Z</time>
      </trkpt>
      <trkpt lat="43.99662" lon="7.15083">
        <ele>690</ele>
        <time>2012-05-05T07:12:55Z</time>
      </trkpt>
      <trkpt lat="43.99659" lon="7.15097">
        <ele>690</ele>
        <time>2012-05-05T07:13:00Z</time>
      </trkpt>
      <trkpt lat="43.99659" lon="7.151">
        <ele>690</ele>
        <time>2012-05-05T07:13:01Z</time>
      </trkpt>
      <trkpt lat="43.99655" lon="7.15112">
        <ele>690</ele>
        <time>2012-05-05T07:13:06Z</time>
      </trkpt>
      <trkpt lat="43.99654" lon="7.15116">
        <ele>690</ele>
        <time>2012-05-05T07:13:08Z</time>
      </trkpt>
      <trkpt lat="43.99647" lon="7.15133">
        <ele>690</ele>
        <time>2012-05-05T07:13:16Z</time>
      </trkpt>
      <trkpt lat="43.99639" lon="7.15148">
        <ele>690</ele>
        <time>2012-05-05T07:13:24Z</time>
      </trkpt>
      <trkpt lat="43.99635" lon="7.15159">
        <ele>692</ele>
        <time>2012-05-05T07:13:29Z</time>
      </trkpt>
      <trkpt lat="43.99632" lon="7.15164">
        <ele>692</ele>
        <time>2012-05-05T07:13:32Z</time>
      </trkpt>
      <trkpt lat="43.9963" lon="7.15171">
        <ele>693.200012207</ele>
        <time>2012-05-05T07:13:38Z</time>
      </trkpt>
      <trkpt lat="43.99631" lon="7.15171">
        <ele>693.200012207</ele>
        <time>2012-05-05T07:13:40Z</time>
      </trkpt>
      <trkpt lat="43.9963" lon="7.15178">
        <ele>693.200012207</ele>
        <time>2012-05-05T07:13:44Z</time>
      </trkpt>
      <trkpt lat="43.99628" lon="7.15199">
        <ele>693.200012207</ele>
        <time>2012-05-05T07:13:50Z</time>
      </trkpt>
      <trkpt lat="43.99626" lon="7.1521">
        <ele>693.200012207</ele>
        <time>2012-05-05T07:13:53Z</time>
      </trkpt>
      <trkpt lat="43.99623" lon="7.15228">
        <ele>693.200012207</ele>
        <time>2012-05-05T07:13:58Z</time>
      </trkpt>
      <trkpt lat="43.99621" lon="7.15239">
        <ele>694.400024414</ele>
        <time>2012-05-05T07:14:01Z</time>
      </trkpt>
      <trkpt lat="43.99616" lon="7.15257">
        <ele>695.400024414</ele>
        <time>2012-05-05T07:14:06Z</time>
      </trkpt>
      <trkpt lat="43.99614" lon="7.15264">
        <ele>695.400024414</ele>
        <time>2012-05-05T07:14:08Z</time>
      </trkpt>
      <trkpt lat="43.99608" lon="7.15281">
        <ele>695.400024414</ele>
        <time>2012-05-05T07:14:13Z</time>
      </trkpt>
      <trkpt lat="43.99607" lon="7.15284">
        <ele>696.400024414</ele>
        <time>2012-05-05T07:14:14Z</time>
      </trkpt>
      <trkpt lat="43.99604" lon="7.15291">
        <ele>696.400024414</ele>
        <time>2012-05-05T07:14:16Z</time>
      </trkpt>
      <trkpt lat="43.99596" lon="7.15312">
        <ele>696.400024414</ele>
        <time>2012-05-05T07:14:22Z</time>
      </trkpt>
      <trkpt lat="43.9959" lon="7.15326">
        <ele>697.400024414</ele>
        <time>2012-05-05T07:14:26Z</time>
      </trkpt>
      <trkpt lat="43.99583" lon="7.15346">
        <ele>698.599975586</ele>
        <time>2012-05-05T07:14:32Z</time>
      </trkpt>
      <trkpt lat="43.99582" lon="7.1535">
        <ele>699.799987793</ele>
        <time>2012-05-05T07:14:33Z</time>
      </trkpt>
      <trkpt lat="43.99579" lon="7.15361">
        <ele>699.799987793</ele>
        <time>2012-05-05T07:14:36Z</time>
      </trkpt>
      <trkpt lat="43.99574" lon="7.15382">
        <ele>699.799987793</ele>
        <time>2012-05-05T07:14:42Z</time>
      </trkpt>
      <trkpt lat="43.99573" lon="7.1539">
        <ele>700.799987793</ele>
        <time>2012-05-05T07:14:44Z</time>
      </trkpt>
      <trkpt lat="43.99573" lon="7.15393">
        <ele>700.799987793</ele>
        <time>2012-05-05T07:14:45Z</time>
      </trkpt>
      <trkpt lat="43.99576" lon="7.15425">
        <ele>700.799987793</ele>
        <time>2012-05-05T07:14:52Z</time>
      </trkpt>
      <trkpt lat="43.99589" lon="7.15461">
        <ele>700.799987793</ele>
        <time>2012-05-05T07:15:00Z</time>
      </trkpt>
      <trkpt lat="43.99601" lon="7.15479">
        <ele>700.799987793</ele>
        <time>2012-05-05T07:15:05Z</time>
      </trkpt>
      <trkpt lat="43.99606" lon="7.15498">
        <ele>700.799987793</ele>
        <time>2012-05-05T07:15:09Z</time>
      </trkpt>
      <trkpt lat="43.99607" lon="7.15502">
        <ele>701.799987793</ele>
        <time>2012-05-05T07:15:10Z</time>
      </trkpt>
      <trkpt lat="43.99609" lon="7.15526">
        <ele>701.799987793</ele>
        <time>2012-05-05T07:15:15Z</time>
      </trkpt>
      <trkpt lat="43.99613" lon="7.1556">
        <ele>701.799987793</ele>
        <time>2012-05-05T07:15:22Z</time>
      </trkpt>
      <trkpt lat="43.99622" lon="7.15587">
        <ele>701.799987793</ele>
        <time>2012-05-05T07:15:28Z</time>
      </trkpt>
      <trkpt lat="43.99625" lon="7.1559">
        <ele>701.799987793</ele>
        <time>2012-05-05T07:15:29Z</time>
      </trkpt>
      <trkpt lat="43.99642" lon="7.15614">
        <ele>701.799987793</ele>
        <time>2012-05-05T07:15:36Z</time>
      </trkpt>
      <trkpt lat="43.99642" lon="7.15634">
        <ele>701.799987793</ele>
        <time>2012-05-05T07:15:40Z</time>
      </trkpt>
      <trkpt lat="43.99633" lon="7.15657">
        <ele>701.799987793</ele>
        <time>2012-05-05T07:15:45Z</time>
      </trkpt>
      <trkpt lat="43.99629" lon="7.15666">
        <ele>703</ele>
        <time>2012-05-05T07:15:47Z</time>
      </trkpt>
      <trkpt lat="43.99618" lon="7.15699">
        <ele>703</ele>
        <time>2012-05-05T07:15:54Z</time>
      </trkpt>
      <trkpt lat="43.99617" lon="7.15704">
        <ele>703</ele>
        <time>2012-05-05T07:15:55Z</time>
      </trkpt>
      <trkpt lat="43.99608" lon="7.15745">
        <ele>703</ele>
        <time>2012-05-05T07:16:03Z</time>
      </trkpt>
      <trkpt lat="43.99603" lon="7.15798">
        <ele>703</ele>
        <time>2012-05-05T07:16:13Z</time>
      </trkpt>
      <trkpt lat="43.99611" lon="7.15824">
        <ele>704</ele>
        <time>2012-05-05T07:16:18Z</time>
      </trkpt>
      <trkpt lat="43.99614" lon="7.15827">
        <ele>704</ele>
        <time>2012-05-05T07:16:19Z</time>
      </trkpt>
      <trkpt lat="43.99629" lon="7.15849">
        <ele>704</ele>
        <time>2012-05-05T07:16:24Z</time>
      </trkpt>
      <trkpt lat="43.99629" lon="7.15854">
        <ele>704</ele>
        <time>2012-05-05T07:16:25Z</time>
      </trkpt>
      <trkpt lat="43.99632" lon="7.15882">
        <ele>704</ele>
        <time>2012-05-05T07:16:30Z</time>
      </trkpt>
      <trkpt lat="43.99635" lon="7.15906">
        <ele>704</ele>
        <time>2012-05-05T07:16:34Z</time>
      </trkpt>
      <trkpt lat="43.99636" lon="7.15918">
        <ele>704</ele>
        <time>2012-05-05T07:16:36Z</time>
      </trkpt>
      <trkpt lat="43.99639" lon="7.15929">
        <ele>704</ele>
        <time>2012-05-05T07:16:38Z</time>
      </trkpt>
      <trkpt lat="43.99647" lon="7.15942">
        <ele>704</ele>
        <time>2012-05-05T07:16:41Z</time>
      </trkpt>
      <trkpt lat="43.99658" lon="7.15966">
        <ele>704</ele>
        <time>2012-05-05T07:16:46Z</time>
      </trkpt>
      <trkpt lat="43.99651" lon="7.15981">
        <ele>704</ele>
        <time>2012-05-05T07:16:49Z</time>
      </trkpt>
      <trkpt lat="43.99642" lon="7.15983">
        <ele>704</ele>
        <time>2012-05-05T07:16:52Z</time>
      </trkpt>
      <trkpt lat="43.99621" lon="7.15982">
        <ele>704</ele>
        <time>2012-05-05T07:16:57Z</time>
      </trkpt>
      <trkpt lat="43.99593" lon="7.15969">
        <ele>704</ele>
        <time>2012-05-05T07:17:04Z</time>
      </trkpt>
      <trkpt lat="43.99589" lon="7.15966">
        <ele>701</ele>
        <time>2012-05-05T07:17:05Z</time>
      </trkpt>
      <trkpt lat="43.99586" lon="7.15964">
        <ele>705.799987793</ele>
        <time>2012-05-05T07:17:06Z</time>
      </trkpt>
      <trkpt lat="43.99582" lon="7.1596">
        <ele>705.799987793</ele>
        <time>2012-05-05T07:17:07Z</time>
      </trkpt>
      <trkpt lat="43.99575" lon="7.15954">
        <ele>705.799987793</ele>
        <time>2012-05-05T07:17:09Z</time>
      </trkpt>
      <trkpt lat="43.99568" lon="7.1595">
        <ele>705.799987793</ele>
        <time>2012-05-05T07:17:11Z</time>
      </trkpt>
      <trkpt lat="43.9956" lon="7.15952">
        <ele>705.799987793</ele>
        <time>2012-05-05T07:17:13Z</time>
      </trkpt>
      <trkpt lat="43.99548" lon="7.15957">
        <ele>705.799987793</ele>
        <time>2012-05-05T07:17:16Z</time>
      </trkpt>
      <trkpt lat="43.99533" lon="7.15965">
        <ele>705.799987793</ele>
        <time>2012-05-05T07:17:20Z</time>
      </trkpt>
      <trkpt lat="43.99505" lon="7.1598">
        <ele>705.799987793</ele>
        <time>2012-05-05T07:17:27Z</time>
      </trkpt>
      <trkpt lat="43.99503" lon="7.15985">
        <ele>705.799987793</ele>
        <time>2012-05-05T07:17:28Z</time>
      </trkpt>
      <trkpt lat="43.99502" lon="7.16003">
        <ele>705.799987793</ele>
        <time>2012-05-05T07:17:31Z</time>
      </trkpt>
      <trkpt lat="43.9951" lon="7.16031">
        <ele>705.799987793</ele>
        <time>2012-05-05T07:17:36Z</time>
      </trkpt>
      <trkpt lat="43.99512" lon="7.16036">
        <ele>705.799987793</ele>
        <time>2012-05-05T07:17:37Z</time>
      </trkpt>
      <trkpt lat="43.99522" lon="7.16054">
        <ele>705.799987793</ele>
        <time>2012-05-05T07:17:41Z</time>
      </trkpt>
      <trkpt lat="43.99529" lon="7.16061">
        <ele>705.799987793</ele>
        <time>2012-05-05T07:17:43Z</time>
      </trkpt>
      <trkpt lat="43.99549" lon="7.16084">
        <ele>705.799987793</ele>
        <time>2012-05-05T07:17:49Z</time>
      </trkpt>
      <trkpt lat="43.99552" lon="7.16089">
        <ele>705.799987793</ele>
        <time>2012-05-05T07:17:50Z</time>
      </trkpt>
      <trkpt lat="43.99562" lon="7.16116">
        <ele>705.799987793</ele>
        <time>2012-05-05T07:17:55Z</time>
      </trkpt>
      <trkpt lat="43.9957" lon="7.16138">
        <ele>705.799987793</ele>
        <time>2012-05-05T07:17:59Z</time>
      </trkpt>
      <trkpt lat="43.9957" lon="7.16151">
        <ele>705.799987793</ele>
        <time>2012-05-05T07:18:01Z</time>
      </trkpt>
      <trkpt lat="43.9957" lon="7.16163">
        <ele>705.799987793</ele>
        <time>2012-05-05T07:18:03Z</time>
      </trkpt>
      <trkpt lat="43.9957" lon="7.16175">
        <ele>705.799987793</ele>
        <time>2012-05-05T07:18:05Z</time>
      </trkpt>
      <trkpt lat="43.99571" lon="7.16181">
        <ele>705.799987793</ele>
        <time>2012-05-05T07:18:06Z</time>
      </trkpt>
      <trkpt lat="43.99581" lon="7.16209">
        <ele>705.799987793</ele>
        <time>2012-05-05T07:18:11Z</time>
      </trkpt>
      <trkpt lat="43.99592" lon="7.16229">
        <ele>705.799987793</ele>
        <time>2012-05-05T07:18:15Z</time>
      </trkpt>
      <trkpt lat="43.99599" lon="7.16238">
        <ele>705.799987793</ele>
        <time>2012-05-05T07:18:17Z</time>
      </trkpt>
      <trkpt lat="43.99605" lon="7.16246">
        <ele>705.799987793</ele>
        <time>2012-05-05T07:18:19Z</time>
      </trkpt>
      <trkpt lat="43.99618" lon="7.16262">
        <ele>705.799987793</ele>
        <time>2012-05-05T07:18:23Z</time>
      </trkpt>
      <trkpt lat="43.99615" lon="7.1628">
        <ele>705.799987793</ele>
        <time>2012-05-05T07:18:26Z</time>
      </trkpt>
      <trkpt lat="43.9961" lon="7.1629">
        <ele>705.799987793</ele>
        <time>2012-05-05T07:18:28Z</time>
      </trkpt>
      <trkpt lat="43.996" lon="7.16317">
        <ele>705.799987793</ele>
        <time>2012-05-05T07:18:33Z</time>
      </trkpt>
      <trkpt lat="43.99598" lon="7.16322">
        <ele>705.799987793</ele>
        <time>2012-05-05T07:18:34Z</time>
      </trkpt>
      <trkpt lat="43.99598" lon="7.16348">
        <ele>705.799987793</ele>
        <time>2012-05-05T07:18:38Z</time>
      </trkpt>
      <trkpt lat="43.99599" lon="7.16353">
        <ele>705.799987793</ele>
        <time>2012-05-05T07:18:39Z</time>
      </trkpt>
      <trkpt lat="43.99601" lon="7.16365">
        <ele>705.799987793</ele>
        <time>2012-05-05T07:18:41Z</time>
      </trkpt>
      <trkpt lat="43.99609" lon="7.16381">
        <ele>705.799987793</ele>
        <time>2012-05-05T07:18:44Z</time>
      </trkpt>
      <trkpt lat="43.99611" lon="7.16385">
        <ele>705.799987793</ele>
        <time>2012-05-05T07:18:45Z</time>
      </trkpt>
      <trkpt lat="43.99613" lon="7.16391">
        <ele>705.799987793</ele>
        <time>2012-05-05T07:18:46Z</time>
      </trkpt>
      <trkpt lat="43.99612" lon="7.16409">
        <ele>705.799987793</ele>
        <time>2012-05-05T07:18:49Z</time>
      </trkpt>
      <trkpt lat="43.99603" lon="7.16423">
        <ele>705.799987793</ele>
        <time>2012-05-05T07:18:52Z</time>
      </trkpt>
      <trkpt lat="43.99602" lon="7.16446">
        <ele>705.799987793</ele>
        <time>2012-05-05T07:18:56Z</time>
      </trkpt>
      <trkpt lat="43.99609" lon="7.16462">
        <ele>707.799987793</ele>
        <time>2012-05-05T07:18:59Z</time>
      </trkpt>
      <trkpt lat="43.99612" lon="7.16466">
        <ele>707.799987793</ele>
        <time>2012-05-05T07:19:00Z</time>
      </trkpt>
      <trkpt lat="43.99619" lon="7.16474">
        <ele>704.799987793</ele>
        <time>2012-05-05T07:19:02Z</time>
      </trkpt>
      <trkpt lat="43.99631" lon="7.1648">
        <ele>704.799987793</ele>
        <time>2012-05-05T07:19:05Z</time>
      </trkpt>
      <trkpt lat="43.9964" lon="7.16487">
        <ele>704.799987793</ele>
        <time>2012-05-05T07:19:07Z</time>
      </trkpt>
      <trkpt lat="43.99649" lon="7.165">
        <ele>704.799987793</ele>
        <time>2012-05-05T07:19:10Z</time>
      </trkpt>
      <trkpt lat="43.99652" lon="7.16505">
        <ele>704.799987793</ele>
        <time>2012-05-05T07:19:11Z</time>
      </trkpt>
      <trkpt lat="43.99656" lon="7.16508">
        <ele>704.799987793</ele>
        <time>2012-05-05T07:19:12Z</time>
      </trkpt>
      <trkpt lat="43.99665" lon="7.16512">
        <ele>704.799987793</ele>
        <time>2012-05-05T07:19:14Z</time>
      </trkpt>
      <trkpt lat="43.99704" lon="7.16528">
        <ele>704.799987793</ele>
        <time>2012-05-05T07:19:23Z</time>
      </trkpt>
      <trkpt lat="43.99726" lon="7.1654">
        <ele>704.799987793</ele>
        <time>2012-05-05T07:19:28Z</time>
      </trkpt>
      <trkpt lat="43.99732" lon="7.16548">
        <ele>704.799987793</ele>
        <time>2012-05-05T07:19:30Z</time>
      </trkpt>
      <trkpt lat="43.99757" lon="7.16575">
        <ele>704.799987793</ele>
        <time>2012-05-05T07:19:37Z</time>
      </trkpt>
      <trkpt lat="43.99761" lon="7.16576">
        <ele>704.799987793</ele>
        <time>2012-05-05T07:19:38Z</time>
      </trkpt>
      <trkpt lat="43.99775" lon="7.16576">
        <ele>704.799987793</ele>
        <time>2012-05-05T07:19:41Z</time>
      </trkpt>
      <trkpt lat="43.99802" lon="7.16571">
        <ele>704.799987793</ele>
        <time>2012-05-05T07:19:47Z</time>
      </trkpt>
      <trkpt lat="43.99815" lon="7.16575">
        <ele>704.799987793</ele>
        <time>2012-05-05T07:19:50Z</time>
      </trkpt>
      <trkpt lat="43.99824" lon="7.16582">
        <ele>704.799987793</ele>
        <time>2012-05-05T07:19:52Z</time>
      </trkpt>
      <trkpt lat="43.99826" lon="7.16601">
        <ele>704.799987793</ele>
        <time>2012-05-05T07:19:55Z</time>
      </trkpt>
      <trkpt lat="43.99817" lon="7.16615">
        <ele>704.799987793</ele>
        <time>2012-05-05T07:19:58Z</time>
      </trkpt>
      <trkpt lat="43.99801" lon="7.16625">
        <ele>704.799987793</ele>
        <time>2012-05-05T07:20:02Z</time>
      </trkpt>
      <trkpt lat="43.99794" lon="7.16633">
        <ele>704.799987793</ele>
        <time>2012-05-05T07:20:04Z</time>
      </trkpt>
      <trkpt lat="43.9978" lon="7.16648">
        <ele>704.799987793</ele>
        <time>2012-05-05T07:20:08Z</time>
      </trkpt>
      <trkpt lat="43.99752" lon="7.16667">
        <ele>704.799987793</ele>
        <time>2012-05-05T07:20:15Z</time>
      </trkpt>
      <trkpt lat="43.99735" lon="7.16672">
        <ele>704.799987793</ele>
        <time>2012-05-05T07:20:19Z</time>
      </trkpt>
      <trkpt lat="43.99731" lon="7.16673">
        <ele>704.799987793</ele>
        <time>2012-05-05T07:20:20Z</time>
      </trkpt>
      <trkpt lat="43.99722" lon="7.16677">
        <ele>704.799987793</ele>
        <time>2012-05-05T07:20:22Z</time>
      </trkpt>
      <trkpt lat="43.99709" lon="7.16687">
        <ele>704.799987793</ele>
        <time>2012-05-05T07:20:25Z</time>
      </trkpt>
      <trkpt lat="43.99694" lon="7.167">
        <ele>704.799987793</ele>
        <time>2012-05-05T07:20:29Z</time>
      </trkpt>
      <trkpt lat="43.99691" lon="7.16711">
        <ele>704.799987793</ele>
        <time>2012-05-05T07:20:31Z</time>
      </trkpt>
      <trkpt lat="43.99692" lon="7.16735">
        <ele>704.799987793</ele>
        <time>2012-05-05T07:20:35Z</time>
      </trkpt>
      <trkpt lat="43.997" lon="7.16787">
        <ele>704.799987793</ele>
        <time>2012-05-05T07:20:43Z</time>
      </trkpt>
      <trkpt lat="43.997" lon="7.16794">
        <ele>704.799987793</ele>
        <time>2012-05-05T07:20:44Z</time>
      </trkpt>
      <trkpt lat="43.99699" lon="7.16827">
        <ele>704.799987793</ele>
        <time>2012-05-05T07:20:49Z</time>
      </trkpt>
      <trkpt lat="43.99704" lon="7.16867">
        <ele>704.799987793</ele>
        <time>2012-05-05T07:20:55Z</time>
      </trkpt>
      <trkpt lat="43.99718" lon="7.16912">
        <ele>704.799987793</ele>
        <time>2012-05-05T07:21:02Z</time>
      </trkpt>
      <trkpt lat="43.99728" lon="7.16942">
        <ele>704.799987793</ele>
        <time>2012-05-05T07:21:07Z</time>
      </trkpt>
      <trkpt lat="43.99735" lon="7.1695">
        <ele>704.799987793</ele>
        <time>2012-05-05T07:21:09Z</time>
      </trkpt>
      <trkpt lat="43.9975" lon="7.16951">
        <ele>704.799987793</ele>
        <time>2012-05-05T07:21:12Z</time>
      </trkpt>
      <trkpt lat="43.99764" lon="7.16944">
        <ele>704.799987793</ele>
        <time>2012-05-05T07:21:15Z</time>
      </trkpt>
      <trkpt lat="43.99768" lon="7.16941">
        <ele>704.799987793</ele>
        <time>2012-05-05T07:21:16Z</time>
      </trkpt>
      <trkpt lat="43.99782" lon="7.16936">
        <ele>704.799987793</ele>
        <time>2012-05-05T07:21:19Z</time>
      </trkpt>
      <trkpt lat="43.99796" lon="7.16937">
        <ele>704.799987793</ele>
        <time>2012-05-05T07:21:22Z</time>
      </trkpt>
      <trkpt lat="43.99806" lon="7.16938">
        <ele>707.200012207</ele>
        <time>2012-05-05T07:21:24Z</time>
      </trkpt>
      <trkpt lat="43.99833" lon="7.16943">
        <ele>708.799987793</ele>
        <time>2012-05-05T07:21:30Z</time>
      </trkpt>
      <trkpt lat="43.99838" lon="7.16944">
        <ele>708.799987793</ele>
        <time>2012-05-05T07:21:31Z</time>
      </trkpt>
      <trkpt lat="43.99843" lon="7.16946">
        <ele>705.599975586</ele>
        <time>2012-05-05T07:21:32Z</time>
      </trkpt>
      <trkpt lat="43.99847" lon="7.16949">
        <ele>705.599975586</ele>
        <time>2012-05-05T07:21:33Z</time>
      </trkpt>
      <trkpt lat="43.99856" lon="7.16965">
        <ele>708.799987793</ele>
        <time>2012-05-05T07:21:36Z</time>
      </trkpt>
      <trkpt lat="43.99849" lon="7.16983">
        <ele>708.799987793</ele>
        <time>2012-05-05T07:21:39Z</time>
      </trkpt>
      <trkpt lat="43.99846" lon="7.16987">
        <ele>705.799987793</ele>
        <time>2012-05-05T07:21:40Z</time>
      </trkpt>
      <trkpt lat="43.99841" lon="7.1699">
        <ele>704.400024414</ele>
        <time>2012-05-05T07:21:41Z</time>
      </trkpt>
      <trkpt lat="43.99833" lon="7.16996">
        <ele>707.599975586</ele>
        <time>2012-05-05T07:21:43Z</time>
      </trkpt>
      <trkpt lat="43.99829" lon="7.16999">
        <ele>707.599975586</ele>
        <time>2012-05-05T07:21:44Z</time>
      </trkpt>
      <trkpt lat="43.99807" lon="7.17011">
        <ele>707.599975586</ele>
        <time>2012-05-05T07:21:49Z</time>
      </trkpt>
      <trkpt lat="43.99794" lon="7.17037">
        <ele>707.599975586</ele>
        <time>2012-05-05T07:21:54Z</time>
      </trkpt>
      <trkpt lat="43.99793" lon="7.1705">
        <ele>707.599975586</ele>
        <time>2012-05-05T07:21:56Z</time>
      </trkpt>
      <trkpt lat="43.99791" lon="7.1707">
        <ele>707.599975586</ele>
        <time>2012-05-05T07:21:59Z</time>
      </trkpt>
      <trkpt lat="43.99779" lon="7.17128">
        <ele>707.599975586</ele>
        <time>2012-05-05T07:22:08Z</time>
      </trkpt>
      <trkpt lat="43.99772" lon="7.17167">
        <ele>707.599975586</ele>
        <time>2012-05-05T07:22:14Z</time>
      </trkpt>
      <trkpt lat="43.99773" lon="7.1718">
        <ele>707.599975586</ele>
        <time>2012-05-05T07:22:16Z</time>
      </trkpt>
      <trkpt lat="43.99783" lon="7.1721">
        <ele>707.599975586</ele>
        <time>2012-05-05T07:22:21Z</time>
      </trkpt>
      <trkpt lat="43.99797" lon="7.17219">
        <ele>707.599975586</ele>
        <time>2012-05-05T07:22:24Z</time>
      </trkpt>
      <trkpt lat="43.99801" lon="7.17221">
        <ele>707.599975586</ele>
        <time>2012-05-05T07:22:25Z</time>
      </trkpt>
      <trkpt lat="43.99827" lon="7.17237">
        <ele>707.599975586</ele>
        <time>2012-05-05T07:22:31Z</time>
      </trkpt>
      <trkpt lat="43.99832" lon="7.17237">
        <ele>709.799987793</ele>
        <time>2012-05-05T07:22:32Z</time>
      </trkpt>
      <trkpt lat="43.99846" lon="7.17234">
        <ele>709.799987793</ele>
        <time>2012-05-05T07:22:35Z</time>
      </trkpt>
      <trkpt lat="43.99856" lon="7.17234">
        <ele>709.799987793</ele>
        <time>2012-05-05T07:22:37Z</time>
      </trkpt>
      <trkpt lat="43.99871" lon="7.17251">
        <ele>709.799987793</ele>
        <time>2012-05-05T07:22:41Z</time>
      </trkpt>
      <trkpt lat="43.99871" lon="7.17276">
        <ele>709.799987793</ele>
        <time>2012-05-05T07:22:45Z</time>
      </trkpt>
      <trkpt lat="43.99857" lon="7.17284">
        <ele>709.799987793</ele>
        <time>2012-05-05T07:22:48Z</time>
      </trkpt>
      <trkpt lat="43.99849" lon="7.1729">
        <ele>710.799987793</ele>
        <time>2012-05-05T07:22:50Z</time>
      </trkpt>
      <trkpt lat="43.99845" lon="7.17294">
        <ele>707.400024414</ele>
        <time>2012-05-05T07:22:51Z</time>
      </trkpt>
      <trkpt lat="43.99842" lon="7.17307">
        <ele>707.400024414</ele>
        <time>2012-05-05T07:22:53Z</time>
      </trkpt>
      <trkpt lat="43.9985" lon="7.17324">
        <ele>710.599975586</ele>
        <time>2012-05-05T07:22:56Z</time>
      </trkpt>
      <trkpt lat="43.99861" lon="7.17335">
        <ele>707.200012207</ele>
        <time>2012-05-05T07:22:59Z</time>
      </trkpt>
      <trkpt lat="43.99865" lon="7.17338">
        <ele>707.200012207</ele>
        <time>2012-05-05T07:23:00Z</time>
      </trkpt>
      <trkpt lat="43.9987" lon="7.17342">
        <ele>707.200012207</ele>
        <time>2012-05-05T07:23:01Z</time>
      </trkpt>
      <trkpt lat="43.99887" lon="7.17355">
        <ele>707.200012207</ele>
        <time>2012-05-05T07:23:05Z</time>
      </trkpt>
      <trkpt lat="43.99893" lon="7.17366">
        <ele>707.200012207</ele>
        <time>2012-05-05T07:23:07Z</time>
      </trkpt>
      <trkpt lat="43.99892" lon="7.17385">
        <ele>707.200012207</ele>
        <time>2012-05-05T07:23:10Z</time>
      </trkpt>
      <trkpt lat="43.99888" lon="7.17398">
        <ele>707.200012207</ele>
        <time>2012-05-05T07:23:12Z</time>
      </trkpt>
      <trkpt lat="43.99886" lon="7.17404">
        <ele>707.200012207</ele>
        <time>2012-05-05T07:23:13Z</time>
      </trkpt>
      <trkpt lat="43.99886" lon="7.17411">
        <ele>707.200012207</ele>
        <time>2012-05-05T07:23:14Z</time>
      </trkpt>
      <trkpt lat="43.99886" lon="7.17417">
        <ele>710.400024414</ele>
        <time>2012-05-05T07:23:15Z</time>
      </trkpt>
      <trkpt lat="43.99893" lon="7.17435">
        <ele>710.400024414</ele>
        <time>2012-05-05T07:23:18Z</time>
      </trkpt>
      <trkpt lat="43.99899" lon="7.17444">
        <ele>710.400024414</ele>
        <time>2012-05-05T07:23:20Z</time>
      </trkpt>
      <trkpt lat="43.99906" lon="7.17453">
        <ele>710.400024414</ele>
        <time>2012-05-05T07:23:22Z</time>
      </trkpt>
      <trkpt lat="43.9991" lon="7.17456">
        <ele>711.599975586</ele>
        <time>2012-05-05T07:23:23Z</time>
      </trkpt>
      <trkpt lat="43.99924" lon="7.17462">
        <ele>711.599975586</ele>
        <time>2012-05-05T07:23:26Z</time>
      </trkpt>
      <trkpt lat="43.99933" lon="7.17465">
        <ele>711.599975586</ele>
        <time>2012-05-05T07:23:28Z</time>
      </trkpt>
      <trkpt lat="43.99952" lon="7.17471">
        <ele>711.599975586</ele>
        <time>2012-05-05T07:23:32Z</time>
      </trkpt>
      <trkpt lat="43.9996" lon="7.17478">
        <ele>711.599975586</ele>
        <time>2012-05-05T07:23:34Z</time>
      </trkpt>
      <trkpt lat="43.99972" lon="7.17491">
        <ele>711.599975586</ele>
        <time>2012-05-05T07:23:37Z</time>
      </trkpt>
      <trkpt lat="43.99972" lon="7.17504">
        <ele>711.599975586</ele>
        <time>2012-05-05T07:23:39Z</time>
      </trkpt>
      <trkpt lat="43.9996" lon="7.17513">
        <ele>711.599975586</ele>
        <time>2012-05-05T07:23:42Z</time>
      </trkpt>
      <trkpt lat="43.99943" lon="7.17518">
        <ele>711.599975586</ele>
        <time>2012-05-05T07:23:46Z</time>
      </trkpt>
      <trkpt lat="43.99931" lon="7.17537">
        <ele>711.599975586</ele>
        <time>2012-05-05T07:23:50Z</time>
      </trkpt>
      <trkpt lat="43.99925" lon="7.17569">
        <ele>711.599975586</ele>
        <time>2012-05-05T07:23:55Z</time>
      </trkpt>
      <trkpt lat="43.99927" lon="7.17583">
        <ele>711.599975586</ele>
        <time>2012-05-05T07:23:57Z</time>
      </trkpt>
      <trkpt lat="43.99932" lon="7.17602">
        <ele>711.599975586</ele>
        <time>2012-05-05T07:24:00Z</time>
      </trkpt>
      <trkpt lat="43.9994" lon="7.17627">
        <ele>711.599975586</ele>
        <time>2012-05-05T07:24:04Z</time>
      </trkpt>
      <trkpt lat="43.99942" lon="7.17641">
        <ele>711.599975586</ele>
        <time>2012-05-05T07:24:06Z</time>
      </trkpt>
      <trkpt lat="43.99948" lon="7.17658">
        <ele>711.599975586</ele>
        <time>2012-05-05T07:24:09Z</time>
      </trkpt>
      <trkpt lat="43.99954" lon="7.17668">
        <ele>711.599975586</ele>
        <time>2012-05-05T07:24:11Z</time>
      </trkpt>
      <trkpt lat="43.99969" lon="7.17684">
        <ele>711.599975586</ele>
        <time>2012-05-05T07:24:15Z</time>
      </trkpt>
      <trkpt lat="43.99973" lon="7.17688">
        <ele>711.599975586</ele>
        <time>2012-05-05T07:24:16Z</time>
      </trkpt>
      <trkpt lat="44.00004" lon="7.1773">
        <ele>711.599975586</ele>
        <time>2012-05-05T07:24:25Z</time>
      </trkpt>
      <trkpt lat="44.00011" lon="7.17752">
        <ele>711.599975586</ele>
        <time>2012-05-05T07:24:29Z</time>
      </trkpt>
      <trkpt lat="44.00015" lon="7.17762">
        <ele>709</ele>
        <time>2012-05-05T07:24:31Z</time>
      </trkpt>
      <trkpt lat="44.00024" lon="7.1778">
        <ele>709</ele>
        <time>2012-05-05T07:24:35Z</time>
      </trkpt>
      <trkpt lat="44.00029" lon="7.17789">
        <ele>709</ele>
        <time>2012-05-05T07:24:37Z</time>
      </trkpt>
      <trkpt lat="44.00031" lon="7.17815">
        <ele>709</ele>
        <time>2012-05-05T07:24:42Z</time>
      </trkpt>
      <trkpt lat="44.00027" lon="7.17819">
        <ele>707.200012207</ele>
        <time>2012-05-05T07:24:43Z</time>
      </trkpt>
      <trkpt lat="44.00022" lon="7.17827">
        <ele>712</ele>
        <time>2012-05-05T07:24:45Z</time>
      </trkpt>
      <trkpt lat="44.00019" lon="7.17832">
        <ele>712</ele>
        <time>2012-05-05T07:24:46Z</time>
      </trkpt>
      <trkpt lat="44.00008" lon="7.17843">
        <ele>712</ele>
        <time>2012-05-05T07:24:50Z</time>
      </trkpt>
      <trkpt lat="44.00003" lon="7.17843">
        <ele>712</ele>
        <time>2012-05-05T07:24:51Z</time>
      </trkpt>
      <trkpt lat="43.99992" lon="7.17832">
        <ele>708.599975586</ele>
        <time>2012-05-05T07:24:54Z</time>
      </trkpt>
      <trkpt lat="43.99987" lon="7.17824">
        <ele>708.599975586</ele>
        <time>2012-05-05T07:24:56Z</time>
      </trkpt>
      <trkpt lat="43.99985" lon="7.1782">
        <ele>711.799987793</ele>
        <time>2012-05-05T07:24:57Z</time>
      </trkpt>
      <trkpt lat="43.99982" lon="7.17818">
        <ele>708.200012207</ele>
        <time>2012-05-05T07:24:58Z</time>
      </trkpt>
      <trkpt lat="43.99979" lon="7.17814">
        <ele>708.200012207</ele>
        <time>2012-05-05T07:24:59Z</time>
      </trkpt>
      <trkpt lat="43.99969" lon="7.17805">
        <ele>707</ele>
        <time>2012-05-05T07:25:02Z</time>
      </trkpt>
      <trkpt lat="43.99965" lon="7.17802">
        <ele>705.799987793</ele>
        <time>2012-05-05T07:25:03Z</time>
      </trkpt>
      <trkpt lat="43.99961" lon="7.178">
        <ele>711</ele>
        <time>2012-05-05T07:25:04Z</time>
      </trkpt>
      <trkpt lat="43.99957" lon="7.17797">
        <ele>711</ele>
        <time>2012-05-05T07:25:05Z</time>
      </trkpt>
      <trkpt lat="43.99953" lon="7.17795">
        <ele>707.599975586</ele>
        <time>2012-05-05T07:25:06Z</time>
      </trkpt>
      <trkpt lat="43.99948" lon="7.17793">
        <ele>711</ele>
        <time>2012-05-05T07:25:07Z</time>
      </trkpt>
      <trkpt lat="43.99944" lon="7.17792">
        <ele>713.799987793</ele>
        <time>2012-05-05T07:25:08Z</time>
      </trkpt>
      <trkpt lat="43.99935" lon="7.17788">
        <ele>708.599975586</ele>
        <time>2012-05-05T07:25:10Z</time>
      </trkpt>
      <trkpt lat="43.99931" lon="7.17787">
        <ele>710.200012207</ele>
        <time>2012-05-05T07:25:11Z</time>
      </trkpt>
      <trkpt lat="43.99926" lon="7.17785">
        <ele>711.400024414</ele>
        <time>2012-05-05T07:25:12Z</time>
      </trkpt>
      <trkpt lat="43.99917" lon="7.17782">
        <ele>714.200012207</ele>
        <time>2012-05-05T07:25:14Z</time>
      </trkpt>
      <trkpt lat="43.9991" lon="7.17777">
        <ele>715.400024414</ele>
        <time>2012-05-05T07:25:16Z</time>
      </trkpt>
      <trkpt lat="43.99906" lon="7.17775">
        <ele>710.799987793</ele>
        <time>2012-05-05T07:25:17Z</time>
      </trkpt>
      <trkpt lat="43.99903" lon="7.17773">
        <ele>710.799987793</ele>
        <time>2012-05-05T07:25:18Z</time>
      </trkpt>
      <trkpt lat="43.99892" lon="7.1777">
        <ele>714.400024414</ele>
        <time>2012-05-05T07:25:22Z</time>
      </trkpt>
      <trkpt lat="43.99889" lon="7.17772">
        <ele>714.400024414</ele>
        <time>2012-05-05T07:25:23Z</time>
      </trkpt>
      <trkpt lat="43.99878" lon="7.17781">
        <ele>714.400024414</ele>
        <time>2012-05-05T07:25:29Z</time>
      </trkpt>
      <trkpt lat="43.99877" lon="7.17783">
        <ele>716</ele>
        <time>2012-05-05T07:25:30Z</time>
      </trkpt>
      <trkpt lat="43.99874" lon="7.17784">
        <ele>712.799987793</ele>
        <time>2012-05-05T07:25:31Z</time>
      </trkpt>
      <trkpt lat="43.99871" lon="7.17786">
        <ele>711.200012207</ele>
        <time>2012-05-05T07:25:32Z</time>
      </trkpt>
      <trkpt lat="43.99869" lon="7.17787">
        <ele>716.599975586</ele>
        <time>2012-05-05T07:25:33Z</time>
      </trkpt>
      <trkpt lat="43.99866" lon="7.17789">
        <ele>718.200012207</ele>
        <time>2012-05-05T07:25:34Z</time>
      </trkpt>
      <trkpt lat="43.99862" lon="7.17794">
        <ele>714.599975586</ele>
        <time>2012-05-05T07:25:36Z</time>
      </trkpt>
      <trkpt lat="43.99849" lon="7.17809">
        <ele>714.599975586</ele>
        <time>2012-05-05T07:25:43Z</time>
      </trkpt>
      <trkpt lat="43.99842" lon="7.17821">
        <ele>714.599975586</ele>
        <time>2012-05-05T07:25:48Z</time>
      </trkpt>
      <trkpt lat="43.9984" lon="7.17824">
        <ele>717.799987793</ele>
        <time>2012-05-05T07:25:49Z</time>
      </trkpt>
      <trkpt lat="43.99827" lon="7.17833">
        <ele>717.799987793</ele>
        <time>2012-05-05T07:25:55Z</time>
      </trkpt>
      <trkpt lat="43.99822" lon="7.17831">
        <ele>719.200012207</ele>
        <time>2012-05-05T07:25:57Z</time>
      </trkpt>
      <trkpt lat="43.9982" lon="7.17828">
        <ele>715.799987793</ele>
        <time>2012-05-05T07:25:58Z</time>
      </trkpt>
      <trkpt lat="43.99818" lon="7.17826">
        <ele>719.599975586</ele>
        <time>2012-05-05T07:25:59Z</time>
      </trkpt>
      <trkpt lat="43.99816" lon="7.17823">
        <ele>720.599975586</ele>
        <time>2012-05-05T07:26:00Z</time>
      </trkpt>
      <trkpt lat="43.99809" lon="7.17809">
        <ele>720.599975586</ele>
        <time>2012-05-05T07:26:05Z</time>
      </trkpt>
      <trkpt lat="43.99809" lon="7.17806">
        <ele>720.599975586</ele>
        <time>2012-05-05T07:26:06Z</time>
      </trkpt>
      <trkpt lat="43.99813" lon="7.17792">
        <ele>720.599975586</ele>
        <time>2012-05-05T07:26:12Z</time>
      </trkpt>
      <trkpt lat="43.99817" lon="7.1778">
        <ele>720.599975586</ele>
        <time>2012-05-05T07:26:17Z</time>
      </trkpt>
      <trkpt lat="43.99819" lon="7.17774">
        <ele>720.599975586</ele>
        <time>2012-05-05T07:26:20Z</time>
      </trkpt>
      <trkpt lat="43.9982" lon="7.17771">
        <ele>722.599975586</ele>
        <time>2012-05-05T07:26:21Z</time>
      </trkpt>
      <trkpt lat="43.99825" lon="7.17755">
        <ele>722.599975586</ele>
        <time>2012-05-05T07:26:28Z</time>
      </trkpt>
      <trkpt lat="43.99826" lon="7.17751">
        <ele>723.599975586</ele>
        <time>2012-05-05T07:26:30Z</time>
      </trkpt>
      <trkpt lat="43.99833" lon="7.17737">
        <ele>723.599975586</ele>
        <time>2012-05-05T07:26:37Z</time>
      </trkpt>
      <trkpt lat="43.99835" lon="7.17733">
        <ele>723.599975586</ele>
        <time>2012-05-05T07:26:39Z</time>
      </trkpt>
      <trkpt lat="43.9984" lon="7.1772">
        <ele>723.599975586</ele>
        <time>2012-05-05T07:26:45Z</time>
      </trkpt>
      <trkpt lat="43.99841" lon="7.17715">
        <ele>723.599975586</ele>
        <time>2012-05-05T07:26:47Z</time>
      </trkpt>
      <trkpt lat="43.99839" lon="7.17695">
        <ele>724.799987793</ele>
        <time>2012-05-05T07:26:55Z</time>
      </trkpt>
      <trkpt lat="43.99833" lon="7.1768">
        <ele>725.799987793</ele>
        <time>2012-05-05T07:27:01Z</time>
      </trkpt>
      <trkpt lat="43.99829" lon="7.17668">
        <ele>725.799987793</ele>
        <time>2012-05-05T07:27:06Z</time>
      </trkpt>
      <trkpt lat="43.99821" lon="7.1766">
        <ele>726.799987793</ele>
        <time>2012-05-05T07:27:11Z</time>
      </trkpt>
      <trkpt lat="43.9982" lon="7.17659">
        <ele>726.799987793</ele>
        <time>2012-05-05T07:27:12Z</time>
      </trkpt>
      <trkpt lat="43.99815" lon="7.17656">
        <ele>727.799987793</ele>
        <time>2012-05-05T07:27:15Z</time>
      </trkpt>
      <trkpt lat="43.99809" lon="7.17649">
        <ele>728.799987793</ele>
        <time>2012-05-05T07:27:19Z</time>
      </trkpt>
      <trkpt lat="43.99807" lon="7.17647">
        <ele>728.799987793</ele>
        <time>2012-05-05T07:27:20Z</time>
      </trkpt>
      <trkpt lat="43.99805" lon="7.1764">
        <ele>730</ele>
        <time>2012-05-05T07:27:23Z</time>
      </trkpt>
      <trkpt lat="43.99802" lon="7.1763">
        <ele>730</ele>
        <time>2012-05-05T07:27:27Z</time>
      </trkpt>
      <trkpt lat="43.99801" lon="7.17625">
        <ele>731.400024414</ele>
        <time>2012-05-05T07:27:29Z</time>
      </trkpt>
      <trkpt lat="43.99799" lon="7.17614">
        <ele>732.400024414</ele>
        <time>2012-05-05T07:27:33Z</time>
      </trkpt>
      <trkpt lat="43.99795" lon="7.17608">
        <ele>732.400024414</ele>
        <time>2012-05-05T07:27:36Z</time>
      </trkpt>
      <trkpt lat="43.9979" lon="7.17599">
        <ele>733.400024414</ele>
        <time>2012-05-05T07:27:40Z</time>
      </trkpt>
      <trkpt lat="43.99785" lon="7.17592">
        <ele>734.400024414</ele>
        <time>2012-05-05T07:27:44Z</time>
      </trkpt>
      <trkpt lat="43.99783" lon="7.17591">
        <ele>734.400024414</ele>
        <time>2012-05-05T07:27:45Z</time>
      </trkpt>
      <trkpt lat="43.99778" lon="7.17587">
        <ele>735.400024414</ele>
        <time>2012-05-05T07:27:48Z</time>
      </trkpt>
      <trkpt lat="43.99769" lon="7.17582">
        <ele>736.599975586</ele>
        <time>2012-05-05T07:27:53Z</time>
      </trkpt>
      <trkpt lat="43.99762" lon="7.1758">
        <ele>737.599975586</ele>
        <time>2012-05-05T07:27:57Z</time>
      </trkpt>
      <trkpt lat="43.99758" lon="7.17582">
        <ele>737.599975586</ele>
        <time>2012-05-05T07:28:00Z</time>
      </trkpt>
      <trkpt lat="43.99756" lon="7.17583">
        <ele>738.599975586</ele>
        <time>2012-05-05T07:28:01Z</time>
      </trkpt>
      <trkpt lat="43.9975" lon="7.17588">
        <ele>739.599975586</ele>
        <time>2012-05-05T07:28:06Z</time>
      </trkpt>
      <trkpt lat="43.99749" lon="7.17589">
        <ele>739.599975586</ele>
        <time>2012-05-05T07:28:07Z</time>
      </trkpt>
      <trkpt lat="43.99746" lon="7.17588">
        <ele>740.599975586</ele>
        <time>2012-05-05T07:28:10Z</time>
      </trkpt>
      <trkpt lat="43.99745" lon="7.17588">
        <ele>740.599975586</ele>
        <time>2012-05-05T07:28:12Z</time>
      </trkpt>
      <trkpt lat="43.99745" lon="7.17588">
        <ele>741.599975586</ele>
        <time>2012-05-05T07:28:17Z</time>
      </trkpt>
      <trkpt lat="43.99744" lon="7.17587">
        <ele>741.599975586</ele>
        <time>2012-05-05T07:28:20Z</time>
      </trkpt>
      <trkpt lat="43.99744" lon="7.17587">
        <ele>742.799987793</ele>
        <time>2012-05-05T07:28:22Z</time>
      </trkpt>
      <trkpt lat="43.99743" lon="7.17587">
        <ele>744.200012207</ele>
        <time>2012-05-05T07:28:26Z</time>
      </trkpt>
      <trkpt lat="43.99743" lon="7.17586">
        <ele>745.200012207</ele>
        <time>2012-05-05T07:28:28Z</time>
      </trkpt>
      <trkpt lat="43.99743" lon="7.17586">
        <ele>746.599975586</ele>
        <time>2012-05-05T07:28:31Z</time>
      </trkpt>
      <trkpt lat="43.99742" lon="7.17586">
        <ele>746.599975586</ele>
        <time>2012-05-05T07:28:33Z</time>
      </trkpt>
      <trkpt lat="43.99742" lon="7.17585">
        <ele>747.599975586</ele>
        <time>2012-05-05T07:28:35Z</time>
      </trkpt>
      <trkpt lat="43.99741" lon="7.17585">
        <ele>748.599975586</ele>
        <time>2012-05-05T07:28:39Z</time>
      </trkpt>
      <trkpt lat="43.9974" lon="7.17585">
        <ele>749.599975586</ele>
        <time>2012-05-05T07:28:43Z</time>
      </trkpt>
      <trkpt lat="43.9974" lon="7.17585">
        <ele>749.599975586</ele>
        <time>2012-05-05T07:28:45Z</time>
      </trkpt>
      <trkpt lat="43.99739" lon="7.17586">
        <ele>749.599975586</ele>
        <time>2012-05-05T07:28:49Z</time>
      </trkpt>
      <trkpt lat="43.99739" lon="7.17586">
        <ele>749.599975586</ele>
        <time>2012-05-05T07:28:50Z</time>
      </trkpt>
      <trkpt lat="43.99739" lon="7.17586">
        <ele>750.599975586</ele>
        <time>2012-05-05T07:28:53Z</time>
      </trkpt>
      <trkpt lat="43.99738" lon="7.17586">
        <ele>750.599975586</ele>
        <time>2012-05-05T07:28:58Z</time>
      </trkpt>
      <trkpt lat="43.99738" lon="7.17585">
        <ele>751.799987793</ele>
        <time>2012-05-05T07:29:04Z</time>
      </trkpt>
      <trkpt lat="43.99738" lon="7.17585">
        <ele>751.799987793</ele>
        <time>2012-05-05T07:29:06Z</time>
      </trkpt>
      <trkpt lat="43.99738" lon="7.17585">
        <ele>751.799987793</ele>
        <time>2012-05-05T07:29:07Z</time>
      </trkpt>
      <trkpt lat="43.99737" lon="7.17585">
        <ele>751.799987793</ele>
        <time>2012-05-05T07:29:13Z</time>
      </trkpt>
      <trkpt lat="43.99737" lon="7.17585">
        <ele>751.799987793</ele>
        <time>2012-05-05T07:29:16Z</time>
      </trkpt>
      <trkpt lat="43.99737" lon="7.17585">
        <ele>752.799987793</ele>
        <time>2012-05-05T07:29:17Z</time>
      </trkpt>
      <trkpt lat="43.99737" lon="7.17585">
        <ele>752.799987793</ele>
        <time>2012-05-05T07:29:18Z</time>
      </trkpt>
      <trkpt lat="43.99736" lon="7.17585">
        <ele>754</ele>
        <time>2012-05-05T07:29:20Z</time>
      </trkpt>
      <trkpt lat="43.99734" lon="7.17586">
        <ele>755.200012207</ele>
        <time>2012-05-05T07:29:30Z</time>
      </trkpt>
      <trkpt lat="43.99733" lon="7.17586">
        <ele>755.200012207</ele>
        <time>2012-05-05T07:29:33Z</time>
      </trkpt>
      <trkpt lat="43.99733" lon="7.17587">
        <ele>756.200012207</ele>
        <time>2012-05-05T07:29:36Z</time>
      </trkpt>
      <trkpt lat="43.99732" lon="7.17587">
        <ele>756.200012207</ele>
        <time>2012-05-05T07:29:39Z</time>
      </trkpt>
      <trkpt lat="43.99732" lon="7.17587">
        <ele>756.200012207</ele>
        <time>2012-05-05T07:29:43Z</time>
      </trkpt>
      <trkpt lat="43.99733" lon="7.17587">
        <ele>756.200012207</ele>
        <time>2012-05-05T07:29:48Z</time>
      </trkpt>
      <trkpt lat="43.99733" lon="7.17586">
        <ele>756.200012207</ele>
        <time>2012-05-05T07:29:50Z</time>
      </trkpt>
      <trkpt lat="43.99733" lon="7.17586">
        <ele>757.599975586</ele>
        <time>2012-05-05T07:29:51Z</time>
      </trkpt>
      <trkpt lat="43.99733" lon="7.17586">
        <ele>757.599975586</ele>
        <time>2012-05-05T07:29:53Z</time>
      </trkpt>
      <trkpt lat="43.99732" lon="7.17587">
        <ele>757.599975586</ele>
        <time>2012-05-05T07:29:56Z</time>
      </trkpt>
      <trkpt lat="43.99733" lon="7.17588">
        <ele>757.599975586</ele>
        <time>2012-05-05T07:30:00Z</time>
      </trkpt>
      <trkpt lat="43.99733" lon="7.17588">
        <ele>757.599975586</ele>
        <time>2012-05-05T07:30:03Z</time>
      </trkpt>
      <trkpt lat="43.99733" lon="7.17588">
        <ele>757.599975586</ele>
        <time>2012-05-05T07:30:08Z</time>
      </trkpt>
      <trkpt lat="43.99733" lon="7.17588">
        <ele>757.599975586</ele>
        <time>2012-05-05T07:30:10Z</time>
      </trkpt>
      <trkpt lat="43.99735" lon="7.17587">
        <ele>757.599975586</ele>
        <time>2012-05-05T07:30:18Z</time>
      </trkpt>
      <trkpt lat="43.99734" lon="7.17587">
        <ele>757.599975586</ele>
        <time>2012-05-05T07:30:25Z</time>
      </trkpt>
      <trkpt lat="43.99734" lon="7.17587">
        <ele>757.599975586</ele>
        <time>2012-05-05T07:30:26Z</time>
      </trkpt>
      <trkpt lat="43.99732" lon="7.17585">
        <ele>758.599975586</ele>
        <time>2012-05-05T07:30:29Z</time>
      </trkpt>
      <trkpt lat="43.99729" lon="7.17587">
        <ele>758.599975586</ele>
        <time>2012-05-05T07:30:31Z</time>
      </trkpt>
      <trkpt lat="43.99722" lon="7.17584">
        <ele>758.599975586</ele>
        <time>2012-05-05T07:30:36Z</time>
      </trkpt>
      <trkpt lat="43.99713" lon="7.17582">
        <ele>758.599975586</ele>
        <time>2012-05-05T07:30:42Z</time>
      </trkpt>
      <trkpt lat="43.99709" lon="7.17579">
        <ele>758.599975586</ele>
        <time>2012-05-05T07:30:47Z</time>
      </trkpt>
      <trkpt lat="43.99709" lon="7.17579">
        <ele>758.599975586</ele>
        <time>2012-05-05T07:30:48Z</time>
      </trkpt>
      <trkpt lat="43.99709" lon="7.17579">
        <ele>758.599975586</ele>
        <time>2012-05-05T07:30:51Z</time>
      </trkpt>
      <trkpt lat="43.99709" lon="7.17579">
        <ele>758.599975586</ele>
        <time>2012-05-05T07:30:54Z</time>
      </trkpt>
      <trkpt lat="43.99709" lon="7.17579">
        <ele>758.599975586</ele>
        <time>2012-05-05T07:30:56Z</time>
      </trkpt>
      <trkpt lat="43.99709" lon="7.17579">
        <ele>758.599975586</ele>
        <time>2012-05-05T07:30:59Z</time>
      </trkpt>
      <trkpt lat="43.99709" lon="7.17578">
        <ele>758.599975586</ele>
        <time>2012-05-05T07:31:00Z</time>
      </trkpt>
      <trkpt lat="43.99708" lon="7.17579">
        <ele>758.599975586</ele>
        <time>2012-05-05T07:31:11Z</time>
      </trkpt>
      <trkpt lat="43.99708" lon="7.17579">
        <ele>758.599975586</ele>
        <time>2012-05-05T07:31:14Z</time>
      </trkpt>
      <trkpt lat="43.99708" lon="7.17579">
        <ele>758.599975586</ele>
        <time>2012-05-05T07:31:16Z</time>
      </trkpt>
      <trkpt lat="43.99708" lon="7.17578">
        <ele>758.599975586</ele>
        <time>2012-05-05T07:31:19Z</time>
      </trkpt>
      <trkpt lat="43.99708" lon="7.17578">
        <ele>758.599975586</ele>
        <time>2012-05-05T07:31:24Z</time>
      </trkpt>
      <trkpt lat="43.99707" lon="7.17579">
        <ele>758.599975586</ele>
        <time>2012-05-05T07:31:29Z</time>
      </trkpt>
      <trkpt lat="43.99707" lon="7.17579">
        <ele>758.599975586</ele>
        <time>2012-05-05T07:31:30Z</time>
      </trkpt>
      <trkpt lat="43.99706" lon="7.17579">
        <ele>758.599975586</ele>
        <time>2012-05-05T07:31:31Z</time>
      </trkpt>
      <trkpt lat="43.99706" lon="7.17579">
        <ele>758.599975586</ele>
        <time>2012-05-05T07:31:33Z</time>
      </trkpt>
      <trkpt lat="43.99706" lon="7.1758">
        <ele>758.599975586</ele>
        <time>2012-05-05T07:31:36Z</time>
      </trkpt>
      <trkpt lat="43.99706" lon="7.1758">
        <ele>758.599975586</ele>
        <time>2012-05-05T07:31:39Z</time>
      </trkpt>
      <trkpt lat="43.99706" lon="7.1758">
        <ele>758.599975586</ele>
        <time>2012-05-05T07:31:41Z</time>
      </trkpt>
      <trkpt lat="43.99706" lon="7.17581">
        <ele>758.599975586</ele>
        <time>2012-05-05T07:31:46Z</time>
      </trkpt>
      <trkpt lat="43.99705" lon="7.17581">
        <ele>758.599975586</ele>
        <time>2012-05-05T07:31:50Z</time>
      </trkpt>
      <trkpt lat="43.99706" lon="7.1758">
        <ele>758.599975586</ele>
        <time>2012-05-05T07:32:06Z</time>
      </trkpt>
      <trkpt lat="43.99706" lon="7.1758">
        <ele>758.599975586</ele>
        <time>2012-05-05T07:32:08Z</time>
      </trkpt>
      <trkpt lat="43.99706" lon="7.1758">
        <ele>758.599975586</ele>
        <time>2012-05-05T07:32:09Z</time>
      </trkpt>
      <trkpt lat="43.99706" lon="7.1758">
        <ele>758.599975586</ele>
        <time>2012-05-05T07:32:13Z</time>
      </trkpt>
      <trkpt lat="43.99706" lon="7.1758">
        <ele>758.599975586</ele>
        <time>2012-05-05T07:32:15Z</time>
      </trkpt>
      <trkpt lat="43.99706" lon="7.1758">
        <ele>758.599975586</ele>
        <time>2012-05-05T07:32:19Z</time>
      </trkpt>
      <trkpt lat="43.99706" lon="7.1758">
        <ele>758.599975586</ele>
        <time>2012-05-05T07:32:23Z</time>
      </trkpt>
      <trkpt lat="43.99706" lon="7.1758">
        <ele>758.599975586</ele>
        <time>2012-05-05T07:32:27Z</time>
      </trkpt>
      <trkpt lat="43.99706" lon="7.17581">
        <ele>758.599975586</ele>
        <time>2012-05-05T07:32:30Z</time>
      </trkpt>
      <trkpt lat="43.99706" lon="7.1758">
        <ele>761.599975586</ele>
        <time>2012-05-05T07:32:31Z</time>
      </trkpt>
      <trkpt lat="43.99703" lon="7.1758">
        <ele>758.599975586</ele>
        <time>2012-05-05T07:32:33Z</time>
      </trkpt>
      <trkpt lat="43.99702" lon="7.1758">
        <ele>758.599975586</ele>
        <time>2012-05-05T07:32:34Z</time>
      </trkpt>
      <trkpt lat="43.997" lon="7.17578">
        <ele>758.599975586</ele>
        <time>2012-05-05T07:32:37Z</time>
      </trkpt>
      <trkpt lat="43.997" lon="7.17577">
        <ele>758.599975586</ele>
        <time>2012-05-05T07:32:38Z</time>
      </trkpt>
      <trkpt lat="43.99699" lon="7.17576">
        <ele>758.599975586</ele>
        <time>2012-05-05T07:32:39Z</time>
      </trkpt>
      <trkpt lat="43.99698" lon="7.17575">
        <ele>758.599975586</ele>
        <time>2012-05-05T07:32:40Z</time>
      </trkpt>
      <trkpt lat="43.99695" lon="7.17568">
        <ele>758.599975586</ele>
        <time>2012-05-05T07:32:43Z</time>
      </trkpt>
      <trkpt lat="43.99694" lon="7.17566">
        <ele>758.599975586</ele>
        <time>2012-05-05T07:32:44Z</time>
      </trkpt>
      <trkpt lat="43.99691" lon="7.17559">
        <ele>758.599975586</ele>
        <time>2012-05-05T07:32:47Z</time>
      </trkpt>
      <trkpt lat="43.99688" lon="7.17553">
        <ele>758.599975586</ele>
        <time>2012-05-05T07:32:50Z</time>
      </trkpt>
      <trkpt lat="43.99685" lon="7.17549">
        <ele>758.599975586</ele>
        <time>2012-05-05T07:32:52Z</time>
      </trkpt>
      <trkpt lat="43.99681" lon="7.17546">
        <ele>758.599975586</ele>
        <time>2012-05-05T07:32:55Z</time>
      </trkpt>
      <trkpt lat="43.99676" lon="7.17544">
        <ele>758.599975586</ele>
        <time>2012-05-05T07:32:58Z</time>
      </trkpt>
      <trkpt lat="43.99673" lon="7.17541">
        <ele>758.599975586</ele>
        <time>2012-05-05T07:33:00Z</time>
      </trkpt>
      <trkpt lat="43.99668" lon="7.17538">
        <ele>758.599975586</ele>
        <time>2012-05-05T07:33:03Z</time>
      </trkpt>
      <trkpt lat="43.99664" lon="7.17534">
        <ele>758.599975586</ele>
        <time>2012-05-05T07:33:06Z</time>
      </trkpt>
      <trkpt lat="43.99663" lon="7.17532">
        <ele>760.599975586</ele>
        <time>2012-05-05T07:33:07Z</time>
      </trkpt>
      <trkpt lat="43.99655" lon="7.17526">
        <ele>760.599975586</ele>
        <time>2012-05-05T07:33:12Z</time>
      </trkpt>
      <trkpt lat="43.99651" lon="7.17524">
        <ele>760.599975586</ele>
        <time>2012-05-05T07:33:15Z</time>
      </trkpt>
      <trkpt lat="43.99648" lon="7.17522">
        <ele>761.799987793</ele>
        <time>2012-05-05T07:33:17Z</time>
      </trkpt>
      <trkpt lat="43.99638" lon="7.17517">
        <ele>761.799987793</ele>
        <time>2012-05-05T07:33:23Z</time>
      </trkpt>
      <trkpt lat="43.99636" lon="7.17516">
        <ele>761.799987793</ele>
        <time>2012-05-05T07:33:24Z</time>
      </trkpt>
      <trkpt lat="43.99624" lon="7.17507">
        <ele>761.799987793</ele>
        <time>2012-05-05T07:33:32Z</time>
      </trkpt>
      <trkpt lat="43.99623" lon="7.17506">
        <ele>761.799987793</ele>
        <time>2012-05-05T07:33:33Z</time>
      </trkpt>
      <trkpt lat="43.99611" lon="7.17495">
        <ele>761.799987793</ele>
        <time>2012-05-05T07:33:41Z</time>
      </trkpt>
      <trkpt lat="43.9961" lon="7.17493">
        <ele>762.799987793</ele>
        <time>2012-05-05T07:33:42Z</time>
      </trkpt>
      <trkpt lat="43.996" lon="7.17479">
        <ele>762.799987793</ele>
        <time>2012-05-05T07:33:50Z</time>
      </trkpt>
      <trkpt lat="43.99595" lon="7.1747">
        <ele>763.799987793</ele>
        <time>2012-05-05T07:33:55Z</time>
      </trkpt>
      <trkpt lat="43.99592" lon="7.17462">
        <ele>763.799987793</ele>
        <time>2012-05-05T07:33:59Z</time>
      </trkpt>
      <trkpt lat="43.99589" lon="7.17455">
        <ele>765</ele>
        <time>2012-05-05T07:34:03Z</time>
      </trkpt>
      <trkpt lat="43.99587" lon="7.17447">
        <ele>766.400024414</ele>
        <time>2012-05-05T07:34:07Z</time>
      </trkpt>
      <trkpt lat="43.99586" lon="7.17445">
        <ele>766.400024414</ele>
        <time>2012-05-05T07:34:08Z</time>
      </trkpt>
      <trkpt lat="43.99585" lon="7.17441">
        <ele>767.599975586</ele>
        <time>2012-05-05T07:34:10Z</time>
      </trkpt>
      <trkpt lat="43.99583" lon="7.17434">
        <ele>768.799987793</ele>
        <time>2012-05-05T07:34:13Z</time>
      </trkpt>
      <trkpt lat="43.99582" lon="7.1743">
        <ele>770</ele>
        <time>2012-05-05T07:34:15Z</time>
      </trkpt>
      <trkpt lat="43.99581" lon="7.17425">
        <ele>770</ele>
        <time>2012-05-05T07:34:17Z</time>
      </trkpt>
      <trkpt lat="43.99579" lon="7.17417">
        <ele>771</ele>
        <time>2012-05-05T07:34:21Z</time>
      </trkpt>
      <trkpt lat="43.99578" lon="7.17411">
        <ele>771</ele>
        <time>2012-05-05T07:34:24Z</time>
      </trkpt>
      <trkpt lat="43.99575" lon="7.17404">
        <ele>772</ele>
        <time>2012-05-05T07:34:27Z</time>
      </trkpt>
      <trkpt lat="43.99573" lon="7.17401">
        <ele>772</ele>
        <time>2012-05-05T07:34:29Z</time>
      </trkpt>
      <trkpt lat="43.99569" lon="7.17398">
        <ele>773.200012207</ele>
        <time>2012-05-05T07:34:32Z</time>
      </trkpt>
      <trkpt lat="43.99565" lon="7.17396">
        <ele>774.200012207</ele>
        <time>2012-05-05T07:34:35Z</time>
      </trkpt>
      <trkpt lat="43.99564" lon="7.17396">
        <ele>774.200012207</ele>
        <time>2012-05-05T07:34:36Z</time>
      </trkpt>
      <trkpt lat="43.99558" lon="7.17398">
        <ele>775.400024414</ele>
        <time>2012-05-05T07:34:41Z</time>
      </trkpt>
      <trkpt lat="43.99557" lon="7.17398">
        <ele>775.400024414</ele>
        <time>2012-05-05T07:34:42Z</time>
      </trkpt>
      <trkpt lat="43.99548" lon="7.17406">
        <ele>775.400024414</ele>
        <time>2012-05-05T07:34:49Z</time>
      </trkpt>
      <trkpt lat="43.99542" lon="7.17416">
        <ele>776.599975586</ele>
        <time>2012-05-05T07:34:55Z</time>
      </trkpt>
      <trkpt lat="43.99538" lon="7.17422">
        <ele>777.799987793</ele>
        <time>2012-05-05T07:34:59Z</time>
      </trkpt>
      <trkpt lat="43.99536" lon="7.17427">
        <ele>777.799987793</ele>
        <time>2012-05-05T07:35:02Z</time>
      </trkpt>
      <trkpt lat="43.99531" lon="7.17434">
        <ele>778.799987793</ele>
        <time>2012-05-05T07:35:07Z</time>
      </trkpt>
      <trkpt lat="43.99527" lon="7.17441">
        <ele>778.799987793</ele>
        <time>2012-05-05T07:35:11Z</time>
      </trkpt>
      <trkpt lat="43.99524" lon="7.17446">
        <ele>780</ele>
        <time>2012-05-05T07:35:14Z</time>
      </trkpt>
      <trkpt lat="43.9952" lon="7.17454">
        <ele>780</ele>
        <time>2012-05-05T07:35:19Z</time>
      </trkpt>
      <trkpt lat="43.99517" lon="7.17458">
        <ele>781.200012207</ele>
        <time>2012-05-05T07:35:22Z</time>
      </trkpt>
      <trkpt lat="43.99512" lon="7.17465">
        <ele>781.200012207</ele>
        <time>2012-05-05T07:35:26Z</time>
      </trkpt>
      <trkpt lat="43.99508" lon="7.17472">
        <ele>781.200012207</ele>
        <time>2012-05-05T07:35:31Z</time>
      </trkpt>
      <trkpt lat="43.99508" lon="7.17473">
        <ele>782.200012207</ele>
        <time>2012-05-05T07:35:32Z</time>
      </trkpt>
      <trkpt lat="43.99504" lon="7.17478">
        <ele>782.200012207</ele>
        <time>2012-05-05T07:35:35Z</time>
      </trkpt>
      <trkpt lat="43.99503" lon="7.1748">
        <ele>782.200012207</ele>
        <time>2012-05-05T07:35:36Z</time>
      </trkpt>
      <trkpt lat="43.99501" lon="7.17482">
        <ele>783.200012207</ele>
        <time>2012-05-05T07:35:39Z</time>
      </trkpt>
      <trkpt lat="43.99501" lon="7.17482">
        <ele>783.200012207</ele>
        <time>2012-05-05T07:35:41Z</time>
      </trkpt>
      <trkpt lat="43.99501" lon="7.17482">
        <ele>784.200012207</ele>
        <time>2012-05-05T07:35:43Z</time>
      </trkpt>
      <trkpt lat="43.99501" lon="7.17482">
        <ele>785.200012207</ele>
        <time>2012-05-05T07:35:46Z</time>
      </trkpt>
      <trkpt lat="43.99502" lon="7.17481">
        <ele>786.400024414</ele>
        <time>2012-05-05T07:35:48Z</time>
      </trkpt>
      <trkpt lat="43.99502" lon="7.17481">
        <ele>787.400024414</ele>
        <time>2012-05-05T07:35:50Z</time>
      </trkpt>
      <trkpt lat="43.99502" lon="7.17481">
        <ele>787.400024414</ele>
        <time>2012-05-05T07:35:52Z</time>
      </trkpt>
      <trkpt lat="43.99502" lon="7.17481">
        <ele>788.599975586</ele>
        <time>2012-05-05T07:35:53Z</time>
      </trkpt>
      <trkpt lat="43.995" lon="7.17482">
        <ele>788.599975586</ele>
        <time>2012-05-05T07:35:57Z</time>
      </trkpt>
      <trkpt lat="43.99495" lon="7.17485">
        <ele>788.599975586</ele>
        <time>2012-05-05T07:36:02Z</time>
      </trkpt>
      <trkpt lat="43.99492" lon="7.17486">
        <ele>789.599975586</ele>
        <time>2012-05-05T07:36:04Z</time>
      </trkpt>
      <trkpt lat="43.9949" lon="7.17486">
        <ele>789.599975586</ele>
        <time>2012-05-05T07:36:05Z</time>
      </trkpt>
      <trkpt lat="43.99487" lon="7.17488">
        <ele>789.599975586</ele>
        <time>2012-05-05T07:36:07Z</time>
      </trkpt>
      <trkpt lat="43.99484" lon="7.1749">
        <ele>789.599975586</ele>
        <time>2012-05-05T07:36:10Z</time>
      </trkpt>
      <trkpt lat="43.99482" lon="7.17491">
        <ele>789.599975586</ele>
        <time>2012-05-05T07:36:11Z</time>
      </trkpt>
      <trkpt lat="43.99474" lon="7.17493">
        <ele>790.599975586</ele>
        <time>2012-05-05T07:36:16Z</time>
      </trkpt>
      <trkpt lat="43.99468" lon="7.17495">
        <ele>790.599975586</ele>
        <time>2012-05-05T07:36:19Z</time>
      </trkpt>
      <trkpt lat="43.99458" lon="7.17505">
        <ele>790.599975586</ele>
        <time>2012-05-05T07:36:27Z</time>
      </trkpt>
      <trkpt lat="43.99456" lon="7.17511">
        <ele>791.599975586</ele>
        <time>2012-05-05T07:36:30Z</time>
      </trkpt>
      <trkpt lat="43.99454" lon="7.1752">
        <ele>792.599975586</ele>
        <time>2012-05-05T07:36:34Z</time>
      </trkpt>
      <trkpt lat="43.99454" lon="7.17522">
        <ele>792.599975586</ele>
        <time>2012-05-05T07:36:35Z</time>
      </trkpt>
      <trkpt lat="43.99451" lon="7.17535">
        <ele>792.599975586</ele>
        <time>2012-05-05T07:36:41Z</time>
      </trkpt>
      <trkpt lat="43.9945" lon="7.17537">
        <ele>793.799987793</ele>
        <time>2012-05-05T07:36:42Z</time>
      </trkpt>
      <trkpt lat="43.99443" lon="7.17544">
        <ele>793.799987793</ele>
        <time>2012-05-05T07:36:48Z</time>
      </trkpt>
      <trkpt lat="43.99442" lon="7.17545">
        <ele>795</ele>
        <time>2012-05-05T07:36:49Z</time>
      </trkpt>
      <trkpt lat="43.99438" lon="7.17548">
        <ele>795</ele>
        <time>2012-05-05T07:36:52Z</time>
      </trkpt>
      <trkpt lat="43.99436" lon="7.1755">
        <ele>795</ele>
        <time>2012-05-05T07:36:53Z</time>
      </trkpt>
      <trkpt lat="43.99435" lon="7.17551">
        <ele>796</ele>
        <time>2012-05-05T07:36:54Z</time>
      </trkpt>
      <trkpt lat="43.9943" lon="7.17557">
        <ele>797</ele>
        <time>2012-05-05T07:36:58Z</time>
      </trkpt>
      <trkpt lat="43.99427" lon="7.17562">
        <ele>797</ele>
        <time>2012-05-05T07:37:01Z</time>
      </trkpt>
      <trkpt lat="43.99424" lon="7.17568">
        <ele>798.200012207</ele>
        <time>2012-05-05T07:37:04Z</time>
      </trkpt>
      <trkpt lat="43.99421" lon="7.17574">
        <ele>799.400024414</ele>
        <time>2012-05-05T07:37:08Z</time>
      </trkpt>
      <trkpt lat="43.99417" lon="7.17578">
        <ele>800.799987793</ele>
        <time>2012-05-05T07:37:11Z</time>
      </trkpt>
      <trkpt lat="43.99413" lon="7.17579">
        <ele>802</ele>
        <time>2012-05-05T07:37:14Z</time>
      </trkpt>
      <trkpt lat="43.99407" lon="7.17581">
        <ele>803</ele>
        <time>2012-05-05T07:37:18Z</time>
      </trkpt>
      <trkpt lat="43.99407" lon="7.17583">
        <ele>803</ele>
        <time>2012-05-05T07:37:19Z</time>
      </trkpt>
      <trkpt lat="43.99406" lon="7.17583">
        <ele>803</ele>
        <time>2012-05-05T07:37:20Z</time>
      </trkpt>
      <trkpt lat="43.99404" lon="7.17587">
        <ele>804.400024414</ele>
        <time>2012-05-05T07:37:22Z</time>
      </trkpt>
      <trkpt lat="43.994" lon="7.17592">
        <ele>805.599975586</ele>
        <time>2012-05-05T07:37:25Z</time>
      </trkpt>
      <trkpt lat="43.99399" lon="7.17593">
        <ele>805.599975586</ele>
        <time>2012-05-05T07:37:26Z</time>
      </trkpt>
      <trkpt lat="43.99397" lon="7.17596">
        <ele>806.599975586</ele>
        <time>2012-05-05T07:37:28Z</time>
      </trkpt>
      <trkpt lat="43.99394" lon="7.176">
        <ele>808</ele>
        <time>2012-05-05T07:37:31Z</time>
      </trkpt>
      <trkpt lat="43.99392" lon="7.17602">
        <ele>809</ele>
        <time>2012-05-05T07:37:33Z</time>
      </trkpt>
      <trkpt lat="43.9939" lon="7.17604">
        <ele>810</ele>
        <time>2012-05-05T07:37:35Z</time>
      </trkpt>
      <trkpt lat="43.99387" lon="7.17604">
        <ele>811.200012207</ele>
        <time>2012-05-05T07:37:37Z</time>
      </trkpt>
      <trkpt lat="43.99383" lon="7.17604">
        <ele>811.200012207</ele>
        <time>2012-05-05T07:37:39Z</time>
      </trkpt>
      <trkpt lat="43.99381" lon="7.17604">
        <ele>812.400024414</ele>
        <time>2012-05-05T07:37:40Z</time>
      </trkpt>
      <trkpt lat="43.99377" lon="7.17604">
        <ele>813.599975586</ele>
        <time>2012-05-05T07:37:43Z</time>
      </trkpt>
      <trkpt lat="43.99372" lon="7.17602">
        <ele>813.599975586</ele>
        <time>2012-05-05T07:37:46Z</time>
      </trkpt>
      <trkpt lat="43.99368" lon="7.17599">
        <ele>814.799987793</ele>
        <time>2012-05-05T07:37:48Z</time>
      </trkpt>
      <trkpt lat="43.99363" lon="7.17591">
        <ele>814.799987793</ele>
        <time>2012-05-05T07:37:52Z</time>
      </trkpt>
      <trkpt lat="43.99365" lon="7.17585">
        <ele>815.799987793</ele>
        <time>2012-05-05T07:37:54Z</time>
      </trkpt>
      <trkpt lat="43.99366" lon="7.17578">
        <ele>815.799987793</ele>
        <time>2012-05-05T07:37:57Z</time>
      </trkpt>
      <trkpt lat="43.99364" lon="7.17564">
        <ele>812.599975586</ele>
        <time>2012-05-05T07:38:03Z</time>
      </trkpt>
      <trkpt lat="43.99362" lon="7.17562">
        <ele>812.599975586</ele>
        <time>2012-05-05T07:38:04Z</time>
      </trkpt>
      <trkpt lat="43.99357" lon="7.1754">
        <ele>812.599975586</ele>
        <time>2012-05-05T07:38:12Z</time>
      </trkpt>
      <trkpt lat="43.99357" lon="7.17525">
        <ele>812.599975586</ele>
        <time>2012-05-05T07:38:19Z</time>
      </trkpt>
      <trkpt lat="43.99354" lon="7.17509">
        <ele>812.599975586</ele>
        <time>2012-05-05T07:38:26Z</time>
      </trkpt>
      <trkpt lat="43.99348" lon="7.17494">
        <ele>815.599975586</ele>
        <time>2012-05-05T07:38:33Z</time>
      </trkpt>
      <trkpt lat="43.99348" lon="7.17492">
        <ele>815.599975586</ele>
        <time>2012-05-05T07:38:34Z</time>
      </trkpt>
      <trkpt lat="43.99348" lon="7.17475">
        <ele>816.799987793</ele>
        <time>2012-05-05T07:38:41Z</time>
      </trkpt>
      <trkpt lat="43.99348" lon="7.17468">
        <ele>818.200012207</ele>
        <time>2012-05-05T07:38:44Z</time>
      </trkpt>
      <trkpt lat="43.99347" lon="7.17463">
        <ele>819.400024414</ele>
        <time>2012-05-05T07:38:46Z</time>
      </trkpt>
      <trkpt lat="43.99347" lon="7.17458">
        <ele>820.400024414</ele>
        <time>2012-05-05T07:38:48Z</time>
      </trkpt>
      <trkpt lat="43.99346" lon="7.17453">
        <ele>821.599975586</ele>
        <time>2012-05-05T07:38:50Z</time>
      </trkpt>
      <trkpt lat="43.99345" lon="7.17445">
        <ele>822.799987793</ele>
        <time>2012-05-05T07:38:53Z</time>
      </trkpt>
      <trkpt lat="43.99344" lon="7.17443">
        <ele>822.799987793</ele>
        <time>2012-05-05T07:38:54Z</time>
      </trkpt>
      <trkpt lat="43.99343" lon="7.17438">
        <ele>824</ele>
        <time>2012-05-05T07:38:56Z</time>
      </trkpt>
      <trkpt lat="43.99341" lon="7.17426">
        <ele>824</ele>
        <time>2012-05-05T07:39:01Z</time>
      </trkpt>
      <trkpt lat="43.99341" lon="7.17416">
        <ele>825</ele>
        <time>2012-05-05T07:39:05Z</time>
      </trkpt>
      <trkpt lat="43.99341" lon="7.1741">
        <ele>825</ele>
        <time>2012-05-05T07:39:07Z</time>
      </trkpt>
      <trkpt lat="43.99342" lon="7.17402">
        <ele>826.200012207</ele>
        <time>2012-05-05T07:39:10Z</time>
      </trkpt>
      <trkpt lat="43.99344" lon="7.17398">
        <ele>826.200012207</ele>
        <time>2012-05-05T07:39:12Z</time>
      </trkpt>
      <trkpt lat="43.99345" lon="7.17396">
        <ele>827.599975586</ele>
        <time>2012-05-05T07:39:13Z</time>
      </trkpt>
      <trkpt lat="43.99346" lon="7.17393">
        <ele>827.599975586</ele>
        <time>2012-05-05T07:39:14Z</time>
      </trkpt>
      <trkpt lat="43.99347" lon="7.17391">
        <ele>828.799987793</ele>
        <time>2012-05-05T07:39:15Z</time>
      </trkpt>
      <trkpt lat="43.99348" lon="7.17384">
        <ele>829.799987793</ele>
        <time>2012-05-05T07:39:18Z</time>
      </trkpt>
      <trkpt lat="43.9935" lon="7.17382">
        <ele>829.799987793</ele>
        <time>2012-05-05T07:39:19Z</time>
      </trkpt>
      <trkpt lat="43.99356" lon="7.1737">
        <ele>831</ele>
        <time>2012-05-05T07:39:25Z</time>
      </trkpt>
      <trkpt lat="43.9936" lon="7.17365">
        <ele>831</ele>
        <time>2012-05-05T07:39:28Z</time>
      </trkpt>
      <trkpt lat="43.99362" lon="7.17362">
        <ele>832</ele>
        <time>2012-05-05T07:39:30Z</time>
      </trkpt>
      <trkpt lat="43.99366" lon="7.17352">
        <ele>832</ele>
        <time>2012-05-05T07:39:35Z</time>
      </trkpt>
      <trkpt lat="43.99366" lon="7.17345">
        <ele>833</ele>
        <time>2012-05-05T07:39:38Z</time>
      </trkpt>
      <trkpt lat="43.99364" lon="7.17335">
        <ele>833</ele>
        <time>2012-05-05T07:39:42Z</time>
      </trkpt>
      <trkpt lat="43.99359" lon="7.17321">
        <ele>833</ele>
        <time>2012-05-05T07:39:48Z</time>
      </trkpt>
      <trkpt lat="43.99359" lon="7.17306">
        <ele>833</ele>
        <time>2012-05-05T07:39:54Z</time>
      </trkpt>
      <trkpt lat="43.99359" lon="7.17296">
        <ele>834.200012207</ele>
        <time>2012-05-05T07:39:58Z</time>
      </trkpt>
      <trkpt lat="43.99356" lon="7.17289">
        <ele>834.200012207</ele>
        <time>2012-05-05T07:40:01Z</time>
      </trkpt>
      <trkpt lat="43.99346" lon="7.17271">
        <ele>834.200012207</ele>
        <time>2012-05-05T07:40:10Z</time>
      </trkpt>
      <trkpt lat="43.99344" lon="7.17266">
        <ele>835.200012207</ele>
        <time>2012-05-05T07:40:12Z</time>
      </trkpt>
      <trkpt lat="43.99343" lon="7.17255">
        <ele>835.200012207</ele>
        <time>2012-05-05T07:40:16Z</time>
      </trkpt>
      <trkpt lat="43.99343" lon="7.17252">
        <ele>836.200012207</ele>
        <time>2012-05-05T07:40:17Z</time>
      </trkpt>
      <trkpt lat="43.99344" lon="7.17241">
        <ele>836.200012207</ele>
        <time>2012-05-05T07:40:22Z</time>
      </trkpt>
      <trkpt lat="43.99344" lon="7.17238">
        <ele>837.599975586</ele>
        <time>2012-05-05T07:40:23Z</time>
      </trkpt>
      <trkpt lat="43.99347" lon="7.1723">
        <ele>838.599975586</ele>
        <time>2012-05-05T07:40:26Z</time>
      </trkpt>
      <trkpt lat="43.99349" lon="7.17221">
        <ele>839.599975586</ele>
        <time>2012-05-05T07:40:30Z</time>
      </trkpt>
      <trkpt lat="43.9935" lon="7.17219">
        <ele>839.599975586</ele>
        <time>2012-05-05T07:40:31Z</time>
      </trkpt>
      <trkpt lat="43.99351" lon="7.17204">
        <ele>840.599975586</ele>
        <time>2012-05-05T07:40:37Z</time>
      </trkpt>
      <trkpt lat="43.9935" lon="7.172">
        <ele>840.599975586</ele>
        <time>2012-05-05T07:40:39Z</time>
      </trkpt>
      <trkpt lat="43.9934" lon="7.17185">
        <ele>840.599975586</ele>
        <time>2012-05-05T07:40:47Z</time>
      </trkpt>
      <trkpt lat="43.9933" lon="7.1717">
        <ele>840.599975586</ele>
        <time>2012-05-05T07:40:55Z</time>
      </trkpt>
      <trkpt lat="43.99324" lon="7.17162">
        <ele>840.599975586</ele>
        <time>2012-05-05T07:41:00Z</time>
      </trkpt>
      <trkpt lat="43.99321" lon="7.1716">
        <ele>840.599975586</ele>
        <time>2012-05-05T07:41:02Z</time>
      </trkpt>
      <trkpt lat="43.99317" lon="7.17162">
        <ele>841.599975586</ele>
        <time>2012-05-05T07:41:05Z</time>
      </trkpt>
      <trkpt lat="43.99314" lon="7.17163">
        <ele>841.599975586</ele>
        <time>2012-05-05T07:41:07Z</time>
      </trkpt>
      <trkpt lat="43.99305" lon="7.17167">
        <ele>842.599975586</ele>
        <time>2012-05-05T07:41:13Z</time>
      </trkpt>
      <trkpt lat="43.99302" lon="7.17168">
        <ele>842.599975586</ele>
        <time>2012-05-05T07:41:15Z</time>
      </trkpt>
      <trkpt lat="43.99296" lon="7.17171">
        <ele>843.799987793</ele>
        <time>2012-05-05T07:41:19Z</time>
      </trkpt>
      <trkpt lat="43.99293" lon="7.17171">
        <ele>843.799987793</ele>
        <time>2012-05-05T07:41:21Z</time>
      </trkpt>
      <trkpt lat="43.99282" lon="7.1717">
        <ele>843.799987793</ele>
        <time>2012-05-05T07:41:28Z</time>
      </trkpt>
      <trkpt lat="43.99271" lon="7.1717">
        <ele>843.799987793</ele>
        <time>2012-05-05T07:41:35Z</time>
      </trkpt>
      <trkpt lat="43.9926" lon="7.1717">
        <ele>844.799987793</ele>
        <time>2012-05-05T07:41:41Z</time>
      </trkpt>
      <trkpt lat="43.99259" lon="7.17171">
        <ele>844.799987793</ele>
        <time>2012-05-05T07:41:42Z</time>
      </trkpt>
      <trkpt lat="43.99257" lon="7.17172">
        <ele>844.799987793</ele>
        <time>2012-05-05T07:41:43Z</time>
      </trkpt>
      <trkpt lat="43.99241" lon="7.17175">
        <ele>844.799987793</ele>
        <time>2012-05-05T07:41:52Z</time>
      </trkpt>
      <trkpt lat="43.99227" lon="7.17181">
        <ele>844.799987793</ele>
        <time>2012-05-05T07:42:00Z</time>
      </trkpt>
      <trkpt lat="43.99212" lon="7.1719">
        <ele>845.799987793</ele>
        <time>2012-05-05T07:42:09Z</time>
      </trkpt>
      <trkpt lat="43.99198" lon="7.17194">
        <ele>845.799987793</ele>
        <time>2012-05-05T07:42:17Z</time>
      </trkpt>
      <trkpt lat="43.99196" lon="7.17193">
        <ele>846.799987793</ele>
        <time>2012-05-05T07:42:18Z</time>
      </trkpt>
      <trkpt lat="43.99188" lon="7.17195">
        <ele>847.799987793</ele>
        <time>2012-05-05T07:42:23Z</time>
      </trkpt>
      <trkpt lat="43.99187" lon="7.17197">
        <ele>847.799987793</ele>
        <time>2012-05-05T07:42:24Z</time>
      </trkpt>
      <trkpt lat="43.99179" lon="7.17202">
        <ele>848.799987793</ele>
        <time>2012-05-05T07:42:29Z</time>
      </trkpt>
      <trkpt lat="43.99176" lon="7.17204">
        <ele>848.799987793</ele>
        <time>2012-05-05T07:42:31Z</time>
      </trkpt>
      <trkpt lat="43.99173" lon="7.17208">
        <ele>849.799987793</ele>
        <time>2012-05-05T07:42:33Z</time>
      </trkpt>
      <trkpt lat="43.99166" lon="7.17216">
        <ele>850.799987793</ele>
        <time>2012-05-05T07:42:38Z</time>
      </trkpt>
      <trkpt lat="43.99162" lon="7.17221">
        <ele>850.799987793</ele>
        <time>2012-05-05T07:42:41Z</time>
      </trkpt>
      <trkpt lat="43.9916" lon="7.17222">
        <ele>851.799987793</ele>
        <time>2012-05-05T07:42:42Z</time>
      </trkpt>
      <trkpt lat="43.99152" lon="7.17229">
        <ele>851.799987793</ele>
        <time>2012-05-05T07:42:47Z</time>
      </trkpt>
      <trkpt lat="43.99146" lon="7.17229">
        <ele>853</ele>
        <time>2012-05-05T07:42:50Z</time>
      </trkpt>
      <trkpt lat="43.9914" lon="7.17225">
        <ele>853</ele>
        <time>2012-05-05T07:42:53Z</time>
      </trkpt>
      <trkpt lat="43.99138" lon="7.17223">
        <ele>853</ele>
        <time>2012-05-05T07:42:54Z</time>
      </trkpt>
      <trkpt lat="43.99136" lon="7.17222">
        <ele>854.200012207</ele>
        <time>2012-05-05T07:42:55Z</time>
      </trkpt>
      <trkpt lat="43.99131" lon="7.17218">
        <ele>855.200012207</ele>
        <time>2012-05-05T07:42:58Z</time>
      </trkpt>
      <trkpt lat="43.99125" lon="7.17217">
        <ele>855.200012207</ele>
        <time>2012-05-05T07:43:01Z</time>
      </trkpt>
      <trkpt lat="43.99121" lon="7.17217">
        <ele>856.200012207</ele>
        <time>2012-05-05T07:43:03Z</time>
      </trkpt>
      <trkpt lat="43.99113" lon="7.17223">
        <ele>856.200012207</ele>
        <time>2012-05-05T07:43:08Z</time>
      </trkpt>
      <trkpt lat="43.99108" lon="7.17228">
        <ele>857.200012207</ele>
        <time>2012-05-05T07:43:11Z</time>
      </trkpt>
      <trkpt lat="43.99095" lon="7.17244">
        <ele>857.200012207</ele>
        <time>2012-05-05T07:43:18Z</time>
      </trkpt>
      <trkpt lat="43.99078" lon="7.17256">
        <ele>857.200012207</ele>
        <time>2012-05-05T07:43:23Z</time>
      </trkpt>
      <trkpt lat="43.99061" lon="7.17255">
        <ele>857.200012207</ele>
        <time>2012-05-05T07:43:27Z</time>
      </trkpt>
      <trkpt lat="43.99048" lon="7.1727">
        <ele>857.200012207</ele>
        <time>2012-05-05T07:43:31Z</time>
      </trkpt>
      <trkpt lat="43.99032" lon="7.17289">
        <ele>858.400024414</ele>
        <time>2012-05-05T07:43:37Z</time>
      </trkpt>
      <trkpt lat="43.9902" lon="7.17303">
        <ele>858.400024414</ele>
        <time>2012-05-05T07:43:41Z</time>
      </trkpt>
      <trkpt lat="43.99015" lon="7.17303">
        <ele>859.400024414</ele>
        <time>2012-05-05T07:43:42Z</time>
      </trkpt>
      <trkpt lat="43.99003" lon="7.17304">
        <ele>860.599975586</ele>
        <time>2012-05-05T07:43:45Z</time>
      </trkpt>
      <trkpt lat="43.98998" lon="7.17299">
        <ele>860.599975586</ele>
        <time>2012-05-05T07:43:46Z</time>
      </trkpt>
      <trkpt lat="43.98992" lon="7.17285">
        <ele>860.599975586</ele>
        <time>2012-05-05T07:43:48Z</time>
      </trkpt>
      <trkpt lat="43.98991" lon="7.1728">
        <ele>861.599975586</ele>
        <time>2012-05-05T07:43:49Z</time>
      </trkpt>
      <trkpt lat="43.98991" lon="7.17276">
        <ele>861.599975586</ele>
        <time>2012-05-05T07:43:50Z</time>
      </trkpt>
      <trkpt lat="43.9899" lon="7.17272">
        <ele>861.599975586</ele>
        <time>2012-05-05T07:43:51Z</time>
      </trkpt>
      <trkpt lat="43.9899" lon="7.17268">
        <ele>861.599975586</ele>
        <time>2012-05-05T07:43:52Z</time>
      </trkpt>
      <trkpt lat="43.98992" lon="7.17252">
        <ele>861.599975586</ele>
        <time>2012-05-05T07:43:56Z</time>
      </trkpt>
      <trkpt lat="43.98993" lon="7.17249">
        <ele>861.599975586</ele>
        <time>2012-05-05T07:43:57Z</time>
      </trkpt>
      <trkpt lat="43.98993" lon="7.17229">
        <ele>861.599975586</ele>
        <time>2012-05-05T07:44:03Z</time>
      </trkpt>
      <trkpt lat="43.98991" lon="7.17224">
        <ele>862.799987793</ele>
        <time>2012-05-05T07:44:05Z</time>
      </trkpt>
      <trkpt lat="43.98984" lon="7.17218">
        <ele>862.799987793</ele>
        <time>2012-05-05T07:44:08Z</time>
      </trkpt>
      <trkpt lat="43.9897" lon="7.17217">
        <ele>862.799987793</ele>
        <time>2012-05-05T07:44:14Z</time>
      </trkpt>
      <trkpt lat="43.98957" lon="7.17216">
        <ele>862.799987793</ele>
        <time>2012-05-05T07:44:20Z</time>
      </trkpt>
      <trkpt lat="43.98953" lon="7.17217">
        <ele>863.799987793</ele>
        <time>2012-05-05T07:44:22Z</time>
      </trkpt>
      <trkpt lat="43.98947" lon="7.17222">
        <ele>863.799987793</ele>
        <time>2012-05-05T07:44:26Z</time>
      </trkpt>
      <trkpt lat="43.98946" lon="7.17223">
        <ele>864.799987793</ele>
        <time>2012-05-05T07:44:27Z</time>
      </trkpt>
      <trkpt lat="43.9894" lon="7.17228">
        <ele>865.799987793</ele>
        <time>2012-05-05T07:44:31Z</time>
      </trkpt>
      <trkpt lat="43.98939" lon="7.17229">
        <ele>865.799987793</ele>
        <time>2012-05-05T07:44:32Z</time>
      </trkpt>
      <trkpt lat="43.98937" lon="7.1723">
        <ele>865.799987793</ele>
        <time>2012-05-05T07:44:33Z</time>
      </trkpt>
      <trkpt lat="43.98932" lon="7.17229">
        <ele>866.799987793</ele>
        <time>2012-05-05T07:44:35Z</time>
      </trkpt>
      <trkpt lat="43.98923" lon="7.17223">
        <ele>866.799987793</ele>
        <time>2012-05-05T07:44:39Z</time>
      </trkpt>
      <trkpt lat="43.98921" lon="7.17221">
        <ele>866.799987793</ele>
        <time>2012-05-05T07:44:40Z</time>
      </trkpt>
      <trkpt lat="43.98906" lon="7.17214">
        <ele>866.799987793</ele>
        <time>2012-05-05T07:44:46Z</time>
      </trkpt>
      <trkpt lat="43.989" lon="7.17215">
        <ele>866.799987793</ele>
        <time>2012-05-05T07:44:49Z</time>
      </trkpt>
      <trkpt lat="43.98895" lon="7.1722">
        <ele>866.799987793</ele>
        <time>2012-05-05T07:44:51Z</time>
      </trkpt>
      <trkpt lat="43.98894" lon="7.17228">
        <ele>866.799987793</ele>
        <time>2012-05-05T07:44:54Z</time>
      </trkpt>
      <trkpt lat="43.98891" lon="7.17228">
        <ele>866.799987793</ele>
        <time>2012-05-05T07:44:55Z</time>
      </trkpt>
      <trkpt lat="43.98885" lon="7.17227">
        <ele>866.799987793</ele>
        <time>2012-05-05T07:44:57Z</time>
      </trkpt>
      <trkpt lat="43.98876" lon="7.17214">
        <ele>868</ele>
        <time>2012-05-05T07:44:59Z</time>
      </trkpt>
      <trkpt lat="43.98874" lon="7.17197">
        <ele>868</ele>
        <time>2012-05-05T07:45:03Z</time>
      </trkpt>
      <trkpt lat="43.9887" lon="7.17172">
        <ele>869.200012207</ele>
        <time>2012-05-05T07:45:08Z</time>
      </trkpt>
      <trkpt lat="43.98872" lon="7.17147">
        <ele>869.200012207</ele>
        <time>2012-05-05T07:45:11Z</time>
      </trkpt>
      <trkpt lat="43.98876" lon="7.17144">
        <ele>869.200012207</ele>
        <time>2012-05-05T07:45:12Z</time>
      </trkpt>
      <trkpt lat="43.98881" lon="7.1714">
        <ele>869.200012207</ele>
        <time>2012-05-05T07:45:14Z</time>
      </trkpt>
      <trkpt lat="43.98887" lon="7.17129">
        <ele>869.200012207</ele>
        <time>2012-05-05T07:45:19Z</time>
      </trkpt>
      <trkpt lat="43.98895" lon="7.1711">
        <ele>869.200012207</ele>
        <time>2012-05-05T07:45:26Z</time>
      </trkpt>
      <trkpt lat="43.989" lon="7.17093">
        <ele>870.200012207</ele>
        <time>2012-05-05T07:45:32Z</time>
      </trkpt>
      <trkpt lat="43.98902" lon="7.17084">
        <ele>870.200012207</ele>
        <time>2012-05-05T07:45:35Z</time>
      </trkpt>
      <trkpt lat="43.98904" lon="7.17078">
        <ele>871.200012207</ele>
        <time>2012-05-05T07:45:37Z</time>
      </trkpt>
      <trkpt lat="43.98911" lon="7.17059">
        <ele>871.200012207</ele>
        <time>2012-05-05T07:45:44Z</time>
      </trkpt>
      <trkpt lat="43.98917" lon="7.17042">
        <ele>872.400024414</ele>
        <time>2012-05-05T07:45:50Z</time>
      </trkpt>
      <trkpt lat="43.98919" lon="7.17036">
        <ele>872.400024414</ele>
        <time>2012-05-05T07:45:52Z</time>
      </trkpt>
      <trkpt lat="43.98928" lon="7.17018">
        <ele>872.400024414</ele>
        <time>2012-05-05T07:45:59Z</time>
      </trkpt>
      <trkpt lat="43.98937" lon="7.17001">
        <ele>872.400024414</ele>
        <time>2012-05-05T07:46:06Z</time>
      </trkpt>
      <trkpt lat="43.98947" lon="7.16983">
        <ele>872.400024414</ele>
        <time>2012-05-05T07:46:14Z</time>
      </trkpt>
      <trkpt lat="43.98957" lon="7.16971">
        <ele>873.400024414</ele>
        <time>2012-05-05T07:46:20Z</time>
      </trkpt>
      <trkpt lat="43.98962" lon="7.16966">
        <ele>873.400024414</ele>
        <time>2012-05-05T07:46:23Z</time>
      </trkpt>
      <trkpt lat="43.98966" lon="7.1696">
        <ele>874.599975586</ele>
        <time>2012-05-05T07:46:26Z</time>
      </trkpt>
      <trkpt lat="43.9897" lon="7.16952">
        <ele>875.799987793</ele>
        <time>2012-05-05T07:46:29Z</time>
      </trkpt>
      <trkpt lat="43.9897" lon="7.16945">
        <ele>875.799987793</ele>
        <time>2012-05-05T07:46:31Z</time>
      </trkpt>
      <trkpt lat="43.98971" lon="7.16931">
        <ele>877</ele>
        <time>2012-05-05T07:46:36Z</time>
      </trkpt>
      <trkpt lat="43.98971" lon="7.16928">
        <ele>877</ele>
        <time>2012-05-05T07:46:37Z</time>
      </trkpt>
      <trkpt lat="43.98972" lon="7.16907">
        <ele>877</ele>
        <time>2012-05-05T07:46:44Z</time>
      </trkpt>
      <trkpt lat="43.98973" lon="7.16888">
        <ele>877</ele>
        <time>2012-05-05T07:46:51Z</time>
      </trkpt>
      <trkpt lat="43.98977" lon="7.1687">
        <ele>878</ele>
        <time>2012-05-05T07:46:57Z</time>
      </trkpt>
      <trkpt lat="43.98978" lon="7.16868">
        <ele>878</ele>
        <time>2012-05-05T07:46:58Z</time>
      </trkpt>
      <trkpt lat="43.98984" lon="7.16853">
        <ele>879</ele>
        <time>2012-05-05T07:47:03Z</time>
      </trkpt>
      <trkpt lat="43.98986" lon="7.16849">
        <ele>879</ele>
        <time>2012-05-05T07:47:05Z</time>
      </trkpt>
      <trkpt lat="43.98996" lon="7.16825">
        <ele>879</ele>
        <time>2012-05-05T07:47:14Z</time>
      </trkpt>
      <trkpt lat="43.99004" lon="7.16804">
        <ele>880.200012207</ele>
        <time>2012-05-05T07:47:21Z</time>
      </trkpt>
      <trkpt lat="43.99011" lon="7.16798">
        <ele>881.599975586</ele>
        <time>2012-05-05T07:47:24Z</time>
      </trkpt>
      <trkpt lat="43.99018" lon="7.16792">
        <ele>882.599975586</ele>
        <time>2012-05-05T07:47:28Z</time>
      </trkpt>
      <trkpt lat="43.99021" lon="7.1679">
        <ele>882.599975586</ele>
        <time>2012-05-05T07:47:29Z</time>
      </trkpt>
      <trkpt lat="43.99029" lon="7.1678">
        <ele>883.799987793</ele>
        <time>2012-05-05T07:47:34Z</time>
      </trkpt>
      <trkpt lat="43.99031" lon="7.16778">
        <ele>883.799987793</ele>
        <time>2012-05-05T07:47:35Z</time>
      </trkpt>
      <trkpt lat="43.99038" lon="7.1677">
        <ele>885</ele>
        <time>2012-05-05T07:47:38Z</time>
      </trkpt>
      <trkpt lat="43.99042" lon="7.16763">
        <ele>885</ele>
        <time>2012-05-05T07:47:41Z</time>
      </trkpt>
      <trkpt lat="43.99043" lon="7.16761">
        <ele>886</ele>
        <time>2012-05-05T07:47:42Z</time>
      </trkpt>
      <trkpt lat="43.99051" lon="7.16752">
        <ele>887.400024414</ele>
        <time>2012-05-05T07:47:46Z</time>
      </trkpt>
      <trkpt lat="43.99054" lon="7.16748">
        <ele>887.400024414</ele>
        <time>2012-05-05T07:47:48Z</time>
      </trkpt>
      <trkpt lat="43.99064" lon="7.16725">
        <ele>887.400024414</ele>
        <time>2012-05-05T07:47:56Z</time>
      </trkpt>
      <trkpt lat="43.99067" lon="7.16707">
        <ele>887.400024414</ele>
        <time>2012-05-05T07:48:02Z</time>
      </trkpt>
      <trkpt lat="43.99071" lon="7.1669">
        <ele>887.400024414</ele>
        <time>2012-05-05T07:48:08Z</time>
      </trkpt>
      <trkpt lat="43.99072" lon="7.16687">
        <ele>888.799987793</ele>
        <time>2012-05-05T07:48:09Z</time>
      </trkpt>
      <trkpt lat="43.99075" lon="7.1668">
        <ele>889.799987793</ele>
        <time>2012-05-05T07:48:12Z</time>
      </trkpt>
      <trkpt lat="43.99078" lon="7.16671">
        <ele>889.799987793</ele>
        <time>2012-05-05T07:48:16Z</time>
      </trkpt>
      <trkpt lat="43.9908" lon="7.16654">
        <ele>889.799987793</ele>
        <time>2012-05-05T07:48:23Z</time>
      </trkpt>
      <trkpt lat="43.99081" lon="7.16651">
        <ele>891</ele>
        <time>2012-05-05T07:48:24Z</time>
      </trkpt>
      <trkpt lat="43.9908" lon="7.16641">
        <ele>892</ele>
        <time>2012-05-05T07:48:28Z</time>
      </trkpt>
      <trkpt lat="43.99078" lon="7.16637">
        <ele>892</ele>
        <time>2012-05-05T07:48:30Z</time>
      </trkpt>
      <trkpt lat="43.99075" lon="7.16626">
        <ele>893</ele>
        <time>2012-05-05T07:48:35Z</time>
      </trkpt>
      <trkpt lat="43.99072" lon="7.16618">
        <ele>893</ele>
        <time>2012-05-05T07:48:39Z</time>
      </trkpt>
      <trkpt lat="43.99063" lon="7.16599">
        <ele>893</ele>
        <time>2012-05-05T07:48:48Z</time>
      </trkpt>
      <trkpt lat="43.99058" lon="7.16587">
        <ele>894.400024414</ele>
        <time>2012-05-05T07:48:54Z</time>
      </trkpt>
      <trkpt lat="43.99056" lon="7.16583">
        <ele>894.400024414</ele>
        <time>2012-05-05T07:48:56Z</time>
      </trkpt>
      <trkpt lat="43.99054" lon="7.16577">
        <ele>895.400024414</ele>
        <time>2012-05-05T07:48:59Z</time>
      </trkpt>
      <trkpt lat="43.99051" lon="7.16572">
        <ele>896.599975586</ele>
        <time>2012-05-05T07:49:02Z</time>
      </trkpt>
      <trkpt lat="43.99049" lon="7.16569">
        <ele>896.599975586</ele>
        <time>2012-05-05T07:49:04Z</time>
      </trkpt>
      <trkpt lat="43.99046" lon="7.16566">
        <ele>897.799987793</ele>
        <time>2012-05-05T07:49:06Z</time>
      </trkpt>
      <trkpt lat="43.99042" lon="7.16563">
        <ele>898.799987793</ele>
        <time>2012-05-05T07:49:09Z</time>
      </trkpt>
      <trkpt lat="43.9904" lon="7.16561">
        <ele>898.799987793</ele>
        <time>2012-05-05T07:49:11Z</time>
      </trkpt>
      <trkpt lat="43.99037" lon="7.1656">
        <ele>900</ele>
        <time>2012-05-05T07:49:13Z</time>
      </trkpt>
      <trkpt lat="43.99033" lon="7.16557">
        <ele>901</ele>
        <time>2012-05-05T07:49:16Z</time>
      </trkpt>
      <trkpt lat="43.9903" lon="7.16555">
        <ele>901</ele>
        <time>2012-05-05T07:49:18Z</time>
      </trkpt>
      <trkpt lat="43.99027" lon="7.16554">
        <ele>902.200012207</ele>
        <time>2012-05-05T07:49:20Z</time>
      </trkpt>
      <trkpt lat="43.99018" lon="7.16547">
        <ele>903.200012207</ele>
        <time>2012-05-05T07:49:26Z</time>
      </trkpt>
      <trkpt lat="43.99007" lon="7.16535">
        <ele>903.200012207</ele>
        <time>2012-05-05T07:49:34Z</time>
      </trkpt>
      <trkpt lat="43.99005" lon="7.16531">
        <ele>904.400024414</ele>
        <time>2012-05-05T07:49:36Z</time>
      </trkpt>
      <trkpt lat="43.99" lon="7.16521">
        <ele>905.400024414</ele>
        <time>2012-05-05T07:49:41Z</time>
      </trkpt>
      <trkpt lat="43.98999" lon="7.16518">
        <ele>905.400024414</ele>
        <time>2012-05-05T07:49:42Z</time>
      </trkpt>
      <trkpt lat="43.98994" lon="7.16508">
        <ele>906.599975586</ele>
        <time>2012-05-05T07:49:47Z</time>
      </trkpt>
      <trkpt lat="43.98989" lon="7.16501">
        <ele>906.599975586</ele>
        <time>2012-05-05T07:49:51Z</time>
      </trkpt>
      <trkpt lat="43.98975" lon="7.16494">
        <ele>906.599975586</ele>
        <time>2012-05-05T07:49:59Z</time>
      </trkpt>
      <trkpt lat="43.98968" lon="7.16489">
        <ele>907.799987793</ele>
        <time>2012-05-05T07:50:04Z</time>
      </trkpt>
      <trkpt lat="43.98965" lon="7.16487">
        <ele>907.799987793</ele>
        <time>2012-05-05T07:50:06Z</time>
      </trkpt>
      <trkpt lat="43.98962" lon="7.16485">
        <ele>908.799987793</ele>
        <time>2012-05-05T07:50:08Z</time>
      </trkpt>
      <trkpt lat="43.98951" lon="7.1648">
        <ele>908.799987793</ele>
        <time>2012-05-05T07:50:14Z</time>
      </trkpt>
      <trkpt lat="43.98937" lon="7.16467">
        <ele>908.799987793</ele>
        <time>2012-05-05T07:50:23Z</time>
      </trkpt>
      <trkpt lat="43.9893" lon="7.16456">
        <ele>908.799987793</ele>
        <time>2012-05-05T07:50:29Z</time>
      </trkpt>
      <trkpt lat="43.98924" lon="7.16444">
        <ele>910</ele>
        <time>2012-05-05T07:50:35Z</time>
      </trkpt>
      <trkpt lat="43.98922" lon="7.16439">
        <ele>910</ele>
        <time>2012-05-05T07:50:37Z</time>
      </trkpt>
      <trkpt lat="43.98921" lon="7.16434">
        <ele>911</ele>
        <time>2012-05-05T07:50:39Z</time>
      </trkpt>
      <trkpt lat="43.9892" lon="7.16427">
        <ele>912.200012207</ele>
        <time>2012-05-05T07:50:42Z</time>
      </trkpt>
      <trkpt lat="43.98921" lon="7.16425">
        <ele>912.200012207</ele>
        <time>2012-05-05T07:50:43Z</time>
      </trkpt>
      <trkpt lat="43.98921" lon="7.16418">
        <ele>913.200012207</ele>
        <time>2012-05-05T07:50:46Z</time>
      </trkpt>
      <trkpt lat="43.98922" lon="7.1641">
        <ele>915.200012207</ele>
        <time>2012-05-05T07:50:49Z</time>
      </trkpt>
      <trkpt lat="43.98923" lon="7.16407">
        <ele>915.200012207</ele>
        <time>2012-05-05T07:50:50Z</time>
      </trkpt>
      <trkpt lat="43.98923" lon="7.16405">
        <ele>916.799987793</ele>
        <time>2012-05-05T07:50:51Z</time>
      </trkpt>
      <trkpt lat="43.98926" lon="7.16395">
        <ele>918.200012207</ele>
        <time>2012-05-05T07:50:55Z</time>
      </trkpt>
      <trkpt lat="43.98927" lon="7.16385">
        <ele>919.200012207</ele>
        <time>2012-05-05T07:50:59Z</time>
      </trkpt>
      <trkpt lat="43.98928" lon="7.16376">
        <ele>919.200012207</ele>
        <time>2012-05-05T07:51:02Z</time>
      </trkpt>
      <trkpt lat="43.98928" lon="7.16374">
        <ele>920.200012207</ele>
        <time>2012-05-05T07:51:03Z</time>
      </trkpt>
      <trkpt lat="43.98929" lon="7.16358">
        <ele>921.400024414</ele>
        <time>2012-05-05T07:51:09Z</time>
      </trkpt>
      <trkpt lat="43.9893" lon="7.16349">
        <ele>922.599975586</ele>
        <time>2012-05-05T07:51:13Z</time>
      </trkpt>
      <trkpt lat="43.98929" lon="7.16342">
        <ele>922.599975586</ele>
        <time>2012-05-05T07:51:16Z</time>
      </trkpt>
      <trkpt lat="43.98927" lon="7.16335">
        <ele>923.599975586</ele>
        <time>2012-05-05T07:51:19Z</time>
      </trkpt>
      <trkpt lat="43.98924" lon="7.16326">
        <ele>923.599975586</ele>
        <time>2012-05-05T07:51:23Z</time>
      </trkpt>
      <trkpt lat="43.98916" lon="7.16306">
        <ele>923.599975586</ele>
        <time>2012-05-05T07:51:32Z</time>
      </trkpt>
      <trkpt lat="43.98914" lon="7.16299">
        <ele>924.599975586</ele>
        <time>2012-05-05T07:51:35Z</time>
      </trkpt>
      <trkpt lat="43.98912" lon="7.16291">
        <ele>924.599975586</ele>
        <time>2012-05-05T07:51:38Z</time>
      </trkpt>
      <trkpt lat="43.98911" lon="7.16287">
        <ele>925.799987793</ele>
        <time>2012-05-05T07:51:40Z</time>
      </trkpt>
      <trkpt lat="43.98906" lon="7.16267">
        <ele>927</ele>
        <time>2012-05-05T07:51:48Z</time>
      </trkpt>
      <trkpt lat="43.98906" lon="7.16265">
        <ele>927</ele>
        <time>2012-05-05T07:51:49Z</time>
      </trkpt>
      <trkpt lat="43.98902" lon="7.16253">
        <ele>928</ele>
        <time>2012-05-05T07:51:54Z</time>
      </trkpt>
      <trkpt lat="43.98901" lon="7.16245">
        <ele>928</ele>
        <time>2012-05-05T07:51:57Z</time>
      </trkpt>
      <trkpt lat="43.989" lon="7.16243">
        <ele>929</ele>
        <time>2012-05-05T07:51:58Z</time>
      </trkpt>
      <trkpt lat="43.98896" lon="7.1623">
        <ele>930.599975586</ele>
        <time>2012-05-05T07:52:03Z</time>
      </trkpt>
      <trkpt lat="43.98896" lon="7.16228">
        <ele>930.599975586</ele>
        <time>2012-05-05T07:52:04Z</time>
      </trkpt>
      <trkpt lat="43.98893" lon="7.1622">
        <ele>931.599975586</ele>
        <time>2012-05-05T07:52:07Z</time>
      </trkpt>
      <trkpt lat="43.98889" lon="7.16208">
        <ele>931.599975586</ele>
        <time>2012-05-05T07:52:12Z</time>
      </trkpt>
      <trkpt lat="43.98888" lon="7.16206">
        <ele>932.599975586</ele>
        <time>2012-05-05T07:52:13Z</time>
      </trkpt>
      <trkpt lat="43.98882" lon="7.16189">
        <ele>932.599975586</ele>
        <time>2012-05-05T07:52:20Z</time>
      </trkpt>
      <trkpt lat="43.98877" lon="7.16174">
        <ele>933.599975586</ele>
        <time>2012-05-05T07:52:26Z</time>
      </trkpt>
      <trkpt lat="43.98876" lon="7.16172">
        <ele>933.599975586</ele>
        <time>2012-05-05T07:52:27Z</time>
      </trkpt>
      <trkpt lat="43.98875" lon="7.16164">
        <ele>934.799987793</ele>
        <time>2012-05-05T07:52:30Z</time>
      </trkpt>
      <trkpt lat="43.98873" lon="7.16157">
        <ele>936</ele>
        <time>2012-05-05T07:52:33Z</time>
      </trkpt>
      <trkpt lat="43.98871" lon="7.16147">
        <ele>937.200012207</ele>
        <time>2012-05-05T07:52:37Z</time>
      </trkpt>
      <trkpt lat="43.9887" lon="7.16142">
        <ele>937.200012207</ele>
        <time>2012-05-05T07:52:39Z</time>
      </trkpt>
      <trkpt lat="43.98865" lon="7.16131">
        <ele>938.200012207</ele>
        <time>2012-05-05T07:52:44Z</time>
      </trkpt>
      <trkpt lat="43.98862" lon="7.16125">
        <ele>938.200012207</ele>
        <time>2012-05-05T07:52:47Z</time>
      </trkpt>
      <trkpt lat="43.98862" lon="7.16122">
        <ele>939.799987793</ele>
        <time>2012-05-05T07:52:48Z</time>
      </trkpt>
      <trkpt lat="43.9886" lon="7.16119">
        <ele>940.799987793</ele>
        <time>2012-05-05T07:52:50Z</time>
      </trkpt>
      <trkpt lat="43.98856" lon="7.16114">
        <ele>940.799987793</ele>
        <time>2012-05-05T07:52:53Z</time>
      </trkpt>
      <trkpt lat="43.98855" lon="7.16112">
        <ele>942.200012207</ele>
        <time>2012-05-05T07:52:54Z</time>
      </trkpt>
      <trkpt lat="43.98842" lon="7.16104">
        <ele>942.200012207</ele>
        <time>2012-05-05T07:53:02Z</time>
      </trkpt>
      <trkpt lat="43.98839" lon="7.16102">
        <ele>943.200012207</ele>
        <time>2012-05-05T07:53:04Z</time>
      </trkpt>
      <trkpt lat="43.98828" lon="7.161">
        <ele>943.200012207</ele>
        <time>2012-05-05T07:53:10Z</time>
      </trkpt>
      <trkpt lat="43.98812" lon="7.16101">
        <ele>943.200012207</ele>
        <time>2012-05-05T07:53:19Z</time>
      </trkpt>
      <trkpt lat="43.98798" lon="7.16109">
        <ele>943.200012207</ele>
        <time>2012-05-05T07:53:27Z</time>
      </trkpt>
      <trkpt lat="43.98783" lon="7.16117">
        <ele>943.200012207</ele>
        <time>2012-05-05T07:53:36Z</time>
      </trkpt>
      <trkpt lat="43.98779" lon="7.16118">
        <ele>944.200012207</ele>
        <time>2012-05-05T07:53:38Z</time>
      </trkpt>
      <trkpt lat="43.98766" lon="7.16119">
        <ele>944.200012207</ele>
        <time>2012-05-05T07:53:45Z</time>
      </trkpt>
      <trkpt lat="43.98764" lon="7.16119">
        <ele>945.400024414</ele>
        <time>2012-05-05T07:53:46Z</time>
      </trkpt>
      <trkpt lat="43.98752" lon="7.16116">
        <ele>946.799987793</ele>
        <time>2012-05-05T07:53:53Z</time>
      </trkpt>
      <trkpt lat="43.98745" lon="7.16114">
        <ele>947.799987793</ele>
        <time>2012-05-05T07:53:57Z</time>
      </trkpt>
      <trkpt lat="43.98737" lon="7.16112">
        <ele>948.799987793</ele>
        <time>2012-05-05T07:54:01Z</time>
      </trkpt>
      <trkpt lat="43.98736" lon="7.16111">
        <ele>948.799987793</ele>
        <time>2012-05-05T07:54:02Z</time>
      </trkpt>
      <trkpt lat="43.98728" lon="7.16109">
        <ele>949.799987793</ele>
        <time>2012-05-05T07:54:06Z</time>
      </trkpt>
      <trkpt lat="43.98719" lon="7.16107">
        <ele>949.799987793</ele>
        <time>2012-05-05T07:54:11Z</time>
      </trkpt>
      <trkpt lat="43.98714" lon="7.16104">
        <ele>951</ele>
        <time>2012-05-05T07:54:14Z</time>
      </trkpt>
      <trkpt lat="43.98704" lon="7.161">
        <ele>952</ele>
        <time>2012-05-05T07:54:20Z</time>
      </trkpt>
      <trkpt lat="43.98694" lon="7.16095">
        <ele>952</ele>
        <time>2012-05-05T07:54:26Z</time>
      </trkpt>
      <trkpt lat="43.98692" lon="7.16094">
        <ele>953</ele>
        <time>2012-05-05T07:54:27Z</time>
      </trkpt>
      <trkpt lat="43.98679" lon="7.16086">
        <ele>954.200012207</ele>
        <time>2012-05-05T07:54:35Z</time>
      </trkpt>
      <trkpt lat="43.98677" lon="7.16085">
        <ele>954.200012207</ele>
        <time>2012-05-05T07:54:36Z</time>
      </trkpt>
      <trkpt lat="43.98667" lon="7.16078">
        <ele>955.400024414</ele>
        <time>2012-05-05T07:54:42Z</time>
      </trkpt>
      <trkpt lat="43.98662" lon="7.16074">
        <ele>955.400024414</ele>
        <time>2012-05-05T07:54:45Z</time>
      </trkpt>
      <trkpt lat="43.98659" lon="7.16072">
        <ele>956.400024414</ele>
        <time>2012-05-05T07:54:47Z</time>
      </trkpt>
      <trkpt lat="43.98653" lon="7.16068">
        <ele>957.400024414</ele>
        <time>2012-05-05T07:54:51Z</time>
      </trkpt>
      <trkpt lat="43.9865" lon="7.16065">
        <ele>957.400024414</ele>
        <time>2012-05-05T07:54:53Z</time>
      </trkpt>
      <trkpt lat="43.98647" lon="7.16063">
        <ele>958.599975586</ele>
        <time>2012-05-05T07:54:55Z</time>
      </trkpt>
      <trkpt lat="43.98641" lon="7.16058">
        <ele>960</ele>
        <time>2012-05-05T07:54:59Z</time>
      </trkpt>
      <trkpt lat="43.98637" lon="7.16056">
        <ele>960</ele>
        <time>2012-05-05T07:55:01Z</time>
      </trkpt>
      <trkpt lat="43.98633" lon="7.16052">
        <ele>961</ele>
        <time>2012-05-05T07:55:04Z</time>
      </trkpt>
      <trkpt lat="43.98628" lon="7.1605">
        <ele>961</ele>
        <time>2012-05-05T07:55:07Z</time>
      </trkpt>
      <trkpt lat="43.98624" lon="7.16048">
        <ele>962.200012207</ele>
        <time>2012-05-05T07:55:09Z</time>
      </trkpt>
      <trkpt lat="43.98614" lon="7.16043">
        <ele>962.200012207</ele>
        <time>2012-05-05T07:55:15Z</time>
      </trkpt>
      <trkpt lat="43.98611" lon="7.16042">
        <ele>963.200012207</ele>
        <time>2012-05-05T07:55:17Z</time>
      </trkpt>
      <trkpt lat="43.98599" lon="7.16034">
        <ele>963.200012207</ele>
        <time>2012-05-05T07:55:24Z</time>
      </trkpt>
      <trkpt lat="43.98597" lon="7.16033">
        <ele>964.400024414</ele>
        <time>2012-05-05T07:55:25Z</time>
      </trkpt>
      <trkpt lat="43.98591" lon="7.16029">
        <ele>965.400024414</ele>
        <time>2012-05-05T07:55:29Z</time>
      </trkpt>
      <trkpt lat="43.98586" lon="7.16027">
        <ele>965.400024414</ele>
        <time>2012-05-05T07:55:32Z</time>
      </trkpt>
      <trkpt lat="43.98573" lon="7.16022">
        <ele>965.400024414</ele>
        <time>2012-05-05T07:55:40Z</time>
      </trkpt>
      <trkpt lat="43.98558" lon="7.16018">
        <ele>965.400024414</ele>
        <time>2012-05-05T07:55:49Z</time>
      </trkpt>
      <trkpt lat="43.98553" lon="7.16017">
        <ele>965.400024414</ele>
        <time>2012-05-05T07:55:53Z</time>
      </trkpt>
      <trkpt lat="43.98554" lon="7.16019">
        <ele>965.400024414</ele>
        <time>2012-05-05T07:55:55Z</time>
      </trkpt>
      <trkpt lat="43.98554" lon="7.16018">
        <ele>965.400024414</ele>
        <time>2012-05-05T07:55:56Z</time>
      </trkpt>
      <trkpt lat="43.98553" lon="7.16018">
        <ele>965.400024414</ele>
        <time>2012-05-05T07:55:59Z</time>
      </trkpt>
      <trkpt lat="43.98551" lon="7.16018">
        <ele>965.400024414</ele>
        <time>2012-05-05T07:56:04Z</time>
      </trkpt>
      <trkpt lat="43.98551" lon="7.16018">
        <ele>966.400024414</ele>
        <time>2012-05-05T07:56:13Z</time>
      </trkpt>
      <trkpt lat="43.9855" lon="7.16018">
        <ele>966.400024414</ele>
        <time>2012-05-05T07:56:19Z</time>
      </trkpt>
      <trkpt lat="43.9855" lon="7.16019">
        <ele>967.599975586</ele>
        <time>2012-05-05T07:56:24Z</time>
      </trkpt>
      <trkpt lat="43.98549" lon="7.1602">
        <ele>967.599975586</ele>
        <time>2012-05-05T07:56:26Z</time>
      </trkpt>
      <trkpt lat="43.98549" lon="7.16019">
        <ele>967.599975586</ele>
        <time>2012-05-05T07:56:28Z</time>
      </trkpt>
      <trkpt lat="43.98548" lon="7.16022">
        <ele>967.599975586</ele>
        <time>2012-05-05T07:56:30Z</time>
      </trkpt>
      <trkpt lat="43.98547" lon="7.16023">
        <ele>968.599975586</ele>
        <time>2012-05-05T07:56:33Z</time>
      </trkpt>
      <trkpt lat="43.98546" lon="7.16024">
        <ele>968.599975586</ele>
        <time>2012-05-05T07:56:35Z</time>
      </trkpt>
      <trkpt lat="43.98546" lon="7.16024">
        <ele>969.599975586</ele>
        <time>2012-05-05T07:56:36Z</time>
      </trkpt>
      <trkpt lat="43.98548" lon="7.16022">
        <ele>969.599975586</ele>
        <time>2012-05-05T07:56:40Z</time>
      </trkpt>
      <trkpt lat="43.98552" lon="7.16019">
        <ele>970.799987793</ele>
        <time>2012-05-05T07:56:45Z</time>
      </trkpt>
      <trkpt lat="43.98551" lon="7.16019">
        <ele>970.799987793</ele>
        <time>2012-05-05T07:56:49Z</time>
      </trkpt>
      <trkpt lat="43.98551" lon="7.16019">
        <ele>970.799987793</ele>
        <time>2012-05-05T07:56:53Z</time>
      </trkpt>
      <trkpt lat="43.98551" lon="7.16019">
        <ele>970.799987793</ele>
        <time>2012-05-05T07:56:56Z</time>
      </trkpt>
      <trkpt lat="43.98551" lon="7.16019">
        <ele>971.799987793</ele>
        <time>2012-05-05T07:56:58Z</time>
      </trkpt>
      <trkpt lat="43.98551" lon="7.16019">
        <ele>971.799987793</ele>
        <time>2012-05-05T07:57:01Z</time>
      </trkpt>
      <trkpt lat="43.98551" lon="7.1602">
        <ele>971.799987793</ele>
        <time>2012-05-05T07:57:05Z</time>
      </trkpt>
      <trkpt lat="43.9855" lon="7.16021">
        <ele>971.799987793</ele>
        <time>2012-05-05T07:57:14Z</time>
      </trkpt>
      <trkpt lat="43.98549" lon="7.16021">
        <ele>971.799987793</ele>
        <time>2012-05-05T07:57:18Z</time>
      </trkpt>
      <trkpt lat="43.98549" lon="7.16022">
        <ele>971.799987793</ele>
        <time>2012-05-05T07:57:24Z</time>
      </trkpt>
      <trkpt lat="43.98549" lon="7.16022">
        <ele>971.799987793</ele>
        <time>2012-05-05T07:57:31Z</time>
      </trkpt>
      <trkpt lat="43.98549" lon="7.16022">
        <ele>971.799987793</ele>
        <time>2012-05-05T07:57:35Z</time>
      </trkpt>
      <trkpt lat="43.98545" lon="7.16024">
        <ele>971.799987793</ele>
        <time>2012-05-05T07:57:40Z</time>
      </trkpt>
      <trkpt lat="43.98544" lon="7.16024">
        <ele>971.799987793</ele>
        <time>2012-05-05T07:57:46Z</time>
      </trkpt>
      <trkpt lat="43.98544" lon="7.16024">
        <ele>971.799987793</ele>
        <time>2012-05-05T07:57:47Z</time>
      </trkpt>
      <trkpt lat="43.98543" lon="7.16022">
        <ele>971.799987793</ele>
        <time>2012-05-05T07:57:54Z</time>
      </trkpt>
      <trkpt lat="43.98543" lon="7.16022">
        <ele>971.799987793</ele>
        <time>2012-05-05T07:57:55Z</time>
      </trkpt>
      <trkpt lat="43.98541" lon="7.16016">
        <ele>971.799987793</ele>
        <time>2012-05-05T07:58:00Z</time>
      </trkpt>
      <trkpt lat="43.9854" lon="7.16013">
        <ele>971.799987793</ele>
        <time>2012-05-05T07:58:05Z</time>
      </trkpt>
      <trkpt lat="43.9854" lon="7.16013">
        <ele>971.799987793</ele>
        <time>2012-05-05T07:58:09Z</time>
      </trkpt>
      <trkpt lat="43.9854" lon="7.16013">
        <ele>971.799987793</ele>
        <time>2012-05-05T07:58:10Z</time>
      </trkpt>
      <trkpt lat="43.9854" lon="7.16014">
        <ele>971.799987793</ele>
        <time>2012-05-05T07:58:18Z</time>
      </trkpt>
      <trkpt lat="43.98544" lon="7.16018">
        <ele>971.799987793</ele>
        <time>2012-05-05T07:58:25Z</time>
      </trkpt>
      <trkpt lat="43.98548" lon="7.1602">
        <ele>971.799987793</ele>
        <time>2012-05-05T07:58:30Z</time>
      </trkpt>
      <trkpt lat="43.98548" lon="7.1602">
        <ele>971.799987793</ele>
        <time>2012-05-05T07:58:33Z</time>
      </trkpt>
      <trkpt lat="43.98547" lon="7.1602">
        <ele>971.799987793</ele>
        <time>2012-05-05T07:58:34Z</time>
      </trkpt>
      <trkpt lat="43.98547" lon="7.16021">
        <ele>971.799987793</ele>
        <time>2012-05-05T07:58:36Z</time>
      </trkpt>
      <trkpt lat="43.98547" lon="7.1602">
        <ele>971.799987793</ele>
        <time>2012-05-05T07:58:40Z</time>
      </trkpt>
      <trkpt lat="43.98547" lon="7.1602">
        <ele>971.799987793</ele>
        <time>2012-05-05T07:58:48Z</time>
      </trkpt>
      <trkpt lat="43.98547" lon="7.1602">
        <ele>971.799987793</ele>
        <time>2012-05-05T07:58:56Z</time>
      </trkpt>
      <trkpt lat="43.98548" lon="7.1602">
        <ele>971.799987793</ele>
        <time>2012-05-05T07:59:04Z</time>
      </trkpt>
      <trkpt lat="43.98549" lon="7.16018">
        <ele>971.799987793</ele>
        <time>2012-05-05T07:59:09Z</time>
      </trkpt>
      <trkpt lat="43.98544" lon="7.16022">
        <ele>971.799987793</ele>
        <time>2012-05-05T07:59:16Z</time>
      </trkpt>
      <trkpt lat="43.98543" lon="7.16021">
        <ele>971.799987793</ele>
        <time>2012-05-05T07:59:19Z</time>
      </trkpt>
      <trkpt lat="43.98543" lon="7.16021">
        <ele>971.799987793</ele>
        <time>2012-05-05T07:59:21Z</time>
      </trkpt>
      <trkpt lat="43.98544" lon="7.16021">
        <ele>971.799987793</ele>
        <time>2012-05-05T07:59:26Z</time>
      </trkpt>
      <trkpt lat="43.98544" lon="7.16022">
        <ele>971.799987793</ele>
        <time>2012-05-05T07:59:33Z</time>
      </trkpt>
      <trkpt lat="43.98544" lon="7.16022">
        <ele>964.200012207</ele>
        <time>2012-05-05T07:59:34Z</time>
      </trkpt>
      <trkpt lat="43.98543" lon="7.16022">
        <ele>972.799987793</ele>
        <time>2012-05-05T07:59:35Z</time>
      </trkpt>
      <trkpt lat="43.98542" lon="7.16023">
        <ele>977.400024414</ele>
        <time>2012-05-05T07:59:36Z</time>
      </trkpt>
      <trkpt lat="43.98542" lon="7.16023">
        <ele>972.799987793</ele>
        <time>2012-05-05T07:59:37Z</time>
      </trkpt>
      <trkpt lat="43.98539" lon="7.16028">
        <ele>972.799987793</ele>
        <time>2012-05-05T07:59:45Z</time>
      </trkpt>
      <trkpt lat="43.98537" lon="7.16032">
        <ele>972.799987793</ele>
        <time>2012-05-05T07:59:51Z</time>
      </trkpt>
      <trkpt lat="43.98536" lon="7.16034">
        <ele>972.799987793</ele>
        <time>2012-05-05T07:59:55Z</time>
      </trkpt>
      <trkpt lat="43.98536" lon="7.16036">
        <ele>972.799987793</ele>
        <time>2012-05-05T07:59:58Z</time>
      </trkpt>
      <trkpt lat="43.98536" lon="7.16036">
        <ele>972.799987793</ele>
        <time>2012-05-05T08:00:00Z</time>
      </trkpt>
      <trkpt lat="43.98536" lon="7.16036">
        <ele>972.799987793</ele>
        <time>2012-05-05T08:00:06Z</time>
      </trkpt>
      <trkpt lat="43.98536" lon="7.16041">
        <ele>972.799987793</ele>
        <time>2012-05-05T08:00:11Z</time>
      </trkpt>
      <trkpt lat="43.98538" lon="7.16047">
        <ele>972.799987793</ele>
        <time>2012-05-05T08:00:20Z</time>
      </trkpt>
      <trkpt lat="43.98539" lon="7.1605">
        <ele>974.799987793</ele>
        <time>2012-05-05T08:00:24Z</time>
      </trkpt>
      <trkpt lat="43.9854" lon="7.16052">
        <ele>974.799987793</ele>
        <time>2012-05-05T08:00:27Z</time>
      </trkpt>
      <trkpt lat="43.98541" lon="7.16056">
        <ele>976</ele>
        <time>2012-05-05T08:00:33Z</time>
      </trkpt>
      <trkpt lat="43.98542" lon="7.16056">
        <ele>976</ele>
        <time>2012-05-05T08:00:35Z</time>
      </trkpt>
      <trkpt lat="43.98544" lon="7.16059">
        <ele>977</ele>
        <time>2012-05-05T08:00:39Z</time>
      </trkpt>
      <trkpt lat="43.98544" lon="7.16061">
        <ele>977</ele>
        <time>2012-05-05T08:00:43Z</time>
      </trkpt>
      <trkpt lat="43.98546" lon="7.16064">
        <ele>978.200012207</ele>
        <time>2012-05-05T08:00:48Z</time>
      </trkpt>
      <trkpt lat="43.98548" lon="7.16067">
        <ele>978.200012207</ele>
        <time>2012-05-05T08:00:53Z</time>
      </trkpt>
      <trkpt lat="43.9855" lon="7.16069">
        <ele>979.400024414</ele>
        <time>2012-05-05T08:00:56Z</time>
      </trkpt>
      <trkpt lat="43.98551" lon="7.1607">
        <ele>980.400024414</ele>
        <time>2012-05-05T08:01:00Z</time>
      </trkpt>
      <trkpt lat="43.98552" lon="7.16071">
        <ele>980.400024414</ele>
        <time>2012-05-05T08:01:01Z</time>
      </trkpt>
      <trkpt lat="43.98554" lon="7.16073">
        <ele>981.799987793</ele>
        <time>2012-05-05T08:01:05Z</time>
      </trkpt>
      <trkpt lat="43.98555" lon="7.16074">
        <ele>982.799987793</ele>
        <time>2012-05-05T08:01:08Z</time>
      </trkpt>
      <trkpt lat="43.98556" lon="7.16076">
        <ele>982.799987793</ele>
        <time>2012-05-05T08:01:11Z</time>
      </trkpt>
      <trkpt lat="43.98557" lon="7.16076">
        <ele>984</ele>
        <time>2012-05-05T08:01:12Z</time>
      </trkpt>
      <trkpt lat="43.98559" lon="7.1608">
        <ele>985</ele>
        <time>2012-05-05T08:01:20Z</time>
      </trkpt>
      <trkpt lat="43.98562" lon="7.16084">
        <ele>986</ele>
        <time>2012-05-05T08:01:29Z</time>
      </trkpt>
      <trkpt lat="43.98563" lon="7.1609">
        <ele>986</ele>
        <time>2012-05-05T08:01:38Z</time>
      </trkpt>
      <trkpt lat="43.98564" lon="7.16091">
        <ele>987</ele>
        <time>2012-05-05T08:01:41Z</time>
      </trkpt>
      <trkpt lat="43.98566" lon="7.16094">
        <ele>988</ele>
        <time>2012-05-05T08:01:46Z</time>
      </trkpt>
      <trkpt lat="43.98568" lon="7.16097">
        <ele>989</ele>
        <time>2012-05-05T08:01:52Z</time>
      </trkpt>
      <trkpt lat="43.98569" lon="7.16097">
        <ele>989</ele>
        <time>2012-05-05T08:01:55Z</time>
      </trkpt>
      <trkpt lat="43.98569" lon="7.16099">
        <ele>990.200012207</ele>
        <time>2012-05-05T08:01:57Z</time>
      </trkpt>
      <trkpt lat="43.98571" lon="7.16102">
        <ele>991.200012207</ele>
        <time>2012-05-05T08:02:02Z</time>
      </trkpt>
      <trkpt lat="43.98571" lon="7.16101">
        <ele>991.200012207</ele>
        <time>2012-05-05T08:02:03Z</time>
      </trkpt>
      <trkpt lat="43.98571" lon="7.16106">
        <ele>992.200012207</ele>
        <time>2012-05-05T08:02:08Z</time>
      </trkpt>
      <trkpt lat="43.98572" lon="7.16107">
        <ele>992.200012207</ele>
        <time>2012-05-05T08:02:10Z</time>
      </trkpt>
      <trkpt lat="43.98572" lon="7.16109">
        <ele>993.400024414</ele>
        <time>2012-05-05T08:02:13Z</time>
      </trkpt>
      <trkpt lat="43.98573" lon="7.16113">
        <ele>994.400024414</ele>
        <time>2012-05-05T08:02:18Z</time>
      </trkpt>
      <trkpt lat="43.98574" lon="7.16115">
        <ele>994.400024414</ele>
        <time>2012-05-05T08:02:21Z</time>
      </trkpt>
      <trkpt lat="43.98574" lon="7.16117">
        <ele>995.599975586</ele>
        <time>2012-05-05T08:02:24Z</time>
      </trkpt>
      <trkpt lat="43.98575" lon="7.16121">
        <ele>996.599975586</ele>
        <time>2012-05-05T08:02:30Z</time>
      </trkpt>
      <trkpt lat="43.98576" lon="7.16122">
        <ele>996.599975586</ele>
        <time>2012-05-05T08:02:31Z</time>
      </trkpt>
      <trkpt lat="43.98576" lon="7.16126">
        <ele>997.599975586</ele>
        <time>2012-05-05T08:02:36Z</time>
      </trkpt>
      <trkpt lat="43.98578" lon="7.16129">
        <ele>998.599975586</ele>
        <time>2012-05-05T08:02:41Z</time>
      </trkpt>
      <trkpt lat="43.98578" lon="7.16133">
        <ele>999.599975586</ele>
        <time>2012-05-05T08:02:46Z</time>
      </trkpt>
      <trkpt lat="43.98579" lon="7.16136">
        <ele>999.599975586</ele>
        <time>2012-05-05T08:02:50Z</time>
      </trkpt>
      <trkpt lat="43.98579" lon="7.16136">
        <ele>1000.599975586</ele>
        <time>2012-05-05T08:02:52Z</time>
      </trkpt>
      <trkpt lat="43.9858" lon="7.16141">
        <ele>1001.599975586</ele>
        <time>2012-05-05T08:02:57Z</time>
      </trkpt>
      <trkpt lat="43.9858" lon="7.16142">
        <ele>1001.599975586</ele>
        <time>2012-05-05T08:02:59Z</time>
      </trkpt>
      <trkpt lat="43.98581" lon="7.16145">
        <ele>1002.599975586</ele>
        <time>2012-05-05T08:03:02Z</time>
      </trkpt>
      <trkpt lat="43.98582" lon="7.16149">
        <ele>1003.799987793</ele>
        <time>2012-05-05T08:03:08Z</time>
      </trkpt>
      <trkpt lat="43.98583" lon="7.16153">
        <ele>1004.799987793</ele>
        <time>2012-05-05T08:03:14Z</time>
      </trkpt>
      <trkpt lat="43.98584" lon="7.16156">
        <ele>1004.799987793</ele>
        <time>2012-05-05T08:03:17Z</time>
      </trkpt>
      <trkpt lat="43.98584" lon="7.16158">
        <ele>1005.799987793</ele>
        <time>2012-05-05T08:03:21Z</time>
      </trkpt>
      <trkpt lat="43.98585" lon="7.16161">
        <ele>1006.799987793</ele>
        <time>2012-05-05T08:03:25Z</time>
      </trkpt>
      <trkpt lat="43.98585" lon="7.16166">
        <ele>1008</ele>
        <time>2012-05-05T08:03:30Z</time>
      </trkpt>
      <trkpt lat="43.98587" lon="7.1617">
        <ele>1009</ele>
        <time>2012-05-05T08:03:36Z</time>
      </trkpt>
      <trkpt lat="43.98588" lon="7.16174">
        <ele>1010.200012207</ele>
        <time>2012-05-05T08:03:42Z</time>
      </trkpt>
      <trkpt lat="43.98588" lon="7.16175">
        <ele>1010.200012207</ele>
        <time>2012-05-05T08:03:43Z</time>
      </trkpt>
      <trkpt lat="43.9859" lon="7.16178">
        <ele>1011.200012207</ele>
        <time>2012-05-05T08:03:46Z</time>
      </trkpt>
      <trkpt lat="43.98591" lon="7.16183">
        <ele>1012.400024414</ele>
        <time>2012-05-05T08:03:51Z</time>
      </trkpt>
      <trkpt lat="43.98591" lon="7.16184">
        <ele>1012.400024414</ele>
        <time>2012-05-05T08:03:52Z</time>
      </trkpt>
      <trkpt lat="43.98592" lon="7.16187">
        <ele>1013.599975586</ele>
        <time>2012-05-05T08:03:55Z</time>
      </trkpt>
      <trkpt lat="43.98594" lon="7.16191">
        <ele>1014.599975586</ele>
        <time>2012-05-05T08:04:00Z</time>
      </trkpt>
      <trkpt lat="43.98594" lon="7.16193">
        <ele>1014.599975586</ele>
        <time>2012-05-05T08:04:02Z</time>
      </trkpt>
      <trkpt lat="43.98595" lon="7.16195">
        <ele>1015.799987793</ele>
        <time>2012-05-05T08:04:05Z</time>
      </trkpt>
      <trkpt lat="43.98597" lon="7.16199">
        <ele>1016.799987793</ele>
        <time>2012-05-05T08:04:09Z</time>
      </trkpt>
      <trkpt lat="43.98598" lon="7.16201">
        <ele>1016.799987793</ele>
        <time>2012-05-05T08:04:11Z</time>
      </trkpt>
      <trkpt lat="43.98599" lon="7.16206">
        <ele>1017.799987793</ele>
        <time>2012-05-05T08:04:15Z</time>
      </trkpt>
      <trkpt lat="43.986" lon="7.16211">
        <ele>1017.799987793</ele>
        <time>2012-05-05T08:04:19Z</time>
      </trkpt>
      <trkpt lat="43.98602" lon="7.16214">
        <ele>1019</ele>
        <time>2012-05-05T08:04:22Z</time>
      </trkpt>
      <trkpt lat="43.98605" lon="7.16224">
        <ele>1020</ele>
        <time>2012-05-05T08:04:29Z</time>
      </trkpt>
      <trkpt lat="43.98606" lon="7.16225">
        <ele>1020</ele>
        <time>2012-05-05T08:04:30Z</time>
      </trkpt>
      <trkpt lat="43.98609" lon="7.16231">
        <ele>1021</ele>
        <time>2012-05-05T08:04:35Z</time>
      </trkpt>
      <trkpt lat="43.98612" lon="7.16238">
        <ele>1021</ele>
        <time>2012-05-05T08:04:40Z</time>
      </trkpt>
      <trkpt lat="43.98613" lon="7.16239">
        <ele>1021</ele>
        <time>2012-05-05T08:04:46Z</time>
      </trkpt>
      <trkpt lat="43.98613" lon="7.16239">
        <ele>1022</ele>
        <time>2012-05-05T08:04:48Z</time>
      </trkpt>
      <trkpt lat="43.98615" lon="7.16243">
        <ele>1022</ele>
        <time>2012-05-05T08:05:01Z</time>
      </trkpt>
      <trkpt lat="43.98617" lon="7.16243">
        <ele>1022</ele>
        <time>2012-05-05T08:05:06Z</time>
      </trkpt>
      <trkpt lat="43.98617" lon="7.16243">
        <ele>1023</ele>
        <time>2012-05-05T08:05:11Z</time>
      </trkpt>
      <trkpt lat="43.98617" lon="7.16243">
        <ele>1023</ele>
        <time>2012-05-05T08:05:14Z</time>
      </trkpt>
      <trkpt lat="43.98621" lon="7.16251">
        <ele>1023</ele>
        <time>2012-05-05T08:05:19Z</time>
      </trkpt>
      <trkpt lat="43.98622" lon="7.16252">
        <ele>1023</ele>
        <time>2012-05-05T08:05:20Z</time>
      </trkpt>
      <trkpt lat="43.98624" lon="7.16256">
        <ele>1024</ele>
        <time>2012-05-05T08:05:23Z</time>
      </trkpt>
      <trkpt lat="43.98626" lon="7.16261">
        <ele>1024</ele>
        <time>2012-05-05T08:05:26Z</time>
      </trkpt>
      <trkpt lat="43.98627" lon="7.16262">
        <ele>1024</ele>
        <time>2012-05-05T08:05:27Z</time>
      </trkpt>
      <trkpt lat="43.98633" lon="7.16271">
        <ele>1024</ele>
        <time>2012-05-05T08:05:34Z</time>
      </trkpt>
      <trkpt lat="43.98637" lon="7.16279">
        <ele>1024</ele>
        <time>2012-05-05T08:05:42Z</time>
      </trkpt>
      <trkpt lat="43.98636" lon="7.16279">
        <ele>1025</ele>
        <time>2012-05-05T08:05:43Z</time>
      </trkpt>
      <trkpt lat="43.98637" lon="7.16279">
        <ele>1025</ele>
        <time>2012-05-05T08:05:49Z</time>
      </trkpt>
      <trkpt lat="43.98637" lon="7.16279">
        <ele>1025</ele>
        <time>2012-05-05T08:05:55Z</time>
      </trkpt>
      <trkpt lat="43.98641" lon="7.16281">
        <ele>1025</ele>
        <time>2012-05-05T08:06:00Z</time>
      </trkpt>
      <trkpt lat="43.98648" lon="7.16285">
        <ele>1025</ele>
        <time>2012-05-05T08:06:05Z</time>
      </trkpt>
      <trkpt lat="43.98653" lon="7.16293">
        <ele>1025</ele>
        <time>2012-05-05T08:06:11Z</time>
      </trkpt>
      <trkpt lat="43.98657" lon="7.16299">
        <ele>1027</ele>
        <time>2012-05-05T08:06:16Z</time>
      </trkpt>
      <trkpt lat="43.98659" lon="7.16305">
        <ele>1027</ele>
        <time>2012-05-05T08:06:21Z</time>
      </trkpt>
      <trkpt lat="43.98659" lon="7.16305">
        <ele>1028</ele>
        <time>2012-05-05T08:06:27Z</time>
      </trkpt>
      <trkpt lat="43.98659" lon="7.16305">
        <ele>1028</ele>
        <time>2012-05-05T08:06:28Z</time>
      </trkpt>
      <trkpt lat="43.98662" lon="7.16306">
        <ele>1028</ele>
        <time>2012-05-05T08:06:34Z</time>
      </trkpt>
      <trkpt lat="43.98666" lon="7.16313">
        <ele>1028</ele>
        <time>2012-05-05T08:06:40Z</time>
      </trkpt>
      <trkpt lat="43.98669" lon="7.16317">
        <ele>1029.199951172</ele>
        <time>2012-05-05T08:06:44Z</time>
      </trkpt>
      <trkpt lat="43.98672" lon="7.16322">
        <ele>1029.199951172</ele>
        <time>2012-05-05T08:06:48Z</time>
      </trkpt>
      <trkpt lat="43.98674" lon="7.16326">
        <ele>1030.199951172</ele>
        <time>2012-05-05T08:06:51Z</time>
      </trkpt>
      <trkpt lat="43.9868" lon="7.16335">
        <ele>1031.199951172</ele>
        <time>2012-05-05T08:06:58Z</time>
      </trkpt>
      <trkpt lat="43.98684" lon="7.16343">
        <ele>1032.199951172</ele>
        <time>2012-05-05T08:07:04Z</time>
      </trkpt>
      <trkpt lat="43.98684" lon="7.16344">
        <ele>1032.199951172</ele>
        <time>2012-05-05T08:07:05Z</time>
      </trkpt>
      <trkpt lat="43.98686" lon="7.16349">
        <ele>1033.400024414</ele>
        <time>2012-05-05T08:07:08Z</time>
      </trkpt>
      <trkpt lat="43.98687" lon="7.16351">
        <ele>1042.599975586</ele>
        <time>2012-05-05T08:07:10Z</time>
      </trkpt>
      <trkpt lat="43.98688" lon="7.16352">
        <ele>1047.199951172</ele>
        <time>2012-05-05T08:07:11Z</time>
      </trkpt>
      <trkpt lat="43.98688" lon="7.16354">
        <ele>1047.199951172</ele>
        <time>2012-05-05T08:07:12Z</time>
      </trkpt>
      <trkpt lat="43.98689" lon="7.16355">
        <ele>1050.800048828</ele>
        <time>2012-05-05T08:07:13Z</time>
      </trkpt>
      <trkpt lat="43.9869" lon="7.16356">
        <ele>1047.199951172</ele>
        <time>2012-05-05T08:07:14Z</time>
      </trkpt>
      <trkpt lat="43.9869" lon="7.16358">
        <ele>1034.599975586</ele>
        <time>2012-05-05T08:07:15Z</time>
      </trkpt>
      <trkpt lat="43.98694" lon="7.16365">
        <ele>1034.599975586</ele>
        <time>2012-05-05T08:07:21Z</time>
      </trkpt>
      <trkpt lat="43.987" lon="7.16374">
        <ele>1034.599975586</ele>
        <time>2012-05-05T08:07:30Z</time>
      </trkpt>
      <trkpt lat="43.98701" lon="7.16375">
        <ele>1037.599975586</ele>
        <time>2012-05-05T08:07:31Z</time>
      </trkpt>
      <trkpt lat="43.98703" lon="7.16378">
        <ele>1044.400024414</ele>
        <time>2012-05-05T08:07:34Z</time>
      </trkpt>
      <trkpt lat="43.98704" lon="7.16379">
        <ele>1056.800048828</ele>
        <time>2012-05-05T08:07:35Z</time>
      </trkpt>
      <trkpt lat="43.98704" lon="7.16379">
        <ele>1060.800048828</ele>
        <time>2012-05-05T08:07:36Z</time>
      </trkpt>
      <trkpt lat="43.98705" lon="7.1638">
        <ele>1056.400024414</ele>
        <time>2012-05-05T08:07:37Z</time>
      </trkpt>
      <trkpt lat="43.98706" lon="7.16381">
        <ele>1048.800048828</ele>
        <time>2012-05-05T08:07:38Z</time>
      </trkpt>
      <trkpt lat="43.98706" lon="7.16382">
        <ele>1040</ele>
        <time>2012-05-05T08:07:39Z</time>
      </trkpt>
      <trkpt lat="43.98706" lon="7.16381">
        <ele>1031.400024414</ele>
        <time>2012-05-05T08:07:40Z</time>
      </trkpt>
      <trkpt lat="43.98707" lon="7.16383">
        <ele>1040.400024414</ele>
        <time>2012-05-05T08:07:41Z</time>
      </trkpt>
      <trkpt lat="43.98708" lon="7.16385">
        <ele>1040.400024414</ele>
        <time>2012-05-05T08:07:43Z</time>
      </trkpt>
      <trkpt lat="43.98711" lon="7.16387">
        <ele>1042.800048828</ele>
        <time>2012-05-05T08:07:46Z</time>
      </trkpt>
      <trkpt lat="43.98712" lon="7.16388">
        <ele>1042.800048828</ele>
        <time>2012-05-05T08:07:47Z</time>
      </trkpt>
      <trkpt lat="43.98713" lon="7.16389">
        <ele>1038.599975586</ele>
        <time>2012-05-05T08:07:48Z</time>
      </trkpt>
      <trkpt lat="43.98714" lon="7.1639">
        <ele>1036.400024414</ele>
        <time>2012-05-05T08:07:49Z</time>
      </trkpt>
      <trkpt lat="43.98715" lon="7.16391">
        <ele>1038.199951172</ele>
        <time>2012-05-05T08:07:50Z</time>
      </trkpt>
      <trkpt lat="43.98716" lon="7.16392">
        <ele>1039.599975586</ele>
        <time>2012-05-05T08:07:51Z</time>
      </trkpt>
      <trkpt lat="43.98717" lon="7.16393">
        <ele>1033.400024414</ele>
        <time>2012-05-05T08:07:52Z</time>
      </trkpt>
      <trkpt lat="43.98718" lon="7.16395">
        <ele>1030.199951172</ele>
        <time>2012-05-05T08:07:53Z</time>
      </trkpt>
      <trkpt lat="43.98719" lon="7.16396">
        <ele>1033.800048828</ele>
        <time>2012-05-05T08:07:54Z</time>
      </trkpt>
      <trkpt lat="43.98724" lon="7.16407">
        <ele>1033.800048828</ele>
        <time>2012-05-05T08:08:02Z</time>
      </trkpt>
      <trkpt lat="43.98727" lon="7.16418">
        <ele>1036</ele>
        <time>2012-05-05T08:08:09Z</time>
      </trkpt>
      <trkpt lat="43.98728" lon="7.16424">
        <ele>1036</ele>
        <time>2012-05-05T08:08:12Z</time>
      </trkpt>
      <trkpt lat="43.98729" lon="7.16433">
        <ele>1037</ele>
        <time>2012-05-05T08:08:17Z</time>
      </trkpt>
      <trkpt lat="43.98729" lon="7.16442">
        <ele>1037</ele>
        <time>2012-05-05T08:08:22Z</time>
      </trkpt>
      <trkpt lat="43.98729" lon="7.16446">
        <ele>1038</ele>
        <time>2012-05-05T08:08:24Z</time>
      </trkpt>
      <trkpt lat="43.98731" lon="7.16458">
        <ele>1039</ele>
        <time>2012-05-05T08:08:31Z</time>
      </trkpt>
      <trkpt lat="43.98731" lon="7.1646">
        <ele>1039</ele>
        <time>2012-05-05T08:08:32Z</time>
      </trkpt>
      <trkpt lat="43.98732" lon="7.1647">
        <ele>1039</ele>
        <time>2012-05-05T08:08:38Z</time>
      </trkpt>
      <trkpt lat="43.98733" lon="7.16469">
        <ele>1039</ele>
        <time>2012-05-05T08:08:39Z</time>
      </trkpt>
      <trkpt lat="43.98733" lon="7.16471">
        <ele>1040.199951172</ele>
        <time>2012-05-05T08:08:43Z</time>
      </trkpt>
      <trkpt lat="43.98733" lon="7.16471">
        <ele>1040.199951172</ele>
        <time>2012-05-05T08:08:44Z</time>
      </trkpt>
      <trkpt lat="43.98733" lon="7.16471">
        <ele>1040.199951172</ele>
        <time>2012-05-05T08:08:49Z</time>
      </trkpt>
      <trkpt lat="43.98733" lon="7.16471">
        <ele>1040.199951172</ele>
        <time>2012-05-05T08:08:53Z</time>
      </trkpt>
      <trkpt lat="43.98733" lon="7.16471">
        <ele>1040.199951172</ele>
        <time>2012-05-05T08:09:01Z</time>
      </trkpt>
      <trkpt lat="43.98733" lon="7.16471">
        <ele>1041.199951172</ele>
        <time>2012-05-05T08:09:02Z</time>
      </trkpt>
      <trkpt lat="43.98733" lon="7.16471">
        <ele>1041.199951172</ele>
        <time>2012-05-05T08:09:04Z</time>
      </trkpt>
      <trkpt lat="43.98733" lon="7.16471">
        <ele>1041.199951172</ele>
        <time>2012-05-05T08:09:14Z</time>
      </trkpt>
      <trkpt lat="43.98733" lon="7.16471">
        <ele>1041.199951172</ele>
        <time>2012-05-05T08:09:16Z</time>
      </trkpt>
      <trkpt lat="43.98733" lon="7.16471">
        <ele>1041.199951172</ele>
        <time>2012-05-05T08:09:19Z</time>
      </trkpt>
      <trkpt lat="43.98734" lon="7.16471">
        <ele>1041.199951172</ele>
        <time>2012-05-05T08:09:22Z</time>
      </trkpt>
      <trkpt lat="43.98734" lon="7.16471">
        <ele>1041.199951172</ele>
        <time>2012-05-05T08:09:29Z</time>
      </trkpt>
      <trkpt lat="43.98734" lon="7.16472">
        <ele>1043.199951172</ele>
        <time>2012-05-05T08:09:33Z</time>
      </trkpt>
      <trkpt lat="43.98734" lon="7.16473">
        <ele>1043.199951172</ele>
        <time>2012-05-05T08:09:35Z</time>
      </trkpt>
      <trkpt lat="43.98735" lon="7.16479">
        <ele>1043.199951172</ele>
        <time>2012-05-05T08:09:40Z</time>
      </trkpt>
      <trkpt lat="43.98735" lon="7.16479">
        <ele>1044.199951172</ele>
        <time>2012-05-05T08:09:41Z</time>
      </trkpt>
      <trkpt lat="43.98736" lon="7.1648">
        <ele>1044.199951172</ele>
        <time>2012-05-05T08:09:48Z</time>
      </trkpt>
      <trkpt lat="43.98736" lon="7.16483">
        <ele>1045.199951172</ele>
        <time>2012-05-05T08:09:52Z</time>
      </trkpt>
      <trkpt lat="43.98737" lon="7.16487">
        <ele>1045.199951172</ele>
        <time>2012-05-05T08:09:56Z</time>
      </trkpt>
      <trkpt lat="43.98738" lon="7.1649">
        <ele>1045.199951172</ele>
        <time>2012-05-05T08:09:58Z</time>
      </trkpt>
      <trkpt lat="43.98739" lon="7.16497">
        <ele>1045.199951172</ele>
        <time>2012-05-05T08:10:03Z</time>
      </trkpt>
      <trkpt lat="43.98738" lon="7.16496">
        <ele>1045.199951172</ele>
        <time>2012-05-05T08:10:04Z</time>
      </trkpt>
      <trkpt lat="43.98738" lon="7.16498">
        <ele>1040.599975586</ele>
        <time>2012-05-05T08:10:05Z</time>
      </trkpt>
      <trkpt lat="43.98739" lon="7.16504">
        <ele>1045.800048828</ele>
        <time>2012-05-05T08:10:08Z</time>
      </trkpt>
      <trkpt lat="43.98741" lon="7.16516">
        <ele>1045.800048828</ele>
        <time>2012-05-05T08:10:13Z</time>
      </trkpt>
      <trkpt lat="43.98741" lon="7.16521">
        <ele>1047</ele>
        <time>2012-05-05T08:10:15Z</time>
      </trkpt>
      <trkpt lat="43.98741" lon="7.16524">
        <ele>1047</ele>
        <time>2012-05-05T08:10:16Z</time>
      </trkpt>
      <trkpt lat="43.98741" lon="7.16533">
        <ele>1048</ele>
        <time>2012-05-05T08:10:20Z</time>
      </trkpt>
      <trkpt lat="43.9874" lon="7.16543">
        <ele>1049</ele>
        <time>2012-05-05T08:10:24Z</time>
      </trkpt>
      <trkpt lat="43.9874" lon="7.16547">
        <ele>1049</ele>
        <time>2012-05-05T08:10:26Z</time>
      </trkpt>
      <trkpt lat="43.9874" lon="7.16549">
        <ele>1050.199951172</ele>
        <time>2012-05-05T08:10:27Z</time>
      </trkpt>
      <trkpt lat="43.9874" lon="7.16554">
        <ele>1050.199951172</ele>
        <time>2012-05-05T08:10:30Z</time>
      </trkpt>
      <trkpt lat="43.9874" lon="7.16557">
        <ele>1051.199951172</ele>
        <time>2012-05-05T08:10:31Z</time>
      </trkpt>
      <trkpt lat="43.9874" lon="7.16561">
        <ele>1051.199951172</ele>
        <time>2012-05-05T08:10:33Z</time>
      </trkpt>
      <trkpt lat="43.9874" lon="7.16563">
        <ele>1052.199951172</ele>
        <time>2012-05-05T08:10:34Z</time>
      </trkpt>
      <trkpt lat="43.9874" lon="7.16569">
        <ele>1052.199951172</ele>
        <time>2012-05-05T08:10:37Z</time>
      </trkpt>
      <trkpt lat="43.9874" lon="7.16571">
        <ele>1053.400024414</ele>
        <time>2012-05-05T08:10:38Z</time>
      </trkpt>
      <trkpt lat="43.98739" lon="7.16577">
        <ele>1053.400024414</ele>
        <time>2012-05-05T08:10:41Z</time>
      </trkpt>
      <trkpt lat="43.98739" lon="7.16579">
        <ele>1054.400024414</ele>
        <time>2012-05-05T08:10:42Z</time>
      </trkpt>
      <trkpt lat="43.98739" lon="7.16582">
        <ele>1055.599975586</ele>
        <time>2012-05-05T08:10:44Z</time>
      </trkpt>
      <trkpt lat="43.98739" lon="7.16589">
        <ele>1056.800048828</ele>
        <time>2012-05-05T08:10:48Z</time>
      </trkpt>
      <trkpt lat="43.98739" lon="7.16591">
        <ele>1056.800048828</ele>
        <time>2012-05-05T08:10:49Z</time>
      </trkpt>
      <trkpt lat="43.98739" lon="7.16595">
        <ele>1057.800048828</ele>
        <time>2012-05-05T08:10:51Z</time>
      </trkpt>
      <trkpt lat="43.98739" lon="7.16598">
        <ele>1061.800048828</ele>
        <time>2012-05-05T08:10:53Z</time>
      </trkpt>
      <trkpt lat="43.98739" lon="7.16598">
        <ele>1052</ele>
        <time>2012-05-05T08:10:54Z</time>
      </trkpt>
      <trkpt lat="43.98739" lon="7.16598">
        <ele>1039</ele>
        <time>2012-05-05T08:10:55Z</time>
      </trkpt>
      <trkpt lat="43.98739" lon="7.16598">
        <ele>1039</ele>
        <time>2012-05-05T08:10:56Z</time>
      </trkpt>
      <trkpt lat="43.98739" lon="7.16599">
        <ele>1039</ele>
        <time>2012-05-05T08:10:57Z</time>
      </trkpt>
      <trkpt lat="43.98739" lon="7.16604">
        <ele>1039</ele>
        <time>2012-05-05T08:11:02Z</time>
      </trkpt>
      <trkpt lat="43.98739" lon="7.16608">
        <ele>1041</ele>
        <time>2012-05-05T08:11:06Z</time>
      </trkpt>
      <trkpt lat="43.98739" lon="7.16615">
        <ele>1041</ele>
        <time>2012-05-05T08:11:11Z</time>
      </trkpt>
      <trkpt lat="43.98739" lon="7.16617">
        <ele>1042.199951172</ele>
        <time>2012-05-05T08:11:12Z</time>
      </trkpt>
      <trkpt lat="43.98737" lon="7.16628">
        <ele>1042.199951172</ele>
        <time>2012-05-05T08:11:20Z</time>
      </trkpt>
      <trkpt lat="43.98736" lon="7.16632">
        <ele>1043.199951172</ele>
        <time>2012-05-05T08:11:23Z</time>
      </trkpt>
      <trkpt lat="43.98736" lon="7.16633">
        <ele>1043.199951172</ele>
        <time>2012-05-05T08:11:27Z</time>
      </trkpt>
      <trkpt lat="43.98735" lon="7.16638">
        <ele>1043.199951172</ele>
        <time>2012-05-05T08:11:37Z</time>
      </trkpt>
      <trkpt lat="43.98732" lon="7.16645">
        <ele>1044.199951172</ele>
        <time>2012-05-05T08:11:41Z</time>
      </trkpt>
      <trkpt lat="43.98729" lon="7.16652">
        <ele>1044.199951172</ele>
        <time>2012-05-05T08:11:45Z</time>
      </trkpt>
      <trkpt lat="43.98728" lon="7.16658">
        <ele>1045.199951172</ele>
        <time>2012-05-05T08:11:48Z</time>
      </trkpt>
      <trkpt lat="43.98725" lon="7.16666">
        <ele>1045.199951172</ele>
        <time>2012-05-05T08:11:53Z</time>
      </trkpt>
      <trkpt lat="43.98724" lon="7.1667">
        <ele>1046.199951172</ele>
        <time>2012-05-05T08:11:55Z</time>
      </trkpt>
      <trkpt lat="43.98722" lon="7.1668">
        <ele>1046.199951172</ele>
        <time>2012-05-05T08:12:00Z</time>
      </trkpt>
      <trkpt lat="43.98722" lon="7.16683">
        <ele>1047.400024414</ele>
        <time>2012-05-05T08:12:01Z</time>
      </trkpt>
      <trkpt lat="43.98719" lon="7.16692">
        <ele>1048.400024414</ele>
        <time>2012-05-05T08:12:06Z</time>
      </trkpt>
      <trkpt lat="43.98717" lon="7.16695">
        <ele>1048.400024414</ele>
        <time>2012-05-05T08:12:08Z</time>
      </trkpt>
      <trkpt lat="43.98713" lon="7.1671">
        <ele>1048.400024414</ele>
        <time>2012-05-05T08:12:16Z</time>
      </trkpt>
      <trkpt lat="43.98708" lon="7.16722">
        <ele>1050.400024414</ele>
        <time>2012-05-05T08:12:22Z</time>
      </trkpt>
      <trkpt lat="43.98706" lon="7.16729">
        <ele>1051.400024414</ele>
        <time>2012-05-05T08:12:26Z</time>
      </trkpt>
      <trkpt lat="43.98704" lon="7.16738">
        <ele>1052.400024414</ele>
        <time>2012-05-05T08:12:31Z</time>
      </trkpt>
      <trkpt lat="43.98702" lon="7.16741">
        <ele>1053.599975586</ele>
        <time>2012-05-05T08:12:33Z</time>
      </trkpt>
      <trkpt lat="43.98702" lon="7.16742">
        <ele>1061.199951172</ele>
        <time>2012-05-05T08:12:34Z</time>
      </trkpt>
      <trkpt lat="43.98702" lon="7.16744">
        <ele>1062.199951172</ele>
        <time>2012-05-05T08:12:35Z</time>
      </trkpt>
      <trkpt lat="43.98701" lon="7.16746">
        <ele>1058.800048828</ele>
        <time>2012-05-05T08:12:36Z</time>
      </trkpt>
      <trkpt lat="43.98701" lon="7.16748">
        <ele>1054.800048828</ele>
        <time>2012-05-05T08:12:37Z</time>
      </trkpt>
      <trkpt lat="43.987" lon="7.1675">
        <ele>1048.800048828</ele>
        <time>2012-05-05T08:12:38Z</time>
      </trkpt>
      <trkpt lat="43.987" lon="7.16752">
        <ele>1043</ele>
        <time>2012-05-05T08:12:39Z</time>
      </trkpt>
      <trkpt lat="43.987" lon="7.16753">
        <ele>1042.800048828</ele>
        <time>2012-05-05T08:12:40Z</time>
      </trkpt>
      <trkpt lat="43.98699" lon="7.16755">
        <ele>1048.800048828</ele>
        <time>2012-05-05T08:12:41Z</time>
      </trkpt>
      <trkpt lat="43.98698" lon="7.16757">
        <ele>1054</ele>
        <time>2012-05-05T08:12:42Z</time>
      </trkpt>
      <trkpt lat="43.98698" lon="7.16758">
        <ele>1051.800048828</ele>
        <time>2012-05-05T08:12:43Z</time>
      </trkpt>
      <trkpt lat="43.98697" lon="7.1676">
        <ele>1049</ele>
        <time>2012-05-05T08:12:44Z</time>
      </trkpt>
      <trkpt lat="43.98691" lon="7.16773">
        <ele>1049</ele>
        <time>2012-05-05T08:12:51Z</time>
      </trkpt>
      <trkpt lat="43.98686" lon="7.16785">
        <ele>1051.400024414</ele>
        <time>2012-05-05T08:12:58Z</time>
      </trkpt>
      <trkpt lat="43.98686" lon="7.16787">
        <ele>1051.400024414</ele>
        <time>2012-05-05T08:12:59Z</time>
      </trkpt>
      <trkpt lat="43.98683" lon="7.16792">
        <ele>1051.400024414</ele>
        <time>2012-05-05T08:13:02Z</time>
      </trkpt>
      <trkpt lat="43.98681" lon="7.16793">
        <ele>1052.400024414</ele>
        <time>2012-05-05T08:13:03Z</time>
      </trkpt>
      <trkpt lat="43.98679" lon="7.16795">
        <ele>1052.400024414</ele>
        <time>2012-05-05T08:13:05Z</time>
      </trkpt>
      <trkpt lat="43.98669" lon="7.16803">
        <ele>1052.400024414</ele>
        <time>2012-05-05T08:13:12Z</time>
      </trkpt>
      <trkpt lat="43.98658" lon="7.16809">
        <ele>1052.400024414</ele>
        <time>2012-05-05T08:13:18Z</time>
      </trkpt>
      <trkpt lat="43.98651" lon="7.16812">
        <ele>1053.400024414</ele>
        <time>2012-05-05T08:13:22Z</time>
      </trkpt>
      <trkpt lat="43.98642" lon="7.16814">
        <ele>1053.400024414</ele>
        <time>2012-05-05T08:13:26Z</time>
      </trkpt>
      <trkpt lat="43.98638" lon="7.16815">
        <ele>1054.400024414</ele>
        <time>2012-05-05T08:13:28Z</time>
      </trkpt>
      <trkpt lat="43.98633" lon="7.16818">
        <ele>1054.400024414</ele>
        <time>2012-05-05T08:13:33Z</time>
      </trkpt>
      <trkpt lat="43.98632" lon="7.16817">
        <ele>1054.400024414</ele>
        <time>2012-05-05T08:13:39Z</time>
      </trkpt>
      <trkpt lat="43.98632" lon="7.16817">
        <ele>1055.400024414</ele>
        <time>2012-05-05T08:13:43Z</time>
      </trkpt>
      <trkpt lat="43.98632" lon="7.16818">
        <ele>1055.400024414</ele>
        <time>2012-05-05T08:13:48Z</time>
      </trkpt>
      <trkpt lat="43.98632" lon="7.16818">
        <ele>1055.400024414</ele>
        <time>2012-05-05T08:13:55Z</time>
      </trkpt>
      <trkpt lat="43.98632" lon="7.16819">
        <ele>1055.400024414</ele>
        <time>2012-05-05T08:14:03Z</time>
      </trkpt>
      <trkpt lat="43.98632" lon="7.16818">
        <ele>1055.400024414</ele>
        <time>2012-05-05T08:14:04Z</time>
      </trkpt>
      <trkpt lat="43.98633" lon="7.16818">
        <ele>1055.400024414</ele>
        <time>2012-05-05T08:14:09Z</time>
      </trkpt>
      <trkpt lat="43.98632" lon="7.16818">
        <ele>1051.599975586</ele>
        <time>2012-05-05T08:14:10Z</time>
      </trkpt>
      <trkpt lat="43.98632" lon="7.16817">
        <ele>1057.800048828</ele>
        <time>2012-05-05T08:14:11Z</time>
      </trkpt>
      <trkpt lat="43.98631" lon="7.16817">
        <ele>1057.800048828</ele>
        <time>2012-05-05T08:14:14Z</time>
      </trkpt>
      <trkpt lat="43.98625" lon="7.1682">
        <ele>1057.800048828</ele>
        <time>2012-05-05T08:14:18Z</time>
      </trkpt>
      <trkpt lat="43.98613" lon="7.16821">
        <ele>1059.800048828</ele>
        <time>2012-05-05T08:14:24Z</time>
      </trkpt>
      <trkpt lat="43.98611" lon="7.16822">
        <ele>1059.800048828</ele>
        <time>2012-05-05T08:14:25Z</time>
      </trkpt>
      <trkpt lat="43.98602" lon="7.16824">
        <ele>1060.800048828</ele>
        <time>2012-05-05T08:14:31Z</time>
      </trkpt>
      <trkpt lat="43.98603" lon="7.16824">
        <ele>1060.800048828</ele>
        <time>2012-05-05T08:14:32Z</time>
      </trkpt>
      <trkpt lat="43.98599" lon="7.16825">
        <ele>1060.800048828</ele>
        <time>2012-05-05T08:14:38Z</time>
      </trkpt>
      <trkpt lat="43.98594" lon="7.16831">
        <ele>1060.800048828</ele>
        <time>2012-05-05T08:14:43Z</time>
      </trkpt>
      <trkpt lat="43.98594" lon="7.16844">
        <ele>1060.800048828</ele>
        <time>2012-05-05T08:14:50Z</time>
      </trkpt>
      <trkpt lat="43.986" lon="7.16872">
        <ele>1060.800048828</ele>
        <time>2012-05-05T08:14:57Z</time>
      </trkpt>
      <trkpt lat="43.986" lon="7.1691">
        <ele>1060.800048828</ele>
        <time>2012-05-05T08:15:05Z</time>
      </trkpt>
      <trkpt lat="43.98597" lon="7.1694">
        <ele>1060.800048828</ele>
        <time>2012-05-05T08:15:11Z</time>
      </trkpt>
      <trkpt lat="43.98596" lon="7.16944">
        <ele>1060.800048828</ele>
        <time>2012-05-05T08:15:12Z</time>
      </trkpt>
      <trkpt lat="43.9859" lon="7.16961">
        <ele>1061.800048828</ele>
        <time>2012-05-05T08:15:16Z</time>
      </trkpt>
      <trkpt lat="43.98582" lon="7.16978">
        <ele>1061.800048828</ele>
        <time>2012-05-05T08:15:20Z</time>
      </trkpt>
      <trkpt lat="43.9858" lon="7.16981">
        <ele>1064.599975586</ele>
        <time>2012-05-05T08:15:21Z</time>
      </trkpt>
      <trkpt lat="43.98577" lon="7.16988">
        <ele>1070.800048828</ele>
        <time>2012-05-05T08:15:23Z</time>
      </trkpt>
      <trkpt lat="43.98575" lon="7.1699">
        <ele>1073.800048828</ele>
        <time>2012-05-05T08:15:24Z</time>
      </trkpt>
      <trkpt lat="43.98573" lon="7.16994">
        <ele>1064</ele>
        <time>2012-05-05T08:15:25Z</time>
      </trkpt>
      <trkpt lat="43.98571" lon="7.16998">
        <ele>1064</ele>
        <time>2012-05-05T08:15:26Z</time>
      </trkpt>
      <trkpt lat="43.98569" lon="7.17001">
        <ele>1063</ele>
        <time>2012-05-05T08:15:27Z</time>
      </trkpt>
      <trkpt lat="43.98556" lon="7.17024">
        <ele>1063</ele>
        <time>2012-05-05T08:15:34Z</time>
      </trkpt>
      <trkpt lat="43.98552" lon="7.17029">
        <ele>1065</ele>
        <time>2012-05-05T08:15:36Z</time>
      </trkpt>
      <trkpt lat="43.98543" lon="7.17039">
        <ele>1065</ele>
        <time>2012-05-05T08:15:41Z</time>
      </trkpt>
      <trkpt lat="43.98542" lon="7.1704">
        <ele>1066</ele>
        <time>2012-05-05T08:15:42Z</time>
      </trkpt>
      <trkpt lat="43.98536" lon="7.17044">
        <ele>1067.199951172</ele>
        <time>2012-05-05T08:15:46Z</time>
      </trkpt>
      <trkpt lat="43.98535" lon="7.17045">
        <ele>1067.199951172</ele>
        <time>2012-05-05T08:15:47Z</time>
      </trkpt>
      <trkpt lat="43.98529" lon="7.17049">
        <ele>1068.400024414</ele>
        <time>2012-05-05T08:15:51Z</time>
      </trkpt>
      <trkpt lat="43.98524" lon="7.17051">
        <ele>1069.400024414</ele>
        <time>2012-05-05T08:15:54Z</time>
      </trkpt>
      <trkpt lat="43.9852" lon="7.17056">
        <ele>1069.400024414</ele>
        <time>2012-05-05T08:15:58Z</time>
      </trkpt>
      <trkpt lat="43.98517" lon="7.17059">
        <ele>1070.400024414</ele>
        <time>2012-05-05T08:16:00Z</time>
      </trkpt>
      <trkpt lat="43.98516" lon="7.17061">
        <ele>1070.400024414</ele>
        <time>2012-05-05T08:16:01Z</time>
      </trkpt>
      <trkpt lat="43.9851" lon="7.17073">
        <ele>1070.400024414</ele>
        <time>2012-05-05T08:16:06Z</time>
      </trkpt>
      <trkpt lat="43.98504" lon="7.1708">
        <ele>1070.400024414</ele>
        <time>2012-05-05T08:16:10Z</time>
      </trkpt>
      <trkpt lat="43.98497" lon="7.17088">
        <ele>1071.400024414</ele>
        <time>2012-05-05T08:16:14Z</time>
      </trkpt>
      <trkpt lat="43.98489" lon="7.17098">
        <ele>1071.400024414</ele>
        <time>2012-05-05T08:16:19Z</time>
      </trkpt>
      <trkpt lat="43.98481" lon="7.17106">
        <ele>1072.400024414</ele>
        <time>2012-05-05T08:16:24Z</time>
      </trkpt>
      <trkpt lat="43.98474" lon="7.17109">
        <ele>1072.400024414</ele>
        <time>2012-05-05T08:16:28Z</time>
      </trkpt>
      <trkpt lat="43.98462" lon="7.17113">
        <ele>1073.599975586</ele>
        <time>2012-05-05T08:16:35Z</time>
      </trkpt>
      <trkpt lat="43.9846" lon="7.17114">
        <ele>1073.599975586</ele>
        <time>2012-05-05T08:16:36Z</time>
      </trkpt>
      <trkpt lat="43.98452" lon="7.17118">
        <ele>1074.599975586</ele>
        <time>2012-05-05T08:16:42Z</time>
      </trkpt>
      <trkpt lat="43.98448" lon="7.1712">
        <ele>1074.599975586</ele>
        <time>2012-05-05T08:16:45Z</time>
      </trkpt>
      <trkpt lat="43.98447" lon="7.17121">
        <ele>1075.599975586</ele>
        <time>2012-05-05T08:16:46Z</time>
      </trkpt>
      <trkpt lat="43.98443" lon="7.17126">
        <ele>1076.800048828</ele>
        <time>2012-05-05T08:16:50Z</time>
      </trkpt>
      <trkpt lat="43.98442" lon="7.17129">
        <ele>1076.800048828</ele>
        <time>2012-05-05T08:16:52Z</time>
      </trkpt>
      <trkpt lat="43.98441" lon="7.17136">
        <ele>1077.800048828</ele>
        <time>2012-05-05T08:16:55Z</time>
      </trkpt>
      <trkpt lat="43.98441" lon="7.17142">
        <ele>1077.800048828</ele>
        <time>2012-05-05T08:16:58Z</time>
      </trkpt>
      <trkpt lat="43.98442" lon="7.17148">
        <ele>1078.800048828</ele>
        <time>2012-05-05T08:17:01Z</time>
      </trkpt>
      <trkpt lat="43.98446" lon="7.1716">
        <ele>1078.800048828</ele>
        <time>2012-05-05T08:17:07Z</time>
      </trkpt>
      <trkpt lat="43.98453" lon="7.17171">
        <ele>1078.800048828</ele>
        <time>2012-05-05T08:17:14Z</time>
      </trkpt>
      <trkpt lat="43.98459" lon="7.17182">
        <ele>1078.800048828</ele>
        <time>2012-05-05T08:17:21Z</time>
      </trkpt>
      <trkpt lat="43.98465" lon="7.17195">
        <ele>1078.800048828</ele>
        <time>2012-05-05T08:17:29Z</time>
      </trkpt>
      <trkpt lat="43.98476" lon="7.17209">
        <ele>1078.800048828</ele>
        <time>2012-05-05T08:17:40Z</time>
      </trkpt>
      <trkpt lat="43.98485" lon="7.17222">
        <ele>1078.800048828</ele>
        <time>2012-05-05T08:17:50Z</time>
      </trkpt>
      <trkpt lat="43.98488" lon="7.17229">
        <ele>1078.800048828</ele>
        <time>2012-05-05T08:17:55Z</time>
      </trkpt>
      <trkpt lat="43.98485" lon="7.17236">
        <ele>1078.800048828</ele>
        <time>2012-05-05T08:17:57Z</time>
      </trkpt>
      <trkpt lat="43.98481" lon="7.17244">
        <ele>1080</ele>
        <time>2012-05-05T08:17:59Z</time>
      </trkpt>
      <trkpt lat="43.98482" lon="7.17247">
        <ele>1080</ele>
        <time>2012-05-05T08:18:01Z</time>
      </trkpt>
      <trkpt lat="43.98483" lon="7.17249">
        <ele>1081.199951172</ele>
        <time>2012-05-05T08:18:02Z</time>
      </trkpt>
      <trkpt lat="43.98486" lon="7.17251">
        <ele>1081.199951172</ele>
        <time>2012-05-05T08:18:05Z</time>
      </trkpt>
      <trkpt lat="43.98488" lon="7.17253">
        <ele>1081.199951172</ele>
        <time>2012-05-05T08:18:07Z</time>
      </trkpt>
      <trkpt lat="43.98488" lon="7.17252">
        <ele>1082.199951172</ele>
        <time>2012-05-05T08:18:09Z</time>
      </trkpt>
      <trkpt lat="43.98489" lon="7.17254">
        <ele>1082.199951172</ele>
        <time>2012-05-05T08:18:11Z</time>
      </trkpt>
      <trkpt lat="43.98489" lon="7.17255">
        <ele>1082.199951172</ele>
        <time>2012-05-05T08:18:12Z</time>
      </trkpt>
      <trkpt lat="43.98492" lon="7.17259">
        <ele>1082.199951172</ele>
        <time>2012-05-05T08:18:16Z</time>
      </trkpt>
      <trkpt lat="43.98494" lon="7.17261">
        <ele>1083.199951172</ele>
        <time>2012-05-05T08:18:19Z</time>
      </trkpt>
      <trkpt lat="43.98495" lon="7.17262">
        <ele>1083.199951172</ele>
        <time>2012-05-05T08:18:22Z</time>
      </trkpt>
      <trkpt lat="43.98498" lon="7.17266">
        <ele>1084.400024414</ele>
        <time>2012-05-05T08:18:27Z</time>
      </trkpt>
      <trkpt lat="43.98499" lon="7.17266">
        <ele>1084.400024414</ele>
        <time>2012-05-05T08:18:30Z</time>
      </trkpt>
      <trkpt lat="43.98499" lon="7.17266">
        <ele>1085.400024414</ele>
        <time>2012-05-05T08:18:31Z</time>
      </trkpt>
      <trkpt lat="43.98499" lon="7.1727">
        <ele>1085.400024414</ele>
        <time>2012-05-05T08:18:34Z</time>
      </trkpt>
      <trkpt lat="43.98499" lon="7.1727">
        <ele>1086.400024414</ele>
        <time>2012-05-05T08:18:36Z</time>
      </trkpt>
      <trkpt lat="43.98499" lon="7.17271">
        <ele>1086.400024414</ele>
        <time>2012-05-05T08:18:41Z</time>
      </trkpt>
      <trkpt lat="43.985" lon="7.17272">
        <ele>1086.400024414</ele>
        <time>2012-05-05T08:18:46Z</time>
      </trkpt>
      <trkpt lat="43.985" lon="7.17277">
        <ele>1086.400024414</ele>
        <time>2012-05-05T08:18:49Z</time>
      </trkpt>
      <trkpt lat="43.98501" lon="7.17278">
        <ele>1087.400024414</ele>
        <time>2012-05-05T08:18:50Z</time>
      </trkpt>
      <trkpt lat="43.985" lon="7.17279">
        <ele>1087.400024414</ele>
        <time>2012-05-05T08:18:51Z</time>
      </trkpt>
      <trkpt lat="43.98501" lon="7.17283">
        <ele>1088.400024414</ele>
        <time>2012-05-05T08:18:54Z</time>
      </trkpt>
      <trkpt lat="43.98502" lon="7.17284">
        <ele>1088.400024414</ele>
        <time>2012-05-05T08:18:57Z</time>
      </trkpt>
      <trkpt lat="43.98502" lon="7.17284">
        <ele>1089.400024414</ele>
        <time>2012-05-05T08:19:02Z</time>
      </trkpt>
      <trkpt lat="43.98503" lon="7.17285">
        <ele>1089.400024414</ele>
        <time>2012-05-05T08:19:03Z</time>
      </trkpt>
      <trkpt lat="43.98502" lon="7.17284">
        <ele>1090.599975586</ele>
        <time>2012-05-05T08:19:09Z</time>
      </trkpt>
      <trkpt lat="43.98502" lon="7.17285">
        <ele>1090.599975586</ele>
        <time>2012-05-05T08:19:10Z</time>
      </trkpt>
      <trkpt lat="43.98502" lon="7.17284">
        <ele>1090.599975586</ele>
        <time>2012-05-05T08:19:17Z</time>
      </trkpt>
      <trkpt lat="43.98502" lon="7.17283">
        <ele>1090.599975586</ele>
        <time>2012-05-05T08:19:23Z</time>
      </trkpt>
      <trkpt lat="43.985" lon="7.17277">
        <ele>1090.599975586</ele>
        <time>2012-05-05T08:19:27Z</time>
      </trkpt>
      <trkpt lat="43.98502" lon="7.17273">
        <ele>1090.599975586</ele>
        <time>2012-05-05T08:19:32Z</time>
      </trkpt>
      <trkpt lat="43.985" lon="7.17269">
        <ele>1090.599975586</ele>
        <time>2012-05-05T08:19:39Z</time>
      </trkpt>
      <trkpt lat="43.98499" lon="7.17266">
        <ele>1088.400024414</ele>
        <time>2012-05-05T08:19:42Z</time>
      </trkpt>
      <trkpt lat="43.98498" lon="7.17266">
        <ele>1088.400024414</ele>
        <time>2012-05-05T08:19:45Z</time>
      </trkpt>
      <trkpt lat="43.985" lon="7.17269">
        <ele>1096.800048828</ele>
        <time>2012-05-05T08:19:49Z</time>
      </trkpt>
      <trkpt lat="43.985" lon="7.1727">
        <ele>1111.400024414</ele>
        <time>2012-05-05T08:19:50Z</time>
      </trkpt>
      <trkpt lat="43.98501" lon="7.17271">
        <ele>1102.199951172</ele>
        <time>2012-05-05T08:19:51Z</time>
      </trkpt>
      <trkpt lat="43.98501" lon="7.17271">
        <ele>1097.400024414</ele>
        <time>2012-05-05T08:19:52Z</time>
      </trkpt>
      <trkpt lat="43.98503" lon="7.17269">
        <ele>1097.400024414</ele>
        <time>2012-05-05T08:19:59Z</time>
      </trkpt>
      <trkpt lat="43.98504" lon="7.17266">
        <ele>1099.599975586</ele>
        <time>2012-05-05T08:20:02Z</time>
      </trkpt>
      <trkpt lat="43.98506" lon="7.17264">
        <ele>1100.599975586</ele>
        <time>2012-05-05T08:20:07Z</time>
      </trkpt>
      <trkpt lat="43.98507" lon="7.1726">
        <ele>1101.800048828</ele>
        <time>2012-05-05T08:20:11Z</time>
      </trkpt>
      <trkpt lat="43.98509" lon="7.17258">
        <ele>1102.800048828</ele>
        <time>2012-05-05T08:20:16Z</time>
      </trkpt>
      <trkpt lat="43.98509" lon="7.17259">
        <ele>1102.800048828</ele>
        <time>2012-05-05T08:20:21Z</time>
      </trkpt>
      <trkpt lat="43.98507" lon="7.17258">
        <ele>1102.800048828</ele>
        <time>2012-05-05T08:20:29Z</time>
      </trkpt>
      <trkpt lat="43.98507" lon="7.17259">
        <ele>1102.800048828</ele>
        <time>2012-05-05T08:20:34Z</time>
      </trkpt>
      <trkpt lat="43.98507" lon="7.17259">
        <ele>1102.800048828</ele>
        <time>2012-05-05T08:20:42Z</time>
      </trkpt>
      <trkpt lat="43.98507" lon="7.17258">
        <ele>1102.800048828</ele>
        <time>2012-05-05T08:20:48Z</time>
      </trkpt>
      <trkpt lat="43.98508" lon="7.17258">
        <ele>1103.800048828</ele>
        <time>2012-05-05T08:20:53Z</time>
      </trkpt>
      <trkpt lat="43.98508" lon="7.17256">
        <ele>1103.800048828</ele>
        <time>2012-05-05T08:20:54Z</time>
      </trkpt>
      <trkpt lat="43.98508" lon="7.17257">
        <ele>1103.800048828</ele>
        <time>2012-05-05T08:20:57Z</time>
      </trkpt>
      <trkpt lat="43.98509" lon="7.17258">
        <ele>1103.800048828</ele>
        <time>2012-05-05T08:21:02Z</time>
      </trkpt>
      <trkpt lat="43.98509" lon="7.17259">
        <ele>1103.800048828</ele>
        <time>2012-05-05T08:21:04Z</time>
      </trkpt>
      <trkpt lat="43.98511" lon="7.17259">
        <ele>1098.199951172</ele>
        <time>2012-05-05T08:21:07Z</time>
      </trkpt>
      <trkpt lat="43.98511" lon="7.17259">
        <ele>1102.800048828</ele>
        <time>2012-05-05T08:21:08Z</time>
      </trkpt>
      <trkpt lat="43.98515" lon="7.17261">
        <ele>1102.800048828</ele>
        <time>2012-05-05T08:21:16Z</time>
      </trkpt>
      <trkpt lat="43.98519" lon="7.17259">
        <ele>1102.800048828</ele>
        <time>2012-05-05T08:21:22Z</time>
      </trkpt>
      <trkpt lat="43.98523" lon="7.17258">
        <ele>1102.800048828</ele>
        <time>2012-05-05T08:21:29Z</time>
      </trkpt>
      <trkpt lat="43.98522" lon="7.17259">
        <ele>1104.800048828</ele>
        <time>2012-05-05T08:21:30Z</time>
      </trkpt>
      <trkpt lat="43.98524" lon="7.17262">
        <ele>1104.800048828</ele>
        <time>2012-05-05T08:21:35Z</time>
      </trkpt>
      <trkpt lat="43.98525" lon="7.17264">
        <ele>1105.800048828</ele>
        <time>2012-05-05T08:21:37Z</time>
      </trkpt>
      <trkpt lat="43.98523" lon="7.1727">
        <ele>1105.800048828</ele>
        <time>2012-05-05T08:21:43Z</time>
      </trkpt>
      <trkpt lat="43.98523" lon="7.17273">
        <ele>1107</ele>
        <time>2012-05-05T08:21:48Z</time>
      </trkpt>
      <trkpt lat="43.98523" lon="7.17272">
        <ele>1107</ele>
        <time>2012-05-05T08:21:49Z</time>
      </trkpt>
      <trkpt lat="43.98523" lon="7.17278">
        <ele>1108.199951172</ele>
        <time>2012-05-05T08:21:55Z</time>
      </trkpt>
      <trkpt lat="43.98523" lon="7.17279">
        <ele>1108.199951172</ele>
        <time>2012-05-05T08:21:56Z</time>
      </trkpt>
      <trkpt lat="43.98526" lon="7.17277">
        <ele>1108.199951172</ele>
        <time>2012-05-05T08:22:01Z</time>
      </trkpt>
      <trkpt lat="43.98527" lon="7.17277">
        <ele>1109.199951172</ele>
        <time>2012-05-05T08:22:02Z</time>
      </trkpt>
      <trkpt lat="43.98527" lon="7.17282">
        <ele>1110.199951172</ele>
        <time>2012-05-05T08:22:06Z</time>
      </trkpt>
      <trkpt lat="43.98525" lon="7.17285">
        <ele>1111.400024414</ele>
        <time>2012-05-05T08:22:12Z</time>
      </trkpt>
      <trkpt lat="43.98525" lon="7.17286">
        <ele>1111.400024414</ele>
        <time>2012-05-05T08:22:13Z</time>
      </trkpt>
      <trkpt lat="43.98523" lon="7.17291">
        <ele>1111.400024414</ele>
        <time>2012-05-05T08:22:19Z</time>
      </trkpt>
      <trkpt lat="43.98524" lon="7.17296">
        <ele>1112.599975586</ele>
        <time>2012-05-05T08:22:25Z</time>
      </trkpt>
      <trkpt lat="43.98524" lon="7.17298">
        <ele>1113.599975586</ele>
        <time>2012-05-05T08:22:28Z</time>
      </trkpt>
      <trkpt lat="43.98523" lon="7.17302">
        <ele>1114.599975586</ele>
        <time>2012-05-05T08:22:32Z</time>
      </trkpt>
      <trkpt lat="43.98521" lon="7.17308">
        <ele>1115.599975586</ele>
        <time>2012-05-05T08:22:37Z</time>
      </trkpt>
      <trkpt lat="43.9852" lon="7.17312">
        <ele>1115.599975586</ele>
        <time>2012-05-05T08:22:40Z</time>
      </trkpt>
      <trkpt lat="43.9852" lon="7.17313">
        <ele>1115.599975586</ele>
        <time>2012-05-05T08:22:41Z</time>
      </trkpt>
      <trkpt lat="43.9852" lon="7.17317">
        <ele>1116.800048828</ele>
        <time>2012-05-05T08:22:44Z</time>
      </trkpt>
      <trkpt lat="43.9852" lon="7.17316">
        <ele>1116.800048828</ele>
        <time>2012-05-05T08:22:46Z</time>
      </trkpt>
      <trkpt lat="43.9852" lon="7.17314">
        <ele>1118</ele>
        <time>2012-05-05T08:22:50Z</time>
      </trkpt>
      <trkpt lat="43.98521" lon="7.1731">
        <ele>1118</ele>
        <time>2012-05-05T08:22:57Z</time>
      </trkpt>
      <trkpt lat="43.98521" lon="7.17309">
        <ele>1118</ele>
        <time>2012-05-05T08:23:02Z</time>
      </trkpt>
      <trkpt lat="43.98521" lon="7.1731">
        <ele>1119</ele>
        <time>2012-05-05T08:23:06Z</time>
      </trkpt>
      <trkpt lat="43.98521" lon="7.1731">
        <ele>1119</ele>
        <time>2012-05-05T08:23:09Z</time>
      </trkpt>
      <trkpt lat="43.98521" lon="7.1731">
        <ele>1119</ele>
        <time>2012-05-05T08:23:11Z</time>
      </trkpt>
      <trkpt lat="43.98521" lon="7.1731">
        <ele>1119</ele>
        <time>2012-05-05T08:23:16Z</time>
      </trkpt>
      <trkpt lat="43.98521" lon="7.17317">
        <ele>1119</ele>
        <time>2012-05-05T08:23:21Z</time>
      </trkpt>
      <trkpt lat="43.9852" lon="7.17318">
        <ele>1119</ele>
        <time>2012-05-05T08:23:25Z</time>
      </trkpt>
      <trkpt lat="43.9852" lon="7.17321">
        <ele>1120</ele>
        <time>2012-05-05T08:23:28Z</time>
      </trkpt>
      <trkpt lat="43.98518" lon="7.17324">
        <ele>1120</ele>
        <time>2012-05-05T08:23:30Z</time>
      </trkpt>
      <trkpt lat="43.98512" lon="7.17333">
        <ele>1120</ele>
        <time>2012-05-05T08:23:37Z</time>
      </trkpt>
      <trkpt lat="43.9851" lon="7.17336">
        <ele>1120</ele>
        <time>2012-05-05T08:23:39Z</time>
      </trkpt>
      <trkpt lat="43.98509" lon="7.1734">
        <ele>1121.199951172</ele>
        <time>2012-05-05T08:23:42Z</time>
      </trkpt>
      <trkpt lat="43.98507" lon="7.17347">
        <ele>1121.199951172</ele>
        <time>2012-05-05T08:23:47Z</time>
      </trkpt>
      <trkpt lat="43.98507" lon="7.17355">
        <ele>1121.199951172</ele>
        <time>2012-05-05T08:23:53Z</time>
      </trkpt>
      <trkpt lat="43.98507" lon="7.17357">
        <ele>1122.199951172</ele>
        <time>2012-05-05T08:23:54Z</time>
      </trkpt>
      <trkpt lat="43.98505" lon="7.17364">
        <ele>1122.199951172</ele>
        <time>2012-05-05T08:24:00Z</time>
      </trkpt>
      <trkpt lat="43.98505" lon="7.17367">
        <ele>1123.199951172</ele>
        <time>2012-05-05T08:24:02Z</time>
      </trkpt>
      <trkpt lat="43.98503" lon="7.17375">
        <ele>1123.199951172</ele>
        <time>2012-05-05T08:24:10Z</time>
      </trkpt>
      <trkpt lat="43.98502" lon="7.1738">
        <ele>1124.199951172</ele>
        <time>2012-05-05T08:24:15Z</time>
      </trkpt>
      <trkpt lat="43.98501" lon="7.17383">
        <ele>1124.199951172</ele>
        <time>2012-05-05T08:24:18Z</time>
      </trkpt>
      <trkpt lat="43.98501" lon="7.17386">
        <ele>1125.400024414</ele>
        <time>2012-05-05T08:24:21Z</time>
      </trkpt>
      <trkpt lat="43.985" lon="7.17388">
        <ele>1125.400024414</ele>
        <time>2012-05-05T08:24:24Z</time>
      </trkpt>
      <trkpt lat="43.985" lon="7.1739">
        <ele>1126.400024414</ele>
        <time>2012-05-05T08:24:29Z</time>
      </trkpt>
      <trkpt lat="43.985" lon="7.1739">
        <ele>1126.400024414</ele>
        <time>2012-05-05T08:24:32Z</time>
      </trkpt>
      <trkpt lat="43.985" lon="7.17391">
        <ele>1126.400024414</ele>
        <time>2012-05-05T08:24:41Z</time>
      </trkpt>
      <trkpt lat="43.985" lon="7.17391">
        <ele>1127.400024414</ele>
        <time>2012-05-05T08:24:49Z</time>
      </trkpt>
      <trkpt lat="43.985" lon="7.17392">
        <ele>1128.400024414</ele>
        <time>2012-05-05T08:24:56Z</time>
      </trkpt>
      <trkpt lat="43.985" lon="7.17392">
        <ele>1128.400024414</ele>
        <time>2012-05-05T08:24:58Z</time>
      </trkpt>
      <trkpt lat="43.985" lon="7.17392">
        <ele>1128.400024414</ele>
        <time>2012-05-05T08:25:03Z</time>
      </trkpt>
      <trkpt lat="43.985" lon="7.17393">
        <ele>1128.400024414</ele>
        <time>2012-05-05T08:25:07Z</time>
      </trkpt>
      <trkpt lat="43.985" lon="7.17393">
        <ele>1128.400024414</ele>
        <time>2012-05-05T08:25:12Z</time>
      </trkpt>
      <trkpt lat="43.985" lon="7.17393">
        <ele>1128.400024414</ele>
        <time>2012-05-05T08:25:15Z</time>
      </trkpt>
      <trkpt lat="43.985" lon="7.17392">
        <ele>1128.400024414</ele>
        <time>2012-05-05T08:25:18Z</time>
      </trkpt>
      <trkpt lat="43.98499" lon="7.17391">
        <ele>1128.400024414</ele>
        <time>2012-05-05T08:25:23Z</time>
      </trkpt>
      <trkpt lat="43.98499" lon="7.17393">
        <ele>1128.400024414</ele>
        <time>2012-05-05T08:25:28Z</time>
      </trkpt>
      <trkpt lat="43.985" lon="7.17394">
        <ele>1128.400024414</ele>
        <time>2012-05-05T08:25:35Z</time>
      </trkpt>
      <trkpt lat="43.985" lon="7.17399">
        <ele>1130.599975586</ele>
        <time>2012-05-05T08:25:39Z</time>
      </trkpt>
      <trkpt lat="43.985" lon="7.174">
        <ele>1134.599975586</ele>
        <time>2012-05-05T08:25:40Z</time>
      </trkpt>
      <trkpt lat="43.985" lon="7.17401">
        <ele>1131.599975586</ele>
        <time>2012-05-05T08:25:41Z</time>
      </trkpt>
      <trkpt lat="43.985" lon="7.17402">
        <ele>1120.599975586</ele>
        <time>2012-05-05T08:25:42Z</time>
      </trkpt>
      <trkpt lat="43.98499" lon="7.17403">
        <ele>1120.599975586</ele>
        <time>2012-05-05T08:25:43Z</time>
      </trkpt>
      <trkpt lat="43.98499" lon="7.17413">
        <ele>1120.599975586</ele>
        <time>2012-05-05T08:25:52Z</time>
      </trkpt>
      <trkpt lat="43.98499" lon="7.17415">
        <ele>1120.599975586</ele>
        <time>2012-05-05T08:25:53Z</time>
      </trkpt>
      <trkpt lat="43.98499" lon="7.17417">
        <ele>1120.599975586</ele>
        <time>2012-05-05T08:25:54Z</time>
      </trkpt>
      <trkpt lat="43.98499" lon="7.17419">
        <ele>1122.599975586</ele>
        <time>2012-05-05T08:25:56Z</time>
      </trkpt>
      <trkpt lat="43.985" lon="7.17423">
        <ele>1122.599975586</ele>
        <time>2012-05-05T08:26:00Z</time>
      </trkpt>
      <trkpt lat="43.985" lon="7.17428">
        <ele>1123.800048828</ele>
        <time>2012-05-05T08:26:04Z</time>
      </trkpt>
      <trkpt lat="43.985" lon="7.17433">
        <ele>1123.800048828</ele>
        <time>2012-05-05T08:26:08Z</time>
      </trkpt>
      <trkpt lat="43.985" lon="7.17437">
        <ele>1125</ele>
        <time>2012-05-05T08:26:12Z</time>
      </trkpt>
      <trkpt lat="43.985" lon="7.17443">
        <ele>1125</ele>
        <time>2012-05-05T08:26:17Z</time>
      </trkpt>
      <trkpt lat="43.985" lon="7.17445">
        <ele>1126</ele>
        <time>2012-05-05T08:26:19Z</time>
      </trkpt>
      <trkpt lat="43.98501" lon="7.17449">
        <ele>1126</ele>
        <time>2012-05-05T08:26:23Z</time>
      </trkpt>
      <trkpt lat="43.98501" lon="7.17451">
        <ele>1127.199951172</ele>
        <time>2012-05-05T08:26:25Z</time>
      </trkpt>
      <trkpt lat="43.98502" lon="7.17455">
        <ele>1128.400024414</ele>
        <time>2012-05-05T08:26:29Z</time>
      </trkpt>
      <trkpt lat="43.98502" lon="7.17457">
        <ele>1128.400024414</ele>
        <time>2012-05-05T08:26:31Z</time>
      </trkpt>
      <trkpt lat="43.98502" lon="7.17458">
        <ele>1129.400024414</ele>
        <time>2012-05-05T08:26:32Z</time>
      </trkpt>
      <trkpt lat="43.98503" lon="7.17465">
        <ele>1130.400024414</ele>
        <time>2012-05-05T08:26:37Z</time>
      </trkpt>
      <trkpt lat="43.98503" lon="7.17468">
        <ele>1131.400024414</ele>
        <time>2012-05-05T08:26:40Z</time>
      </trkpt>
      <trkpt lat="43.98503" lon="7.17469">
        <ele>1131.400024414</ele>
        <time>2012-05-05T08:26:41Z</time>
      </trkpt>
      <trkpt lat="43.98503" lon="7.17468">
        <ele>1132.599975586</ele>
        <time>2012-05-05T08:26:44Z</time>
      </trkpt>
      <trkpt lat="43.98503" lon="7.17468">
        <ele>1132.599975586</ele>
        <time>2012-05-05T08:26:45Z</time>
      </trkpt>
      <trkpt lat="43.98503" lon="7.17468">
        <ele>1133.800048828</ele>
        <time>2012-05-05T08:26:48Z</time>
      </trkpt>
      <trkpt lat="43.98503" lon="7.17468">
        <ele>1135</ele>
        <time>2012-05-05T08:26:54Z</time>
      </trkpt>
      <trkpt lat="43.98502" lon="7.1747">
        <ele>1135</ele>
        <time>2012-05-05T08:26:57Z</time>
      </trkpt>
      <trkpt lat="43.98503" lon="7.1747">
        <ele>1136.199951172</ele>
        <time>2012-05-05T08:26:58Z</time>
      </trkpt>
      <trkpt lat="43.98502" lon="7.17471">
        <ele>1137.199951172</ele>
        <time>2012-05-05T08:27:03Z</time>
      </trkpt>
      <trkpt lat="43.98502" lon="7.17471">
        <ele>1137.199951172</ele>
        <time>2012-05-05T08:27:04Z</time>
      </trkpt>
      <trkpt lat="43.98502" lon="7.17471">
        <ele>1138.199951172</ele>
        <time>2012-05-05T08:27:10Z</time>
      </trkpt>
      <trkpt lat="43.98502" lon="7.17472">
        <ele>1138.199951172</ele>
        <time>2012-05-05T08:27:11Z</time>
      </trkpt>
      <trkpt lat="43.98502" lon="7.17471">
        <ele>1138.199951172</ele>
        <time>2012-05-05T08:27:16Z</time>
      </trkpt>
      <trkpt lat="43.98502" lon="7.1747">
        <ele>1138.199951172</ele>
        <time>2012-05-05T08:27:20Z</time>
      </trkpt>
      <trkpt lat="43.98502" lon="7.1747">
        <ele>1139.199951172</ele>
        <time>2012-05-05T08:27:21Z</time>
      </trkpt>
      <trkpt lat="43.98504" lon="7.17472">
        <ele>1139.199951172</ele>
        <time>2012-05-05T08:27:25Z</time>
      </trkpt>
      <trkpt lat="43.98505" lon="7.17475">
        <ele>1140.400024414</ele>
        <time>2012-05-05T08:27:29Z</time>
      </trkpt>
      <trkpt lat="43.98504" lon="7.17475">
        <ele>1140.400024414</ele>
        <time>2012-05-05T08:27:31Z</time>
      </trkpt>
      <trkpt lat="43.98504" lon="7.17476">
        <ele>1144.400024414</ele>
        <time>2012-05-05T08:27:32Z</time>
      </trkpt>
      <trkpt lat="43.98505" lon="7.17478">
        <ele>1143.599975586</ele>
        <time>2012-05-05T08:27:33Z</time>
      </trkpt>
      <trkpt lat="43.98504" lon="7.1748">
        <ele>1147.199951172</ele>
        <time>2012-05-05T08:27:35Z</time>
      </trkpt>
      <trkpt lat="43.98504" lon="7.17484">
        <ele>1147.199951172</ele>
        <time>2012-05-05T08:27:38Z</time>
      </trkpt>
      <trkpt lat="43.98503" lon="7.17488">
        <ele>1147.199951172</ele>
        <time>2012-05-05T08:27:44Z</time>
      </trkpt>
      <trkpt lat="43.98504" lon="7.17492">
        <ele>1147.199951172</ele>
        <time>2012-05-05T08:27:50Z</time>
      </trkpt>
      <trkpt lat="43.98503" lon="7.17501">
        <ele>1149.199951172</ele>
        <time>2012-05-05T08:27:55Z</time>
      </trkpt>
      <trkpt lat="43.98503" lon="7.17506">
        <ele>1149.199951172</ele>
        <time>2012-05-05T08:27:58Z</time>
      </trkpt>
      <trkpt lat="43.98503" lon="7.17507">
        <ele>1150.199951172</ele>
        <time>2012-05-05T08:27:59Z</time>
      </trkpt>
      <trkpt lat="43.98502" lon="7.17516">
        <ele>1150.199951172</ele>
        <time>2012-05-05T08:28:05Z</time>
      </trkpt>
      <trkpt lat="43.98502" lon="7.17518">
        <ele>1151.400024414</ele>
        <time>2012-05-05T08:28:06Z</time>
      </trkpt>
      <trkpt lat="43.98498" lon="7.17529">
        <ele>1152.400024414</ele>
        <time>2012-05-05T08:28:13Z</time>
      </trkpt>
      <trkpt lat="43.98496" lon="7.17544">
        <ele>1152.400024414</ele>
        <time>2012-05-05T08:28:20Z</time>
      </trkpt>
      <trkpt lat="43.98495" lon="7.17557">
        <ele>1152.400024414</ele>
        <time>2012-05-05T08:28:26Z</time>
      </trkpt>
      <trkpt lat="43.98496" lon="7.17563">
        <ele>1153.400024414</ele>
        <time>2012-05-05T08:28:29Z</time>
      </trkpt>
      <trkpt lat="43.98497" lon="7.17575">
        <ele>1154.400024414</ele>
        <time>2012-05-05T08:28:35Z</time>
      </trkpt>
      <trkpt lat="43.98497" lon="7.17577">
        <ele>1154.400024414</ele>
        <time>2012-05-05T08:28:36Z</time>
      </trkpt>
      <trkpt lat="43.98497" lon="7.17581">
        <ele>1155.400024414</ele>
        <time>2012-05-05T08:28:38Z</time>
      </trkpt>
      <trkpt lat="43.98497" lon="7.1759">
        <ele>1156.599975586</ele>
        <time>2012-05-05T08:28:43Z</time>
      </trkpt>
      <trkpt lat="43.98497" lon="7.17593">
        <ele>1156.599975586</ele>
        <time>2012-05-05T08:28:45Z</time>
      </trkpt>
      <trkpt lat="43.98497" lon="7.17597">
        <ele>1157.599975586</ele>
        <time>2012-05-05T08:28:47Z</time>
      </trkpt>
      <trkpt lat="43.98496" lon="7.17606">
        <ele>1158.800048828</ele>
        <time>2012-05-05T08:28:52Z</time>
      </trkpt>
      <trkpt lat="43.98496" lon="7.17608">
        <ele>1158.800048828</ele>
        <time>2012-05-05T08:28:53Z</time>
      </trkpt>
      <trkpt lat="43.98496" lon="7.17615">
        <ele>1160.199951172</ele>
        <time>2012-05-05T08:28:57Z</time>
      </trkpt>
      <trkpt lat="43.98496" lon="7.1762">
        <ele>1161.400024414</ele>
        <time>2012-05-05T08:29:01Z</time>
      </trkpt>
      <trkpt lat="43.98496" lon="7.17623">
        <ele>1161.400024414</ele>
        <time>2012-05-05T08:29:03Z</time>
      </trkpt>
      <trkpt lat="43.98495" lon="7.17628">
        <ele>1162.400024414</ele>
        <time>2012-05-05T08:29:06Z</time>
      </trkpt>
      <trkpt lat="43.98495" lon="7.1763">
        <ele>1162.400024414</ele>
        <time>2012-05-05T08:29:10Z</time>
      </trkpt>
      <trkpt lat="43.98496" lon="7.17631">
        <ele>1162.400024414</ele>
        <time>2012-05-05T08:29:12Z</time>
      </trkpt>
      <trkpt lat="43.98496" lon="7.1763">
        <ele>1163.400024414</ele>
        <time>2012-05-05T08:29:14Z</time>
      </trkpt>
      <trkpt lat="43.98496" lon="7.1763">
        <ele>1163.400024414</ele>
        <time>2012-05-05T08:29:15Z</time>
      </trkpt>
      <trkpt lat="43.98496" lon="7.17631">
        <ele>1164.599975586</ele>
        <time>2012-05-05T08:29:21Z</time>
      </trkpt>
      <trkpt lat="43.98496" lon="7.1763">
        <ele>1164.599975586</ele>
        <time>2012-05-05T08:29:24Z</time>
      </trkpt>
      <trkpt lat="43.98497" lon="7.17628">
        <ele>1165.800048828</ele>
        <time>2012-05-05T08:29:27Z</time>
      </trkpt>
      <trkpt lat="43.98498" lon="7.17628">
        <ele>1165.800048828</ele>
        <time>2012-05-05T08:29:29Z</time>
      </trkpt>
      <trkpt lat="43.98496" lon="7.17629">
        <ele>1167</ele>
        <time>2012-05-05T08:29:34Z</time>
      </trkpt>
      <trkpt lat="43.98495" lon="7.1763">
        <ele>1167</ele>
        <time>2012-05-05T08:29:36Z</time>
      </trkpt>
      <trkpt lat="43.9849" lon="7.17633">
        <ele>1167</ele>
        <time>2012-05-05T08:29:40Z</time>
      </trkpt>
      <trkpt lat="43.98488" lon="7.17635">
        <ele>1167</ele>
        <time>2012-05-05T08:29:46Z</time>
      </trkpt>
      <trkpt lat="43.98485" lon="7.17635">
        <ele>1167</ele>
        <time>2012-05-05T08:29:51Z</time>
      </trkpt>
      <trkpt lat="43.98484" lon="7.17635">
        <ele>1167</ele>
        <time>2012-05-05T08:29:55Z</time>
      </trkpt>
      <trkpt lat="43.98483" lon="7.17634">
        <ele>1167</ele>
        <time>2012-05-05T08:29:58Z</time>
      </trkpt>
      <trkpt lat="43.98485" lon="7.17636">
        <ele>1167</ele>
        <time>2012-05-05T08:30:07Z</time>
      </trkpt>
      <trkpt lat="43.9849" lon="7.17634">
        <ele>1167</ele>
        <time>2012-05-05T08:30:11Z</time>
      </trkpt>
      <trkpt lat="43.98494" lon="7.1763">
        <ele>1167</ele>
        <time>2012-05-05T08:30:16Z</time>
      </trkpt>
      <trkpt lat="43.98493" lon="7.17633">
        <ele>1167</ele>
        <time>2012-05-05T08:30:19Z</time>
      </trkpt>
      <trkpt lat="43.98497" lon="7.17637">
        <ele>1167</ele>
        <time>2012-05-05T08:30:23Z</time>
      </trkpt>
      <trkpt lat="43.98499" lon="7.17638">
        <ele>1167</ele>
        <time>2012-05-05T08:30:25Z</time>
      </trkpt>
      <trkpt lat="43.98504" lon="7.17643">
        <ele>1167</ele>
        <time>2012-05-05T08:30:30Z</time>
      </trkpt>
      <trkpt lat="43.98506" lon="7.17646">
        <ele>1167</ele>
        <time>2012-05-05T08:30:34Z</time>
      </trkpt>
      <trkpt lat="43.98506" lon="7.17646">
        <ele>1169</ele>
        <time>2012-05-05T08:30:35Z</time>
      </trkpt>
      <trkpt lat="43.98507" lon="7.17646">
        <ele>1169</ele>
        <time>2012-05-05T08:30:36Z</time>
      </trkpt>
      <trkpt lat="43.98507" lon="7.17647">
        <ele>1169</ele>
        <time>2012-05-05T08:30:45Z</time>
      </trkpt>
      <trkpt lat="43.98507" lon="7.17648">
        <ele>1169</ele>
        <time>2012-05-05T08:30:54Z</time>
      </trkpt>
      <trkpt lat="43.98506" lon="7.17648">
        <ele>1169</ele>
        <time>2012-05-05T08:31:01Z</time>
      </trkpt>
      <trkpt lat="43.98506" lon="7.17648">
        <ele>1169</ele>
        <time>2012-05-05T08:31:02Z</time>
      </trkpt>
      <trkpt lat="43.98503" lon="7.17647">
        <ele>1169</ele>
        <time>2012-05-05T08:31:04Z</time>
      </trkpt>
      <trkpt lat="43.98501" lon="7.17646">
        <ele>1169</ele>
        <time>2012-05-05T08:31:06Z</time>
      </trkpt>
      <trkpt lat="43.98497" lon="7.17644">
        <ele>1169</ele>
        <time>2012-05-05T08:31:10Z</time>
      </trkpt>
      <trkpt lat="43.98497" lon="7.17644">
        <ele>1169</ele>
        <time>2012-05-05T08:31:12Z</time>
      </trkpt>
      <trkpt lat="43.98497" lon="7.17644">
        <ele>1169</ele>
        <time>2012-05-05T08:31:13Z</time>
      </trkpt>
      <trkpt lat="43.98497" lon="7.17644">
        <ele>1169</ele>
        <time>2012-05-05T08:31:26Z</time>
      </trkpt>
      <trkpt lat="43.98496" lon="7.17645">
        <ele>1169</ele>
        <time>2012-05-05T08:31:33Z</time>
      </trkpt>
      <trkpt lat="43.98497" lon="7.17645">
        <ele>1169</ele>
        <time>2012-05-05T08:31:37Z</time>
      </trkpt>
      <trkpt lat="43.98497" lon="7.17645">
        <ele>1169</ele>
        <time>2012-05-05T08:31:38Z</time>
      </trkpt>
      <trkpt lat="43.985" lon="7.17643">
        <ele>1169</ele>
        <time>2012-05-05T08:31:43Z</time>
      </trkpt>
      <trkpt lat="43.98499" lon="7.17645">
        <ele>1169</ele>
        <time>2012-05-05T08:31:47Z</time>
      </trkpt>
      <trkpt lat="43.98498" lon="7.17643">
        <ele>1169</ele>
        <time>2012-05-05T08:31:50Z</time>
      </trkpt>
      <trkpt lat="43.98498" lon="7.17643">
        <ele>1169</ele>
        <time>2012-05-05T08:31:51Z</time>
      </trkpt>
      <trkpt lat="43.98499" lon="7.17643">
        <ele>1169</ele>
        <time>2012-05-05T08:31:56Z</time>
      </trkpt>
      <trkpt lat="43.98504" lon="7.17644">
        <ele>1169</ele>
        <time>2012-05-05T08:32:00Z</time>
      </trkpt>
      <trkpt lat="43.98504" lon="7.17645">
        <ele>1169</ele>
        <time>2012-05-05T08:32:01Z</time>
      </trkpt>
      <trkpt lat="43.98506" lon="7.17646">
        <ele>1169</ele>
        <time>2012-05-05T08:32:06Z</time>
      </trkpt>
      <trkpt lat="43.98508" lon="7.17649">
        <ele>1169</ele>
        <time>2012-05-05T08:32:11Z</time>
      </trkpt>
      <trkpt lat="43.98509" lon="7.17651">
        <ele>1169</ele>
        <time>2012-05-05T08:32:16Z</time>
      </trkpt>
      <trkpt lat="43.98515" lon="7.17657">
        <ele>1169</ele>
        <time>2012-05-05T08:32:21Z</time>
      </trkpt>
      <trkpt lat="43.98516" lon="7.17658">
        <ele>1170.199951172</ele>
        <time>2012-05-05T08:32:22Z</time>
      </trkpt>
      <trkpt lat="43.98519" lon="7.17662">
        <ele>1171.199951172</ele>
        <time>2012-05-05T08:32:25Z</time>
      </trkpt>
      <trkpt lat="43.98521" lon="7.17664">
        <ele>1181.400024414</ele>
        <time>2012-05-05T08:32:26Z</time>
      </trkpt>
      <trkpt lat="43.98523" lon="7.17666">
        <ele>1170.400024414</ele>
        <time>2012-05-05T08:32:27Z</time>
      </trkpt>
      <trkpt lat="43.98524" lon="7.17669">
        <ele>1170.400024414</ele>
        <time>2012-05-05T08:32:28Z</time>
      </trkpt>
      <trkpt lat="43.98534" lon="7.17685">
        <ele>1170.400024414</ele>
        <time>2012-05-05T08:32:34Z</time>
      </trkpt>
      <trkpt lat="43.98545" lon="7.17703">
        <ele>1170.400024414</ele>
        <time>2012-05-05T08:32:40Z</time>
      </trkpt>
      <trkpt lat="43.98554" lon="7.17712">
        <ele>1170.400024414</ele>
        <time>2012-05-05T08:32:44Z</time>
      </trkpt>
      <trkpt lat="43.98564" lon="7.17719">
        <ele>1170.400024414</ele>
        <time>2012-05-05T08:32:49Z</time>
      </trkpt>
      <trkpt lat="43.9858" lon="7.17728">
        <ele>1170.400024414</ele>
        <time>2012-05-05T08:32:56Z</time>
      </trkpt>
      <trkpt lat="43.98592" lon="7.17735">
        <ele>1170.400024414</ele>
        <time>2012-05-05T08:33:01Z</time>
      </trkpt>
      <trkpt lat="43.98603" lon="7.17739">
        <ele>1170.400024414</ele>
        <time>2012-05-05T08:33:06Z</time>
      </trkpt>
      <trkpt lat="43.98614" lon="7.17743">
        <ele>1170.400024414</ele>
        <time>2012-05-05T08:33:10Z</time>
      </trkpt>
      <trkpt lat="43.98624" lon="7.17758">
        <ele>1170.400024414</ele>
        <time>2012-05-05T08:33:14Z</time>
      </trkpt>
      <trkpt lat="43.98633" lon="7.1778">
        <ele>1170.400024414</ele>
        <time>2012-05-05T08:33:20Z</time>
      </trkpt>
      <trkpt lat="43.98647" lon="7.17796">
        <ele>1176</ele>
        <time>2012-05-05T08:33:26Z</time>
      </trkpt>
      <trkpt lat="43.98649" lon="7.17799">
        <ele>1183</ele>
        <time>2012-05-05T08:33:27Z</time>
      </trkpt>
      <trkpt lat="43.98651" lon="7.17801">
        <ele>1174.800048828</ele>
        <time>2012-05-05T08:33:28Z</time>
      </trkpt>
      <trkpt lat="43.98654" lon="7.17802">
        <ele>1173</ele>
        <time>2012-05-05T08:33:29Z</time>
      </trkpt>
      <trkpt lat="43.98663" lon="7.17809">
        <ele>1173</ele>
        <time>2012-05-05T08:33:33Z</time>
      </trkpt>
      <trkpt lat="43.98666" lon="7.17812">
        <ele>1173</ele>
        <time>2012-05-05T08:33:35Z</time>
      </trkpt>
      <trkpt lat="43.98666" lon="7.17815">
        <ele>1173</ele>
        <time>2012-05-05T08:33:37Z</time>
      </trkpt>
      <trkpt lat="43.98672" lon="7.17819">
        <ele>1176</ele>
        <time>2012-05-05T08:33:40Z</time>
      </trkpt>
      <trkpt lat="43.98675" lon="7.17821">
        <ele>1176</ele>
        <time>2012-05-05T08:33:41Z</time>
      </trkpt>
      <trkpt lat="43.98677" lon="7.17823">
        <ele>1176</ele>
        <time>2012-05-05T08:33:42Z</time>
      </trkpt>
      <trkpt lat="43.98682" lon="7.17826">
        <ele>1176</ele>
        <time>2012-05-05T08:33:45Z</time>
      </trkpt>
      <trkpt lat="43.98684" lon="7.17826">
        <ele>1176</ele>
        <time>2012-05-05T08:33:46Z</time>
      </trkpt>
      <trkpt lat="43.98686" lon="7.17828">
        <ele>1177</ele>
        <time>2012-05-05T08:33:47Z</time>
      </trkpt>
      <trkpt lat="43.98692" lon="7.17831">
        <ele>1178</ele>
        <time>2012-05-05T08:33:50Z</time>
      </trkpt>
      <trkpt lat="43.98693" lon="7.17833">
        <ele>1178</ele>
        <time>2012-05-05T08:33:51Z</time>
      </trkpt>
      <trkpt lat="43.98694" lon="7.17834">
        <ele>1178</ele>
        <time>2012-05-05T08:33:52Z</time>
      </trkpt>
      <trkpt lat="43.98698" lon="7.17838">
        <ele>1179.199951172</ele>
        <time>2012-05-05T08:33:55Z</time>
      </trkpt>
      <trkpt lat="43.98699" lon="7.17839">
        <ele>1179.199951172</ele>
        <time>2012-05-05T08:33:56Z</time>
      </trkpt>
      <trkpt lat="43.98704" lon="7.17844">
        <ele>1180.400024414</ele>
        <time>2012-05-05T08:34:00Z</time>
      </trkpt>
      <trkpt lat="43.98705" lon="7.17845">
        <ele>1180.400024414</ele>
        <time>2012-05-05T08:34:01Z</time>
      </trkpt>
      <trkpt lat="43.98709" lon="7.17849">
        <ele>1180.400024414</ele>
        <time>2012-05-05T08:34:04Z</time>
      </trkpt>
      <trkpt lat="43.98711" lon="7.17849">
        <ele>1180.400024414</ele>
        <time>2012-05-05T08:34:05Z</time>
      </trkpt>
      <trkpt lat="43.98713" lon="7.1785">
        <ele>1181.400024414</ele>
        <time>2012-05-05T08:34:06Z</time>
      </trkpt>
      <trkpt lat="43.98714" lon="7.17852">
        <ele>1181.400024414</ele>
        <time>2012-05-05T08:34:07Z</time>
      </trkpt>
      <trkpt lat="43.98721" lon="7.17859">
        <ele>1182.400024414</ele>
        <time>2012-05-05T08:34:11Z</time>
      </trkpt>
      <trkpt lat="43.98727" lon="7.17863">
        <ele>1182.400024414</ele>
        <time>2012-05-05T08:34:14Z</time>
      </trkpt>
      <trkpt lat="43.98734" lon="7.17871">
        <ele>1183.400024414</ele>
        <time>2012-05-05T08:34:18Z</time>
      </trkpt>
      <trkpt lat="43.98736" lon="7.17874">
        <ele>1183.400024414</ele>
        <time>2012-05-05T08:34:19Z</time>
      </trkpt>
      <trkpt lat="43.98747" lon="7.17891">
        <ele>1183.400024414</ele>
        <time>2012-05-05T08:34:25Z</time>
      </trkpt>
      <trkpt lat="43.98758" lon="7.17914">
        <ele>1183.400024414</ele>
        <time>2012-05-05T08:34:31Z</time>
      </trkpt>
      <trkpt lat="43.98771" lon="7.1793">
        <ele>1183.400024414</ele>
        <time>2012-05-05T08:34:37Z</time>
      </trkpt>
      <trkpt lat="43.98778" lon="7.1794">
        <ele>1183.400024414</ele>
        <time>2012-05-05T08:34:41Z</time>
      </trkpt>
      <trkpt lat="43.9878" lon="7.17942">
        <ele>1184.599975586</ele>
        <time>2012-05-05T08:34:42Z</time>
      </trkpt>
      <trkpt lat="43.98786" lon="7.17948">
        <ele>1184.599975586</ele>
        <time>2012-05-05T08:34:46Z</time>
      </trkpt>
      <trkpt lat="43.98791" lon="7.17951">
        <ele>1185.599975586</ele>
        <time>2012-05-05T08:34:48Z</time>
      </trkpt>
      <trkpt lat="43.98792" lon="7.17953">
        <ele>1185.599975586</ele>
        <time>2012-05-05T08:34:49Z</time>
      </trkpt>
      <trkpt lat="43.98795" lon="7.17958">
        <ele>1185.599975586</ele>
        <time>2012-05-05T08:34:52Z</time>
      </trkpt>
      <trkpt lat="43.98797" lon="7.1796">
        <ele>1186.599975586</ele>
        <time>2012-05-05T08:34:53Z</time>
      </trkpt>
      <trkpt lat="43.98798" lon="7.17961">
        <ele>1186.599975586</ele>
        <time>2012-05-05T08:34:54Z</time>
      </trkpt>
      <trkpt lat="43.98801" lon="7.17965">
        <ele>1187.800048828</ele>
        <time>2012-05-05T08:34:57Z</time>
      </trkpt>
      <trkpt lat="43.98803" lon="7.17966">
        <ele>1187.800048828</ele>
        <time>2012-05-05T08:34:58Z</time>
      </trkpt>
      <trkpt lat="43.98808" lon="7.17969">
        <ele>1187.800048828</ele>
        <time>2012-05-05T08:35:01Z</time>
      </trkpt>
      <trkpt lat="43.98812" lon="7.17971">
        <ele>1188.800048828</ele>
        <time>2012-05-05T08:35:03Z</time>
      </trkpt>
      <trkpt lat="43.98815" lon="7.17973">
        <ele>1188.800048828</ele>
        <time>2012-05-05T08:35:05Z</time>
      </trkpt>
      <trkpt lat="43.9882" lon="7.17974">
        <ele>1188.800048828</ele>
        <time>2012-05-05T08:35:07Z</time>
      </trkpt>
      <trkpt lat="43.98821" lon="7.17976">
        <ele>1189.800048828</ele>
        <time>2012-05-05T08:35:08Z</time>
      </trkpt>
      <trkpt lat="43.98825" lon="7.17977">
        <ele>1189.800048828</ele>
        <time>2012-05-05T08:35:10Z</time>
      </trkpt>
      <trkpt lat="43.98828" lon="7.17979">
        <ele>1190.800048828</ele>
        <time>2012-05-05T08:35:12Z</time>
      </trkpt>
      <trkpt lat="43.9883" lon="7.17979">
        <ele>1190.800048828</ele>
        <time>2012-05-05T08:35:13Z</time>
      </trkpt>
      <trkpt lat="43.98838" lon="7.17983">
        <ele>1191.800048828</ele>
        <time>2012-05-05T08:35:17Z</time>
      </trkpt>
      <trkpt lat="43.98843" lon="7.17986">
        <ele>1193</ele>
        <time>2012-05-05T08:35:20Z</time>
      </trkpt>
      <trkpt lat="43.98857" lon="7.17995">
        <ele>1193</ele>
        <time>2012-05-05T08:35:27Z</time>
      </trkpt>
      <trkpt lat="43.98858" lon="7.17997">
        <ele>1194</ele>
        <time>2012-05-05T08:35:28Z</time>
      </trkpt>
      <trkpt lat="43.98861" lon="7.18">
        <ele>1194</ele>
        <time>2012-05-05T08:35:30Z</time>
      </trkpt>
      <trkpt lat="43.98863" lon="7.18005">
        <ele>1194</ele>
        <time>2012-05-05T08:35:32Z</time>
      </trkpt>
      <trkpt lat="43.98865" lon="7.18009">
        <ele>1195.199951172</ele>
        <time>2012-05-05T08:35:34Z</time>
      </trkpt>
      <trkpt lat="43.98866" lon="7.18012">
        <ele>1195.199951172</ele>
        <time>2012-05-05T08:35:35Z</time>
      </trkpt>
      <trkpt lat="43.98867" lon="7.18015">
        <ele>1191.400024414</ele>
        <time>2012-05-05T08:35:36Z</time>
      </trkpt>
      <trkpt lat="43.98868" lon="7.18017">
        <ele>1195.800048828</ele>
        <time>2012-05-05T08:35:37Z</time>
      </trkpt>
      <trkpt lat="43.98869" lon="7.18019">
        <ele>1187</ele>
        <time>2012-05-05T08:35:38Z</time>
      </trkpt>
      <trkpt lat="43.9887" lon="7.18022">
        <ele>1186.400024414</ele>
        <time>2012-05-05T08:35:39Z</time>
      </trkpt>
      <trkpt lat="43.98871" lon="7.18024">
        <ele>1184</ele>
        <time>2012-05-05T08:35:40Z</time>
      </trkpt>
      <trkpt lat="43.98872" lon="7.18027">
        <ele>1184</ele>
        <time>2012-05-05T08:35:41Z</time>
      </trkpt>
      <trkpt lat="43.98878" lon="7.18042">
        <ele>1184</ele>
        <time>2012-05-05T08:35:47Z</time>
      </trkpt>
      <trkpt lat="43.98885" lon="7.18063">
        <ele>1184</ele>
        <time>2012-05-05T08:35:55Z</time>
      </trkpt>
      <trkpt lat="43.98887" lon="7.18068">
        <ele>1186.199951172</ele>
        <time>2012-05-05T08:35:57Z</time>
      </trkpt>
      <trkpt lat="43.98888" lon="7.18072">
        <ele>1187.400024414</ele>
        <time>2012-05-05T08:35:59Z</time>
      </trkpt>
      <trkpt lat="43.9889" lon="7.1808">
        <ele>1188.400024414</ele>
        <time>2012-05-05T08:36:02Z</time>
      </trkpt>
      <trkpt lat="43.9889" lon="7.18083">
        <ele>1188.400024414</ele>
        <time>2012-05-05T08:36:03Z</time>
      </trkpt>
      <trkpt lat="43.98892" lon="7.18087">
        <ele>1189.400024414</ele>
        <time>2012-05-05T08:36:05Z</time>
      </trkpt>
      <trkpt lat="43.98894" lon="7.18095">
        <ele>1189.400024414</ele>
        <time>2012-05-05T08:36:09Z</time>
      </trkpt>
      <trkpt lat="43.98896" lon="7.18101">
        <ele>1189.400024414</ele>
        <time>2012-05-05T08:36:13Z</time>
      </trkpt>
      <trkpt lat="43.98896" lon="7.18101">
        <ele>1189.400024414</ele>
        <time>2012-05-05T08:36:15Z</time>
      </trkpt>
      <trkpt lat="43.98898" lon="7.18101">
        <ele>1189.400024414</ele>
        <time>2012-05-05T08:36:16Z</time>
      </trkpt>
      <trkpt lat="43.98898" lon="7.18102">
        <ele>1189.400024414</ele>
        <time>2012-05-05T08:36:19Z</time>
      </trkpt>
      <trkpt lat="43.98897" lon="7.18108">
        <ele>1189.400024414</ele>
        <time>2012-05-05T08:36:24Z</time>
      </trkpt>
      <trkpt lat="43.98898" lon="7.18115">
        <ele>1190.400024414</ele>
        <time>2012-05-05T08:36:29Z</time>
      </trkpt>
      <trkpt lat="43.98899" lon="7.18116">
        <ele>1190.400024414</ele>
        <time>2012-05-05T08:36:30Z</time>
      </trkpt>
      <trkpt lat="43.98898" lon="7.18114">
        <ele>1190.400024414</ele>
        <time>2012-05-05T08:36:33Z</time>
      </trkpt>
      <trkpt lat="43.98898" lon="7.18112">
        <ele>1190.400024414</ele>
        <time>2012-05-05T08:36:34Z</time>
      </trkpt>
      <trkpt lat="43.98898" lon="7.18107">
        <ele>1190.400024414</ele>
        <time>2012-05-05T08:36:39Z</time>
      </trkpt>
      <trkpt lat="43.98899" lon="7.18106">
        <ele>1190.400024414</ele>
        <time>2012-05-05T08:36:43Z</time>
      </trkpt>
      <trkpt lat="43.98899" lon="7.18108">
        <ele>1190.400024414</ele>
        <time>2012-05-05T08:36:45Z</time>
      </trkpt>
      <trkpt lat="43.98899" lon="7.18108">
        <ele>1190.400024414</ele>
        <time>2012-05-05T08:36:47Z</time>
      </trkpt>
      <trkpt lat="43.98901" lon="7.18109">
        <ele>1190.400024414</ele>
        <time>2012-05-05T08:36:54Z</time>
      </trkpt>
      <trkpt lat="43.989" lon="7.18108">
        <ele>1190.400024414</ele>
        <time>2012-05-05T08:36:59Z</time>
      </trkpt>
      <trkpt lat="43.989" lon="7.18108">
        <ele>1190.400024414</ele>
        <time>2012-05-05T08:37:02Z</time>
      </trkpt>
      <trkpt lat="43.98901" lon="7.1811">
        <ele>1190.400024414</ele>
        <time>2012-05-05T08:37:04Z</time>
      </trkpt>
      <trkpt lat="43.989" lon="7.18112">
        <ele>1190.400024414</ele>
        <time>2012-05-05T08:37:08Z</time>
      </trkpt>
      <trkpt lat="43.989" lon="7.18113">
        <ele>1190.400024414</ele>
        <time>2012-05-05T08:37:14Z</time>
      </trkpt>
      <trkpt lat="43.98901" lon="7.18115">
        <ele>1190.400024414</ele>
        <time>2012-05-05T08:37:22Z</time>
      </trkpt>
      <trkpt lat="43.98902" lon="7.18116">
        <ele>1190.400024414</ele>
        <time>2012-05-05T08:37:26Z</time>
      </trkpt>
      <trkpt lat="43.98903" lon="7.18115">
        <ele>1190.400024414</ele>
        <time>2012-05-05T08:37:29Z</time>
      </trkpt>
      <trkpt lat="43.98906" lon="7.18115">
        <ele>1193.599975586</ele>
        <time>2012-05-05T08:37:33Z</time>
      </trkpt>
      <trkpt lat="43.98906" lon="7.18115">
        <ele>1187.400024414</ele>
        <time>2012-05-05T08:37:34Z</time>
      </trkpt>
      <trkpt lat="43.98905" lon="7.18113">
        <ele>1187.400024414</ele>
        <time>2012-05-05T08:37:38Z</time>
      </trkpt>
      <trkpt lat="43.98906" lon="7.18112">
        <ele>1187.400024414</ele>
        <time>2012-05-05T08:37:43Z</time>
      </trkpt>
      <trkpt lat="43.98906" lon="7.18113">
        <ele>1187.400024414</ele>
        <time>2012-05-05T08:37:47Z</time>
      </trkpt>
      <trkpt lat="43.98906" lon="7.18113">
        <ele>1187.400024414</ele>
        <time>2012-05-05T08:37:49Z</time>
      </trkpt>
      <trkpt lat="43.98906" lon="7.18114">
        <ele>1187.400024414</ele>
        <time>2012-05-05T08:37:54Z</time>
      </trkpt>
      <trkpt lat="43.98906" lon="7.18114">
        <ele>1187.400024414</ele>
        <time>2012-05-05T08:37:58Z</time>
      </trkpt>
      <trkpt lat="43.98906" lon="7.18114">
        <ele>1187.400024414</ele>
        <time>2012-05-05T08:38:00Z</time>
      </trkpt>
      <trkpt lat="43.98906" lon="7.18113">
        <ele>1187.400024414</ele>
        <time>2012-05-05T08:38:04Z</time>
      </trkpt>
      <trkpt lat="43.98904" lon="7.18113">
        <ele>1187.400024414</ele>
        <time>2012-05-05T08:38:09Z</time>
      </trkpt>
      <trkpt lat="43.98904" lon="7.18113">
        <ele>1187.400024414</ele>
        <time>2012-05-05T08:38:10Z</time>
      </trkpt>
      <trkpt lat="43.98904" lon="7.18115">
        <ele>1187.400024414</ele>
        <time>2012-05-05T08:38:16Z</time>
      </trkpt>
      <trkpt lat="43.98902" lon="7.18114">
        <ele>1187.400024414</ele>
        <time>2012-05-05T08:38:21Z</time>
      </trkpt>
      <trkpt lat="43.98901" lon="7.18111">
        <ele>1189.400024414</ele>
        <time>2012-05-05T08:38:24Z</time>
      </trkpt>
      <trkpt lat="43.989" lon="7.18108">
        <ele>1189.400024414</ele>
        <time>2012-05-05T08:38:27Z</time>
      </trkpt>
      <trkpt lat="43.98896" lon="7.18105">
        <ele>1189.400024414</ele>
        <time>2012-05-05T08:38:32Z</time>
      </trkpt>
      <trkpt lat="43.98896" lon="7.18105">
        <ele>1189.400024414</ele>
        <time>2012-05-05T08:38:33Z</time>
      </trkpt>
      <trkpt lat="43.98893" lon="7.18103">
        <ele>1189.400024414</ele>
        <time>2012-05-05T08:38:38Z</time>
      </trkpt>
      <trkpt lat="43.98892" lon="7.18102">
        <ele>1189.400024414</ele>
        <time>2012-05-05T08:38:39Z</time>
      </trkpt>
      <trkpt lat="43.98886" lon="7.18095">
        <ele>1189.400024414</ele>
        <time>2012-05-05T08:38:44Z</time>
      </trkpt>
      <trkpt lat="43.98882" lon="7.18091">
        <ele>1190.400024414</ele>
        <time>2012-05-05T08:38:47Z</time>
      </trkpt>
      <trkpt lat="43.98876" lon="7.18086">
        <ele>1190.400024414</ele>
        <time>2012-05-05T08:38:51Z</time>
      </trkpt>
      <trkpt lat="43.98876" lon="7.18086">
        <ele>1190.400024414</ele>
        <time>2012-05-05T08:38:53Z</time>
      </trkpt>
      <trkpt lat="43.98875" lon="7.18084">
        <ele>1191.400024414</ele>
        <time>2012-05-05T08:38:54Z</time>
      </trkpt>
      <trkpt lat="43.98875" lon="7.18082">
        <ele>1191.400024414</ele>
        <time>2012-05-05T08:38:56Z</time>
      </trkpt>
      <trkpt lat="43.98874" lon="7.18081">
        <ele>1191.400024414</ele>
        <time>2012-05-05T08:38:58Z</time>
      </trkpt>
      <trkpt lat="43.98873" lon="7.18079">
        <ele>1191.400024414</ele>
        <time>2012-05-05T08:39:02Z</time>
      </trkpt>
      <trkpt lat="43.98872" lon="7.18077">
        <ele>1192.599975586</ele>
        <time>2012-05-05T08:39:03Z</time>
      </trkpt>
      <trkpt lat="43.98868" lon="7.1807">
        <ele>1192.599975586</ele>
        <time>2012-05-05T08:39:07Z</time>
      </trkpt>
      <trkpt lat="43.98866" lon="7.18066">
        <ele>1193.800048828</ele>
        <time>2012-05-05T08:39:10Z</time>
      </trkpt>
      <trkpt lat="43.98862" lon="7.18062">
        <ele>1193.800048828</ele>
        <time>2012-05-05T08:39:13Z</time>
      </trkpt>
      <trkpt lat="43.98859" lon="7.1806">
        <ele>1194.800048828</ele>
        <time>2012-05-05T08:39:15Z</time>
      </trkpt>
      <trkpt lat="43.98858" lon="7.18059">
        <ele>1194.800048828</ele>
        <time>2012-05-05T08:39:16Z</time>
      </trkpt>
      <trkpt lat="43.98853" lon="7.18056">
        <ele>1196</ele>
        <time>2012-05-05T08:39:19Z</time>
      </trkpt>
      <trkpt lat="43.9885" lon="7.18055">
        <ele>1196</ele>
        <time>2012-05-05T08:39:21Z</time>
      </trkpt>
      <trkpt lat="43.98843" lon="7.18049">
        <ele>1196</ele>
        <time>2012-05-05T08:39:26Z</time>
      </trkpt>
      <trkpt lat="43.98841" lon="7.18048">
        <ele>1197</ele>
        <time>2012-05-05T08:39:27Z</time>
      </trkpt>
      <trkpt lat="43.98835" lon="7.18046">
        <ele>1197</ele>
        <time>2012-05-05T08:39:32Z</time>
      </trkpt>
      <trkpt lat="43.98826" lon="7.18039">
        <ele>1197</ele>
        <time>2012-05-05T08:39:39Z</time>
      </trkpt>
      <trkpt lat="43.9882" lon="7.18039">
        <ele>1198</ele>
        <time>2012-05-05T08:39:43Z</time>
      </trkpt>
      <trkpt lat="43.98817" lon="7.18039">
        <ele>1198</ele>
        <time>2012-05-05T08:39:45Z</time>
      </trkpt>
      <trkpt lat="43.98816" lon="7.18038">
        <ele>1198</ele>
        <time>2012-05-05T08:39:46Z</time>
      </trkpt>
      <trkpt lat="43.98812" lon="7.18038">
        <ele>1198</ele>
        <time>2012-05-05T08:39:49Z</time>
      </trkpt>
      <trkpt lat="43.98803" lon="7.18039">
        <ele>1198</ele>
        <time>2012-05-05T08:39:55Z</time>
      </trkpt>
      <trkpt lat="43.98793" lon="7.1804">
        <ele>1198</ele>
        <time>2012-05-05T08:40:02Z</time>
      </trkpt>
      <trkpt lat="43.98789" lon="7.18039">
        <ele>1198</ele>
        <time>2012-05-05T08:40:07Z</time>
      </trkpt>
      <trkpt lat="43.98788" lon="7.18039">
        <ele>1199.199951172</ele>
        <time>2012-05-05T08:40:10Z</time>
      </trkpt>
      <trkpt lat="43.98787" lon="7.18039">
        <ele>1199.199951172</ele>
        <time>2012-05-05T08:40:12Z</time>
      </trkpt>
      <trkpt lat="43.98784" lon="7.18039">
        <ele>1200.400024414</ele>
        <time>2012-05-05T08:40:16Z</time>
      </trkpt>
      <trkpt lat="43.98783" lon="7.18039">
        <ele>1200.400024414</ele>
        <time>2012-05-05T08:40:19Z</time>
      </trkpt>
      <trkpt lat="43.98779" lon="7.18039">
        <ele>1200.400024414</ele>
        <time>2012-05-05T08:40:24Z</time>
      </trkpt>
      <trkpt lat="43.98778" lon="7.18038">
        <ele>1201.400024414</ele>
        <time>2012-05-05T08:40:26Z</time>
      </trkpt>
      <trkpt lat="43.98773" lon="7.18038">
        <ele>1201.400024414</ele>
        <time>2012-05-05T08:40:31Z</time>
      </trkpt>
      <trkpt lat="43.9877" lon="7.18037">
        <ele>1202.400024414</ele>
        <time>2012-05-05T08:40:34Z</time>
      </trkpt>
      <trkpt lat="43.98767" lon="7.18036">
        <ele>1202.400024414</ele>
        <time>2012-05-05T08:40:37Z</time>
      </trkpt>
      <trkpt lat="43.98763" lon="7.18035">
        <ele>1202.400024414</ele>
        <time>2012-05-05T08:40:41Z</time>
      </trkpt>
      <trkpt lat="43.98761" lon="7.18034">
        <ele>1202.400024414</ele>
        <time>2012-05-05T08:40:44Z</time>
      </trkpt>
      <trkpt lat="43.9876" lon="7.18034">
        <ele>1203.599975586</ele>
        <time>2012-05-05T08:40:45Z</time>
      </trkpt>
      <trkpt lat="43.98756" lon="7.18031">
        <ele>1204.800048828</ele>
        <time>2012-05-05T08:40:49Z</time>
      </trkpt>
      <trkpt lat="43.98755" lon="7.1803">
        <ele>1204.800048828</ele>
        <time>2012-05-05T08:40:51Z</time>
      </trkpt>
      <trkpt lat="43.98754" lon="7.1803">
        <ele>1206</ele>
        <time>2012-05-05T08:40:52Z</time>
      </trkpt>
      <trkpt lat="43.98751" lon="7.18027">
        <ele>1207</ele>
        <time>2012-05-05T08:40:55Z</time>
      </trkpt>
      <trkpt lat="43.98749" lon="7.18025">
        <ele>1208.400024414</ele>
        <time>2012-05-05T08:40:58Z</time>
      </trkpt>
      <trkpt lat="43.98747" lon="7.18023">
        <ele>1209.599975586</ele>
        <time>2012-05-05T08:41:02Z</time>
      </trkpt>
      <trkpt lat="43.98744" lon="7.18021">
        <ele>1210.599975586</ele>
        <time>2012-05-05T08:41:05Z</time>
      </trkpt>
      <trkpt lat="43.98743" lon="7.1802">
        <ele>1211.599975586</ele>
        <time>2012-05-05T08:41:08Z</time>
      </trkpt>
      <trkpt lat="43.98741" lon="7.18019">
        <ele>1211.599975586</ele>
        <time>2012-05-05T08:41:11Z</time>
      </trkpt>
      <trkpt lat="43.98741" lon="7.18018">
        <ele>1212.599975586</ele>
        <time>2012-05-05T08:41:13Z</time>
      </trkpt>
      <trkpt lat="43.98741" lon="7.18019">
        <ele>1212.599975586</ele>
        <time>2012-05-05T08:41:16Z</time>
      </trkpt>
      <trkpt lat="43.9874" lon="7.18019">
        <ele>1213.800048828</ele>
        <time>2012-05-05T08:41:19Z</time>
      </trkpt>
      <trkpt lat="43.98743" lon="7.18019">
        <ele>1213.800048828</ele>
        <time>2012-05-05T08:41:25Z</time>
      </trkpt>
      <trkpt lat="43.98744" lon="7.18021">
        <ele>1213.800048828</ele>
        <time>2012-05-05T08:41:30Z</time>
      </trkpt>
      <trkpt lat="43.98744" lon="7.18023">
        <ele>1213.800048828</ele>
        <time>2012-05-05T08:41:37Z</time>
      </trkpt>
      <trkpt lat="43.98742" lon="7.18022">
        <ele>1213.800048828</ele>
        <time>2012-05-05T08:41:41Z</time>
      </trkpt>
      <trkpt lat="43.98742" lon="7.18022">
        <ele>1213.800048828</ele>
        <time>2012-05-05T08:41:42Z</time>
      </trkpt>
      <trkpt lat="43.98741" lon="7.18022">
        <ele>1213.800048828</ele>
        <time>2012-05-05T08:41:45Z</time>
      </trkpt>
      <trkpt lat="43.98741" lon="7.18021">
        <ele>1213.800048828</ele>
        <time>2012-05-05T08:41:47Z</time>
      </trkpt>
      <trkpt lat="43.9874" lon="7.1802">
        <ele>1213.800048828</ele>
        <time>2012-05-05T08:41:54Z</time>
      </trkpt>
      <trkpt lat="43.98738" lon="7.18018">
        <ele>1213.800048828</ele>
        <time>2012-05-05T08:41:56Z</time>
      </trkpt>
      <trkpt lat="43.98737" lon="7.18018">
        <ele>1213.800048828</ele>
        <time>2012-05-05T08:42:01Z</time>
      </trkpt>
      <trkpt lat="43.98737" lon="7.18018">
        <ele>1213.800048828</ele>
        <time>2012-05-05T08:42:03Z</time>
      </trkpt>
      <trkpt lat="43.98735" lon="7.18014">
        <ele>1213.800048828</ele>
        <time>2012-05-05T08:42:18Z</time>
      </trkpt>
      <trkpt lat="43.98732" lon="7.18014">
        <ele>1213.800048828</ele>
        <time>2012-05-05T08:42:23Z</time>
      </trkpt>
      <trkpt lat="43.98734" lon="7.18013">
        <ele>1213.800048828</ele>
        <time>2012-05-05T08:42:28Z</time>
      </trkpt>
      <trkpt lat="43.98737" lon="7.18013">
        <ele>1213.800048828</ele>
        <time>2012-05-05T08:42:37Z</time>
      </trkpt>
      <trkpt lat="43.98738" lon="7.18013">
        <ele>1213.800048828</ele>
        <time>2012-05-05T08:42:44Z</time>
      </trkpt>
      <trkpt lat="43.98741" lon="7.18013">
        <ele>1213.800048828</ele>
        <time>2012-05-05T08:42:52Z</time>
      </trkpt>
      <trkpt lat="43.98741" lon="7.18013">
        <ele>1213.800048828</ele>
        <time>2012-05-05T08:42:53Z</time>
      </trkpt>
      <trkpt lat="43.9874" lon="7.18011">
        <ele>1213.800048828</ele>
        <time>2012-05-05T08:43:03Z</time>
      </trkpt>
      <trkpt lat="43.98738" lon="7.18009">
        <ele>1213.800048828</ele>
        <time>2012-05-05T08:43:16Z</time>
      </trkpt>
      <trkpt lat="43.98736" lon="7.18009">
        <ele>1213.800048828</ele>
        <time>2012-05-05T08:43:26Z</time>
      </trkpt>
      <trkpt lat="43.98737" lon="7.18009">
        <ele>1213.800048828</ele>
        <time>2012-05-05T08:43:27Z</time>
      </trkpt>
      <trkpt lat="43.98737" lon="7.18009">
        <ele>1213.800048828</ele>
        <time>2012-05-05T08:43:30Z</time>
      </trkpt>
      <trkpt lat="43.98738" lon="7.18009">
        <ele>1213.800048828</ele>
        <time>2012-05-05T08:43:38Z</time>
      </trkpt>
      <trkpt lat="43.98739" lon="7.18009">
        <ele>1213.800048828</ele>
        <time>2012-05-05T08:43:40Z</time>
      </trkpt>
      <trkpt lat="43.9874" lon="7.1801">
        <ele>1213.800048828</ele>
        <time>2012-05-05T08:43:47Z</time>
      </trkpt>
      <trkpt lat="43.9874" lon="7.1801">
        <ele>1213.800048828</ele>
        <time>2012-05-05T08:43:51Z</time>
      </trkpt>
      <trkpt lat="43.9874" lon="7.1801">
        <ele>1213.800048828</ele>
        <time>2012-05-05T08:43:58Z</time>
      </trkpt>
      <trkpt lat="43.9874" lon="7.18011">
        <ele>1213.800048828</ele>
        <time>2012-05-05T08:44:00Z</time>
      </trkpt>
      <trkpt lat="43.98739" lon="7.18011">
        <ele>1213.800048828</ele>
        <time>2012-05-05T08:44:04Z</time>
      </trkpt>
      <trkpt lat="43.9874" lon="7.18011">
        <ele>1213.800048828</ele>
        <time>2012-05-05T08:44:08Z</time>
      </trkpt>
      <trkpt lat="43.9874" lon="7.18013">
        <ele>1211</ele>
        <time>2012-05-05T08:44:13Z</time>
      </trkpt>
      <trkpt lat="43.9874" lon="7.18012">
        <ele>1211</ele>
        <time>2012-05-05T08:44:14Z</time>
      </trkpt>
      <trkpt lat="43.9874" lon="7.18014">
        <ele>1211</ele>
        <time>2012-05-05T08:44:22Z</time>
      </trkpt>
      <trkpt lat="43.98738" lon="7.18013">
        <ele>1211</ele>
        <time>2012-05-05T08:44:28Z</time>
      </trkpt>
      <trkpt lat="43.98737" lon="7.18014">
        <ele>1211</ele>
        <time>2012-05-05T08:44:36Z</time>
      </trkpt>
      <trkpt lat="43.98737" lon="7.18013">
        <ele>1211</ele>
        <time>2012-05-05T08:44:43Z</time>
      </trkpt>
      <trkpt lat="43.98737" lon="7.18014">
        <ele>1211</ele>
        <time>2012-05-05T08:44:49Z</time>
      </trkpt>
      <trkpt lat="43.98736" lon="7.18015">
        <ele>1211</ele>
        <time>2012-05-05T08:44:52Z</time>
      </trkpt>
      <trkpt lat="43.98736" lon="7.18013">
        <ele>1211</ele>
        <time>2012-05-05T08:44:59Z</time>
      </trkpt>
      <trkpt lat="43.98736" lon="7.18011">
        <ele>1211</ele>
        <time>2012-05-05T08:45:03Z</time>
      </trkpt>
      <trkpt lat="43.98733" lon="7.1801">
        <ele>1211</ele>
        <time>2012-05-05T08:45:09Z</time>
      </trkpt>
      <trkpt lat="43.98734" lon="7.18011">
        <ele>1213</ele>
        <time>2012-05-05T08:45:11Z</time>
      </trkpt>
      <trkpt lat="43.98734" lon="7.1801">
        <ele>1213</ele>
        <time>2012-05-05T08:45:16Z</time>
      </trkpt>
      <trkpt lat="43.9873" lon="7.18007">
        <ele>1213</ele>
        <time>2012-05-05T08:45:24Z</time>
      </trkpt>
      <trkpt lat="43.98724" lon="7.18004">
        <ele>1215</ele>
        <time>2012-05-05T08:45:32Z</time>
      </trkpt>
      <trkpt lat="43.98723" lon="7.18004">
        <ele>1215</ele>
        <time>2012-05-05T08:45:33Z</time>
      </trkpt>
      <trkpt lat="43.98721" lon="7.18003">
        <ele>1216</ele>
        <time>2012-05-05T08:45:38Z</time>
      </trkpt>
      <trkpt lat="43.98718" lon="7.18002">
        <ele>1216</ele>
        <time>2012-05-05T08:45:41Z</time>
      </trkpt>
      <trkpt lat="43.98714" lon="7.18002">
        <ele>1217.199951172</ele>
        <time>2012-05-05T08:45:48Z</time>
      </trkpt>
      <trkpt lat="43.98712" lon="7.18001">
        <ele>1217.199951172</ele>
        <time>2012-05-05T08:45:50Z</time>
      </trkpt>
      <trkpt lat="43.98709" lon="7.18001">
        <ele>1218.199951172</ele>
        <time>2012-05-05T08:45:55Z</time>
      </trkpt>
      <trkpt lat="43.98706" lon="7.18002">
        <ele>1218.199951172</ele>
        <time>2012-05-05T08:45:58Z</time>
      </trkpt>
      <trkpt lat="43.98704" lon="7.18">
        <ele>1219.199951172</ele>
        <time>2012-05-05T08:46:01Z</time>
      </trkpt>
      <trkpt lat="43.987" lon="7.17999">
        <ele>1219.199951172</ele>
        <time>2012-05-05T08:46:05Z</time>
      </trkpt>
      <trkpt lat="43.98699" lon="7.17998">
        <ele>1220.400024414</ele>
        <time>2012-05-05T08:46:07Z</time>
      </trkpt>
      <trkpt lat="43.98695" lon="7.17996">
        <ele>1220.400024414</ele>
        <time>2012-05-05T08:46:12Z</time>
      </trkpt>
      <trkpt lat="43.98694" lon="7.17996">
        <ele>1221.400024414</ele>
        <time>2012-05-05T08:46:13Z</time>
      </trkpt>
      <trkpt lat="43.9869" lon="7.17993">
        <ele>1222.400024414</ele>
        <time>2012-05-05T08:46:19Z</time>
      </trkpt>
      <trkpt lat="43.98689" lon="7.17993">
        <ele>1222.400024414</ele>
        <time>2012-05-05T08:46:25Z</time>
      </trkpt>
      <trkpt lat="43.98688" lon="7.17992">
        <ele>1222.400024414</ele>
        <time>2012-05-05T08:46:31Z</time>
      </trkpt>
      <trkpt lat="43.98687" lon="7.17993">
        <ele>1222.400024414</ele>
        <time>2012-05-05T08:46:38Z</time>
      </trkpt>
      <trkpt lat="43.98687" lon="7.17993">
        <ele>1223.599975586</ele>
        <time>2012-05-05T08:46:40Z</time>
      </trkpt>
      <trkpt lat="43.98686" lon="7.17991">
        <ele>1223.599975586</ele>
        <time>2012-05-05T08:46:45Z</time>
      </trkpt>
      <trkpt lat="43.98685" lon="7.17987">
        <ele>1223.599975586</ele>
        <time>2012-05-05T08:46:49Z</time>
      </trkpt>
      <trkpt lat="43.98683" lon="7.17987">
        <ele>1223.599975586</ele>
        <time>2012-05-05T08:46:56Z</time>
      </trkpt>
      <trkpt lat="43.98682" lon="7.17986">
        <ele>1220.599975586</ele>
        <time>2012-05-05T08:46:57Z</time>
      </trkpt>
      <trkpt lat="43.98681" lon="7.17985">
        <ele>1220.599975586</ele>
        <time>2012-05-05T08:47:02Z</time>
      </trkpt>
      <trkpt lat="43.98681" lon="7.17985">
        <ele>1220.599975586</ele>
        <time>2012-05-05T08:47:05Z</time>
      </trkpt>
      <trkpt lat="43.98681" lon="7.17985">
        <ele>1220.599975586</ele>
        <time>2012-05-05T08:47:09Z</time>
      </trkpt>
      <trkpt lat="43.98681" lon="7.17985">
        <ele>1220.599975586</ele>
        <time>2012-05-05T08:47:10Z</time>
      </trkpt>
      <trkpt lat="43.98682" lon="7.17986">
        <ele>1220.599975586</ele>
        <time>2012-05-05T08:47:14Z</time>
      </trkpt>
      <trkpt lat="43.98682" lon="7.17986">
        <ele>1220.599975586</ele>
        <time>2012-05-05T08:47:15Z</time>
      </trkpt>
      <trkpt lat="43.98682" lon="7.17986">
        <ele>1220.599975586</ele>
        <time>2012-05-05T08:47:21Z</time>
      </trkpt>
      <trkpt lat="43.98684" lon="7.17989">
        <ele>1220.599975586</ele>
        <time>2012-05-05T08:47:28Z</time>
      </trkpt>
      <trkpt lat="43.98684" lon="7.17991">
        <ele>1220.599975586</ele>
        <time>2012-05-05T08:47:35Z</time>
      </trkpt>
      <trkpt lat="43.98684" lon="7.17993">
        <ele>1220.599975586</ele>
        <time>2012-05-05T08:47:41Z</time>
      </trkpt>
      <trkpt lat="43.98685" lon="7.17993">
        <ele>1220.599975586</ele>
        <time>2012-05-05T08:47:44Z</time>
      </trkpt>
      <trkpt lat="43.98686" lon="7.17994">
        <ele>1220.599975586</ele>
        <time>2012-05-05T08:47:46Z</time>
      </trkpt>
      <trkpt lat="43.98688" lon="7.17998">
        <ele>1220.599975586</ele>
        <time>2012-05-05T08:47:51Z</time>
      </trkpt>
      <trkpt lat="43.98689" lon="7.17999">
        <ele>1223.599975586</ele>
        <time>2012-05-05T08:47:52Z</time>
      </trkpt>
      <trkpt lat="43.98691" lon="7.18002">
        <ele>1224.800048828</ele>
        <time>2012-05-05T08:47:55Z</time>
      </trkpt>
      <trkpt lat="43.98693" lon="7.18004">
        <ele>1224.800048828</ele>
        <time>2012-05-05T08:47:58Z</time>
      </trkpt>
      <trkpt lat="43.98697" lon="7.18006">
        <ele>1226</ele>
        <time>2012-05-05T08:48:02Z</time>
      </trkpt>
      <trkpt lat="43.987" lon="7.18009">
        <ele>1226</ele>
        <time>2012-05-05T08:48:05Z</time>
      </trkpt>
      <trkpt lat="43.98703" lon="7.18012">
        <ele>1227</ele>
        <time>2012-05-05T08:48:10Z</time>
      </trkpt>
      <trkpt lat="43.98704" lon="7.18013">
        <ele>1227</ele>
        <time>2012-05-05T08:48:11Z</time>
      </trkpt>
      <trkpt lat="43.98703" lon="7.18013">
        <ele>1227</ele>
        <time>2012-05-05T08:48:12Z</time>
      </trkpt>
      <trkpt lat="43.98704" lon="7.18012">
        <ele>1227</ele>
        <time>2012-05-05T08:48:13Z</time>
      </trkpt>
      <trkpt lat="43.98705" lon="7.18015">
        <ele>1227</ele>
        <time>2012-05-05T08:48:17Z</time>
      </trkpt>
      <trkpt lat="43.98705" lon="7.18014">
        <ele>1227</ele>
        <time>2012-05-05T08:48:23Z</time>
      </trkpt>
      <trkpt lat="43.98705" lon="7.18014">
        <ele>1228.199951172</ele>
        <time>2012-05-05T08:48:25Z</time>
      </trkpt>
      <trkpt lat="43.98704" lon="7.18013">
        <ele>1228.199951172</ele>
        <time>2012-05-05T08:48:32Z</time>
      </trkpt>
      <trkpt lat="43.98704" lon="7.18013">
        <ele>1228.199951172</ele>
        <time>2012-05-05T08:48:38Z</time>
      </trkpt>
      <trkpt lat="43.98705" lon="7.18016">
        <ele>1228.199951172</ele>
        <time>2012-05-05T08:48:43Z</time>
      </trkpt>
      <trkpt lat="43.98708" lon="7.1802">
        <ele>1229.400024414</ele>
        <time>2012-05-05T08:48:47Z</time>
      </trkpt>
      <trkpt lat="43.98708" lon="7.18021">
        <ele>1230.599975586</ele>
        <time>2012-05-05T08:48:49Z</time>
      </trkpt>
      <trkpt lat="43.9871" lon="7.18025">
        <ele>1231.800048828</ele>
        <time>2012-05-05T08:48:54Z</time>
      </trkpt>
      <trkpt lat="43.9871" lon="7.18025">
        <ele>1231.800048828</ele>
        <time>2012-05-05T08:48:55Z</time>
      </trkpt>
      <trkpt lat="43.98712" lon="7.18028">
        <ele>1232.800048828</ele>
        <time>2012-05-05T08:48:59Z</time>
      </trkpt>
      <trkpt lat="43.98714" lon="7.18033">
        <ele>1232.800048828</ele>
        <time>2012-05-05T08:49:03Z</time>
      </trkpt>
      <trkpt lat="43.98716" lon="7.18035">
        <ele>1232.800048828</ele>
        <time>2012-05-05T08:49:08Z</time>
      </trkpt>
      <trkpt lat="43.98716" lon="7.18036">
        <ele>1232.800048828</ele>
        <time>2012-05-05T08:49:10Z</time>
      </trkpt>
      <trkpt lat="43.98723" lon="7.18042">
        <ele>1232.800048828</ele>
        <time>2012-05-05T08:49:14Z</time>
      </trkpt>
      <trkpt lat="43.98724" lon="7.18043">
        <ele>1232.800048828</ele>
        <time>2012-05-05T08:49:15Z</time>
      </trkpt>
      <trkpt lat="43.98725" lon="7.18044">
        <ele>1232.800048828</ele>
        <time>2012-05-05T08:49:18Z</time>
      </trkpt>
      <trkpt lat="43.98727" lon="7.18046">
        <ele>1232.800048828</ele>
        <time>2012-05-05T08:49:21Z</time>
      </trkpt>
      <trkpt lat="43.98728" lon="7.18046">
        <ele>1232.800048828</ele>
        <time>2012-05-05T08:49:23Z</time>
      </trkpt>
      <trkpt lat="43.98734" lon="7.1805">
        <ele>1232.800048828</ele>
        <time>2012-05-05T08:49:29Z</time>
      </trkpt>
      <trkpt lat="43.98735" lon="7.18053">
        <ele>1232.800048828</ele>
        <time>2012-05-05T08:49:31Z</time>
      </trkpt>
      <trkpt lat="43.98737" lon="7.18056">
        <ele>1232.800048828</ele>
        <time>2012-05-05T08:49:36Z</time>
      </trkpt>
      <trkpt lat="43.9874" lon="7.18061">
        <ele>1232.800048828</ele>
        <time>2012-05-05T08:49:41Z</time>
      </trkpt>
      <trkpt lat="43.98745" lon="7.18074">
        <ele>1232.800048828</ele>
        <time>2012-05-05T08:49:48Z</time>
      </trkpt>
      <trkpt lat="43.98744" lon="7.1808">
        <ele>1232.800048828</ele>
        <time>2012-05-05T08:49:53Z</time>
      </trkpt>
      <trkpt lat="43.98745" lon="7.18083">
        <ele>1232.800048828</ele>
        <time>2012-05-05T08:49:59Z</time>
      </trkpt>
      <trkpt lat="43.98746" lon="7.18085">
        <ele>1230.800048828</ele>
        <time>2012-05-05T08:50:01Z</time>
      </trkpt>
      <trkpt lat="43.98748" lon="7.1809">
        <ele>1230.800048828</ele>
        <time>2012-05-05T08:50:06Z</time>
      </trkpt>
      <trkpt lat="43.98751" lon="7.18097">
        <ele>1230.800048828</ele>
        <time>2012-05-05T08:50:13Z</time>
      </trkpt>
      <trkpt lat="43.9875" lon="7.18102">
        <ele>1230.800048828</ele>
        <time>2012-05-05T08:50:18Z</time>
      </trkpt>
      <trkpt lat="43.98751" lon="7.18108">
        <ele>1230.800048828</ele>
        <time>2012-05-05T08:50:23Z</time>
      </trkpt>
      <trkpt lat="43.98753" lon="7.18116">
        <ele>1230.800048828</ele>
        <time>2012-05-05T08:50:30Z</time>
      </trkpt>
      <trkpt lat="43.98754" lon="7.1812">
        <ele>1230.800048828</ele>
        <time>2012-05-05T08:50:33Z</time>
      </trkpt>
      <trkpt lat="43.98754" lon="7.18122">
        <ele>1230.800048828</ele>
        <time>2012-05-05T08:50:35Z</time>
      </trkpt>
      <trkpt lat="43.98756" lon="7.18128">
        <ele>1230.800048828</ele>
        <time>2012-05-05T08:50:42Z</time>
      </trkpt>
      <trkpt lat="43.98758" lon="7.18135">
        <ele>1230.800048828</ele>
        <time>2012-05-05T08:50:48Z</time>
      </trkpt>
      <trkpt lat="43.98758" lon="7.18137">
        <ele>1234.199951172</ele>
        <time>2012-05-05T08:50:49Z</time>
      </trkpt>
      <trkpt lat="43.98759" lon="7.18142">
        <ele>1235.400024414</ele>
        <time>2012-05-05T08:50:52Z</time>
      </trkpt>
      <trkpt lat="43.9876" lon="7.18146">
        <ele>1235.400024414</ele>
        <time>2012-05-05T08:50:54Z</time>
      </trkpt>
      <trkpt lat="43.98761" lon="7.1815">
        <ele>1236.400024414</ele>
        <time>2012-05-05T08:50:56Z</time>
      </trkpt>
      <trkpt lat="43.98763" lon="7.18157">
        <ele>1236.400024414</ele>
        <time>2012-05-05T08:50:59Z</time>
      </trkpt>
      <trkpt lat="43.98764" lon="7.18158">
        <ele>1236.400024414</ele>
        <time>2012-05-05T08:51:00Z</time>
      </trkpt>
      <trkpt lat="43.98765" lon="7.18162">
        <ele>1236.400024414</ele>
        <time>2012-05-05T08:51:04Z</time>
      </trkpt>
      <trkpt lat="43.98765" lon="7.18164">
        <ele>1236.400024414</ele>
        <time>2012-05-05T08:51:05Z</time>
      </trkpt>
      <trkpt lat="43.98767" lon="7.1817">
        <ele>1236.400024414</ele>
        <time>2012-05-05T08:51:09Z</time>
      </trkpt>
      <trkpt lat="43.98771" lon="7.1818">
        <ele>1236.400024414</ele>
        <time>2012-05-05T08:51:16Z</time>
      </trkpt>
      <trkpt lat="43.98771" lon="7.18183">
        <ele>1237.400024414</ele>
        <time>2012-05-05T08:51:18Z</time>
      </trkpt>
      <trkpt lat="43.98772" lon="7.18188">
        <ele>1238.400024414</ele>
        <time>2012-05-05T08:51:22Z</time>
      </trkpt>
      <trkpt lat="43.98772" lon="7.18194">
        <ele>1239.599975586</ele>
        <time>2012-05-05T08:51:26Z</time>
      </trkpt>
      <trkpt lat="43.98772" lon="7.18199">
        <ele>1240.599975586</ele>
        <time>2012-05-05T08:51:30Z</time>
      </trkpt>
      <trkpt lat="43.98772" lon="7.182">
        <ele>1240.599975586</ele>
        <time>2012-05-05T08:51:31Z</time>
      </trkpt>
      <trkpt lat="43.98773" lon="7.18204">
        <ele>1240.599975586</ele>
        <time>2012-05-05T08:51:34Z</time>
      </trkpt>
      <trkpt lat="43.98773" lon="7.18207">
        <ele>1240.599975586</ele>
        <time>2012-05-05T08:51:36Z</time>
      </trkpt>
      <trkpt lat="43.98773" lon="7.18209">
        <ele>1241.800048828</ele>
        <time>2012-05-05T08:51:37Z</time>
      </trkpt>
      <trkpt lat="43.98776" lon="7.18217">
        <ele>1241.800048828</ele>
        <time>2012-05-05T08:51:43Z</time>
      </trkpt>
      <trkpt lat="43.98776" lon="7.18218">
        <ele>1241.800048828</ele>
        <time>2012-05-05T08:51:44Z</time>
      </trkpt>
      <trkpt lat="43.98777" lon="7.18223">
        <ele>1241.800048828</ele>
        <time>2012-05-05T08:51:47Z</time>
      </trkpt>
      <trkpt lat="43.98777" lon="7.18226">
        <ele>1241.800048828</ele>
        <time>2012-05-05T08:51:50Z</time>
      </trkpt>
      <trkpt lat="43.98777" lon="7.18228">
        <ele>1242.800048828</ele>
        <time>2012-05-05T08:51:51Z</time>
      </trkpt>
      <trkpt lat="43.98777" lon="7.18235">
        <ele>1244</ele>
        <time>2012-05-05T08:51:56Z</time>
      </trkpt>
      <trkpt lat="43.98777" lon="7.18236">
        <ele>1244</ele>
        <time>2012-05-05T08:51:57Z</time>
      </trkpt>
      <trkpt lat="43.98777" lon="7.18238">
        <ele>1244</ele>
        <time>2012-05-05T08:51:58Z</time>
      </trkpt>
      <trkpt lat="43.98777" lon="7.18243">
        <ele>1244</ele>
        <time>2012-05-05T08:52:02Z</time>
      </trkpt>
      <trkpt lat="43.98777" lon="7.18245">
        <ele>1244</ele>
        <time>2012-05-05T08:52:04Z</time>
      </trkpt>
      <trkpt lat="43.98778" lon="7.18254">
        <ele>1244</ele>
        <time>2012-05-05T08:52:10Z</time>
      </trkpt>
      <trkpt lat="43.98778" lon="7.18257">
        <ele>1244</ele>
        <time>2012-05-05T08:52:12Z</time>
      </trkpt>
      <trkpt lat="43.98778" lon="7.18261">
        <ele>1244</ele>
        <time>2012-05-05T08:52:16Z</time>
      </trkpt>
      <trkpt lat="43.98777" lon="7.18263">
        <ele>1246</ele>
        <time>2012-05-05T08:52:18Z</time>
      </trkpt>
      <trkpt lat="43.98778" lon="7.18268">
        <ele>1247.400024414</ele>
        <time>2012-05-05T08:52:22Z</time>
      </trkpt>
      <trkpt lat="43.98778" lon="7.18269">
        <ele>1247.400024414</ele>
        <time>2012-05-05T08:52:24Z</time>
      </trkpt>
      <trkpt lat="43.98778" lon="7.18271">
        <ele>1250.599975586</ele>
        <time>2012-05-05T08:52:25Z</time>
      </trkpt>
      <trkpt lat="43.98777" lon="7.18272">
        <ele>1247.599975586</ele>
        <time>2012-05-05T08:52:26Z</time>
      </trkpt>
      <trkpt lat="43.98777" lon="7.18273">
        <ele>1257.199951172</ele>
        <time>2012-05-05T08:52:27Z</time>
      </trkpt>
      <trkpt lat="43.98777" lon="7.18275">
        <ele>1253.199951172</ele>
        <time>2012-05-05T08:52:28Z</time>
      </trkpt>
      <trkpt lat="43.98777" lon="7.18276">
        <ele>1243.599975586</ele>
        <time>2012-05-05T08:52:29Z</time>
      </trkpt>
      <trkpt lat="43.98777" lon="7.18278">
        <ele>1249.800048828</ele>
        <time>2012-05-05T08:52:30Z</time>
      </trkpt>
      <trkpt lat="43.98777" lon="7.18279">
        <ele>1253.800048828</ele>
        <time>2012-05-05T08:52:31Z</time>
      </trkpt>
      <trkpt lat="43.98776" lon="7.1828">
        <ele>1248</ele>
        <time>2012-05-05T08:52:32Z</time>
      </trkpt>
      <trkpt lat="43.98776" lon="7.18282">
        <ele>1239.599975586</ele>
        <time>2012-05-05T08:52:33Z</time>
      </trkpt>
      <trkpt lat="43.98776" lon="7.18283">
        <ele>1238</ele>
        <time>2012-05-05T08:52:34Z</time>
      </trkpt>
      <trkpt lat="43.98777" lon="7.1829">
        <ele>1238</ele>
        <time>2012-05-05T08:52:40Z</time>
      </trkpt>
      <trkpt lat="43.98778" lon="7.183">
        <ele>1238</ele>
        <time>2012-05-05T08:52:47Z</time>
      </trkpt>
      <trkpt lat="43.98777" lon="7.18311">
        <ele>1238</ele>
        <time>2012-05-05T08:52:55Z</time>
      </trkpt>
      <trkpt lat="43.98777" lon="7.18315">
        <ele>1240</ele>
        <time>2012-05-05T08:52:58Z</time>
      </trkpt>
      <trkpt lat="43.98778" lon="7.18321">
        <ele>1241.199951172</ele>
        <time>2012-05-05T08:53:03Z</time>
      </trkpt>
      <trkpt lat="43.98779" lon="7.18325">
        <ele>1241.199951172</ele>
        <time>2012-05-05T08:53:10Z</time>
      </trkpt>
      <trkpt lat="43.98779" lon="7.18329">
        <ele>1241.199951172</ele>
        <time>2012-05-05T08:53:22Z</time>
      </trkpt>
      <trkpt lat="43.9878" lon="7.18332">
        <ele>1241.199951172</ele>
        <time>2012-05-05T08:53:28Z</time>
      </trkpt>
      <trkpt lat="43.98782" lon="7.18339">
        <ele>1241.199951172</ele>
        <time>2012-05-05T08:53:35Z</time>
      </trkpt>
      <trkpt lat="43.98782" lon="7.18342">
        <ele>1241.199951172</ele>
        <time>2012-05-05T08:53:36Z</time>
      </trkpt>
      <trkpt lat="43.98782" lon="7.1835">
        <ele>1242.400024414</ele>
        <time>2012-05-05T08:53:40Z</time>
      </trkpt>
      <trkpt lat="43.98782" lon="7.18354">
        <ele>1243.400024414</ele>
        <time>2012-05-05T08:53:42Z</time>
      </trkpt>
      <trkpt lat="43.98782" lon="7.18356">
        <ele>1243.400024414</ele>
        <time>2012-05-05T08:53:43Z</time>
      </trkpt>
      <trkpt lat="43.98784" lon="7.1837">
        <ele>1244.599975586</ele>
        <time>2012-05-05T08:53:50Z</time>
      </trkpt>
      <trkpt lat="43.98783" lon="7.18373">
        <ele>1244.599975586</ele>
        <time>2012-05-05T08:53:52Z</time>
      </trkpt>
      <trkpt lat="43.98782" lon="7.18383">
        <ele>1244.599975586</ele>
        <time>2012-05-05T08:53:57Z</time>
      </trkpt>
      <trkpt lat="43.98782" lon="7.18385">
        <ele>1245.599975586</ele>
        <time>2012-05-05T08:53:58Z</time>
      </trkpt>
      <trkpt lat="43.98782" lon="7.18388">
        <ele>1245.599975586</ele>
        <time>2012-05-05T08:54:00Z</time>
      </trkpt>
      <trkpt lat="43.98782" lon="7.18393">
        <ele>1245.599975586</ele>
        <time>2012-05-05T08:54:03Z</time>
      </trkpt>
      <trkpt lat="43.98784" lon="7.18399">
        <ele>1245.599975586</ele>
        <time>2012-05-05T08:54:08Z</time>
      </trkpt>
      <trkpt lat="43.98784" lon="7.18406">
        <ele>1245.599975586</ele>
        <time>2012-05-05T08:54:12Z</time>
      </trkpt>
      <trkpt lat="43.98783" lon="7.1841">
        <ele>1245.599975586</ele>
        <time>2012-05-05T08:54:14Z</time>
      </trkpt>
      <trkpt lat="43.98784" lon="7.18413">
        <ele>1245.599975586</ele>
        <time>2012-05-05T08:54:18Z</time>
      </trkpt>
      <trkpt lat="43.98784" lon="7.18415">
        <ele>1246.800048828</ele>
        <time>2012-05-05T08:54:19Z</time>
      </trkpt>
      <trkpt lat="43.98783" lon="7.18422">
        <ele>1247.800048828</ele>
        <time>2012-05-05T08:54:24Z</time>
      </trkpt>
      <trkpt lat="43.98782" lon="7.18426">
        <ele>1247.800048828</ele>
        <time>2012-05-05T08:54:26Z</time>
      </trkpt>
      <trkpt lat="43.98781" lon="7.18429">
        <ele>1249.199951172</ele>
        <time>2012-05-05T08:54:28Z</time>
      </trkpt>
      <trkpt lat="43.9878" lon="7.18431">
        <ele>1249.199951172</ele>
        <time>2012-05-05T08:54:30Z</time>
      </trkpt>
      <trkpt lat="43.9878" lon="7.18435">
        <ele>1249.199951172</ele>
        <time>2012-05-05T08:54:33Z</time>
      </trkpt>
      <trkpt lat="43.98779" lon="7.18437">
        <ele>1250.400024414</ele>
        <time>2012-05-05T08:54:35Z</time>
      </trkpt>
      <trkpt lat="43.98778" lon="7.18441">
        <ele>1250.400024414</ele>
        <time>2012-05-05T08:54:39Z</time>
      </trkpt>
      <trkpt lat="43.98776" lon="7.18444">
        <ele>1251.400024414</ele>
        <time>2012-05-05T08:54:43Z</time>
      </trkpt>
      <trkpt lat="43.98776" lon="7.18445">
        <ele>1251.400024414</ele>
        <time>2012-05-05T08:54:44Z</time>
      </trkpt>
      <trkpt lat="43.98775" lon="7.18447">
        <ele>1252.400024414</ele>
        <time>2012-05-05T08:54:47Z</time>
      </trkpt>
      <trkpt lat="43.98774" lon="7.18449">
        <ele>1252.400024414</ele>
        <time>2012-05-05T08:54:49Z</time>
      </trkpt>
      <trkpt lat="43.98774" lon="7.18454">
        <ele>1253.400024414</ele>
        <time>2012-05-05T08:54:55Z</time>
      </trkpt>
      <trkpt lat="43.98773" lon="7.18455">
        <ele>1253.400024414</ele>
        <time>2012-05-05T08:54:56Z</time>
      </trkpt>
      <trkpt lat="43.98772" lon="7.18459">
        <ele>1254.599975586</ele>
        <time>2012-05-05T08:55:00Z</time>
      </trkpt>
      <trkpt lat="43.98772" lon="7.18463">
        <ele>1255.599975586</ele>
        <time>2012-05-05T08:55:04Z</time>
      </trkpt>
      <trkpt lat="43.98771" lon="7.18468">
        <ele>1255.599975586</ele>
        <time>2012-05-05T08:55:12Z</time>
      </trkpt>
      <trkpt lat="43.98771" lon="7.18468">
        <ele>1256.599975586</ele>
        <time>2012-05-05T08:55:13Z</time>
      </trkpt>
      <trkpt lat="43.98771" lon="7.18469">
        <ele>1256.599975586</ele>
        <time>2012-05-05T08:55:20Z</time>
      </trkpt>
      <trkpt lat="43.9877" lon="7.18472">
        <ele>1257.800048828</ele>
        <time>2012-05-05T08:55:29Z</time>
      </trkpt>
      <trkpt lat="43.9877" lon="7.18473">
        <ele>1257.800048828</ele>
        <time>2012-05-05T08:55:30Z</time>
      </trkpt>
      <trkpt lat="43.9877" lon="7.18478">
        <ele>1257.800048828</ele>
        <time>2012-05-05T08:55:37Z</time>
      </trkpt>
      <trkpt lat="43.9877" lon="7.1848">
        <ele>1257.800048828</ele>
        <time>2012-05-05T08:55:41Z</time>
      </trkpt>
      <trkpt lat="43.9877" lon="7.18482">
        <ele>1258.800048828</ele>
        <time>2012-05-05T08:55:43Z</time>
      </trkpt>
      <trkpt lat="43.98771" lon="7.18487">
        <ele>1259.800048828</ele>
        <time>2012-05-05T08:55:48Z</time>
      </trkpt>
      <trkpt lat="43.98771" lon="7.1849">
        <ele>1260.800048828</ele>
        <time>2012-05-05T08:55:53Z</time>
      </trkpt>
      <trkpt lat="43.98771" lon="7.18493">
        <ele>1260.800048828</ele>
        <time>2012-05-05T08:55:55Z</time>
      </trkpt>
      <trkpt lat="43.98771" lon="7.18495">
        <ele>1261.800048828</ele>
        <time>2012-05-05T08:55:57Z</time>
      </trkpt>
      <trkpt lat="43.98771" lon="7.18498">
        <ele>1262.800048828</ele>
        <time>2012-05-05T08:56:00Z</time>
      </trkpt>
      <trkpt lat="43.98771" lon="7.18499">
        <ele>1262.800048828</ele>
        <time>2012-05-05T08:56:03Z</time>
      </trkpt>
      <trkpt lat="43.98771" lon="7.18501">
        <ele>1262.800048828</ele>
        <time>2012-05-05T08:56:08Z</time>
      </trkpt>
      <trkpt lat="43.98771" lon="7.18501">
        <ele>1263.800048828</ele>
        <time>2012-05-05T08:56:09Z</time>
      </trkpt>
      <trkpt lat="43.98771" lon="7.18505">
        <ele>1265</ele>
        <time>2012-05-05T08:56:13Z</time>
      </trkpt>
      <trkpt lat="43.98771" lon="7.18504">
        <ele>1265</ele>
        <time>2012-05-05T08:56:14Z</time>
      </trkpt>
      <trkpt lat="43.98772" lon="7.18509">
        <ele>1266.199951172</ele>
        <time>2012-05-05T08:56:17Z</time>
      </trkpt>
      <trkpt lat="43.98773" lon="7.18513">
        <ele>1266.199951172</ele>
        <time>2012-05-05T08:56:21Z</time>
      </trkpt>
      <trkpt lat="43.98773" lon="7.18514">
        <ele>1267.400024414</ele>
        <time>2012-05-05T08:56:22Z</time>
      </trkpt>
      <trkpt lat="43.98774" lon="7.18519">
        <ele>1268.400024414</ele>
        <time>2012-05-05T08:56:26Z</time>
      </trkpt>
      <trkpt lat="43.98775" lon="7.18522">
        <ele>1268.400024414</ele>
        <time>2012-05-05T08:56:29Z</time>
      </trkpt>
      <trkpt lat="43.98775" lon="7.18523">
        <ele>1269.400024414</ele>
        <time>2012-05-05T08:56:30Z</time>
      </trkpt>
      <trkpt lat="43.98777" lon="7.18531">
        <ele>1269.400024414</ele>
        <time>2012-05-05T08:56:37Z</time>
      </trkpt>
      <trkpt lat="43.98777" lon="7.18531">
        <ele>1270.599975586</ele>
        <time>2012-05-05T08:56:38Z</time>
      </trkpt>
      <trkpt lat="43.9878" lon="7.18535">
        <ele>1270.599975586</ele>
        <time>2012-05-05T08:56:43Z</time>
      </trkpt>
      <trkpt lat="43.98781" lon="7.18537">
        <ele>1271.599975586</ele>
        <time>2012-05-05T08:56:46Z</time>
      </trkpt>
      <trkpt lat="43.98785" lon="7.18542">
        <ele>1271.599975586</ele>
        <time>2012-05-05T08:56:51Z</time>
      </trkpt>
      <trkpt lat="43.98787" lon="7.18545">
        <ele>1271.599975586</ele>
        <time>2012-05-05T08:56:54Z</time>
      </trkpt>
      <trkpt lat="43.98788" lon="7.18548">
        <ele>1271.599975586</ele>
        <time>2012-05-05T08:56:57Z</time>
      </trkpt>
      <trkpt lat="43.98791" lon="7.18552">
        <ele>1273.599975586</ele>
        <time>2012-05-05T08:57:02Z</time>
      </trkpt>
      <trkpt lat="43.98792" lon="7.18555">
        <ele>1273.599975586</ele>
        <time>2012-05-05T08:57:04Z</time>
      </trkpt>
      <trkpt lat="43.98793" lon="7.18558">
        <ele>1273.599975586</ele>
        <time>2012-05-05T08:57:07Z</time>
      </trkpt>
      <trkpt lat="43.98792" lon="7.18559">
        <ele>1274.800048828</ele>
        <time>2012-05-05T08:57:08Z</time>
      </trkpt>
      <trkpt lat="43.98794" lon="7.18563">
        <ele>1274.800048828</ele>
        <time>2012-05-05T08:57:13Z</time>
      </trkpt>
      <trkpt lat="43.98796" lon="7.18565">
        <ele>1275.800048828</ele>
        <time>2012-05-05T08:57:16Z</time>
      </trkpt>
      <trkpt lat="43.98799" lon="7.18567">
        <ele>1275.800048828</ele>
        <time>2012-05-05T08:57:19Z</time>
      </trkpt>
      <trkpt lat="43.98803" lon="7.1857">
        <ele>1277</ele>
        <time>2012-05-05T08:57:23Z</time>
      </trkpt>
      <trkpt lat="43.98806" lon="7.18574">
        <ele>1277</ele>
        <time>2012-05-05T08:57:27Z</time>
      </trkpt>
      <trkpt lat="43.98806" lon="7.18574">
        <ele>1278</ele>
        <time>2012-05-05T08:57:28Z</time>
      </trkpt>
      <trkpt lat="43.98809" lon="7.18579">
        <ele>1273.599975586</ele>
        <time>2012-05-05T08:57:32Z</time>
      </trkpt>
      <trkpt lat="43.98809" lon="7.1858">
        <ele>1270.800048828</ele>
        <time>2012-05-05T08:57:33Z</time>
      </trkpt>
      <trkpt lat="43.9881" lon="7.18581">
        <ele>1267</ele>
        <time>2012-05-05T08:57:34Z</time>
      </trkpt>
      <trkpt lat="43.9881" lon="7.18582">
        <ele>1267</ele>
        <time>2012-05-05T08:57:35Z</time>
      </trkpt>
      <trkpt lat="43.98813" lon="7.18587">
        <ele>1267</ele>
        <time>2012-05-05T08:57:41Z</time>
      </trkpt>
      <trkpt lat="43.98816" lon="7.18592">
        <ele>1267</ele>
        <time>2012-05-05T08:57:48Z</time>
      </trkpt>
      <trkpt lat="43.98817" lon="7.18593">
        <ele>1267</ele>
        <time>2012-05-05T08:57:51Z</time>
      </trkpt>
      <trkpt lat="43.98817" lon="7.18593">
        <ele>1267</ele>
        <time>2012-05-05T08:57:54Z</time>
      </trkpt>
      <trkpt lat="43.98818" lon="7.18594">
        <ele>1269</ele>
        <time>2012-05-05T08:57:58Z</time>
      </trkpt>
      <trkpt lat="43.98821" lon="7.18598">
        <ele>1269</ele>
        <time>2012-05-05T08:58:01Z</time>
      </trkpt>
      <trkpt lat="43.98826" lon="7.18603">
        <ele>1269</ele>
        <time>2012-05-05T08:58:05Z</time>
      </trkpt>
      <trkpt lat="43.98834" lon="7.18611">
        <ele>1269</ele>
        <time>2012-05-05T08:58:11Z</time>
      </trkpt>
      <trkpt lat="43.98842" lon="7.18619">
        <ele>1269</ele>
        <time>2012-05-05T08:58:16Z</time>
      </trkpt>
      <trkpt lat="43.98847" lon="7.18623">
        <ele>1269</ele>
        <time>2012-05-05T08:58:20Z</time>
      </trkpt>
      <trkpt lat="43.98848" lon="7.18624">
        <ele>1269</ele>
        <time>2012-05-05T08:58:21Z</time>
      </trkpt>
      <trkpt lat="43.98853" lon="7.18627">
        <ele>1269</ele>
        <time>2012-05-05T08:58:24Z</time>
      </trkpt>
      <trkpt lat="43.98854" lon="7.18629">
        <ele>1269</ele>
        <time>2012-05-05T08:58:25Z</time>
      </trkpt>
      <trkpt lat="43.98855" lon="7.18631">
        <ele>1269</ele>
        <time>2012-05-05T08:58:26Z</time>
      </trkpt>
      <trkpt lat="43.98856" lon="7.18633">
        <ele>1271.199951172</ele>
        <time>2012-05-05T08:58:28Z</time>
      </trkpt>
      <trkpt lat="43.98858" lon="7.18635">
        <ele>1271.199951172</ele>
        <time>2012-05-05T08:58:29Z</time>
      </trkpt>
      <trkpt lat="43.9886" lon="7.18638">
        <ele>1272.400024414</ele>
        <time>2012-05-05T08:58:31Z</time>
      </trkpt>
      <trkpt lat="43.9886" lon="7.18639">
        <ele>1272.400024414</ele>
        <time>2012-05-05T08:58:32Z</time>
      </trkpt>
      <trkpt lat="43.98865" lon="7.18645">
        <ele>1273.599975586</ele>
        <time>2012-05-05T08:58:36Z</time>
      </trkpt>
      <trkpt lat="43.98866" lon="7.18647">
        <ele>1273.599975586</ele>
        <time>2012-05-05T08:58:38Z</time>
      </trkpt>
      <trkpt lat="43.98868" lon="7.18651">
        <ele>1278.599975586</ele>
        <time>2012-05-05T08:58:40Z</time>
      </trkpt>
      <trkpt lat="43.98871" lon="7.18654">
        <ele>1273.599975586</ele>
        <time>2012-05-05T08:58:42Z</time>
      </trkpt>
      <trkpt lat="43.98873" lon="7.18655">
        <ele>1282.199951172</ele>
        <time>2012-05-05T08:58:43Z</time>
      </trkpt>
      <trkpt lat="43.98874" lon="7.18656">
        <ele>1284.800048828</ele>
        <time>2012-05-05T08:58:44Z</time>
      </trkpt>
      <trkpt lat="43.98876" lon="7.18659">
        <ele>1280</ele>
        <time>2012-05-05T08:58:46Z</time>
      </trkpt>
      <trkpt lat="43.98877" lon="7.18661">
        <ele>1264.400024414</ele>
        <time>2012-05-05T08:58:47Z</time>
      </trkpt>
      <trkpt lat="43.98877" lon="7.18663">
        <ele>1270.599975586</ele>
        <time>2012-05-05T08:58:48Z</time>
      </trkpt>
      <trkpt lat="43.98877" lon="7.18665">
        <ele>1275.400024414</ele>
        <time>2012-05-05T08:58:49Z</time>
      </trkpt>
      <trkpt lat="43.98876" lon="7.18675">
        <ele>1275.400024414</ele>
        <time>2012-05-05T08:58:55Z</time>
      </trkpt>
      <trkpt lat="43.98872" lon="7.18682">
        <ele>1275.400024414</ele>
        <time>2012-05-05T08:59:00Z</time>
      </trkpt>
      <trkpt lat="43.98873" lon="7.18681">
        <ele>1275.400024414</ele>
        <time>2012-05-05T08:59:01Z</time>
      </trkpt>
      <trkpt lat="43.98869" lon="7.18688">
        <ele>1275.400024414</ele>
        <time>2012-05-05T08:59:07Z</time>
      </trkpt>
      <trkpt lat="43.98866" lon="7.18696">
        <ele>1275.400024414</ele>
        <time>2012-05-05T08:59:14Z</time>
      </trkpt>
      <trkpt lat="43.98863" lon="7.18704">
        <ele>1275.400024414</ele>
        <time>2012-05-05T08:59:22Z</time>
      </trkpt>
      <trkpt lat="43.98861" lon="7.18711">
        <ele>1275.400024414</ele>
        <time>2012-05-05T08:59:28Z</time>
      </trkpt>
      <trkpt lat="43.98859" lon="7.18717">
        <ele>1275.400024414</ele>
        <time>2012-05-05T08:59:35Z</time>
      </trkpt>
      <trkpt lat="43.98858" lon="7.18724">
        <ele>1275.400024414</ele>
        <time>2012-05-05T08:59:42Z</time>
      </trkpt>
      <trkpt lat="43.98859" lon="7.18732">
        <ele>1277.400024414</ele>
        <time>2012-05-05T08:59:48Z</time>
      </trkpt>
      <trkpt lat="43.98865" lon="7.18739">
        <ele>1277.400024414</ele>
        <time>2012-05-05T08:59:55Z</time>
      </trkpt>
      <trkpt lat="43.98868" lon="7.18748">
        <ele>1277.400024414</ele>
        <time>2012-05-05T09:00:01Z</time>
      </trkpt>
      <trkpt lat="43.98868" lon="7.1875">
        <ele>1277.400024414</ele>
        <time>2012-05-05T09:00:02Z</time>
      </trkpt>
      <trkpt lat="43.9887" lon="7.18753">
        <ele>1277.400024414</ele>
        <time>2012-05-05T09:00:05Z</time>
      </trkpt>
      <trkpt lat="43.98872" lon="7.18758">
        <ele>1277.400024414</ele>
        <time>2012-05-05T09:00:08Z</time>
      </trkpt>
      <trkpt lat="43.98873" lon="7.18759">
        <ele>1277.400024414</ele>
        <time>2012-05-05T09:00:11Z</time>
      </trkpt>
      <trkpt lat="43.98874" lon="7.18762">
        <ele>1278.400024414</ele>
        <time>2012-05-05T09:00:14Z</time>
      </trkpt>
      <trkpt lat="43.98876" lon="7.18764">
        <ele>1278.400024414</ele>
        <time>2012-05-05T09:00:19Z</time>
      </trkpt>
      <trkpt lat="43.98877" lon="7.18766">
        <ele>1278.400024414</ele>
        <time>2012-05-05T09:00:20Z</time>
      </trkpt>
      <trkpt lat="43.98878" lon="7.18776">
        <ele>1278.400024414</ele>
        <time>2012-05-05T09:00:25Z</time>
      </trkpt>
      <trkpt lat="43.98876" lon="7.18789">
        <ele>1278.400024414</ele>
        <time>2012-05-05T09:00:29Z</time>
      </trkpt>
      <trkpt lat="43.98874" lon="7.18799">
        <ele>1278.400024414</ele>
        <time>2012-05-05T09:00:32Z</time>
      </trkpt>
      <trkpt lat="43.98875" lon="7.188">
        <ele>1278.400024414</ele>
        <time>2012-05-05T09:00:33Z</time>
      </trkpt>
      <trkpt lat="43.98875" lon="7.18804">
        <ele>1279.599975586</ele>
        <time>2012-05-05T09:00:36Z</time>
      </trkpt>
      <trkpt lat="43.98875" lon="7.18809">
        <ele>1279.599975586</ele>
        <time>2012-05-05T09:00:40Z</time>
      </trkpt>
      <trkpt lat="43.98874" lon="7.18813">
        <ele>1280.599975586</ele>
        <time>2012-05-05T09:00:44Z</time>
      </trkpt>
      <trkpt lat="43.98872" lon="7.18815">
        <ele>1280.599975586</ele>
        <time>2012-05-05T09:00:46Z</time>
      </trkpt>
      <trkpt lat="43.98871" lon="7.18823">
        <ele>1280.599975586</ele>
        <time>2012-05-05T09:00:54Z</time>
      </trkpt>
      <trkpt lat="43.9887" lon="7.18826">
        <ele>1281.599975586</ele>
        <time>2012-05-05T09:00:58Z</time>
      </trkpt>
      <trkpt lat="43.9887" lon="7.18829">
        <ele>1281.599975586</ele>
        <time>2012-05-05T09:01:00Z</time>
      </trkpt>
      <trkpt lat="43.98869" lon="7.18834">
        <ele>1283</ele>
        <time>2012-05-05T09:01:04Z</time>
      </trkpt>
      <trkpt lat="43.98868" lon="7.18838">
        <ele>1283</ele>
        <time>2012-05-05T09:01:07Z</time>
      </trkpt>
      <trkpt lat="43.98868" lon="7.18839">
        <ele>1284</ele>
        <time>2012-05-05T09:01:08Z</time>
      </trkpt>
      <trkpt lat="43.98866" lon="7.18845">
        <ele>1284</ele>
        <time>2012-05-05T09:01:13Z</time>
      </trkpt>
      <trkpt lat="43.98867" lon="7.18846">
        <ele>1285.199951172</ele>
        <time>2012-05-05T09:01:14Z</time>
      </trkpt>
      <trkpt lat="43.98868" lon="7.18853">
        <ele>1285.199951172</ele>
        <time>2012-05-05T09:01:20Z</time>
      </trkpt>
      <trkpt lat="43.98869" lon="7.18859">
        <ele>1285.199951172</ele>
        <time>2012-05-05T09:01:26Z</time>
      </trkpt>
      <trkpt lat="43.98869" lon="7.18868">
        <ele>1287.400024414</ele>
        <time>2012-05-05T09:01:32Z</time>
      </trkpt>
      <trkpt lat="43.9887" lon="7.1887">
        <ele>1289.800048828</ele>
        <time>2012-05-05T09:01:34Z</time>
      </trkpt>
      <trkpt lat="43.9887" lon="7.18873">
        <ele>1289.800048828</ele>
        <time>2012-05-05T09:01:36Z</time>
      </trkpt>
      <trkpt lat="43.9887" lon="7.18874">
        <ele>1289.800048828</ele>
        <time>2012-05-05T09:01:37Z</time>
      </trkpt>
      <trkpt lat="43.9887" lon="7.18875">
        <ele>1289.800048828</ele>
        <time>2012-05-05T09:01:38Z</time>
      </trkpt>
      <trkpt lat="43.98869" lon="7.18881">
        <ele>1289.800048828</ele>
        <time>2012-05-05T09:01:44Z</time>
      </trkpt>
      <trkpt lat="43.98868" lon="7.18888">
        <ele>1289.800048828</ele>
        <time>2012-05-05T09:01:51Z</time>
      </trkpt>
      <trkpt lat="43.98868" lon="7.18889">
        <ele>1292</ele>
        <time>2012-05-05T09:01:54Z</time>
      </trkpt>
      <trkpt lat="43.98868" lon="7.18891">
        <ele>1292</ele>
        <time>2012-05-05T09:01:57Z</time>
      </trkpt>
      <trkpt lat="43.98868" lon="7.18896">
        <ele>1293</ele>
        <time>2012-05-05T09:02:03Z</time>
      </trkpt>
      <trkpt lat="43.98869" lon="7.18898">
        <ele>1294</ele>
        <time>2012-05-05T09:02:06Z</time>
      </trkpt>
      <trkpt lat="43.98871" lon="7.18902">
        <ele>1294</ele>
        <time>2012-05-05T09:02:09Z</time>
      </trkpt>
      <trkpt lat="43.98871" lon="7.18909">
        <ele>1295.400024414</ele>
        <time>2012-05-05T09:02:15Z</time>
      </trkpt>
      <trkpt lat="43.98871" lon="7.18911">
        <ele>1295.400024414</ele>
        <time>2012-05-05T09:02:17Z</time>
      </trkpt>
      <trkpt lat="43.98868" lon="7.1892">
        <ele>1295.400024414</ele>
        <time>2012-05-05T09:02:26Z</time>
      </trkpt>
      <trkpt lat="43.98868" lon="7.18924">
        <ele>1296.400024414</ele>
        <time>2012-05-05T09:02:30Z</time>
      </trkpt>
      <trkpt lat="43.9887" lon="7.18928">
        <ele>1296.400024414</ele>
        <time>2012-05-05T09:02:34Z</time>
      </trkpt>
      <trkpt lat="43.98871" lon="7.18929">
        <ele>1297.400024414</ele>
        <time>2012-05-05T09:02:35Z</time>
      </trkpt>
      <trkpt lat="43.98871" lon="7.18929">
        <ele>1299.599975586</ele>
        <time>2012-05-05T09:02:37Z</time>
      </trkpt>
      <trkpt lat="43.98872" lon="7.18931">
        <ele>1295.599975586</ele>
        <time>2012-05-05T09:02:38Z</time>
      </trkpt>
      <trkpt lat="43.98872" lon="7.18933">
        <ele>1295.599975586</ele>
        <time>2012-05-05T09:02:40Z</time>
      </trkpt>
      <trkpt lat="43.98872" lon="7.18936">
        <ele>1297.599975586</ele>
        <time>2012-05-05T09:02:43Z</time>
      </trkpt>
      <trkpt lat="43.98872" lon="7.18939">
        <ele>1298.599975586</ele>
        <time>2012-05-05T09:02:46Z</time>
      </trkpt>
      <trkpt lat="43.98872" lon="7.1894">
        <ele>1298.599975586</ele>
        <time>2012-05-05T09:02:48Z</time>
      </trkpt>
      <trkpt lat="43.98872" lon="7.18941">
        <ele>1299.800048828</ele>
        <time>2012-05-05T09:02:49Z</time>
      </trkpt>
      <trkpt lat="43.98872" lon="7.18942">
        <ele>1300.800048828</ele>
        <time>2012-05-05T09:02:52Z</time>
      </trkpt>
      <trkpt lat="43.98874" lon="7.18944">
        <ele>1300.800048828</ele>
        <time>2012-05-05T09:02:55Z</time>
      </trkpt>
      <trkpt lat="43.98874" lon="7.18945">
        <ele>1302</ele>
        <time>2012-05-05T09:02:57Z</time>
      </trkpt>
      <trkpt lat="43.98875" lon="7.18948">
        <ele>1303</ele>
        <time>2012-05-05T09:03:01Z</time>
      </trkpt>
      <trkpt lat="43.98873" lon="7.18948">
        <ele>1304.199951172</ele>
        <time>2012-05-05T09:03:07Z</time>
      </trkpt>
      <trkpt lat="43.98873" lon="7.1895">
        <ele>1304.199951172</ele>
        <time>2012-05-05T09:03:13Z</time>
      </trkpt>
      <trkpt lat="43.98874" lon="7.1895">
        <ele>1305.199951172</ele>
        <time>2012-05-05T09:03:18Z</time>
      </trkpt>
      <trkpt lat="43.98874" lon="7.1895">
        <ele>1305.199951172</ele>
        <time>2012-05-05T09:03:20Z</time>
      </trkpt>
      <trkpt lat="43.98874" lon="7.1895">
        <ele>1306.199951172</ele>
        <time>2012-05-05T09:03:24Z</time>
      </trkpt>
      <trkpt lat="43.98874" lon="7.18952">
        <ele>1306.199951172</ele>
        <time>2012-05-05T09:03:27Z</time>
      </trkpt>
      <trkpt lat="43.98875" lon="7.18951">
        <ele>1307.199951172</ele>
        <time>2012-05-05T09:03:30Z</time>
      </trkpt>
      <trkpt lat="43.98876" lon="7.18951">
        <ele>1307.199951172</ele>
        <time>2012-05-05T09:03:34Z</time>
      </trkpt>
      <trkpt lat="43.98875" lon="7.18952">
        <ele>1307.199951172</ele>
        <time>2012-05-05T09:03:36Z</time>
      </trkpt>
      <trkpt lat="43.98875" lon="7.18952">
        <ele>1307.199951172</ele>
        <time>2012-05-05T09:03:39Z</time>
      </trkpt>
      <trkpt lat="43.98875" lon="7.18952">
        <ele>1307.199951172</ele>
        <time>2012-05-05T09:03:44Z</time>
      </trkpt>
      <trkpt lat="43.98874" lon="7.18953">
        <ele>1307.199951172</ele>
        <time>2012-05-05T09:03:49Z</time>
      </trkpt>
      <trkpt lat="43.98872" lon="7.18952">
        <ele>1307.199951172</ele>
        <time>2012-05-05T09:03:52Z</time>
      </trkpt>
      <trkpt lat="43.98871" lon="7.18952">
        <ele>1307.199951172</ele>
        <time>2012-05-05T09:03:54Z</time>
      </trkpt>
      <trkpt lat="43.98868" lon="7.1895">
        <ele>1307.199951172</ele>
        <time>2012-05-05T09:03:59Z</time>
      </trkpt>
      <trkpt lat="43.98866" lon="7.18949">
        <ele>1309.199951172</ele>
        <time>2012-05-05T09:04:02Z</time>
      </trkpt>
      <trkpt lat="43.98864" lon="7.18947">
        <ele>1309.199951172</ele>
        <time>2012-05-05T09:04:06Z</time>
      </trkpt>
      <trkpt lat="43.98863" lon="7.18947">
        <ele>1310.400024414</ele>
        <time>2012-05-05T09:04:08Z</time>
      </trkpt>
      <trkpt lat="43.98863" lon="7.18947">
        <ele>1313.800048828</ele>
        <time>2012-05-05T09:04:09Z</time>
      </trkpt>
      <trkpt lat="43.98863" lon="7.18948">
        <ele>1313.800048828</ele>
        <time>2012-05-05T09:04:13Z</time>
      </trkpt>
      <trkpt lat="43.98863" lon="7.1895">
        <ele>1310</ele>
        <time>2012-05-05T09:04:15Z</time>
      </trkpt>
      <trkpt lat="43.98863" lon="7.1895">
        <ele>1312</ele>
        <time>2012-05-05T09:04:16Z</time>
      </trkpt>
      <trkpt lat="43.98864" lon="7.18951">
        <ele>1334</ele>
        <time>2012-05-05T09:04:17Z</time>
      </trkpt>
      <trkpt lat="43.98865" lon="7.18954">
        <ele>1334</ele>
        <time>2012-05-05T09:04:21Z</time>
      </trkpt>
      <trkpt lat="43.98866" lon="7.18958">
        <ele>1334</ele>
        <time>2012-05-05T09:04:26Z</time>
      </trkpt>
      <trkpt lat="43.98868" lon="7.18961">
        <ele>1336</ele>
        <time>2012-05-05T09:04:30Z</time>
      </trkpt>
      <trkpt lat="43.98869" lon="7.18962">
        <ele>1336</ele>
        <time>2012-05-05T09:04:32Z</time>
      </trkpt>
      <trkpt lat="43.98872" lon="7.18964">
        <ele>1337.199951172</ele>
        <time>2012-05-05T09:04:38Z</time>
      </trkpt>
      <trkpt lat="43.98872" lon="7.18964">
        <ele>1337.199951172</ele>
        <time>2012-05-05T09:04:39Z</time>
      </trkpt>
      <trkpt lat="43.98873" lon="7.18965">
        <ele>1338.199951172</ele>
        <time>2012-05-05T09:04:46Z</time>
      </trkpt>
      <trkpt lat="43.98873" lon="7.18965">
        <ele>1338.199951172</ele>
        <time>2012-05-05T09:04:47Z</time>
      </trkpt>
      <trkpt lat="43.98875" lon="7.18969">
        <ele>1338.199951172</ele>
        <time>2012-05-05T09:04:54Z</time>
      </trkpt>
      <trkpt lat="43.98877" lon="7.1897">
        <ele>1338.199951172</ele>
        <time>2012-05-05T09:04:59Z</time>
      </trkpt>
      <trkpt lat="43.98881" lon="7.18971">
        <ele>1338.199951172</ele>
        <time>2012-05-05T09:05:05Z</time>
      </trkpt>
      <trkpt lat="43.98891" lon="7.18967">
        <ele>1338.199951172</ele>
        <time>2012-05-05T09:05:11Z</time>
      </trkpt>
      <trkpt lat="43.98898" lon="7.18965">
        <ele>1338.199951172</ele>
        <time>2012-05-05T09:05:15Z</time>
      </trkpt>
      <trkpt lat="43.98901" lon="7.18966">
        <ele>1338.199951172</ele>
        <time>2012-05-05T09:05:17Z</time>
      </trkpt>
      <trkpt lat="43.98906" lon="7.18969">
        <ele>1338.199951172</ele>
        <time>2012-05-05T09:05:20Z</time>
      </trkpt>
      <trkpt lat="43.98909" lon="7.18973">
        <ele>1338.199951172</ele>
        <time>2012-05-05T09:05:22Z</time>
      </trkpt>
      <trkpt lat="43.98917" lon="7.18977">
        <ele>1338.199951172</ele>
        <time>2012-05-05T09:05:28Z</time>
      </trkpt>
      <trkpt lat="43.9892" lon="7.18978">
        <ele>1338.199951172</ele>
        <time>2012-05-05T09:05:31Z</time>
      </trkpt>
      <trkpt lat="43.98921" lon="7.18978">
        <ele>1338.199951172</ele>
        <time>2012-05-05T09:05:32Z</time>
      </trkpt>
      <trkpt lat="43.98924" lon="7.1898">
        <ele>1338.199951172</ele>
        <time>2012-05-05T09:05:39Z</time>
      </trkpt>
      <trkpt lat="43.98929" lon="7.18986">
        <ele>1338.199951172</ele>
        <time>2012-05-05T09:05:46Z</time>
      </trkpt>
      <trkpt lat="43.98928" lon="7.18995">
        <ele>1338.199951172</ele>
        <time>2012-05-05T09:05:50Z</time>
      </trkpt>
      <trkpt lat="43.98927" lon="7.19005">
        <ele>1338.199951172</ele>
        <time>2012-05-05T09:05:54Z</time>
      </trkpt>
      <trkpt lat="43.98927" lon="7.19009">
        <ele>1338.199951172</ele>
        <time>2012-05-05T09:05:56Z</time>
      </trkpt>
      <trkpt lat="43.98927" lon="7.19013">
        <ele>1338.199951172</ele>
        <time>2012-05-05T09:05:58Z</time>
      </trkpt>
      <trkpt lat="43.98928" lon="7.19018">
        <ele>1338.199951172</ele>
        <time>2012-05-05T09:06:02Z</time>
      </trkpt>
      <trkpt lat="43.98928" lon="7.19017">
        <ele>1338.199951172</ele>
        <time>2012-05-05T09:06:03Z</time>
      </trkpt>
      <trkpt lat="43.98931" lon="7.19026">
        <ele>1338.199951172</ele>
        <time>2012-05-05T09:06:09Z</time>
      </trkpt>
      <trkpt lat="43.98933" lon="7.19033">
        <ele>1340.400024414</ele>
        <time>2012-05-05T09:06:14Z</time>
      </trkpt>
      <trkpt lat="43.98934" lon="7.19034">
        <ele>1340.400024414</ele>
        <time>2012-05-05T09:06:15Z</time>
      </trkpt>
      <trkpt lat="43.98935" lon="7.19036">
        <ele>1341.400024414</ele>
        <time>2012-05-05T09:06:17Z</time>
      </trkpt>
      <trkpt lat="43.98938" lon="7.19039">
        <ele>1342.599975586</ele>
        <time>2012-05-05T09:06:22Z</time>
      </trkpt>
      <trkpt lat="43.98938" lon="7.1904">
        <ele>1342.599975586</ele>
        <time>2012-05-05T09:06:23Z</time>
      </trkpt>
      <trkpt lat="43.98942" lon="7.19046">
        <ele>1342.599975586</ele>
        <time>2012-05-05T09:06:27Z</time>
      </trkpt>
      <trkpt lat="43.98945" lon="7.19047">
        <ele>1342.599975586</ele>
        <time>2012-05-05T09:06:28Z</time>
      </trkpt>
      <trkpt lat="43.98951" lon="7.19051">
        <ele>1342.599975586</ele>
        <time>2012-05-05T09:06:31Z</time>
      </trkpt>
      <trkpt lat="43.98958" lon="7.19054">
        <ele>1343.599975586</ele>
        <time>2012-05-05T09:06:34Z</time>
      </trkpt>
      <trkpt lat="43.9896" lon="7.19055">
        <ele>1343.599975586</ele>
        <time>2012-05-05T09:06:35Z</time>
      </trkpt>
      <trkpt lat="43.98969" lon="7.19055">
        <ele>1343.599975586</ele>
        <time>2012-05-05T09:06:40Z</time>
      </trkpt>
      <trkpt lat="43.98976" lon="7.19054">
        <ele>1343.599975586</ele>
        <time>2012-05-05T09:06:45Z</time>
      </trkpt>
      <trkpt lat="43.98978" lon="7.19055">
        <ele>1343.599975586</ele>
        <time>2012-05-05T09:06:52Z</time>
      </trkpt>
      <trkpt lat="43.98978" lon="7.19056">
        <ele>1343.599975586</ele>
        <time>2012-05-05T09:06:59Z</time>
      </trkpt>
      <trkpt lat="43.9898" lon="7.19056">
        <ele>1343.599975586</ele>
        <time>2012-05-05T09:07:03Z</time>
      </trkpt>
      <trkpt lat="43.98981" lon="7.19057">
        <ele>1343.599975586</ele>
        <time>2012-05-05T09:07:09Z</time>
      </trkpt>
      <trkpt lat="43.98982" lon="7.19056">
        <ele>1343.599975586</ele>
        <time>2012-05-05T09:07:13Z</time>
      </trkpt>
      <trkpt lat="43.98982" lon="7.19057">
        <ele>1343.599975586</ele>
        <time>2012-05-05T09:07:18Z</time>
      </trkpt>
      <trkpt lat="43.98983" lon="7.19056">
        <ele>1343.599975586</ele>
        <time>2012-05-05T09:07:22Z</time>
      </trkpt>
      <trkpt lat="43.98983" lon="7.19056">
        <ele>1343.599975586</ele>
        <time>2012-05-05T09:07:29Z</time>
      </trkpt>
      <trkpt lat="43.9898" lon="7.19055">
        <ele>1343.599975586</ele>
        <time>2012-05-05T09:07:35Z</time>
      </trkpt>
      <trkpt lat="43.9898" lon="7.19054">
        <ele>1343.599975586</ele>
        <time>2012-05-05T09:07:38Z</time>
      </trkpt>
      <trkpt lat="43.98979" lon="7.19055">
        <ele>1343.599975586</ele>
        <time>2012-05-05T09:07:40Z</time>
      </trkpt>
      <trkpt lat="43.98982" lon="7.19054">
        <ele>1343.599975586</ele>
        <time>2012-05-05T09:07:43Z</time>
      </trkpt>
      <trkpt lat="43.98983" lon="7.19053">
        <ele>1343.599975586</ele>
        <time>2012-05-05T09:07:48Z</time>
      </trkpt>
      <trkpt lat="43.98983" lon="7.19055">
        <ele>1343.599975586</ele>
        <time>2012-05-05T09:07:52Z</time>
      </trkpt>
      <trkpt lat="43.98989" lon="7.19058">
        <ele>1343.599975586</ele>
        <time>2012-05-05T09:07:57Z</time>
      </trkpt>
      <trkpt lat="43.98992" lon="7.19061">
        <ele>1343.599975586</ele>
        <time>2012-05-05T09:08:00Z</time>
      </trkpt>
      <trkpt lat="43.98994" lon="7.19064">
        <ele>1343.599975586</ele>
        <time>2012-05-05T09:08:04Z</time>
      </trkpt>
      <trkpt lat="43.98992" lon="7.19061">
        <ele>1343.599975586</ele>
        <time>2012-05-05T09:08:09Z</time>
      </trkpt>
      <trkpt lat="43.98992" lon="7.19062">
        <ele>1343.599975586</ele>
        <time>2012-05-05T09:08:12Z</time>
      </trkpt>
      <trkpt lat="43.98993" lon="7.19063">
        <ele>1343.599975586</ele>
        <time>2012-05-05T09:08:15Z</time>
      </trkpt>
      <trkpt lat="43.98994" lon="7.19064">
        <ele>1343.599975586</ele>
        <time>2012-05-05T09:08:20Z</time>
      </trkpt>
      <trkpt lat="43.98994" lon="7.19064">
        <ele>1343.599975586</ele>
        <time>2012-05-05T09:08:24Z</time>
      </trkpt>
      <trkpt lat="43.98995" lon="7.19064">
        <ele>1343.599975586</ele>
        <time>2012-05-05T09:08:36Z</time>
      </trkpt>
      <trkpt lat="43.98996" lon="7.19064">
        <ele>1343.599975586</ele>
        <time>2012-05-05T09:08:38Z</time>
      </trkpt>
      <trkpt lat="43.98996" lon="7.19066">
        <ele>1343.599975586</ele>
        <time>2012-05-05T09:08:45Z</time>
      </trkpt>
      <trkpt lat="43.98996" lon="7.19065">
        <ele>1343.599975586</ele>
        <time>2012-05-05T09:08:54Z</time>
      </trkpt>
      <trkpt lat="43.98996" lon="7.19065">
        <ele>1343.599975586</ele>
        <time>2012-05-05T09:08:59Z</time>
      </trkpt>
      <trkpt lat="43.98996" lon="7.19065">
        <ele>1346.199951172</ele>
        <time>2012-05-05T09:09:02Z</time>
      </trkpt>
      <trkpt lat="43.98996" lon="7.19066">
        <ele>1346.199951172</ele>
        <time>2012-05-05T09:09:08Z</time>
      </trkpt>
      <trkpt lat="43.98996" lon="7.19066">
        <ele>1346.199951172</ele>
        <time>2012-05-05T09:09:14Z</time>
      </trkpt>
      <trkpt lat="43.98995" lon="7.19064">
        <ele>1346.199951172</ele>
        <time>2012-05-05T09:09:29Z</time>
      </trkpt>
      <trkpt lat="43.98995" lon="7.19064">
        <ele>1346.199951172</ele>
        <time>2012-05-05T09:09:31Z</time>
      </trkpt>
      <trkpt lat="43.98996" lon="7.19063">
        <ele>1346.199951172</ele>
        <time>2012-05-05T09:09:36Z</time>
      </trkpt>
      <trkpt lat="43.98996" lon="7.19065">
        <ele>1346.199951172</ele>
        <time>2012-05-05T09:09:40Z</time>
      </trkpt>
      <trkpt lat="43.98996" lon="7.19065">
        <ele>1346.199951172</ele>
        <time>2012-05-05T09:09:43Z</time>
      </trkpt>
      <trkpt lat="43.98997" lon="7.19064">
        <ele>1346.199951172</ele>
        <time>2012-05-05T09:09:45Z</time>
      </trkpt>
      <trkpt lat="43.98997" lon="7.19064">
        <ele>1346.199951172</ele>
        <time>2012-05-05T09:09:47Z</time>
      </trkpt>
      <trkpt lat="43.98997" lon="7.19065">
        <ele>1346.199951172</ele>
        <time>2012-05-05T09:09:50Z</time>
      </trkpt>
      <trkpt lat="43.98997" lon="7.19065">
        <ele>1346.199951172</ele>
        <time>2012-05-05T09:09:53Z</time>
      </trkpt>
      <trkpt lat="43.98997" lon="7.19065">
        <ele>1346.199951172</ele>
        <time>2012-05-05T09:09:54Z</time>
      </trkpt>
      <trkpt lat="43.98997" lon="7.19066">
        <ele>1346.199951172</ele>
        <time>2012-05-05T09:09:59Z</time>
      </trkpt>
      <trkpt lat="43.98997" lon="7.19067">
        <ele>1346.199951172</ele>
        <time>2012-05-05T09:10:05Z</time>
      </trkpt>
      <trkpt lat="43.98997" lon="7.19067">
        <ele>1344</ele>
        <time>2012-05-05T09:10:09Z</time>
      </trkpt>
      <trkpt lat="43.98997" lon="7.19068">
        <ele>1344</ele>
        <time>2012-05-05T09:10:15Z</time>
      </trkpt>
      <trkpt lat="43.98998" lon="7.19069">
        <ele>1343</ele>
        <time>2012-05-05T09:10:23Z</time>
      </trkpt>
      <trkpt lat="43.98998" lon="7.1907">
        <ele>1343</ele>
        <time>2012-05-05T09:10:27Z</time>
      </trkpt>
      <trkpt lat="43.98999" lon="7.1907">
        <ele>1352.800048828</ele>
        <time>2012-05-05T09:10:35Z</time>
      </trkpt>
      <trkpt lat="43.98999" lon="7.19071">
        <ele>1352.800048828</ele>
        <time>2012-05-05T09:10:44Z</time>
      </trkpt>
      <trkpt lat="43.98999" lon="7.19071">
        <ele>1352.800048828</ele>
        <time>2012-05-05T09:10:55Z</time>
      </trkpt>
      <trkpt lat="43.99" lon="7.19071">
        <ele>1352.800048828</ele>
        <time>2012-05-05T09:11:01Z</time>
      </trkpt>
      <trkpt lat="43.99" lon="7.19071">
        <ele>1352.800048828</ele>
        <time>2012-05-05T09:11:03Z</time>
      </trkpt>
      <trkpt lat="43.99" lon="7.19071">
        <ele>1352.800048828</ele>
        <time>2012-05-05T09:11:05Z</time>
      </trkpt>
      <trkpt lat="43.99" lon="7.19071">
        <ele>1352.800048828</ele>
        <time>2012-05-05T09:11:10Z</time>
      </trkpt>
      <trkpt lat="43.98999" lon="7.19071">
        <ele>1352.800048828</ele>
        <time>2012-05-05T09:11:26Z</time>
      </trkpt>
      <trkpt lat="43.98999" lon="7.19071">
        <ele>1352.800048828</ele>
        <time>2012-05-05T09:11:30Z</time>
      </trkpt>
      <trkpt lat="43.98998" lon="7.19071">
        <ele>1346.599975586</ele>
        <time>2012-05-05T09:11:37Z</time>
      </trkpt>
      <trkpt lat="43.98998" lon="7.19072">
        <ele>1352.199951172</ele>
        <time>2012-05-05T09:11:39Z</time>
      </trkpt>
      <trkpt lat="43.98999" lon="7.19072">
        <ele>1352.199951172</ele>
        <time>2012-05-05T09:11:41Z</time>
      </trkpt>
      <trkpt lat="43.98998" lon="7.19072">
        <ele>1352.199951172</ele>
        <time>2012-05-05T09:11:54Z</time>
      </trkpt>
      <trkpt lat="43.98998" lon="7.19071">
        <ele>1352.199951172</ele>
        <time>2012-05-05T09:12:12Z</time>
      </trkpt>
      <trkpt lat="43.98998" lon="7.19071">
        <ele>1352.199951172</ele>
        <time>2012-05-05T09:12:17Z</time>
      </trkpt>
      <trkpt lat="43.98997" lon="7.19071">
        <ele>1352.199951172</ele>
        <time>2012-05-05T09:12:33Z</time>
      </trkpt>
      <trkpt lat="43.98996" lon="7.1907">
        <ele>1352.199951172</ele>
        <time>2012-05-05T09:12:54Z</time>
      </trkpt>
      <trkpt lat="43.98996" lon="7.1907">
        <ele>1352.199951172</ele>
        <time>2012-05-05T09:13:03Z</time>
      </trkpt>
      <trkpt lat="43.98996" lon="7.19071">
        <ele>1352.199951172</ele>
        <time>2012-05-05T09:13:09Z</time>
      </trkpt>
      <trkpt lat="43.98996" lon="7.1907">
        <ele>1352.199951172</ele>
        <time>2012-05-05T09:13:14Z</time>
      </trkpt>
      <trkpt lat="43.98996" lon="7.19071">
        <ele>1352.199951172</ele>
        <time>2012-05-05T09:13:24Z</time>
      </trkpt>
      <trkpt lat="43.98996" lon="7.1907">
        <ele>1352.199951172</ele>
        <time>2012-05-05T09:13:39Z</time>
      </trkpt>
      <trkpt lat="43.98996" lon="7.1907">
        <ele>1352.199951172</ele>
        <time>2012-05-05T09:13:41Z</time>
      </trkpt>
      <trkpt lat="43.98996" lon="7.1907">
        <ele>1352.199951172</ele>
        <time>2012-05-05T09:13:52Z</time>
      </trkpt>
      <trkpt lat="43.98997" lon="7.1907">
        <ele>1352.199951172</ele>
        <time>2012-05-05T09:14:02Z</time>
      </trkpt>
      <trkpt lat="43.98996" lon="7.19069">
        <ele>1352.199951172</ele>
        <time>2012-05-05T09:14:19Z</time>
      </trkpt>
      <trkpt lat="43.98996" lon="7.19069">
        <ele>1352.199951172</ele>
        <time>2012-05-05T09:14:24Z</time>
      </trkpt>
      <trkpt lat="43.98996" lon="7.19069">
        <ele>1352.199951172</ele>
        <time>2012-05-05T09:14:38Z</time>
      </trkpt>
      <trkpt lat="43.98997" lon="7.19068">
        <ele>1352.199951172</ele>
        <time>2012-05-05T09:14:54Z</time>
      </trkpt>
      <trkpt lat="43.98997" lon="7.1907">
        <ele>1352.199951172</ele>
        <time>2012-05-05T09:15:03Z</time>
      </trkpt>
      <trkpt lat="43.98998" lon="7.19071">
        <ele>1352.199951172</ele>
        <time>2012-05-05T09:15:06Z</time>
      </trkpt>
      <trkpt lat="43.98998" lon="7.19072">
        <ele>1352.199951172</ele>
        <time>2012-05-05T09:15:10Z</time>
      </trkpt>
      <trkpt lat="43.98999" lon="7.19077">
        <ele>1352.199951172</ele>
        <time>2012-05-05T09:15:17Z</time>
      </trkpt>
      <trkpt lat="43.98999" lon="7.19089">
        <ele>1352.199951172</ele>
        <time>2012-05-05T09:15:22Z</time>
      </trkpt>
      <trkpt lat="43.98996" lon="7.19105">
        <ele>1352.199951172</ele>
        <time>2012-05-05T09:15:28Z</time>
      </trkpt>
      <trkpt lat="43.98998" lon="7.19112">
        <ele>1352.199951172</ele>
        <time>2012-05-05T09:15:32Z</time>
      </trkpt>
      <trkpt lat="43.98999" lon="7.19113">
        <ele>1352.199951172</ele>
        <time>2012-05-05T09:15:36Z</time>
      </trkpt>
      <trkpt lat="43.98999" lon="7.19112">
        <ele>1352.199951172</ele>
        <time>2012-05-05T09:15:37Z</time>
      </trkpt>
      <trkpt lat="43.98997" lon="7.19113">
        <ele>1352.199951172</ele>
        <time>2012-05-05T09:15:41Z</time>
      </trkpt>
      <trkpt lat="43.98999" lon="7.1912">
        <ele>1352.199951172</ele>
        <time>2012-05-05T09:15:46Z</time>
      </trkpt>
      <trkpt lat="43.98998" lon="7.19126">
        <ele>1352.199951172</ele>
        <time>2012-05-05T09:15:50Z</time>
      </trkpt>
      <trkpt lat="43.98998" lon="7.19128">
        <ele>1352.199951172</ele>
        <time>2012-05-05T09:15:51Z</time>
      </trkpt>
      <trkpt lat="43.98998" lon="7.19132">
        <ele>1353.199951172</ele>
        <time>2012-05-05T09:15:54Z</time>
      </trkpt>
      <trkpt lat="43.98997" lon="7.19137">
        <ele>1353.199951172</ele>
        <time>2012-05-05T09:15:57Z</time>
      </trkpt>
      <trkpt lat="43.98996" lon="7.19138">
        <ele>1354.199951172</ele>
        <time>2012-05-05T09:15:58Z</time>
      </trkpt>
      <trkpt lat="43.98995" lon="7.1914">
        <ele>1354.199951172</ele>
        <time>2012-05-05T09:16:02Z</time>
      </trkpt>
      <trkpt lat="43.98995" lon="7.19142">
        <ele>1354.199951172</ele>
        <time>2012-05-05T09:16:04Z</time>
      </trkpt>
      <trkpt lat="43.98995" lon="7.19143">
        <ele>1355.199951172</ele>
        <time>2012-05-05T09:16:05Z</time>
      </trkpt>
      <trkpt lat="43.98992" lon="7.19149">
        <ele>1356.400024414</ele>
        <time>2012-05-05T09:16:10Z</time>
      </trkpt>
      <trkpt lat="43.98991" lon="7.1915">
        <ele>1356.400024414</ele>
        <time>2012-05-05T09:16:11Z</time>
      </trkpt>
      <trkpt lat="43.98991" lon="7.19156">
        <ele>1357.400024414</ele>
        <time>2012-05-05T09:16:15Z</time>
      </trkpt>
      <trkpt lat="43.9899" lon="7.19159">
        <ele>1357.400024414</ele>
        <time>2012-05-05T09:16:17Z</time>
      </trkpt>
      <trkpt lat="43.98989" lon="7.1916">
        <ele>1357.400024414</ele>
        <time>2012-05-05T09:16:18Z</time>
      </trkpt>
      <trkpt lat="43.98988" lon="7.19161">
        <ele>1358.400024414</ele>
        <time>2012-05-05T09:16:19Z</time>
      </trkpt>
      <trkpt lat="43.98987" lon="7.19164">
        <ele>1358.400024414</ele>
        <time>2012-05-05T09:16:23Z</time>
      </trkpt>
      <trkpt lat="43.98986" lon="7.19164">
        <ele>1359.400024414</ele>
        <time>2012-05-05T09:16:24Z</time>
      </trkpt>
      <trkpt lat="43.98984" lon="7.19168">
        <ele>1360.400024414</ele>
        <time>2012-05-05T09:16:29Z</time>
      </trkpt>
      <trkpt lat="43.98983" lon="7.19171">
        <ele>1361.599975586</ele>
        <time>2012-05-05T09:16:34Z</time>
      </trkpt>
      <trkpt lat="43.98983" lon="7.19175">
        <ele>1361.599975586</ele>
        <time>2012-05-05T09:16:37Z</time>
      </trkpt>
      <trkpt lat="43.98982" lon="7.19178">
        <ele>1362.800048828</ele>
        <time>2012-05-05T09:16:41Z</time>
      </trkpt>
      <trkpt lat="43.98982" lon="7.19183">
        <ele>1362.800048828</ele>
        <time>2012-05-05T09:16:45Z</time>
      </trkpt>
      <trkpt lat="43.98982" lon="7.19186">
        <ele>1363.800048828</ele>
        <time>2012-05-05T09:16:48Z</time>
      </trkpt>
      <trkpt lat="43.98982" lon="7.19189">
        <ele>1363.800048828</ele>
        <time>2012-05-05T09:16:51Z</time>
      </trkpt>
      <trkpt lat="43.98982" lon="7.19191">
        <ele>1364.800048828</ele>
        <time>2012-05-05T09:16:53Z</time>
      </trkpt>
      <trkpt lat="43.98981" lon="7.19195">
        <ele>1366</ele>
        <time>2012-05-05T09:16:57Z</time>
      </trkpt>
      <trkpt lat="43.98981" lon="7.19197">
        <ele>1366</ele>
        <time>2012-05-05T09:16:59Z</time>
      </trkpt>
      <trkpt lat="43.98979" lon="7.192">
        <ele>1367</ele>
        <time>2012-05-05T09:17:02Z</time>
      </trkpt>
      <trkpt lat="43.98979" lon="7.19202">
        <ele>1367</ele>
        <time>2012-05-05T09:17:06Z</time>
      </trkpt>
      <trkpt lat="43.98979" lon="7.19202">
        <ele>1367</ele>
        <time>2012-05-05T09:17:10Z</time>
      </trkpt>
      <trkpt lat="43.98979" lon="7.19205">
        <ele>1367</ele>
        <time>2012-05-05T09:17:16Z</time>
      </trkpt>
      <trkpt lat="43.98979" lon="7.19206">
        <ele>1368</ele>
        <time>2012-05-05T09:17:18Z</time>
      </trkpt>
      <trkpt lat="43.9898" lon="7.1921">
        <ele>1368</ele>
        <time>2012-05-05T09:17:22Z</time>
      </trkpt>
      <trkpt lat="43.9898" lon="7.19209">
        <ele>1369</ele>
        <time>2012-05-05T09:17:23Z</time>
      </trkpt>
      <trkpt lat="43.98981" lon="7.19216">
        <ele>1369</ele>
        <time>2012-05-05T09:17:28Z</time>
      </trkpt>
      <trkpt lat="43.98981" lon="7.19218">
        <ele>1370</ele>
        <time>2012-05-05T09:17:30Z</time>
      </trkpt>
      <trkpt lat="43.98981" lon="7.19222">
        <ele>1371.199951172</ele>
        <time>2012-05-05T09:17:34Z</time>
      </trkpt>
      <trkpt lat="43.98982" lon="7.19223">
        <ele>1371.199951172</ele>
        <time>2012-05-05T09:17:36Z</time>
      </trkpt>
      <trkpt lat="43.98983" lon="7.19226">
        <ele>1372.199951172</ele>
        <time>2012-05-05T09:17:39Z</time>
      </trkpt>
      <trkpt lat="43.98983" lon="7.1923">
        <ele>1373.199951172</ele>
        <time>2012-05-05T09:17:43Z</time>
      </trkpt>
      <trkpt lat="43.98983" lon="7.19231">
        <ele>1373.199951172</ele>
        <time>2012-05-05T09:17:44Z</time>
      </trkpt>
      <trkpt lat="43.98983" lon="7.19235">
        <ele>1374.199951172</ele>
        <time>2012-05-05T09:17:49Z</time>
      </trkpt>
      <trkpt lat="43.98982" lon="7.19236">
        <ele>1374.199951172</ele>
        <time>2012-05-05T09:17:50Z</time>
      </trkpt>
      <trkpt lat="43.98982" lon="7.19239">
        <ele>1375.400024414</ele>
        <time>2012-05-05T09:17:54Z</time>
      </trkpt>
      <trkpt lat="43.98982" lon="7.19242">
        <ele>1375.400024414</ele>
        <time>2012-05-05T09:17:58Z</time>
      </trkpt>
      <trkpt lat="43.98982" lon="7.19243">
        <ele>1376.400024414</ele>
        <time>2012-05-05T09:18:00Z</time>
      </trkpt>
      <trkpt lat="43.98985" lon="7.19244">
        <ele>1376.400024414</ele>
        <time>2012-05-05T09:18:05Z</time>
      </trkpt>
      <trkpt lat="43.98987" lon="7.19244">
        <ele>1377.400024414</ele>
        <time>2012-05-05T09:18:09Z</time>
      </trkpt>
      <trkpt lat="43.98987" lon="7.19247">
        <ele>1377.400024414</ele>
        <time>2012-05-05T09:18:11Z</time>
      </trkpt>
      <trkpt lat="43.98988" lon="7.19248">
        <ele>1378.400024414</ele>
        <time>2012-05-05T09:18:13Z</time>
      </trkpt>
      <trkpt lat="43.98989" lon="7.19249">
        <ele>1378.400024414</ele>
        <time>2012-05-05T09:18:15Z</time>
      </trkpt>
      <trkpt lat="43.98989" lon="7.19253">
        <ele>1379.400024414</ele>
        <time>2012-05-05T09:18:19Z</time>
      </trkpt>
      <trkpt lat="43.98989" lon="7.19257">
        <ele>1379.400024414</ele>
        <time>2012-05-05T09:18:23Z</time>
      </trkpt>
      <trkpt lat="43.98988" lon="7.1926">
        <ele>1379.400024414</ele>
        <time>2012-05-05T09:18:29Z</time>
      </trkpt>
      <trkpt lat="43.98988" lon="7.19261">
        <ele>1380.599975586</ele>
        <time>2012-05-05T09:18:31Z</time>
      </trkpt>
      <trkpt lat="43.98988" lon="7.19262">
        <ele>1380.599975586</ele>
        <time>2012-05-05T09:18:36Z</time>
      </trkpt>
      <trkpt lat="43.98989" lon="7.19263">
        <ele>1380.599975586</ele>
        <time>2012-05-05T09:18:49Z</time>
      </trkpt>
      <trkpt lat="43.9899" lon="7.19267">
        <ele>1380.599975586</ele>
        <time>2012-05-05T09:18:54Z</time>
      </trkpt>
      <trkpt lat="43.9899" lon="7.1927">
        <ele>1380.599975586</ele>
        <time>2012-05-05T09:18:56Z</time>
      </trkpt>
      <trkpt lat="43.98991" lon="7.19271">
        <ele>1381.599975586</ele>
        <time>2012-05-05T09:18:57Z</time>
      </trkpt>
      <trkpt lat="43.98991" lon="7.19271">
        <ele>1381.599975586</ele>
        <time>2012-05-05T09:18:59Z</time>
      </trkpt>
      <trkpt lat="43.9899" lon="7.19275">
        <ele>1381.599975586</ele>
        <time>2012-05-05T09:19:02Z</time>
      </trkpt>
      <trkpt lat="43.9899" lon="7.19275">
        <ele>1382.599975586</ele>
        <time>2012-05-05T09:19:04Z</time>
      </trkpt>
      <trkpt lat="43.98991" lon="7.19276">
        <ele>1382.599975586</ele>
        <time>2012-05-05T09:19:09Z</time>
      </trkpt>
      <trkpt lat="43.98994" lon="7.1928">
        <ele>1382.599975586</ele>
        <time>2012-05-05T09:19:14Z</time>
      </trkpt>
      <trkpt lat="43.98998" lon="7.19286">
        <ele>1383.599975586</ele>
        <time>2012-05-05T09:19:20Z</time>
      </trkpt>
      <trkpt lat="43.98999" lon="7.19287">
        <ele>1383.599975586</ele>
        <time>2012-05-05T09:19:21Z</time>
      </trkpt>
      <trkpt lat="43.99001" lon="7.19289">
        <ele>1384.800048828</ele>
        <time>2012-05-05T09:19:24Z</time>
      </trkpt>
      <trkpt lat="43.99003" lon="7.19292">
        <ele>1384.800048828</ele>
        <time>2012-05-05T09:19:27Z</time>
      </trkpt>
      <trkpt lat="43.99004" lon="7.19294">
        <ele>1385.800048828</ele>
        <time>2012-05-05T09:19:29Z</time>
      </trkpt>
      <trkpt lat="43.99007" lon="7.19298">
        <ele>1387</ele>
        <time>2012-05-05T09:19:33Z</time>
      </trkpt>
      <trkpt lat="43.99008" lon="7.193">
        <ele>1387</ele>
        <time>2012-05-05T09:19:35Z</time>
      </trkpt>
      <trkpt lat="43.99011" lon="7.19304">
        <ele>1388</ele>
        <time>2012-05-05T09:19:39Z</time>
      </trkpt>
      <trkpt lat="43.99013" lon="7.19308">
        <ele>1388</ele>
        <time>2012-05-05T09:19:42Z</time>
      </trkpt>
      <trkpt lat="43.99015" lon="7.19311">
        <ele>1389.199951172</ele>
        <time>2012-05-05T09:19:45Z</time>
      </trkpt>
      <trkpt lat="43.99019" lon="7.19316">
        <ele>1389.199951172</ele>
        <time>2012-05-05T09:19:49Z</time>
      </trkpt>
      <trkpt lat="43.99021" lon="7.19319">
        <ele>1390.199951172</ele>
        <time>2012-05-05T09:19:53Z</time>
      </trkpt>
      <trkpt lat="43.99022" lon="7.1932">
        <ele>1390.199951172</ele>
        <time>2012-05-05T09:19:55Z</time>
      </trkpt>
      <trkpt lat="43.99023" lon="7.19325">
        <ele>1390.199951172</ele>
        <time>2012-05-05T09:20:01Z</time>
      </trkpt>
      <trkpt lat="43.99027" lon="7.19329">
        <ele>1391.199951172</ele>
        <time>2012-05-05T09:20:06Z</time>
      </trkpt>
      <trkpt lat="43.99028" lon="7.1933">
        <ele>1391.199951172</ele>
        <time>2012-05-05T09:20:07Z</time>
      </trkpt>
      <trkpt lat="43.99031" lon="7.19332">
        <ele>1392.199951172</ele>
        <time>2012-05-05T09:20:09Z</time>
      </trkpt>
      <trkpt lat="43.99035" lon="7.19334">
        <ele>1392.199951172</ele>
        <time>2012-05-05T09:20:13Z</time>
      </trkpt>
      <trkpt lat="43.99038" lon="7.19337">
        <ele>1393.199951172</ele>
        <time>2012-05-05T09:20:17Z</time>
      </trkpt>
      <trkpt lat="43.99041" lon="7.19337">
        <ele>1393.199951172</ele>
        <time>2012-05-05T09:20:20Z</time>
      </trkpt>
      <trkpt lat="43.99043" lon="7.19338">
        <ele>1394.199951172</ele>
        <time>2012-05-05T09:20:23Z</time>
      </trkpt>
      <trkpt lat="43.99048" lon="7.1934">
        <ele>1394.199951172</ele>
        <time>2012-05-05T09:20:27Z</time>
      </trkpt>
      <trkpt lat="43.99049" lon="7.1934">
        <ele>1395.400024414</ele>
        <time>2012-05-05T09:20:28Z</time>
      </trkpt>
      <trkpt lat="43.99052" lon="7.19345">
        <ele>1396.400024414</ele>
        <time>2012-05-05T09:20:33Z</time>
      </trkpt>
      <trkpt lat="43.99052" lon="7.19344">
        <ele>1396.400024414</ele>
        <time>2012-05-05T09:20:34Z</time>
      </trkpt>
      <trkpt lat="43.99057" lon="7.19348">
        <ele>1397.400024414</ele>
        <time>2012-05-05T09:20:39Z</time>
      </trkpt>
      <trkpt lat="43.99059" lon="7.1935">
        <ele>1397.400024414</ele>
        <time>2012-05-05T09:20:42Z</time>
      </trkpt>
      <trkpt lat="43.99061" lon="7.19351">
        <ele>1398.400024414</ele>
        <time>2012-05-05T09:20:44Z</time>
      </trkpt>
      <trkpt lat="43.99065" lon="7.19354">
        <ele>1398.400024414</ele>
        <time>2012-05-05T09:20:50Z</time>
      </trkpt>
      <trkpt lat="43.99066" lon="7.19355">
        <ele>1398.400024414</ele>
        <time>2012-05-05T09:20:56Z</time>
      </trkpt>
      <trkpt lat="43.99068" lon="7.19358">
        <ele>1399.400024414</ele>
        <time>2012-05-05T09:21:00Z</time>
      </trkpt>
      <trkpt lat="43.99069" lon="7.19361">
        <ele>1399.400024414</ele>
        <time>2012-05-05T09:21:02Z</time>
      </trkpt>
      <trkpt lat="43.99069" lon="7.19363">
        <ele>1400.599975586</ele>
        <time>2012-05-05T09:21:04Z</time>
      </trkpt>
      <trkpt lat="43.9907" lon="7.19365">
        <ele>1401.800048828</ele>
        <time>2012-05-05T09:21:08Z</time>
      </trkpt>
      <trkpt lat="43.99073" lon="7.19369">
        <ele>1401.800048828</ele>
        <time>2012-05-05T09:21:14Z</time>
      </trkpt>
      <trkpt lat="43.99075" lon="7.19373">
        <ele>1402.800048828</ele>
        <time>2012-05-05T09:21:18Z</time>
      </trkpt>
      <trkpt lat="43.99076" lon="7.19376">
        <ele>1402.800048828</ele>
        <time>2012-05-05T09:21:21Z</time>
      </trkpt>
      <trkpt lat="43.99077" lon="7.19379">
        <ele>1403.800048828</ele>
        <time>2012-05-05T09:21:24Z</time>
      </trkpt>
      <trkpt lat="43.99078" lon="7.1938">
        <ele>1403.800048828</ele>
        <time>2012-05-05T09:21:28Z</time>
      </trkpt>
      <trkpt lat="43.99081" lon="7.19384">
        <ele>1405.599975586</ele>
        <time>2012-05-05T09:21:34Z</time>
      </trkpt>
      <trkpt lat="43.99082" lon="7.19385">
        <ele>1405.599975586</ele>
        <time>2012-05-05T09:21:35Z</time>
      </trkpt>
      <trkpt lat="43.99085" lon="7.19393">
        <ele>1406.800048828</ele>
        <time>2012-05-05T09:21:42Z</time>
      </trkpt>
      <trkpt lat="43.99089" lon="7.194">
        <ele>1406.800048828</ele>
        <time>2012-05-05T09:21:49Z</time>
      </trkpt>
      <trkpt lat="43.99089" lon="7.194">
        <ele>1408</ele>
        <time>2012-05-05T09:21:51Z</time>
      </trkpt>
      <trkpt lat="43.99092" lon="7.19405">
        <ele>1408</ele>
        <time>2012-05-05T09:21:55Z</time>
      </trkpt>
      <trkpt lat="43.99095" lon="7.19412">
        <ele>1409</ele>
        <time>2012-05-05T09:22:02Z</time>
      </trkpt>
      <trkpt lat="43.99097" lon="7.19415">
        <ele>1409</ele>
        <time>2012-05-05T09:22:08Z</time>
      </trkpt>
      <trkpt lat="43.991" lon="7.19422">
        <ele>1409</ele>
        <time>2012-05-05T09:22:13Z</time>
      </trkpt>
      <trkpt lat="43.99103" lon="7.19429">
        <ele>1410.199951172</ele>
        <time>2012-05-05T09:22:17Z</time>
      </trkpt>
      <trkpt lat="43.99105" lon="7.19432">
        <ele>1410.199951172</ele>
        <time>2012-05-05T09:22:19Z</time>
      </trkpt>
      <trkpt lat="43.99108" lon="7.19436">
        <ele>1410.199951172</ele>
        <time>2012-05-05T09:22:22Z</time>
      </trkpt>
      <trkpt lat="43.9911" lon="7.1944">
        <ele>1411.400024414</ele>
        <time>2012-05-05T09:22:24Z</time>
      </trkpt>
      <trkpt lat="43.99111" lon="7.19441">
        <ele>1411.400024414</ele>
        <time>2012-05-05T09:22:25Z</time>
      </trkpt>
      <trkpt lat="43.99115" lon="7.1945">
        <ele>1412.400024414</ele>
        <time>2012-05-05T09:22:30Z</time>
      </trkpt>
      <trkpt lat="43.99117" lon="7.19452">
        <ele>1412.400024414</ele>
        <time>2012-05-05T09:22:31Z</time>
      </trkpt>
      <trkpt lat="43.99118" lon="7.19456">
        <ele>1412.400024414</ele>
        <time>2012-05-05T09:22:34Z</time>
      </trkpt>
      <trkpt lat="43.99121" lon="7.1946">
        <ele>1413.400024414</ele>
        <time>2012-05-05T09:22:37Z</time>
      </trkpt>
      <trkpt lat="43.99125" lon="7.19469">
        <ele>1413.400024414</ele>
        <time>2012-05-05T09:22:43Z</time>
      </trkpt>
      <trkpt lat="43.99128" lon="7.19479">
        <ele>1414.400024414</ele>
        <time>2012-05-05T09:22:49Z</time>
      </trkpt>
      <trkpt lat="43.9913" lon="7.19482">
        <ele>1414.400024414</ele>
        <time>2012-05-05T09:22:51Z</time>
      </trkpt>
      <trkpt lat="43.99133" lon="7.19488">
        <ele>1414.400024414</ele>
        <time>2012-05-05T09:22:54Z</time>
      </trkpt>
      <trkpt lat="43.99136" lon="7.19494">
        <ele>1414.400024414</ele>
        <time>2012-05-05T09:22:57Z</time>
      </trkpt>
      <trkpt lat="43.99137" lon="7.19495">
        <ele>1415.599975586</ele>
        <time>2012-05-05T09:22:58Z</time>
      </trkpt>
      <trkpt lat="43.9914" lon="7.19507">
        <ele>1415.599975586</ele>
        <time>2012-05-05T09:23:04Z</time>
      </trkpt>
      <trkpt lat="43.99142" lon="7.1951">
        <ele>1416.599975586</ele>
        <time>2012-05-05T09:23:06Z</time>
      </trkpt>
      <trkpt lat="43.99145" lon="7.19515">
        <ele>1416.599975586</ele>
        <time>2012-05-05T09:23:09Z</time>
      </trkpt>
      <trkpt lat="43.99149" lon="7.19521">
        <ele>1416.599975586</ele>
        <time>2012-05-05T09:23:13Z</time>
      </trkpt>
      <trkpt lat="43.99152" lon="7.19525">
        <ele>1417.800048828</ele>
        <time>2012-05-05T09:23:15Z</time>
      </trkpt>
      <trkpt lat="43.99154" lon="7.19527">
        <ele>1419.400024414</ele>
        <time>2012-05-05T09:23:17Z</time>
      </trkpt>
      <trkpt lat="43.99155" lon="7.19529">
        <ele>1419.400024414</ele>
        <time>2012-05-05T09:23:18Z</time>
      </trkpt>
      <trkpt lat="43.99157" lon="7.1953">
        <ele>1420.599975586</ele>
        <time>2012-05-05T09:23:19Z</time>
      </trkpt>
      <trkpt lat="43.99158" lon="7.19532">
        <ele>1428.400024414</ele>
        <time>2012-05-05T09:23:20Z</time>
      </trkpt>
      <trkpt lat="43.99159" lon="7.19533">
        <ele>1423</ele>
        <time>2012-05-05T09:23:21Z</time>
      </trkpt>
      <trkpt lat="43.99161" lon="7.19534">
        <ele>1423</ele>
        <time>2012-05-05T09:23:22Z</time>
      </trkpt>
      <trkpt lat="43.99165" lon="7.19542">
        <ele>1423</ele>
        <time>2012-05-05T09:23:28Z</time>
      </trkpt>
      <trkpt lat="43.99165" lon="7.19542">
        <ele>1425.199951172</ele>
        <time>2012-05-05T09:23:31Z</time>
      </trkpt>
      <trkpt lat="43.99166" lon="7.19542">
        <ele>1426.400024414</ele>
        <time>2012-05-05T09:23:34Z</time>
      </trkpt>
      <trkpt lat="43.99167" lon="7.19542">
        <ele>1427.800048828</ele>
        <time>2012-05-05T09:23:36Z</time>
      </trkpt>
      <trkpt lat="43.99169" lon="7.19544">
        <ele>1429</ele>
        <time>2012-05-05T09:23:39Z</time>
      </trkpt>
      <trkpt lat="43.99171" lon="7.19549">
        <ele>1429</ele>
        <time>2012-05-05T09:23:42Z</time>
      </trkpt>
      <trkpt lat="43.99175" lon="7.19553">
        <ele>1429</ele>
        <time>2012-05-05T09:23:46Z</time>
      </trkpt>
      <trkpt lat="43.99176" lon="7.19554">
        <ele>1429</ele>
        <time>2012-05-05T09:23:47Z</time>
      </trkpt>
      <trkpt lat="43.99183" lon="7.19561">
        <ele>1429</ele>
        <time>2012-05-05T09:23:53Z</time>
      </trkpt>
      <trkpt lat="43.99186" lon="7.19566">
        <ele>1429</ele>
        <time>2012-05-05T09:23:56Z</time>
      </trkpt>
      <trkpt lat="43.99188" lon="7.19568">
        <ele>1429</ele>
        <time>2012-05-05T09:23:58Z</time>
      </trkpt>
      <trkpt lat="43.99196" lon="7.19572">
        <ele>1429</ele>
        <time>2012-05-05T09:24:04Z</time>
      </trkpt>
      <trkpt lat="43.992" lon="7.19576">
        <ele>1429</ele>
        <time>2012-05-05T09:24:09Z</time>
      </trkpt>
      <trkpt lat="43.99203" lon="7.19579">
        <ele>1429</ele>
        <time>2012-05-05T09:24:19Z</time>
      </trkpt>
      <trkpt lat="43.99206" lon="7.1958">
        <ele>1429</ele>
        <time>2012-05-05T09:24:25Z</time>
      </trkpt>
      <trkpt lat="43.99211" lon="7.19581">
        <ele>1429</ele>
        <time>2012-05-05T09:24:30Z</time>
      </trkpt>
      <trkpt lat="43.99217" lon="7.19582">
        <ele>1429</ele>
        <time>2012-05-05T09:24:35Z</time>
      </trkpt>
      <trkpt lat="43.99224" lon="7.19583">
        <ele>1429</ele>
        <time>2012-05-05T09:24:38Z</time>
      </trkpt>
      <trkpt lat="43.99231" lon="7.19584">
        <ele>1429</ele>
        <time>2012-05-05T09:24:41Z</time>
      </trkpt>
      <trkpt lat="43.99239" lon="7.19588">
        <ele>1429</ele>
        <time>2012-05-05T09:24:44Z</time>
      </trkpt>
      <trkpt lat="43.99243" lon="7.1959">
        <ele>1429</ele>
        <time>2012-05-05T09:24:46Z</time>
      </trkpt>
      <trkpt lat="43.99247" lon="7.19592">
        <ele>1429</ele>
        <time>2012-05-05T09:24:48Z</time>
      </trkpt>
      <trkpt lat="43.99259" lon="7.19591">
        <ele>1429</ele>
        <time>2012-05-05T09:24:52Z</time>
      </trkpt>
      <trkpt lat="43.99275" lon="7.19591">
        <ele>1429</ele>
        <time>2012-05-05T09:24:57Z</time>
      </trkpt>
      <trkpt lat="43.99284" lon="7.19592">
        <ele>1429</ele>
        <time>2012-05-05T09:25:02Z</time>
      </trkpt>
      <trkpt lat="43.99292" lon="7.19591">
        <ele>1429</ele>
        <time>2012-05-05T09:25:07Z</time>
      </trkpt>
      <trkpt lat="43.99298" lon="7.1959">
        <ele>1427</ele>
        <time>2012-05-05T09:25:09Z</time>
      </trkpt>
      <trkpt lat="43.99308" lon="7.19592">
        <ele>1427</ele>
        <time>2012-05-05T09:25:13Z</time>
      </trkpt>
      <trkpt lat="43.99315" lon="7.19594">
        <ele>1426</ele>
        <time>2012-05-05T09:25:15Z</time>
      </trkpt>
      <trkpt lat="43.99323" lon="7.19594">
        <ele>1426</ele>
        <time>2012-05-05T09:25:17Z</time>
      </trkpt>
      <trkpt lat="43.99336" lon="7.19591">
        <ele>1426</ele>
        <time>2012-05-05T09:25:21Z</time>
      </trkpt>
      <trkpt lat="43.99346" lon="7.19594">
        <ele>1426</ele>
        <time>2012-05-05T09:25:25Z</time>
      </trkpt>
      <trkpt lat="43.99347" lon="7.19594">
        <ele>1426</ele>
        <time>2012-05-05T09:25:26Z</time>
      </trkpt>
      <trkpt lat="43.99349" lon="7.19595">
        <ele>1426</ele>
        <time>2012-05-05T09:25:32Z</time>
      </trkpt>
      <trkpt lat="43.99351" lon="7.19595">
        <ele>1426</ele>
        <time>2012-05-05T09:25:34Z</time>
      </trkpt>
      <trkpt lat="43.9935" lon="7.19593">
        <ele>1426</ele>
        <time>2012-05-05T09:25:36Z</time>
      </trkpt>
      <trkpt lat="43.99352" lon="7.19591">
        <ele>1426</ele>
        <time>2012-05-05T09:25:41Z</time>
      </trkpt>
      <trkpt lat="43.99353" lon="7.19593">
        <ele>1426</ele>
        <time>2012-05-05T09:25:50Z</time>
      </trkpt>
      <trkpt lat="43.99353" lon="7.19594">
        <ele>1426</ele>
        <time>2012-05-05T09:25:56Z</time>
      </trkpt>
      <trkpt lat="43.99355" lon="7.19596">
        <ele>1426</ele>
        <time>2012-05-05T09:26:03Z</time>
      </trkpt>
      <trkpt lat="43.99356" lon="7.19597">
        <ele>1426</ele>
        <time>2012-05-05T09:26:07Z</time>
      </trkpt>
      <trkpt lat="43.99356" lon="7.19597">
        <ele>1426</ele>
        <time>2012-05-05T09:26:09Z</time>
      </trkpt>
      <trkpt lat="43.99357" lon="7.19597">
        <ele>1426</ele>
        <time>2012-05-05T09:26:15Z</time>
      </trkpt>
      <trkpt lat="43.99355" lon="7.19597">
        <ele>1426</ele>
        <time>2012-05-05T09:26:21Z</time>
      </trkpt>
      <trkpt lat="43.99354" lon="7.19595">
        <ele>1426</ele>
        <time>2012-05-05T09:26:25Z</time>
      </trkpt>
      <trkpt lat="43.99354" lon="7.19596">
        <ele>1426</ele>
        <time>2012-05-05T09:26:33Z</time>
      </trkpt>
      <trkpt lat="43.99355" lon="7.19597">
        <ele>1426</ele>
        <time>2012-05-05T09:26:38Z</time>
      </trkpt>
      <trkpt lat="43.99355" lon="7.19596">
        <ele>1426</ele>
        <time>2012-05-05T09:26:43Z</time>
      </trkpt>
      <trkpt lat="43.99355" lon="7.19595">
        <ele>1422.599975586</ele>
        <time>2012-05-05T09:26:49Z</time>
      </trkpt>
      <trkpt lat="43.99355" lon="7.19596">
        <ele>1422.599975586</ele>
        <time>2012-05-05T09:26:51Z</time>
      </trkpt>
      <trkpt lat="43.99355" lon="7.19596">
        <ele>1427</ele>
        <time>2012-05-05T09:26:52Z</time>
      </trkpt>
      <trkpt lat="43.99359" lon="7.19598">
        <ele>1427</ele>
        <time>2012-05-05T09:26:56Z</time>
      </trkpt>
      <trkpt lat="43.99373" lon="7.19604">
        <ele>1427</ele>
        <time>2012-05-05T09:27:02Z</time>
      </trkpt>
      <trkpt lat="43.99381" lon="7.19608">
        <ele>1424</ele>
        <time>2012-05-05T09:27:06Z</time>
      </trkpt>
      <trkpt lat="43.99383" lon="7.19609">
        <ele>1424</ele>
        <time>2012-05-05T09:27:07Z</time>
      </trkpt>
      <trkpt lat="43.99387" lon="7.19612">
        <ele>1424</ele>
        <time>2012-05-05T09:27:12Z</time>
      </trkpt>
      <trkpt lat="43.99395" lon="7.19616">
        <ele>1424</ele>
        <time>2012-05-05T09:27:26Z</time>
      </trkpt>
      <trkpt lat="43.99406" lon="7.19622">
        <ele>1424</ele>
        <time>2012-05-05T09:27:30Z</time>
      </trkpt>
      <trkpt lat="43.99409" lon="7.19626">
        <ele>1424</ele>
        <time>2012-05-05T09:27:31Z</time>
      </trkpt>
      <trkpt lat="43.99416" lon="7.19639">
        <ele>1424</ele>
        <time>2012-05-05T09:27:34Z</time>
      </trkpt>
      <trkpt lat="43.99422" lon="7.19653">
        <ele>1424</ele>
        <time>2012-05-05T09:27:38Z</time>
      </trkpt>
      <trkpt lat="43.99423" lon="7.19656">
        <ele>1424</ele>
        <time>2012-05-05T09:27:39Z</time>
      </trkpt>
      <trkpt lat="43.99437" lon="7.1966">
        <ele>1424</ele>
        <time>2012-05-05T09:27:43Z</time>
      </trkpt>
      <trkpt lat="43.99447" lon="7.19656">
        <ele>1424</ele>
        <time>2012-05-05T09:27:47Z</time>
      </trkpt>
      <trkpt lat="43.9945" lon="7.19654">
        <ele>1424</ele>
        <time>2012-05-05T09:27:48Z</time>
      </trkpt>
      <trkpt lat="43.99458" lon="7.19649">
        <ele>1424</ele>
        <time>2012-05-05T09:27:52Z</time>
      </trkpt>
      <trkpt lat="43.9946" lon="7.19649">
        <ele>1424</ele>
        <time>2012-05-05T09:27:56Z</time>
      </trkpt>
      <trkpt lat="43.99462" lon="7.19651">
        <ele>1424</ele>
        <time>2012-05-05T09:27:58Z</time>
      </trkpt>
      <trkpt lat="43.99463" lon="7.19653">
        <ele>1424</ele>
        <time>2012-05-05T09:28:00Z</time>
      </trkpt>
      <trkpt lat="43.99466" lon="7.19657">
        <ele>1424</ele>
        <time>2012-05-05T09:28:05Z</time>
      </trkpt>
      <trkpt lat="43.99466" lon="7.19658">
        <ele>1424</ele>
        <time>2012-05-05T09:28:07Z</time>
      </trkpt>
      <trkpt lat="43.99469" lon="7.19664">
        <ele>1424</ele>
        <time>2012-05-05T09:28:14Z</time>
      </trkpt>
      <trkpt lat="43.99475" lon="7.19669">
        <ele>1424</ele>
        <time>2012-05-05T09:28:18Z</time>
      </trkpt>
      <trkpt lat="43.99485" lon="7.19672">
        <ele>1424</ele>
        <time>2012-05-05T09:28:24Z</time>
      </trkpt>
      <trkpt lat="43.99486" lon="7.19673">
        <ele>1424</ele>
        <time>2012-05-05T09:28:25Z</time>
      </trkpt>
      <trkpt lat="43.99489" lon="7.19674">
        <ele>1424</ele>
        <time>2012-05-05T09:28:27Z</time>
      </trkpt>
      <trkpt lat="43.99491" lon="7.19675">
        <ele>1424</ele>
        <time>2012-05-05T09:28:30Z</time>
      </trkpt>
      <trkpt lat="43.99495" lon="7.19676">
        <ele>1424</ele>
        <time>2012-05-05T09:28:33Z</time>
      </trkpt>
      <trkpt lat="43.99497" lon="7.19677">
        <ele>1424</ele>
        <time>2012-05-05T09:28:34Z</time>
      </trkpt>
      <trkpt lat="43.99504" lon="7.19683">
        <ele>1424</ele>
        <time>2012-05-05T09:28:40Z</time>
      </trkpt>
      <trkpt lat="43.99505" lon="7.19684">
        <ele>1424</ele>
        <time>2012-05-05T09:28:44Z</time>
      </trkpt>
      <trkpt lat="43.99506" lon="7.19684">
        <ele>1424</ele>
        <time>2012-05-05T09:28:46Z</time>
      </trkpt>
      <trkpt lat="43.99505" lon="7.19684">
        <ele>1424</ele>
        <time>2012-05-05T09:28:51Z</time>
      </trkpt>
      <trkpt lat="43.99506" lon="7.19682">
        <ele>1424</ele>
        <time>2012-05-05T09:28:57Z</time>
      </trkpt>
      <trkpt lat="43.99506" lon="7.19682">
        <ele>1424</ele>
        <time>2012-05-05T09:29:02Z</time>
      </trkpt>
      <trkpt lat="43.99508" lon="7.1968">
        <ele>1424</ele>
        <time>2012-05-05T09:29:09Z</time>
      </trkpt>
      <trkpt lat="43.99507" lon="7.1968">
        <ele>1424</ele>
        <time>2012-05-05T09:29:15Z</time>
      </trkpt>
      <trkpt lat="43.99506" lon="7.19681">
        <ele>1424</ele>
        <time>2012-05-05T09:29:21Z</time>
      </trkpt>
      <trkpt lat="43.99509" lon="7.19682">
        <ele>1424</ele>
        <time>2012-05-05T09:29:27Z</time>
      </trkpt>
      <trkpt lat="43.99514" lon="7.19688">
        <ele>1424</ele>
        <time>2012-05-05T09:29:30Z</time>
      </trkpt>
      <trkpt lat="43.99516" lon="7.19691">
        <ele>1424</ele>
        <time>2012-05-05T09:29:31Z</time>
      </trkpt>
      <trkpt lat="43.99518" lon="7.19695">
        <ele>1421.800048828</ele>
        <time>2012-05-05T09:29:32Z</time>
      </trkpt>
      <trkpt lat="43.99521" lon="7.19701">
        <ele>1420.800048828</ele>
        <time>2012-05-05T09:29:34Z</time>
      </trkpt>
      <trkpt lat="43.99529" lon="7.1971">
        <ele>1420.800048828</ele>
        <time>2012-05-05T09:29:37Z</time>
      </trkpt>
      <trkpt lat="43.99532" lon="7.19714">
        <ele>1419.199951172</ele>
        <time>2012-05-05T09:29:38Z</time>
      </trkpt>
      <trkpt lat="43.99542" lon="7.19721">
        <ele>1419.199951172</ele>
        <time>2012-05-05T09:29:41Z</time>
      </trkpt>
      <trkpt lat="43.99554" lon="7.19728">
        <ele>1418.199951172</ele>
        <time>2012-05-05T09:29:44Z</time>
      </trkpt>
      <trkpt lat="43.99566" lon="7.19736">
        <ele>1418.199951172</ele>
        <time>2012-05-05T09:29:47Z</time>
      </trkpt>
      <trkpt lat="43.99572" lon="7.19738">
        <ele>1416.199951172</ele>
        <time>2012-05-05T09:29:48Z</time>
      </trkpt>
      <trkpt lat="43.99585" lon="7.19742">
        <ele>1416.199951172</ele>
        <time>2012-05-05T09:29:51Z</time>
      </trkpt>
      <trkpt lat="43.99589" lon="7.19746">
        <ele>1415.199951172</ele>
        <time>2012-05-05T09:29:52Z</time>
      </trkpt>
      <trkpt lat="43.99594" lon="7.19749">
        <ele>1414</ele>
        <time>2012-05-05T09:29:53Z</time>
      </trkpt>
      <trkpt lat="43.99599" lon="7.19754">
        <ele>1409.800048828</ele>
        <time>2012-05-05T09:29:54Z</time>
      </trkpt>
      <trkpt lat="43.99605" lon="7.19757">
        <ele>1407.400024414</ele>
        <time>2012-05-05T09:29:55Z</time>
      </trkpt>
      <trkpt lat="43.99611" lon="7.1976">
        <ele>1411</ele>
        <time>2012-05-05T09:29:56Z</time>
      </trkpt>
      <trkpt lat="43.99615" lon="7.19762">
        <ele>1413</ele>
        <time>2012-05-05T09:29:57Z</time>
      </trkpt>
      <trkpt lat="43.99623" lon="7.19765">
        <ele>1413</ele>
        <time>2012-05-05T09:29:59Z</time>
      </trkpt>
      <trkpt lat="43.9963" lon="7.1977">
        <ele>1413</ele>
        <time>2012-05-05T09:30:01Z</time>
      </trkpt>
      <trkpt lat="43.99634" lon="7.19771">
        <ele>1413</ele>
        <time>2012-05-05T09:30:02Z</time>
      </trkpt>
      <trkpt lat="43.99638" lon="7.19775">
        <ele>1410</ele>
        <time>2012-05-05T09:30:03Z</time>
      </trkpt>
      <trkpt lat="43.99646" lon="7.19782">
        <ele>1410</ele>
        <time>2012-05-05T09:30:05Z</time>
      </trkpt>
      <trkpt lat="43.99652" lon="7.19784">
        <ele>1407</ele>
        <time>2012-05-05T09:30:06Z</time>
      </trkpt>
      <trkpt lat="43.99664" lon="7.19789">
        <ele>1407</ele>
        <time>2012-05-05T09:30:08Z</time>
      </trkpt>
      <trkpt lat="43.99677" lon="7.19792">
        <ele>1407</ele>
        <time>2012-05-05T09:30:10Z</time>
      </trkpt>
      <trkpt lat="43.99689" lon="7.19796">
        <ele>1407</ele>
        <time>2012-05-05T09:30:12Z</time>
      </trkpt>
      <trkpt lat="43.99695" lon="7.19799">
        <ele>1407</ele>
        <time>2012-05-05T09:30:13Z</time>
      </trkpt>
      <trkpt lat="43.99701" lon="7.198">
        <ele>1407</ele>
        <time>2012-05-05T09:30:14Z</time>
      </trkpt>
      <trkpt lat="43.99715" lon="7.19806">
        <ele>1404.800048828</ele>
        <time>2012-05-05T09:30:16Z</time>
      </trkpt>
      <trkpt lat="43.99721" lon="7.19808">
        <ele>1404.800048828</ele>
        <time>2012-05-05T09:30:17Z</time>
      </trkpt>
      <trkpt lat="43.99726" lon="7.1981">
        <ele>1403.599975586</ele>
        <time>2012-05-05T09:30:18Z</time>
      </trkpt>
      <trkpt lat="43.99734" lon="7.19812">
        <ele>1403.599975586</ele>
        <time>2012-05-05T09:30:20Z</time>
      </trkpt>
      <trkpt lat="43.99742" lon="7.19813">
        <ele>1402.599975586</ele>
        <time>2012-05-05T09:30:21Z</time>
      </trkpt>
      <trkpt lat="43.99752" lon="7.19813">
        <ele>1402.599975586</ele>
        <time>2012-05-05T09:30:23Z</time>
      </trkpt>
      <trkpt lat="43.99757" lon="7.19812">
        <ele>1401.400024414</ele>
        <time>2012-05-05T09:30:24Z</time>
      </trkpt>
      <trkpt lat="43.99767" lon="7.19809">
        <ele>1400.199951172</ele>
        <time>2012-05-05T09:30:26Z</time>
      </trkpt>
      <trkpt lat="43.99772" lon="7.19808">
        <ele>1399</ele>
        <time>2012-05-05T09:30:27Z</time>
      </trkpt>
      <trkpt lat="43.99775" lon="7.19806">
        <ele>1398</ele>
        <time>2012-05-05T09:30:28Z</time>
      </trkpt>
      <trkpt lat="43.99783" lon="7.19805">
        <ele>1398</ele>
        <time>2012-05-05T09:30:30Z</time>
      </trkpt>
      <trkpt lat="43.99788" lon="7.19805">
        <ele>1396.800048828</ele>
        <time>2012-05-05T09:30:31Z</time>
      </trkpt>
      <trkpt lat="43.99793" lon="7.19806">
        <ele>1396.800048828</ele>
        <time>2012-05-05T09:30:32Z</time>
      </trkpt>
      <trkpt lat="43.99798" lon="7.19807">
        <ele>1395.199951172</ele>
        <time>2012-05-05T09:30:33Z</time>
      </trkpt>
      <trkpt lat="43.99808" lon="7.19809">
        <ele>1394.199951172</ele>
        <time>2012-05-05T09:30:35Z</time>
      </trkpt>
      <trkpt lat="43.99814" lon="7.1981">
        <ele>1394.199951172</ele>
        <time>2012-05-05T09:30:36Z</time>
      </trkpt>
      <trkpt lat="43.99818" lon="7.1981">
        <ele>1392.800048828</ele>
        <time>2012-05-05T09:30:37Z</time>
      </trkpt>
      <trkpt lat="43.99827" lon="7.19811">
        <ele>1391.800048828</ele>
        <time>2012-05-05T09:30:39Z</time>
      </trkpt>
      <trkpt lat="43.99831" lon="7.19812">
        <ele>1391.800048828</ele>
        <time>2012-05-05T09:30:40Z</time>
      </trkpt>
      <trkpt lat="43.99838" lon="7.19814">
        <ele>1390.800048828</ele>
        <time>2012-05-05T09:30:42Z</time>
      </trkpt>
      <trkpt lat="43.99845" lon="7.19817">
        <ele>1390.800048828</ele>
        <time>2012-05-05T09:30:44Z</time>
      </trkpt>
      <trkpt lat="43.99848" lon="7.19818">
        <ele>1389.400024414</ele>
        <time>2012-05-05T09:30:45Z</time>
      </trkpt>
      <trkpt lat="43.9986" lon="7.19819">
        <ele>1388.400024414</ele>
        <time>2012-05-05T09:30:48Z</time>
      </trkpt>
      <trkpt lat="43.99876" lon="7.19817">
        <ele>1387</ele>
        <time>2012-05-05T09:30:51Z</time>
      </trkpt>
      <trkpt lat="43.99878" lon="7.19818">
        <ele>1387</ele>
        <time>2012-05-05T09:30:52Z</time>
      </trkpt>
      <trkpt lat="43.99885" lon="7.19818">
        <ele>1386</ele>
        <time>2012-05-05T09:30:54Z</time>
      </trkpt>
      <trkpt lat="43.99893" lon="7.19815">
        <ele>1386</ele>
        <time>2012-05-05T09:30:56Z</time>
      </trkpt>
      <trkpt lat="43.99902" lon="7.19814">
        <ele>1384.599975586</ele>
        <time>2012-05-05T09:30:58Z</time>
      </trkpt>
      <trkpt lat="43.99907" lon="7.19813">
        <ele>1383.400024414</ele>
        <time>2012-05-05T09:30:59Z</time>
      </trkpt>
      <trkpt lat="43.99911" lon="7.19812">
        <ele>1383.400024414</ele>
        <time>2012-05-05T09:31:00Z</time>
      </trkpt>
      <trkpt lat="43.99918" lon="7.19808">
        <ele>1382.199951172</ele>
        <time>2012-05-05T09:31:01Z</time>
      </trkpt>
      <trkpt lat="43.99929" lon="7.19803">
        <ele>1381.199951172</ele>
        <time>2012-05-05T09:31:03Z</time>
      </trkpt>
      <trkpt lat="43.99932" lon="7.19801">
        <ele>1381.199951172</ele>
        <time>2012-05-05T09:31:04Z</time>
      </trkpt>
      <trkpt lat="43.99936" lon="7.19798">
        <ele>1379.800048828</ele>
        <time>2012-05-05T09:31:05Z</time>
      </trkpt>
      <trkpt lat="43.99949" lon="7.1979">
        <ele>1378.800048828</ele>
        <time>2012-05-05T09:31:08Z</time>
      </trkpt>
      <trkpt lat="43.99959" lon="7.19787">
        <ele>1377.599975586</ele>
        <time>2012-05-05T09:31:10Z</time>
      </trkpt>
      <trkpt lat="43.99965" lon="7.19786">
        <ele>1377.599975586</ele>
        <time>2012-05-05T09:31:11Z</time>
      </trkpt>
      <trkpt lat="43.9997" lon="7.19786">
        <ele>1377.599975586</ele>
        <time>2012-05-05T09:31:12Z</time>
      </trkpt>
      <trkpt lat="43.99973" lon="7.19787">
        <ele>1377.599975586</ele>
        <time>2012-05-05T09:31:13Z</time>
      </trkpt>
      <trkpt lat="43.9998" lon="7.19792">
        <ele>1376.400024414</ele>
        <time>2012-05-05T09:31:15Z</time>
      </trkpt>
      <trkpt lat="43.99984" lon="7.19794">
        <ele>1376.400024414</ele>
        <time>2012-05-05T09:31:16Z</time>
      </trkpt>
      <trkpt lat="43.9999" lon="7.19797">
        <ele>1374.599975586</ele>
        <time>2012-05-05T09:31:18Z</time>
      </trkpt>
      <trkpt lat="43.99992" lon="7.19798">
        <ele>1374.599975586</ele>
        <time>2012-05-05T09:31:19Z</time>
      </trkpt>
      <trkpt lat="43.99994" lon="7.19799">
        <ele>1373.199951172</ele>
        <time>2012-05-05T09:31:20Z</time>
      </trkpt>
      <trkpt lat="43.99997" lon="7.198">
        <ele>1372.199951172</ele>
        <time>2012-05-05T09:31:21Z</time>
      </trkpt>
      <trkpt lat="44.00001" lon="7.19799">
        <ele>1371.199951172</ele>
        <time>2012-05-05T09:31:22Z</time>
      </trkpt>
      <trkpt lat="44.00009" lon="7.198">
        <ele>1370</ele>
        <time>2012-05-05T09:31:24Z</time>
      </trkpt>
      <trkpt lat="44.00017" lon="7.19802">
        <ele>1369</ele>
        <time>2012-05-05T09:31:26Z</time>
      </trkpt>
      <trkpt lat="44.00026" lon="7.19807">
        <ele>1367.800048828</ele>
        <time>2012-05-05T09:31:28Z</time>
      </trkpt>
      <trkpt lat="44.00029" lon="7.1981">
        <ele>1367.800048828</ele>
        <time>2012-05-05T09:31:29Z</time>
      </trkpt>
      <trkpt lat="44.00036" lon="7.19819">
        <ele>1366.599975586</ele>
        <time>2012-05-05T09:31:31Z</time>
      </trkpt>
      <trkpt lat="44.00042" lon="7.19827">
        <ele>1365.599975586</ele>
        <time>2012-05-05T09:31:33Z</time>
      </trkpt>
      <trkpt lat="44.0005" lon="7.19838">
        <ele>1364.599975586</ele>
        <time>2012-05-05T09:31:36Z</time>
      </trkpt>
      <trkpt lat="44.00054" lon="7.19841">
        <ele>1364.599975586</ele>
        <time>2012-05-05T09:31:37Z</time>
      </trkpt>
      <trkpt lat="44.00062" lon="7.19847">
        <ele>1364.599975586</ele>
        <time>2012-05-05T09:31:41Z</time>
      </trkpt>
      <trkpt lat="44.00062" lon="7.19847">
        <ele>1363.599975586</ele>
        <time>2012-05-05T09:31:42Z</time>
      </trkpt>
      <trkpt lat="44.00065" lon="7.19849">
        <ele>1362.199951172</ele>
        <time>2012-05-05T09:31:49Z</time>
      </trkpt>
      <trkpt lat="44.00065" lon="7.19849">
        <ele>1362.199951172</ele>
        <time>2012-05-05T09:31:50Z</time>
      </trkpt>
      <trkpt lat="44.00069" lon="7.19852">
        <ele>1361</ele>
        <time>2012-05-05T09:31:53Z</time>
      </trkpt>
      <trkpt lat="44.00071" lon="7.19853">
        <ele>1361</ele>
        <time>2012-05-05T09:31:54Z</time>
      </trkpt>
      <trkpt lat="44.00076" lon="7.19855">
        <ele>1360</ele>
        <time>2012-05-05T09:31:56Z</time>
      </trkpt>
      <trkpt lat="44.0008" lon="7.19856">
        <ele>1360</ele>
        <time>2012-05-05T09:31:58Z</time>
      </trkpt>
      <trkpt lat="44.00089" lon="7.19863">
        <ele>1359</ele>
        <time>2012-05-05T09:32:01Z</time>
      </trkpt>
      <trkpt lat="44.00093" lon="7.19866">
        <ele>1359</ele>
        <time>2012-05-05T09:32:02Z</time>
      </trkpt>
      <trkpt lat="44.001" lon="7.19872">
        <ele>1358</ele>
        <time>2012-05-05T09:32:04Z</time>
      </trkpt>
      <trkpt lat="44.00108" lon="7.19873">
        <ele>1358</ele>
        <time>2012-05-05T09:32:06Z</time>
      </trkpt>
      <trkpt lat="44.00128" lon="7.19874">
        <ele>1357</ele>
        <time>2012-05-05T09:32:10Z</time>
      </trkpt>
      <trkpt lat="44.0014" lon="7.19881">
        <ele>1357</ele>
        <time>2012-05-05T09:32:12Z</time>
      </trkpt>
      <trkpt lat="44.00144" lon="7.19882">
        <ele>1357</ele>
        <time>2012-05-05T09:32:13Z</time>
      </trkpt>
      <trkpt lat="44.00155" lon="7.1988">
        <ele>1355.599975586</ele>
        <time>2012-05-05T09:32:15Z</time>
      </trkpt>
      <trkpt lat="44.00162" lon="7.19879">
        <ele>1355.599975586</ele>
        <time>2012-05-05T09:32:16Z</time>
      </trkpt>
      <trkpt lat="44.00176" lon="7.19878">
        <ele>1354.199951172</ele>
        <time>2012-05-05T09:32:19Z</time>
      </trkpt>
      <trkpt lat="44.00182" lon="7.1988">
        <ele>1354.199951172</ele>
        <time>2012-05-05T09:32:20Z</time>
      </trkpt>
      <trkpt lat="44.00195" lon="7.19886">
        <ele>1354.199951172</ele>
        <time>2012-05-05T09:32:22Z</time>
      </trkpt>
      <trkpt lat="44.00201" lon="7.19887">
        <ele>1353</ele>
        <time>2012-05-05T09:32:23Z</time>
      </trkpt>
      <trkpt lat="44.00218" lon="7.1988">
        <ele>1353</ele>
        <time>2012-05-05T09:32:26Z</time>
      </trkpt>
      <trkpt lat="44.00223" lon="7.19875">
        <ele>1352</ele>
        <time>2012-05-05T09:32:27Z</time>
      </trkpt>
      <trkpt lat="44.00236" lon="7.19863">
        <ele>1351</ele>
        <time>2012-05-05T09:32:30Z</time>
      </trkpt>
      <trkpt lat="44.00248" lon="7.19855">
        <ele>1349.400024414</ele>
        <time>2012-05-05T09:32:32Z</time>
      </trkpt>
      <trkpt lat="44.0026" lon="7.19849">
        <ele>1347.800048828</ele>
        <time>2012-05-05T09:32:34Z</time>
      </trkpt>
      <trkpt lat="44.00265" lon="7.19847">
        <ele>1346.800048828</ele>
        <time>2012-05-05T09:32:35Z</time>
      </trkpt>
      <trkpt lat="44.00272" lon="7.19844">
        <ele>1345.800048828</ele>
        <time>2012-05-05T09:32:36Z</time>
      </trkpt>
      <trkpt lat="44.0028" lon="7.19841">
        <ele>1344.800048828</ele>
        <time>2012-05-05T09:32:37Z</time>
      </trkpt>
      <trkpt lat="44.00292" lon="7.19839">
        <ele>1343</ele>
        <time>2012-05-05T09:32:39Z</time>
      </trkpt>
      <trkpt lat="44.00303" lon="7.19836">
        <ele>1341.800048828</ele>
        <time>2012-05-05T09:32:41Z</time>
      </trkpt>
      <trkpt lat="44.00309" lon="7.19834">
        <ele>1340.599975586</ele>
        <time>2012-05-05T09:32:42Z</time>
      </trkpt>
      <trkpt lat="44.00314" lon="7.19832">
        <ele>1339.199951172</ele>
        <time>2012-05-05T09:32:43Z</time>
      </trkpt>
      <trkpt lat="44.00319" lon="7.19832">
        <ele>1337</ele>
        <time>2012-05-05T09:32:44Z</time>
      </trkpt>
      <trkpt lat="44.00324" lon="7.19832">
        <ele>1335</ele>
        <time>2012-05-05T09:32:45Z</time>
      </trkpt>
      <trkpt lat="44.00328" lon="7.19833">
        <ele>1333</ele>
        <time>2012-05-05T09:32:46Z</time>
      </trkpt>
      <trkpt lat="44.00332" lon="7.19835">
        <ele>1331.199951172</ele>
        <time>2012-05-05T09:32:47Z</time>
      </trkpt>
      <trkpt lat="44.00337" lon="7.19838">
        <ele>1328.800048828</ele>
        <time>2012-05-05T09:32:48Z</time>
      </trkpt>
      <trkpt lat="44.0034" lon="7.19841">
        <ele>1326.599975586</ele>
        <time>2012-05-05T09:32:49Z</time>
      </trkpt>
      <trkpt lat="44.00343" lon="7.19844">
        <ele>1325</ele>
        <time>2012-05-05T09:32:50Z</time>
      </trkpt>
      <trkpt lat="44.00347" lon="7.19848">
        <ele>1323.199951172</ele>
        <time>2012-05-05T09:32:51Z</time>
      </trkpt>
      <trkpt lat="44.00351" lon="7.19851">
        <ele>1321.400024414</ele>
        <time>2012-05-05T09:32:52Z</time>
      </trkpt>
      <trkpt lat="44.00355" lon="7.19855">
        <ele>1320.199951172</ele>
        <time>2012-05-05T09:32:53Z</time>
      </trkpt>
      <trkpt lat="44.00358" lon="7.19858">
        <ele>1319</ele>
        <time>2012-05-05T09:32:54Z</time>
      </trkpt>
      <trkpt lat="44.0036" lon="7.19856">
        <ele>1319</ele>
        <time>2012-05-05T09:32:55Z</time>
      </trkpt>
      <trkpt lat="44.00361" lon="7.19856">
        <ele>1319</ele>
        <time>2012-05-05T09:32:56Z</time>
      </trkpt>
      <trkpt lat="44.00361" lon="7.19856">
        <ele>1317.800048828</ele>
        <time>2012-05-05T09:32:59Z</time>
      </trkpt>
      <trkpt lat="44.00361" lon="7.19856">
        <ele>1317.800048828</ele>
        <time>2012-05-05T09:33:01Z</time>
      </trkpt>
      <trkpt lat="44.0036" lon="7.19858">
        <ele>1317.800048828</ele>
        <time>2012-05-05T09:33:05Z</time>
      </trkpt>
      <trkpt lat="44.00361" lon="7.19858">
        <ele>1317.800048828</ele>
        <time>2012-05-05T09:33:07Z</time>
      </trkpt>
      <trkpt lat="44.00362" lon="7.19858">
        <ele>1317.800048828</ele>
        <time>2012-05-05T09:33:11Z</time>
      </trkpt>
      <trkpt lat="44.0036" lon="7.1985">
        <ele>1317.800048828</ele>
        <time>2012-05-05T09:33:16Z</time>
      </trkpt>
      <trkpt lat="44.00361" lon="7.19848">
        <ele>1317.800048828</ele>
        <time>2012-05-05T09:33:20Z</time>
      </trkpt>
      <trkpt lat="44.00361" lon="7.19849">
        <ele>1317.800048828</ele>
        <time>2012-05-05T09:33:22Z</time>
      </trkpt>
      <trkpt lat="44.00361" lon="7.19848">
        <ele>1317.800048828</ele>
        <time>2012-05-05T09:33:27Z</time>
      </trkpt>
      <trkpt lat="44.00361" lon="7.19848">
        <ele>1317.800048828</ele>
        <time>2012-05-05T09:33:34Z</time>
      </trkpt>
      <trkpt lat="44.00362" lon="7.19849">
        <ele>1317.800048828</ele>
        <time>2012-05-05T09:33:40Z</time>
      </trkpt>
      <trkpt lat="44.00361" lon="7.19856">
        <ele>1317.800048828</ele>
        <time>2012-05-05T09:33:45Z</time>
      </trkpt>
      <trkpt lat="44.00361" lon="7.19856">
        <ele>1317.800048828</ele>
        <time>2012-05-05T09:33:50Z</time>
      </trkpt>
      <trkpt lat="44.00361" lon="7.19856">
        <ele>1317.800048828</ele>
        <time>2012-05-05T09:33:57Z</time>
      </trkpt>
      <trkpt lat="44.00361" lon="7.19855">
        <ele>1317.800048828</ele>
        <time>2012-05-05T09:34:02Z</time>
      </trkpt>
      <trkpt lat="44.0036" lon="7.19856">
        <ele>1317.800048828</ele>
        <time>2012-05-05T09:34:11Z</time>
      </trkpt>
      <trkpt lat="44.00358" lon="7.19852">
        <ele>1317.800048828</ele>
        <time>2012-05-05T09:34:18Z</time>
      </trkpt>
      <trkpt lat="44.00359" lon="7.19851">
        <ele>1317.800048828</ele>
        <time>2012-05-05T09:34:24Z</time>
      </trkpt>
      <trkpt lat="44.0036" lon="7.19849">
        <ele>1317.800048828</ele>
        <time>2012-05-05T09:34:28Z</time>
      </trkpt>
      <trkpt lat="44.00359" lon="7.19848">
        <ele>1317.800048828</ele>
        <time>2012-05-05T09:34:29Z</time>
      </trkpt>
      <trkpt lat="44.00359" lon="7.19849">
        <ele>1317.800048828</ele>
        <time>2012-05-05T09:34:33Z</time>
      </trkpt>
      <trkpt lat="44.00358" lon="7.19844">
        <ele>1317.800048828</ele>
        <time>2012-05-05T09:34:37Z</time>
      </trkpt>
      <trkpt lat="44.00356" lon="7.19835">
        <ele>1315.800048828</ele>
        <time>2012-05-05T09:34:39Z</time>
      </trkpt>
      <trkpt lat="44.00355" lon="7.1983">
        <ele>1314.400024414</ele>
        <time>2012-05-05T09:34:40Z</time>
      </trkpt>
      <trkpt lat="44.00353" lon="7.19823">
        <ele>1313.199951172</ele>
        <time>2012-05-05T09:34:41Z</time>
      </trkpt>
      <trkpt lat="44.00347" lon="7.19811">
        <ele>1312</ele>
        <time>2012-05-05T09:34:44Z</time>
      </trkpt>
      <trkpt lat="44.00344" lon="7.19807">
        <ele>1310.800048828</ele>
        <time>2012-05-05T09:34:46Z</time>
      </trkpt>
      <trkpt lat="44.00344" lon="7.19807">
        <ele>1310.800048828</ele>
        <time>2012-05-05T09:34:48Z</time>
      </trkpt>
      <trkpt lat="44.00343" lon="7.19807">
        <ele>1310.800048828</ele>
        <time>2012-05-05T09:34:57Z</time>
      </trkpt>
      <trkpt lat="44.00343" lon="7.19807">
        <ele>1310.800048828</ele>
        <time>2012-05-05T09:34:59Z</time>
      </trkpt>
      <trkpt lat="44.00343" lon="7.19806">
        <ele>1310.800048828</ele>
        <time>2012-05-05T09:35:05Z</time>
      </trkpt>
      <trkpt lat="44.00343" lon="7.19805">
        <ele>1309.800048828</ele>
        <time>2012-05-05T09:35:06Z</time>
      </trkpt>
      <trkpt lat="44.00344" lon="7.19806">
        <ele>1309.800048828</ele>
        <time>2012-05-05T09:35:10Z</time>
      </trkpt>
      <trkpt lat="44.00344" lon="7.19806">
        <ele>1309.800048828</ele>
        <time>2012-05-05T09:35:15Z</time>
      </trkpt>
      <trkpt lat="44.00344" lon="7.19806">
        <ele>1309.800048828</ele>
        <time>2012-05-05T09:35:17Z</time>
      </trkpt>
      <trkpt lat="44.00344" lon="7.19806">
        <ele>1309.800048828</ele>
        <time>2012-05-05T09:35:18Z</time>
      </trkpt>
      <trkpt lat="44.00344" lon="7.19806">
        <ele>1309.800048828</ele>
        <time>2012-05-05T09:35:22Z</time>
      </trkpt>
      <trkpt lat="44.00344" lon="7.19805">
        <ele>1309.800048828</ele>
        <time>2012-05-05T09:35:26Z</time>
      </trkpt>
      <trkpt lat="44.00343" lon="7.19804">
        <ele>1309.800048828</ele>
        <time>2012-05-05T09:35:37Z</time>
      </trkpt>
      <trkpt lat="44.00343" lon="7.19801">
        <ele>1309.800048828</ele>
        <time>2012-05-05T09:35:41Z</time>
      </trkpt>
      <trkpt lat="44.00343" lon="7.198">
        <ele>1309.800048828</ele>
        <time>2012-05-05T09:35:42Z</time>
      </trkpt>
      <trkpt lat="44.00344" lon="7.198">
        <ele>1309.800048828</ele>
        <time>2012-05-05T09:35:44Z</time>
      </trkpt>
      <trkpt lat="44.00343" lon="7.198">
        <ele>1309.800048828</ele>
        <time>2012-05-05T09:35:46Z</time>
      </trkpt>
      <trkpt lat="44.00343" lon="7.19801">
        <ele>1309.800048828</ele>
        <time>2012-05-05T09:35:51Z</time>
      </trkpt>
      <trkpt lat="44.00343" lon="7.19801">
        <ele>1309.800048828</ele>
        <time>2012-05-05T09:35:58Z</time>
      </trkpt>
      <trkpt lat="44.00343" lon="7.19802">
        <ele>1309.800048828</ele>
        <time>2012-05-05T09:36:04Z</time>
      </trkpt>
      <trkpt lat="44.00342" lon="7.19802">
        <ele>1309.800048828</ele>
        <time>2012-05-05T09:36:06Z</time>
      </trkpt>
      <trkpt lat="44.00342" lon="7.19804">
        <ele>1309.800048828</ele>
        <time>2012-05-05T09:36:09Z</time>
      </trkpt>
      <trkpt lat="44.00342" lon="7.19802">
        <ele>1309.800048828</ele>
        <time>2012-05-05T09:36:11Z</time>
      </trkpt>
      <trkpt lat="44.00345" lon="7.19794">
        <ele>1309.800048828</ele>
        <time>2012-05-05T09:36:18Z</time>
      </trkpt>
      <trkpt lat="44.00345" lon="7.19795">
        <ele>1309.800048828</ele>
        <time>2012-05-05T09:36:25Z</time>
      </trkpt>
      <trkpt lat="44.00345" lon="7.19797">
        <ele>1308.800048828</ele>
        <time>2012-05-05T09:36:34Z</time>
      </trkpt>
      <trkpt lat="44.00345" lon="7.19798">
        <ele>1308.800048828</ele>
        <time>2012-05-05T09:36:38Z</time>
      </trkpt>
      <trkpt lat="44.00345" lon="7.19799">
        <ele>1308.800048828</ele>
        <time>2012-05-05T09:36:44Z</time>
      </trkpt>
      <trkpt lat="44.00345" lon="7.19801">
        <ele>1308.800048828</ele>
        <time>2012-05-05T09:36:54Z</time>
      </trkpt>
      <trkpt lat="44.00344" lon="7.19802">
        <ele>1308.800048828</ele>
        <time>2012-05-05T09:36:58Z</time>
      </trkpt>
      <trkpt lat="44.00345" lon="7.19802">
        <ele>1308.800048828</ele>
        <time>2012-05-05T09:37:01Z</time>
      </trkpt>
      <trkpt lat="44.00344" lon="7.19802">
        <ele>1308.800048828</ele>
        <time>2012-05-05T09:37:06Z</time>
      </trkpt>
      <trkpt lat="44.00343" lon="7.19802">
        <ele>1308.800048828</ele>
        <time>2012-05-05T09:37:08Z</time>
      </trkpt>
      <trkpt lat="44.00338" lon="7.198">
        <ele>1308.800048828</ele>
        <time>2012-05-05T09:37:14Z</time>
      </trkpt>
      <trkpt lat="44.00333" lon="7.19798">
        <ele>1307.599975586</ele>
        <time>2012-05-05T09:37:16Z</time>
      </trkpt>
      <trkpt lat="44.00324" lon="7.19796">
        <ele>1307.599975586</ele>
        <time>2012-05-05T09:37:19Z</time>
      </trkpt>
      <trkpt lat="44.00308" lon="7.19793">
        <ele>1307.599975586</ele>
        <time>2012-05-05T09:37:25Z</time>
      </trkpt>
      <trkpt lat="44.00301" lon="7.19792">
        <ele>1307.599975586</ele>
        <time>2012-05-05T09:37:31Z</time>
      </trkpt>
      <trkpt lat="44.003" lon="7.19793">
        <ele>1307.599975586</ele>
        <time>2012-05-05T09:37:33Z</time>
      </trkpt>
      <trkpt lat="44.003" lon="7.19792">
        <ele>1307.599975586</ele>
        <time>2012-05-05T09:37:35Z</time>
      </trkpt>
      <trkpt lat="44.00296" lon="7.19792">
        <ele>1307.599975586</ele>
        <time>2012-05-05T09:37:41Z</time>
      </trkpt>
      <trkpt lat="44.00295" lon="7.19791">
        <ele>1307.599975586</ele>
        <time>2012-05-05T09:37:42Z</time>
      </trkpt>
      <trkpt lat="44.00294" lon="7.19789">
        <ele>1307.599975586</ele>
        <time>2012-05-05T09:37:48Z</time>
      </trkpt>
      <trkpt lat="44.00294" lon="7.19788">
        <ele>1309.599975586</ele>
        <time>2012-05-05T09:37:49Z</time>
      </trkpt>
      <trkpt lat="44.00294" lon="7.19787">
        <ele>1309.599975586</ele>
        <time>2012-05-05T09:37:54Z</time>
      </trkpt>
      <trkpt lat="44.00294" lon="7.19787">
        <ele>1310.800048828</ele>
        <time>2012-05-05T09:37:56Z</time>
      </trkpt>
      <trkpt lat="44.00294" lon="7.19786">
        <ele>1311.800048828</ele>
        <time>2012-05-05T09:38:03Z</time>
      </trkpt>
      <trkpt lat="44.00294" lon="7.19783">
        <ele>1311.800048828</ele>
        <time>2012-05-05T09:38:09Z</time>
      </trkpt>
      <trkpt lat="44.00291" lon="7.19782">
        <ele>1311.800048828</ele>
        <time>2012-05-05T09:38:13Z</time>
      </trkpt>
      <trkpt lat="44.0029" lon="7.19784">
        <ele>1311.800048828</ele>
        <time>2012-05-05T09:38:18Z</time>
      </trkpt>
      <trkpt lat="44.00292" lon="7.19785">
        <ele>1311.800048828</ele>
        <time>2012-05-05T09:38:22Z</time>
      </trkpt>
      <trkpt lat="44.00293" lon="7.19787">
        <ele>1311.800048828</ele>
        <time>2012-05-05T09:38:27Z</time>
      </trkpt>
      <trkpt lat="44.00292" lon="7.19786">
        <ele>1311.800048828</ele>
        <time>2012-05-05T09:38:33Z</time>
      </trkpt>
      <trkpt lat="44.00295" lon="7.19789">
        <ele>1311.800048828</ele>
        <time>2012-05-05T09:38:38Z</time>
      </trkpt>
      <trkpt lat="44.00295" lon="7.19789">
        <ele>1311.800048828</ele>
        <time>2012-05-05T09:38:41Z</time>
      </trkpt>
      <trkpt lat="44.00295" lon="7.19787">
        <ele>1311.800048828</ele>
        <time>2012-05-05T09:38:44Z</time>
      </trkpt>
      <trkpt lat="44.00295" lon="7.19787">
        <ele>1311.800048828</ele>
        <time>2012-05-05T09:38:45Z</time>
      </trkpt>
      <trkpt lat="44.00295" lon="7.19786">
        <ele>1311.800048828</ele>
        <time>2012-05-05T09:38:52Z</time>
      </trkpt>
      <trkpt lat="44.00295" lon="7.19785">
        <ele>1311.800048828</ele>
        <time>2012-05-05T09:39:02Z</time>
      </trkpt>
      <trkpt lat="44.00295" lon="7.19785">
        <ele>1311.800048828</ele>
        <time>2012-05-05T09:39:03Z</time>
      </trkpt>
      <trkpt lat="44.00295" lon="7.19784">
        <ele>1311.800048828</ele>
        <time>2012-05-05T09:39:05Z</time>
      </trkpt>
      <trkpt lat="44.00295" lon="7.19783">
        <ele>1311.800048828</ele>
        <time>2012-05-05T09:39:15Z</time>
      </trkpt>
      <trkpt lat="44.00295" lon="7.19783">
        <ele>1311.800048828</ele>
        <time>2012-05-05T09:39:17Z</time>
      </trkpt>
      <trkpt lat="44.00294" lon="7.19782">
        <ele>1311.800048828</ele>
        <time>2012-05-05T09:39:31Z</time>
      </trkpt>
      <trkpt lat="44.00294" lon="7.19782">
        <ele>1311.800048828</ele>
        <time>2012-05-05T09:39:39Z</time>
      </trkpt>
      <trkpt lat="44.00294" lon="7.19781">
        <ele>1311.800048828</ele>
        <time>2012-05-05T09:39:48Z</time>
      </trkpt>
      <trkpt lat="44.00293" lon="7.1978">
        <ele>1311.800048828</ele>
        <time>2012-05-05T09:39:50Z</time>
      </trkpt>
      <trkpt lat="44.00293" lon="7.19778">
        <ele>1311.800048828</ele>
        <time>2012-05-05T09:39:56Z</time>
      </trkpt>
      <trkpt lat="44.00287" lon="7.19771">
        <ele>1311.800048828</ele>
        <time>2012-05-05T09:40:01Z</time>
      </trkpt>
      <trkpt lat="44.0028" lon="7.19771">
        <ele>1309.199951172</ele>
        <time>2012-05-05T09:40:04Z</time>
      </trkpt>
      <trkpt lat="44.00275" lon="7.19771">
        <ele>1309.199951172</ele>
        <time>2012-05-05T09:40:05Z</time>
      </trkpt>
      <trkpt lat="44.00269" lon="7.19771">
        <ele>1308</ele>
        <time>2012-05-05T09:40:06Z</time>
      </trkpt>
      <trkpt lat="44.00265" lon="7.19772">
        <ele>1306.599975586</ele>
        <time>2012-05-05T09:40:07Z</time>
      </trkpt>
      <trkpt lat="44.00257" lon="7.19766">
        <ele>1306.599975586</ele>
        <time>2012-05-05T09:40:10Z</time>
      </trkpt>
      <trkpt lat="44.00254" lon="7.19761">
        <ele>1304.800048828</ele>
        <time>2012-05-05T09:40:11Z</time>
      </trkpt>
      <trkpt lat="44.00252" lon="7.19757">
        <ele>1303.800048828</ele>
        <time>2012-05-05T09:40:12Z</time>
      </trkpt>
      <trkpt lat="44.00252" lon="7.19753">
        <ele>1302.800048828</ele>
        <time>2012-05-05T09:40:13Z</time>
      </trkpt>
      <trkpt lat="44.00251" lon="7.19744">
        <ele>1301.199951172</ele>
        <time>2012-05-05T09:40:16Z</time>
      </trkpt>
      <trkpt lat="44.00245" lon="7.19742">
        <ele>1301.199951172</ele>
        <time>2012-05-05T09:40:18Z</time>
      </trkpt>
      <trkpt lat="44.00236" lon="7.1974">
        <ele>1301.199951172</ele>
        <time>2012-05-05T09:40:21Z</time>
      </trkpt>
      <trkpt lat="44.00234" lon="7.19739">
        <ele>1299.199951172</ele>
        <time>2012-05-05T09:40:22Z</time>
      </trkpt>
      <trkpt lat="44.00231" lon="7.19738">
        <ele>1299.199951172</ele>
        <time>2012-05-05T09:40:23Z</time>
      </trkpt>
      <trkpt lat="44.00228" lon="7.19736">
        <ele>1299.199951172</ele>
        <time>2012-05-05T09:40:24Z</time>
      </trkpt>
      <trkpt lat="44.00226" lon="7.19734">
        <ele>1298</ele>
        <time>2012-05-05T09:40:25Z</time>
      </trkpt>
      <trkpt lat="44.00222" lon="7.19733">
        <ele>1297</ele>
        <time>2012-05-05T09:40:27Z</time>
      </trkpt>
      <trkpt lat="44.00221" lon="7.19733">
        <ele>1295.800048828</ele>
        <time>2012-05-05T09:40:29Z</time>
      </trkpt>
      <trkpt lat="44.0022" lon="7.19733">
        <ele>1295.800048828</ele>
        <time>2012-05-05T09:40:31Z</time>
      </trkpt>
      <trkpt lat="44.0022" lon="7.19734">
        <ele>1294.599975586</ele>
        <time>2012-05-05T09:40:32Z</time>
      </trkpt>
      <trkpt lat="44.00219" lon="7.19736">
        <ele>1293.199951172</ele>
        <time>2012-05-05T09:40:36Z</time>
      </trkpt>
      <trkpt lat="44.00218" lon="7.19736">
        <ele>1293.199951172</ele>
        <time>2012-05-05T09:40:37Z</time>
      </trkpt>
      <trkpt lat="44.00217" lon="7.19736">
        <ele>1292</ele>
        <time>2012-05-05T09:40:41Z</time>
      </trkpt>
      <trkpt lat="44.00216" lon="7.19737">
        <ele>1292</ele>
        <time>2012-05-05T09:40:43Z</time>
      </trkpt>
      <trkpt lat="44.00216" lon="7.19737">
        <ele>1291</ele>
        <time>2012-05-05T09:40:46Z</time>
      </trkpt>
      <trkpt lat="44.00214" lon="7.19736">
        <ele>1289.599975586</ele>
        <time>2012-05-05T09:40:50Z</time>
      </trkpt>
      <trkpt lat="44.0021" lon="7.1973">
        <ele>1288.199951172</ele>
        <time>2012-05-05T09:40:52Z</time>
      </trkpt>
      <trkpt lat="44.00205" lon="7.19724">
        <ele>1288.199951172</ele>
        <time>2012-05-05T09:40:54Z</time>
      </trkpt>
      <trkpt lat="44.00203" lon="7.19722">
        <ele>1288.199951172</ele>
        <time>2012-05-05T09:40:57Z</time>
      </trkpt>
      <trkpt lat="44.00203" lon="7.19722">
        <ele>1287.199951172</ele>
        <time>2012-05-05T09:40:59Z</time>
      </trkpt>
      <trkpt lat="44.00203" lon="7.19723">
        <ele>1287.199951172</ele>
        <time>2012-05-05T09:41:02Z</time>
      </trkpt>
      <trkpt lat="44.00202" lon="7.19723">
        <ele>1287.199951172</ele>
        <time>2012-05-05T09:41:11Z</time>
      </trkpt>
      <trkpt lat="44.00202" lon="7.19723">
        <ele>1287.199951172</ele>
        <time>2012-05-05T09:41:15Z</time>
      </trkpt>
      <trkpt lat="44.00202" lon="7.19723">
        <ele>1287.199951172</ele>
        <time>2012-05-05T09:41:19Z</time>
      </trkpt>
      <trkpt lat="44.00202" lon="7.19722">
        <ele>1287.199951172</ele>
        <time>2012-05-05T09:41:26Z</time>
      </trkpt>
      <trkpt lat="44.00202" lon="7.19722">
        <ele>1287.199951172</ele>
        <time>2012-05-05T09:41:31Z</time>
      </trkpt>
      <trkpt lat="44.00202" lon="7.19722">
        <ele>1287.199951172</ele>
        <time>2012-05-05T09:41:33Z</time>
      </trkpt>
      <trkpt lat="44.00197" lon="7.19716">
        <ele>1284.800048828</ele>
        <time>2012-05-05T09:41:36Z</time>
      </trkpt>
      <trkpt lat="44.00193" lon="7.19711">
        <ele>1283.599975586</ele>
        <time>2012-05-05T09:41:37Z</time>
      </trkpt>
      <trkpt lat="44.0019" lon="7.19707">
        <ele>1282.199951172</ele>
        <time>2012-05-05T09:41:38Z</time>
      </trkpt>
      <trkpt lat="44.00186" lon="7.19704">
        <ele>1281</ele>
        <time>2012-05-05T09:41:39Z</time>
      </trkpt>
      <trkpt lat="44.00182" lon="7.19694">
        <ele>1280</ele>
        <time>2012-05-05T09:41:41Z</time>
      </trkpt>
      <trkpt lat="44.00181" lon="7.19685">
        <ele>1278.599975586</ele>
        <time>2012-05-05T09:41:43Z</time>
      </trkpt>
      <trkpt lat="44.00181" lon="7.19678">
        <ele>1277.400024414</ele>
        <time>2012-05-05T09:41:45Z</time>
      </trkpt>
      <trkpt lat="44.00181" lon="7.19675">
        <ele>1277.400024414</ele>
        <time>2012-05-05T09:41:46Z</time>
      </trkpt>
      <trkpt lat="44.0018" lon="7.19673">
        <ele>1276.199951172</ele>
        <time>2012-05-05T09:41:47Z</time>
      </trkpt>
      <trkpt lat="44.00178" lon="7.1967">
        <ele>1276.199951172</ele>
        <time>2012-05-05T09:41:50Z</time>
      </trkpt>
      <trkpt lat="44.00177" lon="7.19669">
        <ele>1275</ele>
        <time>2012-05-05T09:41:51Z</time>
      </trkpt>
      <trkpt lat="44.00174" lon="7.19666">
        <ele>1274</ele>
        <time>2012-05-05T09:41:53Z</time>
      </trkpt>
      <trkpt lat="44.00171" lon="7.19661">
        <ele>1273</ele>
        <time>2012-05-05T09:41:55Z</time>
      </trkpt>
      <trkpt lat="44.00169" lon="7.1966">
        <ele>1273</ele>
        <time>2012-05-05T09:41:56Z</time>
      </trkpt>
      <trkpt lat="44.00167" lon="7.19659">
        <ele>1271.800048828</ele>
        <time>2012-05-05T09:41:57Z</time>
      </trkpt>
      <trkpt lat="44.00161" lon="7.19655">
        <ele>1270.800048828</ele>
        <time>2012-05-05T09:41:59Z</time>
      </trkpt>
      <trkpt lat="44.0016" lon="7.19651">
        <ele>1270.800048828</ele>
        <time>2012-05-05T09:42:00Z</time>
      </trkpt>
      <trkpt lat="44.00159" lon="7.19646">
        <ele>1269.400024414</ele>
        <time>2012-05-05T09:42:01Z</time>
      </trkpt>
      <trkpt lat="44.00157" lon="7.19642">
        <ele>1268</ele>
        <time>2012-05-05T09:42:02Z</time>
      </trkpt>
      <trkpt lat="44.00155" lon="7.19634">
        <ele>1268</ele>
        <time>2012-05-05T09:42:05Z</time>
      </trkpt>
      <trkpt lat="44.00156" lon="7.19629">
        <ele>1267</ele>
        <time>2012-05-05T09:42:06Z</time>
      </trkpt>
      <trkpt lat="44.00159" lon="7.19625">
        <ele>1265.800048828</ele>
        <time>2012-05-05T09:42:08Z</time>
      </trkpt>
      <trkpt lat="44.00159" lon="7.19623">
        <ele>1265.800048828</ele>
        <time>2012-05-05T09:42:09Z</time>
      </trkpt>
      <trkpt lat="44.00158" lon="7.19621">
        <ele>1264.599975586</ele>
        <time>2012-05-05T09:42:10Z</time>
      </trkpt>
      <trkpt lat="44.00157" lon="7.19619">
        <ele>1264.599975586</ele>
        <time>2012-05-05T09:42:11Z</time>
      </trkpt>
      <trkpt lat="44.00157" lon="7.19616">
        <ele>1263.599975586</ele>
        <time>2012-05-05T09:42:13Z</time>
      </trkpt>
      <trkpt lat="44.00156" lon="7.19614">
        <ele>1263.599975586</ele>
        <time>2012-05-05T09:42:18Z</time>
      </trkpt>
      <trkpt lat="44.00155" lon="7.19611">
        <ele>1263.599975586</ele>
        <time>2012-05-05T09:42:21Z</time>
      </trkpt>
      <trkpt lat="44.00155" lon="7.19612">
        <ele>1263.599975586</ele>
        <time>2012-05-05T09:42:22Z</time>
      </trkpt>
      <trkpt lat="44.00155" lon="7.19609">
        <ele>1263.599975586</ele>
        <time>2012-05-05T09:42:27Z</time>
      </trkpt>
      <trkpt lat="44.00154" lon="7.1961">
        <ele>1263.599975586</ele>
        <time>2012-05-05T09:42:34Z</time>
      </trkpt>
      <trkpt lat="44.00153" lon="7.1961">
        <ele>1263.599975586</ele>
        <time>2012-05-05T09:42:37Z</time>
      </trkpt>
      <trkpt lat="44.00153" lon="7.1961">
        <ele>1263.599975586</ele>
        <time>2012-05-05T09:42:38Z</time>
      </trkpt>
      <trkpt lat="44.00154" lon="7.19614">
        <ele>1263.599975586</ele>
        <time>2012-05-05T09:42:45Z</time>
      </trkpt>
      <trkpt lat="44.00155" lon="7.19614">
        <ele>1263.599975586</ele>
        <time>2012-05-05T09:42:48Z</time>
      </trkpt>
      <trkpt lat="44.00155" lon="7.19614">
        <ele>1263.599975586</ele>
        <time>2012-05-05T09:42:49Z</time>
      </trkpt>
      <trkpt lat="44.00156" lon="7.19608">
        <ele>1263.599975586</ele>
        <time>2012-05-05T09:42:53Z</time>
      </trkpt>
      <trkpt lat="44.00157" lon="7.19609">
        <ele>1263.599975586</ele>
        <time>2012-05-05T09:42:54Z</time>
      </trkpt>
      <trkpt lat="44.00158" lon="7.19608">
        <ele>1262.400024414</ele>
        <time>2012-05-05T09:42:55Z</time>
      </trkpt>
      <trkpt lat="44.00162" lon="7.19609">
        <ele>1261.199951172</ele>
        <time>2012-05-05T09:42:57Z</time>
      </trkpt>
      <trkpt lat="44.00162" lon="7.1961">
        <ele>1260</ele>
        <time>2012-05-05T09:42:58Z</time>
      </trkpt>
      <trkpt lat="44.00162" lon="7.19608">
        <ele>1259</ele>
        <time>2012-05-05T09:43:01Z</time>
      </trkpt>
      <trkpt lat="44.00161" lon="7.19604">
        <ele>1259</ele>
        <time>2012-05-05T09:43:02Z</time>
      </trkpt>
      <trkpt lat="44.0016" lon="7.196">
        <ele>1258</ele>
        <time>2012-05-05T09:43:03Z</time>
      </trkpt>
      <trkpt lat="44.00159" lon="7.19595">
        <ele>1256.800048828</ele>
        <time>2012-05-05T09:43:05Z</time>
      </trkpt>
      <trkpt lat="44.00161" lon="7.19594">
        <ele>1256.800048828</ele>
        <time>2012-05-05T09:43:06Z</time>
      </trkpt>
      <trkpt lat="44.00162" lon="7.19595">
        <ele>1256.800048828</ele>
        <time>2012-05-05T09:43:07Z</time>
      </trkpt>
      <trkpt lat="44.00163" lon="7.19595">
        <ele>1255.800048828</ele>
        <time>2012-05-05T09:43:08Z</time>
      </trkpt>
      <trkpt lat="44.00164" lon="7.19595">
        <ele>1254.800048828</ele>
        <time>2012-05-05T09:43:09Z</time>
      </trkpt>
      <trkpt lat="44.00166" lon="7.19596">
        <ele>1254.800048828</ele>
        <time>2012-05-05T09:43:12Z</time>
      </trkpt>
      <trkpt lat="44.00167" lon="7.19596">
        <ele>1253.400024414</ele>
        <time>2012-05-05T09:43:13Z</time>
      </trkpt>
      <trkpt lat="44.00168" lon="7.19597">
        <ele>1253.400024414</ele>
        <time>2012-05-05T09:43:14Z</time>
      </trkpt>
      <trkpt lat="44.00169" lon="7.19597">
        <ele>1253.400024414</ele>
        <time>2012-05-05T09:43:18Z</time>
      </trkpt>
      <trkpt lat="44.0017" lon="7.19598">
        <ele>1253.400024414</ele>
        <time>2012-05-05T09:43:24Z</time>
      </trkpt>
      <trkpt lat="44.00169" lon="7.19598">
        <ele>1253.400024414</ele>
        <time>2012-05-05T09:43:28Z</time>
      </trkpt>
      <trkpt lat="44.00169" lon="7.19599">
        <ele>1253.400024414</ele>
        <time>2012-05-05T09:43:32Z</time>
      </trkpt>
      <trkpt lat="44.00171" lon="7.196">
        <ele>1253.400024414</ele>
        <time>2012-05-05T09:43:36Z</time>
      </trkpt>
      <trkpt lat="44.00172" lon="7.19601">
        <ele>1252.400024414</ele>
        <time>2012-05-05T09:43:40Z</time>
      </trkpt>
      <trkpt lat="44.00174" lon="7.19603">
        <ele>1251.199951172</ele>
        <time>2012-05-05T09:43:42Z</time>
      </trkpt>
      <trkpt lat="44.00177" lon="7.19603">
        <ele>1251.199951172</ele>
        <time>2012-05-05T09:43:43Z</time>
      </trkpt>
      <trkpt lat="44.00178" lon="7.19604">
        <ele>1250</ele>
        <time>2012-05-05T09:43:44Z</time>
      </trkpt>
      <trkpt lat="44.00178" lon="7.19605">
        <ele>1249</ele>
        <time>2012-05-05T09:43:45Z</time>
      </trkpt>
      <trkpt lat="44.00179" lon="7.19607">
        <ele>1249</ele>
        <time>2012-05-05T09:43:46Z</time>
      </trkpt>
      <trkpt lat="44.0018" lon="7.19609">
        <ele>1247.800048828</ele>
        <time>2012-05-05T09:43:47Z</time>
      </trkpt>
      <trkpt lat="44.00185" lon="7.19608">
        <ele>1246.800048828</ele>
        <time>2012-05-05T09:43:50Z</time>
      </trkpt>
      <trkpt lat="44.00187" lon="7.19605">
        <ele>1246.800048828</ele>
        <time>2012-05-05T09:43:51Z</time>
      </trkpt>
      <trkpt lat="44.00187" lon="7.19602">
        <ele>1245.599975586</ele>
        <time>2012-05-05T09:43:52Z</time>
      </trkpt>
      <trkpt lat="44.00187" lon="7.19597">
        <ele>1245.599975586</ele>
        <time>2012-05-05T09:43:55Z</time>
      </trkpt>
      <trkpt lat="44.00187" lon="7.19594">
        <ele>1244.599975586</ele>
        <time>2012-05-05T09:43:57Z</time>
      </trkpt>
      <trkpt lat="44.00187" lon="7.19592">
        <ele>1243.400024414</ele>
        <time>2012-05-05T09:43:58Z</time>
      </trkpt>
      <trkpt lat="44.00188" lon="7.19586">
        <ele>1243.400024414</ele>
        <time>2012-05-05T09:44:00Z</time>
      </trkpt>
      <trkpt lat="44.00188" lon="7.19584">
        <ele>1242</ele>
        <time>2012-05-05T09:44:01Z</time>
      </trkpt>
      <trkpt lat="44.00189" lon="7.19582">
        <ele>1240.800048828</ele>
        <time>2012-05-05T09:44:02Z</time>
      </trkpt>
      <trkpt lat="44.00189" lon="7.19576">
        <ele>1239.400024414</ele>
        <time>2012-05-05T09:44:04Z</time>
      </trkpt>
      <trkpt lat="44.00191" lon="7.19573">
        <ele>1238.400024414</ele>
        <time>2012-05-05T09:44:05Z</time>
      </trkpt>
      <trkpt lat="44.00194" lon="7.1957">
        <ele>1237</ele>
        <time>2012-05-05T09:44:06Z</time>
      </trkpt>
      <trkpt lat="44.00196" lon="7.19569">
        <ele>1236</ele>
        <time>2012-05-05T09:44:07Z</time>
      </trkpt>
      <trkpt lat="44.00196" lon="7.19569">
        <ele>1236</ele>
        <time>2012-05-05T09:44:10Z</time>
      </trkpt>
      <trkpt lat="44.00195" lon="7.19569">
        <ele>1236</ele>
        <time>2012-05-05T09:44:17Z</time>
      </trkpt>
      <trkpt lat="44.00194" lon="7.19569">
        <ele>1236</ele>
        <time>2012-05-05T09:44:22Z</time>
      </trkpt>
      <trkpt lat="44.00193" lon="7.19569">
        <ele>1236</ele>
        <time>2012-05-05T09:44:25Z</time>
      </trkpt>
      <trkpt lat="44.00193" lon="7.19568">
        <ele>1236</ele>
        <time>2012-05-05T09:44:35Z</time>
      </trkpt>
      <trkpt lat="44.00193" lon="7.19565">
        <ele>1236</ele>
        <time>2012-05-05T09:44:39Z</time>
      </trkpt>
      <trkpt lat="44.00194" lon="7.19564">
        <ele>1234.400024414</ele>
        <time>2012-05-05T09:44:42Z</time>
      </trkpt>
      <trkpt lat="44.00194" lon="7.19566">
        <ele>1234.400024414</ele>
        <time>2012-05-05T09:44:44Z</time>
      </trkpt>
      <trkpt lat="44.00195" lon="7.19567">
        <ele>1234.400024414</ele>
        <time>2012-05-05T09:44:48Z</time>
      </trkpt>
      <trkpt lat="44.00195" lon="7.19566">
        <ele>1234.400024414</ele>
        <time>2012-05-05T09:44:49Z</time>
      </trkpt>
      <trkpt lat="44.00197" lon="7.19567">
        <ele>1234.400024414</ele>
        <time>2012-05-05T09:44:53Z</time>
      </trkpt>
      <trkpt lat="44.00197" lon="7.19566">
        <ele>1234.400024414</ele>
        <time>2012-05-05T09:44:54Z</time>
      </trkpt>
      <trkpt lat="44.00199" lon="7.19567">
        <ele>1234.400024414</ele>
        <time>2012-05-05T09:44:57Z</time>
      </trkpt>
      <trkpt lat="44.00199" lon="7.19567">
        <ele>1234.400024414</ele>
        <time>2012-05-05T09:45:01Z</time>
      </trkpt>
      <trkpt lat="44.002" lon="7.19568">
        <ele>1234.400024414</ele>
        <time>2012-05-05T09:45:05Z</time>
      </trkpt>
      <trkpt lat="44.00201" lon="7.19569">
        <ele>1234.400024414</ele>
        <time>2012-05-05T09:45:06Z</time>
      </trkpt>
      <trkpt lat="44.00203" lon="7.19571">
        <ele>1234.400024414</ele>
        <time>2012-05-05T09:45:12Z</time>
      </trkpt>
      <trkpt lat="44.00203" lon="7.19571">
        <ele>1234.400024414</ele>
        <time>2012-05-05T09:45:13Z</time>
      </trkpt>
      <trkpt lat="44.00203" lon="7.19571">
        <ele>1234.400024414</ele>
        <time>2012-05-05T09:45:20Z</time>
      </trkpt>
      <trkpt lat="44.00198" lon="7.19573">
        <ele>1234.400024414</ele>
        <time>2012-05-05T09:45:28Z</time>
      </trkpt>
      <trkpt lat="44.00198" lon="7.19572">
        <ele>1234.400024414</ele>
        <time>2012-05-05T09:45:34Z</time>
      </trkpt>
      <trkpt lat="44.00197" lon="7.19571">
        <ele>1234.400024414</ele>
        <time>2012-05-05T09:45:40Z</time>
      </trkpt>
      <trkpt lat="44.00197" lon="7.19569">
        <ele>1234.400024414</ele>
        <time>2012-05-05T09:45:43Z</time>
      </trkpt>
      <trkpt lat="44.00197" lon="7.19569">
        <ele>1234.400024414</ele>
        <time>2012-05-05T09:45:44Z</time>
      </trkpt>
      <trkpt lat="44.00196" lon="7.19568">
        <ele>1234.400024414</ele>
        <time>2012-05-05T09:45:50Z</time>
      </trkpt>
      <trkpt lat="44.00196" lon="7.19567">
        <ele>1234.400024414</ele>
        <time>2012-05-05T09:45:52Z</time>
      </trkpt>
      <trkpt lat="44.00196" lon="7.19567">
        <ele>1234.400024414</ele>
        <time>2012-05-05T09:45:53Z</time>
      </trkpt>
      <trkpt lat="44.00196" lon="7.19567">
        <ele>1234.400024414</ele>
        <time>2012-05-05T09:45:59Z</time>
      </trkpt>
      <trkpt lat="44.00196" lon="7.19566">
        <ele>1234.400024414</ele>
        <time>2012-05-05T09:46:01Z</time>
      </trkpt>
      <trkpt lat="44.00196" lon="7.19566">
        <ele>1234.400024414</ele>
        <time>2012-05-05T09:46:05Z</time>
      </trkpt>
      <trkpt lat="44.00197" lon="7.19565">
        <ele>1234.400024414</ele>
        <time>2012-05-05T09:46:10Z</time>
      </trkpt>
      <trkpt lat="44.00197" lon="7.19564">
        <ele>1234.400024414</ele>
        <time>2012-05-05T09:46:14Z</time>
      </trkpt>
      <trkpt lat="44.00197" lon="7.19564">
        <ele>1234.400024414</ele>
        <time>2012-05-05T09:46:23Z</time>
      </trkpt>
      <trkpt lat="44.00197" lon="7.19563">
        <ele>1234.400024414</ele>
        <time>2012-05-05T09:46:33Z</time>
      </trkpt>
      <trkpt lat="44.00197" lon="7.19563">
        <ele>1234.400024414</ele>
        <time>2012-05-05T09:46:43Z</time>
      </trkpt>
      <trkpt lat="44.00199" lon="7.19564">
        <ele>1234.400024414</ele>
        <time>2012-05-05T09:46:48Z</time>
      </trkpt>
      <trkpt lat="44.00201" lon="7.19564">
        <ele>1234.400024414</ele>
        <time>2012-05-05T09:46:50Z</time>
      </trkpt>
      <trkpt lat="44.00203" lon="7.19565">
        <ele>1234.400024414</ele>
        <time>2012-05-05T09:46:53Z</time>
      </trkpt>
      <trkpt lat="44.002" lon="7.19565">
        <ele>1234.400024414</ele>
        <time>2012-05-05T09:46:58Z</time>
      </trkpt>
      <trkpt lat="44.00199" lon="7.19564">
        <ele>1234.400024414</ele>
        <time>2012-05-05T09:47:00Z</time>
      </trkpt>
      <trkpt lat="44.00199" lon="7.19564">
        <ele>1234.400024414</ele>
        <time>2012-05-05T09:47:04Z</time>
      </trkpt>
      <trkpt lat="44.00198" lon="7.19565">
        <ele>1234.400024414</ele>
        <time>2012-05-05T09:47:09Z</time>
      </trkpt>
      <trkpt lat="44.00199" lon="7.19567">
        <ele>1234.400024414</ele>
        <time>2012-05-05T09:47:14Z</time>
      </trkpt>
      <trkpt lat="44.00202" lon="7.19566">
        <ele>1234.400024414</ele>
        <time>2012-05-05T09:47:16Z</time>
      </trkpt>
      <trkpt lat="44.00202" lon="7.19555">
        <ele>1232.800048828</ele>
        <time>2012-05-05T09:47:19Z</time>
      </trkpt>
      <trkpt lat="44.002" lon="7.19552">
        <ele>1231.599975586</ele>
        <time>2012-05-05T09:47:20Z</time>
      </trkpt>
      <trkpt lat="44.00196" lon="7.19544">
        <ele>1231.599975586</ele>
        <time>2012-05-05T09:47:22Z</time>
      </trkpt>
      <trkpt lat="44.00194" lon="7.19541">
        <ele>1230.400024414</ele>
        <time>2012-05-05T09:47:23Z</time>
      </trkpt>
      <trkpt lat="44.00195" lon="7.19539">
        <ele>1229</ele>
        <time>2012-05-05T09:47:24Z</time>
      </trkpt>
      <trkpt lat="44.00197" lon="7.19537">
        <ele>1227.599975586</ele>
        <time>2012-05-05T09:47:25Z</time>
      </trkpt>
      <trkpt lat="44.00202" lon="7.19533">
        <ele>1226.599975586</ele>
        <time>2012-05-05T09:47:27Z</time>
      </trkpt>
      <trkpt lat="44.00203" lon="7.19532">
        <ele>1226.599975586</ele>
        <time>2012-05-05T09:47:28Z</time>
      </trkpt>
      <trkpt lat="44.00205" lon="7.19532">
        <ele>1225.599975586</ele>
        <time>2012-05-05T09:47:29Z</time>
      </trkpt>
      <trkpt lat="44.00206" lon="7.19532">
        <ele>1224.599975586</ele>
        <time>2012-05-05T09:47:30Z</time>
      </trkpt>
      <trkpt lat="44.00208" lon="7.19531">
        <ele>1223.400024414</ele>
        <time>2012-05-05T09:47:31Z</time>
      </trkpt>
      <trkpt lat="44.00209" lon="7.19528">
        <ele>1223.400024414</ele>
        <time>2012-05-05T09:47:32Z</time>
      </trkpt>
      <trkpt lat="44.00208" lon="7.19523">
        <ele>1223.400024414</ele>
        <time>2012-05-05T09:47:33Z</time>
      </trkpt>
      <trkpt lat="44.00207" lon="7.19518">
        <ele>1222</ele>
        <time>2012-05-05T09:47:34Z</time>
      </trkpt>
      <trkpt lat="44.00205" lon="7.19511">
        <ele>1222</ele>
        <time>2012-05-05T09:47:36Z</time>
      </trkpt>
      <trkpt lat="44.00204" lon="7.19509">
        <ele>1220.800048828</ele>
        <time>2012-05-05T09:47:37Z</time>
      </trkpt>
      <trkpt lat="44.00203" lon="7.19506">
        <ele>1219.599975586</ele>
        <time>2012-05-05T09:47:38Z</time>
      </trkpt>
      <trkpt lat="44.00199" lon="7.19501">
        <ele>1218.400024414</ele>
        <time>2012-05-05T09:47:40Z</time>
      </trkpt>
      <trkpt lat="44.00196" lon="7.19496">
        <ele>1217.199951172</ele>
        <time>2012-05-05T09:47:42Z</time>
      </trkpt>
      <trkpt lat="44.00194" lon="7.19493">
        <ele>1216</ele>
        <time>2012-05-05T09:47:43Z</time>
      </trkpt>
      <trkpt lat="44.00193" lon="7.19491">
        <ele>1214.800048828</ele>
        <time>2012-05-05T09:47:44Z</time>
      </trkpt>
      <trkpt lat="44.00192" lon="7.19487">
        <ele>1213.400024414</ele>
        <time>2012-05-05T09:47:45Z</time>
      </trkpt>
      <trkpt lat="44.00192" lon="7.19487">
        <ele>1213.400024414</ele>
        <time>2012-05-05T09:47:47Z</time>
      </trkpt>
      <trkpt lat="44.00191" lon="7.19483">
        <ele>1213.400024414</ele>
        <time>2012-05-05T09:47:52Z</time>
      </trkpt>
      <trkpt lat="44.00192" lon="7.19482">
        <ele>1213.400024414</ele>
        <time>2012-05-05T09:47:53Z</time>
      </trkpt>
      <trkpt lat="44.00192" lon="7.19481">
        <ele>1213.400024414</ele>
        <time>2012-05-05T09:48:01Z</time>
      </trkpt>
      <trkpt lat="44.00191" lon="7.1948">
        <ele>1213.400024414</ele>
        <time>2012-05-05T09:48:06Z</time>
      </trkpt>
      <trkpt lat="44.0019" lon="7.19479">
        <ele>1213.400024414</ele>
        <time>2012-05-05T09:48:09Z</time>
      </trkpt>
      <trkpt lat="44.00191" lon="7.19479">
        <ele>1213.400024414</ele>
        <time>2012-05-05T09:48:16Z</time>
      </trkpt>
      <trkpt lat="44.0019" lon="7.19478">
        <ele>1213.400024414</ele>
        <time>2012-05-05T09:48:21Z</time>
      </trkpt>
      <trkpt lat="44.00184" lon="7.19474">
        <ele>1213.400024414</ele>
        <time>2012-05-05T09:48:27Z</time>
      </trkpt>
      <trkpt lat="44.00186" lon="7.19467">
        <ele>1212</ele>
        <time>2012-05-05T09:48:29Z</time>
      </trkpt>
      <trkpt lat="44.00188" lon="7.19462">
        <ele>1212</ele>
        <time>2012-05-05T09:48:30Z</time>
      </trkpt>
      <trkpt lat="44.00187" lon="7.19457">
        <ele>1211</ele>
        <time>2012-05-05T09:48:31Z</time>
      </trkpt>
      <trkpt lat="44.00185" lon="7.19452">
        <ele>1209.599975586</ele>
        <time>2012-05-05T09:48:32Z</time>
      </trkpt>
      <trkpt lat="44.00184" lon="7.19446">
        <ele>1209.599975586</ele>
        <time>2012-05-05T09:48:33Z</time>
      </trkpt>
      <trkpt lat="44.00183" lon="7.19442">
        <ele>1208.199951172</ele>
        <time>2012-05-05T09:48:34Z</time>
      </trkpt>
      <trkpt lat="44.00181" lon="7.19436">
        <ele>1208.199951172</ele>
        <time>2012-05-05T09:48:35Z</time>
      </trkpt>
      <trkpt lat="44.00177" lon="7.19429">
        <ele>1207</ele>
        <time>2012-05-05T09:48:36Z</time>
      </trkpt>
      <trkpt lat="44.00175" lon="7.19424">
        <ele>1205.800048828</ele>
        <time>2012-05-05T09:48:37Z</time>
      </trkpt>
      <trkpt lat="44.00173" lon="7.19421">
        <ele>1204.599975586</ele>
        <time>2012-05-05T09:48:38Z</time>
      </trkpt>
      <trkpt lat="44.00165" lon="7.19413">
        <ele>1203.199951172</ele>
        <time>2012-05-05T09:48:41Z</time>
      </trkpt>
      <trkpt lat="44.00162" lon="7.19409">
        <ele>1202.199951172</ele>
        <time>2012-05-05T09:48:43Z</time>
      </trkpt>
      <trkpt lat="44.00162" lon="7.19404">
        <ele>1202.199951172</ele>
        <time>2012-05-05T09:48:44Z</time>
      </trkpt>
      <trkpt lat="44.00162" lon="7.194">
        <ele>1201.199951172</ele>
        <time>2012-05-05T09:48:45Z</time>
      </trkpt>
      <trkpt lat="44.0016" lon="7.19396">
        <ele>1200.199951172</ele>
        <time>2012-05-05T09:48:47Z</time>
      </trkpt>
      <trkpt lat="44.00159" lon="7.19394">
        <ele>1200.199951172</ele>
        <time>2012-05-05T09:48:48Z</time>
      </trkpt>
      <trkpt lat="44.00159" lon="7.19393">
        <ele>1200.199951172</ele>
        <time>2012-05-05T09:48:49Z</time>
      </trkpt>
      <trkpt lat="44.00158" lon="7.1939">
        <ele>1199</ele>
        <time>2012-05-05T09:48:50Z</time>
      </trkpt>
      <trkpt lat="44.00158" lon="7.19385">
        <ele>1198</ele>
        <time>2012-05-05T09:48:52Z</time>
      </trkpt>
      <trkpt lat="44.00158" lon="7.19386">
        <ele>1198</ele>
        <time>2012-05-05T09:48:53Z</time>
      </trkpt>
      <trkpt lat="44.00161" lon="7.19381">
        <ele>1196.800048828</ele>
        <time>2012-05-05T09:48:57Z</time>
      </trkpt>
      <trkpt lat="44.00162" lon="7.1938">
        <ele>1195.400024414</ele>
        <time>2012-05-05T09:48:58Z</time>
      </trkpt>
      <trkpt lat="44.00164" lon="7.19377">
        <ele>1195.400024414</ele>
        <time>2012-05-05T09:49:05Z</time>
      </trkpt>
      <trkpt lat="44.00164" lon="7.19377">
        <ele>1194.400024414</ele>
        <time>2012-05-05T09:49:07Z</time>
      </trkpt>
      <trkpt lat="44.00163" lon="7.19376">
        <ele>1194.400024414</ele>
        <time>2012-05-05T09:49:10Z</time>
      </trkpt>
      <trkpt lat="44.00162" lon="7.19378">
        <ele>1194.400024414</ele>
        <time>2012-05-05T09:49:15Z</time>
      </trkpt>
      <trkpt lat="44.00161" lon="7.19376">
        <ele>1194.400024414</ele>
        <time>2012-05-05T09:49:19Z</time>
      </trkpt>
      <trkpt lat="44.0016" lon="7.19373">
        <ele>1194.400024414</ele>
        <time>2012-05-05T09:49:25Z</time>
      </trkpt>
      <trkpt lat="44.0016" lon="7.19372">
        <ele>1194.400024414</ele>
        <time>2012-05-05T09:49:29Z</time>
      </trkpt>
      <trkpt lat="44.00161" lon="7.19372">
        <ele>1194.400024414</ele>
        <time>2012-05-05T09:49:34Z</time>
      </trkpt>
      <trkpt lat="44.0016" lon="7.19373">
        <ele>1194.400024414</ele>
        <time>2012-05-05T09:49:35Z</time>
      </trkpt>
      <trkpt lat="44.0016" lon="7.19372">
        <ele>1194.400024414</ele>
        <time>2012-05-05T09:49:38Z</time>
      </trkpt>
      <trkpt lat="44.00161" lon="7.19371">
        <ele>1194.400024414</ele>
        <time>2012-05-05T09:49:41Z</time>
      </trkpt>
      <trkpt lat="44.00161" lon="7.19371">
        <ele>1194.400024414</ele>
        <time>2012-05-05T09:49:47Z</time>
      </trkpt>
      <trkpt lat="44.0016" lon="7.19371">
        <ele>1194.400024414</ele>
        <time>2012-05-05T09:49:52Z</time>
      </trkpt>
      <trkpt lat="44.00161" lon="7.19371">
        <ele>1194.400024414</ele>
        <time>2012-05-05T09:49:57Z</time>
      </trkpt>
      <trkpt lat="44.0016" lon="7.1937">
        <ele>1194.400024414</ele>
        <time>2012-05-05T09:50:01Z</time>
      </trkpt>
      <trkpt lat="44.00156" lon="7.19361">
        <ele>1193.199951172</ele>
        <time>2012-05-05T09:50:06Z</time>
      </trkpt>
      <trkpt lat="44.00156" lon="7.19358">
        <ele>1192</ele>
        <time>2012-05-05T09:50:07Z</time>
      </trkpt>
      <trkpt lat="44.00154" lon="7.19353">
        <ele>1190</ele>
        <time>2012-05-05T09:50:08Z</time>
      </trkpt>
      <trkpt lat="44.00152" lon="7.19351">
        <ele>1190</ele>
        <time>2012-05-05T09:50:09Z</time>
      </trkpt>
      <trkpt lat="44.0015" lon="7.19351">
        <ele>1190</ele>
        <time>2012-05-05T09:50:10Z</time>
      </trkpt>
      <trkpt lat="44.00147" lon="7.1935">
        <ele>1188.800048828</ele>
        <time>2012-05-05T09:50:11Z</time>
      </trkpt>
      <trkpt lat="44.00145" lon="7.19346">
        <ele>1188.800048828</ele>
        <time>2012-05-05T09:50:13Z</time>
      </trkpt>
      <trkpt lat="44.00147" lon="7.19343">
        <ele>1188.800048828</ele>
        <time>2012-05-05T09:50:14Z</time>
      </trkpt>
      <trkpt lat="44.00155" lon="7.19334">
        <ele>1188.800048828</ele>
        <time>2012-05-05T09:50:17Z</time>
      </trkpt>
      <trkpt lat="44.00157" lon="7.19335">
        <ele>1186.800048828</ele>
        <time>2012-05-05T09:50:18Z</time>
      </trkpt>
      <trkpt lat="44.00163" lon="7.19334">
        <ele>1186.800048828</ele>
        <time>2012-05-05T09:50:21Z</time>
      </trkpt>
      <trkpt lat="44.00165" lon="7.19335">
        <ele>1185.599975586</ele>
        <time>2012-05-05T09:50:22Z</time>
      </trkpt>
      <trkpt lat="44.00166" lon="7.19335">
        <ele>1185.599975586</ele>
        <time>2012-05-05T09:50:23Z</time>
      </trkpt>
      <trkpt lat="44.00167" lon="7.19335">
        <ele>1185.599975586</ele>
        <time>2012-05-05T09:50:24Z</time>
      </trkpt>
      <trkpt lat="44.00168" lon="7.19333">
        <ele>1184.400024414</ele>
        <time>2012-05-05T09:50:25Z</time>
      </trkpt>
      <trkpt lat="44.00165" lon="7.19322">
        <ele>1184.400024414</ele>
        <time>2012-05-05T09:50:29Z</time>
      </trkpt>
      <trkpt lat="44.00159" lon="7.1931">
        <ele>1183.199951172</ele>
        <time>2012-05-05T09:50:31Z</time>
      </trkpt>
      <trkpt lat="44.00158" lon="7.19305">
        <ele>1183.199951172</ele>
        <time>2012-05-05T09:50:32Z</time>
      </trkpt>
      <trkpt lat="44.00153" lon="7.19293">
        <ele>1182</ele>
        <time>2012-05-05T09:50:35Z</time>
      </trkpt>
      <trkpt lat="44.00149" lon="7.1929">
        <ele>1182</ele>
        <time>2012-05-05T09:50:37Z</time>
      </trkpt>
      <trkpt lat="44.00148" lon="7.19288">
        <ele>1180.599975586</ele>
        <time>2012-05-05T09:50:38Z</time>
      </trkpt>
      <trkpt lat="44.00142" lon="7.19281">
        <ele>1179.599975586</ele>
        <time>2012-05-05T09:50:41Z</time>
      </trkpt>
      <trkpt lat="44.00141" lon="7.19277">
        <ele>1178.400024414</ele>
        <time>2012-05-05T09:50:43Z</time>
      </trkpt>
      <trkpt lat="44.00143" lon="7.19275">
        <ele>1178.400024414</ele>
        <time>2012-05-05T09:50:45Z</time>
      </trkpt>
      <trkpt lat="44.00144" lon="7.19274">
        <ele>1177.199951172</ele>
        <time>2012-05-05T09:50:46Z</time>
      </trkpt>
      <trkpt lat="44.00147" lon="7.19273">
        <ele>1176.199951172</ele>
        <time>2012-05-05T09:50:48Z</time>
      </trkpt>
      <trkpt lat="44.00148" lon="7.19271">
        <ele>1176.199951172</ele>
        <time>2012-05-05T09:50:49Z</time>
      </trkpt>
      <trkpt lat="44.0015" lon="7.1927">
        <ele>1175</ele>
        <time>2012-05-05T09:50:50Z</time>
      </trkpt>
      <trkpt lat="44.00154" lon="7.19272">
        <ele>1173.800048828</ele>
        <time>2012-05-05T09:50:53Z</time>
      </trkpt>
      <trkpt lat="44.00154" lon="7.19271">
        <ele>1173.800048828</ele>
        <time>2012-05-05T09:50:54Z</time>
      </trkpt>
      <trkpt lat="44.00156" lon="7.19272">
        <ele>1172.800048828</ele>
        <time>2012-05-05T09:50:55Z</time>
      </trkpt>
      <trkpt lat="44.00162" lon="7.19272">
        <ele>1171.400024414</ele>
        <time>2012-05-05T09:50:57Z</time>
      </trkpt>
      <trkpt lat="44.00171" lon="7.19272">
        <ele>1169.800048828</ele>
        <time>2012-05-05T09:51:00Z</time>
      </trkpt>
      <trkpt lat="44.00174" lon="7.19268">
        <ele>1169.800048828</ele>
        <time>2012-05-05T09:51:01Z</time>
      </trkpt>
      <trkpt lat="44.0018" lon="7.19265">
        <ele>1168.599975586</ele>
        <time>2012-05-05T09:51:03Z</time>
      </trkpt>
      <trkpt lat="44.00181" lon="7.19264">
        <ele>1167.599975586</ele>
        <time>2012-05-05T09:51:05Z</time>
      </trkpt>
      <trkpt lat="44.00181" lon="7.19264">
        <ele>1166.199951172</ele>
        <time>2012-05-05T09:51:07Z</time>
      </trkpt>
      <trkpt lat="44.00181" lon="7.19263">
        <ele>1166.199951172</ele>
        <time>2012-05-05T09:51:08Z</time>
      </trkpt>
      <trkpt lat="44.00182" lon="7.19258">
        <ele>1164.800048828</ele>
        <time>2012-05-05T09:51:10Z</time>
      </trkpt>
      <trkpt lat="44.00181" lon="7.19251">
        <ele>1163.599975586</ele>
        <time>2012-05-05T09:51:12Z</time>
      </trkpt>
      <trkpt lat="44.00181" lon="7.1925">
        <ele>1163.599975586</ele>
        <time>2012-05-05T09:51:13Z</time>
      </trkpt>
      <trkpt lat="44.00181" lon="7.19251">
        <ele>1163.599975586</ele>
        <time>2012-05-05T09:51:14Z</time>
      </trkpt>
      <trkpt lat="44.00183" lon="7.19249">
        <ele>1163.599975586</ele>
        <time>2012-05-05T09:51:16Z</time>
      </trkpt>
      <trkpt lat="44.00183" lon="7.19249">
        <ele>1162.599975586</ele>
        <time>2012-05-05T09:51:18Z</time>
      </trkpt>
      <trkpt lat="44.00184" lon="7.19249">
        <ele>1162.599975586</ele>
        <time>2012-05-05T09:51:19Z</time>
      </trkpt>
      <trkpt lat="44.00184" lon="7.19248">
        <ele>1162.599975586</ele>
        <time>2012-05-05T09:51:20Z</time>
      </trkpt>
      <trkpt lat="44.00184" lon="7.19246">
        <ele>1162.599975586</ele>
        <time>2012-05-05T09:51:26Z</time>
      </trkpt>
      <trkpt lat="44.00184" lon="7.19244">
        <ele>1162.599975586</ele>
        <time>2012-05-05T09:51:33Z</time>
      </trkpt>
      <trkpt lat="44.00184" lon="7.19242">
        <ele>1162.599975586</ele>
        <time>2012-05-05T09:51:41Z</time>
      </trkpt>
      <trkpt lat="44.00183" lon="7.19245">
        <ele>1162.599975586</ele>
        <time>2012-05-05T09:51:47Z</time>
      </trkpt>
      <trkpt lat="44.00183" lon="7.1925">
        <ele>1162.599975586</ele>
        <time>2012-05-05T09:51:53Z</time>
      </trkpt>
      <trkpt lat="44.00182" lon="7.1925">
        <ele>1162.599975586</ele>
        <time>2012-05-05T09:51:58Z</time>
      </trkpt>
      <trkpt lat="44.00182" lon="7.1925">
        <ele>1162.599975586</ele>
        <time>2012-05-05T09:52:02Z</time>
      </trkpt>
      <trkpt lat="44.00182" lon="7.19254">
        <ele>1162.599975586</ele>
        <time>2012-05-05T09:52:08Z</time>
      </trkpt>
      <trkpt lat="44.00183" lon="7.19253">
        <ele>1162.599975586</ele>
        <time>2012-05-05T09:52:13Z</time>
      </trkpt>
      <trkpt lat="44.00183" lon="7.19253">
        <ele>1162.599975586</ele>
        <time>2012-05-05T09:52:17Z</time>
      </trkpt>
      <trkpt lat="44.00185" lon="7.19254">
        <ele>1162.599975586</ele>
        <time>2012-05-05T09:52:22Z</time>
      </trkpt>
      <trkpt lat="44.00185" lon="7.19254">
        <ele>1162.599975586</ele>
        <time>2012-05-05T09:52:23Z</time>
      </trkpt>
      <trkpt lat="44.00185" lon="7.19252">
        <ele>1162.599975586</ele>
        <time>2012-05-05T09:52:28Z</time>
      </trkpt>
      <trkpt lat="44.00186" lon="7.19251">
        <ele>1162.599975586</ele>
        <time>2012-05-05T09:52:34Z</time>
      </trkpt>
      <trkpt lat="44.00187" lon="7.1925">
        <ele>1162.599975586</ele>
        <time>2012-05-05T09:52:35Z</time>
      </trkpt>
      <trkpt lat="44.00186" lon="7.1925">
        <ele>1162.599975586</ele>
        <time>2012-05-05T09:52:38Z</time>
      </trkpt>
      <trkpt lat="44.00187" lon="7.1925">
        <ele>1162.599975586</ele>
        <time>2012-05-05T09:52:40Z</time>
      </trkpt>
      <trkpt lat="44.00188" lon="7.1925">
        <ele>1162.599975586</ele>
        <time>2012-05-05T09:52:44Z</time>
      </trkpt>
      <trkpt lat="44.00187" lon="7.1925">
        <ele>1162.599975586</ele>
        <time>2012-05-05T09:52:46Z</time>
      </trkpt>
      <trkpt lat="44.00187" lon="7.1925">
        <ele>1162.599975586</ele>
        <time>2012-05-05T09:52:50Z</time>
      </trkpt>
      <trkpt lat="44.00189" lon="7.19248">
        <ele>1162.599975586</ele>
        <time>2012-05-05T09:52:54Z</time>
      </trkpt>
      <trkpt lat="44.0019" lon="7.19245">
        <ele>1160.400024414</ele>
        <time>2012-05-05T09:52:56Z</time>
      </trkpt>
      <trkpt lat="44.00192" lon="7.19242">
        <ele>1159.400024414</ele>
        <time>2012-05-05T09:52:58Z</time>
      </trkpt>
      <trkpt lat="44.00192" lon="7.19241">
        <ele>1158.199951172</ele>
        <time>2012-05-05T09:53:00Z</time>
      </trkpt>
      <trkpt lat="44.00192" lon="7.1924">
        <ele>1158.199951172</ele>
        <time>2012-05-05T09:53:02Z</time>
      </trkpt>
      <trkpt lat="44.00194" lon="7.19236">
        <ele>1157.199951172</ele>
        <time>2012-05-05T09:53:05Z</time>
      </trkpt>
      <trkpt lat="44.00194" lon="7.19236">
        <ele>1157.199951172</ele>
        <time>2012-05-05T09:53:07Z</time>
      </trkpt>
      <trkpt lat="44.00195" lon="7.19235">
        <ele>1157.199951172</ele>
        <time>2012-05-05T09:53:12Z</time>
      </trkpt>
      <trkpt lat="44.00197" lon="7.1923">
        <ele>1156.199951172</ele>
        <time>2012-05-05T09:53:15Z</time>
      </trkpt>
      <trkpt lat="44.00198" lon="7.19228">
        <ele>1155.199951172</ele>
        <time>2012-05-05T09:53:17Z</time>
      </trkpt>
      <trkpt lat="44.002" lon="7.19226">
        <ele>1155.199951172</ele>
        <time>2012-05-05T09:53:19Z</time>
      </trkpt>
      <trkpt lat="44.00201" lon="7.19224">
        <ele>1155.199951172</ele>
        <time>2012-05-05T09:53:20Z</time>
      </trkpt>
      <trkpt lat="44.00204" lon="7.19222">
        <ele>1154</ele>
        <time>2012-05-05T09:53:21Z</time>
      </trkpt>
      <trkpt lat="44.00204" lon="7.19215">
        <ele>1153</ele>
        <time>2012-05-05T09:53:23Z</time>
      </trkpt>
      <trkpt lat="44.00205" lon="7.19212">
        <ele>1152</ele>
        <time>2012-05-05T09:53:24Z</time>
      </trkpt>
      <trkpt lat="44.00204" lon="7.1921">
        <ele>1152</ele>
        <time>2012-05-05T09:53:25Z</time>
      </trkpt>
      <trkpt lat="44.00203" lon="7.19204">
        <ele>1152</ele>
        <time>2012-05-05T09:53:27Z</time>
      </trkpt>
      <trkpt lat="44.00203" lon="7.19203">
        <ele>1152</ele>
        <time>2012-05-05T09:53:28Z</time>
      </trkpt>
      <trkpt lat="44.00204" lon="7.192">
        <ele>1152</ele>
        <time>2012-05-05T09:53:29Z</time>
      </trkpt>
      <trkpt lat="44.00204" lon="7.19198">
        <ele>1151</ele>
        <time>2012-05-05T09:53:30Z</time>
      </trkpt>
      <trkpt lat="44.00203" lon="7.19195">
        <ele>1149.599975586</ele>
        <time>2012-05-05T09:53:31Z</time>
      </trkpt>
      <trkpt lat="44.00204" lon="7.19193">
        <ele>1148.400024414</ele>
        <time>2012-05-05T09:53:32Z</time>
      </trkpt>
      <trkpt lat="44.00205" lon="7.1919">
        <ele>1147.400024414</ele>
        <time>2012-05-05T09:53:33Z</time>
      </trkpt>
      <trkpt lat="44.00205" lon="7.19183">
        <ele>1146</ele>
        <time>2012-05-05T09:53:35Z</time>
      </trkpt>
      <trkpt lat="44.00205" lon="7.19179">
        <ele>1144.599975586</ele>
        <time>2012-05-05T09:53:36Z</time>
      </trkpt>
      <trkpt lat="44.00206" lon="7.19177">
        <ele>1144.599975586</ele>
        <time>2012-05-05T09:53:37Z</time>
      </trkpt>
      <trkpt lat="44.00206" lon="7.19173">
        <ele>1143.400024414</ele>
        <time>2012-05-05T09:53:38Z</time>
      </trkpt>
      <trkpt lat="44.00207" lon="7.19168">
        <ele>1142.199951172</ele>
        <time>2012-05-05T09:53:39Z</time>
      </trkpt>
      <trkpt lat="44.00207" lon="7.19163">
        <ele>1141</ele>
        <time>2012-05-05T09:53:40Z</time>
      </trkpt>
      <trkpt lat="44.00207" lon="7.19161">
        <ele>1141</ele>
        <time>2012-05-05T09:53:41Z</time>
      </trkpt>
      <trkpt lat="44.00207" lon="7.19155">
        <ele>1140</ele>
        <time>2012-05-05T09:53:43Z</time>
      </trkpt>
      <trkpt lat="44.00208" lon="7.19152">
        <ele>1138.800048828</ele>
        <time>2012-05-05T09:53:44Z</time>
      </trkpt>
      <trkpt lat="44.00209" lon="7.19148">
        <ele>1138.800048828</ele>
        <time>2012-05-05T09:53:46Z</time>
      </trkpt>
      <trkpt lat="44.0021" lon="7.19145">
        <ele>1137.599975586</ele>
        <time>2012-05-05T09:53:49Z</time>
      </trkpt>
      <trkpt lat="44.00211" lon="7.19143">
        <ele>1137.599975586</ele>
        <time>2012-05-05T09:53:50Z</time>
      </trkpt>
      <trkpt lat="44.00212" lon="7.19143">
        <ele>1137.599975586</ele>
        <time>2012-05-05T09:53:55Z</time>
      </trkpt>
      <trkpt lat="44.00211" lon="7.19142">
        <ele>1137.599975586</ele>
        <time>2012-05-05T09:54:01Z</time>
      </trkpt>
      <trkpt lat="44.0021" lon="7.19139">
        <ele>1137.599975586</ele>
        <time>2012-05-05T09:54:10Z</time>
      </trkpt>
      <trkpt lat="44.00211" lon="7.19138">
        <ele>1137.599975586</ele>
        <time>2012-05-05T09:54:15Z</time>
      </trkpt>
      <trkpt lat="44.00211" lon="7.19138">
        <ele>1137.599975586</ele>
        <time>2012-05-05T09:54:16Z</time>
      </trkpt>
      <trkpt lat="44.00211" lon="7.19138">
        <ele>1137.599975586</ele>
        <time>2012-05-05T09:54:18Z</time>
      </trkpt>
      <trkpt lat="44.00211" lon="7.19138">
        <ele>1137.599975586</ele>
        <time>2012-05-05T09:54:20Z</time>
      </trkpt>
      <trkpt lat="44.00211" lon="7.19135">
        <ele>1137.599975586</ele>
        <time>2012-05-05T09:54:32Z</time>
      </trkpt>
      <trkpt lat="44.0021" lon="7.19135">
        <ele>1137.599975586</ele>
        <time>2012-05-05T09:54:33Z</time>
      </trkpt>
      <trkpt lat="44.0021" lon="7.19135">
        <ele>1137.599975586</ele>
        <time>2012-05-05T09:54:35Z</time>
      </trkpt>
      <trkpt lat="44.00209" lon="7.19136">
        <ele>1137.599975586</ele>
        <time>2012-05-05T09:54:39Z</time>
      </trkpt>
      <trkpt lat="44.00209" lon="7.19136">
        <ele>1137.599975586</ele>
        <time>2012-05-05T09:54:41Z</time>
      </trkpt>
      <trkpt lat="44.0021" lon="7.19136">
        <ele>1137.599975586</ele>
        <time>2012-05-05T09:54:46Z</time>
      </trkpt>
      <trkpt lat="44.00211" lon="7.19136">
        <ele>1137.599975586</ele>
        <time>2012-05-05T09:54:51Z</time>
      </trkpt>
      <trkpt lat="44.00211" lon="7.19136">
        <ele>1137.599975586</ele>
        <time>2012-05-05T09:54:53Z</time>
      </trkpt>
      <trkpt lat="44.00212" lon="7.19136">
        <ele>1137.599975586</ele>
        <time>2012-05-05T09:54:56Z</time>
      </trkpt>
      <trkpt lat="44.00212" lon="7.19137">
        <ele>1137.599975586</ele>
        <time>2012-05-05T09:54:57Z</time>
      </trkpt>
      <trkpt lat="44.00214" lon="7.1914">
        <ele>1136.400024414</ele>
        <time>2012-05-05T09:55:04Z</time>
      </trkpt>
      <trkpt lat="44.00216" lon="7.19141">
        <ele>1136.400024414</ele>
        <time>2012-05-05T09:55:05Z</time>
      </trkpt>
      <trkpt lat="44.00218" lon="7.19144">
        <ele>1135.400024414</ele>
        <time>2012-05-05T09:55:07Z</time>
      </trkpt>
      <trkpt lat="44.00219" lon="7.19144">
        <ele>1134</ele>
        <time>2012-05-05T09:55:09Z</time>
      </trkpt>
      <trkpt lat="44.0022" lon="7.19143">
        <ele>1134</ele>
        <time>2012-05-05T09:55:10Z</time>
      </trkpt>
      <trkpt lat="44.0022" lon="7.19144">
        <ele>1133</ele>
        <time>2012-05-05T09:55:11Z</time>
      </trkpt>
      <trkpt lat="44.00221" lon="7.19144">
        <ele>1133</ele>
        <time>2012-05-05T09:55:16Z</time>
      </trkpt>
      <trkpt lat="44.00225" lon="7.19137">
        <ele>1133</ele>
        <time>2012-05-05T09:55:20Z</time>
      </trkpt>
      <trkpt lat="44.00225" lon="7.19114">
        <ele>1133</ele>
        <time>2012-05-05T09:55:26Z</time>
      </trkpt>
      <trkpt lat="44.00227" lon="7.19108">
        <ele>1130.800048828</ele>
        <time>2012-05-05T09:55:28Z</time>
      </trkpt>
      <trkpt lat="44.00229" lon="7.191">
        <ele>1129.599975586</ele>
        <time>2012-05-05T09:55:30Z</time>
      </trkpt>
      <trkpt lat="44.0023" lon="7.19098">
        <ele>1129.599975586</ele>
        <time>2012-05-05T09:55:33Z</time>
      </trkpt>
      <trkpt lat="44.0023" lon="7.19095">
        <ele>1128.400024414</ele>
        <time>2012-05-05T09:55:35Z</time>
      </trkpt>
      <trkpt lat="44.00229" lon="7.19091">
        <ele>1128.400024414</ele>
        <time>2012-05-05T09:55:36Z</time>
      </trkpt>
      <trkpt lat="44.00228" lon="7.19088">
        <ele>1128.400024414</ele>
        <time>2012-05-05T09:55:37Z</time>
      </trkpt>
      <trkpt lat="44.00224" lon="7.19083">
        <ele>1127</ele>
        <time>2012-05-05T09:55:39Z</time>
      </trkpt>
      <trkpt lat="44.0022" lon="7.19079">
        <ele>1127</ele>
        <time>2012-05-05T09:55:41Z</time>
      </trkpt>
      <trkpt lat="44.00219" lon="7.19079">
        <ele>1125.599975586</ele>
        <time>2012-05-05T09:55:43Z</time>
      </trkpt>
      <trkpt lat="44.00218" lon="7.19078">
        <ele>1125.599975586</ele>
        <time>2012-05-05T09:55:44Z</time>
      </trkpt>
      <trkpt lat="44.00216" lon="7.1908">
        <ele>1125.599975586</ele>
        <time>2012-05-05T09:55:48Z</time>
      </trkpt>
      <trkpt lat="44.00216" lon="7.19078">
        <ele>1125.599975586</ele>
        <time>2012-05-05T09:55:49Z</time>
      </trkpt>
      <trkpt lat="44.00216" lon="7.19078">
        <ele>1124.199951172</ele>
        <time>2012-05-05T09:55:51Z</time>
      </trkpt>
      <trkpt lat="44.00214" lon="7.19077">
        <ele>1124.199951172</ele>
        <time>2012-05-05T09:55:53Z</time>
      </trkpt>
      <trkpt lat="44.0021" lon="7.19077">
        <ele>1124.199951172</ele>
        <time>2012-05-05T09:55:58Z</time>
      </trkpt>
      <trkpt lat="44.0021" lon="7.19073">
        <ele>1122.800048828</ele>
        <time>2012-05-05T09:56:01Z</time>
      </trkpt>
      <trkpt lat="44.00211" lon="7.19072">
        <ele>1122.800048828</ele>
        <time>2012-05-05T09:56:07Z</time>
      </trkpt>
      <trkpt lat="44.00212" lon="7.1907">
        <ele>1121.800048828</ele>
        <time>2012-05-05T09:56:10Z</time>
      </trkpt>
      <trkpt lat="44.00216" lon="7.19065">
        <ele>1121.800048828</ele>
        <time>2012-05-05T09:56:12Z</time>
      </trkpt>
      <trkpt lat="44.00217" lon="7.19064">
        <ele>1120.599975586</ele>
        <time>2012-05-05T09:56:13Z</time>
      </trkpt>
      <trkpt lat="44.00219" lon="7.19061">
        <ele>1120.599975586</ele>
        <time>2012-05-05T09:56:15Z</time>
      </trkpt>
      <trkpt lat="44.00218" lon="7.19058">
        <ele>1119.599975586</ele>
        <time>2012-05-05T09:56:17Z</time>
      </trkpt>
      <trkpt lat="44.00216" lon="7.19059">
        <ele>1118.400024414</ele>
        <time>2012-05-05T09:56:19Z</time>
      </trkpt>
      <trkpt lat="44.00211" lon="7.19059">
        <ele>1117.400024414</ele>
        <time>2012-05-05T09:56:21Z</time>
      </trkpt>
      <trkpt lat="44.00207" lon="7.19054">
        <ele>1116</ele>
        <time>2012-05-05T09:56:24Z</time>
      </trkpt>
      <trkpt lat="44.00205" lon="7.19053">
        <ele>1116</ele>
        <time>2012-05-05T09:56:25Z</time>
      </trkpt>
      <trkpt lat="44.00203" lon="7.19056">
        <ele>1115</ele>
        <time>2012-05-05T09:56:26Z</time>
      </trkpt>
      <trkpt lat="44.00199" lon="7.19054">
        <ele>1113.800048828</ele>
        <time>2012-05-05T09:56:28Z</time>
      </trkpt>
      <trkpt lat="44.00199" lon="7.19053">
        <ele>1112.800048828</ele>
        <time>2012-05-05T09:56:30Z</time>
      </trkpt>
      <trkpt lat="44.002" lon="7.19049">
        <ele>1112.800048828</ele>
        <time>2012-05-05T09:56:31Z</time>
      </trkpt>
      <trkpt lat="44.00203" lon="7.19044">
        <ele>1111.400024414</ele>
        <time>2012-05-05T09:56:33Z</time>
      </trkpt>
      <trkpt lat="44.00206" lon="7.19039">
        <ele>1111.400024414</ele>
        <time>2012-05-05T09:56:35Z</time>
      </trkpt>
      <trkpt lat="44.00214" lon="7.19038">
        <ele>1110.400024414</ele>
        <time>2012-05-05T09:56:37Z</time>
      </trkpt>
      <trkpt lat="44.00216" lon="7.19038">
        <ele>1110.400024414</ele>
        <time>2012-05-05T09:56:38Z</time>
      </trkpt>
      <trkpt lat="44.00223" lon="7.19034">
        <ele>1109.400024414</ele>
        <time>2012-05-05T09:56:41Z</time>
      </trkpt>
      <trkpt lat="44.00222" lon="7.19032">
        <ele>1109.400024414</ele>
        <time>2012-05-05T09:56:42Z</time>
      </trkpt>
      <trkpt lat="44.00216" lon="7.19029">
        <ele>1108.400024414</ele>
        <time>2012-05-05T09:56:45Z</time>
      </trkpt>
      <trkpt lat="44.00209" lon="7.19026">
        <ele>1106</ele>
        <time>2012-05-05T09:56:48Z</time>
      </trkpt>
      <trkpt lat="44.00207" lon="7.19024">
        <ele>1106</ele>
        <time>2012-05-05T09:56:49Z</time>
      </trkpt>
      <trkpt lat="44.00204" lon="7.1902">
        <ele>1106</ele>
        <time>2012-05-05T09:56:52Z</time>
      </trkpt>
      <trkpt lat="44.00206" lon="7.19019">
        <ele>1105</ele>
        <time>2012-05-05T09:56:53Z</time>
      </trkpt>
      <trkpt lat="44.00209" lon="7.19017">
        <ele>1103.800048828</ele>
        <time>2012-05-05T09:56:55Z</time>
      </trkpt>
      <trkpt lat="44.00208" lon="7.19011">
        <ele>1102.599975586</ele>
        <time>2012-05-05T09:56:57Z</time>
      </trkpt>
      <trkpt lat="44.00209" lon="7.19008">
        <ele>1101.199951172</ele>
        <time>2012-05-05T09:56:58Z</time>
      </trkpt>
      <trkpt lat="44.00211" lon="7.19006">
        <ele>1099.599975586</ele>
        <time>2012-05-05T09:56:59Z</time>
      </trkpt>
      <trkpt lat="44.00208" lon="7.19002">
        <ele>1099.599975586</ele>
        <time>2012-05-05T09:57:01Z</time>
      </trkpt>
      <trkpt lat="44.00209" lon="7.18999">
        <ele>1098.599975586</ele>
        <time>2012-05-05T09:57:02Z</time>
      </trkpt>
      <trkpt lat="44.00209" lon="7.18999">
        <ele>1098.599975586</ele>
        <time>2012-05-05T09:57:04Z</time>
      </trkpt>
      <trkpt lat="44.00209" lon="7.18999">
        <ele>1097.400024414</ele>
        <time>2012-05-05T09:57:06Z</time>
      </trkpt>
      <trkpt lat="44.00209" lon="7.19">
        <ele>1097.400024414</ele>
        <time>2012-05-05T09:57:08Z</time>
      </trkpt>
      <trkpt lat="44.00211" lon="7.18998">
        <ele>1097.400024414</ele>
        <time>2012-05-05T09:57:12Z</time>
      </trkpt>
      <trkpt lat="44.00218" lon="7.18993">
        <ele>1096.199951172</ele>
        <time>2012-05-05T09:57:15Z</time>
      </trkpt>
      <trkpt lat="44.0022" lon="7.18987">
        <ele>1095</ele>
        <time>2012-05-05T09:57:16Z</time>
      </trkpt>
      <trkpt lat="44.00222" lon="7.18983">
        <ele>1093.800048828</ele>
        <time>2012-05-05T09:57:17Z</time>
      </trkpt>
      <trkpt lat="44.00226" lon="7.18981">
        <ele>1090.800048828</ele>
        <time>2012-05-05T09:57:19Z</time>
      </trkpt>
      <trkpt lat="44.00228" lon="7.18982">
        <ele>1090.800048828</ele>
        <time>2012-05-05T09:57:20Z</time>
      </trkpt>
      <trkpt lat="44.00235" lon="7.18985">
        <ele>1089.800048828</ele>
        <time>2012-05-05T09:57:22Z</time>
      </trkpt>
      <trkpt lat="44.00238" lon="7.18985">
        <ele>1089.800048828</ele>
        <time>2012-05-05T09:57:24Z</time>
      </trkpt>
      <trkpt lat="44.00237" lon="7.1898">
        <ele>1088.599975586</ele>
        <time>2012-05-05T09:57:26Z</time>
      </trkpt>
      <trkpt lat="44.00236" lon="7.18975">
        <ele>1087.199951172</ele>
        <time>2012-05-05T09:57:27Z</time>
      </trkpt>
      <trkpt lat="44.0023" lon="7.18967">
        <ele>1086</ele>
        <time>2012-05-05T09:57:31Z</time>
      </trkpt>
      <trkpt lat="44.00232" lon="7.18966">
        <ele>1085</ele>
        <time>2012-05-05T09:57:32Z</time>
      </trkpt>
      <trkpt lat="44.00236" lon="7.18967">
        <ele>1083.800048828</ele>
        <time>2012-05-05T09:57:34Z</time>
      </trkpt>
      <trkpt lat="44.00239" lon="7.18968">
        <ele>1082.400024414</ele>
        <time>2012-05-05T09:57:35Z</time>
      </trkpt>
      <trkpt lat="44.00242" lon="7.1897">
        <ele>1081</ele>
        <time>2012-05-05T09:57:36Z</time>
      </trkpt>
      <trkpt lat="44.00243" lon="7.18971">
        <ele>1081</ele>
        <time>2012-05-05T09:57:37Z</time>
      </trkpt>
      <trkpt lat="44.00245" lon="7.18971">
        <ele>1081</ele>
        <time>2012-05-05T09:57:39Z</time>
      </trkpt>
      <trkpt lat="44.00245" lon="7.18968">
        <ele>1081</ele>
        <time>2012-05-05T09:57:41Z</time>
      </trkpt>
      <trkpt lat="44.00244" lon="7.18964">
        <ele>1080</ele>
        <time>2012-05-05T09:57:42Z</time>
      </trkpt>
      <trkpt lat="44.00243" lon="7.18959">
        <ele>1080</ele>
        <time>2012-05-05T09:57:43Z</time>
      </trkpt>
      <trkpt lat="44.00243" lon="7.18954">
        <ele>1078.599975586</ele>
        <time>2012-05-05T09:57:44Z</time>
      </trkpt>
      <trkpt lat="44.00243" lon="7.18948">
        <ele>1077.599975586</ele>
        <time>2012-05-05T09:57:45Z</time>
      </trkpt>
      <trkpt lat="44.00241" lon="7.18943">
        <ele>1076.199951172</ele>
        <time>2012-05-05T09:57:46Z</time>
      </trkpt>
      <trkpt lat="44.00239" lon="7.18938">
        <ele>1075.199951172</ele>
        <time>2012-05-05T09:57:47Z</time>
      </trkpt>
      <trkpt lat="44.00236" lon="7.18936">
        <ele>1073.599975586</ele>
        <time>2012-05-05T09:57:48Z</time>
      </trkpt>
      <trkpt lat="44.00233" lon="7.18935">
        <ele>1072.199951172</ele>
        <time>2012-05-05T09:57:49Z</time>
      </trkpt>
      <trkpt lat="44.0023" lon="7.18932">
        <ele>1071.199951172</ele>
        <time>2012-05-05T09:57:51Z</time>
      </trkpt>
      <trkpt lat="44.00228" lon="7.18928">
        <ele>1070.199951172</ele>
        <time>2012-05-05T09:57:52Z</time>
      </trkpt>
      <trkpt lat="44.00226" lon="7.18926">
        <ele>1070.199951172</ele>
        <time>2012-05-05T09:57:53Z</time>
      </trkpt>
      <trkpt lat="44.00224" lon="7.18926">
        <ele>1069.199951172</ele>
        <time>2012-05-05T09:57:54Z</time>
      </trkpt>
      <trkpt lat="44.00223" lon="7.18927">
        <ele>1067.400024414</ele>
        <time>2012-05-05T09:57:55Z</time>
      </trkpt>
      <trkpt lat="44.0022" lon="7.18927">
        <ele>1067.400024414</ele>
        <time>2012-05-05T09:57:56Z</time>
      </trkpt>
      <trkpt lat="44.0021" lon="7.18928">
        <ele>1064.400024414</ele>
        <time>2012-05-05T09:57:59Z</time>
      </trkpt>
      <trkpt lat="44.00204" lon="7.1893">
        <ele>1064.400024414</ele>
        <time>2012-05-05T09:58:01Z</time>
      </trkpt>
      <trkpt lat="44.00203" lon="7.18927">
        <ele>1064.400024414</ele>
        <time>2012-05-05T09:58:03Z</time>
      </trkpt>
      <trkpt lat="44.00204" lon="7.18926">
        <ele>1064.400024414</ele>
        <time>2012-05-05T09:58:04Z</time>
      </trkpt>
      <trkpt lat="44.00209" lon="7.1892">
        <ele>1062</ele>
        <time>2012-05-05T09:58:06Z</time>
      </trkpt>
      <trkpt lat="44.00214" lon="7.18916">
        <ele>1060.800048828</ele>
        <time>2012-05-05T09:58:07Z</time>
      </trkpt>
      <trkpt lat="44.00219" lon="7.18912">
        <ele>1060.800048828</ele>
        <time>2012-05-05T09:58:08Z</time>
      </trkpt>
      <trkpt lat="44.00223" lon="7.18909">
        <ele>1059.199951172</ele>
        <time>2012-05-05T09:58:09Z</time>
      </trkpt>
      <trkpt lat="44.0023" lon="7.18909">
        <ele>1059.199951172</ele>
        <time>2012-05-05T09:58:11Z</time>
      </trkpt>
      <trkpt lat="44.00234" lon="7.18907">
        <ele>1058</ele>
        <time>2012-05-05T09:58:12Z</time>
      </trkpt>
      <trkpt lat="44.00249" lon="7.18908">
        <ele>1058</ele>
        <time>2012-05-05T09:58:15Z</time>
      </trkpt>
      <trkpt lat="44.00253" lon="7.18907">
        <ele>1058</ele>
        <time>2012-05-05T09:58:16Z</time>
      </trkpt>
      <trkpt lat="44.00257" lon="7.18908">
        <ele>1058</ele>
        <time>2012-05-05T09:58:18Z</time>
      </trkpt>
      <trkpt lat="44.00258" lon="7.18909">
        <ele>1058</ele>
        <time>2012-05-05T09:58:23Z</time>
      </trkpt>
      <trkpt lat="44.00258" lon="7.18911">
        <ele>1058</ele>
        <time>2012-05-05T09:58:29Z</time>
      </trkpt>
      <trkpt lat="44.00258" lon="7.18912">
        <ele>1058</ele>
        <time>2012-05-05T09:58:32Z</time>
      </trkpt>
      <trkpt lat="44.0026" lon="7.1891">
        <ele>1058</ele>
        <time>2012-05-05T09:58:38Z</time>
      </trkpt>
      <trkpt lat="44.0026" lon="7.1891">
        <ele>1058</ele>
        <time>2012-05-05T09:58:43Z</time>
      </trkpt>
      <trkpt lat="44.0026" lon="7.1891">
        <ele>1057</ele>
        <time>2012-05-05T09:58:48Z</time>
      </trkpt>
      <trkpt lat="44.00261" lon="7.1891">
        <ele>1057</ele>
        <time>2012-05-05T09:58:49Z</time>
      </trkpt>
      <trkpt lat="44.00259" lon="7.18912">
        <ele>1057</ele>
        <time>2012-05-05T09:58:55Z</time>
      </trkpt>
      <trkpt lat="44.0026" lon="7.18912">
        <ele>1057</ele>
        <time>2012-05-05T09:58:59Z</time>
      </trkpt>
      <trkpt lat="44.00262" lon="7.18909">
        <ele>1057</ele>
        <time>2012-05-05T09:59:06Z</time>
      </trkpt>
      <trkpt lat="44.00263" lon="7.18906">
        <ele>1055.800048828</ele>
        <time>2012-05-05T09:59:07Z</time>
      </trkpt>
      <trkpt lat="44.00258" lon="7.18905">
        <ele>1054.599975586</ele>
        <time>2012-05-05T09:59:10Z</time>
      </trkpt>
      <trkpt lat="44.00253" lon="7.18905">
        <ele>1053.599975586</ele>
        <time>2012-05-05T09:59:12Z</time>
      </trkpt>
      <trkpt lat="44.00252" lon="7.18904">
        <ele>1053.599975586</ele>
        <time>2012-05-05T09:59:13Z</time>
      </trkpt>
      <trkpt lat="44.00249" lon="7.18901">
        <ele>1052.599975586</ele>
        <time>2012-05-05T09:59:15Z</time>
      </trkpt>
      <trkpt lat="44.00249" lon="7.18898">
        <ele>1051.400024414</ele>
        <time>2012-05-05T09:59:16Z</time>
      </trkpt>
      <trkpt lat="44.00251" lon="7.18898">
        <ele>1051.400024414</ele>
        <time>2012-05-05T09:59:18Z</time>
      </trkpt>
      <trkpt lat="44.00254" lon="7.18898">
        <ele>1050.199951172</ele>
        <time>2012-05-05T09:59:19Z</time>
      </trkpt>
      <trkpt lat="44.00263" lon="7.18895">
        <ele>1047.599975586</ele>
        <time>2012-05-05T09:59:21Z</time>
      </trkpt>
      <trkpt lat="44.00278" lon="7.18891">
        <ele>1046.599975586</ele>
        <time>2012-05-05T09:59:25Z</time>
      </trkpt>
      <trkpt lat="44.0028" lon="7.1889">
        <ele>1046.599975586</ele>
        <time>2012-05-05T09:59:26Z</time>
      </trkpt>
      <trkpt lat="44.00282" lon="7.18888">
        <ele>1046.599975586</ele>
        <time>2012-05-05T09:59:30Z</time>
      </trkpt>
      <trkpt lat="44.00282" lon="7.18888">
        <ele>1045.599975586</ele>
        <time>2012-05-05T09:59:34Z</time>
      </trkpt>
      <trkpt lat="44.00284" lon="7.18885">
        <ele>1045.599975586</ele>
        <time>2012-05-05T09:59:39Z</time>
      </trkpt>
      <trkpt lat="44.00284" lon="7.18884">
        <ele>1045.599975586</ele>
        <time>2012-05-05T09:59:44Z</time>
      </trkpt>
      <trkpt lat="44.00282" lon="7.18886">
        <ele>1045.599975586</ele>
        <time>2012-05-05T09:59:50Z</time>
      </trkpt>
      <trkpt lat="44.0028" lon="7.18887">
        <ele>1045.599975586</ele>
        <time>2012-05-05T09:59:57Z</time>
      </trkpt>
      <trkpt lat="44.00275" lon="7.1889">
        <ele>1045.599975586</ele>
        <time>2012-05-05T10:00:03Z</time>
      </trkpt>
      <trkpt lat="44.00275" lon="7.18891">
        <ele>1045.599975586</ele>
        <time>2012-05-05T10:00:08Z</time>
      </trkpt>
      <trkpt lat="44.00275" lon="7.18891">
        <ele>1045.599975586</ele>
        <time>2012-05-05T10:00:13Z</time>
      </trkpt>
      <trkpt lat="44.0027" lon="7.18891">
        <ele>1045.599975586</ele>
        <time>2012-05-05T10:00:18Z</time>
      </trkpt>
      <trkpt lat="44.00267" lon="7.18891">
        <ele>1045.599975586</ele>
        <time>2012-05-05T10:00:24Z</time>
      </trkpt>
      <trkpt lat="44.00268" lon="7.18892">
        <ele>1045.599975586</ele>
        <time>2012-05-05T10:00:28Z</time>
      </trkpt>
      <trkpt lat="44.00267" lon="7.18892">
        <ele>1045.599975586</ele>
        <time>2012-05-05T10:00:33Z</time>
      </trkpt>
      <trkpt lat="44.00265" lon="7.18893">
        <ele>1045.599975586</ele>
        <time>2012-05-05T10:00:38Z</time>
      </trkpt>
      <trkpt lat="44.00265" lon="7.18893">
        <ele>1045.599975586</ele>
        <time>2012-05-05T10:00:43Z</time>
      </trkpt>
      <trkpt lat="44.00264" lon="7.18892">
        <ele>1045.599975586</ele>
        <time>2012-05-05T10:00:49Z</time>
      </trkpt>
      <trkpt lat="44.00265" lon="7.18893">
        <ele>1045.599975586</ele>
        <time>2012-05-05T10:00:54Z</time>
      </trkpt>
      <trkpt lat="44.00264" lon="7.18893">
        <ele>1045.599975586</ele>
        <time>2012-05-05T10:01:01Z</time>
      </trkpt>
      <trkpt lat="44.00268" lon="7.18891">
        <ele>1045.599975586</ele>
        <time>2012-05-05T10:01:06Z</time>
      </trkpt>
      <trkpt lat="44.00273" lon="7.1889">
        <ele>1045.599975586</ele>
        <time>2012-05-05T10:01:11Z</time>
      </trkpt>
      <trkpt lat="44.00275" lon="7.1889">
        <ele>1045.599975586</ele>
        <time>2012-05-05T10:01:15Z</time>
      </trkpt>
      <trkpt lat="44.00278" lon="7.18888">
        <ele>1045.599975586</ele>
        <time>2012-05-05T10:01:18Z</time>
      </trkpt>
      <trkpt lat="44.00281" lon="7.18889">
        <ele>1045.599975586</ele>
        <time>2012-05-05T10:01:20Z</time>
      </trkpt>
      <trkpt lat="44.00281" lon="7.18888">
        <ele>1045.599975586</ele>
        <time>2012-05-05T10:01:21Z</time>
      </trkpt>
      <trkpt lat="44.00281" lon="7.18889">
        <ele>1045.599975586</ele>
        <time>2012-05-05T10:01:24Z</time>
      </trkpt>
      <trkpt lat="44.00281" lon="7.18888">
        <ele>1045.599975586</ele>
        <time>2012-05-05T10:01:31Z</time>
      </trkpt>
      <trkpt lat="44.00281" lon="7.18887">
        <ele>1045.599975586</ele>
        <time>2012-05-05T10:01:35Z</time>
      </trkpt>
      <trkpt lat="44.00282" lon="7.18886">
        <ele>1045.599975586</ele>
        <time>2012-05-05T10:01:36Z</time>
      </trkpt>
      <trkpt lat="44.0028" lon="7.18882">
        <ele>1044.599975586</ele>
        <time>2012-05-05T10:01:38Z</time>
      </trkpt>
      <trkpt lat="44.00274" lon="7.18881">
        <ele>1040.800048828</ele>
        <time>2012-05-05T10:01:40Z</time>
      </trkpt>
      <trkpt lat="44.00262" lon="7.18878">
        <ele>1039.599975586</ele>
        <time>2012-05-05T10:01:43Z</time>
      </trkpt>
      <trkpt lat="44.00259" lon="7.18877">
        <ele>1038.599975586</ele>
        <time>2012-05-05T10:01:44Z</time>
      </trkpt>
      <trkpt lat="44.00257" lon="7.18876">
        <ele>1038.599975586</ele>
        <time>2012-05-05T10:01:45Z</time>
      </trkpt>
      <trkpt lat="44.00258" lon="7.18875">
        <ele>1037.400024414</ele>
        <time>2012-05-05T10:01:46Z</time>
      </trkpt>
      <trkpt lat="44.00262" lon="7.18872">
        <ele>1036.199951172</ele>
        <time>2012-05-05T10:01:48Z</time>
      </trkpt>
      <trkpt lat="44.00262" lon="7.18871">
        <ele>1034.800048828</ele>
        <time>2012-05-05T10:01:49Z</time>
      </trkpt>
      <trkpt lat="44.00264" lon="7.18869">
        <ele>1033.800048828</ele>
        <time>2012-05-05T10:01:51Z</time>
      </trkpt>
      <trkpt lat="44.00263" lon="7.18868">
        <ele>1033.800048828</ele>
        <time>2012-05-05T10:01:52Z</time>
      </trkpt>
      <trkpt lat="44.00262" lon="7.18867">
        <ele>1032.800048828</ele>
        <time>2012-05-05T10:01:53Z</time>
      </trkpt>
      <trkpt lat="44.0026" lon="7.18867">
        <ele>1032.800048828</ele>
        <time>2012-05-05T10:01:54Z</time>
      </trkpt>
      <trkpt lat="44.00255" lon="7.18864">
        <ele>1030</ele>
        <time>2012-05-05T10:01:56Z</time>
      </trkpt>
      <trkpt lat="44.00251" lon="7.18863">
        <ele>1028.800048828</ele>
        <time>2012-05-05T10:01:57Z</time>
      </trkpt>
      <trkpt lat="44.00239" lon="7.1886">
        <ele>1027.800048828</ele>
        <time>2012-05-05T10:02:00Z</time>
      </trkpt>
      <trkpt lat="44.00234" lon="7.18859">
        <ele>1026.599975586</ele>
        <time>2012-05-05T10:02:01Z</time>
      </trkpt>
      <trkpt lat="44.00231" lon="7.18858">
        <ele>1025.599975586</ele>
        <time>2012-05-05T10:02:02Z</time>
      </trkpt>
      <trkpt lat="44.00229" lon="7.18858">
        <ele>1025.599975586</ele>
        <time>2012-05-05T10:02:03Z</time>
      </trkpt>
      <trkpt lat="44.00228" lon="7.18855">
        <ele>1024.599975586</ele>
        <time>2012-05-05T10:02:05Z</time>
      </trkpt>
      <trkpt lat="44.00229" lon="7.18854">
        <ele>1024.599975586</ele>
        <time>2012-05-05T10:02:06Z</time>
      </trkpt>
      <trkpt lat="44.00235" lon="7.1885">
        <ele>1023.200012207</ele>
        <time>2012-05-05T10:02:08Z</time>
      </trkpt>
      <trkpt lat="44.00239" lon="7.18847">
        <ele>1022</ele>
        <time>2012-05-05T10:02:09Z</time>
      </trkpt>
      <trkpt lat="44.00249" lon="7.18845">
        <ele>1020.599975586</ele>
        <time>2012-05-05T10:02:11Z</time>
      </trkpt>
      <trkpt lat="44.00258" lon="7.18844">
        <ele>1020.599975586</ele>
        <time>2012-05-05T10:02:13Z</time>
      </trkpt>
      <trkpt lat="44.00263" lon="7.18841">
        <ele>1019.200012207</ele>
        <time>2012-05-05T10:02:15Z</time>
      </trkpt>
      <trkpt lat="44.00265" lon="7.18839">
        <ele>1018</ele>
        <time>2012-05-05T10:02:16Z</time>
      </trkpt>
      <trkpt lat="44.00267" lon="7.18837">
        <ele>1018</ele>
        <time>2012-05-05T10:02:17Z</time>
      </trkpt>
      <trkpt lat="44.00267" lon="7.18835">
        <ele>1018</ele>
        <time>2012-05-05T10:02:18Z</time>
      </trkpt>
      <trkpt lat="44.00266" lon="7.18836">
        <ele>1016.799987793</ele>
        <time>2012-05-05T10:02:19Z</time>
      </trkpt>
      <trkpt lat="44.00265" lon="7.18835">
        <ele>1016.799987793</ele>
        <time>2012-05-05T10:02:20Z</time>
      </trkpt>
      <trkpt lat="44.00262" lon="7.18833">
        <ele>1015.599975586</ele>
        <time>2012-05-05T10:02:21Z</time>
      </trkpt>
      <trkpt lat="44.00259" lon="7.18831">
        <ele>1014.599975586</ele>
        <time>2012-05-05T10:02:22Z</time>
      </trkpt>
      <trkpt lat="44.00257" lon="7.1883">
        <ele>1013.400024414</ele>
        <time>2012-05-05T10:02:23Z</time>
      </trkpt>
      <trkpt lat="44.00253" lon="7.18829">
        <ele>1012</ele>
        <time>2012-05-05T10:02:25Z</time>
      </trkpt>
      <trkpt lat="44.00251" lon="7.18828">
        <ele>1011</ele>
        <time>2012-05-05T10:02:26Z</time>
      </trkpt>
      <trkpt lat="44.0025" lon="7.18826">
        <ele>1011</ele>
        <time>2012-05-05T10:02:27Z</time>
      </trkpt>
      <trkpt lat="44.00252" lon="7.18823">
        <ele>1010</ele>
        <time>2012-05-05T10:02:29Z</time>
      </trkpt>
      <trkpt lat="44.00254" lon="7.18822">
        <ele>1010</ele>
        <time>2012-05-05T10:02:30Z</time>
      </trkpt>
      <trkpt lat="44.00257" lon="7.18821">
        <ele>1008</ele>
        <time>2012-05-05T10:02:31Z</time>
      </trkpt>
      <trkpt lat="44.0026" lon="7.1882">
        <ele>1008</ele>
        <time>2012-05-05T10:02:32Z</time>
      </trkpt>
      <trkpt lat="44.00263" lon="7.18818">
        <ele>1006.200012207</ele>
        <time>2012-05-05T10:02:33Z</time>
      </trkpt>
      <trkpt lat="44.0027" lon="7.18815">
        <ele>1006.200012207</ele>
        <time>2012-05-05T10:02:35Z</time>
      </trkpt>
      <trkpt lat="44.00275" lon="7.18813">
        <ele>1005.200012207</ele>
        <time>2012-05-05T10:02:36Z</time>
      </trkpt>
      <trkpt lat="44.00288" lon="7.18811">
        <ele>1005.200012207</ele>
        <time>2012-05-05T10:02:39Z</time>
      </trkpt>
      <trkpt lat="44.00298" lon="7.18814">
        <ele>1004</ele>
        <time>2012-05-05T10:02:41Z</time>
      </trkpt>
      <trkpt lat="44.00304" lon="7.18816">
        <ele>1003</ele>
        <time>2012-05-05T10:02:42Z</time>
      </trkpt>
      <trkpt lat="44.00307" lon="7.18818">
        <ele>1003</ele>
        <time>2012-05-05T10:02:43Z</time>
      </trkpt>
      <trkpt lat="44.00309" lon="7.18821">
        <ele>1003</ele>
        <time>2012-05-05T10:02:45Z</time>
      </trkpt>
      <trkpt lat="44.0031" lon="7.1882">
        <ele>1001.799987793</ele>
        <time>2012-05-05T10:02:46Z</time>
      </trkpt>
      <trkpt lat="44.0031" lon="7.18817">
        <ele>1000.599975586</ele>
        <time>2012-05-05T10:02:48Z</time>
      </trkpt>
      <trkpt lat="44.0031" lon="7.18813">
        <ele>999.400024414</ele>
        <time>2012-05-05T10:02:49Z</time>
      </trkpt>
      <trkpt lat="44.0031" lon="7.18809">
        <ele>999.400024414</ele>
        <time>2012-05-05T10:02:50Z</time>
      </trkpt>
      <trkpt lat="44.00308" lon="7.18805">
        <ele>998.200012207</ele>
        <time>2012-05-05T10:02:51Z</time>
      </trkpt>
      <trkpt lat="44.00306" lon="7.18801">
        <ele>996.799987793</ele>
        <time>2012-05-05T10:02:52Z</time>
      </trkpt>
      <trkpt lat="44.00305" lon="7.18799">
        <ele>996.799987793</ele>
        <time>2012-05-05T10:02:53Z</time>
      </trkpt>
      <trkpt lat="44.00303" lon="7.18794">
        <ele>995.400024414</ele>
        <time>2012-05-05T10:02:54Z</time>
      </trkpt>
      <trkpt lat="44.00303" lon="7.18792">
        <ele>994.400024414</ele>
        <time>2012-05-05T10:02:55Z</time>
      </trkpt>
      <trkpt lat="44.00303" lon="7.18789">
        <ele>993</ele>
        <time>2012-05-05T10:02:56Z</time>
      </trkpt>
      <trkpt lat="44.00302" lon="7.18788">
        <ele>993</ele>
        <time>2012-05-05T10:02:57Z</time>
      </trkpt>
      <trkpt lat="44.00299" lon="7.18787">
        <ele>992</ele>
        <time>2012-05-05T10:02:58Z</time>
      </trkpt>
      <trkpt lat="44.00295" lon="7.18782">
        <ele>992</ele>
        <time>2012-05-05T10:03:00Z</time>
      </trkpt>
      <trkpt lat="44.00293" lon="7.18778">
        <ele>989.799987793</ele>
        <time>2012-05-05T10:03:03Z</time>
      </trkpt>
      <trkpt lat="44.00294" lon="7.18778">
        <ele>989.799987793</ele>
        <time>2012-05-05T10:03:04Z</time>
      </trkpt>
      <trkpt lat="44.003" lon="7.18775">
        <ele>988</ele>
        <time>2012-05-05T10:03:06Z</time>
      </trkpt>
      <trkpt lat="44.00304" lon="7.18774">
        <ele>988</ele>
        <time>2012-05-05T10:03:07Z</time>
      </trkpt>
      <trkpt lat="44.00307" lon="7.18775">
        <ele>986.799987793</ele>
        <time>2012-05-05T10:03:08Z</time>
      </trkpt>
      <trkpt lat="44.00308" lon="7.18773">
        <ele>985.599975586</ele>
        <time>2012-05-05T10:03:10Z</time>
      </trkpt>
      <trkpt lat="44.00306" lon="7.1877">
        <ele>984.400024414</ele>
        <time>2012-05-05T10:03:11Z</time>
      </trkpt>
      <trkpt lat="44.00301" lon="7.18764">
        <ele>983</ele>
        <time>2012-05-05T10:03:13Z</time>
      </trkpt>
      <trkpt lat="44.00297" lon="7.18762">
        <ele>981.799987793</ele>
        <time>2012-05-05T10:03:14Z</time>
      </trkpt>
      <trkpt lat="44.00293" lon="7.1876">
        <ele>980.799987793</ele>
        <time>2012-05-05T10:03:15Z</time>
      </trkpt>
      <trkpt lat="44.00284" lon="7.18757">
        <ele>979.200012207</ele>
        <time>2012-05-05T10:03:17Z</time>
      </trkpt>
      <trkpt lat="44.00279" lon="7.18755">
        <ele>977.799987793</ele>
        <time>2012-05-05T10:03:18Z</time>
      </trkpt>
      <trkpt lat="44.00274" lon="7.18752">
        <ele>976.799987793</ele>
        <time>2012-05-05T10:03:19Z</time>
      </trkpt>
      <trkpt lat="44.0027" lon="7.18751">
        <ele>975.799987793</ele>
        <time>2012-05-05T10:03:20Z</time>
      </trkpt>
      <trkpt lat="44.00264" lon="7.18751">
        <ele>974.599975586</ele>
        <time>2012-05-05T10:03:21Z</time>
      </trkpt>
      <trkpt lat="44.00259" lon="7.18751">
        <ele>973.599975586</ele>
        <time>2012-05-05T10:03:22Z</time>
      </trkpt>
      <trkpt lat="44.00255" lon="7.18752">
        <ele>972.599975586</ele>
        <time>2012-05-05T10:03:23Z</time>
      </trkpt>
      <trkpt lat="44.00251" lon="7.18753">
        <ele>971.400024414</ele>
        <time>2012-05-05T10:03:24Z</time>
      </trkpt>
      <trkpt lat="44.00251" lon="7.18751">
        <ele>971.400024414</ele>
        <time>2012-05-05T10:03:25Z</time>
      </trkpt>
      <trkpt lat="44.00252" lon="7.18752">
        <ele>970.400024414</ele>
        <time>2012-05-05T10:03:26Z</time>
      </trkpt>
      <trkpt lat="44.00251" lon="7.18751">
        <ele>970.400024414</ele>
        <time>2012-05-05T10:03:28Z</time>
      </trkpt>
      <trkpt lat="44.00251" lon="7.18751">
        <ele>969.200012207</ele>
        <time>2012-05-05T10:03:31Z</time>
      </trkpt>
      <trkpt lat="44.0025" lon="7.18751">
        <ele>969.200012207</ele>
        <time>2012-05-05T10:03:32Z</time>
      </trkpt>
      <trkpt lat="44.0025" lon="7.1875">
        <ele>969.200012207</ele>
        <time>2012-05-05T10:03:33Z</time>
      </trkpt>
      <trkpt lat="44.00249" lon="7.18748">
        <ele>968.200012207</ele>
        <time>2012-05-05T10:03:35Z</time>
      </trkpt>
      <trkpt lat="44.0025" lon="7.18752">
        <ele>968.200012207</ele>
        <time>2012-05-05T10:03:38Z</time>
      </trkpt>
      <trkpt lat="44.0025" lon="7.18753">
        <ele>968.200012207</ele>
        <time>2012-05-05T10:03:43Z</time>
      </trkpt>
      <trkpt lat="44.0025" lon="7.18754">
        <ele>968.200012207</ele>
        <time>2012-05-05T10:03:48Z</time>
      </trkpt>
      <trkpt lat="44.0025" lon="7.18755">
        <ele>968.200012207</ele>
        <time>2012-05-05T10:03:54Z</time>
      </trkpt>
      <trkpt lat="44.00249" lon="7.18753">
        <ele>968.200012207</ele>
        <time>2012-05-05T10:04:02Z</time>
      </trkpt>
      <trkpt lat="44.00249" lon="7.1875">
        <ele>968.200012207</ele>
        <time>2012-05-05T10:04:06Z</time>
      </trkpt>
      <trkpt lat="44.0025" lon="7.18751">
        <ele>968.200012207</ele>
        <time>2012-05-05T10:04:10Z</time>
      </trkpt>
      <trkpt lat="44.0025" lon="7.1875">
        <ele>968.200012207</ele>
        <time>2012-05-05T10:04:15Z</time>
      </trkpt>
      <trkpt lat="44.00252" lon="7.18748">
        <ele>968.200012207</ele>
        <time>2012-05-05T10:04:20Z</time>
      </trkpt>
      <trkpt lat="44.00256" lon="7.18743">
        <ele>968.200012207</ele>
        <time>2012-05-05T10:04:23Z</time>
      </trkpt>
      <trkpt lat="44.00262" lon="7.18739">
        <ele>965.799987793</ele>
        <time>2012-05-05T10:04:25Z</time>
      </trkpt>
      <trkpt lat="44.00264" lon="7.18736">
        <ele>964.799987793</ele>
        <time>2012-05-05T10:04:26Z</time>
      </trkpt>
      <trkpt lat="44.00266" lon="7.18733">
        <ele>963.599975586</ele>
        <time>2012-05-05T10:04:27Z</time>
      </trkpt>
      <trkpt lat="44.00268" lon="7.1873">
        <ele>962</ele>
        <time>2012-05-05T10:04:28Z</time>
      </trkpt>
      <trkpt lat="44.0027" lon="7.18724">
        <ele>961</ele>
        <time>2012-05-05T10:04:30Z</time>
      </trkpt>
      <trkpt lat="44.00272" lon="7.18721">
        <ele>959.799987793</ele>
        <time>2012-05-05T10:04:31Z</time>
      </trkpt>
      <trkpt lat="44.00274" lon="7.1872">
        <ele>958.799987793</ele>
        <time>2012-05-05T10:04:32Z</time>
      </trkpt>
      <trkpt lat="44.00275" lon="7.18718">
        <ele>958.799987793</ele>
        <time>2012-05-05T10:04:33Z</time>
      </trkpt>
      <trkpt lat="44.00274" lon="7.18717">
        <ele>958.799987793</ele>
        <time>2012-05-05T10:04:34Z</time>
      </trkpt>
      <trkpt lat="44.00273" lon="7.18717">
        <ele>957.599975586</ele>
        <time>2012-05-05T10:04:35Z</time>
      </trkpt>
      <trkpt lat="44.00271" lon="7.18715">
        <ele>956.599975586</ele>
        <time>2012-05-05T10:04:36Z</time>
      </trkpt>
      <trkpt lat="44.0027" lon="7.18712">
        <ele>955.599975586</ele>
        <time>2012-05-05T10:04:37Z</time>
      </trkpt>
      <trkpt lat="44.00269" lon="7.18709">
        <ele>954.200012207</ele>
        <time>2012-05-05T10:04:38Z</time>
      </trkpt>
      <trkpt lat="44.00266" lon="7.18707">
        <ele>953.200012207</ele>
        <time>2012-05-05T10:04:40Z</time>
      </trkpt>
      <trkpt lat="44.00267" lon="7.18704">
        <ele>953.200012207</ele>
        <time>2012-05-05T10:04:41Z</time>
      </trkpt>
      <trkpt lat="44.00269" lon="7.18702">
        <ele>952.200012207</ele>
        <time>2012-05-05T10:04:42Z</time>
      </trkpt>
      <trkpt lat="44.00271" lon="7.18701">
        <ele>951</ele>
        <time>2012-05-05T10:04:43Z</time>
      </trkpt>
      <trkpt lat="44.00271" lon="7.18699">
        <ele>951</ele>
        <time>2012-05-05T10:04:44Z</time>
      </trkpt>
      <trkpt lat="44.0027" lon="7.18698">
        <ele>949.799987793</ele>
        <time>2012-05-05T10:04:46Z</time>
      </trkpt>
      <trkpt lat="44.00267" lon="7.18697">
        <ele>949.799987793</ele>
        <time>2012-05-05T10:04:47Z</time>
      </trkpt>
      <trkpt lat="44.00264" lon="7.18694">
        <ele>948.599975586</ele>
        <time>2012-05-05T10:04:48Z</time>
      </trkpt>
      <trkpt lat="44.00259" lon="7.18693">
        <ele>946.599975586</ele>
        <time>2012-05-05T10:04:49Z</time>
      </trkpt>
      <trkpt lat="44.00253" lon="7.18693">
        <ele>946.599975586</ele>
        <time>2012-05-05T10:04:51Z</time>
      </trkpt>
      <trkpt lat="44.00253" lon="7.18691">
        <ele>945.599975586</ele>
        <time>2012-05-05T10:04:52Z</time>
      </trkpt>
      <trkpt lat="44.00254" lon="7.18688">
        <ele>945.599975586</ele>
        <time>2012-05-05T10:04:53Z</time>
      </trkpt>
      <trkpt lat="44.0026" lon="7.18685">
        <ele>942.200012207</ele>
        <time>2012-05-05T10:04:55Z</time>
      </trkpt>
      <trkpt lat="44.00264" lon="7.18682">
        <ele>941</ele>
        <time>2012-05-05T10:04:56Z</time>
      </trkpt>
      <trkpt lat="44.00269" lon="7.18681">
        <ele>939.400024414</ele>
        <time>2012-05-05T10:04:57Z</time>
      </trkpt>
      <trkpt lat="44.00273" lon="7.1868">
        <ele>942.400024414</ele>
        <time>2012-05-05T10:04:58Z</time>
      </trkpt>
      <trkpt lat="44.00281" lon="7.1868">
        <ele>942.400024414</ele>
        <time>2012-05-05T10:05:00Z</time>
      </trkpt>
      <trkpt lat="44.00283" lon="7.18678">
        <ele>939.200012207</ele>
        <time>2012-05-05T10:05:02Z</time>
      </trkpt>
      <trkpt lat="44.00282" lon="7.18677">
        <ele>939.200012207</ele>
        <time>2012-05-05T10:05:03Z</time>
      </trkpt>
      <trkpt lat="44.00277" lon="7.18674">
        <ele>937.400024414</ele>
        <time>2012-05-05T10:05:05Z</time>
      </trkpt>
      <trkpt lat="44.00273" lon="7.18672">
        <ele>934.599975586</ele>
        <time>2012-05-05T10:05:06Z</time>
      </trkpt>
      <trkpt lat="44.0027" lon="7.1867">
        <ele>934.599975586</ele>
        <time>2012-05-05T10:05:07Z</time>
      </trkpt>
      <trkpt lat="44.00267" lon="7.18667">
        <ele>934.599975586</ele>
        <time>2012-05-05T10:05:09Z</time>
      </trkpt>
      <trkpt lat="44.00268" lon="7.18665">
        <ele>934.599975586</ele>
        <time>2012-05-05T10:05:10Z</time>
      </trkpt>
      <trkpt lat="44.00274" lon="7.18662">
        <ele>933.400024414</ele>
        <time>2012-05-05T10:05:13Z</time>
      </trkpt>
      <trkpt lat="44.00276" lon="7.18661">
        <ele>933.400024414</ele>
        <time>2012-05-05T10:05:14Z</time>
      </trkpt>
      <trkpt lat="44.00277" lon="7.18661">
        <ele>932.200012207</ele>
        <time>2012-05-05T10:05:15Z</time>
      </trkpt>
      <trkpt lat="44.00278" lon="7.18655">
        <ele>930.799987793</ele>
        <time>2012-05-05T10:05:17Z</time>
      </trkpt>
      <trkpt lat="44.00281" lon="7.1865">
        <ele>927.799987793</ele>
        <time>2012-05-05T10:05:18Z</time>
      </trkpt>
      <trkpt lat="44.00284" lon="7.18649">
        <ele>926</ele>
        <time>2012-05-05T10:05:19Z</time>
      </trkpt>
      <trkpt lat="44.00288" lon="7.1865">
        <ele>926</ele>
        <time>2012-05-05T10:05:20Z</time>
      </trkpt>
      <trkpt lat="44.00297" lon="7.18653">
        <ele>926</ele>
        <time>2012-05-05T10:05:23Z</time>
      </trkpt>
      <trkpt lat="44.00303" lon="7.18654">
        <ele>926</ele>
        <time>2012-05-05T10:05:25Z</time>
      </trkpt>
      <trkpt lat="44.00307" lon="7.18654">
        <ele>926</ele>
        <time>2012-05-05T10:05:26Z</time>
      </trkpt>
      <trkpt lat="44.00314" lon="7.18655">
        <ele>924.400024414</ele>
        <time>2012-05-05T10:05:28Z</time>
      </trkpt>
      <trkpt lat="44.00317" lon="7.18655">
        <ele>923.400024414</ele>
        <time>2012-05-05T10:05:29Z</time>
      </trkpt>
      <trkpt lat="44.00322" lon="7.18656">
        <ele>923.400024414</ele>
        <time>2012-05-05T10:05:31Z</time>
      </trkpt>
      <trkpt lat="44.00323" lon="7.18655">
        <ele>923.400024414</ele>
        <time>2012-05-05T10:05:33Z</time>
      </trkpt>
      <trkpt lat="44.00323" lon="7.18655">
        <ele>923.400024414</ele>
        <time>2012-05-05T10:05:35Z</time>
      </trkpt>
      <trkpt lat="44.00323" lon="7.18655">
        <ele>922</ele>
        <time>2012-05-05T10:05:37Z</time>
      </trkpt>
      <trkpt lat="44.00317" lon="7.1865">
        <ele>920.799987793</ele>
        <time>2012-05-05T10:05:40Z</time>
      </trkpt>
      <trkpt lat="44.00314" lon="7.18647">
        <ele>919.200012207</ele>
        <time>2012-05-05T10:05:41Z</time>
      </trkpt>
      <trkpt lat="44.00308" lon="7.18643">
        <ele>918.200012207</ele>
        <time>2012-05-05T10:05:43Z</time>
      </trkpt>
      <trkpt lat="44.00308" lon="7.1864">
        <ele>918.200012207</ele>
        <time>2012-05-05T10:05:44Z</time>
      </trkpt>
      <trkpt lat="44.0031" lon="7.18639">
        <ele>918.200012207</ele>
        <time>2012-05-05T10:05:45Z</time>
      </trkpt>
      <trkpt lat="44.00312" lon="7.1864">
        <ele>916.799987793</ele>
        <time>2012-05-05T10:05:46Z</time>
      </trkpt>
      <trkpt lat="44.00317" lon="7.18638">
        <ele>915.599975586</ele>
        <time>2012-05-05T10:05:48Z</time>
      </trkpt>
      <trkpt lat="44.00319" lon="7.18636">
        <ele>914.400024414</ele>
        <time>2012-05-05T10:05:49Z</time>
      </trkpt>
      <trkpt lat="44.00323" lon="7.18634">
        <ele>913.400024414</ele>
        <time>2012-05-05T10:05:50Z</time>
      </trkpt>
      <trkpt lat="44.00324" lon="7.18634">
        <ele>912</ele>
        <time>2012-05-05T10:05:51Z</time>
      </trkpt>
      <trkpt lat="44.00327" lon="7.18634">
        <ele>910.799987793</ele>
        <time>2012-05-05T10:05:52Z</time>
      </trkpt>
      <trkpt lat="44.00332" lon="7.18632">
        <ele>909.799987793</ele>
        <time>2012-05-05T10:05:54Z</time>
      </trkpt>
      <trkpt lat="44.00335" lon="7.18632">
        <ele>909.799987793</ele>
        <time>2012-05-05T10:05:55Z</time>
      </trkpt>
      <trkpt lat="44.0035" lon="7.1864">
        <ele>907.599975586</ele>
        <time>2012-05-05T10:06:00Z</time>
      </trkpt>
      <trkpt lat="44.00354" lon="7.18643">
        <ele>906.599975586</ele>
        <time>2012-05-05T10:06:01Z</time>
      </trkpt>
      <trkpt lat="44.0036" lon="7.18649">
        <ele>905.200012207</ele>
        <time>2012-05-05T10:06:03Z</time>
      </trkpt>
      <trkpt lat="44.0037" lon="7.18655">
        <ele>903</ele>
        <time>2012-05-05T10:06:05Z</time>
      </trkpt>
      <trkpt lat="44.00375" lon="7.18658">
        <ele>902</ele>
        <time>2012-05-05T10:06:06Z</time>
      </trkpt>
      <trkpt lat="44.00381" lon="7.18663">
        <ele>900.599975586</ele>
        <time>2012-05-05T10:06:08Z</time>
      </trkpt>
      <trkpt lat="44.00383" lon="7.18666">
        <ele>900.599975586</ele>
        <time>2012-05-05T10:06:09Z</time>
      </trkpt>
      <trkpt lat="44.00385" lon="7.18667">
        <ele>899.200012207</ele>
        <time>2012-05-05T10:06:10Z</time>
      </trkpt>
      <trkpt lat="44.00387" lon="7.18668">
        <ele>897.799987793</ele>
        <time>2012-05-05T10:06:12Z</time>
      </trkpt>
      <trkpt lat="44.00389" lon="7.18669">
        <ele>897.799987793</ele>
        <time>2012-05-05T10:06:13Z</time>
      </trkpt>
      <trkpt lat="44.00393" lon="7.18669">
        <ele>896</ele>
        <time>2012-05-05T10:06:14Z</time>
      </trkpt>
      <trkpt lat="44.00396" lon="7.18671">
        <ele>895</ele>
        <time>2012-05-05T10:06:15Z</time>
      </trkpt>
      <trkpt lat="44.00398" lon="7.18674">
        <ele>895</ele>
        <time>2012-05-05T10:06:16Z</time>
      </trkpt>
      <trkpt lat="44.00398" lon="7.18676">
        <ele>893.400024414</ele>
        <time>2012-05-05T10:06:17Z</time>
      </trkpt>
      <trkpt lat="44.00399" lon="7.18676">
        <ele>892.200012207</ele>
        <time>2012-05-05T10:06:19Z</time>
      </trkpt>
      <trkpt lat="44.00399" lon="7.18677">
        <ele>891</ele>
        <time>2012-05-05T10:06:21Z</time>
      </trkpt>
      <trkpt lat="44.00399" lon="7.18677">
        <ele>890</ele>
        <time>2012-05-05T10:06:23Z</time>
      </trkpt>
      <trkpt lat="44.004" lon="7.18678">
        <ele>888.799987793</ele>
        <time>2012-05-05T10:06:25Z</time>
      </trkpt>
      <trkpt lat="44.004" lon="7.18678">
        <ele>888.799987793</ele>
        <time>2012-05-05T10:06:26Z</time>
      </trkpt>
      <trkpt lat="44.004" lon="7.18678">
        <ele>887.799987793</ele>
        <time>2012-05-05T10:06:27Z</time>
      </trkpt>
      <trkpt lat="44.004" lon="7.18679">
        <ele>886.799987793</ele>
        <time>2012-05-05T10:06:30Z</time>
      </trkpt>
      <trkpt lat="44.00401" lon="7.18679">
        <ele>885.599975586</ele>
        <time>2012-05-05T10:06:33Z</time>
      </trkpt>
      <trkpt lat="44.00401" lon="7.1868">
        <ele>884.400024414</ele>
        <time>2012-05-05T10:06:36Z</time>
      </trkpt>
      <trkpt lat="44.00401" lon="7.18681">
        <ele>884.400024414</ele>
        <time>2012-05-05T10:06:42Z</time>
      </trkpt>
      <trkpt lat="44.00402" lon="7.18681">
        <ele>884.400024414</ele>
        <time>2012-05-05T10:06:51Z</time>
      </trkpt>
      <trkpt lat="44.00402" lon="7.18682">
        <ele>884.400024414</ele>
        <time>2012-05-05T10:07:00Z</time>
      </trkpt>
      <trkpt lat="44.00403" lon="7.18682">
        <ele>884.400024414</ele>
        <time>2012-05-05T10:07:02Z</time>
      </trkpt>
      <trkpt lat="44.00403" lon="7.18683">
        <ele>884.400024414</ele>
        <time>2012-05-05T10:07:09Z</time>
      </trkpt>
      <trkpt lat="44.00404" lon="7.18683">
        <ele>884.400024414</ele>
        <time>2012-05-05T10:07:12Z</time>
      </trkpt>
      <trkpt lat="44.00404" lon="7.18683">
        <ele>884.400024414</ele>
        <time>2012-05-05T10:07:13Z</time>
      </trkpt>
      <trkpt lat="44.00404" lon="7.18684">
        <ele>884.400024414</ele>
        <time>2012-05-05T10:07:15Z</time>
      </trkpt>
      <trkpt lat="44.00404" lon="7.18684">
        <ele>884.400024414</ele>
        <time>2012-05-05T10:07:22Z</time>
      </trkpt>
      <trkpt lat="44.00407" lon="7.18683">
        <ele>884.400024414</ele>
        <time>2012-05-05T10:07:36Z</time>
      </trkpt>
      <trkpt lat="44.00408" lon="7.18684">
        <ele>884.400024414</ele>
        <time>2012-05-05T10:07:45Z</time>
      </trkpt>
      <trkpt lat="44.00405" lon="7.18689">
        <ele>884.400024414</ele>
        <time>2012-05-05T10:08:02Z</time>
      </trkpt>
      <trkpt lat="44.00403" lon="7.18691">
        <ele>884.400024414</ele>
        <time>2012-05-05T10:08:08Z</time>
      </trkpt>
      <trkpt lat="44.00401" lon="7.18691">
        <ele>884.400024414</ele>
        <time>2012-05-05T10:08:15Z</time>
      </trkpt>
      <trkpt lat="44.00401" lon="7.18691">
        <ele>884.400024414</ele>
        <time>2012-05-05T10:08:16Z</time>
      </trkpt>
      <trkpt lat="44.00401" lon="7.18691">
        <ele>884.400024414</ele>
        <time>2012-05-05T10:08:19Z</time>
      </trkpt>
      <trkpt lat="44.004" lon="7.18692">
        <ele>884.400024414</ele>
        <time>2012-05-05T10:08:26Z</time>
      </trkpt>
      <trkpt lat="44.004" lon="7.18692">
        <ele>884.400024414</ele>
        <time>2012-05-05T10:08:29Z</time>
      </trkpt>
      <trkpt lat="44.004" lon="7.18693">
        <ele>884.400024414</ele>
        <time>2012-05-05T10:08:32Z</time>
      </trkpt>
      <trkpt lat="44.004" lon="7.18693">
        <ele>884.400024414</ele>
        <time>2012-05-05T10:08:35Z</time>
      </trkpt>
      <trkpt lat="44.004" lon="7.18693">
        <ele>884.400024414</ele>
        <time>2012-05-05T10:08:37Z</time>
      </trkpt>
      <trkpt lat="44.004" lon="7.18692">
        <ele>884.400024414</ele>
        <time>2012-05-05T10:08:38Z</time>
      </trkpt>
      <trkpt lat="44.004" lon="7.18693">
        <ele>884.400024414</ele>
        <time>2012-05-05T10:08:41Z</time>
      </trkpt>
      <trkpt lat="44.004" lon="7.18693">
        <ele>884.400024414</ele>
        <time>2012-05-05T10:08:44Z</time>
      </trkpt>
      <trkpt lat="44.004" lon="7.18692">
        <ele>884.400024414</ele>
        <time>2012-05-05T10:08:46Z</time>
      </trkpt>
      <trkpt lat="44.00401" lon="7.18692">
        <ele>884.400024414</ele>
        <time>2012-05-05T10:08:51Z</time>
      </trkpt>
      <trkpt lat="44.00401" lon="7.18692">
        <ele>884.400024414</ele>
        <time>2012-05-05T10:08:53Z</time>
      </trkpt>
      <trkpt lat="44.00403" lon="7.18692">
        <ele>884.400024414</ele>
        <time>2012-05-05T10:09:06Z</time>
      </trkpt>
      <trkpt lat="44.00403" lon="7.18692">
        <ele>884.400024414</ele>
        <time>2012-05-05T10:09:07Z</time>
      </trkpt>
      <trkpt lat="44.00402" lon="7.18692">
        <ele>884.400024414</ele>
        <time>2012-05-05T10:09:14Z</time>
      </trkpt>
      <trkpt lat="44.00403" lon="7.18691">
        <ele>884.400024414</ele>
        <time>2012-05-05T10:09:23Z</time>
      </trkpt>
      <trkpt lat="44.00404" lon="7.1869">
        <ele>884.400024414</ele>
        <time>2012-05-05T10:09:30Z</time>
      </trkpt>
      <trkpt lat="44.00404" lon="7.1869">
        <ele>884.400024414</ele>
        <time>2012-05-05T10:09:37Z</time>
      </trkpt>
      <trkpt lat="44.00404" lon="7.1869">
        <ele>884.400024414</ele>
        <time>2012-05-05T10:09:47Z</time>
      </trkpt>
      <trkpt lat="44.00404" lon="7.18689">
        <ele>884.400024414</ele>
        <time>2012-05-05T10:09:51Z</time>
      </trkpt>
      <trkpt lat="44.00403" lon="7.18683">
        <ele>884.400024414</ele>
        <time>2012-05-05T10:09:56Z</time>
      </trkpt>
      <trkpt lat="44.00403" lon="7.18683">
        <ele>884.400024414</ele>
        <time>2012-05-05T10:09:59Z</time>
      </trkpt>
      <trkpt lat="44.00403" lon="7.18683">
        <ele>884.400024414</ele>
        <time>2012-05-05T10:10:05Z</time>
      </trkpt>
      <trkpt lat="44.00402" lon="7.18683">
        <ele>884.400024414</ele>
        <time>2012-05-05T10:10:09Z</time>
      </trkpt>
      <trkpt lat="44.00402" lon="7.18683">
        <ele>884.400024414</ele>
        <time>2012-05-05T10:10:11Z</time>
      </trkpt>
      <trkpt lat="44.00402" lon="7.18683">
        <ele>884.400024414</ele>
        <time>2012-05-05T10:10:21Z</time>
      </trkpt>
      <trkpt lat="44.00403" lon="7.18682">
        <ele>884.400024414</ele>
        <time>2012-05-05T10:10:38Z</time>
      </trkpt>
      <trkpt lat="44.00402" lon="7.18682">
        <ele>884.400024414</ele>
        <time>2012-05-05T10:10:44Z</time>
      </trkpt>
      <trkpt lat="44.00403" lon="7.18682">
        <ele>882.200012207</ele>
        <time>2012-05-05T10:10:51Z</time>
      </trkpt>
      <trkpt lat="44.00402" lon="7.18681">
        <ele>882.200012207</ele>
        <time>2012-05-05T10:10:54Z</time>
      </trkpt>
      <trkpt lat="44.00401" lon="7.1868">
        <ele>882.200012207</ele>
        <time>2012-05-05T10:10:57Z</time>
      </trkpt>
      <trkpt lat="44.00401" lon="7.18679">
        <ele>882.200012207</ele>
        <time>2012-05-05T10:11:05Z</time>
      </trkpt>
      <trkpt lat="44.004" lon="7.18679">
        <ele>882.200012207</ele>
        <time>2012-05-05T10:11:11Z</time>
      </trkpt>
      <trkpt lat="44.004" lon="7.18678">
        <ele>882.200012207</ele>
        <time>2012-05-05T10:11:18Z</time>
      </trkpt>
      <trkpt lat="44.004" lon="7.18678">
        <ele>882.200012207</ele>
        <time>2012-05-05T10:11:19Z</time>
      </trkpt>
      <trkpt lat="44.004" lon="7.18678">
        <ele>882.200012207</ele>
        <time>2012-05-05T10:11:26Z</time>
      </trkpt>
      <trkpt lat="44.004" lon="7.18678">
        <ele>882.200012207</ele>
        <time>2012-05-05T10:11:29Z</time>
      </trkpt>
      <trkpt lat="44.004" lon="7.18678">
        <ele>881.200012207</ele>
        <time>2012-05-05T10:11:30Z</time>
      </trkpt>
      <trkpt lat="44.004" lon="7.18678">
        <ele>881.200012207</ele>
        <time>2012-05-05T10:11:31Z</time>
      </trkpt>
      <trkpt lat="44.004" lon="7.18678">
        <ele>881.200012207</ele>
        <time>2012-05-05T10:11:33Z</time>
      </trkpt>
      <trkpt lat="44.004" lon="7.18677">
        <ele>881.200012207</ele>
        <time>2012-05-05T10:11:36Z</time>
      </trkpt>
      <trkpt lat="44.00401" lon="7.18677">
        <ele>881.200012207</ele>
        <time>2012-05-05T10:11:38Z</time>
      </trkpt>
      <trkpt lat="44.00401" lon="7.18677">
        <ele>881.200012207</ele>
        <time>2012-05-05T10:11:41Z</time>
      </trkpt>
      <trkpt lat="44.00401" lon="7.18677">
        <ele>881.200012207</ele>
        <time>2012-05-05T10:11:44Z</time>
      </trkpt>
      <trkpt lat="44.00401" lon="7.18676">
        <ele>881.200012207</ele>
        <time>2012-05-05T10:11:49Z</time>
      </trkpt>
      <trkpt lat="44.004" lon="7.18675">
        <ele>881.200012207</ele>
        <time>2012-05-05T10:11:56Z</time>
      </trkpt>
      <trkpt lat="44.004" lon="7.18674">
        <ele>881.200012207</ele>
        <time>2012-05-05T10:12:03Z</time>
      </trkpt>
      <trkpt lat="44.004" lon="7.18675">
        <ele>881.200012207</ele>
        <time>2012-05-05T10:12:06Z</time>
      </trkpt>
      <trkpt lat="44.004" lon="7.18675">
        <ele>881.200012207</ele>
        <time>2012-05-05T10:12:12Z</time>
      </trkpt>
      <trkpt lat="44.004" lon="7.18675">
        <ele>881.200012207</ele>
        <time>2012-05-05T10:12:13Z</time>
      </trkpt>
      <trkpt lat="44.004" lon="7.18674">
        <ele>879.599975586</ele>
        <time>2012-05-05T10:12:18Z</time>
      </trkpt>
      <trkpt lat="44.004" lon="7.18674">
        <ele>879.599975586</ele>
        <time>2012-05-05T10:12:20Z</time>
      </trkpt>
      <trkpt lat="44.004" lon="7.18674">
        <ele>879.599975586</ele>
        <time>2012-05-05T10:12:22Z</time>
      </trkpt>
      <trkpt lat="44.004" lon="7.18674">
        <ele>879.599975586</ele>
        <time>2012-05-05T10:12:26Z</time>
      </trkpt>
      <trkpt lat="44.00401" lon="7.18674">
        <ele>879.599975586</ele>
        <time>2012-05-05T10:12:29Z</time>
      </trkpt>
      <trkpt lat="44.00401" lon="7.18674">
        <ele>879.599975586</ele>
        <time>2012-05-05T10:12:37Z</time>
      </trkpt>
      <trkpt lat="44.00401" lon="7.18674">
        <ele>879.599975586</ele>
        <time>2012-05-05T10:12:43Z</time>
      </trkpt>
      <trkpt lat="44.00401" lon="7.18674">
        <ele>879.599975586</ele>
        <time>2012-05-05T10:12:47Z</time>
      </trkpt>
      <trkpt lat="44.00401" lon="7.18675">
        <ele>879.599975586</ele>
        <time>2012-05-05T10:13:00Z</time>
      </trkpt>
      <trkpt lat="44.00401" lon="7.18675">
        <ele>879.599975586</ele>
        <time>2012-05-05T10:13:01Z</time>
      </trkpt>
      <trkpt lat="44.00401" lon="7.18676">
        <ele>879.599975586</ele>
        <time>2012-05-05T10:13:14Z</time>
      </trkpt>
      <trkpt lat="44.00401" lon="7.18677">
        <ele>879.599975586</ele>
        <time>2012-05-05T10:13:39Z</time>
      </trkpt>
      <trkpt lat="44.00401" lon="7.18678">
        <ele>879.599975586</ele>
        <time>2012-05-05T10:13:46Z</time>
      </trkpt>
      <trkpt lat="44.00401" lon="7.18679">
        <ele>879.599975586</ele>
        <time>2012-05-05T10:13:53Z</time>
      </trkpt>
      <trkpt lat="44.00401" lon="7.18679">
        <ele>879.599975586</ele>
        <time>2012-05-05T10:13:54Z</time>
      </trkpt>
      <trkpt lat="44.00401" lon="7.18679">
        <ele>879.599975586</ele>
        <time>2012-05-05T10:14:01Z</time>
      </trkpt>
      <trkpt lat="44.00401" lon="7.1868">
        <ele>879.599975586</ele>
        <time>2012-05-05T10:14:11Z</time>
      </trkpt>
      <trkpt lat="44.00401" lon="7.1868">
        <ele>879.599975586</ele>
        <time>2012-05-05T10:14:15Z</time>
      </trkpt>
      <trkpt lat="44.00401" lon="7.1868">
        <ele>879.599975586</ele>
        <time>2012-05-05T10:14:18Z</time>
      </trkpt>
      <trkpt lat="44.00402" lon="7.18683">
        <ele>879.599975586</ele>
        <time>2012-05-05T10:14:24Z</time>
      </trkpt>
      <trkpt lat="44.00402" lon="7.18683">
        <ele>879.599975586</ele>
        <time>2012-05-05T10:14:25Z</time>
      </trkpt>
      <trkpt lat="44.00403" lon="7.18691">
        <ele>879.599975586</ele>
        <time>2012-05-05T10:14:30Z</time>
      </trkpt>
      <trkpt lat="44.00401" lon="7.18703">
        <ele>882.599975586</ele>
        <time>2012-05-05T10:14:39Z</time>
      </trkpt>
      <trkpt lat="44.00401" lon="7.18704">
        <ele>882.599975586</ele>
        <time>2012-05-05T10:14:46Z</time>
      </trkpt>
      <trkpt lat="44.00402" lon="7.18704">
        <ele>882.599975586</ele>
        <time>2012-05-05T10:14:50Z</time>
      </trkpt>
      <trkpt lat="44.00402" lon="7.18704">
        <ele>882.599975586</ele>
        <time>2012-05-05T10:14:55Z</time>
      </trkpt>
      <trkpt lat="44.00402" lon="7.18704">
        <ele>882.599975586</ele>
        <time>2012-05-05T10:14:59Z</time>
      </trkpt>
      <trkpt lat="44.00403" lon="7.18705">
        <ele>882.599975586</ele>
        <time>2012-05-05T10:15:11Z</time>
      </trkpt>
      <trkpt lat="44.00404" lon="7.18706">
        <ele>882.599975586</ele>
        <time>2012-05-05T10:15:21Z</time>
      </trkpt>
      <trkpt lat="44.00405" lon="7.18706">
        <ele>882.599975586</ele>
        <time>2012-05-05T10:15:33Z</time>
      </trkpt>
      <trkpt lat="44.00405" lon="7.18707">
        <ele>882.599975586</ele>
        <time>2012-05-05T10:15:38Z</time>
      </trkpt>
      <trkpt lat="44.00405" lon="7.18707">
        <ele>882.599975586</ele>
        <time>2012-05-05T10:15:42Z</time>
      </trkpt>
      <trkpt lat="44.00406" lon="7.18707">
        <ele>882.599975586</ele>
        <time>2012-05-05T10:15:55Z</time>
      </trkpt>
      <trkpt lat="44.00406" lon="7.18708">
        <ele>882.599975586</ele>
        <time>2012-05-05T10:16:00Z</time>
      </trkpt>
      <trkpt lat="44.00405" lon="7.18709">
        <ele>882.599975586</ele>
        <time>2012-05-05T10:16:09Z</time>
      </trkpt>
      <trkpt lat="44.00405" lon="7.18709">
        <ele>882.599975586</ele>
        <time>2012-05-05T10:16:14Z</time>
      </trkpt>
      <trkpt lat="44.00404" lon="7.1871">
        <ele>882.599975586</ele>
        <time>2012-05-05T10:16:21Z</time>
      </trkpt>
      <trkpt lat="44.00405" lon="7.18711">
        <ele>882.599975586</ele>
        <time>2012-05-05T10:16:24Z</time>
      </trkpt>
      <trkpt lat="44.00405" lon="7.18711">
        <ele>882.599975586</ele>
        <time>2012-05-05T10:16:28Z</time>
      </trkpt>
      <trkpt lat="44.00406" lon="7.1871">
        <ele>882.599975586</ele>
        <time>2012-05-05T10:16:34Z</time>
      </trkpt>
      <trkpt lat="44.00405" lon="7.18711">
        <ele>882.599975586</ele>
        <time>2012-05-05T10:16:40Z</time>
      </trkpt>
      <trkpt lat="44.00404" lon="7.18714">
        <ele>882.599975586</ele>
        <time>2012-05-05T10:16:48Z</time>
      </trkpt>
      <trkpt lat="44.00404" lon="7.18713">
        <ele>882.599975586</ele>
        <time>2012-05-05T10:16:53Z</time>
      </trkpt>
      <trkpt lat="44.00405" lon="7.18714">
        <ele>882.599975586</ele>
        <time>2012-05-05T10:17:00Z</time>
      </trkpt>
      <trkpt lat="44.00404" lon="7.18716">
        <ele>882.599975586</ele>
        <time>2012-05-05T10:17:02Z</time>
      </trkpt>
      <trkpt lat="44.00404" lon="7.18722">
        <ele>882.599975586</ele>
        <time>2012-05-05T10:17:05Z</time>
      </trkpt>
      <trkpt lat="44.00403" lon="7.18731">
        <ele>882.599975586</ele>
        <time>2012-05-05T10:17:09Z</time>
      </trkpt>
      <trkpt lat="44.00403" lon="7.18734">
        <ele>883.599975586</ele>
        <time>2012-05-05T10:17:10Z</time>
      </trkpt>
      <trkpt lat="44.00403" lon="7.18742">
        <ele>883.599975586</ele>
        <time>2012-05-05T10:17:12Z</time>
      </trkpt>
      <trkpt lat="44.00405" lon="7.1875">
        <ele>883.599975586</ele>
        <time>2012-05-05T10:17:14Z</time>
      </trkpt>
      <trkpt lat="44.00406" lon="7.18753">
        <ele>884.599975586</ele>
        <time>2012-05-05T10:17:15Z</time>
      </trkpt>
      <trkpt lat="44.00409" lon="7.18757">
        <ele>884.599975586</ele>
        <time>2012-05-05T10:17:16Z</time>
      </trkpt>
      <trkpt lat="44.00413" lon="7.1877">
        <ele>885.799987793</ele>
        <time>2012-05-05T10:17:21Z</time>
      </trkpt>
      <trkpt lat="44.00412" lon="7.18773">
        <ele>885.799987793</ele>
        <time>2012-05-05T10:17:22Z</time>
      </trkpt>
      <trkpt lat="44.00412" lon="7.18786">
        <ele>886.799987793</ele>
        <time>2012-05-05T10:17:25Z</time>
      </trkpt>
      <trkpt lat="44.00413" lon="7.18791">
        <ele>886.799987793</ele>
        <time>2012-05-05T10:17:26Z</time>
      </trkpt>
      <trkpt lat="44.00413" lon="7.1881">
        <ele>887.799987793</ele>
        <time>2012-05-05T10:17:30Z</time>
      </trkpt>
      <trkpt lat="44.00414" lon="7.18815">
        <ele>887.799987793</ele>
        <time>2012-05-05T10:17:31Z</time>
      </trkpt>
      <trkpt lat="44.00416" lon="7.18823">
        <ele>887.799987793</ele>
        <time>2012-05-05T10:17:33Z</time>
      </trkpt>
      <trkpt lat="44.00418" lon="7.18827">
        <ele>888.799987793</ele>
        <time>2012-05-05T10:17:34Z</time>
      </trkpt>
      <trkpt lat="44.0042" lon="7.1883">
        <ele>888.799987793</ele>
        <time>2012-05-05T10:17:35Z</time>
      </trkpt>
      <trkpt lat="44.00421" lon="7.18847">
        <ele>888.799987793</ele>
        <time>2012-05-05T10:17:39Z</time>
      </trkpt>
      <trkpt lat="44.00415" lon="7.18862">
        <ele>888.799987793</ele>
        <time>2012-05-05T10:17:43Z</time>
      </trkpt>
      <trkpt lat="44.00413" lon="7.18875">
        <ele>890</ele>
        <time>2012-05-05T10:17:46Z</time>
      </trkpt>
      <trkpt lat="44.00414" lon="7.18885">
        <ele>890</ele>
        <time>2012-05-05T10:17:48Z</time>
      </trkpt>
      <trkpt lat="44.00418" lon="7.18902">
        <ele>890</ele>
        <time>2012-05-05T10:17:52Z</time>
      </trkpt>
      <trkpt lat="44.00418" lon="7.18907">
        <ele>890</ele>
        <time>2012-05-05T10:17:53Z</time>
      </trkpt>
      <trkpt lat="44.00423" lon="7.18932">
        <ele>890</ele>
        <time>2012-05-05T10:17:59Z</time>
      </trkpt>
      <trkpt lat="44.00427" lon="7.18957">
        <ele>890</ele>
        <time>2012-05-05T10:18:05Z</time>
      </trkpt>
      <trkpt lat="44.00435" lon="7.18963">
        <ele>891</ele>
        <time>2012-05-05T10:18:08Z</time>
      </trkpt>
      <trkpt lat="44.00438" lon="7.18964">
        <ele>891</ele>
        <time>2012-05-05T10:18:09Z</time>
      </trkpt>
      <trkpt lat="44.0046" lon="7.18966">
        <ele>891</ele>
        <time>2012-05-05T10:18:15Z</time>
      </trkpt>
      <trkpt lat="44.00468" lon="7.18963">
        <ele>891</ele>
        <time>2012-05-05T10:18:17Z</time>
      </trkpt>
      <trkpt lat="44.00477" lon="7.18962">
        <ele>891</ele>
        <time>2012-05-05T10:18:19Z</time>
      </trkpt>
      <trkpt lat="44.00481" lon="7.18961">
        <ele>891</ele>
        <time>2012-05-05T10:18:20Z</time>
      </trkpt>
      <trkpt lat="44.00493" lon="7.1896">
        <ele>891</ele>
        <time>2012-05-05T10:18:23Z</time>
      </trkpt>
      <trkpt lat="44.00498" lon="7.18962">
        <ele>891</ele>
        <time>2012-05-05T10:18:25Z</time>
      </trkpt>
      <trkpt lat="44.00508" lon="7.18976">
        <ele>891</ele>
        <time>2012-05-05T10:18:29Z</time>
      </trkpt>
      <trkpt lat="44.00511" lon="7.18987">
        <ele>892</ele>
        <time>2012-05-05T10:18:31Z</time>
      </trkpt>
      <trkpt lat="44.00513" lon="7.18997">
        <ele>893.200012207</ele>
        <time>2012-05-05T10:18:33Z</time>
      </trkpt>
      <trkpt lat="44.00514" lon="7.19007">
        <ele>894.200012207</ele>
        <time>2012-05-05T10:18:37Z</time>
      </trkpt>
      <trkpt lat="44.00515" lon="7.19018">
        <ele>895.400024414</ele>
        <time>2012-05-05T10:18:40Z</time>
      </trkpt>
      <trkpt lat="44.00516" lon="7.19028">
        <ele>895.400024414</ele>
        <time>2012-05-05T10:18:42Z</time>
      </trkpt>
      <trkpt lat="44.00517" lon="7.19035">
        <ele>896.599975586</ele>
        <time>2012-05-05T10:18:44Z</time>
      </trkpt>
      <trkpt lat="44.00525" lon="7.19048">
        <ele>896.599975586</ele>
        <time>2012-05-05T10:18:49Z</time>
      </trkpt>
      <trkpt lat="44.00527" lon="7.1905">
        <ele>897.599975586</ele>
        <time>2012-05-05T10:18:50Z</time>
      </trkpt>
      <trkpt lat="44.00533" lon="7.19052">
        <ele>898.599975586</ele>
        <time>2012-05-05T10:18:52Z</time>
      </trkpt>
      <trkpt lat="44.0054" lon="7.19051">
        <ele>898.599975586</ele>
        <time>2012-05-05T10:18:54Z</time>
      </trkpt>
      <trkpt lat="44.00546" lon="7.19051">
        <ele>899.599975586</ele>
        <time>2012-05-05T10:18:57Z</time>
      </trkpt>
      <trkpt lat="44.00553" lon="7.19051">
        <ele>899.599975586</ele>
        <time>2012-05-05T10:18:59Z</time>
      </trkpt>
      <trkpt lat="44.00559" lon="7.1905">
        <ele>900.799987793</ele>
        <time>2012-05-05T10:19:01Z</time>
      </trkpt>
      <trkpt lat="44.00568" lon="7.1905">
        <ele>901.799987793</ele>
        <time>2012-05-05T10:19:04Z</time>
      </trkpt>
      <trkpt lat="44.00571" lon="7.19051">
        <ele>901.799987793</ele>
        <time>2012-05-05T10:19:05Z</time>
      </trkpt>
      <trkpt lat="44.00586" lon="7.19057">
        <ele>902.799987793</ele>
        <time>2012-05-05T10:19:10Z</time>
      </trkpt>
      <trkpt lat="44.00591" lon="7.19062">
        <ele>902.799987793</ele>
        <time>2012-05-05T10:19:12Z</time>
      </trkpt>
      <trkpt lat="44.00592" lon="7.19065">
        <ele>904</ele>
        <time>2012-05-05T10:19:13Z</time>
      </trkpt>
      <trkpt lat="44.00593" lon="7.19069">
        <ele>904</ele>
        <time>2012-05-05T10:19:14Z</time>
      </trkpt>
      <trkpt lat="44.00596" lon="7.19079">
        <ele>904</ele>
        <time>2012-05-05T10:19:16Z</time>
      </trkpt>
      <trkpt lat="44.00597" lon="7.19084">
        <ele>905</ele>
        <time>2012-05-05T10:19:17Z</time>
      </trkpt>
      <trkpt lat="44.00607" lon="7.19092">
        <ele>905</ele>
        <time>2012-05-05T10:19:21Z</time>
      </trkpt>
      <trkpt lat="44.00615" lon="7.1909">
        <ele>906</ele>
        <time>2012-05-05T10:19:24Z</time>
      </trkpt>
      <trkpt lat="44.00621" lon="7.19091">
        <ele>906</ele>
        <time>2012-05-05T10:19:26Z</time>
      </trkpt>
      <trkpt lat="44.00623" lon="7.19094">
        <ele>907.200012207</ele>
        <time>2012-05-05T10:19:27Z</time>
      </trkpt>
      <trkpt lat="44.00627" lon="7.19103">
        <ele>907.200012207</ele>
        <time>2012-05-05T10:19:30Z</time>
      </trkpt>
      <trkpt lat="44.00629" lon="7.19109">
        <ele>907.200012207</ele>
        <time>2012-05-05T10:19:32Z</time>
      </trkpt>
      <trkpt lat="44.00631" lon="7.19115">
        <ele>908.200012207</ele>
        <time>2012-05-05T10:19:34Z</time>
      </trkpt>
      <trkpt lat="44.00633" lon="7.19123">
        <ele>908.200012207</ele>
        <time>2012-05-05T10:19:36Z</time>
      </trkpt>
      <trkpt lat="44.00635" lon="7.19129">
        <ele>909.200012207</ele>
        <time>2012-05-05T10:19:38Z</time>
      </trkpt>
      <trkpt lat="44.00638" lon="7.19145">
        <ele>909.200012207</ele>
        <time>2012-05-05T10:19:42Z</time>
      </trkpt>
      <trkpt lat="44.00638" lon="7.19149">
        <ele>910.400024414</ele>
        <time>2012-05-05T10:19:43Z</time>
      </trkpt>
      <trkpt lat="44.00641" lon="7.1916">
        <ele>911.400024414</ele>
        <time>2012-05-05T10:19:46Z</time>
      </trkpt>
      <trkpt lat="44.00644" lon="7.19168">
        <ele>911.400024414</ele>
        <time>2012-05-05T10:19:48Z</time>
      </trkpt>
      <trkpt lat="44.00646" lon="7.19171">
        <ele>911.400024414</ele>
        <time>2012-05-05T10:19:49Z</time>
      </trkpt>
      <trkpt lat="44.00649" lon="7.19174">
        <ele>912.400024414</ele>
        <time>2012-05-05T10:19:50Z</time>
      </trkpt>
      <trkpt lat="44.00657" lon="7.1918">
        <ele>913.400024414</ele>
        <time>2012-05-05T10:19:53Z</time>
      </trkpt>
      <trkpt lat="44.0066" lon="7.1918">
        <ele>913.400024414</ele>
        <time>2012-05-05T10:19:54Z</time>
      </trkpt>
      <trkpt lat="44.00673" lon="7.19186">
        <ele>914.599975586</ele>
        <time>2012-05-05T10:19:58Z</time>
      </trkpt>
      <trkpt lat="44.00677" lon="7.19187">
        <ele>914.599975586</ele>
        <time>2012-05-05T10:19:59Z</time>
      </trkpt>
      <trkpt lat="44.0069" lon="7.19192">
        <ele>915.599975586</ele>
        <time>2012-05-05T10:20:03Z</time>
      </trkpt>
      <trkpt lat="44.00693" lon="7.19193">
        <ele>915.599975586</ele>
        <time>2012-05-05T10:20:04Z</time>
      </trkpt>
      <trkpt lat="44.00703" lon="7.19194">
        <ele>916.799987793</ele>
        <time>2012-05-05T10:20:07Z</time>
      </trkpt>
      <trkpt lat="44.00712" lon="7.19201">
        <ele>916.799987793</ele>
        <time>2012-05-05T10:20:10Z</time>
      </trkpt>
      <trkpt lat="44.00716" lon="7.19216">
        <ele>917.799987793</ele>
        <time>2012-05-05T10:20:14Z</time>
      </trkpt>
      <trkpt lat="44.00714" lon="7.1923">
        <ele>918.799987793</ele>
        <time>2012-05-05T10:20:17Z</time>
      </trkpt>
      <trkpt lat="44.00713" lon="7.1925">
        <ele>920</ele>
        <time>2012-05-05T10:20:21Z</time>
      </trkpt>
      <trkpt lat="44.00718" lon="7.19267">
        <ele>920</ele>
        <time>2012-05-05T10:20:25Z</time>
      </trkpt>
      <trkpt lat="44.00722" lon="7.1927">
        <ele>921</ele>
        <time>2012-05-05T10:20:26Z</time>
      </trkpt>
      <trkpt lat="44.00725" lon="7.19271">
        <ele>921</ele>
        <time>2012-05-05T10:20:27Z</time>
      </trkpt>
      <trkpt lat="44.00729" lon="7.1927">
        <ele>921</ele>
        <time>2012-05-05T10:20:28Z</time>
      </trkpt>
      <trkpt lat="44.0074" lon="7.19267">
        <ele>922</ele>
        <time>2012-05-05T10:20:31Z</time>
      </trkpt>
      <trkpt lat="44.00744" lon="7.19265">
        <ele>922</ele>
        <time>2012-05-05T10:20:32Z</time>
      </trkpt>
      <trkpt lat="44.00767" lon="7.19255">
        <ele>923</ele>
        <time>2012-05-05T10:20:38Z</time>
      </trkpt>
      <trkpt lat="44.00784" lon="7.19247">
        <ele>924</ele>
        <time>2012-05-05T10:20:42Z</time>
      </trkpt>
      <trkpt lat="44.00793" lon="7.19245">
        <ele>924</ele>
        <time>2012-05-05T10:20:44Z</time>
      </trkpt>
      <trkpt lat="44.00796" lon="7.19246">
        <ele>924</ele>
        <time>2012-05-05T10:20:45Z</time>
      </trkpt>
      <trkpt lat="44.00815" lon="7.19251">
        <ele>925.200012207</ele>
        <time>2012-05-05T10:20:49Z</time>
      </trkpt>
      <trkpt lat="44.0082" lon="7.19251">
        <ele>925.200012207</ele>
        <time>2012-05-05T10:20:50Z</time>
      </trkpt>
      <trkpt lat="44.00831" lon="7.19249">
        <ele>926.200012207</ele>
        <time>2012-05-05T10:20:52Z</time>
      </trkpt>
      <trkpt lat="44.00836" lon="7.1925">
        <ele>926.200012207</ele>
        <time>2012-05-05T10:20:53Z</time>
      </trkpt>
      <trkpt lat="44.00844" lon="7.19256">
        <ele>926.200012207</ele>
        <time>2012-05-05T10:20:55Z</time>
      </trkpt>
      <trkpt lat="44.00848" lon="7.1926">
        <ele>927.200012207</ele>
        <time>2012-05-05T10:20:56Z</time>
      </trkpt>
      <trkpt lat="44.00859" lon="7.19276">
        <ele>927.200012207</ele>
        <time>2012-05-05T10:20:59Z</time>
      </trkpt>
      <trkpt lat="44.00863" lon="7.19281">
        <ele>927.200012207</ele>
        <time>2012-05-05T10:21:00Z</time>
      </trkpt>
      <trkpt lat="44.00867" lon="7.19287">
        <ele>928.200012207</ele>
        <time>2012-05-05T10:21:01Z</time>
      </trkpt>
      <trkpt lat="44.00888" lon="7.19312">
        <ele>929.200012207</ele>
        <time>2012-05-05T10:21:06Z</time>
      </trkpt>
      <trkpt lat="44.00892" lon="7.19318">
        <ele>929.200012207</ele>
        <time>2012-05-05T10:21:07Z</time>
      </trkpt>
      <trkpt lat="44.00902" lon="7.19333">
        <ele>930.200012207</ele>
        <time>2012-05-05T10:21:10Z</time>
      </trkpt>
      <trkpt lat="44.00905" lon="7.19339">
        <ele>930.200012207</ele>
        <time>2012-05-05T10:21:11Z</time>
      </trkpt>
      <trkpt lat="44.00912" lon="7.19359">
        <ele>931.400024414</ele>
        <time>2012-05-05T10:21:14Z</time>
      </trkpt>
      <trkpt lat="44.0092" lon="7.19386">
        <ele>931.400024414</ele>
        <time>2012-05-05T10:21:18Z</time>
      </trkpt>
      <trkpt lat="44.00924" lon="7.19396">
        <ele>931.400024414</ele>
        <time>2012-05-05T10:21:20Z</time>
      </trkpt>
      <trkpt lat="44.00932" lon="7.19404">
        <ele>932.400024414</ele>
        <time>2012-05-05T10:21:22Z</time>
      </trkpt>
      <trkpt lat="44.00936" lon="7.19406">
        <ele>932.400024414</ele>
        <time>2012-05-05T10:21:23Z</time>
      </trkpt>
      <trkpt lat="44.00944" lon="7.19412">
        <ele>932.400024414</ele>
        <time>2012-05-05T10:21:25Z</time>
      </trkpt>
      <trkpt lat="44.00947" lon="7.19417">
        <ele>933.400024414</ele>
        <time>2012-05-05T10:21:26Z</time>
      </trkpt>
      <trkpt lat="44.00953" lon="7.19428">
        <ele>933.400024414</ele>
        <time>2012-05-05T10:21:28Z</time>
      </trkpt>
      <trkpt lat="44.00966" lon="7.1944">
        <ele>933.400024414</ele>
        <time>2012-05-05T10:21:31Z</time>
      </trkpt>
      <trkpt lat="44.0097" lon="7.19443">
        <ele>933.400024414</ele>
        <time>2012-05-05T10:21:32Z</time>
      </trkpt>
      <trkpt lat="44.00984" lon="7.19452">
        <ele>934.599975586</ele>
        <time>2012-05-05T10:21:35Z</time>
      </trkpt>
      <trkpt lat="44.00988" lon="7.19456">
        <ele>934.599975586</ele>
        <time>2012-05-05T10:21:36Z</time>
      </trkpt>
      <trkpt lat="44.00994" lon="7.19466">
        <ele>934.599975586</ele>
        <time>2012-05-05T10:21:38Z</time>
      </trkpt>
      <trkpt lat="44.00997" lon="7.1947">
        <ele>935.599975586</ele>
        <time>2012-05-05T10:21:39Z</time>
      </trkpt>
      <trkpt lat="44.01003" lon="7.19488">
        <ele>935.599975586</ele>
        <time>2012-05-05T10:21:42Z</time>
      </trkpt>
      <trkpt lat="44.01006" lon="7.19501">
        <ele>935.599975586</ele>
        <time>2012-05-05T10:21:44Z</time>
      </trkpt>
      <trkpt lat="44.01007" lon="7.19507">
        <ele>936.599975586</ele>
        <time>2012-05-05T10:21:45Z</time>
      </trkpt>
      <trkpt lat="44.0101" lon="7.19514">
        <ele>936.599975586</ele>
        <time>2012-05-05T10:21:46Z</time>
      </trkpt>
      <trkpt lat="44.01014" lon="7.19518">
        <ele>936.599975586</ele>
        <time>2012-05-05T10:21:47Z</time>
      </trkpt>
      <trkpt lat="44.01026" lon="7.19526">
        <ele>937.599975586</ele>
        <time>2012-05-05T10:21:50Z</time>
      </trkpt>
      <trkpt lat="44.0103" lon="7.1953">
        <ele>937.599975586</ele>
        <time>2012-05-05T10:21:51Z</time>
      </trkpt>
      <trkpt lat="44.01036" lon="7.19548">
        <ele>937.599975586</ele>
        <time>2012-05-05T10:21:55Z</time>
      </trkpt>
      <trkpt lat="44.01034" lon="7.1957">
        <ele>937.599975586</ele>
        <time>2012-05-05T10:21:59Z</time>
      </trkpt>
      <trkpt lat="44.01036" lon="7.19576">
        <ele>938.599975586</ele>
        <time>2012-05-05T10:22:00Z</time>
      </trkpt>
      <trkpt lat="44.01043" lon="7.19583">
        <ele>938.599975586</ele>
        <time>2012-05-05T10:22:02Z</time>
      </trkpt>
      <trkpt lat="44.01055" lon="7.19589">
        <ele>939.799987793</ele>
        <time>2012-05-05T10:22:05Z</time>
      </trkpt>
      <trkpt lat="44.01058" lon="7.19593">
        <ele>939.799987793</ele>
        <time>2012-05-05T10:22:06Z</time>
      </trkpt>
      <trkpt lat="44.01068" lon="7.19614">
        <ele>939.799987793</ele>
        <time>2012-05-05T10:22:10Z</time>
      </trkpt>
      <trkpt lat="44.01071" lon="7.1962">
        <ele>941</ele>
        <time>2012-05-05T10:22:11Z</time>
      </trkpt>
      <trkpt lat="44.01073" lon="7.19626">
        <ele>941</ele>
        <time>2012-05-05T10:22:12Z</time>
      </trkpt>
      <trkpt lat="44.01073" lon="7.19644">
        <ele>941</ele>
        <time>2012-05-05T10:22:15Z</time>
      </trkpt>
      <trkpt lat="44.01072" lon="7.19649">
        <ele>942.200012207</ele>
        <time>2012-05-05T10:22:16Z</time>
      </trkpt>
      <trkpt lat="44.01071" lon="7.19666">
        <ele>942.200012207</ele>
        <time>2012-05-05T10:22:19Z</time>
      </trkpt>
      <trkpt lat="44.01077" lon="7.19671">
        <ele>943.200012207</ele>
        <time>2012-05-05T10:22:21Z</time>
      </trkpt>
      <trkpt lat="44.0108" lon="7.19675">
        <ele>943.200012207</ele>
        <time>2012-05-05T10:22:22Z</time>
      </trkpt>
      <trkpt lat="44.01082" lon="7.19677">
        <ele>943.200012207</ele>
        <time>2012-05-05T10:22:23Z</time>
      </trkpt>
      <trkpt lat="44.01089" lon="7.19686">
        <ele>943.200012207</ele>
        <time>2012-05-05T10:22:26Z</time>
      </trkpt>
      <trkpt lat="44.01089" lon="7.19694">
        <ele>944.400024414</ele>
        <time>2012-05-05T10:22:28Z</time>
      </trkpt>
      <trkpt lat="44.0109" lon="7.19705">
        <ele>944.400024414</ele>
        <time>2012-05-05T10:22:30Z</time>
      </trkpt>
      <trkpt lat="44.011" lon="7.19725">
        <ele>944.400024414</ele>
        <time>2012-05-05T10:22:34Z</time>
      </trkpt>
      <trkpt lat="44.01101" lon="7.19729">
        <ele>945.400024414</ele>
        <time>2012-05-05T10:22:35Z</time>
      </trkpt>
      <trkpt lat="44.01099" lon="7.19741">
        <ele>945.400024414</ele>
        <time>2012-05-05T10:22:38Z</time>
      </trkpt>
      <trkpt lat="44.01098" lon="7.19745">
        <ele>946.400024414</ele>
        <time>2012-05-05T10:22:39Z</time>
      </trkpt>
      <trkpt lat="44.01096" lon="7.19759">
        <ele>947.599975586</ele>
        <time>2012-05-05T10:22:42Z</time>
      </trkpt>
      <trkpt lat="44.01095" lon="7.19764">
        <ele>947.599975586</ele>
        <time>2012-05-05T10:22:43Z</time>
      </trkpt>
      <trkpt lat="44.01094" lon="7.19778">
        <ele>948.599975586</ele>
        <time>2012-05-05T10:22:46Z</time>
      </trkpt>
      <trkpt lat="44.01093" lon="7.19782">
        <ele>948.599975586</ele>
        <time>2012-05-05T10:22:47Z</time>
      </trkpt>
      <trkpt lat="44.0109" lon="7.19791">
        <ele>949.599975586</ele>
        <time>2012-05-05T10:22:49Z</time>
      </trkpt>
      <trkpt lat="44.01084" lon="7.19801">
        <ele>950.799987793</ele>
        <time>2012-05-05T10:22:52Z</time>
      </trkpt>
      <trkpt lat="44.0108" lon="7.19808">
        <ele>951.799987793</ele>
        <time>2012-05-05T10:22:54Z</time>
      </trkpt>
      <trkpt lat="44.01073" lon="7.19824">
        <ele>952.799987793</ele>
        <time>2012-05-05T10:22:58Z</time>
      </trkpt>
      <trkpt lat="44.01067" lon="7.19852">
        <ele>953.799987793</ele>
        <time>2012-05-05T10:23:04Z</time>
      </trkpt>
      <trkpt lat="44.01065" lon="7.19856">
        <ele>953.799987793</ele>
        <time>2012-05-05T10:23:05Z</time>
      </trkpt>
      <trkpt lat="44.01061" lon="7.1987">
        <ele>954.799987793</ele>
        <time>2012-05-05T10:23:08Z</time>
      </trkpt>
      <trkpt lat="44.01053" lon="7.1989">
        <ele>956</ele>
        <time>2012-05-05T10:23:12Z</time>
      </trkpt>
      <trkpt lat="44.01042" lon="7.19904">
        <ele>957</ele>
        <time>2012-05-05T10:23:16Z</time>
      </trkpt>
      <trkpt lat="44.0104" lon="7.19907">
        <ele>957</ele>
        <time>2012-05-05T10:23:17Z</time>
      </trkpt>
      <trkpt lat="44.01035" lon="7.19914">
        <ele>958.200012207</ele>
        <time>2012-05-05T10:23:19Z</time>
      </trkpt>
      <trkpt lat="44.01028" lon="7.1993">
        <ele>958.200012207</ele>
        <time>2012-05-05T10:23:23Z</time>
      </trkpt>
      <trkpt lat="44.01026" lon="7.19935">
        <ele>959.200012207</ele>
        <time>2012-05-05T10:23:24Z</time>
      </trkpt>
      <trkpt lat="44.01018" lon="7.19956">
        <ele>960.200012207</ele>
        <time>2012-05-05T10:23:28Z</time>
      </trkpt>
      <trkpt lat="44.01016" lon="7.1996">
        <ele>960.200012207</ele>
        <time>2012-05-05T10:23:29Z</time>
      </trkpt>
      <trkpt lat="44.01006" lon="7.19985">
        <ele>960.200012207</ele>
        <time>2012-05-05T10:23:35Z</time>
      </trkpt>
      <trkpt lat="44.01012" lon="7.19996">
        <ele>960.200012207</ele>
        <time>2012-05-05T10:23:39Z</time>
      </trkpt>
      <trkpt lat="44.0102" lon="7.19996">
        <ele>961.200012207</ele>
        <time>2012-05-05T10:23:43Z</time>
      </trkpt>
      <trkpt lat="44.01026" lon="7.19991">
        <ele>961.200012207</ele>
        <time>2012-05-05T10:23:45Z</time>
      </trkpt>
      <trkpt lat="44.01035" lon="7.19985">
        <ele>961.200012207</ele>
        <time>2012-05-05T10:23:48Z</time>
      </trkpt>
      <trkpt lat="44.01038" lon="7.19982">
        <ele>962.599975586</ele>
        <time>2012-05-05T10:23:49Z</time>
      </trkpt>
      <trkpt lat="44.01049" lon="7.19975">
        <ele>963.599975586</ele>
        <time>2012-05-05T10:23:52Z</time>
      </trkpt>
      <trkpt lat="44.01056" lon="7.19971">
        <ele>963.599975586</ele>
        <time>2012-05-05T10:23:54Z</time>
      </trkpt>
      <trkpt lat="44.01061" lon="7.19969">
        <ele>964.799987793</ele>
        <time>2012-05-05T10:23:55Z</time>
      </trkpt>
      <trkpt lat="44.0107" lon="7.1996">
        <ele>965.799987793</ele>
        <time>2012-05-05T10:23:58Z</time>
      </trkpt>
      <trkpt lat="44.01074" lon="7.19956">
        <ele>965.799987793</ele>
        <time>2012-05-05T10:23:59Z</time>
      </trkpt>
      <trkpt lat="44.01085" lon="7.19948">
        <ele>967.200012207</ele>
        <time>2012-05-05T10:24:02Z</time>
      </trkpt>
      <trkpt lat="44.01093" lon="7.19941">
        <ele>967.200012207</ele>
        <time>2012-05-05T10:24:04Z</time>
      </trkpt>
      <trkpt lat="44.01097" lon="7.19937">
        <ele>968.200012207</ele>
        <time>2012-05-05T10:24:05Z</time>
      </trkpt>
      <trkpt lat="44.01102" lon="7.19933">
        <ele>968.200012207</ele>
        <time>2012-05-05T10:24:06Z</time>
      </trkpt>
      <trkpt lat="44.0111" lon="7.19926">
        <ele>969.200012207</ele>
        <time>2012-05-05T10:24:08Z</time>
      </trkpt>
      <trkpt lat="44.01118" lon="7.19919">
        <ele>969.200012207</ele>
        <time>2012-05-05T10:24:10Z</time>
      </trkpt>
      <trkpt lat="44.01122" lon="7.19915">
        <ele>970.200012207</ele>
        <time>2012-05-05T10:24:11Z</time>
      </trkpt>
      <trkpt lat="44.01129" lon="7.19907">
        <ele>970.200012207</ele>
        <time>2012-05-05T10:24:13Z</time>
      </trkpt>
      <trkpt lat="44.0114" lon="7.19895">
        <ele>970.200012207</ele>
        <time>2012-05-05T10:24:16Z</time>
      </trkpt>
      <trkpt lat="44.01144" lon="7.19891">
        <ele>971.400024414</ele>
        <time>2012-05-05T10:24:17Z</time>
      </trkpt>
      <trkpt lat="44.01154" lon="7.19877">
        <ele>972.400024414</ele>
        <time>2012-05-05T10:24:20Z</time>
      </trkpt>
      <trkpt lat="44.01161" lon="7.19866">
        <ele>972.400024414</ele>
        <time>2012-05-05T10:24:22Z</time>
      </trkpt>
      <trkpt lat="44.01175" lon="7.19846">
        <ele>973.400024414</ele>
        <time>2012-05-05T10:24:26Z</time>
      </trkpt>
      <trkpt lat="44.01182" lon="7.1984">
        <ele>973.400024414</ele>
        <time>2012-05-05T10:24:28Z</time>
      </trkpt>
      <trkpt lat="44.0119" lon="7.19836">
        <ele>974.400024414</ele>
        <time>2012-05-05T10:24:30Z</time>
      </trkpt>
      <trkpt lat="44.01198" lon="7.19834">
        <ele>974.400024414</ele>
        <time>2012-05-05T10:24:32Z</time>
      </trkpt>
      <trkpt lat="44.01201" lon="7.19833">
        <ele>974.400024414</ele>
        <time>2012-05-05T10:24:33Z</time>
      </trkpt>
      <trkpt lat="44.01205" lon="7.19833">
        <ele>975.599975586</ele>
        <time>2012-05-05T10:24:34Z</time>
      </trkpt>
      <trkpt lat="44.0122" lon="7.19833">
        <ele>976.599975586</ele>
        <time>2012-05-05T10:24:38Z</time>
      </trkpt>
      <trkpt lat="44.01223" lon="7.19834">
        <ele>976.599975586</ele>
        <time>2012-05-05T10:24:39Z</time>
      </trkpt>
      <trkpt lat="44.01226" lon="7.19835">
        <ele>976.599975586</ele>
        <time>2012-05-05T10:24:40Z</time>
      </trkpt>
      <trkpt lat="44.01238" lon="7.19838">
        <ele>977.599975586</ele>
        <time>2012-05-05T10:24:44Z</time>
      </trkpt>
      <trkpt lat="44.01246" lon="7.1984">
        <ele>977.599975586</ele>
        <time>2012-05-05T10:24:46Z</time>
      </trkpt>
      <trkpt lat="44.01253" lon="7.19841">
        <ele>978.599975586</ele>
        <time>2012-05-05T10:24:48Z</time>
      </trkpt>
      <trkpt lat="44.01268" lon="7.19842">
        <ele>979.599975586</ele>
        <time>2012-05-05T10:24:52Z</time>
      </trkpt>
      <trkpt lat="44.01272" lon="7.19842">
        <ele>979.599975586</ele>
        <time>2012-05-05T10:24:53Z</time>
      </trkpt>
      <trkpt lat="44.01276" lon="7.19842">
        <ele>980.799987793</ele>
        <time>2012-05-05T10:24:54Z</time>
      </trkpt>
      <trkpt lat="44.01294" lon="7.19844">
        <ele>981.799987793</ele>
        <time>2012-05-05T10:24:59Z</time>
      </trkpt>
      <trkpt lat="44.01297" lon="7.19846">
        <ele>981.799987793</ele>
        <time>2012-05-05T10:25:00Z</time>
      </trkpt>
      <trkpt lat="44.01306" lon="7.19853">
        <ele>982.799987793</ele>
        <time>2012-05-05T10:25:03Z</time>
      </trkpt>
      <trkpt lat="44.01314" lon="7.19863">
        <ele>982.799987793</ele>
        <time>2012-05-05T10:25:06Z</time>
      </trkpt>
      <trkpt lat="44.01318" lon="7.19872">
        <ele>983.799987793</ele>
        <time>2012-05-05T10:25:08Z</time>
      </trkpt>
      <trkpt lat="44.01325" lon="7.19885">
        <ele>984.799987793</ele>
        <time>2012-05-05T10:25:11Z</time>
      </trkpt>
      <trkpt lat="44.01328" lon="7.19889">
        <ele>984.799987793</ele>
        <time>2012-05-05T10:25:12Z</time>
      </trkpt>
      <trkpt lat="44.0134" lon="7.19902">
        <ele>986</ele>
        <time>2012-05-05T10:25:16Z</time>
      </trkpt>
      <trkpt lat="44.01347" lon="7.19907">
        <ele>986</ele>
        <time>2012-05-05T10:25:18Z</time>
      </trkpt>
      <trkpt lat="44.0135" lon="7.19909">
        <ele>987</ele>
        <time>2012-05-05T10:25:19Z</time>
      </trkpt>
      <trkpt lat="44.01363" lon="7.19921">
        <ele>987</ele>
        <time>2012-05-05T10:25:23Z</time>
      </trkpt>
      <trkpt lat="44.01368" lon="7.19928">
        <ele>988.200012207</ele>
        <time>2012-05-05T10:25:25Z</time>
      </trkpt>
      <trkpt lat="44.01376" lon="7.19942">
        <ele>989.400024414</ele>
        <time>2012-05-05T10:25:28Z</time>
      </trkpt>
      <trkpt lat="44.01381" lon="7.19957">
        <ele>989.400024414</ele>
        <time>2012-05-05T10:25:31Z</time>
      </trkpt>
      <trkpt lat="44.01383" lon="7.19967">
        <ele>990.400024414</ele>
        <time>2012-05-05T10:25:33Z</time>
      </trkpt>
      <trkpt lat="44.01386" lon="7.19979">
        <ele>990.400024414</ele>
        <time>2012-05-05T10:25:35Z</time>
      </trkpt>
      <trkpt lat="44.01388" lon="7.19985">
        <ele>991.400024414</ele>
        <time>2012-05-05T10:25:36Z</time>
      </trkpt>
      <trkpt lat="44.01391" lon="7.19997">
        <ele>992.599975586</ele>
        <time>2012-05-05T10:25:38Z</time>
      </trkpt>
      <trkpt lat="44.01392" lon="7.20002">
        <ele>992.599975586</ele>
        <time>2012-05-05T10:25:39Z</time>
      </trkpt>
      <trkpt lat="44.01394" lon="7.20014">
        <ele>992.599975586</ele>
        <time>2012-05-05T10:25:41Z</time>
      </trkpt>
      <trkpt lat="44.01396" lon="7.2002">
        <ele>993.799987793</ele>
        <time>2012-05-05T10:25:42Z</time>
      </trkpt>
      <trkpt lat="44.01398" lon="7.20024">
        <ele>993.799987793</ele>
        <time>2012-05-05T10:25:43Z</time>
      </trkpt>
      <trkpt lat="44.01398" lon="7.2003">
        <ele>994.799987793</ele>
        <time>2012-05-05T10:25:44Z</time>
      </trkpt>
      <trkpt lat="44.01398" lon="7.20035">
        <ele>994.799987793</ele>
        <time>2012-05-05T10:25:45Z</time>
      </trkpt>
      <trkpt lat="44.014" lon="7.20045">
        <ele>994.799987793</ele>
        <time>2012-05-05T10:25:47Z</time>
      </trkpt>
      <trkpt lat="44.01402" lon="7.2005">
        <ele>996</ele>
        <time>2012-05-05T10:25:48Z</time>
      </trkpt>
      <trkpt lat="44.01409" lon="7.2006">
        <ele>996</ele>
        <time>2012-05-05T10:25:50Z</time>
      </trkpt>
      <trkpt lat="44.01413" lon="7.20064">
        <ele>997.200012207</ele>
        <time>2012-05-05T10:25:51Z</time>
      </trkpt>
      <trkpt lat="44.01424" lon="7.20069">
        <ele>997.200012207</ele>
        <time>2012-05-05T10:25:54Z</time>
      </trkpt>
      <trkpt lat="44.01441" lon="7.20075">
        <ele>997.200012207</ele>
        <time>2012-05-05T10:26:00Z</time>
      </trkpt>
      <trkpt lat="44.01442" lon="7.20075">
        <ele>997.200012207</ele>
        <time>2012-05-05T10:26:05Z</time>
      </trkpt>
      <trkpt lat="44.01442" lon="7.20076">
        <ele>997.200012207</ele>
        <time>2012-05-05T10:26:06Z</time>
      </trkpt>
      <trkpt lat="44.01443" lon="7.20075">
        <ele>997.200012207</ele>
        <time>2012-05-05T10:26:08Z</time>
      </trkpt>
      <trkpt lat="44.01442" lon="7.20075">
        <ele>997.200012207</ele>
        <time>2012-05-05T10:26:10Z</time>
      </trkpt>
      <trkpt lat="44.01444" lon="7.20075">
        <ele>997.200012207</ele>
        <time>2012-05-05T10:26:13Z</time>
      </trkpt>
      <trkpt lat="44.01446" lon="7.20074">
        <ele>997.200012207</ele>
        <time>2012-05-05T10:26:15Z</time>
      </trkpt>
      <trkpt lat="44.01446" lon="7.20072">
        <ele>997.200012207</ele>
        <time>2012-05-05T10:26:20Z</time>
      </trkpt>
      <trkpt lat="44.01446" lon="7.20072">
        <ele>997.200012207</ele>
        <time>2012-05-05T10:26:22Z</time>
      </trkpt>
      <trkpt lat="44.01447" lon="7.20071">
        <ele>997.200012207</ele>
        <time>2012-05-05T10:26:26Z</time>
      </trkpt>
      <trkpt lat="44.01447" lon="7.20071">
        <ele>997.200012207</ele>
        <time>2012-05-05T10:26:29Z</time>
      </trkpt>
      <trkpt lat="44.01446" lon="7.20071">
        <ele>997.200012207</ele>
        <time>2012-05-05T10:26:31Z</time>
      </trkpt>
      <trkpt lat="44.01445" lon="7.20071">
        <ele>997.200012207</ele>
        <time>2012-05-05T10:26:34Z</time>
      </trkpt>
      <trkpt lat="44.01445" lon="7.20071">
        <ele>997.200012207</ele>
        <time>2012-05-05T10:26:36Z</time>
      </trkpt>
      <trkpt lat="44.01445" lon="7.20071">
        <ele>997.200012207</ele>
        <time>2012-05-05T10:26:38Z</time>
      </trkpt>
      <trkpt lat="44.01444" lon="7.2007">
        <ele>997.200012207</ele>
        <time>2012-05-05T10:26:40Z</time>
      </trkpt>
      <trkpt lat="44.01444" lon="7.2007">
        <ele>997.200012207</ele>
        <time>2012-05-05T10:26:42Z</time>
      </trkpt>
      <trkpt lat="44.01444" lon="7.2007">
        <ele>997.200012207</ele>
        <time>2012-05-05T10:26:47Z</time>
      </trkpt>
      <trkpt lat="44.01443" lon="7.2007">
        <ele>997.200012207</ele>
        <time>2012-05-05T10:26:48Z</time>
      </trkpt>
      <trkpt lat="44.01443" lon="7.20068">
        <ele>997.200012207</ele>
        <time>2012-05-05T10:26:52Z</time>
      </trkpt>
      <trkpt lat="44.01442" lon="7.20068">
        <ele>997.200012207</ele>
        <time>2012-05-05T10:26:57Z</time>
      </trkpt>
      <trkpt lat="44.01442" lon="7.20069">
        <ele>998.799987793</ele>
        <time>2012-05-05T10:26:59Z</time>
      </trkpt>
      <trkpt lat="44.01442" lon="7.20069">
        <ele>995.200012207</ele>
        <time>2012-05-05T10:27:01Z</time>
      </trkpt>
      <trkpt lat="44.01442" lon="7.20069">
        <ele>995.200012207</ele>
        <time>2012-05-05T10:27:02Z</time>
      </trkpt>
      <trkpt lat="44.01442" lon="7.20069">
        <ele>995.200012207</ele>
        <time>2012-05-05T10:27:07Z</time>
      </trkpt>
      <trkpt lat="44.01442" lon="7.20069">
        <ele>995.200012207</ele>
        <time>2012-05-05T10:27:09Z</time>
      </trkpt>
      <trkpt lat="44.01442" lon="7.20069">
        <ele>995.200012207</ele>
        <time>2012-05-05T10:27:12Z</time>
      </trkpt>
      <trkpt lat="44.01441" lon="7.2007">
        <ele>995.200012207</ele>
        <time>2012-05-05T10:27:14Z</time>
      </trkpt>
      <trkpt lat="44.0144" lon="7.20073">
        <ele>995.200012207</ele>
        <time>2012-05-05T10:27:19Z</time>
      </trkpt>
      <trkpt lat="44.01439" lon="7.20073">
        <ele>995.200012207</ele>
        <time>2012-05-05T10:27:23Z</time>
      </trkpt>
      <trkpt lat="44.0144" lon="7.20071">
        <ele>995.200012207</ele>
        <time>2012-05-05T10:27:27Z</time>
      </trkpt>
      <trkpt lat="44.0144" lon="7.20072">
        <ele>995.200012207</ele>
        <time>2012-05-05T10:27:34Z</time>
      </trkpt>
      <trkpt lat="44.01447" lon="7.20073">
        <ele>995.200012207</ele>
        <time>2012-05-05T10:27:39Z</time>
      </trkpt>
      <trkpt lat="44.01457" lon="7.20073">
        <ele>995.200012207</ele>
        <time>2012-05-05T10:27:44Z</time>
      </trkpt>
      <trkpt lat="44.0146" lon="7.20073">
        <ele>998.400024414</ele>
        <time>2012-05-05T10:27:45Z</time>
      </trkpt>
      <trkpt lat="44.01469" lon="7.20075">
        <ele>999.400024414</ele>
        <time>2012-05-05T10:27:48Z</time>
      </trkpt>
      <trkpt lat="44.01478" lon="7.20079">
        <ele>999.400024414</ele>
        <time>2012-05-05T10:27:51Z</time>
      </trkpt>
      <trkpt lat="44.01483" lon="7.20084">
        <ele>1000.599975586</ele>
        <time>2012-05-05T10:27:53Z</time>
      </trkpt>
      <trkpt lat="44.01489" lon="7.20088">
        <ele>1001.599975586</ele>
        <time>2012-05-05T10:27:55Z</time>
      </trkpt>
      <trkpt lat="44.01497" lon="7.20094">
        <ele>1001.599975586</ele>
        <time>2012-05-05T10:27:58Z</time>
      </trkpt>
      <trkpt lat="44.01499" lon="7.20097">
        <ele>1002.799987793</ele>
        <time>2012-05-05T10:27:59Z</time>
      </trkpt>
      <trkpt lat="44.01505" lon="7.201">
        <ele>1002.799987793</ele>
        <time>2012-05-05T10:28:01Z</time>
      </trkpt>
      <trkpt lat="44.01514" lon="7.20106">
        <ele>1003.799987793</ele>
        <time>2012-05-05T10:28:04Z</time>
      </trkpt>
      <trkpt lat="44.0152" lon="7.20112">
        <ele>1005</ele>
        <time>2012-05-05T10:28:06Z</time>
      </trkpt>
      <trkpt lat="44.01527" lon="7.20121">
        <ele>1006.200012207</ele>
        <time>2012-05-05T10:28:09Z</time>
      </trkpt>
      <trkpt lat="44.01528" lon="7.20124">
        <ele>1006.200012207</ele>
        <time>2012-05-05T10:28:10Z</time>
      </trkpt>
      <trkpt lat="44.01529" lon="7.20128">
        <ele>1007.400024414</ele>
        <time>2012-05-05T10:28:11Z</time>
      </trkpt>
      <trkpt lat="44.0153" lon="7.2014">
        <ele>1008.400024414</ele>
        <time>2012-05-05T10:28:14Z</time>
      </trkpt>
      <trkpt lat="44.0153" lon="7.20143">
        <ele>1008.400024414</ele>
        <time>2012-05-05T10:28:15Z</time>
      </trkpt>
      <trkpt lat="44.01532" lon="7.20154">
        <ele>1009.400024414</ele>
        <time>2012-05-05T10:28:18Z</time>
      </trkpt>
      <trkpt lat="44.01534" lon="7.20162">
        <ele>1009.400024414</ele>
        <time>2012-05-05T10:28:20Z</time>
      </trkpt>
      <trkpt lat="44.01537" lon="7.20171">
        <ele>1010.599975586</ele>
        <time>2012-05-05T10:28:22Z</time>
      </trkpt>
      <trkpt lat="44.01538" lon="7.20175">
        <ele>1010.599975586</ele>
        <time>2012-05-05T10:28:23Z</time>
      </trkpt>
      <trkpt lat="44.01543" lon="7.20187">
        <ele>1011.599975586</ele>
        <time>2012-05-05T10:28:26Z</time>
      </trkpt>
      <trkpt lat="44.01547" lon="7.20194">
        <ele>1012.599975586</ele>
        <time>2012-05-05T10:28:28Z</time>
      </trkpt>
      <trkpt lat="44.01548" lon="7.20198">
        <ele>1012.599975586</ele>
        <time>2012-05-05T10:28:29Z</time>
      </trkpt>
      <trkpt lat="44.01549" lon="7.20201">
        <ele>1012.599975586</ele>
        <time>2012-05-05T10:28:30Z</time>
      </trkpt>
      <trkpt lat="44.01552" lon="7.20207">
        <ele>1013.799987793</ele>
        <time>2012-05-05T10:28:32Z</time>
      </trkpt>
      <trkpt lat="44.01556" lon="7.20224">
        <ele>1013.799987793</ele>
        <time>2012-05-05T10:28:36Z</time>
      </trkpt>
      <trkpt lat="44.01557" lon="7.20226">
        <ele>1014.799987793</ele>
        <time>2012-05-05T10:28:37Z</time>
      </trkpt>
      <trkpt lat="44.01558" lon="7.2023">
        <ele>1014.799987793</ele>
        <time>2012-05-05T10:28:38Z</time>
      </trkpt>
      <trkpt lat="44.01558" lon="7.20234">
        <ele>1014.799987793</ele>
        <time>2012-05-05T10:28:39Z</time>
      </trkpt>
      <trkpt lat="44.01559" lon="7.20239">
        <ele>1015.799987793</ele>
        <time>2012-05-05T10:28:40Z</time>
      </trkpt>
      <trkpt lat="44.01559" lon="7.20244">
        <ele>1015.799987793</ele>
        <time>2012-05-05T10:28:41Z</time>
      </trkpt>
      <trkpt lat="44.0156" lon="7.2025">
        <ele>1016.799987793</ele>
        <time>2012-05-05T10:28:42Z</time>
      </trkpt>
      <trkpt lat="44.01563" lon="7.20272">
        <ele>1018</ele>
        <time>2012-05-05T10:28:46Z</time>
      </trkpt>
      <trkpt lat="44.01564" lon="7.20277">
        <ele>1018</ele>
        <time>2012-05-05T10:28:47Z</time>
      </trkpt>
      <trkpt lat="44.01565" lon="7.20286">
        <ele>1018</ele>
        <time>2012-05-05T10:28:49Z</time>
      </trkpt>
      <trkpt lat="44.01566" lon="7.2029">
        <ele>1019</ele>
        <time>2012-05-05T10:28:50Z</time>
      </trkpt>
      <trkpt lat="44.01566" lon="7.20298">
        <ele>1019</ele>
        <time>2012-05-05T10:28:52Z</time>
      </trkpt>
      <trkpt lat="44.01564" lon="7.20301">
        <ele>1020</ele>
        <time>2012-05-05T10:28:53Z</time>
      </trkpt>
      <trkpt lat="44.01562" lon="7.20304">
        <ele>1020</ele>
        <time>2012-05-05T10:28:54Z</time>
      </trkpt>
      <trkpt lat="44.01556" lon="7.20303">
        <ele>1021</ele>
        <time>2012-05-05T10:28:56Z</time>
      </trkpt>
      <trkpt lat="44.01554" lon="7.20289">
        <ele>1021</ele>
        <time>2012-05-05T10:28:59Z</time>
      </trkpt>
      <trkpt lat="44.01554" lon="7.20278">
        <ele>1022</ele>
        <time>2012-05-05T10:29:01Z</time>
      </trkpt>
      <trkpt lat="44.01553" lon="7.20265">
        <ele>1023</ele>
        <time>2012-05-05T10:29:04Z</time>
      </trkpt>
      <trkpt lat="44.01551" lon="7.20256">
        <ele>1023</ele>
        <time>2012-05-05T10:29:06Z</time>
      </trkpt>
      <trkpt lat="44.01549" lon="7.20252">
        <ele>1024</ele>
        <time>2012-05-05T10:29:07Z</time>
      </trkpt>
      <trkpt lat="44.01544" lon="7.20239">
        <ele>1025</ele>
        <time>2012-05-05T10:29:11Z</time>
      </trkpt>
      <trkpt lat="44.01543" lon="7.20236">
        <ele>1025</ele>
        <time>2012-05-05T10:29:12Z</time>
      </trkpt>
      <trkpt lat="44.01541" lon="7.20229">
        <ele>1026.400024414</ele>
        <time>2012-05-05T10:29:14Z</time>
      </trkpt>
      <trkpt lat="44.01535" lon="7.20214">
        <ele>1027.400024414</ele>
        <time>2012-05-05T10:29:19Z</time>
      </trkpt>
      <trkpt lat="44.01534" lon="7.20211">
        <ele>1027.400024414</ele>
        <time>2012-05-05T10:29:20Z</time>
      </trkpt>
      <trkpt lat="44.0153" lon="7.20205">
        <ele>1028.400024414</ele>
        <time>2012-05-05T10:29:22Z</time>
      </trkpt>
      <trkpt lat="44.01525" lon="7.20199">
        <ele>1029.800048828</ele>
        <time>2012-05-05T10:29:24Z</time>
      </trkpt>
      <trkpt lat="44.0152" lon="7.20194">
        <ele>1029.800048828</ele>
        <time>2012-05-05T10:29:26Z</time>
      </trkpt>
      <trkpt lat="44.01515" lon="7.20189">
        <ele>1030.800048828</ele>
        <time>2012-05-05T10:29:28Z</time>
      </trkpt>
      <trkpt lat="44.01502" lon="7.20176">
        <ele>1032</ele>
        <time>2012-05-05T10:29:33Z</time>
      </trkpt>
      <trkpt lat="44.0149" lon="7.20166">
        <ele>1033</ele>
        <time>2012-05-05T10:29:37Z</time>
      </trkpt>
      <trkpt lat="44.01488" lon="7.20164">
        <ele>1033</ele>
        <time>2012-05-05T10:29:38Z</time>
      </trkpt>
      <trkpt lat="44.01483" lon="7.20162">
        <ele>1034.199951172</ele>
        <time>2012-05-05T10:29:40Z</time>
      </trkpt>
      <trkpt lat="44.01472" lon="7.20157">
        <ele>1034.199951172</ele>
        <time>2012-05-05T10:29:44Z</time>
      </trkpt>
      <trkpt lat="44.01469" lon="7.20156">
        <ele>1035.199951172</ele>
        <time>2012-05-05T10:29:45Z</time>
      </trkpt>
      <trkpt lat="44.01459" lon="7.20154">
        <ele>1036.199951172</ele>
        <time>2012-05-05T10:29:48Z</time>
      </trkpt>
      <trkpt lat="44.01456" lon="7.20156">
        <ele>1036.199951172</ele>
        <time>2012-05-05T10:29:49Z</time>
      </trkpt>
      <trkpt lat="44.01454" lon="7.20159">
        <ele>1036.199951172</ele>
        <time>2012-05-05T10:29:50Z</time>
      </trkpt>
      <trkpt lat="44.01454" lon="7.20168">
        <ele>1036.199951172</ele>
        <time>2012-05-05T10:29:52Z</time>
      </trkpt>
      <trkpt lat="44.01456" lon="7.20171">
        <ele>1037.199951172</ele>
        <time>2012-05-05T10:29:53Z</time>
      </trkpt>
      <trkpt lat="44.01463" lon="7.20173">
        <ele>1037.199951172</ele>
        <time>2012-05-05T10:29:55Z</time>
      </trkpt>
      <trkpt lat="44.0147" lon="7.20172">
        <ele>1038.199951172</ele>
        <time>2012-05-05T10:29:57Z</time>
      </trkpt>
      <trkpt lat="44.01479" lon="7.20175">
        <ele>1038.199951172</ele>
        <time>2012-05-05T10:30:00Z</time>
      </trkpt>
      <trkpt lat="44.01484" lon="7.20179">
        <ele>1039.400024414</ele>
        <time>2012-05-05T10:30:02Z</time>
      </trkpt>
      <trkpt lat="44.01492" lon="7.20191">
        <ele>1040.400024414</ele>
        <time>2012-05-05T10:30:06Z</time>
      </trkpt>
      <trkpt lat="44.01496" lon="7.20198">
        <ele>1041.599975586</ele>
        <time>2012-05-05T10:30:08Z</time>
      </trkpt>
      <trkpt lat="44.015" lon="7.20209">
        <ele>1042.599975586</ele>
        <time>2012-05-05T10:30:11Z</time>
      </trkpt>
      <trkpt lat="44.01503" lon="7.20216">
        <ele>1042.599975586</ele>
        <time>2012-05-05T10:30:13Z</time>
      </trkpt>
      <trkpt lat="44.01504" lon="7.2022">
        <ele>1043.599975586</ele>
        <time>2012-05-05T10:30:14Z</time>
      </trkpt>
      <trkpt lat="44.01508" lon="7.20233">
        <ele>1044.800048828</ele>
        <time>2012-05-05T10:30:17Z</time>
      </trkpt>
      <trkpt lat="44.01509" lon="7.20242">
        <ele>1046</ele>
        <time>2012-05-05T10:30:19Z</time>
      </trkpt>
      <trkpt lat="44.0151" lon="7.20252">
        <ele>1046</ele>
        <time>2012-05-05T10:30:21Z</time>
      </trkpt>
      <trkpt lat="44.01511" lon="7.20261">
        <ele>1047</ele>
        <time>2012-05-05T10:30:23Z</time>
      </trkpt>
      <trkpt lat="44.01514" lon="7.20276">
        <ele>1048</ele>
        <time>2012-05-05T10:30:26Z</time>
      </trkpt>
      <trkpt lat="44.01516" lon="7.2028">
        <ele>1048</ele>
        <time>2012-05-05T10:30:27Z</time>
      </trkpt>
      <trkpt lat="44.01518" lon="7.20286">
        <ele>1049.199951172</ele>
        <time>2012-05-05T10:30:29Z</time>
      </trkpt>
      <trkpt lat="44.01519" lon="7.20294">
        <ele>1050.199951172</ele>
        <time>2012-05-05T10:30:31Z</time>
      </trkpt>
      <trkpt lat="44.01521" lon="7.20307">
        <ele>1050.199951172</ele>
        <time>2012-05-05T10:30:34Z</time>
      </trkpt>
      <trkpt lat="44.01521" lon="7.20312">
        <ele>1051.400024414</ele>
        <time>2012-05-05T10:30:35Z</time>
      </trkpt>
      <trkpt lat="44.01521" lon="7.20326">
        <ele>1052.400024414</ele>
        <time>2012-05-05T10:30:38Z</time>
      </trkpt>
      <trkpt lat="44.01521" lon="7.20334">
        <ele>1052.400024414</ele>
        <time>2012-05-05T10:30:40Z</time>
      </trkpt>
      <trkpt lat="44.01521" lon="7.20337">
        <ele>1053.400024414</ele>
        <time>2012-05-05T10:30:41Z</time>
      </trkpt>
      <trkpt lat="44.01521" lon="7.20359">
        <ele>1054.599975586</ele>
        <time>2012-05-05T10:30:46Z</time>
      </trkpt>
      <trkpt lat="44.01521" lon="7.20372">
        <ele>1055.800048828</ele>
        <time>2012-05-05T10:30:49Z</time>
      </trkpt>
      <trkpt lat="44.01521" lon="7.20384">
        <ele>1056.800048828</ele>
        <time>2012-05-05T10:30:52Z</time>
      </trkpt>
      <trkpt lat="44.01521" lon="7.20388">
        <ele>1056.800048828</ele>
        <time>2012-05-05T10:30:53Z</time>
      </trkpt>
      <trkpt lat="44.0152" lon="7.20395">
        <ele>1057.800048828</ele>
        <time>2012-05-05T10:30:55Z</time>
      </trkpt>
      <trkpt lat="44.01521" lon="7.20405">
        <ele>1058.800048828</ele>
        <time>2012-05-05T10:30:58Z</time>
      </trkpt>
      <trkpt lat="44.01521" lon="7.20421">
        <ele>1059.800048828</ele>
        <time>2012-05-05T10:31:02Z</time>
      </trkpt>
      <trkpt lat="44.01516" lon="7.20432">
        <ele>1060.800048828</ele>
        <time>2012-05-05T10:31:04Z</time>
      </trkpt>
      <trkpt lat="44.01515" lon="7.20437">
        <ele>1060.800048828</ele>
        <time>2012-05-05T10:31:05Z</time>
      </trkpt>
      <trkpt lat="44.01511" lon="7.20451">
        <ele>1061.800048828</ele>
        <time>2012-05-05T10:31:08Z</time>
      </trkpt>
      <trkpt lat="44.0151" lon="7.20456">
        <ele>1061.800048828</ele>
        <time>2012-05-05T10:31:09Z</time>
      </trkpt>
      <trkpt lat="44.0151" lon="7.20461">
        <ele>1063</ele>
        <time>2012-05-05T10:31:10Z</time>
      </trkpt>
      <trkpt lat="44.01512" lon="7.20485">
        <ele>1064</ele>
        <time>2012-05-05T10:31:15Z</time>
      </trkpt>
      <trkpt lat="44.01512" lon="7.20491">
        <ele>1064</ele>
        <time>2012-05-05T10:31:16Z</time>
      </trkpt>
      <trkpt lat="44.01515" lon="7.20506">
        <ele>1065</ele>
        <time>2012-05-05T10:31:19Z</time>
      </trkpt>
      <trkpt lat="44.01516" lon="7.2051">
        <ele>1065</ele>
        <time>2012-05-05T10:31:20Z</time>
      </trkpt>
      <trkpt lat="44.01518" lon="7.20515">
        <ele>1065</ele>
        <time>2012-05-05T10:31:21Z</time>
      </trkpt>
      <trkpt lat="44.01519" lon="7.2052">
        <ele>1066.199951172</ele>
        <time>2012-05-05T10:31:22Z</time>
      </trkpt>
      <trkpt lat="44.01522" lon="7.20525">
        <ele>1066.199951172</ele>
        <time>2012-05-05T10:31:23Z</time>
      </trkpt>
      <trkpt lat="44.01528" lon="7.20541">
        <ele>1067.199951172</ele>
        <time>2012-05-05T10:31:26Z</time>
      </trkpt>
      <trkpt lat="44.01535" lon="7.20548">
        <ele>1067.199951172</ele>
        <time>2012-05-05T10:31:28Z</time>
      </trkpt>
      <trkpt lat="44.01538" lon="7.20552">
        <ele>1068.400024414</ele>
        <time>2012-05-05T10:31:29Z</time>
      </trkpt>
      <trkpt lat="44.01545" lon="7.20559">
        <ele>1069.400024414</ele>
        <time>2012-05-05T10:31:31Z</time>
      </trkpt>
      <trkpt lat="44.01554" lon="7.2057">
        <ele>1070.599975586</ele>
        <time>2012-05-05T10:31:34Z</time>
      </trkpt>
      <trkpt lat="44.01558" lon="7.20579">
        <ele>1071.800048828</ele>
        <time>2012-05-05T10:31:36Z</time>
      </trkpt>
      <trkpt lat="44.0157" lon="7.20596">
        <ele>1073</ele>
        <time>2012-05-05T10:31:40Z</time>
      </trkpt>
      <trkpt lat="44.01583" lon="7.20604">
        <ele>1074</ele>
        <time>2012-05-05T10:31:44Z</time>
      </trkpt>
      <trkpt lat="44.01586" lon="7.20605">
        <ele>1075.199951172</ele>
        <time>2012-05-05T10:31:45Z</time>
      </trkpt>
      <trkpt lat="44.01595" lon="7.20609">
        <ele>1076.199951172</ele>
        <time>2012-05-05T10:31:47Z</time>
      </trkpt>
      <trkpt lat="44.01602" lon="7.20613">
        <ele>1076.199951172</ele>
        <time>2012-05-05T10:31:49Z</time>
      </trkpt>
      <trkpt lat="44.01606" lon="7.20616">
        <ele>1077.400024414</ele>
        <time>2012-05-05T10:31:50Z</time>
      </trkpt>
      <trkpt lat="44.01614" lon="7.20623">
        <ele>1078.400024414</ele>
        <time>2012-05-05T10:31:52Z</time>
      </trkpt>
      <trkpt lat="44.01617" lon="7.20626">
        <ele>1078.400024414</ele>
        <time>2012-05-05T10:31:53Z</time>
      </trkpt>
      <trkpt lat="44.01621" lon="7.20629">
        <ele>1078.400024414</ele>
        <time>2012-05-05T10:31:54Z</time>
      </trkpt>
      <trkpt lat="44.01625" lon="7.20632">
        <ele>1079.599975586</ele>
        <time>2012-05-05T10:31:55Z</time>
      </trkpt>
      <trkpt lat="44.01633" lon="7.20636">
        <ele>1079.599975586</ele>
        <time>2012-05-05T10:31:57Z</time>
      </trkpt>
      <trkpt lat="44.01637" lon="7.20639">
        <ele>1080.800048828</ele>
        <time>2012-05-05T10:31:58Z</time>
      </trkpt>
      <trkpt lat="44.01642" lon="7.20642">
        <ele>1082</ele>
        <time>2012-05-05T10:31:59Z</time>
      </trkpt>
      <trkpt lat="44.01652" lon="7.20645">
        <ele>1083</ele>
        <time>2012-05-05T10:32:01Z</time>
      </trkpt>
      <trkpt lat="44.01656" lon="7.20647">
        <ele>1083</ele>
        <time>2012-05-05T10:32:02Z</time>
      </trkpt>
      <trkpt lat="44.01665" lon="7.20653">
        <ele>1084</ele>
        <time>2012-05-05T10:32:04Z</time>
      </trkpt>
      <trkpt lat="44.01673" lon="7.2066">
        <ele>1085.199951172</ele>
        <time>2012-05-05T10:32:06Z</time>
      </trkpt>
      <trkpt lat="44.0168" lon="7.20667">
        <ele>1086.199951172</ele>
        <time>2012-05-05T10:32:08Z</time>
      </trkpt>
      <trkpt lat="44.01688" lon="7.20682">
        <ele>1087.599975586</ele>
        <time>2012-05-05T10:32:11Z</time>
      </trkpt>
      <trkpt lat="44.01689" lon="7.20687">
        <ele>1087.599975586</ele>
        <time>2012-05-05T10:32:12Z</time>
      </trkpt>
      <trkpt lat="44.01689" lon="7.20696">
        <ele>1088.599975586</ele>
        <time>2012-05-05T10:32:14Z</time>
      </trkpt>
      <trkpt lat="44.01687" lon="7.20707">
        <ele>1089.800048828</ele>
        <time>2012-05-05T10:32:16Z</time>
      </trkpt>
      <trkpt lat="44.01682" lon="7.20718">
        <ele>1090.800048828</ele>
        <time>2012-05-05T10:32:18Z</time>
      </trkpt>
      <trkpt lat="44.01679" lon="7.20723">
        <ele>1092</ele>
        <time>2012-05-05T10:32:19Z</time>
      </trkpt>
      <trkpt lat="44.01677" lon="7.20734">
        <ele>1092</ele>
        <time>2012-05-05T10:32:21Z</time>
      </trkpt>
      <trkpt lat="44.01676" lon="7.20743">
        <ele>1093</ele>
        <time>2012-05-05T10:32:24Z</time>
      </trkpt>
      <trkpt lat="44.01676" lon="7.20745">
        <ele>1093</ele>
        <time>2012-05-05T10:32:25Z</time>
      </trkpt>
      <trkpt lat="44.01676" lon="7.20749">
        <ele>1094</ele>
        <time>2012-05-05T10:32:26Z</time>
      </trkpt>
      <trkpt lat="44.01675" lon="7.20762">
        <ele>1095</ele>
        <time>2012-05-05T10:32:29Z</time>
      </trkpt>
      <trkpt lat="44.01677" lon="7.20774">
        <ele>1096.199951172</ele>
        <time>2012-05-05T10:32:31Z</time>
      </trkpt>
      <trkpt lat="44.01681" lon="7.20788">
        <ele>1097.199951172</ele>
        <time>2012-05-05T10:32:33Z</time>
      </trkpt>
      <trkpt lat="44.01686" lon="7.20798">
        <ele>1098.199951172</ele>
        <time>2012-05-05T10:32:35Z</time>
      </trkpt>
      <trkpt lat="44.01691" lon="7.20808">
        <ele>1099.199951172</ele>
        <time>2012-05-05T10:32:37Z</time>
      </trkpt>
      <trkpt lat="44.01693" lon="7.20813">
        <ele>1099.199951172</ele>
        <time>2012-05-05T10:32:38Z</time>
      </trkpt>
      <trkpt lat="44.01697" lon="7.20821">
        <ele>1100.400024414</ele>
        <time>2012-05-05T10:32:40Z</time>
      </trkpt>
      <trkpt lat="44.017" lon="7.20827">
        <ele>1100.400024414</ele>
        <time>2012-05-05T10:32:42Z</time>
      </trkpt>
      <trkpt lat="44.01704" lon="7.20834">
        <ele>1101.599975586</ele>
        <time>2012-05-05T10:32:44Z</time>
      </trkpt>
      <trkpt lat="44.01707" lon="7.20837">
        <ele>1102.800048828</ele>
        <time>2012-05-05T10:32:45Z</time>
      </trkpt>
      <trkpt lat="44.01714" lon="7.20844">
        <ele>1103.800048828</ele>
        <time>2012-05-05T10:32:47Z</time>
      </trkpt>
      <trkpt lat="44.01718" lon="7.20848">
        <ele>1105.199951172</ele>
        <time>2012-05-05T10:32:48Z</time>
      </trkpt>
      <trkpt lat="44.01728" lon="7.20864">
        <ele>1106.400024414</ele>
        <time>2012-05-05T10:32:51Z</time>
      </trkpt>
      <trkpt lat="44.0173" lon="7.2087">
        <ele>1106.400024414</ele>
        <time>2012-05-05T10:32:52Z</time>
      </trkpt>
      <trkpt lat="44.01733" lon="7.20882">
        <ele>1107.599975586</ele>
        <time>2012-05-05T10:32:54Z</time>
      </trkpt>
      <trkpt lat="44.01734" lon="7.20888">
        <ele>1108.599975586</ele>
        <time>2012-05-05T10:32:55Z</time>
      </trkpt>
      <trkpt lat="44.01735" lon="7.20894">
        <ele>1108.599975586</ele>
        <time>2012-05-05T10:32:56Z</time>
      </trkpt>
      <trkpt lat="44.01736" lon="7.209">
        <ele>1108.599975586</ele>
        <time>2012-05-05T10:32:57Z</time>
      </trkpt>
      <trkpt lat="44.01736" lon="7.20905">
        <ele>1109.599975586</ele>
        <time>2012-05-05T10:32:58Z</time>
      </trkpt>
      <trkpt lat="44.01736" lon="7.2091">
        <ele>1109.599975586</ele>
        <time>2012-05-05T10:32:59Z</time>
      </trkpt>
      <trkpt lat="44.01735" lon="7.20914">
        <ele>1111</ele>
        <time>2012-05-05T10:33:00Z</time>
      </trkpt>
      <trkpt lat="44.01734" lon="7.20926">
        <ele>1112.199951172</ele>
        <time>2012-05-05T10:33:03Z</time>
      </trkpt>
      <trkpt lat="44.01735" lon="7.20933">
        <ele>1112.199951172</ele>
        <time>2012-05-05T10:33:05Z</time>
      </trkpt>
      <trkpt lat="44.01737" lon="7.20936">
        <ele>1113.199951172</ele>
        <time>2012-05-05T10:33:06Z</time>
      </trkpt>
      <trkpt lat="44.01745" lon="7.20937">
        <ele>1113.199951172</ele>
        <time>2012-05-05T10:33:08Z</time>
      </trkpt>
      <trkpt lat="44.01749" lon="7.20935">
        <ele>1114.400024414</ele>
        <time>2012-05-05T10:33:09Z</time>
      </trkpt>
      <trkpt lat="44.01755" lon="7.2093">
        <ele>1115.599975586</ele>
        <time>2012-05-05T10:33:11Z</time>
      </trkpt>
      <trkpt lat="44.01764" lon="7.2092">
        <ele>1117</ele>
        <time>2012-05-05T10:33:14Z</time>
      </trkpt>
      <trkpt lat="44.01769" lon="7.20903">
        <ele>1118</ele>
        <time>2012-05-05T10:33:17Z</time>
      </trkpt>
      <trkpt lat="44.0177" lon="7.20897">
        <ele>1119.199951172</ele>
        <time>2012-05-05T10:33:18Z</time>
      </trkpt>
      <trkpt lat="44.01772" lon="7.20879">
        <ele>1120.199951172</ele>
        <time>2012-05-05T10:33:21Z</time>
      </trkpt>
      <trkpt lat="44.01774" lon="7.20867">
        <ele>1120.199951172</ele>
        <time>2012-05-05T10:33:24Z</time>
      </trkpt>
      <trkpt lat="44.01775" lon="7.20864">
        <ele>1121.199951172</ele>
        <time>2012-05-05T10:33:26Z</time>
      </trkpt>
      <trkpt lat="44.01775" lon="7.20857">
        <ele>1121.199951172</ele>
        <time>2012-05-05T10:33:29Z</time>
      </trkpt>
      <trkpt lat="44.01774" lon="7.20849">
        <ele>1122.400024414</ele>
        <time>2012-05-05T10:33:31Z</time>
      </trkpt>
      <trkpt lat="44.0177" lon="7.20837">
        <ele>1123.400024414</ele>
        <time>2012-05-05T10:33:34Z</time>
      </trkpt>
      <trkpt lat="44.01766" lon="7.20823">
        <ele>1124.400024414</ele>
        <time>2012-05-05T10:33:37Z</time>
      </trkpt>
      <trkpt lat="44.01765" lon="7.20817">
        <ele>1124.400024414</ele>
        <time>2012-05-05T10:33:38Z</time>
      </trkpt>
      <trkpt lat="44.01765" lon="7.20807">
        <ele>1125.400024414</ele>
        <time>2012-05-05T10:33:40Z</time>
      </trkpt>
      <trkpt lat="44.01767" lon="7.20796">
        <ele>1125.400024414</ele>
        <time>2012-05-05T10:33:42Z</time>
      </trkpt>
      <trkpt lat="44.0177" lon="7.20791">
        <ele>1126.599975586</ele>
        <time>2012-05-05T10:33:43Z</time>
      </trkpt>
      <trkpt lat="44.01775" lon="7.20784">
        <ele>1127.599975586</ele>
        <time>2012-05-05T10:33:45Z</time>
      </trkpt>
      <trkpt lat="44.01781" lon="7.20777">
        <ele>1128.599975586</ele>
        <time>2012-05-05T10:33:47Z</time>
      </trkpt>
      <trkpt lat="44.01785" lon="7.20775">
        <ele>1129.800048828</ele>
        <time>2012-05-05T10:33:48Z</time>
      </trkpt>
      <trkpt lat="44.01793" lon="7.2077">
        <ele>1130.800048828</ele>
        <time>2012-05-05T10:33:50Z</time>
      </trkpt>
      <trkpt lat="44.01801" lon="7.20764">
        <ele>1131.800048828</ele>
        <time>2012-05-05T10:33:52Z</time>
      </trkpt>
      <trkpt lat="44.01813" lon="7.20754">
        <ele>1133</ele>
        <time>2012-05-05T10:33:56Z</time>
      </trkpt>
      <trkpt lat="44.01818" lon="7.20749">
        <ele>1134</ele>
        <time>2012-05-05T10:33:58Z</time>
      </trkpt>
      <trkpt lat="44.01824" lon="7.20743">
        <ele>1134</ele>
        <time>2012-05-05T10:34:00Z</time>
      </trkpt>
      <trkpt lat="44.01827" lon="7.20741">
        <ele>1135</ele>
        <time>2012-05-05T10:34:01Z</time>
      </trkpt>
      <trkpt lat="44.01837" lon="7.20733">
        <ele>1136.199951172</ele>
        <time>2012-05-05T10:34:04Z</time>
      </trkpt>
      <trkpt lat="44.01845" lon="7.20729">
        <ele>1137.199951172</ele>
        <time>2012-05-05T10:34:06Z</time>
      </trkpt>
      <trkpt lat="44.01849" lon="7.20727">
        <ele>1137.199951172</ele>
        <time>2012-05-05T10:34:07Z</time>
      </trkpt>
      <trkpt lat="44.01858" lon="7.20724">
        <ele>1138.400024414</ele>
        <time>2012-05-05T10:34:10Z</time>
      </trkpt>
      <trkpt lat="44.01865" lon="7.20723">
        <ele>1139.400024414</ele>
        <time>2012-05-05T10:34:12Z</time>
      </trkpt>
      <trkpt lat="44.01875" lon="7.20724">
        <ele>1140.599975586</ele>
        <time>2012-05-05T10:34:16Z</time>
      </trkpt>
      <trkpt lat="44.01882" lon="7.20727">
        <ele>1140.599975586</ele>
        <time>2012-05-05T10:34:19Z</time>
      </trkpt>
      <trkpt lat="44.01884" lon="7.20728">
        <ele>1141.599975586</ele>
        <time>2012-05-05T10:34:20Z</time>
      </trkpt>
      <trkpt lat="44.01892" lon="7.20731">
        <ele>1142.599975586</ele>
        <time>2012-05-05T10:34:23Z</time>
      </trkpt>
      <trkpt lat="44.01898" lon="7.20733">
        <ele>1142.599975586</ele>
        <time>2012-05-05T10:34:25Z</time>
      </trkpt>
      <trkpt lat="44.019" lon="7.20735">
        <ele>1143.800048828</ele>
        <time>2012-05-05T10:34:26Z</time>
      </trkpt>
      <trkpt lat="44.01904" lon="7.20736">
        <ele>1143.800048828</ele>
        <time>2012-05-05T10:34:28Z</time>
      </trkpt>
      <trkpt lat="44.01907" lon="7.20737">
        <ele>1145</ele>
        <time>2012-05-05T10:34:29Z</time>
      </trkpt>
      <trkpt lat="44.01914" lon="7.20738">
        <ele>1146</ele>
        <time>2012-05-05T10:34:31Z</time>
      </trkpt>
      <trkpt lat="44.01922" lon="7.2074">
        <ele>1146</ele>
        <time>2012-05-05T10:34:34Z</time>
      </trkpt>
      <trkpt lat="44.0193" lon="7.2074">
        <ele>1147</ele>
        <time>2012-05-05T10:34:37Z</time>
      </trkpt>
      <trkpt lat="44.01936" lon="7.20739">
        <ele>1148.199951172</ele>
        <time>2012-05-05T10:34:39Z</time>
      </trkpt>
      <trkpt lat="44.01948" lon="7.20743">
        <ele>1149.199951172</ele>
        <time>2012-05-05T10:34:43Z</time>
      </trkpt>
      <trkpt lat="44.01953" lon="7.20747">
        <ele>1150.400024414</ele>
        <time>2012-05-05T10:34:45Z</time>
      </trkpt>
      <trkpt lat="44.01966" lon="7.20758">
        <ele>1151.400024414</ele>
        <time>2012-05-05T10:34:49Z</time>
      </trkpt>
      <trkpt lat="44.01969" lon="7.20761">
        <ele>1151.400024414</ele>
        <time>2012-05-05T10:34:50Z</time>
      </trkpt>
      <trkpt lat="44.01973" lon="7.20763">
        <ele>1152.599975586</ele>
        <time>2012-05-05T10:34:51Z</time>
      </trkpt>
      <trkpt lat="44.01981" lon="7.20768">
        <ele>1153.800048828</ele>
        <time>2012-05-05T10:34:53Z</time>
      </trkpt>
      <trkpt lat="44.01984" lon="7.20771">
        <ele>1153.800048828</ele>
        <time>2012-05-05T10:34:54Z</time>
      </trkpt>
      <trkpt lat="44.01987" lon="7.20775">
        <ele>1155.199951172</ele>
        <time>2012-05-05T10:34:55Z</time>
      </trkpt>
      <trkpt lat="44.01993" lon="7.20784">
        <ele>1155.199951172</ele>
        <time>2012-05-05T10:34:57Z</time>
      </trkpt>
      <trkpt lat="44.01996" lon="7.20788">
        <ele>1156.199951172</ele>
        <time>2012-05-05T10:34:58Z</time>
      </trkpt>
      <trkpt lat="44.01999" lon="7.20797">
        <ele>1157.199951172</ele>
        <time>2012-05-05T10:35:00Z</time>
      </trkpt>
      <trkpt lat="44.02004" lon="7.20805">
        <ele>1157.199951172</ele>
        <time>2012-05-05T10:35:02Z</time>
      </trkpt>
      <trkpt lat="44.02007" lon="7.2081">
        <ele>1158.599975586</ele>
        <time>2012-05-05T10:35:03Z</time>
      </trkpt>
      <trkpt lat="44.0201" lon="7.20819">
        <ele>1159.599975586</ele>
        <time>2012-05-05T10:35:05Z</time>
      </trkpt>
      <trkpt lat="44.02011" lon="7.2083">
        <ele>1159.599975586</ele>
        <time>2012-05-05T10:35:07Z</time>
      </trkpt>
      <trkpt lat="44.02012" lon="7.20834">
        <ele>1160.599975586</ele>
        <time>2012-05-05T10:35:08Z</time>
      </trkpt>
      <trkpt lat="44.02016" lon="7.20843">
        <ele>1160.599975586</ele>
        <time>2012-05-05T10:35:10Z</time>
      </trkpt>
      <trkpt lat="44.02018" lon="7.20847">
        <ele>1161.599975586</ele>
        <time>2012-05-05T10:35:11Z</time>
      </trkpt>
      <trkpt lat="44.02021" lon="7.20851">
        <ele>1162.800048828</ele>
        <time>2012-05-05T10:35:12Z</time>
      </trkpt>
      <trkpt lat="44.02024" lon="7.20855">
        <ele>1164</ele>
        <time>2012-05-05T10:35:13Z</time>
      </trkpt>
      <trkpt lat="44.02031" lon="7.20861">
        <ele>1164</ele>
        <time>2012-05-05T10:35:15Z</time>
      </trkpt>
      <trkpt lat="44.02035" lon="7.20862">
        <ele>1164</ele>
        <time>2012-05-05T10:35:16Z</time>
      </trkpt>
      <trkpt lat="44.02053" lon="7.20855">
        <ele>1165.199951172</ele>
        <time>2012-05-05T10:35:20Z</time>
      </trkpt>
      <trkpt lat="44.0206" lon="7.20839">
        <ele>1166.400024414</ele>
        <time>2012-05-05T10:35:23Z</time>
      </trkpt>
      <trkpt lat="44.02061" lon="7.20834">
        <ele>1166.400024414</ele>
        <time>2012-05-05T10:35:24Z</time>
      </trkpt>
      <trkpt lat="44.02062" lon="7.20828">
        <ele>1166.400024414</ele>
        <time>2012-05-05T10:35:25Z</time>
      </trkpt>
      <trkpt lat="44.02063" lon="7.20822">
        <ele>1167.400024414</ele>
        <time>2012-05-05T10:35:26Z</time>
      </trkpt>
      <trkpt lat="44.02065" lon="7.20805">
        <ele>1168.400024414</ele>
        <time>2012-05-05T10:35:29Z</time>
      </trkpt>
      <trkpt lat="44.02065" lon="7.208">
        <ele>1168.400024414</ele>
        <time>2012-05-05T10:35:30Z</time>
      </trkpt>
      <trkpt lat="44.02066" lon="7.20795">
        <ele>1168.400024414</ele>
        <time>2012-05-05T10:35:31Z</time>
      </trkpt>
      <trkpt lat="44.02066" lon="7.2079">
        <ele>1169.400024414</ele>
        <time>2012-05-05T10:35:32Z</time>
      </trkpt>
      <trkpt lat="44.02066" lon="7.20774">
        <ele>1170.599975586</ele>
        <time>2012-05-05T10:35:35Z</time>
      </trkpt>
      <trkpt lat="44.02066" lon="7.20763">
        <ele>1171.800048828</ele>
        <time>2012-05-05T10:35:37Z</time>
      </trkpt>
      <trkpt lat="44.02065" lon="7.20757">
        <ele>1171.800048828</ele>
        <time>2012-05-05T10:35:38Z</time>
      </trkpt>
      <trkpt lat="44.02063" lon="7.20746">
        <ele>1172.800048828</ele>
        <time>2012-05-05T10:35:40Z</time>
      </trkpt>
      <trkpt lat="44.0206" lon="7.20737">
        <ele>1174</ele>
        <time>2012-05-05T10:35:42Z</time>
      </trkpt>
      <trkpt lat="44.02057" lon="7.20728">
        <ele>1174</ele>
        <time>2012-05-05T10:35:44Z</time>
      </trkpt>
      <trkpt lat="44.02056" lon="7.20723">
        <ele>1175.199951172</ele>
        <time>2012-05-05T10:35:45Z</time>
      </trkpt>
      <trkpt lat="44.02053" lon="7.20713">
        <ele>1176.400024414</ele>
        <time>2012-05-05T10:35:47Z</time>
      </trkpt>
      <trkpt lat="44.02046" lon="7.20702">
        <ele>1176.400024414</ele>
        <time>2012-05-05T10:35:50Z</time>
      </trkpt>
      <trkpt lat="44.02044" lon="7.20698">
        <ele>1177.599975586</ele>
        <time>2012-05-05T10:35:51Z</time>
      </trkpt>
      <trkpt lat="44.02039" lon="7.20692">
        <ele>1178.599975586</ele>
        <time>2012-05-05T10:35:53Z</time>
      </trkpt>
      <trkpt lat="44.02037" lon="7.20679">
        <ele>1179.599975586</ele>
        <time>2012-05-05T10:35:56Z</time>
      </trkpt>
      <trkpt lat="44.02041" lon="7.20666">
        <ele>1180.800048828</ele>
        <time>2012-05-05T10:35:59Z</time>
      </trkpt>
      <trkpt lat="44.02043" lon="7.20661">
        <ele>1180.800048828</ele>
        <time>2012-05-05T10:36:00Z</time>
      </trkpt>
      <trkpt lat="44.02047" lon="7.20653">
        <ele>1182</ele>
        <time>2012-05-05T10:36:02Z</time>
      </trkpt>
      <trkpt lat="44.02051" lon="7.20645">
        <ele>1183</ele>
        <time>2012-05-05T10:36:04Z</time>
      </trkpt>
      <trkpt lat="44.02056" lon="7.20631">
        <ele>1183</ele>
        <time>2012-05-05T10:36:07Z</time>
      </trkpt>
      <trkpt lat="44.02057" lon="7.20626">
        <ele>1184</ele>
        <time>2012-05-05T10:36:08Z</time>
      </trkpt>
      <trkpt lat="44.02062" lon="7.2061">
        <ele>1185.400024414</ele>
        <time>2012-05-05T10:36:11Z</time>
      </trkpt>
      <trkpt lat="44.02066" lon="7.20594">
        <ele>1186.400024414</ele>
        <time>2012-05-05T10:36:14Z</time>
      </trkpt>
      <trkpt lat="44.02067" lon="7.20588">
        <ele>1186.400024414</ele>
        <time>2012-05-05T10:36:15Z</time>
      </trkpt>
      <trkpt lat="44.02067" lon="7.20576">
        <ele>1187.599975586</ele>
        <time>2012-05-05T10:36:17Z</time>
      </trkpt>
      <trkpt lat="44.02064" lon="7.20561">
        <ele>1187.599975586</ele>
        <time>2012-05-05T10:36:20Z</time>
      </trkpt>
      <trkpt lat="44.02063" lon="7.20556">
        <ele>1188.800048828</ele>
        <time>2012-05-05T10:36:21Z</time>
      </trkpt>
      <trkpt lat="44.02057" lon="7.20539">
        <ele>1189.800048828</ele>
        <time>2012-05-05T10:36:25Z</time>
      </trkpt>
      <trkpt lat="44.02055" lon="7.20534">
        <ele>1189.800048828</ele>
        <time>2012-05-05T10:36:26Z</time>
      </trkpt>
      <trkpt lat="44.02047" lon="7.20522">
        <ele>1191</ele>
        <time>2012-05-05T10:36:29Z</time>
      </trkpt>
      <trkpt lat="44.02043" lon="7.20515">
        <ele>1191</ele>
        <time>2012-05-05T10:36:31Z</time>
      </trkpt>
      <trkpt lat="44.02039" lon="7.20503">
        <ele>1192</ele>
        <time>2012-05-05T10:36:34Z</time>
      </trkpt>
      <trkpt lat="44.02032" lon="7.20488">
        <ele>1192</ele>
        <time>2012-05-05T10:36:38Z</time>
      </trkpt>
      <trkpt lat="44.0203" lon="7.20484">
        <ele>1193</ele>
        <time>2012-05-05T10:36:39Z</time>
      </trkpt>
      <trkpt lat="44.02023" lon="7.20472">
        <ele>1194.199951172</ele>
        <time>2012-05-05T10:36:43Z</time>
      </trkpt>
      <trkpt lat="44.02015" lon="7.20461">
        <ele>1194.199951172</ele>
        <time>2012-05-05T10:36:47Z</time>
      </trkpt>
      <trkpt lat="44.02014" lon="7.20453">
        <ele>1194.199951172</ele>
        <time>2012-05-05T10:36:50Z</time>
      </trkpt>
      <trkpt lat="44.02014" lon="7.20451">
        <ele>1194.199951172</ele>
        <time>2012-05-05T10:36:51Z</time>
      </trkpt>
      <trkpt lat="44.02014" lon="7.20449">
        <ele>1194.199951172</ele>
        <time>2012-05-05T10:36:53Z</time>
      </trkpt>
      <trkpt lat="44.02013" lon="7.20449">
        <ele>1194.199951172</ele>
        <time>2012-05-05T10:36:55Z</time>
      </trkpt>
      <trkpt lat="44.02012" lon="7.20449">
        <ele>1194.199951172</ele>
        <time>2012-05-05T10:37:00Z</time>
      </trkpt>
      <trkpt lat="44.02013" lon="7.20447">
        <ele>1194.199951172</ele>
        <time>2012-05-05T10:37:03Z</time>
      </trkpt>
      <trkpt lat="44.02011" lon="7.20446">
        <ele>1194.199951172</ele>
        <time>2012-05-05T10:37:05Z</time>
      </trkpt>
      <trkpt lat="44.02009" lon="7.20446">
        <ele>1195.199951172</ele>
        <time>2012-05-05T10:37:06Z</time>
      </trkpt>
      <trkpt lat="44.02004" lon="7.20444">
        <ele>1195.199951172</ele>
        <time>2012-05-05T10:37:08Z</time>
      </trkpt>
      <trkpt lat="44.02001" lon="7.20442">
        <ele>1195.199951172</ele>
        <time>2012-05-05T10:37:09Z</time>
      </trkpt>
      <trkpt lat="44.01997" lon="7.20439">
        <ele>1196.199951172</ele>
        <time>2012-05-05T10:37:11Z</time>
      </trkpt>
      <trkpt lat="44.01996" lon="7.20438">
        <ele>1197.400024414</ele>
        <time>2012-05-05T10:37:12Z</time>
      </trkpt>
      <trkpt lat="44.01993" lon="7.20436">
        <ele>1197.400024414</ele>
        <time>2012-05-05T10:37:14Z</time>
      </trkpt>
      <trkpt lat="44.01992" lon="7.20435">
        <ele>1198.599975586</ele>
        <time>2012-05-05T10:37:15Z</time>
      </trkpt>
      <trkpt lat="44.01989" lon="7.20434">
        <ele>1199.599975586</ele>
        <time>2012-05-05T10:37:17Z</time>
      </trkpt>
      <trkpt lat="44.01987" lon="7.20433">
        <ele>1200.800048828</ele>
        <time>2012-05-05T10:37:19Z</time>
      </trkpt>
      <trkpt lat="44.01985" lon="7.20432">
        <ele>1201.800048828</ele>
        <time>2012-05-05T10:37:21Z</time>
      </trkpt>
      <trkpt lat="44.01983" lon="7.20431">
        <ele>1203</ele>
        <time>2012-05-05T10:37:23Z</time>
      </trkpt>
      <trkpt lat="44.0198" lon="7.2043">
        <ele>1203</ele>
        <time>2012-05-05T10:37:25Z</time>
      </trkpt>
      <trkpt lat="44.01977" lon="7.2043">
        <ele>1203</ele>
        <time>2012-05-05T10:37:27Z</time>
      </trkpt>
      <trkpt lat="44.01974" lon="7.2043">
        <ele>1203</ele>
        <time>2012-05-05T10:37:29Z</time>
      </trkpt>
      <trkpt lat="44.01973" lon="7.20428">
        <ele>1203</ele>
        <time>2012-05-05T10:37:30Z</time>
      </trkpt>
      <trkpt lat="44.01972" lon="7.20427">
        <ele>1203</ele>
        <time>2012-05-05T10:37:33Z</time>
      </trkpt>
      <trkpt lat="44.01972" lon="7.20428">
        <ele>1203</ele>
        <time>2012-05-05T10:37:34Z</time>
      </trkpt>
      <trkpt lat="44.01971" lon="7.20428">
        <ele>1203</ele>
        <time>2012-05-05T10:37:38Z</time>
      </trkpt>
      <trkpt lat="44.01971" lon="7.20428">
        <ele>1203</ele>
        <time>2012-05-05T10:37:40Z</time>
      </trkpt>
      <trkpt lat="44.01971" lon="7.20429">
        <ele>1204</ele>
        <time>2012-05-05T10:37:47Z</time>
      </trkpt>
      <trkpt lat="44.01971" lon="7.20429">
        <ele>1204</ele>
        <time>2012-05-05T10:37:48Z</time>
      </trkpt>
      <trkpt lat="44.01972" lon="7.20431">
        <ele>1204</ele>
        <time>2012-05-05T10:38:00Z</time>
      </trkpt>
      <trkpt lat="44.0197" lon="7.20433">
        <ele>1204</ele>
        <time>2012-05-05T10:38:04Z</time>
      </trkpt>
      <trkpt lat="44.01969" lon="7.20433">
        <ele>1204</ele>
        <time>2012-05-05T10:38:07Z</time>
      </trkpt>
      <trkpt lat="44.01969" lon="7.20432">
        <ele>1204</ele>
        <time>2012-05-05T10:38:13Z</time>
      </trkpt>
      <trkpt lat="44.01969" lon="7.20433">
        <ele>1204</ele>
        <time>2012-05-05T10:38:16Z</time>
      </trkpt>
      <trkpt lat="44.01969" lon="7.20433">
        <ele>1204</ele>
        <time>2012-05-05T10:38:17Z</time>
      </trkpt>
      <trkpt lat="44.01969" lon="7.20432">
        <ele>1204</ele>
        <time>2012-05-05T10:38:23Z</time>
      </trkpt>
      <trkpt lat="44.01969" lon="7.20433">
        <ele>1204</ele>
        <time>2012-05-05T10:38:27Z</time>
      </trkpt>
      <trkpt lat="44.01968" lon="7.20433">
        <ele>1204</ele>
        <time>2012-05-05T10:38:29Z</time>
      </trkpt>
      <trkpt lat="44.01968" lon="7.20433">
        <ele>1204</ele>
        <time>2012-05-05T10:38:30Z</time>
      </trkpt>
      <trkpt lat="44.01967" lon="7.20434">
        <ele>1204</ele>
        <time>2012-05-05T10:38:34Z</time>
      </trkpt>
      <trkpt lat="44.01967" lon="7.20434">
        <ele>1204</ele>
        <time>2012-05-05T10:38:37Z</time>
      </trkpt>
      <trkpt lat="44.01968" lon="7.20434">
        <ele>1204</ele>
        <time>2012-05-05T10:38:41Z</time>
      </trkpt>
      <trkpt lat="44.01968" lon="7.20434">
        <ele>1204</ele>
        <time>2012-05-05T10:38:42Z</time>
      </trkpt>
      <trkpt lat="44.01968" lon="7.20434">
        <ele>1204</ele>
        <time>2012-05-05T10:38:49Z</time>
      </trkpt>
      <trkpt lat="44.01969" lon="7.20433">
        <ele>1204</ele>
        <time>2012-05-05T10:38:53Z</time>
      </trkpt>
      <trkpt lat="44.0197" lon="7.20433">
        <ele>1204</ele>
        <time>2012-05-05T10:38:55Z</time>
      </trkpt>
      <trkpt lat="44.0197" lon="7.20432">
        <ele>1204</ele>
        <time>2012-05-05T10:38:57Z</time>
      </trkpt>
      <trkpt lat="44.0197" lon="7.20432">
        <ele>1204</ele>
        <time>2012-05-05T10:39:01Z</time>
      </trkpt>
      <trkpt lat="44.0197" lon="7.20433">
        <ele>1204</ele>
        <time>2012-05-05T10:39:02Z</time>
      </trkpt>
      <trkpt lat="44.0197" lon="7.20434">
        <ele>1204</ele>
        <time>2012-05-05T10:39:06Z</time>
      </trkpt>
      <trkpt lat="44.0197" lon="7.20435">
        <ele>1204</ele>
        <time>2012-05-05T10:39:10Z</time>
      </trkpt>
      <trkpt lat="44.01969" lon="7.20434">
        <ele>1204</ele>
        <time>2012-05-05T10:39:17Z</time>
      </trkpt>
      <trkpt lat="44.0197" lon="7.20434">
        <ele>1204</ele>
        <time>2012-05-05T10:39:19Z</time>
      </trkpt>
      <trkpt lat="44.0197" lon="7.20433">
        <ele>1204</ele>
        <time>2012-05-05T10:39:22Z</time>
      </trkpt>
      <trkpt lat="44.01971" lon="7.20431">
        <ele>1204</ele>
        <time>2012-05-05T10:39:29Z</time>
      </trkpt>
      <trkpt lat="44.01971" lon="7.20431">
        <ele>1204</ele>
        <time>2012-05-05T10:39:30Z</time>
      </trkpt>
      <trkpt lat="44.01969" lon="7.2043">
        <ele>1204</ele>
        <time>2012-05-05T10:39:36Z</time>
      </trkpt>
      <trkpt lat="44.01969" lon="7.20432">
        <ele>1204</ele>
        <time>2012-05-05T10:39:43Z</time>
      </trkpt>
      <trkpt lat="44.0197" lon="7.20431">
        <ele>1204</ele>
        <time>2012-05-05T10:39:50Z</time>
      </trkpt>
      <trkpt lat="44.0197" lon="7.20431">
        <ele>1204</ele>
        <time>2012-05-05T10:39:52Z</time>
      </trkpt>
      <trkpt lat="44.0197" lon="7.20431">
        <ele>1204</ele>
        <time>2012-05-05T10:39:55Z</time>
      </trkpt>
      <trkpt lat="44.01971" lon="7.20432">
        <ele>1204</ele>
        <time>2012-05-05T10:39:58Z</time>
      </trkpt>
      <trkpt lat="44.01971" lon="7.20431">
        <ele>1204</ele>
        <time>2012-05-05T10:40:01Z</time>
      </trkpt>
      <trkpt lat="44.01971" lon="7.20431">
        <ele>1204</ele>
        <time>2012-05-05T10:40:02Z</time>
      </trkpt>
      <trkpt lat="44.01971" lon="7.20432">
        <ele>1204</ele>
        <time>2012-05-05T10:40:08Z</time>
      </trkpt>
      <trkpt lat="44.01971" lon="7.20432">
        <ele>1204</ele>
        <time>2012-05-05T10:40:09Z</time>
      </trkpt>
      <trkpt lat="44.01972" lon="7.20433">
        <ele>1204</ele>
        <time>2012-05-05T10:40:15Z</time>
      </trkpt>
      <trkpt lat="44.01975" lon="7.20432">
        <ele>1204</ele>
        <time>2012-05-05T10:40:16Z</time>
      </trkpt>
      <trkpt lat="44.01984" lon="7.20428">
        <ele>1204</ele>
        <time>2012-05-05T10:40:19Z</time>
      </trkpt>
      <trkpt lat="44.01986" lon="7.20425">
        <ele>1204</ele>
        <time>2012-05-05T10:40:20Z</time>
      </trkpt>
      <trkpt lat="44.0199" lon="7.20418">
        <ele>1204</ele>
        <time>2012-05-05T10:40:24Z</time>
      </trkpt>
      <trkpt lat="44.01991" lon="7.20414">
        <ele>1204</ele>
        <time>2012-05-05T10:40:27Z</time>
      </trkpt>
      <trkpt lat="44.01991" lon="7.20413">
        <ele>1204</ele>
        <time>2012-05-05T10:40:30Z</time>
      </trkpt>
      <trkpt lat="44.01991" lon="7.20412">
        <ele>1204</ele>
        <time>2012-05-05T10:40:35Z</time>
      </trkpt>
      <trkpt lat="44.0199" lon="7.20411">
        <ele>1204</ele>
        <time>2012-05-05T10:40:39Z</time>
      </trkpt>
      <trkpt lat="44.01987" lon="7.20411">
        <ele>1204</ele>
        <time>2012-05-05T10:40:45Z</time>
      </trkpt>
      <trkpt lat="44.01987" lon="7.20411">
        <ele>1204</ele>
        <time>2012-05-05T10:40:49Z</time>
      </trkpt>
      <trkpt lat="44.01989" lon="7.20409">
        <ele>1204</ele>
        <time>2012-05-05T10:40:53Z</time>
      </trkpt>
      <trkpt lat="44.01989" lon="7.2041">
        <ele>1204</ele>
        <time>2012-05-05T10:40:58Z</time>
      </trkpt>
      <trkpt lat="44.01992" lon="7.2041">
        <ele>1204</ele>
        <time>2012-05-05T10:41:03Z</time>
      </trkpt>
      <trkpt lat="44.01994" lon="7.20408">
        <ele>1204</ele>
        <time>2012-05-05T10:41:05Z</time>
      </trkpt>
      <trkpt lat="44.01996" lon="7.20404">
        <ele>1204</ele>
        <time>2012-05-05T10:41:08Z</time>
      </trkpt>
      <trkpt lat="44.01996" lon="7.20404">
        <ele>1204</ele>
        <time>2012-05-05T10:41:13Z</time>
      </trkpt>
      <trkpt lat="44.01996" lon="7.20405">
        <ele>1204</ele>
        <time>2012-05-05T10:41:14Z</time>
      </trkpt>
      <trkpt lat="44.01996" lon="7.20404">
        <ele>1204</ele>
        <time>2012-05-05T10:41:21Z</time>
      </trkpt>
      <trkpt lat="44.01997" lon="7.20404">
        <ele>1204</ele>
        <time>2012-05-05T10:41:28Z</time>
      </trkpt>
      <trkpt lat="44.01997" lon="7.20405">
        <ele>1205</ele>
        <time>2012-05-05T10:41:33Z</time>
      </trkpt>
      <trkpt lat="44.01997" lon="7.20406">
        <ele>1205</ele>
        <time>2012-05-05T10:41:36Z</time>
      </trkpt>
      <trkpt lat="44.01998" lon="7.20406">
        <ele>1205</ele>
        <time>2012-05-05T10:41:40Z</time>
      </trkpt>
      <trkpt lat="44.02002" lon="7.20405">
        <ele>1206.199951172</ele>
        <time>2012-05-05T10:41:47Z</time>
      </trkpt>
      <trkpt lat="44.02004" lon="7.20405">
        <ele>1207.199951172</ele>
        <time>2012-05-05T10:41:49Z</time>
      </trkpt>
      <trkpt lat="44.02007" lon="7.20407">
        <ele>1207.199951172</ele>
        <time>2012-05-05T10:41:52Z</time>
      </trkpt>
      <trkpt lat="44.02008" lon="7.20408">
        <ele>1208.400024414</ele>
        <time>2012-05-05T10:41:53Z</time>
      </trkpt>
      <trkpt lat="44.02011" lon="7.20408">
        <ele>1208.400024414</ele>
        <time>2012-05-05T10:41:56Z</time>
      </trkpt>
      <trkpt lat="44.02011" lon="7.20408">
        <ele>1208.400024414</ele>
        <time>2012-05-05T10:41:59Z</time>
      </trkpt>
      <trkpt lat="44.02011" lon="7.20408">
        <ele>1209.800048828</ele>
        <time>2012-05-05T10:42:00Z</time>
      </trkpt>
      <trkpt lat="44.02011" lon="7.20408">
        <ele>1209.800048828</ele>
        <time>2012-05-05T10:42:03Z</time>
      </trkpt>
      <trkpt lat="44.02014" lon="7.20409">
        <ele>1209.800048828</ele>
        <time>2012-05-05T10:42:06Z</time>
      </trkpt>
      <trkpt lat="44.02018" lon="7.20409">
        <ele>1210.800048828</ele>
        <time>2012-05-05T10:42:10Z</time>
      </trkpt>
      <trkpt lat="44.02019" lon="7.20409">
        <ele>1210.800048828</ele>
        <time>2012-05-05T10:42:11Z</time>
      </trkpt>
      <trkpt lat="44.0202" lon="7.2041">
        <ele>1211.800048828</ele>
        <time>2012-05-05T10:42:12Z</time>
      </trkpt>
      <trkpt lat="44.02021" lon="7.20412">
        <ele>1212.800048828</ele>
        <time>2012-05-05T10:42:15Z</time>
      </trkpt>
      <trkpt lat="44.02023" lon="7.20413">
        <ele>1213.800048828</ele>
        <time>2012-05-05T10:42:19Z</time>
      </trkpt>
      <trkpt lat="44.02026" lon="7.20411">
        <ele>1213.800048828</ele>
        <time>2012-05-05T10:42:23Z</time>
      </trkpt>
      <trkpt lat="44.02027" lon="7.2041">
        <ele>1213.800048828</ele>
        <time>2012-05-05T10:42:24Z</time>
      </trkpt>
      <trkpt lat="44.02029" lon="7.20409">
        <ele>1215</ele>
        <time>2012-05-05T10:42:26Z</time>
      </trkpt>
      <trkpt lat="44.02032" lon="7.2041">
        <ele>1216.400024414</ele>
        <time>2012-05-05T10:42:31Z</time>
      </trkpt>
      <trkpt lat="44.02033" lon="7.20411">
        <ele>1217.800048828</ele>
        <time>2012-05-05T10:42:35Z</time>
      </trkpt>
      <trkpt lat="44.02034" lon="7.2041">
        <ele>1217.800048828</ele>
        <time>2012-05-05T10:42:37Z</time>
      </trkpt>
      <trkpt lat="44.02035" lon="7.2041">
        <ele>1219</ele>
        <time>2012-05-05T10:42:40Z</time>
      </trkpt>
      <trkpt lat="44.02036" lon="7.2041">
        <ele>1219</ele>
        <time>2012-05-05T10:42:44Z</time>
      </trkpt>
      <trkpt lat="44.02037" lon="7.20407">
        <ele>1219</ele>
        <time>2012-05-05T10:42:49Z</time>
      </trkpt>
      <trkpt lat="44.02042" lon="7.20407">
        <ele>1220.199951172</ele>
        <time>2012-05-05T10:42:54Z</time>
      </trkpt>
      <trkpt lat="44.02042" lon="7.2041">
        <ele>1221.199951172</ele>
        <time>2012-05-05T10:42:57Z</time>
      </trkpt>
      <trkpt lat="44.02043" lon="7.20412">
        <ele>1221.199951172</ele>
        <time>2012-05-05T10:42:59Z</time>
      </trkpt>
      <trkpt lat="44.02043" lon="7.20414">
        <ele>1222.199951172</ele>
        <time>2012-05-05T10:43:01Z</time>
      </trkpt>
      <trkpt lat="44.02043" lon="7.20415">
        <ele>1222.199951172</ele>
        <time>2012-05-05T10:43:02Z</time>
      </trkpt>
      <trkpt lat="44.02043" lon="7.20416">
        <ele>1222.199951172</ele>
        <time>2012-05-05T10:43:04Z</time>
      </trkpt>
      <trkpt lat="44.02044" lon="7.20416">
        <ele>1223.199951172</ele>
        <time>2012-05-05T10:43:05Z</time>
      </trkpt>
      <trkpt lat="44.02043" lon="7.20418">
        <ele>1224.400024414</ele>
        <time>2012-05-05T10:43:08Z</time>
      </trkpt>
      <trkpt lat="44.02043" lon="7.20419">
        <ele>1224.400024414</ele>
        <time>2012-05-05T10:43:11Z</time>
      </trkpt>
      <trkpt lat="44.02044" lon="7.20419">
        <ele>1224.400024414</ele>
        <time>2012-05-05T10:43:18Z</time>
      </trkpt>
      <trkpt lat="44.02045" lon="7.20419">
        <ele>1225.400024414</ele>
        <time>2012-05-05T10:43:23Z</time>
      </trkpt>
      <trkpt lat="44.02047" lon="7.20419">
        <ele>1225.400024414</ele>
        <time>2012-05-05T10:43:25Z</time>
      </trkpt>
      <trkpt lat="44.02047" lon="7.20418">
        <ele>1226.400024414</ele>
        <time>2012-05-05T10:43:26Z</time>
      </trkpt>
      <trkpt lat="44.0205" lon="7.2042">
        <ele>1227.400024414</ele>
        <time>2012-05-05T10:43:30Z</time>
      </trkpt>
      <trkpt lat="44.0205" lon="7.20421">
        <ele>1228.800048828</ele>
        <time>2012-05-05T10:43:31Z</time>
      </trkpt>
      <trkpt lat="44.02051" lon="7.20421">
        <ele>1228.800048828</ele>
        <time>2012-05-05T10:43:36Z</time>
      </trkpt>
      <trkpt lat="44.02051" lon="7.20422">
        <ele>1228.800048828</ele>
        <time>2012-05-05T10:43:43Z</time>
      </trkpt>
      <trkpt lat="44.02052" lon="7.20422">
        <ele>1228.800048828</ele>
        <time>2012-05-05T10:43:47Z</time>
      </trkpt>
      <trkpt lat="44.02053" lon="7.20423">
        <ele>1228.800048828</ele>
        <time>2012-05-05T10:43:48Z</time>
      </trkpt>
      <trkpt lat="44.02052" lon="7.20426">
        <ele>1228.800048828</ele>
        <time>2012-05-05T10:43:53Z</time>
      </trkpt>
      <trkpt lat="44.02052" lon="7.20427">
        <ele>1230</ele>
        <time>2012-05-05T10:43:54Z</time>
      </trkpt>
      <trkpt lat="44.02052" lon="7.20429">
        <ele>1231.199951172</ele>
        <time>2012-05-05T10:43:58Z</time>
      </trkpt>
      <trkpt lat="44.02051" lon="7.20429">
        <ele>1231.199951172</ele>
        <time>2012-05-05T10:44:02Z</time>
      </trkpt>
      <trkpt lat="44.02051" lon="7.20429">
        <ele>1231.199951172</ele>
        <time>2012-05-05T10:44:07Z</time>
      </trkpt>
      <trkpt lat="44.02051" lon="7.20429">
        <ele>1231.199951172</ele>
        <time>2012-05-05T10:44:09Z</time>
      </trkpt>
      <trkpt lat="44.02052" lon="7.2043">
        <ele>1231.199951172</ele>
        <time>2012-05-05T10:44:15Z</time>
      </trkpt>
      <trkpt lat="44.02051" lon="7.20431">
        <ele>1231.199951172</ele>
        <time>2012-05-05T10:44:21Z</time>
      </trkpt>
      <trkpt lat="44.02051" lon="7.2043">
        <ele>1231.199951172</ele>
        <time>2012-05-05T10:44:24Z</time>
      </trkpt>
      <trkpt lat="44.02051" lon="7.20432">
        <ele>1232.199951172</ele>
        <time>2012-05-05T10:44:27Z</time>
      </trkpt>
      <trkpt lat="44.02052" lon="7.20433">
        <ele>1232.199951172</ele>
        <time>2012-05-05T10:44:28Z</time>
      </trkpt>
      <trkpt lat="44.02052" lon="7.20433">
        <ele>1233.400024414</ele>
        <time>2012-05-05T10:44:30Z</time>
      </trkpt>
      <trkpt lat="44.02052" lon="7.20434">
        <ele>1233.400024414</ele>
        <time>2012-05-05T10:44:34Z</time>
      </trkpt>
      <trkpt lat="44.02053" lon="7.20434">
        <ele>1233.400024414</ele>
        <time>2012-05-05T10:44:40Z</time>
      </trkpt>
      <trkpt lat="44.02053" lon="7.20433">
        <ele>1233.400024414</ele>
        <time>2012-05-05T10:44:42Z</time>
      </trkpt>
      <trkpt lat="44.02057" lon="7.20429">
        <ele>1233.400024414</ele>
        <time>2012-05-05T10:44:48Z</time>
      </trkpt>
      <trkpt lat="44.02058" lon="7.20429">
        <ele>1234.599975586</ele>
        <time>2012-05-05T10:44:49Z</time>
      </trkpt>
      <trkpt lat="44.02058" lon="7.20429">
        <ele>1234.599975586</ele>
        <time>2012-05-05T10:44:52Z</time>
      </trkpt>
      <trkpt lat="44.0206" lon="7.2043">
        <ele>1234.599975586</ele>
        <time>2012-05-05T10:45:00Z</time>
      </trkpt>
      <trkpt lat="44.02062" lon="7.2043">
        <ele>1235.599975586</ele>
        <time>2012-05-05T10:45:02Z</time>
      </trkpt>
      <trkpt lat="44.02063" lon="7.20431">
        <ele>1236.599975586</ele>
        <time>2012-05-05T10:45:04Z</time>
      </trkpt>
      <trkpt lat="44.02063" lon="7.20431">
        <ele>1236.599975586</ele>
        <time>2012-05-05T10:45:05Z</time>
      </trkpt>
      <trkpt lat="44.02065" lon="7.20432">
        <ele>1238</ele>
        <time>2012-05-05T10:45:07Z</time>
      </trkpt>
      <trkpt lat="44.02066" lon="7.20433">
        <ele>1238</ele>
        <time>2012-05-05T10:45:10Z</time>
      </trkpt>
      <trkpt lat="44.02067" lon="7.20435">
        <ele>1239</ele>
        <time>2012-05-05T10:45:12Z</time>
      </trkpt>
      <trkpt lat="44.02068" lon="7.20435">
        <ele>1240.199951172</ele>
        <time>2012-05-05T10:45:15Z</time>
      </trkpt>
      <trkpt lat="44.02067" lon="7.20435">
        <ele>1240.199951172</ele>
        <time>2012-05-05T10:45:17Z</time>
      </trkpt>
      <trkpt lat="44.02067" lon="7.20435">
        <ele>1240.199951172</ele>
        <time>2012-05-05T10:45:21Z</time>
      </trkpt>
      <trkpt lat="44.02067" lon="7.20435">
        <ele>1240.199951172</ele>
        <time>2012-05-05T10:45:24Z</time>
      </trkpt>
      <trkpt lat="44.02069" lon="7.20435">
        <ele>1240.199951172</ele>
        <time>2012-05-05T10:45:31Z</time>
      </trkpt>
      <trkpt lat="44.02069" lon="7.20436">
        <ele>1240.199951172</ele>
        <time>2012-05-05T10:45:37Z</time>
      </trkpt>
      <trkpt lat="44.02072" lon="7.20436">
        <ele>1241.400024414</ele>
        <time>2012-05-05T10:45:41Z</time>
      </trkpt>
      <trkpt lat="44.02073" lon="7.20436">
        <ele>1241.400024414</ele>
        <time>2012-05-05T10:45:42Z</time>
      </trkpt>
      <trkpt lat="44.02075" lon="7.20436">
        <ele>1242.400024414</ele>
        <time>2012-05-05T10:45:44Z</time>
      </trkpt>
      <trkpt lat="44.02075" lon="7.20437">
        <ele>1243.599975586</ele>
        <time>2012-05-05T10:45:46Z</time>
      </trkpt>
      <trkpt lat="44.02076" lon="7.20437">
        <ele>1243.599975586</ele>
        <time>2012-05-05T10:45:48Z</time>
      </trkpt>
      <trkpt lat="44.02078" lon="7.20437">
        <ele>1244.599975586</ele>
        <time>2012-05-05T10:45:51Z</time>
      </trkpt>
      <trkpt lat="44.02079" lon="7.20437">
        <ele>1245.599975586</ele>
        <time>2012-05-05T10:45:54Z</time>
      </trkpt>
      <trkpt lat="44.0208" lon="7.20437">
        <ele>1246.800048828</ele>
        <time>2012-05-05T10:45:59Z</time>
      </trkpt>
      <trkpt lat="44.0208" lon="7.20437">
        <ele>1246.800048828</ele>
        <time>2012-05-05T10:46:00Z</time>
      </trkpt>
      <trkpt lat="44.0208" lon="7.20437">
        <ele>1246.800048828</ele>
        <time>2012-05-05T10:46:04Z</time>
      </trkpt>
      <trkpt lat="44.0208" lon="7.20438">
        <ele>1246.800048828</ele>
        <time>2012-05-05T10:46:06Z</time>
      </trkpt>
      <trkpt lat="44.02081" lon="7.20439">
        <ele>1247.800048828</ele>
        <time>2012-05-05T10:46:09Z</time>
      </trkpt>
      <trkpt lat="44.02082" lon="7.2044">
        <ele>1249</ele>
        <time>2012-05-05T10:46:11Z</time>
      </trkpt>
      <trkpt lat="44.02082" lon="7.20441">
        <ele>1249</ele>
        <time>2012-05-05T10:46:12Z</time>
      </trkpt>
      <trkpt lat="44.02083" lon="7.20443">
        <ele>1250.199951172</ele>
        <time>2012-05-05T10:46:16Z</time>
      </trkpt>
      <trkpt lat="44.02084" lon="7.20444">
        <ele>1250.199951172</ele>
        <time>2012-05-05T10:46:18Z</time>
      </trkpt>
      <trkpt lat="44.02085" lon="7.20444">
        <ele>1251.400024414</ele>
        <time>2012-05-05T10:46:20Z</time>
      </trkpt>
      <trkpt lat="44.02085" lon="7.20444">
        <ele>1251.400024414</ele>
        <time>2012-05-05T10:46:24Z</time>
      </trkpt>
      <trkpt lat="44.02086" lon="7.20446">
        <ele>1251.400024414</ele>
        <time>2012-05-05T10:46:29Z</time>
      </trkpt>
      <trkpt lat="44.02088" lon="7.20447">
        <ele>1252.400024414</ele>
        <time>2012-05-05T10:46:33Z</time>
      </trkpt>
      <trkpt lat="44.02089" lon="7.20447">
        <ele>1253.800048828</ele>
        <time>2012-05-05T10:46:34Z</time>
      </trkpt>
      <trkpt lat="44.02093" lon="7.20446">
        <ele>1253.800048828</ele>
        <time>2012-05-05T10:46:40Z</time>
      </trkpt>
      <trkpt lat="44.02096" lon="7.20445">
        <ele>1254.800048828</ele>
        <time>2012-05-05T10:46:44Z</time>
      </trkpt>
      <trkpt lat="44.02098" lon="7.20446">
        <ele>1254.800048828</ele>
        <time>2012-05-05T10:46:46Z</time>
      </trkpt>
      <trkpt lat="44.02102" lon="7.20449">
        <ele>1255.800048828</ele>
        <time>2012-05-05T10:46:50Z</time>
      </trkpt>
      <trkpt lat="44.02104" lon="7.20451">
        <ele>1256.800048828</ele>
        <time>2012-05-05T10:46:53Z</time>
      </trkpt>
      <trkpt lat="44.02105" lon="7.20451">
        <ele>1256.800048828</ele>
        <time>2012-05-05T10:46:54Z</time>
      </trkpt>
      <trkpt lat="44.02106" lon="7.20451">
        <ele>1256.800048828</ele>
        <time>2012-05-05T10:46:58Z</time>
      </trkpt>
      <trkpt lat="44.02108" lon="7.20452">
        <ele>1258</ele>
        <time>2012-05-05T10:47:04Z</time>
      </trkpt>
      <trkpt lat="44.02109" lon="7.20453">
        <ele>1258</ele>
        <time>2012-05-05T10:47:05Z</time>
      </trkpt>
      <trkpt lat="44.02113" lon="7.20453">
        <ele>1258</ele>
        <time>2012-05-05T10:47:11Z</time>
      </trkpt>
      <trkpt lat="44.02115" lon="7.2045">
        <ele>1259</ele>
        <time>2012-05-05T10:47:13Z</time>
      </trkpt>
      <trkpt lat="44.0212" lon="7.20442">
        <ele>1259</ele>
        <time>2012-05-05T10:47:19Z</time>
      </trkpt>
      <trkpt lat="44.02125" lon="7.20438">
        <ele>1260</ele>
        <time>2012-05-05T10:47:23Z</time>
      </trkpt>
      <trkpt lat="44.02131" lon="7.20436">
        <ele>1260</ele>
        <time>2012-05-05T10:47:28Z</time>
      </trkpt>
      <trkpt lat="44.02135" lon="7.20435">
        <ele>1260</ele>
        <time>2012-05-05T10:47:31Z</time>
      </trkpt>
      <trkpt lat="44.02136" lon="7.20434">
        <ele>1261.400024414</ele>
        <time>2012-05-05T10:47:32Z</time>
      </trkpt>
      <trkpt lat="44.02136" lon="7.20434">
        <ele>1261.400024414</ele>
        <time>2012-05-05T10:47:34Z</time>
      </trkpt>
      <trkpt lat="44.02137" lon="7.20435">
        <ele>1261.400024414</ele>
        <time>2012-05-05T10:47:36Z</time>
      </trkpt>
      <trkpt lat="44.02138" lon="7.20436">
        <ele>1261.400024414</ele>
        <time>2012-05-05T10:47:38Z</time>
      </trkpt>
      <trkpt lat="44.02138" lon="7.20436">
        <ele>1258.199951172</ele>
        <time>2012-05-05T10:47:40Z</time>
      </trkpt>
      <trkpt lat="44.02138" lon="7.20435">
        <ele>1258.199951172</ele>
        <time>2012-05-05T10:47:44Z</time>
      </trkpt>
      <trkpt lat="44.02137" lon="7.20432">
        <ele>1261.599975586</ele>
        <time>2012-05-05T10:47:49Z</time>
      </trkpt>
      <trkpt lat="44.02137" lon="7.20432">
        <ele>1262.599975586</ele>
        <time>2012-05-05T10:47:50Z</time>
      </trkpt>
      <trkpt lat="44.02138" lon="7.20433">
        <ele>1262.599975586</ele>
        <time>2012-05-05T10:47:54Z</time>
      </trkpt>
      <trkpt lat="44.02139" lon="7.20434">
        <ele>1262.599975586</ele>
        <time>2012-05-05T10:47:59Z</time>
      </trkpt>
      <trkpt lat="44.02138" lon="7.20433">
        <ele>1262.599975586</ele>
        <time>2012-05-05T10:48:03Z</time>
      </trkpt>
      <trkpt lat="44.02138" lon="7.20434">
        <ele>1262.599975586</ele>
        <time>2012-05-05T10:48:06Z</time>
      </trkpt>
      <trkpt lat="44.02135" lon="7.20436">
        <ele>1262.599975586</ele>
        <time>2012-05-05T10:48:10Z</time>
      </trkpt>
      <trkpt lat="44.02129" lon="7.20438">
        <ele>1262.599975586</ele>
        <time>2012-05-05T10:48:15Z</time>
      </trkpt>
      <trkpt lat="44.0212" lon="7.20448">
        <ele>1259.599975586</ele>
        <time>2012-05-05T10:48:23Z</time>
      </trkpt>
      <trkpt lat="44.02116" lon="7.20451">
        <ele>1259.599975586</ele>
        <time>2012-05-05T10:48:27Z</time>
      </trkpt>
      <trkpt lat="44.02115" lon="7.20451">
        <ele>1259.599975586</ele>
        <time>2012-05-05T10:48:29Z</time>
      </trkpt>
      <trkpt lat="44.02115" lon="7.2045">
        <ele>1259.599975586</ele>
        <time>2012-05-05T10:48:36Z</time>
      </trkpt>
      <trkpt lat="44.02119" lon="7.20444">
        <ele>1259.599975586</ele>
        <time>2012-05-05T10:48:41Z</time>
      </trkpt>
      <trkpt lat="44.02121" lon="7.20443">
        <ele>1259.599975586</ele>
        <time>2012-05-05T10:48:42Z</time>
      </trkpt>
      <trkpt lat="44.02125" lon="7.2044">
        <ele>1259.599975586</ele>
        <time>2012-05-05T10:48:44Z</time>
      </trkpt>
      <trkpt lat="44.02137" lon="7.20435">
        <ele>1259.599975586</ele>
        <time>2012-05-05T10:48:49Z</time>
      </trkpt>
      <trkpt lat="44.02142" lon="7.20433">
        <ele>1262.599975586</ele>
        <time>2012-05-05T10:48:51Z</time>
      </trkpt>
      <trkpt lat="44.02147" lon="7.20431">
        <ele>1262.599975586</ele>
        <time>2012-05-05T10:48:53Z</time>
      </trkpt>
      <trkpt lat="44.02153" lon="7.20428">
        <ele>1263.800048828</ele>
        <time>2012-05-05T10:48:55Z</time>
      </trkpt>
      <trkpt lat="44.0216" lon="7.20425">
        <ele>1263.800048828</ele>
        <time>2012-05-05T10:48:57Z</time>
      </trkpt>
      <trkpt lat="44.02163" lon="7.20424">
        <ele>1265</ele>
        <time>2012-05-05T10:48:58Z</time>
      </trkpt>
      <trkpt lat="44.02175" lon="7.20424">
        <ele>1266</ele>
        <time>2012-05-05T10:49:01Z</time>
      </trkpt>
      <trkpt lat="44.02188" lon="7.20422">
        <ele>1266</ele>
        <time>2012-05-05T10:49:05Z</time>
      </trkpt>
      <trkpt lat="44.0219" lon="7.20422">
        <ele>1266</ele>
        <time>2012-05-05T10:49:06Z</time>
      </trkpt>
      <trkpt lat="44.02192" lon="7.20422">
        <ele>1267</ele>
        <time>2012-05-05T10:49:08Z</time>
      </trkpt>
      <trkpt lat="44.02198" lon="7.2042">
        <ele>1267</ele>
        <time>2012-05-05T10:49:12Z</time>
      </trkpt>
      <trkpt lat="44.02201" lon="7.20418">
        <ele>1267</ele>
        <time>2012-05-05T10:49:14Z</time>
      </trkpt>
      <trkpt lat="44.02202" lon="7.20418">
        <ele>1268.199951172</ele>
        <time>2012-05-05T10:49:15Z</time>
      </trkpt>
      <trkpt lat="44.02209" lon="7.20415">
        <ele>1268.199951172</ele>
        <time>2012-05-05T10:49:18Z</time>
      </trkpt>
      <trkpt lat="44.02212" lon="7.20414">
        <ele>1269.400024414</ele>
        <time>2012-05-05T10:49:19Z</time>
      </trkpt>
      <trkpt lat="44.02224" lon="7.20411">
        <ele>1269.400024414</ele>
        <time>2012-05-05T10:49:22Z</time>
      </trkpt>
      <trkpt lat="44.02232" lon="7.20411">
        <ele>1269.400024414</ele>
        <time>2012-05-05T10:49:25Z</time>
      </trkpt>
      <trkpt lat="44.02235" lon="7.2041">
        <ele>1269.400024414</ele>
        <time>2012-05-05T10:49:27Z</time>
      </trkpt>
      <trkpt lat="44.02239" lon="7.2041">
        <ele>1270.599975586</ele>
        <time>2012-05-05T10:49:29Z</time>
      </trkpt>
      <trkpt lat="44.0225" lon="7.20408">
        <ele>1270.599975586</ele>
        <time>2012-05-05T10:49:35Z</time>
      </trkpt>
      <trkpt lat="44.02255" lon="7.20406">
        <ele>1271.800048828</ele>
        <time>2012-05-05T10:49:37Z</time>
      </trkpt>
      <trkpt lat="44.02267" lon="7.20404">
        <ele>1272.800048828</ele>
        <time>2012-05-05T10:49:41Z</time>
      </trkpt>
      <trkpt lat="44.0227" lon="7.20402">
        <ele>1272.800048828</ele>
        <time>2012-05-05T10:49:42Z</time>
      </trkpt>
      <trkpt lat="44.02277" lon="7.204">
        <ele>1274</ele>
        <time>2012-05-05T10:49:45Z</time>
      </trkpt>
      <trkpt lat="44.02285" lon="7.20395">
        <ele>1274</ele>
        <time>2012-05-05T10:49:48Z</time>
      </trkpt>
      <trkpt lat="44.02288" lon="7.20393">
        <ele>1275</ele>
        <time>2012-05-05T10:49:49Z</time>
      </trkpt>
      <trkpt lat="44.02303" lon="7.20385">
        <ele>1276.199951172</ele>
        <time>2012-05-05T10:49:54Z</time>
      </trkpt>
      <trkpt lat="44.02314" lon="7.20376">
        <ele>1277.199951172</ele>
        <time>2012-05-05T10:49:58Z</time>
      </trkpt>
      <trkpt lat="44.02317" lon="7.20373">
        <ele>1277.199951172</ele>
        <time>2012-05-05T10:49:59Z</time>
      </trkpt>
      <trkpt lat="44.02324" lon="7.20368">
        <ele>1278.400024414</ele>
        <time>2012-05-05T10:50:01Z</time>
      </trkpt>
      <trkpt lat="44.02333" lon="7.20361">
        <ele>1279.400024414</ele>
        <time>2012-05-05T10:50:04Z</time>
      </trkpt>
      <trkpt lat="44.0234" lon="7.20352">
        <ele>1279.400024414</ele>
        <time>2012-05-05T10:50:07Z</time>
      </trkpt>
      <trkpt lat="44.02345" lon="7.20345">
        <ele>1280.599975586</ele>
        <time>2012-05-05T10:50:09Z</time>
      </trkpt>
      <trkpt lat="44.0235" lon="7.20334">
        <ele>1280.599975586</ele>
        <time>2012-05-05T10:50:12Z</time>
      </trkpt>
      <trkpt lat="44.02352" lon="7.2033">
        <ele>1281.599975586</ele>
        <time>2012-05-05T10:50:13Z</time>
      </trkpt>
      <trkpt lat="44.02359" lon="7.20313">
        <ele>1282.800048828</ele>
        <time>2012-05-05T10:50:17Z</time>
      </trkpt>
      <trkpt lat="44.02362" lon="7.20307">
        <ele>1282.800048828</ele>
        <time>2012-05-05T10:50:19Z</time>
      </trkpt>
      <trkpt lat="44.02368" lon="7.20298">
        <ele>1283.800048828</ele>
        <time>2012-05-05T10:50:22Z</time>
      </trkpt>
      <trkpt lat="44.02371" lon="7.20292">
        <ele>1283.800048828</ele>
        <time>2012-05-05T10:50:24Z</time>
      </trkpt>
      <trkpt lat="44.02373" lon="7.20287">
        <ele>1285</ele>
        <time>2012-05-05T10:50:26Z</time>
      </trkpt>
      <trkpt lat="44.02377" lon="7.20279">
        <ele>1285</ele>
        <time>2012-05-05T10:50:30Z</time>
      </trkpt>
      <trkpt lat="44.02387" lon="7.20263">
        <ele>1285</ele>
        <time>2012-05-05T10:50:36Z</time>
      </trkpt>
      <trkpt lat="44.02388" lon="7.2026">
        <ele>1286</ele>
        <time>2012-05-05T10:50:37Z</time>
      </trkpt>
      <trkpt lat="44.02395" lon="7.20252">
        <ele>1287.400024414</ele>
        <time>2012-05-05T10:50:41Z</time>
      </trkpt>
      <trkpt lat="44.02396" lon="7.20251">
        <ele>1287.400024414</ele>
        <time>2012-05-05T10:50:42Z</time>
      </trkpt>
      <trkpt lat="44.02405" lon="7.20245">
        <ele>1288.599975586</ele>
        <time>2012-05-05T10:50:47Z</time>
      </trkpt>
      <trkpt lat="44.02407" lon="7.20244">
        <ele>1288.599975586</ele>
        <time>2012-05-05T10:50:48Z</time>
      </trkpt>
      <trkpt lat="44.02408" lon="7.20243">
        <ele>1288.599975586</ele>
        <time>2012-05-05T10:50:52Z</time>
      </trkpt>
      <trkpt lat="44.02409" lon="7.20238">
        <ele>1288.599975586</ele>
        <time>2012-05-05T10:50:55Z</time>
      </trkpt>
      <trkpt lat="44.02409" lon="7.20237">
        <ele>1288.599975586</ele>
        <time>2012-05-05T10:50:56Z</time>
      </trkpt>
      <trkpt lat="44.02409" lon="7.20234">
        <ele>1288.599975586</ele>
        <time>2012-05-05T10:50:58Z</time>
      </trkpt>
      <trkpt lat="44.02409" lon="7.20234">
        <ele>1288.599975586</ele>
        <time>2012-05-05T10:50:59Z</time>
      </trkpt>
      <trkpt lat="44.02408" lon="7.20234">
        <ele>1288.599975586</ele>
        <time>2012-05-05T10:51:01Z</time>
      </trkpt>
      <trkpt lat="44.02409" lon="7.20237">
        <ele>1288.599975586</ele>
        <time>2012-05-05T10:51:04Z</time>
      </trkpt>
      <trkpt lat="44.02408" lon="7.20239">
        <ele>1288.599975586</ele>
        <time>2012-05-05T10:51:05Z</time>
      </trkpt>
      <trkpt lat="44.02407" lon="7.2024">
        <ele>1288.599975586</ele>
        <time>2012-05-05T10:51:08Z</time>
      </trkpt>
      <trkpt lat="44.02408" lon="7.20239">
        <ele>1288.599975586</ele>
        <time>2012-05-05T10:51:14Z</time>
      </trkpt>
      <trkpt lat="44.02412" lon="7.20237">
        <ele>1289.599975586</ele>
        <time>2012-05-05T10:51:18Z</time>
      </trkpt>
      <trkpt lat="44.02423" lon="7.20232">
        <ele>1289.599975586</ele>
        <time>2012-05-05T10:51:22Z</time>
      </trkpt>
      <trkpt lat="44.02428" lon="7.2023">
        <ele>1290.599975586</ele>
        <time>2012-05-05T10:51:24Z</time>
      </trkpt>
      <trkpt lat="44.02439" lon="7.20228">
        <ele>1291.599975586</ele>
        <time>2012-05-05T10:51:27Z</time>
      </trkpt>
      <trkpt lat="44.02446" lon="7.20226">
        <ele>1292.599975586</ele>
        <time>2012-05-05T10:51:29Z</time>
      </trkpt>
      <trkpt lat="44.0245" lon="7.20225">
        <ele>1292.599975586</ele>
        <time>2012-05-05T10:51:30Z</time>
      </trkpt>
      <trkpt lat="44.02457" lon="7.20222">
        <ele>1293.800048828</ele>
        <time>2012-05-05T10:51:32Z</time>
      </trkpt>
      <trkpt lat="44.0246" lon="7.20221">
        <ele>1293.800048828</ele>
        <time>2012-05-05T10:51:33Z</time>
      </trkpt>
      <trkpt lat="44.02471" lon="7.20216">
        <ele>1293.800048828</ele>
        <time>2012-05-05T10:51:36Z</time>
      </trkpt>
      <trkpt lat="44.02479" lon="7.20213">
        <ele>1295</ele>
        <time>2012-05-05T10:51:38Z</time>
      </trkpt>
      <trkpt lat="44.02493" lon="7.20205">
        <ele>1296</ele>
        <time>2012-05-05T10:51:42Z</time>
      </trkpt>
      <trkpt lat="44.025" lon="7.20201">
        <ele>1296</ele>
        <time>2012-05-05T10:51:44Z</time>
      </trkpt>
      <trkpt lat="44.02506" lon="7.20197">
        <ele>1297.199951172</ele>
        <time>2012-05-05T10:51:46Z</time>
      </trkpt>
      <trkpt lat="44.02518" lon="7.2019">
        <ele>1298.199951172</ele>
        <time>2012-05-05T10:51:50Z</time>
      </trkpt>
      <trkpt lat="44.02528" lon="7.20185">
        <ele>1299.199951172</ele>
        <time>2012-05-05T10:51:53Z</time>
      </trkpt>
      <trkpt lat="44.02534" lon="7.20182">
        <ele>1299.199951172</ele>
        <time>2012-05-05T10:51:55Z</time>
      </trkpt>
      <trkpt lat="44.02541" lon="7.20179">
        <ele>1300.400024414</ele>
        <time>2012-05-05T10:51:57Z</time>
      </trkpt>
      <trkpt lat="44.02547" lon="7.20176">
        <ele>1300.400024414</ele>
        <time>2012-05-05T10:51:59Z</time>
      </trkpt>
      <trkpt lat="44.0255" lon="7.20175">
        <ele>1301.400024414</ele>
        <time>2012-05-05T10:52:00Z</time>
      </trkpt>
      <trkpt lat="44.02557" lon="7.20172">
        <ele>1301.400024414</ele>
        <time>2012-05-05T10:52:02Z</time>
      </trkpt>
      <trkpt lat="44.02564" lon="7.20171">
        <ele>1302.400024414</ele>
        <time>2012-05-05T10:52:04Z</time>
      </trkpt>
      <trkpt lat="44.02571" lon="7.20171">
        <ele>1303.599975586</ele>
        <time>2012-05-05T10:52:06Z</time>
      </trkpt>
      <trkpt lat="44.02581" lon="7.20176">
        <ele>1303.599975586</ele>
        <time>2012-05-05T10:52:09Z</time>
      </trkpt>
      <trkpt lat="44.0259" lon="7.20184">
        <ele>1304.599975586</ele>
        <time>2012-05-05T10:52:12Z</time>
      </trkpt>
      <trkpt lat="44.02595" lon="7.20187">
        <ele>1304.599975586</ele>
        <time>2012-05-05T10:52:14Z</time>
      </trkpt>
      <trkpt lat="44.026" lon="7.20185">
        <ele>1304.599975586</ele>
        <time>2012-05-05T10:52:16Z</time>
      </trkpt>
      <trkpt lat="44.02602" lon="7.20184">
        <ele>1305.800048828</ele>
        <time>2012-05-05T10:52:17Z</time>
      </trkpt>
      <trkpt lat="44.02605" lon="7.20182">
        <ele>1305.800048828</ele>
        <time>2012-05-05T10:52:18Z</time>
      </trkpt>
      <trkpt lat="44.0261" lon="7.20178">
        <ele>1305.800048828</ele>
        <time>2012-05-05T10:52:21Z</time>
      </trkpt>
      <trkpt lat="44.02614" lon="7.20175">
        <ele>1306.800048828</ele>
        <time>2012-05-05T10:52:23Z</time>
      </trkpt>
      <trkpt lat="44.02616" lon="7.20174">
        <ele>1306.800048828</ele>
        <time>2012-05-05T10:52:24Z</time>
      </trkpt>
      <trkpt lat="44.02628" lon="7.20177">
        <ele>1307.800048828</ele>
        <time>2012-05-05T10:52:28Z</time>
      </trkpt>
      <trkpt lat="44.02637" lon="7.20181">
        <ele>1307.800048828</ele>
        <time>2012-05-05T10:52:32Z</time>
      </trkpt>
      <trkpt lat="44.02639" lon="7.20183">
        <ele>1307.800048828</ele>
        <time>2012-05-05T10:52:37Z</time>
      </trkpt>
      <trkpt lat="44.02643" lon="7.20186">
        <ele>1309</ele>
        <time>2012-05-05T10:52:39Z</time>
      </trkpt>
      <trkpt lat="44.02649" lon="7.20191">
        <ele>1309</ele>
        <time>2012-05-05T10:52:42Z</time>
      </trkpt>
      <trkpt lat="44.02653" lon="7.20192">
        <ele>1310</ele>
        <time>2012-05-05T10:52:44Z</time>
      </trkpt>
      <trkpt lat="44.02658" lon="7.20192">
        <ele>1310</ele>
        <time>2012-05-05T10:52:46Z</time>
      </trkpt>
      <trkpt lat="44.02665" lon="7.20189">
        <ele>1311</ele>
        <time>2012-05-05T10:52:50Z</time>
      </trkpt>
      <trkpt lat="44.02667" lon="7.20189">
        <ele>1311</ele>
        <time>2012-05-05T10:52:51Z</time>
      </trkpt>
      <trkpt lat="44.02671" lon="7.20186">
        <ele>1311</ele>
        <time>2012-05-05T10:52:54Z</time>
      </trkpt>
      <trkpt lat="44.02675" lon="7.20184">
        <ele>1312</ele>
        <time>2012-05-05T10:52:57Z</time>
      </trkpt>
      <trkpt lat="44.02676" lon="7.20184">
        <ele>1312</ele>
        <time>2012-05-05T10:52:58Z</time>
      </trkpt>
      <trkpt lat="44.02685" lon="7.20181">
        <ele>1313.199951172</ele>
        <time>2012-05-05T10:53:03Z</time>
      </trkpt>
      <trkpt lat="44.02693" lon="7.20179">
        <ele>1313.199951172</ele>
        <time>2012-05-05T10:53:05Z</time>
      </trkpt>
      <trkpt lat="44.02701" lon="7.20177">
        <ele>1314.199951172</ele>
        <time>2012-05-05T10:53:08Z</time>
      </trkpt>
      <trkpt lat="44.02712" lon="7.20176">
        <ele>1314.199951172</ele>
        <time>2012-05-05T10:53:12Z</time>
      </trkpt>
      <trkpt lat="44.02715" lon="7.20175">
        <ele>1315.199951172</ele>
        <time>2012-05-05T10:53:13Z</time>
      </trkpt>
      <trkpt lat="44.02725" lon="7.20174">
        <ele>1316.400024414</ele>
        <time>2012-05-05T10:53:16Z</time>
      </trkpt>
      <trkpt lat="44.02731" lon="7.20174">
        <ele>1316.400024414</ele>
        <time>2012-05-05T10:53:18Z</time>
      </trkpt>
      <trkpt lat="44.02736" lon="7.20173">
        <ele>1316.400024414</ele>
        <time>2012-05-05T10:53:20Z</time>
      </trkpt>
      <trkpt lat="44.02741" lon="7.20173">
        <ele>1316.400024414</ele>
        <time>2012-05-05T10:53:22Z</time>
      </trkpt>
      <trkpt lat="44.02746" lon="7.20171">
        <ele>1317.400024414</ele>
        <time>2012-05-05T10:53:24Z</time>
      </trkpt>
      <trkpt lat="44.02759" lon="7.20166">
        <ele>1318.400024414</ele>
        <time>2012-05-05T10:53:29Z</time>
      </trkpt>
      <trkpt lat="44.02762" lon="7.20164">
        <ele>1318.400024414</ele>
        <time>2012-05-05T10:53:30Z</time>
      </trkpt>
      <trkpt lat="44.02769" lon="7.20162">
        <ele>1319.400024414</ele>
        <time>2012-05-05T10:53:32Z</time>
      </trkpt>
      <trkpt lat="44.02775" lon="7.20158">
        <ele>1319.400024414</ele>
        <time>2012-05-05T10:53:34Z</time>
      </trkpt>
      <trkpt lat="44.02781" lon="7.20154">
        <ele>1320.400024414</ele>
        <time>2012-05-05T10:53:36Z</time>
      </trkpt>
      <trkpt lat="44.02787" lon="7.2015">
        <ele>1321.599975586</ele>
        <time>2012-05-05T10:53:38Z</time>
      </trkpt>
      <trkpt lat="44.02793" lon="7.20148">
        <ele>1321.599975586</ele>
        <time>2012-05-05T10:53:40Z</time>
      </trkpt>
      <trkpt lat="44.02799" lon="7.20147">
        <ele>1322.599975586</ele>
        <time>2012-05-05T10:53:43Z</time>
      </trkpt>
      <trkpt lat="44.028" lon="7.20147">
        <ele>1322.599975586</ele>
        <time>2012-05-05T10:53:44Z</time>
      </trkpt>
      <trkpt lat="44.02807" lon="7.20138">
        <ele>1322.599975586</ele>
        <time>2012-05-05T10:53:50Z</time>
      </trkpt>
      <trkpt lat="44.02812" lon="7.20127">
        <ele>1323.599975586</ele>
        <time>2012-05-05T10:53:53Z</time>
      </trkpt>
      <trkpt lat="44.02815" lon="7.20121">
        <ele>1323.599975586</ele>
        <time>2012-05-05T10:53:55Z</time>
      </trkpt>
      <trkpt lat="44.02823" lon="7.20111">
        <ele>1324.800048828</ele>
        <time>2012-05-05T10:54:00Z</time>
      </trkpt>
      <trkpt lat="44.02824" lon="7.20111">
        <ele>1324.800048828</ele>
        <time>2012-05-05T10:54:01Z</time>
      </trkpt>
      <trkpt lat="44.02824" lon="7.2011">
        <ele>1324.800048828</ele>
        <time>2012-05-05T10:54:06Z</time>
      </trkpt>
      <trkpt lat="44.02825" lon="7.20109">
        <ele>1324.800048828</ele>
        <time>2012-05-05T10:54:12Z</time>
      </trkpt>
      <trkpt lat="44.02827" lon="7.20106">
        <ele>1324.800048828</ele>
        <time>2012-05-05T10:54:14Z</time>
      </trkpt>
      <trkpt lat="44.02827" lon="7.20102">
        <ele>1324.800048828</ele>
        <time>2012-05-05T10:54:15Z</time>
      </trkpt>
      <trkpt lat="44.02831" lon="7.20095">
        <ele>1324.800048828</ele>
        <time>2012-05-05T10:54:17Z</time>
      </trkpt>
      <trkpt lat="44.02833" lon="7.20092">
        <ele>1324.800048828</ele>
        <time>2012-05-05T10:54:18Z</time>
      </trkpt>
      <trkpt lat="44.02837" lon="7.20087">
        <ele>1324.800048828</ele>
        <time>2012-05-05T10:54:20Z</time>
      </trkpt>
      <trkpt lat="44.02838" lon="7.20082">
        <ele>1324.800048828</ele>
        <time>2012-05-05T10:54:22Z</time>
      </trkpt>
      <trkpt lat="44.02838" lon="7.20081">
        <ele>1325.800048828</ele>
        <time>2012-05-05T10:54:23Z</time>
      </trkpt>
      <trkpt lat="44.02838" lon="7.20082">
        <ele>1325.800048828</ele>
        <time>2012-05-05T10:54:27Z</time>
      </trkpt>
      <trkpt lat="44.02836" lon="7.20084">
        <ele>1325.800048828</ele>
        <time>2012-05-05T10:54:29Z</time>
      </trkpt>
      <trkpt lat="44.02834" lon="7.20089">
        <ele>1325.800048828</ele>
        <time>2012-05-05T10:54:32Z</time>
      </trkpt>
      <trkpt lat="44.02833" lon="7.20091">
        <ele>1325.800048828</ele>
        <time>2012-05-05T10:54:34Z</time>
      </trkpt>
      <trkpt lat="44.0283" lon="7.20093">
        <ele>1325.800048828</ele>
        <time>2012-05-05T10:54:37Z</time>
      </trkpt>
      <trkpt lat="44.02828" lon="7.20094">
        <ele>1325.800048828</ele>
        <time>2012-05-05T10:54:39Z</time>
      </trkpt>
      <trkpt lat="44.02828" lon="7.20093">
        <ele>1325.800048828</ele>
        <time>2012-05-05T10:54:42Z</time>
      </trkpt>
      <trkpt lat="44.02827" lon="7.20093">
        <ele>1325.800048828</ele>
        <time>2012-05-05T10:54:44Z</time>
      </trkpt>
      <trkpt lat="44.02827" lon="7.20087">
        <ele>1325.800048828</ele>
        <time>2012-05-05T10:54:48Z</time>
      </trkpt>
      <trkpt lat="44.02834" lon="7.20076">
        <ele>1325.800048828</ele>
        <time>2012-05-05T10:54:54Z</time>
      </trkpt>
      <trkpt lat="44.02836" lon="7.20075">
        <ele>1327</ele>
        <time>2012-05-05T10:54:55Z</time>
      </trkpt>
      <trkpt lat="44.02848" lon="7.20071">
        <ele>1328</ele>
        <time>2012-05-05T10:54:59Z</time>
      </trkpt>
      <trkpt lat="44.02854" lon="7.20066">
        <ele>1328</ele>
        <time>2012-05-05T10:55:02Z</time>
      </trkpt>
      <trkpt lat="44.02857" lon="7.20065">
        <ele>1329.199951172</ele>
        <time>2012-05-05T10:55:03Z</time>
      </trkpt>
      <trkpt lat="44.0286" lon="7.20063">
        <ele>1329.199951172</ele>
        <time>2012-05-05T10:55:04Z</time>
      </trkpt>
      <trkpt lat="44.02868" lon="7.2006">
        <ele>1330.199951172</ele>
        <time>2012-05-05T10:55:06Z</time>
      </trkpt>
      <trkpt lat="44.02877" lon="7.20059">
        <ele>1330.199951172</ele>
        <time>2012-05-05T10:55:08Z</time>
      </trkpt>
      <trkpt lat="44.0289" lon="7.2006">
        <ele>1331.199951172</ele>
        <time>2012-05-05T10:55:11Z</time>
      </trkpt>
      <trkpt lat="44.02894" lon="7.2006">
        <ele>1331.199951172</ele>
        <time>2012-05-05T10:55:12Z</time>
      </trkpt>
      <trkpt lat="44.02905" lon="7.20057">
        <ele>1332.599975586</ele>
        <time>2012-05-05T10:55:14Z</time>
      </trkpt>
      <trkpt lat="44.02919" lon="7.20046">
        <ele>1334</ele>
        <time>2012-05-05T10:55:17Z</time>
      </trkpt>
      <trkpt lat="44.02931" lon="7.20039">
        <ele>1335</ele>
        <time>2012-05-05T10:55:19Z</time>
      </trkpt>
      <trkpt lat="44.02937" lon="7.20035">
        <ele>1335</ele>
        <time>2012-05-05T10:55:20Z</time>
      </trkpt>
      <trkpt lat="44.02944" lon="7.20033">
        <ele>1335</ele>
        <time>2012-05-05T10:55:21Z</time>
      </trkpt>
      <trkpt lat="44.0295" lon="7.20031">
        <ele>1335</ele>
        <time>2012-05-05T10:55:22Z</time>
      </trkpt>
      <trkpt lat="44.02956" lon="7.20029">
        <ele>1336.400024414</ele>
        <time>2012-05-05T10:55:23Z</time>
      </trkpt>
      <trkpt lat="44.02968" lon="7.20028">
        <ele>1337.400024414</ele>
        <time>2012-05-05T10:55:25Z</time>
      </trkpt>
      <trkpt lat="44.02977" lon="7.20029">
        <ele>1337.400024414</ele>
        <time>2012-05-05T10:55:27Z</time>
      </trkpt>
      <trkpt lat="44.0298" lon="7.20031">
        <ele>1338.800048828</ele>
        <time>2012-05-05T10:55:28Z</time>
      </trkpt>
      <trkpt lat="44.02984" lon="7.20033">
        <ele>1338.800048828</ele>
        <time>2012-05-05T10:55:29Z</time>
      </trkpt>
      <trkpt lat="44.02987" lon="7.20035">
        <ele>1338.800048828</ele>
        <time>2012-05-05T10:55:30Z</time>
      </trkpt>
      <trkpt lat="44.03" lon="7.20034">
        <ele>1338.800048828</ele>
        <time>2012-05-05T10:55:34Z</time>
      </trkpt>
      <trkpt lat="44.03009" lon="7.20025">
        <ele>1338.800048828</ele>
        <time>2012-05-05T10:55:39Z</time>
      </trkpt>
      <trkpt lat="44.03015" lon="7.20015">
        <ele>1340</ele>
        <time>2012-05-05T10:55:43Z</time>
      </trkpt>
      <trkpt lat="44.03016" lon="7.20011">
        <ele>1340</ele>
        <time>2012-05-05T10:55:44Z</time>
      </trkpt>
      <trkpt lat="44.03016" lon="7.19999">
        <ele>1340</ele>
        <time>2012-05-05T10:55:47Z</time>
      </trkpt>
      <trkpt lat="44.03016" lon="7.19996">
        <ele>1340</ele>
        <time>2012-05-05T10:55:48Z</time>
      </trkpt>
      <trkpt lat="44.03015" lon="7.1998">
        <ele>1340</ele>
        <time>2012-05-05T10:55:53Z</time>
      </trkpt>
      <trkpt lat="44.03013" lon="7.19972">
        <ele>1340</ele>
        <time>2012-05-05T10:55:57Z</time>
      </trkpt>
      <trkpt lat="44.03013" lon="7.19972">
        <ele>1340</ele>
        <time>2012-05-05T10:55:58Z</time>
      </trkpt>
      <trkpt lat="44.03016" lon="7.19973">
        <ele>1340</ele>
        <time>2012-05-05T10:56:01Z</time>
      </trkpt>
      <trkpt lat="44.03017" lon="7.19974">
        <ele>1341</ele>
        <time>2012-05-05T10:56:03Z</time>
      </trkpt>
      <trkpt lat="44.03017" lon="7.19974">
        <ele>1341</ele>
        <time>2012-05-05T10:56:04Z</time>
      </trkpt>
      <trkpt lat="44.03017" lon="7.19974">
        <ele>1341</ele>
        <time>2012-05-05T10:56:06Z</time>
      </trkpt>
      <trkpt lat="44.03017" lon="7.19975">
        <ele>1341</ele>
        <time>2012-05-05T10:56:07Z</time>
      </trkpt>
      <trkpt lat="44.03015" lon="7.19976">
        <ele>1341</ele>
        <time>2012-05-05T10:56:10Z</time>
      </trkpt>
      <trkpt lat="44.03012" lon="7.19977">
        <ele>1341</ele>
        <time>2012-05-05T10:56:12Z</time>
      </trkpt>
      <trkpt lat="44.03012" lon="7.19978">
        <ele>1341</ele>
        <time>2012-05-05T10:56:16Z</time>
      </trkpt>
      <trkpt lat="44.03014" lon="7.19979">
        <ele>1341</ele>
        <time>2012-05-05T10:56:21Z</time>
      </trkpt>
      <trkpt lat="44.03011" lon="7.19966">
        <ele>1341</ele>
        <time>2012-05-05T10:56:26Z</time>
      </trkpt>
      <trkpt lat="44.03002" lon="7.19954">
        <ele>1341</ele>
        <time>2012-05-05T10:56:31Z</time>
      </trkpt>
      <trkpt lat="44.02989" lon="7.19946">
        <ele>1343.199951172</ele>
        <time>2012-05-05T10:56:37Z</time>
      </trkpt>
      <trkpt lat="44.02987" lon="7.19942">
        <ele>1343.199951172</ele>
        <time>2012-05-05T10:56:38Z</time>
      </trkpt>
      <trkpt lat="44.02985" lon="7.19934">
        <ele>1344.199951172</ele>
        <time>2012-05-05T10:56:40Z</time>
      </trkpt>
      <trkpt lat="44.02978" lon="7.19917">
        <ele>1344.199951172</ele>
        <time>2012-05-05T10:56:44Z</time>
      </trkpt>
      <trkpt lat="44.02972" lon="7.19906">
        <ele>1345.199951172</ele>
        <time>2012-05-05T10:56:46Z</time>
      </trkpt>
      <trkpt lat="44.02964" lon="7.199">
        <ele>1345.199951172</ele>
        <time>2012-05-05T10:56:48Z</time>
      </trkpt>
      <trkpt lat="44.02947" lon="7.19902">
        <ele>1345.199951172</ele>
        <time>2012-05-05T10:56:51Z</time>
      </trkpt>
      <trkpt lat="44.02942" lon="7.19903">
        <ele>1345.199951172</ele>
        <time>2012-05-05T10:56:52Z</time>
      </trkpt>
      <trkpt lat="44.02937" lon="7.19902">
        <ele>1346.199951172</ele>
        <time>2012-05-05T10:56:53Z</time>
      </trkpt>
      <trkpt lat="44.02927" lon="7.19902">
        <ele>1347.400024414</ele>
        <time>2012-05-05T10:56:55Z</time>
      </trkpt>
      <trkpt lat="44.02925" lon="7.19899">
        <ele>1347.400024414</ele>
        <time>2012-05-05T10:56:58Z</time>
      </trkpt>
      <trkpt lat="44.02925" lon="7.19898">
        <ele>1347.400024414</ele>
        <time>2012-05-05T10:56:59Z</time>
      </trkpt>
      <trkpt lat="44.02923" lon="7.19892">
        <ele>1347.400024414</ele>
        <time>2012-05-05T10:57:01Z</time>
      </trkpt>
      <trkpt lat="44.0292" lon="7.1989">
        <ele>1348.400024414</ele>
        <time>2012-05-05T10:57:02Z</time>
      </trkpt>
      <trkpt lat="44.02917" lon="7.19888">
        <ele>1348.400024414</ele>
        <time>2012-05-05T10:57:03Z</time>
      </trkpt>
      <trkpt lat="44.02915" lon="7.19886">
        <ele>1348.400024414</ele>
        <time>2012-05-05T10:57:04Z</time>
      </trkpt>
      <trkpt lat="44.0291" lon="7.19884">
        <ele>1349.400024414</ele>
        <time>2012-05-05T10:57:06Z</time>
      </trkpt>
      <trkpt lat="44.02904" lon="7.19882">
        <ele>1350.599975586</ele>
        <time>2012-05-05T10:57:10Z</time>
      </trkpt>
      <trkpt lat="44.02904" lon="7.19887">
        <ele>1350.599975586</ele>
        <time>2012-05-05T10:57:12Z</time>
      </trkpt>
      <trkpt lat="44.02904" lon="7.19894">
        <ele>1351.599975586</ele>
        <time>2012-05-05T10:57:14Z</time>
      </trkpt>
      <trkpt lat="44.02904" lon="7.19897">
        <ele>1351.599975586</ele>
        <time>2012-05-05T10:57:19Z</time>
      </trkpt>
      <trkpt lat="44.02895" lon="7.19882">
        <ele>1352.599975586</ele>
        <time>2012-05-05T10:57:23Z</time>
      </trkpt>
      <trkpt lat="44.02892" lon="7.19874">
        <ele>1352.599975586</ele>
        <time>2012-05-05T10:57:25Z</time>
      </trkpt>
      <trkpt lat="44.0289" lon="7.19872">
        <ele>1352.599975586</ele>
        <time>2012-05-05T10:57:27Z</time>
      </trkpt>
      <trkpt lat="44.02878" lon="7.19848">
        <ele>1352.599975586</ele>
        <time>2012-05-05T10:57:32Z</time>
      </trkpt>
      <trkpt lat="44.02876" lon="7.19835">
        <ele>1352.599975586</ele>
        <time>2012-05-05T10:57:35Z</time>
      </trkpt>
      <trkpt lat="44.02877" lon="7.19831">
        <ele>1352.599975586</ele>
        <time>2012-05-05T10:57:37Z</time>
      </trkpt>
      <trkpt lat="44.0287" lon="7.19834">
        <ele>1352.599975586</ele>
        <time>2012-05-05T10:57:40Z</time>
      </trkpt>
      <trkpt lat="44.02869" lon="7.19838">
        <ele>1352.599975586</ele>
        <time>2012-05-05T10:57:43Z</time>
      </trkpt>
      <trkpt lat="44.02868" lon="7.19842">
        <ele>1352.599975586</ele>
        <time>2012-05-05T10:57:45Z</time>
      </trkpt>
      <trkpt lat="44.02868" lon="7.19841">
        <ele>1352.599975586</ele>
        <time>2012-05-05T10:57:48Z</time>
      </trkpt>
      <trkpt lat="44.02867" lon="7.19841">
        <ele>1352.599975586</ele>
        <time>2012-05-05T10:57:50Z</time>
      </trkpt>
      <trkpt lat="44.02864" lon="7.19842">
        <ele>1352.599975586</ele>
        <time>2012-05-05T10:57:55Z</time>
      </trkpt>
      <trkpt lat="44.02859" lon="7.19849">
        <ele>1352.599975586</ele>
        <time>2012-05-05T10:58:02Z</time>
      </trkpt>
      <trkpt lat="44.02856" lon="7.19868">
        <ele>1352.599975586</ele>
        <time>2012-05-05T10:58:08Z</time>
      </trkpt>
      <trkpt lat="44.02855" lon="7.19885">
        <ele>1352.599975586</ele>
        <time>2012-05-05T10:58:14Z</time>
      </trkpt>
      <trkpt lat="44.02857" lon="7.19887">
        <ele>1352.599975586</ele>
        <time>2012-05-05T10:58:17Z</time>
      </trkpt>
      <trkpt lat="44.02857" lon="7.19886">
        <ele>1352.599975586</ele>
        <time>2012-05-05T10:58:19Z</time>
      </trkpt>
      <trkpt lat="44.02861" lon="7.19884">
        <ele>1352.599975586</ele>
        <time>2012-05-05T10:58:20Z</time>
      </trkpt>
      <trkpt lat="44.02868" lon="7.19875">
        <ele>1352.599975586</ele>
        <time>2012-05-05T10:58:23Z</time>
      </trkpt>
      <trkpt lat="44.02875" lon="7.1987">
        <ele>1352.599975586</ele>
        <time>2012-05-05T10:58:26Z</time>
      </trkpt>
      <trkpt lat="44.02876" lon="7.19867">
        <ele>1352.599975586</ele>
        <time>2012-05-05T10:58:28Z</time>
      </trkpt>
      <trkpt lat="44.02875" lon="7.19865">
        <ele>1352.599975586</ele>
        <time>2012-05-05T10:58:30Z</time>
      </trkpt>
      <trkpt lat="44.02876" lon="7.19865">
        <ele>1352.599975586</ele>
        <time>2012-05-05T10:58:32Z</time>
      </trkpt>
      <trkpt lat="44.02877" lon="7.19865">
        <ele>1352.599975586</ele>
        <time>2012-05-05T10:58:33Z</time>
      </trkpt>
      <trkpt lat="44.02876" lon="7.19869">
        <ele>1352.599975586</ele>
        <time>2012-05-05T10:58:37Z</time>
      </trkpt>
      <trkpt lat="44.02876" lon="7.19868">
        <ele>1352.599975586</ele>
        <time>2012-05-05T10:58:38Z</time>
      </trkpt>
      <trkpt lat="44.02876" lon="7.19869">
        <ele>1352.599975586</ele>
        <time>2012-05-05T10:58:42Z</time>
      </trkpt>
      <trkpt lat="44.02876" lon="7.19867">
        <ele>1349.599975586</ele>
        <time>2012-05-05T10:58:48Z</time>
      </trkpt>
      <trkpt lat="44.02876" lon="7.19868">
        <ele>1349.599975586</ele>
        <time>2012-05-05T10:58:53Z</time>
      </trkpt>
      <trkpt lat="44.02875" lon="7.19867">
        <ele>1349.599975586</ele>
        <time>2012-05-05T10:58:56Z</time>
      </trkpt>
      <trkpt lat="44.02874" lon="7.19868">
        <ele>1349.599975586</ele>
        <time>2012-05-05T10:58:59Z</time>
      </trkpt>
      <trkpt lat="44.02872" lon="7.19865">
        <ele>1349.599975586</ele>
        <time>2012-05-05T10:59:02Z</time>
      </trkpt>
      <trkpt lat="44.02871" lon="7.19864">
        <ele>1349.599975586</ele>
        <time>2012-05-05T10:59:05Z</time>
      </trkpt>
      <trkpt lat="44.02873" lon="7.19866">
        <ele>1349.599975586</ele>
        <time>2012-05-05T10:59:08Z</time>
      </trkpt>
      <trkpt lat="44.02874" lon="7.19868">
        <ele>1349.599975586</ele>
        <time>2012-05-05T10:59:10Z</time>
      </trkpt>
      <trkpt lat="44.02874" lon="7.19869">
        <ele>1349.599975586</ele>
        <time>2012-05-05T10:59:12Z</time>
      </trkpt>
      <trkpt lat="44.02874" lon="7.1987">
        <ele>1349.599975586</ele>
        <time>2012-05-05T10:59:13Z</time>
      </trkpt>
      <trkpt lat="44.02874" lon="7.1987">
        <ele>1349.599975586</ele>
        <time>2012-05-05T10:59:16Z</time>
      </trkpt>
      <trkpt lat="44.02876" lon="7.19872">
        <ele>1349.599975586</ele>
        <time>2012-05-05T10:59:21Z</time>
      </trkpt>
      <trkpt lat="44.02876" lon="7.19876">
        <ele>1349.599975586</ele>
        <time>2012-05-05T10:59:28Z</time>
      </trkpt>
      <trkpt lat="44.02876" lon="7.19877">
        <ele>1349.599975586</ele>
        <time>2012-05-05T10:59:38Z</time>
      </trkpt>
      <trkpt lat="44.02876" lon="7.19878">
        <ele>1348.199951172</ele>
        <time>2012-05-05T10:59:39Z</time>
      </trkpt>
      <trkpt lat="44.02876" lon="7.19879">
        <ele>1348.199951172</ele>
        <time>2012-05-05T10:59:41Z</time>
      </trkpt>
      <trkpt lat="44.02874" lon="7.19878">
        <ele>1348.199951172</ele>
        <time>2012-05-05T10:59:47Z</time>
      </trkpt>
      <trkpt lat="44.02871" lon="7.19876">
        <ele>1348.199951172</ele>
        <time>2012-05-05T10:59:52Z</time>
      </trkpt>
      <trkpt lat="44.02873" lon="7.19876">
        <ele>1348.199951172</ele>
        <time>2012-05-05T10:59:56Z</time>
      </trkpt>
      <trkpt lat="44.0287" lon="7.19873">
        <ele>1348.199951172</ele>
        <time>2012-05-05T11:00:00Z</time>
      </trkpt>
      <trkpt lat="44.0287" lon="7.19873">
        <ele>1348.199951172</ele>
        <time>2012-05-05T11:00:03Z</time>
      </trkpt>
      <trkpt lat="44.0287" lon="7.19874">
        <ele>1351.199951172</ele>
        <time>2012-05-05T11:00:05Z</time>
      </trkpt>
      <trkpt lat="44.0287" lon="7.19874">
        <ele>1351.199951172</ele>
        <time>2012-05-05T11:00:09Z</time>
      </trkpt>
      <trkpt lat="44.0287" lon="7.19874">
        <ele>1351.199951172</ele>
        <time>2012-05-05T11:00:14Z</time>
      </trkpt>
      <trkpt lat="44.02868" lon="7.19874">
        <ele>1351.199951172</ele>
        <time>2012-05-05T11:00:20Z</time>
      </trkpt>
      <trkpt lat="44.02867" lon="7.19874">
        <ele>1351.199951172</ele>
        <time>2012-05-05T11:00:28Z</time>
      </trkpt>
      <trkpt lat="44.02866" lon="7.19871">
        <ele>1351.199951172</ele>
        <time>2012-05-05T11:00:33Z</time>
      </trkpt>
      <trkpt lat="44.02867" lon="7.19871">
        <ele>1351.199951172</ele>
        <time>2012-05-05T11:00:37Z</time>
      </trkpt>
      <trkpt lat="44.02865" lon="7.19867">
        <ele>1352.400024414</ele>
        <time>2012-05-05T11:00:41Z</time>
      </trkpt>
      <trkpt lat="44.02864" lon="7.19866">
        <ele>1353.599975586</ele>
        <time>2012-05-05T11:00:45Z</time>
      </trkpt>
      <trkpt lat="44.02864" lon="7.19872">
        <ele>1353.599975586</ele>
        <time>2012-05-05T11:00:51Z</time>
      </trkpt>
      <trkpt lat="44.02864" lon="7.19871">
        <ele>1350.599975586</ele>
        <time>2012-05-05T11:00:52Z</time>
      </trkpt>
      <trkpt lat="44.02866" lon="7.19874">
        <ele>1350.599975586</ele>
        <time>2012-05-05T11:00:55Z</time>
      </trkpt>
      <trkpt lat="44.02871" lon="7.19876">
        <ele>1350.599975586</ele>
        <time>2012-05-05T11:00:59Z</time>
      </trkpt>
      <trkpt lat="44.02871" lon="7.19877">
        <ele>1350.599975586</ele>
        <time>2012-05-05T11:01:00Z</time>
      </trkpt>
      <trkpt lat="44.02871" lon="7.1988">
        <ele>1350.599975586</ele>
        <time>2012-05-05T11:01:02Z</time>
      </trkpt>
      <trkpt lat="44.02871" lon="7.1988">
        <ele>1350.599975586</ele>
        <time>2012-05-05T11:01:04Z</time>
      </trkpt>
      <trkpt lat="44.02871" lon="7.1988">
        <ele>1350.599975586</ele>
        <time>2012-05-05T11:01:07Z</time>
      </trkpt>
      <trkpt lat="44.02871" lon="7.1988">
        <ele>1350.599975586</ele>
        <time>2012-05-05T11:01:09Z</time>
      </trkpt>
      <trkpt lat="44.02871" lon="7.19881">
        <ele>1350.599975586</ele>
        <time>2012-05-05T11:01:13Z</time>
      </trkpt>
      <trkpt lat="44.02871" lon="7.19881">
        <ele>1350.599975586</ele>
        <time>2012-05-05T11:01:16Z</time>
      </trkpt>
      <trkpt lat="44.0287" lon="7.1988">
        <ele>1350.599975586</ele>
        <time>2012-05-05T11:01:20Z</time>
      </trkpt>
      <trkpt lat="44.0287" lon="7.19881">
        <ele>1350.599975586</ele>
        <time>2012-05-05T11:01:24Z</time>
      </trkpt>
      <trkpt lat="44.0287" lon="7.19879">
        <ele>1350.599975586</ele>
        <time>2012-05-05T11:01:26Z</time>
      </trkpt>
      <trkpt lat="44.02869" lon="7.19875">
        <ele>1350.599975586</ele>
        <time>2012-05-05T11:01:30Z</time>
      </trkpt>
      <trkpt lat="44.02867" lon="7.19875">
        <ele>1350.599975586</ele>
        <time>2012-05-05T11:01:35Z</time>
      </trkpt>
      <trkpt lat="44.02868" lon="7.19874">
        <ele>1350.599975586</ele>
        <time>2012-05-05T11:01:36Z</time>
      </trkpt>
      <trkpt lat="44.02871" lon="7.19875">
        <ele>1350.599975586</ele>
        <time>2012-05-05T11:01:42Z</time>
      </trkpt>
      <trkpt lat="44.02871" lon="7.19877">
        <ele>1350.599975586</ele>
        <time>2012-05-05T11:01:49Z</time>
      </trkpt>
      <trkpt lat="44.02871" lon="7.19878">
        <ele>1350.599975586</ele>
        <time>2012-05-05T11:01:51Z</time>
      </trkpt>
      <trkpt lat="44.02871" lon="7.19878">
        <ele>1350.599975586</ele>
        <time>2012-05-05T11:01:54Z</time>
      </trkpt>
      <trkpt lat="44.02871" lon="7.19879">
        <ele>1350.599975586</ele>
        <time>2012-05-05T11:01:57Z</time>
      </trkpt>
      <trkpt lat="44.02871" lon="7.1988">
        <ele>1350.599975586</ele>
        <time>2012-05-05T11:01:59Z</time>
      </trkpt>
      <trkpt lat="44.0287" lon="7.1988">
        <ele>1350.599975586</ele>
        <time>2012-05-05T11:02:07Z</time>
      </trkpt>
      <trkpt lat="44.02871" lon="7.19878">
        <ele>1350.599975586</ele>
        <time>2012-05-05T11:02:11Z</time>
      </trkpt>
      <trkpt lat="44.02871" lon="7.19874">
        <ele>1350.599975586</ele>
        <time>2012-05-05T11:02:13Z</time>
      </trkpt>
      <trkpt lat="44.02871" lon="7.19874">
        <ele>1350.599975586</ele>
        <time>2012-05-05T11:02:15Z</time>
      </trkpt>
      <trkpt lat="44.02871" lon="7.19874">
        <ele>1350.599975586</ele>
        <time>2012-05-05T11:02:16Z</time>
      </trkpt>
      <trkpt lat="44.0287" lon="7.19872">
        <ele>1350.599975586</ele>
        <time>2012-05-05T11:02:23Z</time>
      </trkpt>
      <trkpt lat="44.0287" lon="7.19872">
        <ele>1350.599975586</ele>
        <time>2012-05-05T11:02:28Z</time>
      </trkpt>
      <trkpt lat="44.0287" lon="7.19873">
        <ele>1350.599975586</ele>
        <time>2012-05-05T11:02:32Z</time>
      </trkpt>
      <trkpt lat="44.0287" lon="7.19873">
        <ele>1350.599975586</ele>
        <time>2012-05-05T11:02:33Z</time>
      </trkpt>
      <trkpt lat="44.02871" lon="7.19873">
        <ele>1350.599975586</ele>
        <time>2012-05-05T11:02:36Z</time>
      </trkpt>
      <trkpt lat="44.0287" lon="7.19874">
        <ele>1350.599975586</ele>
        <time>2012-05-05T11:02:42Z</time>
      </trkpt>
      <trkpt lat="44.02869" lon="7.19878">
        <ele>1350.599975586</ele>
        <time>2012-05-05T11:02:48Z</time>
      </trkpt>
      <trkpt lat="44.02872" lon="7.19887">
        <ele>1349.199951172</ele>
        <time>2012-05-05T11:02:53Z</time>
      </trkpt>
      <trkpt lat="44.02871" lon="7.19888">
        <ele>1349.199951172</ele>
        <time>2012-05-05T11:02:56Z</time>
      </trkpt>
      <trkpt lat="44.02869" lon="7.19888">
        <ele>1349.199951172</ele>
        <time>2012-05-05T11:03:00Z</time>
      </trkpt>
      <trkpt lat="44.02869" lon="7.19888">
        <ele>1348</ele>
        <time>2012-05-05T11:03:01Z</time>
      </trkpt>
      <trkpt lat="44.02867" lon="7.19888">
        <ele>1346.800048828</ele>
        <time>2012-05-05T11:03:02Z</time>
      </trkpt>
      <trkpt lat="44.02865" lon="7.19889">
        <ele>1346.800048828</ele>
        <time>2012-05-05T11:03:03Z</time>
      </trkpt>
      <trkpt lat="44.02863" lon="7.19888">
        <ele>1345.800048828</ele>
        <time>2012-05-05T11:03:04Z</time>
      </trkpt>
      <trkpt lat="44.0286" lon="7.19887">
        <ele>1345.800048828</ele>
        <time>2012-05-05T11:03:06Z</time>
      </trkpt>
      <trkpt lat="44.02856" lon="7.19887">
        <ele>1344.800048828</ele>
        <time>2012-05-05T11:03:08Z</time>
      </trkpt>
      <trkpt lat="44.02854" lon="7.19888">
        <ele>1344.800048828</ele>
        <time>2012-05-05T11:03:10Z</time>
      </trkpt>
      <trkpt lat="44.02852" lon="7.19889">
        <ele>1343.599975586</ele>
        <time>2012-05-05T11:03:14Z</time>
      </trkpt>
      <trkpt lat="44.02851" lon="7.19889">
        <ele>1343.599975586</ele>
        <time>2012-05-05T11:03:17Z</time>
      </trkpt>
      <trkpt lat="44.02851" lon="7.1989">
        <ele>1342.599975586</ele>
        <time>2012-05-05T11:03:18Z</time>
      </trkpt>
      <trkpt lat="44.02851" lon="7.19893">
        <ele>1341.400024414</ele>
        <time>2012-05-05T11:03:20Z</time>
      </trkpt>
      <trkpt lat="44.02849" lon="7.19896">
        <ele>1340.400024414</ele>
        <time>2012-05-05T11:03:22Z</time>
      </trkpt>
      <trkpt lat="44.02848" lon="7.19897">
        <ele>1339.400024414</ele>
        <time>2012-05-05T11:03:23Z</time>
      </trkpt>
      <trkpt lat="44.02844" lon="7.19897">
        <ele>1339.400024414</ele>
        <time>2012-05-05T11:03:26Z</time>
      </trkpt>
      <trkpt lat="44.02842" lon="7.19897">
        <ele>1338.199951172</ele>
        <time>2012-05-05T11:03:27Z</time>
      </trkpt>
      <trkpt lat="44.02841" lon="7.19896">
        <ele>1338.199951172</ele>
        <time>2012-05-05T11:03:30Z</time>
      </trkpt>
      <trkpt lat="44.02841" lon="7.19896">
        <ele>1337.199951172</ele>
        <time>2012-05-05T11:03:33Z</time>
      </trkpt>
      <trkpt lat="44.02837" lon="7.19896">
        <ele>1336</ele>
        <time>2012-05-05T11:03:36Z</time>
      </trkpt>
      <trkpt lat="44.02834" lon="7.19896">
        <ele>1334.599975586</ele>
        <time>2012-05-05T11:03:38Z</time>
      </trkpt>
      <trkpt lat="44.02831" lon="7.19895">
        <ele>1333.599975586</ele>
        <time>2012-05-05T11:03:39Z</time>
      </trkpt>
      <trkpt lat="44.02829" lon="7.19895">
        <ele>1332.400024414</ele>
        <time>2012-05-05T11:03:40Z</time>
      </trkpt>
      <trkpt lat="44.02828" lon="7.19896">
        <ele>1331</ele>
        <time>2012-05-05T11:03:42Z</time>
      </trkpt>
      <trkpt lat="44.02828" lon="7.19896">
        <ele>1331</ele>
        <time>2012-05-05T11:03:43Z</time>
      </trkpt>
      <trkpt lat="44.02827" lon="7.19895">
        <ele>1331</ele>
        <time>2012-05-05T11:03:44Z</time>
      </trkpt>
      <trkpt lat="44.02829" lon="7.19894">
        <ele>1331</ele>
        <time>2012-05-05T11:03:47Z</time>
      </trkpt>
      <trkpt lat="44.02828" lon="7.19894">
        <ele>1331</ele>
        <time>2012-05-05T11:03:52Z</time>
      </trkpt>
      <trkpt lat="44.02827" lon="7.19895">
        <ele>1331</ele>
        <time>2012-05-05T11:03:55Z</time>
      </trkpt>
      <trkpt lat="44.02824" lon="7.199">
        <ele>1329.800048828</ele>
        <time>2012-05-05T11:04:00Z</time>
      </trkpt>
      <trkpt lat="44.02821" lon="7.1991">
        <ele>1328.599975586</ele>
        <time>2012-05-05T11:04:02Z</time>
      </trkpt>
      <trkpt lat="44.02819" lon="7.19912">
        <ele>1328.599975586</ele>
        <time>2012-05-05T11:04:03Z</time>
      </trkpt>
      <trkpt lat="44.02817" lon="7.19914">
        <ele>1327.400024414</ele>
        <time>2012-05-05T11:04:04Z</time>
      </trkpt>
      <trkpt lat="44.02813" lon="7.19918">
        <ele>1326.400024414</ele>
        <time>2012-05-05T11:04:06Z</time>
      </trkpt>
      <trkpt lat="44.0281" lon="7.19917">
        <ele>1326.400024414</ele>
        <time>2012-05-05T11:04:08Z</time>
      </trkpt>
      <trkpt lat="44.02804" lon="7.19915">
        <ele>1326.400024414</ele>
        <time>2012-05-05T11:04:11Z</time>
      </trkpt>
      <trkpt lat="44.02801" lon="7.19914">
        <ele>1325.199951172</ele>
        <time>2012-05-05T11:04:12Z</time>
      </trkpt>
      <trkpt lat="44.02799" lon="7.19913">
        <ele>1325.199951172</ele>
        <time>2012-05-05T11:04:13Z</time>
      </trkpt>
      <trkpt lat="44.02798" lon="7.19913">
        <ele>1323.800048828</ele>
        <time>2012-05-05T11:04:14Z</time>
      </trkpt>
      <trkpt lat="44.02797" lon="7.19912">
        <ele>1323.800048828</ele>
        <time>2012-05-05T11:04:17Z</time>
      </trkpt>
      <trkpt lat="44.02793" lon="7.19909">
        <ele>1323.800048828</ele>
        <time>2012-05-05T11:04:23Z</time>
      </trkpt>
      <trkpt lat="44.02787" lon="7.19904">
        <ele>1323.800048828</ele>
        <time>2012-05-05T11:04:28Z</time>
      </trkpt>
      <trkpt lat="44.02785" lon="7.19904">
        <ele>1323.800048828</ele>
        <time>2012-05-05T11:04:30Z</time>
      </trkpt>
      <trkpt lat="44.02781" lon="7.19906">
        <ele>1323.800048828</ele>
        <time>2012-05-05T11:04:32Z</time>
      </trkpt>
      <trkpt lat="44.02778" lon="7.19907">
        <ele>1322.599975586</ele>
        <time>2012-05-05T11:04:33Z</time>
      </trkpt>
      <trkpt lat="44.02775" lon="7.19908">
        <ele>1322.599975586</ele>
        <time>2012-05-05T11:04:34Z</time>
      </trkpt>
      <trkpt lat="44.02771" lon="7.19908">
        <ele>1321.599975586</ele>
        <time>2012-05-05T11:04:35Z</time>
      </trkpt>
      <trkpt lat="44.02767" lon="7.19909">
        <ele>1321.599975586</ele>
        <time>2012-05-05T11:04:36Z</time>
      </trkpt>
      <trkpt lat="44.02762" lon="7.19909">
        <ele>1320.400024414</ele>
        <time>2012-05-05T11:04:37Z</time>
      </trkpt>
      <trkpt lat="44.02759" lon="7.19906">
        <ele>1320.400024414</ele>
        <time>2012-05-05T11:04:38Z</time>
      </trkpt>
      <trkpt lat="44.02756" lon="7.19905">
        <ele>1320.400024414</ele>
        <time>2012-05-05T11:04:39Z</time>
      </trkpt>
      <trkpt lat="44.02753" lon="7.19903">
        <ele>1319.400024414</ele>
        <time>2012-05-05T11:04:40Z</time>
      </trkpt>
      <trkpt lat="44.02741" lon="7.19899">
        <ele>1317.400024414</ele>
        <time>2012-05-05T11:04:43Z</time>
      </trkpt>
      <trkpt lat="44.02734" lon="7.19898">
        <ele>1317.400024414</ele>
        <time>2012-05-05T11:04:45Z</time>
      </trkpt>
      <trkpt lat="44.02728" lon="7.19899">
        <ele>1317.400024414</ele>
        <time>2012-05-05T11:04:47Z</time>
      </trkpt>
      <trkpt lat="44.02724" lon="7.19899">
        <ele>1316</ele>
        <time>2012-05-05T11:04:48Z</time>
      </trkpt>
      <trkpt lat="44.0272" lon="7.199">
        <ele>1315</ele>
        <time>2012-05-05T11:04:49Z</time>
      </trkpt>
      <trkpt lat="44.02713" lon="7.19903">
        <ele>1313.199951172</ele>
        <time>2012-05-05T11:04:51Z</time>
      </trkpt>
      <trkpt lat="44.0271" lon="7.19905">
        <ele>1311.800048828</ele>
        <time>2012-05-05T11:04:52Z</time>
      </trkpt>
      <trkpt lat="44.02702" lon="7.19907">
        <ele>1310.400024414</ele>
        <time>2012-05-05T11:04:55Z</time>
      </trkpt>
      <trkpt lat="44.02699" lon="7.19907">
        <ele>1308.400024414</ele>
        <time>2012-05-05T11:04:56Z</time>
      </trkpt>
      <trkpt lat="44.02695" lon="7.19906">
        <ele>1307</ele>
        <time>2012-05-05T11:04:57Z</time>
      </trkpt>
      <trkpt lat="44.02691" lon="7.19905">
        <ele>1307</ele>
        <time>2012-05-05T11:04:58Z</time>
      </trkpt>
      <trkpt lat="44.02683" lon="7.19904">
        <ele>1305.400024414</ele>
        <time>2012-05-05T11:05:00Z</time>
      </trkpt>
      <trkpt lat="44.02674" lon="7.19903">
        <ele>1305.400024414</ele>
        <time>2012-05-05T11:05:03Z</time>
      </trkpt>
      <trkpt lat="44.02672" lon="7.19903">
        <ele>1304.400024414</ele>
        <time>2012-05-05T11:05:04Z</time>
      </trkpt>
      <trkpt lat="44.02667" lon="7.19904">
        <ele>1303.400024414</ele>
        <time>2012-05-05T11:05:07Z</time>
      </trkpt>
      <trkpt lat="44.02664" lon="7.19904">
        <ele>1303.400024414</ele>
        <time>2012-05-05T11:05:08Z</time>
      </trkpt>
      <trkpt lat="44.02661" lon="7.19904">
        <ele>1302.199951172</ele>
        <time>2012-05-05T11:05:09Z</time>
      </trkpt>
      <trkpt lat="44.02658" lon="7.19904">
        <ele>1301.199951172</ele>
        <time>2012-05-05T11:05:10Z</time>
      </trkpt>
      <trkpt lat="44.0265" lon="7.199">
        <ele>1301.199951172</ele>
        <time>2012-05-05T11:05:12Z</time>
      </trkpt>
      <trkpt lat="44.02633" lon="7.19894">
        <ele>1299</ele>
        <time>2012-05-05T11:05:16Z</time>
      </trkpt>
      <trkpt lat="44.02625" lon="7.19893">
        <ele>1299</ele>
        <time>2012-05-05T11:05:18Z</time>
      </trkpt>
      <trkpt lat="44.02622" lon="7.19895">
        <ele>1299</ele>
        <time>2012-05-05T11:05:19Z</time>
      </trkpt>
      <trkpt lat="44.02617" lon="7.19895">
        <ele>1297.400024414</ele>
        <time>2012-05-05T11:05:20Z</time>
      </trkpt>
      <trkpt lat="44.02607" lon="7.19894">
        <ele>1295.800048828</ele>
        <time>2012-05-05T11:05:22Z</time>
      </trkpt>
      <trkpt lat="44.02602" lon="7.19893">
        <ele>1295.800048828</ele>
        <time>2012-05-05T11:05:23Z</time>
      </trkpt>
      <trkpt lat="44.02596" lon="7.19891">
        <ele>1294.599975586</ele>
        <time>2012-05-05T11:05:24Z</time>
      </trkpt>
      <trkpt lat="44.02586" lon="7.19889">
        <ele>1293</ele>
        <time>2012-05-05T11:05:26Z</time>
      </trkpt>
      <trkpt lat="44.02581" lon="7.19887">
        <ele>1293</ele>
        <time>2012-05-05T11:05:27Z</time>
      </trkpt>
      <trkpt lat="44.02576" lon="7.19886">
        <ele>1291.199951172</ele>
        <time>2012-05-05T11:05:28Z</time>
      </trkpt>
      <trkpt lat="44.02571" lon="7.19883">
        <ele>1291.199951172</ele>
        <time>2012-05-05T11:05:29Z</time>
      </trkpt>
      <trkpt lat="44.02566" lon="7.19882">
        <ele>1289.800048828</ele>
        <time>2012-05-05T11:05:30Z</time>
      </trkpt>
      <trkpt lat="44.02561" lon="7.1988">
        <ele>1289.800048828</ele>
        <time>2012-05-05T11:05:31Z</time>
      </trkpt>
      <trkpt lat="44.02558" lon="7.1988">
        <ele>1288.599975586</ele>
        <time>2012-05-05T11:05:32Z</time>
      </trkpt>
      <trkpt lat="44.02553" lon="7.19882">
        <ele>1287.599975586</ele>
        <time>2012-05-05T11:05:34Z</time>
      </trkpt>
      <trkpt lat="44.02549" lon="7.19884">
        <ele>1286.199951172</ele>
        <time>2012-05-05T11:05:36Z</time>
      </trkpt>
      <trkpt lat="44.02543" lon="7.19884">
        <ele>1285.199951172</ele>
        <time>2012-05-05T11:05:38Z</time>
      </trkpt>
      <trkpt lat="44.02539" lon="7.19883">
        <ele>1285.199951172</ele>
        <time>2012-05-05T11:05:39Z</time>
      </trkpt>
      <trkpt lat="44.02536" lon="7.1988">
        <ele>1284</ele>
        <time>2012-05-05T11:05:40Z</time>
      </trkpt>
      <trkpt lat="44.02525" lon="7.19878">
        <ele>1283</ele>
        <time>2012-05-05T11:05:43Z</time>
      </trkpt>
      <trkpt lat="44.02521" lon="7.19878">
        <ele>1282</ele>
        <time>2012-05-05T11:05:44Z</time>
      </trkpt>
      <trkpt lat="44.02513" lon="7.19878">
        <ele>1281</ele>
        <time>2012-05-05T11:05:46Z</time>
      </trkpt>
      <trkpt lat="44.02509" lon="7.19878">
        <ele>1281</ele>
        <time>2012-05-05T11:05:47Z</time>
      </trkpt>
      <trkpt lat="44.025" lon="7.19876">
        <ele>1280</ele>
        <time>2012-05-05T11:05:49Z</time>
      </trkpt>
      <trkpt lat="44.02495" lon="7.19874">
        <ele>1278.599975586</ele>
        <time>2012-05-05T11:05:50Z</time>
      </trkpt>
      <trkpt lat="44.02486" lon="7.19872">
        <ele>1278.599975586</ele>
        <time>2012-05-05T11:05:52Z</time>
      </trkpt>
      <trkpt lat="44.02481" lon="7.19871">
        <ele>1278.599975586</ele>
        <time>2012-05-05T11:05:53Z</time>
      </trkpt>
      <trkpt lat="44.02478" lon="7.19871">
        <ele>1276.199951172</ele>
        <time>2012-05-05T11:05:54Z</time>
      </trkpt>
      <trkpt lat="44.02473" lon="7.19869">
        <ele>1275</ele>
        <time>2012-05-05T11:05:55Z</time>
      </trkpt>
      <trkpt lat="44.02468" lon="7.19868">
        <ele>1275</ele>
        <time>2012-05-05T11:05:56Z</time>
      </trkpt>
      <trkpt lat="44.02464" lon="7.19866">
        <ele>1273.800048828</ele>
        <time>2012-05-05T11:05:57Z</time>
      </trkpt>
      <trkpt lat="44.02459" lon="7.19865">
        <ele>1273.800048828</ele>
        <time>2012-05-05T11:05:58Z</time>
      </trkpt>
      <trkpt lat="44.02455" lon="7.19864">
        <ele>1272.199951172</ele>
        <time>2012-05-05T11:05:59Z</time>
      </trkpt>
      <trkpt lat="44.02451" lon="7.19864">
        <ele>1272.199951172</ele>
        <time>2012-05-05T11:06:00Z</time>
      </trkpt>
      <trkpt lat="44.02447" lon="7.19864">
        <ele>1272.199951172</ele>
        <time>2012-05-05T11:06:01Z</time>
      </trkpt>
      <trkpt lat="44.02445" lon="7.19864">
        <ele>1271</ele>
        <time>2012-05-05T11:06:02Z</time>
      </trkpt>
      <trkpt lat="44.02446" lon="7.19864">
        <ele>1271</ele>
        <time>2012-05-05T11:06:03Z</time>
      </trkpt>
      <trkpt lat="44.02445" lon="7.19869">
        <ele>1271</ele>
        <time>2012-05-05T11:06:09Z</time>
      </trkpt>
      <trkpt lat="44.02446" lon="7.1987">
        <ele>1271</ele>
        <time>2012-05-05T11:06:10Z</time>
      </trkpt>
      <trkpt lat="44.02445" lon="7.19871">
        <ele>1271</ele>
        <time>2012-05-05T11:06:14Z</time>
      </trkpt>
      <trkpt lat="44.02443" lon="7.1987">
        <ele>1271</ele>
        <time>2012-05-05T11:06:19Z</time>
      </trkpt>
      <trkpt lat="44.02445" lon="7.19871">
        <ele>1271</ele>
        <time>2012-05-05T11:06:26Z</time>
      </trkpt>
      <trkpt lat="44.02445" lon="7.19871">
        <ele>1269.800048828</ele>
        <time>2012-05-05T11:06:27Z</time>
      </trkpt>
      <trkpt lat="44.02446" lon="7.19872">
        <ele>1269.800048828</ele>
        <time>2012-05-05T11:06:30Z</time>
      </trkpt>
      <trkpt lat="44.02446" lon="7.19872">
        <ele>1269.800048828</ele>
        <time>2012-05-05T11:06:37Z</time>
      </trkpt>
      <trkpt lat="44.02446" lon="7.19871">
        <ele>1269.800048828</ele>
        <time>2012-05-05T11:06:40Z</time>
      </trkpt>
      <trkpt lat="44.02446" lon="7.19871">
        <ele>1269.800048828</ele>
        <time>2012-05-05T11:06:41Z</time>
      </trkpt>
      <trkpt lat="44.02449" lon="7.19871">
        <ele>1269.800048828</ele>
        <time>2012-05-05T11:06:46Z</time>
      </trkpt>
      <trkpt lat="44.02448" lon="7.19869">
        <ele>1272.800048828</ele>
        <time>2012-05-05T11:06:47Z</time>
      </trkpt>
      <trkpt lat="44.02448" lon="7.19869">
        <ele>1272.800048828</ele>
        <time>2012-05-05T11:06:51Z</time>
      </trkpt>
      <trkpt lat="44.02447" lon="7.1987">
        <ele>1274</ele>
        <time>2012-05-05T11:06:53Z</time>
      </trkpt>
      <trkpt lat="44.02449" lon="7.19871">
        <ele>1274</ele>
        <time>2012-05-05T11:06:57Z</time>
      </trkpt>
      <trkpt lat="44.02448" lon="7.19875">
        <ele>1274</ele>
        <time>2012-05-05T11:07:02Z</time>
      </trkpt>
      <trkpt lat="44.02445" lon="7.19875">
        <ele>1270.800048828</ele>
        <time>2012-05-05T11:07:06Z</time>
      </trkpt>
      <trkpt lat="44.02447" lon="7.19874">
        <ele>1270.800048828</ele>
        <time>2012-05-05T11:07:09Z</time>
      </trkpt>
      <trkpt lat="44.02447" lon="7.19874">
        <ele>1270.800048828</ele>
        <time>2012-05-05T11:07:10Z</time>
      </trkpt>
      <trkpt lat="44.02451" lon="7.19873">
        <ele>1270.800048828</ele>
        <time>2012-05-05T11:07:16Z</time>
      </trkpt>
      <trkpt lat="44.02451" lon="7.19873">
        <ele>1273.800048828</ele>
        <time>2012-05-05T11:07:18Z</time>
      </trkpt>
      <trkpt lat="44.02452" lon="7.19873">
        <ele>1273.800048828</ele>
        <time>2012-05-05T11:07:21Z</time>
      </trkpt>
      <trkpt lat="44.02449" lon="7.19873">
        <ele>1273.800048828</ele>
        <time>2012-05-05T11:07:27Z</time>
      </trkpt>
      <trkpt lat="44.02447" lon="7.19871">
        <ele>1273.800048828</ele>
        <time>2012-05-05T11:07:32Z</time>
      </trkpt>
      <trkpt lat="44.02448" lon="7.19871">
        <ele>1273.800048828</ele>
        <time>2012-05-05T11:07:39Z</time>
      </trkpt>
      <trkpt lat="44.02448" lon="7.19871">
        <ele>1273.800048828</ele>
        <time>2012-05-05T11:07:44Z</time>
      </trkpt>
      <trkpt lat="44.02449" lon="7.19873">
        <ele>1273.800048828</ele>
        <time>2012-05-05T11:07:51Z</time>
      </trkpt>
      <trkpt lat="44.02451" lon="7.19877">
        <ele>1273.800048828</ele>
        <time>2012-05-05T11:07:56Z</time>
      </trkpt>
      <trkpt lat="44.02454" lon="7.19881">
        <ele>1273.800048828</ele>
        <time>2012-05-05T11:08:02Z</time>
      </trkpt>
      <trkpt lat="44.02455" lon="7.19883">
        <ele>1273.800048828</ele>
        <time>2012-05-05T11:08:06Z</time>
      </trkpt>
      <trkpt lat="44.02457" lon="7.19881">
        <ele>1273.800048828</ele>
        <time>2012-05-05T11:08:12Z</time>
      </trkpt>
      <trkpt lat="44.0246" lon="7.19883">
        <ele>1273.800048828</ele>
        <time>2012-05-05T11:08:16Z</time>
      </trkpt>
      <trkpt lat="44.02462" lon="7.19883">
        <ele>1273.800048828</ele>
        <time>2012-05-05T11:08:17Z</time>
      </trkpt>
      <trkpt lat="44.02467" lon="7.1989">
        <ele>1270.800048828</ele>
        <time>2012-05-05T11:08:21Z</time>
      </trkpt>
      <trkpt lat="44.02471" lon="7.19895">
        <ele>1269.599975586</ele>
        <time>2012-05-05T11:08:23Z</time>
      </trkpt>
      <trkpt lat="44.02476" lon="7.19898">
        <ele>1268.599975586</ele>
        <time>2012-05-05T11:08:25Z</time>
      </trkpt>
      <trkpt lat="44.0248" lon="7.199">
        <ele>1268.599975586</ele>
        <time>2012-05-05T11:08:26Z</time>
      </trkpt>
      <trkpt lat="44.02489" lon="7.19909">
        <ele>1267.599975586</ele>
        <time>2012-05-05T11:08:29Z</time>
      </trkpt>
      <trkpt lat="44.02492" lon="7.19913">
        <ele>1267.599975586</ele>
        <time>2012-05-05T11:08:30Z</time>
      </trkpt>
      <trkpt lat="44.02499" lon="7.1992">
        <ele>1266.599975586</ele>
        <time>2012-05-05T11:08:32Z</time>
      </trkpt>
      <trkpt lat="44.02505" lon="7.19924">
        <ele>1266.599975586</ele>
        <time>2012-05-05T11:08:34Z</time>
      </trkpt>
      <trkpt lat="44.02513" lon="7.19931">
        <ele>1266.599975586</ele>
        <time>2012-05-05T11:08:37Z</time>
      </trkpt>
      <trkpt lat="44.02514" lon="7.19934">
        <ele>1266.599975586</ele>
        <time>2012-05-05T11:08:38Z</time>
      </trkpt>
      <trkpt lat="44.02517" lon="7.19939">
        <ele>1265.199951172</ele>
        <time>2012-05-05T11:08:40Z</time>
      </trkpt>
      <trkpt lat="44.02518" lon="7.19941">
        <ele>1265.199951172</ele>
        <time>2012-05-05T11:08:42Z</time>
      </trkpt>
      <trkpt lat="44.02526" lon="7.19946">
        <ele>1265.199951172</ele>
        <time>2012-05-05T11:08:46Z</time>
      </trkpt>
      <trkpt lat="44.02528" lon="7.19946">
        <ele>1264.199951172</ele>
        <time>2012-05-05T11:08:47Z</time>
      </trkpt>
      <trkpt lat="44.02533" lon="7.1995">
        <ele>1264.199951172</ele>
        <time>2012-05-05T11:08:49Z</time>
      </trkpt>
      <trkpt lat="44.02538" lon="7.19954">
        <ele>1264.199951172</ele>
        <time>2012-05-05T11:08:51Z</time>
      </trkpt>
      <trkpt lat="44.02543" lon="7.19959">
        <ele>1264.199951172</ele>
        <time>2012-05-05T11:08:54Z</time>
      </trkpt>
      <trkpt lat="44.02545" lon="7.19962">
        <ele>1264.199951172</ele>
        <time>2012-05-05T11:08:55Z</time>
      </trkpt>
      <trkpt lat="44.02553" lon="7.19973">
        <ele>1263.199951172</ele>
        <time>2012-05-05T11:08:59Z</time>
      </trkpt>
      <trkpt lat="44.02555" lon="7.19977">
        <ele>1262.199951172</ele>
        <time>2012-05-05T11:09:00Z</time>
      </trkpt>
      <trkpt lat="44.02557" lon="7.19981">
        <ele>1259.800048828</ele>
        <time>2012-05-05T11:09:01Z</time>
      </trkpt>
      <trkpt lat="44.0256" lon="7.19989">
        <ele>1259.800048828</ele>
        <time>2012-05-05T11:09:04Z</time>
      </trkpt>
      <trkpt lat="44.02561" lon="7.19991">
        <ele>1259.800048828</ele>
        <time>2012-05-05T11:09:07Z</time>
      </trkpt>
      <trkpt lat="44.02562" lon="7.19994">
        <ele>1259.800048828</ele>
        <time>2012-05-05T11:09:11Z</time>
      </trkpt>
      <trkpt lat="44.02563" lon="7.19996">
        <ele>1259.800048828</ele>
        <time>2012-05-05T11:09:16Z</time>
      </trkpt>
      <trkpt lat="44.02564" lon="7.2">
        <ele>1259.800048828</ele>
        <time>2012-05-05T11:09:24Z</time>
      </trkpt>
      <trkpt lat="44.02565" lon="7.20002">
        <ele>1259.800048828</ele>
        <time>2012-05-05T11:09:29Z</time>
      </trkpt>
      <trkpt lat="44.02566" lon="7.20002">
        <ele>1259.800048828</ele>
        <time>2012-05-05T11:09:32Z</time>
      </trkpt>
      <trkpt lat="44.02566" lon="7.20004">
        <ele>1259.800048828</ele>
        <time>2012-05-05T11:09:34Z</time>
      </trkpt>
      <trkpt lat="44.02567" lon="7.20008">
        <ele>1258.599975586</ele>
        <time>2012-05-05T11:09:37Z</time>
      </trkpt>
      <trkpt lat="44.02569" lon="7.20011">
        <ele>1258.599975586</ele>
        <time>2012-05-05T11:09:38Z</time>
      </trkpt>
      <trkpt lat="44.02573" lon="7.20016">
        <ele>1258.599975586</ele>
        <time>2012-05-05T11:09:42Z</time>
      </trkpt>
      <trkpt lat="44.02574" lon="7.20016">
        <ele>1258.599975586</ele>
        <time>2012-05-05T11:09:43Z</time>
      </trkpt>
      <trkpt lat="44.02575" lon="7.20017">
        <ele>1258.599975586</ele>
        <time>2012-05-05T11:09:46Z</time>
      </trkpt>
      <trkpt lat="44.02575" lon="7.2002">
        <ele>1258.599975586</ele>
        <time>2012-05-05T11:09:48Z</time>
      </trkpt>
      <trkpt lat="44.02578" lon="7.20022">
        <ele>1258.599975586</ele>
        <time>2012-05-05T11:09:51Z</time>
      </trkpt>
      <trkpt lat="44.02578" lon="7.20023">
        <ele>1258.599975586</ele>
        <time>2012-05-05T11:09:52Z</time>
      </trkpt>
      <trkpt lat="44.02579" lon="7.20024">
        <ele>1258.599975586</ele>
        <time>2012-05-05T11:09:55Z</time>
      </trkpt>
      <trkpt lat="44.02581" lon="7.20025">
        <ele>1258.599975586</ele>
        <time>2012-05-05T11:09:58Z</time>
      </trkpt>
      <trkpt lat="44.02582" lon="7.20027">
        <ele>1258.599975586</ele>
        <time>2012-05-05T11:09:59Z</time>
      </trkpt>
      <trkpt lat="44.02587" lon="7.20044">
        <ele>1257.599975586</ele>
        <time>2012-05-05T11:10:03Z</time>
      </trkpt>
      <trkpt lat="44.02589" lon="7.20049">
        <ele>1256.599975586</ele>
        <time>2012-05-05T11:10:05Z</time>
      </trkpt>
      <trkpt lat="44.0259" lon="7.2005">
        <ele>1256.599975586</ele>
        <time>2012-05-05T11:10:07Z</time>
      </trkpt>
      <trkpt lat="44.02592" lon="7.20052">
        <ele>1256.599975586</ele>
        <time>2012-05-05T11:10:09Z</time>
      </trkpt>
      <trkpt lat="44.02594" lon="7.20053">
        <ele>1255.400024414</ele>
        <time>2012-05-05T11:10:13Z</time>
      </trkpt>
      <trkpt lat="44.02594" lon="7.20054">
        <ele>1255.400024414</ele>
        <time>2012-05-05T11:10:14Z</time>
      </trkpt>
      <trkpt lat="44.02595" lon="7.2006">
        <ele>1255.400024414</ele>
        <time>2012-05-05T11:10:21Z</time>
      </trkpt>
      <trkpt lat="44.02596" lon="7.2006">
        <ele>1255.400024414</ele>
        <time>2012-05-05T11:10:28Z</time>
      </trkpt>
      <trkpt lat="44.02597" lon="7.20059">
        <ele>1255.400024414</ele>
        <time>2012-05-05T11:10:36Z</time>
      </trkpt>
      <trkpt lat="44.02599" lon="7.20058">
        <ele>1255.400024414</ele>
        <time>2012-05-05T11:10:43Z</time>
      </trkpt>
      <trkpt lat="44.02599" lon="7.20057">
        <ele>1254.400024414</ele>
        <time>2012-05-05T11:10:47Z</time>
      </trkpt>
      <trkpt lat="44.02599" lon="7.20057">
        <ele>1254.400024414</ele>
        <time>2012-05-05T11:10:48Z</time>
      </trkpt>
      <trkpt lat="44.02599" lon="7.20057">
        <ele>1254.400024414</ele>
        <time>2012-05-05T11:10:54Z</time>
      </trkpt>
      <trkpt lat="44.02599" lon="7.20057">
        <ele>1254.400024414</ele>
        <time>2012-05-05T11:10:57Z</time>
      </trkpt>
      <trkpt lat="44.026" lon="7.2006">
        <ele>1254.400024414</ele>
        <time>2012-05-05T11:11:00Z</time>
      </trkpt>
      <trkpt lat="44.02601" lon="7.20063">
        <ele>1254.400024414</ele>
        <time>2012-05-05T11:11:03Z</time>
      </trkpt>
      <trkpt lat="44.026" lon="7.20063">
        <ele>1257.400024414</ele>
        <time>2012-05-05T11:11:05Z</time>
      </trkpt>
      <trkpt lat="44.026" lon="7.2006">
        <ele>1257.400024414</ele>
        <time>2012-05-05T11:11:09Z</time>
      </trkpt>
      <trkpt lat="44.02601" lon="7.20058">
        <ele>1257.400024414</ele>
        <time>2012-05-05T11:11:13Z</time>
      </trkpt>
      <trkpt lat="44.02602" lon="7.20056">
        <ele>1257.400024414</ele>
        <time>2012-05-05T11:11:16Z</time>
      </trkpt>
      <trkpt lat="44.02602" lon="7.20055">
        <ele>1257.400024414</ele>
        <time>2012-05-05T11:11:17Z</time>
      </trkpt>
      <trkpt lat="44.02602" lon="7.20053">
        <ele>1257.400024414</ele>
        <time>2012-05-05T11:11:22Z</time>
      </trkpt>
      <trkpt lat="44.02602" lon="7.20055">
        <ele>1257.400024414</ele>
        <time>2012-05-05T11:11:29Z</time>
      </trkpt>
      <trkpt lat="44.02603" lon="7.20058">
        <ele>1257.400024414</ele>
        <time>2012-05-05T11:11:36Z</time>
      </trkpt>
      <trkpt lat="44.02603" lon="7.20061">
        <ele>1257.400024414</ele>
        <time>2012-05-05T11:11:39Z</time>
      </trkpt>
      <trkpt lat="44.02603" lon="7.20062">
        <ele>1257.400024414</ele>
        <time>2012-05-05T11:11:45Z</time>
      </trkpt>
      <trkpt lat="44.02601" lon="7.20056">
        <ele>1257.400024414</ele>
        <time>2012-05-05T11:11:52Z</time>
      </trkpt>
      <trkpt lat="44.02601" lon="7.20055">
        <ele>1257.400024414</ele>
        <time>2012-05-05T11:11:55Z</time>
      </trkpt>
      <trkpt lat="44.02601" lon="7.20055">
        <ele>1257.400024414</ele>
        <time>2012-05-05T11:11:56Z</time>
      </trkpt>
      <trkpt lat="44.02601" lon="7.20055">
        <ele>1257.400024414</ele>
        <time>2012-05-05T11:11:57Z</time>
      </trkpt>
      <trkpt lat="44.02603" lon="7.20054">
        <ele>1257.400024414</ele>
        <time>2012-05-05T11:12:03Z</time>
      </trkpt>
      <trkpt lat="44.02603" lon="7.20056">
        <ele>1257.400024414</ele>
        <time>2012-05-05T11:12:10Z</time>
      </trkpt>
      <trkpt lat="44.02604" lon="7.20061">
        <ele>1257.400024414</ele>
        <time>2012-05-05T11:12:18Z</time>
      </trkpt>
      <trkpt lat="44.02604" lon="7.20062">
        <ele>1257.400024414</ele>
        <time>2012-05-05T11:12:22Z</time>
      </trkpt>
      <trkpt lat="44.02604" lon="7.20061">
        <ele>1257.400024414</ele>
        <time>2012-05-05T11:12:26Z</time>
      </trkpt>
      <trkpt lat="44.02602" lon="7.20061">
        <ele>1257.400024414</ele>
        <time>2012-05-05T11:12:33Z</time>
      </trkpt>
      <trkpt lat="44.02601" lon="7.2006">
        <ele>1257.400024414</ele>
        <time>2012-05-05T11:12:39Z</time>
      </trkpt>
      <trkpt lat="44.026" lon="7.20059">
        <ele>1254.400024414</ele>
        <time>2012-05-05T11:12:43Z</time>
      </trkpt>
      <trkpt lat="44.026" lon="7.20059">
        <ele>1254.400024414</ele>
        <time>2012-05-05T11:12:44Z</time>
      </trkpt>
      <trkpt lat="44.02601" lon="7.20059">
        <ele>1254.400024414</ele>
        <time>2012-05-05T11:12:50Z</time>
      </trkpt>
      <trkpt lat="44.02601" lon="7.2006">
        <ele>1254.400024414</ele>
        <time>2012-05-05T11:12:54Z</time>
      </trkpt>
      <trkpt lat="44.02601" lon="7.20061">
        <ele>1254.400024414</ele>
        <time>2012-05-05T11:12:55Z</time>
      </trkpt>
      <trkpt lat="44.026" lon="7.2006">
        <ele>1254.400024414</ele>
        <time>2012-05-05T11:12:59Z</time>
      </trkpt>
      <trkpt lat="44.026" lon="7.2006">
        <ele>1254.400024414</ele>
        <time>2012-05-05T11:13:00Z</time>
      </trkpt>
      <trkpt lat="44.02601" lon="7.2006">
        <ele>1254.400024414</ele>
        <time>2012-05-05T11:13:03Z</time>
      </trkpt>
      <trkpt lat="44.02602" lon="7.2006">
        <ele>1254.400024414</ele>
        <time>2012-05-05T11:13:06Z</time>
      </trkpt>
      <trkpt lat="44.02602" lon="7.2006">
        <ele>1257.599975586</ele>
        <time>2012-05-05T11:13:10Z</time>
      </trkpt>
      <trkpt lat="44.02602" lon="7.20061">
        <ele>1257.599975586</ele>
        <time>2012-05-05T11:13:11Z</time>
      </trkpt>
      <trkpt lat="44.02602" lon="7.2006">
        <ele>1257.599975586</ele>
        <time>2012-05-05T11:13:17Z</time>
      </trkpt>
      <trkpt lat="44.02601" lon="7.20059">
        <ele>1257.599975586</ele>
        <time>2012-05-05T11:13:24Z</time>
      </trkpt>
      <trkpt lat="44.02599" lon="7.2006">
        <ele>1257.599975586</ele>
        <time>2012-05-05T11:13:30Z</time>
      </trkpt>
      <trkpt lat="44.02598" lon="7.20057">
        <ele>1257.599975586</ele>
        <time>2012-05-05T11:13:37Z</time>
      </trkpt>
      <trkpt lat="44.02599" lon="7.20054">
        <ele>1257.599975586</ele>
        <time>2012-05-05T11:13:41Z</time>
      </trkpt>
      <trkpt lat="44.026" lon="7.20053">
        <ele>1257.599975586</ele>
        <time>2012-05-05T11:13:44Z</time>
      </trkpt>
      <trkpt lat="44.026" lon="7.20053">
        <ele>1257.599975586</ele>
        <time>2012-05-05T11:13:46Z</time>
      </trkpt>
      <trkpt lat="44.026" lon="7.20053">
        <ele>1257.599975586</ele>
        <time>2012-05-05T11:13:47Z</time>
      </trkpt>
      <trkpt lat="44.02599" lon="7.20053">
        <ele>1257.599975586</ele>
        <time>2012-05-05T11:13:53Z</time>
      </trkpt>
      <trkpt lat="44.02599" lon="7.20052">
        <ele>1257.599975586</ele>
        <time>2012-05-05T11:13:54Z</time>
      </trkpt>
      <trkpt lat="44.026" lon="7.20052">
        <ele>1258.800048828</ele>
        <time>2012-05-05T11:14:00Z</time>
      </trkpt>
      <trkpt lat="44.02601" lon="7.20052">
        <ele>1258.800048828</ele>
        <time>2012-05-05T11:14:02Z</time>
      </trkpt>
      <trkpt lat="44.02602" lon="7.20051">
        <ele>1258.800048828</ele>
        <time>2012-05-05T11:14:07Z</time>
      </trkpt>
      <trkpt lat="44.02602" lon="7.20049">
        <ele>1258.800048828</ele>
        <time>2012-05-05T11:14:10Z</time>
      </trkpt>
      <trkpt lat="44.02602" lon="7.20048">
        <ele>1258.800048828</ele>
        <time>2012-05-05T11:14:12Z</time>
      </trkpt>
      <trkpt lat="44.02602" lon="7.20047">
        <ele>1258.800048828</ele>
        <time>2012-05-05T11:14:14Z</time>
      </trkpt>
      <trkpt lat="44.02604" lon="7.20048">
        <ele>1258.800048828</ele>
        <time>2012-05-05T11:14:18Z</time>
      </trkpt>
      <trkpt lat="44.02604" lon="7.20048">
        <ele>1258.800048828</ele>
        <time>2012-05-05T11:14:21Z</time>
      </trkpt>
      <trkpt lat="44.02603" lon="7.20052">
        <ele>1258.800048828</ele>
        <time>2012-05-05T11:14:26Z</time>
      </trkpt>
      <trkpt lat="44.02602" lon="7.20051">
        <ele>1258.800048828</ele>
        <time>2012-05-05T11:14:31Z</time>
      </trkpt>
      <trkpt lat="44.02602" lon="7.20051">
        <ele>1255.800048828</ele>
        <time>2012-05-05T11:14:35Z</time>
      </trkpt>
      <trkpt lat="44.02603" lon="7.2005">
        <ele>1255.800048828</ele>
        <time>2012-05-05T11:14:38Z</time>
      </trkpt>
      <trkpt lat="44.02601" lon="7.20053">
        <ele>1255.800048828</ele>
        <time>2012-05-05T11:14:44Z</time>
      </trkpt>
      <trkpt lat="44.02601" lon="7.20053">
        <ele>1255.800048828</ele>
        <time>2012-05-05T11:14:49Z</time>
      </trkpt>
      <trkpt lat="44.026" lon="7.20052">
        <ele>1255.800048828</ele>
        <time>2012-05-05T11:14:52Z</time>
      </trkpt>
      <trkpt lat="44.026" lon="7.20051">
        <ele>1255.800048828</ele>
        <time>2012-05-05T11:14:57Z</time>
      </trkpt>
      <trkpt lat="44.02601" lon="7.20051">
        <ele>1255.800048828</ele>
        <time>2012-05-05T11:15:02Z</time>
      </trkpt>
      <trkpt lat="44.026" lon="7.20051">
        <ele>1258.800048828</ele>
        <time>2012-05-05T11:15:08Z</time>
      </trkpt>
      <trkpt lat="44.02601" lon="7.20056">
        <ele>1258.800048828</ele>
        <time>2012-05-05T11:15:13Z</time>
      </trkpt>
      <trkpt lat="44.02601" lon="7.20059">
        <ele>1258.800048828</ele>
        <time>2012-05-05T11:15:19Z</time>
      </trkpt>
      <trkpt lat="44.02601" lon="7.20059">
        <ele>1258.800048828</ele>
        <time>2012-05-05T11:15:23Z</time>
      </trkpt>
      <trkpt lat="44.02601" lon="7.2006">
        <ele>1258.800048828</ele>
        <time>2012-05-05T11:15:29Z</time>
      </trkpt>
      <trkpt lat="44.02599" lon="7.20061">
        <ele>1258.800048828</ele>
        <time>2012-05-05T11:15:36Z</time>
      </trkpt>
      <trkpt lat="44.02597" lon="7.20061">
        <ele>1258.800048828</ele>
        <time>2012-05-05T11:15:41Z</time>
      </trkpt>
      <trkpt lat="44.02594" lon="7.20061">
        <ele>1258.800048828</ele>
        <time>2012-05-05T11:15:48Z</time>
      </trkpt>
      <trkpt lat="44.02592" lon="7.20062">
        <ele>1258.800048828</ele>
        <time>2012-05-05T11:15:53Z</time>
      </trkpt>
      <trkpt lat="44.02591" lon="7.20063">
        <ele>1258.800048828</ele>
        <time>2012-05-05T11:15:54Z</time>
      </trkpt>
      <trkpt lat="44.02587" lon="7.20061">
        <ele>1258.800048828</ele>
        <time>2012-05-05T11:16:00Z</time>
      </trkpt>
      <trkpt lat="44.02586" lon="7.20061">
        <ele>1259.800048828</ele>
        <time>2012-05-05T11:16:02Z</time>
      </trkpt>
      <trkpt lat="44.02585" lon="7.20061">
        <ele>1260.800048828</ele>
        <time>2012-05-05T11:16:05Z</time>
      </trkpt>
      <trkpt lat="44.02584" lon="7.20062">
        <ele>1260.800048828</ele>
        <time>2012-05-05T11:16:06Z</time>
      </trkpt>
      <trkpt lat="44.02582" lon="7.2006">
        <ele>1260.800048828</ele>
        <time>2012-05-05T11:16:11Z</time>
      </trkpt>
      <trkpt lat="44.02582" lon="7.2006">
        <ele>1260.800048828</ele>
        <time>2012-05-05T11:16:18Z</time>
      </trkpt>
      <trkpt lat="44.02582" lon="7.20061">
        <ele>1260.800048828</ele>
        <time>2012-05-05T11:16:25Z</time>
      </trkpt>
      <trkpt lat="44.02581" lon="7.20059">
        <ele>1262</ele>
        <time>2012-05-05T11:16:32Z</time>
      </trkpt>
      <trkpt lat="44.02581" lon="7.20059">
        <ele>1262</ele>
        <time>2012-05-05T11:16:35Z</time>
      </trkpt>
      <trkpt lat="44.02581" lon="7.20056">
        <ele>1262</ele>
        <time>2012-05-05T11:16:43Z</time>
      </trkpt>
      <trkpt lat="44.02581" lon="7.20056">
        <ele>1262</ele>
        <time>2012-05-05T11:16:48Z</time>
      </trkpt>
      <trkpt lat="44.0258" lon="7.20056">
        <ele>1262</ele>
        <time>2012-05-05T11:16:52Z</time>
      </trkpt>
      <trkpt lat="44.02578" lon="7.20055">
        <ele>1262</ele>
        <time>2012-05-05T11:16:59Z</time>
      </trkpt>
      <trkpt lat="44.02578" lon="7.20056">
        <ele>1262</ele>
        <time>2012-05-05T11:17:06Z</time>
      </trkpt>
      <trkpt lat="44.02578" lon="7.20058">
        <ele>1262</ele>
        <time>2012-05-05T11:17:13Z</time>
      </trkpt>
      <trkpt lat="44.02578" lon="7.20058">
        <ele>1263</ele>
        <time>2012-05-05T11:17:16Z</time>
      </trkpt>
      <trkpt lat="44.02576" lon="7.20057">
        <ele>1263</ele>
        <time>2012-05-05T11:17:19Z</time>
      </trkpt>
      <trkpt lat="44.02575" lon="7.20057">
        <ele>1263</ele>
        <time>2012-05-05T11:17:27Z</time>
      </trkpt>
      <trkpt lat="44.02574" lon="7.20056">
        <ele>1263</ele>
        <time>2012-05-05T11:17:33Z</time>
      </trkpt>
      <trkpt lat="44.02572" lon="7.20056">
        <ele>1264.199951172</ele>
        <time>2012-05-05T11:17:37Z</time>
      </trkpt>
      <trkpt lat="44.02572" lon="7.20056">
        <ele>1264.199951172</ele>
        <time>2012-05-05T11:17:38Z</time>
      </trkpt>
      <trkpt lat="44.02572" lon="7.20057">
        <ele>1264.199951172</ele>
        <time>2012-05-05T11:17:46Z</time>
      </trkpt>
      <trkpt lat="44.02571" lon="7.20056">
        <ele>1264.199951172</ele>
        <time>2012-05-05T11:17:52Z</time>
      </trkpt>
      <trkpt lat="44.02573" lon="7.20055">
        <ele>1261</ele>
        <time>2012-05-05T11:17:55Z</time>
      </trkpt>
      <trkpt lat="44.02573" lon="7.20055">
        <ele>1261</ele>
        <time>2012-05-05T11:17:58Z</time>
      </trkpt>
      <trkpt lat="44.02574" lon="7.20055">
        <ele>1261</ele>
        <time>2012-05-05T11:18:03Z</time>
      </trkpt>
      <trkpt lat="44.02574" lon="7.20056">
        <ele>1261</ele>
        <time>2012-05-05T11:18:04Z</time>
      </trkpt>
      <trkpt lat="44.02575" lon="7.20058">
        <ele>1261</ele>
        <time>2012-05-05T11:18:08Z</time>
      </trkpt>
      <trkpt lat="44.02575" lon="7.20058">
        <ele>1261</ele>
        <time>2012-05-05T11:18:12Z</time>
      </trkpt>
      <trkpt lat="44.02576" lon="7.20059">
        <ele>1261</ele>
        <time>2012-05-05T11:18:15Z</time>
      </trkpt>
      <trkpt lat="44.02576" lon="7.20059">
        <ele>1261</ele>
        <time>2012-05-05T11:18:16Z</time>
      </trkpt>
      <trkpt lat="44.02577" lon="7.20058">
        <ele>1261</ele>
        <time>2012-05-05T11:18:22Z</time>
      </trkpt>
      <trkpt lat="44.02578" lon="7.20057">
        <ele>1261</ele>
        <time>2012-05-05T11:18:28Z</time>
      </trkpt>
      <trkpt lat="44.02576" lon="7.20056">
        <ele>1261</ele>
        <time>2012-05-05T11:18:32Z</time>
      </trkpt>
      <trkpt lat="44.02574" lon="7.20057">
        <ele>1261</ele>
        <time>2012-05-05T11:18:38Z</time>
      </trkpt>
      <trkpt lat="44.02573" lon="7.20058">
        <ele>1264</ele>
        <time>2012-05-05T11:18:42Z</time>
      </trkpt>
      <trkpt lat="44.02573" lon="7.20058">
        <ele>1264</ele>
        <time>2012-05-05T11:18:46Z</time>
      </trkpt>
      <trkpt lat="44.02573" lon="7.20058">
        <ele>1264</ele>
        <time>2012-05-05T11:18:50Z</time>
      </trkpt>
      <trkpt lat="44.02572" lon="7.20058">
        <ele>1265.199951172</ele>
        <time>2012-05-05T11:18:53Z</time>
      </trkpt>
      <trkpt lat="44.02572" lon="7.20057">
        <ele>1265.199951172</ele>
        <time>2012-05-05T11:18:55Z</time>
      </trkpt>
      <trkpt lat="44.02572" lon="7.20056">
        <ele>1265.199951172</ele>
        <time>2012-05-05T11:19:01Z</time>
      </trkpt>
      <trkpt lat="44.02571" lon="7.20055">
        <ele>1265.199951172</ele>
        <time>2012-05-05T11:19:05Z</time>
      </trkpt>
      <trkpt lat="44.02573" lon="7.20055">
        <ele>1265.199951172</ele>
        <time>2012-05-05T11:19:10Z</time>
      </trkpt>
      <trkpt lat="44.02574" lon="7.20056">
        <ele>1266.400024414</ele>
        <time>2012-05-05T11:19:13Z</time>
      </trkpt>
      <trkpt lat="44.02572" lon="7.20056">
        <ele>1266.400024414</ele>
        <time>2012-05-05T11:19:16Z</time>
      </trkpt>
      <trkpt lat="44.02571" lon="7.20056">
        <ele>1267.599975586</ele>
        <time>2012-05-05T11:19:18Z</time>
      </trkpt>
      <trkpt lat="44.0257" lon="7.20057">
        <ele>1267.599975586</ele>
        <time>2012-05-05T11:19:22Z</time>
      </trkpt>
      <trkpt lat="44.02569" lon="7.20057">
        <ele>1267.599975586</ele>
        <time>2012-05-05T11:19:30Z</time>
      </trkpt>
      <trkpt lat="44.02567" lon="7.20059">
        <ele>1268.800048828</ele>
        <time>2012-05-05T11:19:38Z</time>
      </trkpt>
      <trkpt lat="44.02567" lon="7.20059">
        <ele>1268.800048828</ele>
        <time>2012-05-05T11:19:39Z</time>
      </trkpt>
      <trkpt lat="44.02566" lon="7.2006">
        <ele>1270</ele>
        <time>2012-05-05T11:19:42Z</time>
      </trkpt>
      <trkpt lat="44.02566" lon="7.20061">
        <ele>1270</ele>
        <time>2012-05-05T11:19:44Z</time>
      </trkpt>
      <trkpt lat="44.02564" lon="7.20059">
        <ele>1270</ele>
        <time>2012-05-05T11:19:55Z</time>
      </trkpt>
      <trkpt lat="44.02562" lon="7.2006">
        <ele>1271</ele>
        <time>2012-05-05T11:19:59Z</time>
      </trkpt>
      <trkpt lat="44.02561" lon="7.2006">
        <ele>1271</ele>
        <time>2012-05-05T11:20:00Z</time>
      </trkpt>
      <trkpt lat="44.02559" lon="7.20062">
        <ele>1272</ele>
        <time>2012-05-05T11:20:03Z</time>
      </trkpt>
      <trkpt lat="44.02556" lon="7.20062">
        <ele>1272</ele>
        <time>2012-05-05T11:20:08Z</time>
      </trkpt>
      <trkpt lat="44.02555" lon="7.20062">
        <ele>1272</ele>
        <time>2012-05-05T11:20:12Z</time>
      </trkpt>
      <trkpt lat="44.02553" lon="7.2006">
        <ele>1272</ele>
        <time>2012-05-05T11:20:17Z</time>
      </trkpt>
      <trkpt lat="44.02552" lon="7.20061">
        <ele>1272</ele>
        <time>2012-05-05T11:20:20Z</time>
      </trkpt>
      <trkpt lat="44.02551" lon="7.20062">
        <ele>1273.199951172</ele>
        <time>2012-05-05T11:20:22Z</time>
      </trkpt>
      <trkpt lat="44.02552" lon="7.20061">
        <ele>1273.199951172</ele>
        <time>2012-05-05T11:20:26Z</time>
      </trkpt>
      <trkpt lat="44.02551" lon="7.20061">
        <ele>1273.199951172</ele>
        <time>2012-05-05T11:20:32Z</time>
      </trkpt>
      <trkpt lat="44.02549" lon="7.20064">
        <ele>1274.400024414</ele>
        <time>2012-05-05T11:20:34Z</time>
      </trkpt>
      <trkpt lat="44.02545" lon="7.20066">
        <ele>1275.400024414</ele>
        <time>2012-05-05T11:20:38Z</time>
      </trkpt>
      <trkpt lat="44.02544" lon="7.20067">
        <ele>1275.400024414</ele>
        <time>2012-05-05T11:20:39Z</time>
      </trkpt>
      <trkpt lat="44.02543" lon="7.20067">
        <ele>1276.400024414</ele>
        <time>2012-05-05T11:20:40Z</time>
      </trkpt>
      <trkpt lat="44.02541" lon="7.20069">
        <ele>1276.400024414</ele>
        <time>2012-05-05T11:20:46Z</time>
      </trkpt>
      <trkpt lat="44.0254" lon="7.20069">
        <ele>1276.400024414</ele>
        <time>2012-05-05T11:20:52Z</time>
      </trkpt>
      <trkpt lat="44.02535" lon="7.20072">
        <ele>1276.400024414</ele>
        <time>2012-05-05T11:20:57Z</time>
      </trkpt>
      <trkpt lat="44.02533" lon="7.20073">
        <ele>1277.400024414</ele>
        <time>2012-05-05T11:20:58Z</time>
      </trkpt>
      <trkpt lat="44.0253" lon="7.20073">
        <ele>1277.400024414</ele>
        <time>2012-05-05T11:21:00Z</time>
      </trkpt>
      <trkpt lat="44.02529" lon="7.20074">
        <ele>1277.400024414</ele>
        <time>2012-05-05T11:21:01Z</time>
      </trkpt>
      <trkpt lat="44.02523" lon="7.20077">
        <ele>1277.400024414</ele>
        <time>2012-05-05T11:21:06Z</time>
      </trkpt>
      <trkpt lat="44.0252" lon="7.20078">
        <ele>1278.599975586</ele>
        <time>2012-05-05T11:21:09Z</time>
      </trkpt>
      <trkpt lat="44.02517" lon="7.2008">
        <ele>1278.599975586</ele>
        <time>2012-05-05T11:21:11Z</time>
      </trkpt>
      <trkpt lat="44.02516" lon="7.20081">
        <ele>1278.599975586</ele>
        <time>2012-05-05T11:21:12Z</time>
      </trkpt>
      <trkpt lat="44.02508" lon="7.20084">
        <ele>1278.599975586</ele>
        <time>2012-05-05T11:21:17Z</time>
      </trkpt>
      <trkpt lat="44.02505" lon="7.20083">
        <ele>1278.599975586</ele>
        <time>2012-05-05T11:21:19Z</time>
      </trkpt>
      <trkpt lat="44.02501" lon="7.20084">
        <ele>1278.599975586</ele>
        <time>2012-05-05T11:21:21Z</time>
      </trkpt>
      <trkpt lat="44.02497" lon="7.20085">
        <ele>1279.800048828</ele>
        <time>2012-05-05T11:21:23Z</time>
      </trkpt>
      <trkpt lat="44.02495" lon="7.20086">
        <ele>1279.800048828</ele>
        <time>2012-05-05T11:21:25Z</time>
      </trkpt>
      <trkpt lat="44.0249" lon="7.20085">
        <ele>1279.800048828</ele>
        <time>2012-05-05T11:21:27Z</time>
      </trkpt>
      <trkpt lat="44.02487" lon="7.20085">
        <ele>1279.800048828</ele>
        <time>2012-05-05T11:21:29Z</time>
      </trkpt>
      <trkpt lat="44.02486" lon="7.20086">
        <ele>1281</ele>
        <time>2012-05-05T11:21:30Z</time>
      </trkpt>
      <trkpt lat="44.0248" lon="7.20087">
        <ele>1282</ele>
        <time>2012-05-05T11:21:34Z</time>
      </trkpt>
      <trkpt lat="44.02478" lon="7.20087">
        <ele>1282</ele>
        <time>2012-05-05T11:21:35Z</time>
      </trkpt>
      <trkpt lat="44.02471" lon="7.20093">
        <ele>1282</ele>
        <time>2012-05-05T11:21:40Z</time>
      </trkpt>
      <trkpt lat="44.02463" lon="7.20099">
        <ele>1282</ele>
        <time>2012-05-05T11:21:44Z</time>
      </trkpt>
      <trkpt lat="44.02449" lon="7.20106">
        <ele>1282</ele>
        <time>2012-05-05T11:21:48Z</time>
      </trkpt>
      <trkpt lat="44.02444" lon="7.20108">
        <ele>1278.800048828</ele>
        <time>2012-05-05T11:21:49Z</time>
      </trkpt>
      <trkpt lat="44.0244" lon="7.20111">
        <ele>1277.599975586</ele>
        <time>2012-05-05T11:21:50Z</time>
      </trkpt>
      <trkpt lat="44.02436" lon="7.20115">
        <ele>1276.199951172</ele>
        <time>2012-05-05T11:21:51Z</time>
      </trkpt>
      <trkpt lat="44.02432" lon="7.20119">
        <ele>1270.599975586</ele>
        <time>2012-05-05T11:21:52Z</time>
      </trkpt>
      <trkpt lat="44.02429" lon="7.20123">
        <ele>1275.400024414</ele>
        <time>2012-05-05T11:21:53Z</time>
      </trkpt>
      <trkpt lat="44.02421" lon="7.2013">
        <ele>1277.800048828</ele>
        <time>2012-05-05T11:21:55Z</time>
      </trkpt>
      <trkpt lat="44.02414" lon="7.20132">
        <ele>1271.199951172</ele>
        <time>2012-05-05T11:21:57Z</time>
      </trkpt>
      <trkpt lat="44.0241" lon="7.20133">
        <ele>1270</ele>
        <time>2012-05-05T11:21:58Z</time>
      </trkpt>
      <trkpt lat="44.02406" lon="7.20134">
        <ele>1274.199951172</ele>
        <time>2012-05-05T11:21:59Z</time>
      </trkpt>
      <trkpt lat="44.02402" lon="7.20134">
        <ele>1277</ele>
        <time>2012-05-05T11:22:00Z</time>
      </trkpt>
      <trkpt lat="44.02397" lon="7.20135">
        <ele>1273.400024414</ele>
        <time>2012-05-05T11:22:01Z</time>
      </trkpt>
      <trkpt lat="44.02394" lon="7.20136">
        <ele>1276.599975586</ele>
        <time>2012-05-05T11:22:02Z</time>
      </trkpt>
      <trkpt lat="44.02391" lon="7.20138">
        <ele>1276.599975586</ele>
        <time>2012-05-05T11:22:03Z</time>
      </trkpt>
      <trkpt lat="44.02389" lon="7.20139">
        <ele>1278.599975586</ele>
        <time>2012-05-05T11:22:04Z</time>
      </trkpt>
      <trkpt lat="44.02387" lon="7.20141">
        <ele>1278.599975586</ele>
        <time>2012-05-05T11:22:07Z</time>
      </trkpt>
      <trkpt lat="44.02384" lon="7.20143">
        <ele>1278.599975586</ele>
        <time>2012-05-05T11:22:12Z</time>
      </trkpt>
      <trkpt lat="44.02382" lon="7.20145">
        <ele>1278.599975586</ele>
        <time>2012-05-05T11:22:18Z</time>
      </trkpt>
      <trkpt lat="44.02371" lon="7.2015">
        <ele>1274.400024414</ele>
        <time>2012-05-05T11:22:22Z</time>
      </trkpt>
      <trkpt lat="44.02368" lon="7.20152">
        <ele>1273.199951172</ele>
        <time>2012-05-05T11:22:23Z</time>
      </trkpt>
      <trkpt lat="44.02366" lon="7.20153">
        <ele>1271.199951172</ele>
        <time>2012-05-05T11:22:24Z</time>
      </trkpt>
      <trkpt lat="44.02364" lon="7.20152">
        <ele>1271.199951172</ele>
        <time>2012-05-05T11:22:25Z</time>
      </trkpt>
      <trkpt lat="44.0236" lon="7.20152">
        <ele>1271.199951172</ele>
        <time>2012-05-05T11:22:26Z</time>
      </trkpt>
      <trkpt lat="44.02353" lon="7.20156">
        <ele>1268.400024414</ele>
        <time>2012-05-05T11:22:28Z</time>
      </trkpt>
      <trkpt lat="44.02349" lon="7.20159">
        <ele>1267.400024414</ele>
        <time>2012-05-05T11:22:29Z</time>
      </trkpt>
      <trkpt lat="44.02346" lon="7.20162">
        <ele>1267.400024414</ele>
        <time>2012-05-05T11:22:30Z</time>
      </trkpt>
      <trkpt lat="44.02338" lon="7.20169">
        <ele>1265.800048828</ele>
        <time>2012-05-05T11:22:32Z</time>
      </trkpt>
      <trkpt lat="44.02334" lon="7.20171">
        <ele>1264.199951172</ele>
        <time>2012-05-05T11:22:33Z</time>
      </trkpt>
      <trkpt lat="44.0233" lon="7.20174">
        <ele>1264.199951172</ele>
        <time>2012-05-05T11:22:34Z</time>
      </trkpt>
      <trkpt lat="44.02324" lon="7.20178">
        <ele>1267.199951172</ele>
        <time>2012-05-05T11:22:36Z</time>
      </trkpt>
      <trkpt lat="44.02311" lon="7.20187">
        <ele>1267.199951172</ele>
        <time>2012-05-05T11:22:39Z</time>
      </trkpt>
      <trkpt lat="44.02306" lon="7.20188">
        <ele>1267.199951172</ele>
        <time>2012-05-05T11:22:40Z</time>
      </trkpt>
      <trkpt lat="44.02298" lon="7.20192">
        <ele>1267.199951172</ele>
        <time>2012-05-05T11:22:42Z</time>
      </trkpt>
      <trkpt lat="44.02293" lon="7.20197">
        <ele>1265</ele>
        <time>2012-05-05T11:22:44Z</time>
      </trkpt>
      <trkpt lat="44.02292" lon="7.20201">
        <ele>1265</ele>
        <time>2012-05-05T11:22:46Z</time>
      </trkpt>
      <trkpt lat="44.02291" lon="7.20203">
        <ele>1264</ele>
        <time>2012-05-05T11:22:47Z</time>
      </trkpt>
      <trkpt lat="44.02291" lon="7.20204">
        <ele>1262.599975586</ele>
        <time>2012-05-05T11:22:48Z</time>
      </trkpt>
      <trkpt lat="44.0229" lon="7.20204">
        <ele>1261.599975586</ele>
        <time>2012-05-05T11:22:50Z</time>
      </trkpt>
      <trkpt lat="44.02288" lon="7.20203">
        <ele>1261.599975586</ele>
        <time>2012-05-05T11:22:51Z</time>
      </trkpt>
      <trkpt lat="44.02286" lon="7.20203">
        <ele>1261.599975586</ele>
        <time>2012-05-05T11:22:55Z</time>
      </trkpt>
      <trkpt lat="44.02286" lon="7.20203">
        <ele>1260.199951172</ele>
        <time>2012-05-05T11:22:56Z</time>
      </trkpt>
      <trkpt lat="44.02285" lon="7.20203">
        <ele>1259.199951172</ele>
        <time>2012-05-05T11:23:02Z</time>
      </trkpt>
      <trkpt lat="44.02284" lon="7.20205">
        <ele>1258.199951172</ele>
        <time>2012-05-05T11:23:05Z</time>
      </trkpt>
      <trkpt lat="44.02277" lon="7.20208">
        <ele>1258.199951172</ele>
        <time>2012-05-05T11:23:14Z</time>
      </trkpt>
      <trkpt lat="44.02266" lon="7.2021">
        <ele>1258.199951172</ele>
        <time>2012-05-05T11:23:18Z</time>
      </trkpt>
      <trkpt lat="44.02255" lon="7.20213">
        <ele>1258.199951172</ele>
        <time>2012-05-05T11:23:21Z</time>
      </trkpt>
      <trkpt lat="44.02251" lon="7.20213">
        <ele>1255.599975586</ele>
        <time>2012-05-05T11:23:22Z</time>
      </trkpt>
      <trkpt lat="44.02244" lon="7.20218">
        <ele>1253.400024414</ele>
        <time>2012-05-05T11:23:24Z</time>
      </trkpt>
      <trkpt lat="44.0224" lon="7.2022">
        <ele>1251.199951172</ele>
        <time>2012-05-05T11:23:25Z</time>
      </trkpt>
      <trkpt lat="44.02237" lon="7.20221">
        <ele>1251.199951172</ele>
        <time>2012-05-05T11:23:26Z</time>
      </trkpt>
      <trkpt lat="44.02234" lon="7.20224">
        <ele>1250</ele>
        <time>2012-05-05T11:23:27Z</time>
      </trkpt>
      <trkpt lat="44.02231" lon="7.20227">
        <ele>1248.800048828</ele>
        <time>2012-05-05T11:23:28Z</time>
      </trkpt>
      <trkpt lat="44.02229" lon="7.20231">
        <ele>1248.800048828</ele>
        <time>2012-05-05T11:23:29Z</time>
      </trkpt>
      <trkpt lat="44.02228" lon="7.20235">
        <ele>1247.800048828</ele>
        <time>2012-05-05T11:23:30Z</time>
      </trkpt>
      <trkpt lat="44.02218" lon="7.20243">
        <ele>1246.599975586</ele>
        <time>2012-05-05T11:23:33Z</time>
      </trkpt>
      <trkpt lat="44.02215" lon="7.20245">
        <ele>1245.199951172</ele>
        <time>2012-05-05T11:23:34Z</time>
      </trkpt>
      <trkpt lat="44.02212" lon="7.20248">
        <ele>1245.199951172</ele>
        <time>2012-05-05T11:23:36Z</time>
      </trkpt>
      <trkpt lat="44.02212" lon="7.2025">
        <ele>1245.199951172</ele>
        <time>2012-05-05T11:23:41Z</time>
      </trkpt>
      <trkpt lat="44.02208" lon="7.20252">
        <ele>1245.199951172</ele>
        <time>2012-05-05T11:23:56Z</time>
      </trkpt>
      <trkpt lat="44.02206" lon="7.20254">
        <ele>1244.199951172</ele>
        <time>2012-05-05T11:23:57Z</time>
      </trkpt>
      <trkpt lat="44.02199" lon="7.2026">
        <ele>1242.800048828</ele>
        <time>2012-05-05T11:24:00Z</time>
      </trkpt>
      <trkpt lat="44.02196" lon="7.20263">
        <ele>1241</ele>
        <time>2012-05-05T11:24:01Z</time>
      </trkpt>
      <trkpt lat="44.02186" lon="7.2027">
        <ele>1240</ele>
        <time>2012-05-05T11:24:03Z</time>
      </trkpt>
      <trkpt lat="44.02181" lon="7.20272">
        <ele>1236.800048828</ele>
        <time>2012-05-05T11:24:04Z</time>
      </trkpt>
      <trkpt lat="44.02177" lon="7.20276">
        <ele>1235</ele>
        <time>2012-05-05T11:24:05Z</time>
      </trkpt>
      <trkpt lat="44.02171" lon="7.20285">
        <ele>1235</ele>
        <time>2012-05-05T11:24:07Z</time>
      </trkpt>
      <trkpt lat="44.02169" lon="7.20292">
        <ele>1238.400024414</ele>
        <time>2012-05-05T11:24:09Z</time>
      </trkpt>
      <trkpt lat="44.02167" lon="7.20294">
        <ele>1239.599975586</ele>
        <time>2012-05-05T11:24:10Z</time>
      </trkpt>
      <trkpt lat="44.02162" lon="7.20304">
        <ele>1239.599975586</ele>
        <time>2012-05-05T11:24:13Z</time>
      </trkpt>
      <trkpt lat="44.02158" lon="7.2031">
        <ele>1239.599975586</ele>
        <time>2012-05-05T11:24:15Z</time>
      </trkpt>
      <trkpt lat="44.02152" lon="7.20318">
        <ele>1240.800048828</ele>
        <time>2012-05-05T11:24:18Z</time>
      </trkpt>
      <trkpt lat="44.02149" lon="7.2032">
        <ele>1240.800048828</ele>
        <time>2012-05-05T11:24:19Z</time>
      </trkpt>
      <trkpt lat="44.02147" lon="7.20321">
        <ele>1237.599975586</ele>
        <time>2012-05-05T11:24:20Z</time>
      </trkpt>
      <trkpt lat="44.02134" lon="7.20324">
        <ele>1235.599975586</ele>
        <time>2012-05-05T11:24:24Z</time>
      </trkpt>
      <trkpt lat="44.02131" lon="7.20324">
        <ele>1235.599975586</ele>
        <time>2012-05-05T11:24:27Z</time>
      </trkpt>
      <trkpt lat="44.02131" lon="7.20324">
        <ele>1234.400024414</ele>
        <time>2012-05-05T11:24:28Z</time>
      </trkpt>
      <trkpt lat="44.02125" lon="7.20326">
        <ele>1234.400024414</ele>
        <time>2012-05-05T11:24:31Z</time>
      </trkpt>
      <trkpt lat="44.02122" lon="7.20326">
        <ele>1233.400024414</ele>
        <time>2012-05-05T11:24:32Z</time>
      </trkpt>
      <trkpt lat="44.02111" lon="7.20329">
        <ele>1233.400024414</ele>
        <time>2012-05-05T11:24:36Z</time>
      </trkpt>
      <trkpt lat="44.02108" lon="7.20331">
        <ele>1232.199951172</ele>
        <time>2012-05-05T11:24:38Z</time>
      </trkpt>
      <trkpt lat="44.02106" lon="7.20333">
        <ele>1232.199951172</ele>
        <time>2012-05-05T11:24:41Z</time>
      </trkpt>
      <trkpt lat="44.02106" lon="7.20333">
        <ele>1231.199951172</ele>
        <time>2012-05-05T11:24:42Z</time>
      </trkpt>
      <trkpt lat="44.02104" lon="7.20334">
        <ele>1230</ele>
        <time>2012-05-05T11:24:49Z</time>
      </trkpt>
      <trkpt lat="44.02102" lon="7.20335">
        <ele>1230</ele>
        <time>2012-05-05T11:24:50Z</time>
      </trkpt>
      <trkpt lat="44.02095" lon="7.20338">
        <ele>1230</ele>
        <time>2012-05-05T11:24:55Z</time>
      </trkpt>
      <trkpt lat="44.02094" lon="7.20338">
        <ele>1229</ele>
        <time>2012-05-05T11:24:57Z</time>
      </trkpt>
      <trkpt lat="44.02094" lon="7.20338">
        <ele>1229</ele>
        <time>2012-05-05T11:25:02Z</time>
      </trkpt>
      <trkpt lat="44.02094" lon="7.20338">
        <ele>1229</ele>
        <time>2012-05-05T11:25:03Z</time>
      </trkpt>
      <trkpt lat="44.02093" lon="7.20339">
        <ele>1229</ele>
        <time>2012-05-05T11:25:08Z</time>
      </trkpt>
      <trkpt lat="44.02082" lon="7.20344">
        <ele>1229</ele>
        <time>2012-05-05T11:25:13Z</time>
      </trkpt>
      <trkpt lat="44.02075" lon="7.20349">
        <ele>1229</ele>
        <time>2012-05-05T11:25:17Z</time>
      </trkpt>
      <trkpt lat="44.02073" lon="7.2035">
        <ele>1229</ele>
        <time>2012-05-05T11:25:18Z</time>
      </trkpt>
      <trkpt lat="44.02059" lon="7.20353">
        <ele>1229</ele>
        <time>2012-05-05T11:25:23Z</time>
      </trkpt>
      <trkpt lat="44.02051" lon="7.20355">
        <ele>1229</ele>
        <time>2012-05-05T11:25:28Z</time>
      </trkpt>
      <trkpt lat="44.02051" lon="7.20355">
        <ele>1227</ele>
        <time>2012-05-05T11:25:33Z</time>
      </trkpt>
      <trkpt lat="44.02052" lon="7.20355">
        <ele>1227</ele>
        <time>2012-05-05T11:25:36Z</time>
      </trkpt>
      <trkpt lat="44.02053" lon="7.20355">
        <ele>1227</ele>
        <time>2012-05-05T11:25:40Z</time>
      </trkpt>
      <trkpt lat="44.02053" lon="7.20356">
        <ele>1225.800048828</ele>
        <time>2012-05-05T11:25:42Z</time>
      </trkpt>
      <trkpt lat="44.02053" lon="7.20357">
        <ele>1225.800048828</ele>
        <time>2012-05-05T11:25:48Z</time>
      </trkpt>
      <trkpt lat="44.02054" lon="7.20357">
        <ele>1225.800048828</ele>
        <time>2012-05-05T11:25:52Z</time>
      </trkpt>
      <trkpt lat="44.02054" lon="7.20358">
        <ele>1225.800048828</ele>
        <time>2012-05-05T11:25:56Z</time>
      </trkpt>
      <trkpt lat="44.02054" lon="7.20358">
        <ele>1225.800048828</ele>
        <time>2012-05-05T11:25:59Z</time>
      </trkpt>
      <trkpt lat="44.02054" lon="7.20358">
        <ele>1225.800048828</ele>
        <time>2012-05-05T11:26:03Z</time>
      </trkpt>
      <trkpt lat="44.02054" lon="7.20358">
        <ele>1225.800048828</ele>
        <time>2012-05-05T11:26:12Z</time>
      </trkpt>
      <trkpt lat="44.02054" lon="7.20358">
        <ele>1225.800048828</ele>
        <time>2012-05-05T11:26:18Z</time>
      </trkpt>
      <trkpt lat="44.02054" lon="7.20358">
        <ele>1225.800048828</ele>
        <time>2012-05-05T11:26:26Z</time>
      </trkpt>
      <trkpt lat="44.02054" lon="7.20358">
        <ele>1225.800048828</ele>
        <time>2012-05-05T11:26:34Z</time>
      </trkpt>
      <trkpt lat="44.02054" lon="7.20358">
        <ele>1225.800048828</ele>
        <time>2012-05-05T11:26:37Z</time>
      </trkpt>
      <trkpt lat="44.02054" lon="7.20358">
        <ele>1228.800048828</ele>
        <time>2012-05-05T11:26:39Z</time>
      </trkpt>
      <trkpt lat="44.02055" lon="7.20359">
        <ele>1228.800048828</ele>
        <time>2012-05-05T11:26:45Z</time>
      </trkpt>
      <trkpt lat="44.02055" lon="7.2036">
        <ele>1228.800048828</ele>
        <time>2012-05-05T11:26:49Z</time>
      </trkpt>
      <trkpt lat="44.02055" lon="7.2036">
        <ele>1228.800048828</ele>
        <time>2012-05-05T11:26:56Z</time>
      </trkpt>
      <trkpt lat="44.02055" lon="7.2036">
        <ele>1228.800048828</ele>
        <time>2012-05-05T11:26:58Z</time>
      </trkpt>
      <trkpt lat="44.02055" lon="7.20359">
        <ele>1228.800048828</ele>
        <time>2012-05-05T11:27:08Z</time>
      </trkpt>
      <trkpt lat="44.02054" lon="7.20357">
        <ele>1228.800048828</ele>
        <time>2012-05-05T11:27:13Z</time>
      </trkpt>
      <trkpt lat="44.02054" lon="7.20357">
        <ele>1228.800048828</ele>
        <time>2012-05-05T11:27:20Z</time>
      </trkpt>
      <trkpt lat="44.02054" lon="7.20357">
        <ele>1228.800048828</ele>
        <time>2012-05-05T11:27:25Z</time>
      </trkpt>
      <trkpt lat="44.02054" lon="7.20357">
        <ele>1228.800048828</ele>
        <time>2012-05-05T11:27:27Z</time>
      </trkpt>
      <trkpt lat="44.02054" lon="7.20356">
        <ele>1228.800048828</ele>
        <time>2012-05-05T11:27:28Z</time>
      </trkpt>
      <trkpt lat="44.02054" lon="7.20356">
        <ele>1228.800048828</ele>
        <time>2012-05-05T11:27:35Z</time>
      </trkpt>
      <trkpt lat="44.02054" lon="7.20357">
        <ele>1228.800048828</ele>
        <time>2012-05-05T11:27:36Z</time>
      </trkpt>
      <trkpt lat="44.02056" lon="7.20358">
        <ele>1228.800048828</ele>
        <time>2012-05-05T11:27:40Z</time>
      </trkpt>
      <trkpt lat="44.02055" lon="7.20357">
        <ele>1228.800048828</ele>
        <time>2012-05-05T11:27:45Z</time>
      </trkpt>
      <trkpt lat="44.02055" lon="7.20357">
        <ele>1228.800048828</ele>
        <time>2012-05-05T11:27:46Z</time>
      </trkpt>
      <trkpt lat="44.02054" lon="7.20355">
        <ele>1228.800048828</ele>
        <time>2012-05-05T11:27:52Z</time>
      </trkpt>
      <trkpt lat="44.02055" lon="7.20356">
        <ele>1228.800048828</ele>
        <time>2012-05-05T11:27:58Z</time>
      </trkpt>
      <trkpt lat="44.02056" lon="7.20357">
        <ele>1228.800048828</ele>
        <time>2012-05-05T11:28:02Z</time>
      </trkpt>
      <trkpt lat="44.02055" lon="7.20359">
        <ele>1228.800048828</ele>
        <time>2012-05-05T11:28:05Z</time>
      </trkpt>
      <trkpt lat="44.02055" lon="7.20359">
        <ele>1228.800048828</ele>
        <time>2012-05-05T11:28:06Z</time>
      </trkpt>
      <trkpt lat="44.02055" lon="7.20359">
        <ele>1228.800048828</ele>
        <time>2012-05-05T11:28:08Z</time>
      </trkpt>
      <trkpt lat="44.02055" lon="7.20359">
        <ele>1228.800048828</ele>
        <time>2012-05-05T11:28:11Z</time>
      </trkpt>
      <trkpt lat="44.02055" lon="7.20359">
        <ele>1228.800048828</ele>
        <time>2012-05-05T11:28:14Z</time>
      </trkpt>
      <trkpt lat="44.02053" lon="7.20358">
        <ele>1228.800048828</ele>
        <time>2012-05-05T11:28:17Z</time>
      </trkpt>
      <trkpt lat="44.02053" lon="7.20358">
        <ele>1228.800048828</ele>
        <time>2012-05-05T11:28:20Z</time>
      </trkpt>
      <trkpt lat="44.02053" lon="7.20358">
        <ele>1228.800048828</ele>
        <time>2012-05-05T11:28:23Z</time>
      </trkpt>
      <trkpt lat="44.02053" lon="7.20358">
        <ele>1228.800048828</ele>
        <time>2012-05-05T11:28:29Z</time>
      </trkpt>
      <trkpt lat="44.02054" lon="7.20359">
        <ele>1228.800048828</ele>
        <time>2012-05-05T11:28:35Z</time>
      </trkpt>
      <trkpt lat="44.02055" lon="7.2036">
        <ele>1228.800048828</ele>
        <time>2012-05-05T11:28:39Z</time>
      </trkpt>
      <trkpt lat="44.02054" lon="7.2036">
        <ele>1228.800048828</ele>
        <time>2012-05-05T11:28:42Z</time>
      </trkpt>
      <trkpt lat="44.02053" lon="7.20361">
        <ele>1228.800048828</ele>
        <time>2012-05-05T11:28:46Z</time>
      </trkpt>
      <trkpt lat="44.02052" lon="7.20362">
        <ele>1228.800048828</ele>
        <time>2012-05-05T11:28:48Z</time>
      </trkpt>
      <trkpt lat="44.02042" lon="7.20363">
        <ele>1224.199951172</ele>
        <time>2012-05-05T11:28:53Z</time>
      </trkpt>
      <trkpt lat="44.02039" lon="7.20364">
        <ele>1221</ele>
        <time>2012-05-05T11:28:54Z</time>
      </trkpt>
      <trkpt lat="44.0203" lon="7.20369">
        <ele>1225.199951172</ele>
        <time>2012-05-05T11:28:57Z</time>
      </trkpt>
      <trkpt lat="44.02023" lon="7.20372">
        <ele>1226.199951172</ele>
        <time>2012-05-05T11:28:59Z</time>
      </trkpt>
      <trkpt lat="44.02012" lon="7.20381">
        <ele>1226.199951172</ele>
        <time>2012-05-05T11:29:04Z</time>
      </trkpt>
      <trkpt lat="44.02012" lon="7.20381">
        <ele>1226.199951172</ele>
        <time>2012-05-05T11:29:08Z</time>
      </trkpt>
      <trkpt lat="44.02012" lon="7.2038">
        <ele>1226.199951172</ele>
        <time>2012-05-05T11:29:13Z</time>
      </trkpt>
      <trkpt lat="44.02011" lon="7.20381">
        <ele>1226.199951172</ele>
        <time>2012-05-05T11:29:16Z</time>
      </trkpt>
      <trkpt lat="44.02014" lon="7.20378">
        <ele>1226.199951172</ele>
        <time>2012-05-05T11:29:22Z</time>
      </trkpt>
      <trkpt lat="44.02015" lon="7.20376">
        <ele>1226.199951172</ele>
        <time>2012-05-05T11:29:26Z</time>
      </trkpt>
      <trkpt lat="44.02016" lon="7.20376">
        <ele>1226.199951172</ele>
        <time>2012-05-05T11:29:29Z</time>
      </trkpt>
      <trkpt lat="44.02016" lon="7.20376">
        <ele>1226.199951172</ele>
        <time>2012-05-05T11:29:31Z</time>
      </trkpt>
      <trkpt lat="44.02015" lon="7.20377">
        <ele>1226.199951172</ele>
        <time>2012-05-05T11:29:33Z</time>
      </trkpt>
      <trkpt lat="44.02014" lon="7.20378">
        <ele>1226.199951172</ele>
        <time>2012-05-05T11:29:37Z</time>
      </trkpt>
      <trkpt lat="44.02014" lon="7.20379">
        <ele>1226.199951172</ele>
        <time>2012-05-05T11:29:40Z</time>
      </trkpt>
      <trkpt lat="44.02014" lon="7.20377">
        <ele>1226.199951172</ele>
        <time>2012-05-05T11:29:46Z</time>
      </trkpt>
      <trkpt lat="44.02014" lon="7.20377">
        <ele>1226.199951172</ele>
        <time>2012-05-05T11:29:47Z</time>
      </trkpt>
      <trkpt lat="44.02014" lon="7.20377">
        <ele>1226.199951172</ele>
        <time>2012-05-05T11:29:49Z</time>
      </trkpt>
      <trkpt lat="44.02014" lon="7.20377">
        <ele>1226.199951172</ele>
        <time>2012-05-05T11:29:51Z</time>
      </trkpt>
      <trkpt lat="44.02014" lon="7.20377">
        <ele>1226.199951172</ele>
        <time>2012-05-05T11:29:53Z</time>
      </trkpt>
      <trkpt lat="44.02014" lon="7.20377">
        <ele>1226.199951172</ele>
        <time>2012-05-05T11:29:59Z</time>
      </trkpt>
      <trkpt lat="44.02014" lon="7.20377">
        <ele>1226.199951172</ele>
        <time>2012-05-05T11:30:01Z</time>
      </trkpt>
      <trkpt lat="44.02013" lon="7.20376">
        <ele>1226.199951172</ele>
        <time>2012-05-05T11:30:06Z</time>
      </trkpt>
      <trkpt lat="44.02013" lon="7.20376">
        <ele>1226.199951172</ele>
        <time>2012-05-05T11:30:09Z</time>
      </trkpt>
      <trkpt lat="44.02012" lon="7.20375">
        <ele>1226.199951172</ele>
        <time>2012-05-05T11:30:17Z</time>
      </trkpt>
      <trkpt lat="44.02011" lon="7.20377">
        <ele>1226.199951172</ele>
        <time>2012-05-05T11:30:22Z</time>
      </trkpt>
      <trkpt lat="44.0201" lon="7.20376">
        <ele>1226.199951172</ele>
        <time>2012-05-05T11:30:24Z</time>
      </trkpt>
      <trkpt lat="44.0201" lon="7.20377">
        <ele>1226.199951172</ele>
        <time>2012-05-05T11:30:27Z</time>
      </trkpt>
      <trkpt lat="44.0201" lon="7.20377">
        <ele>1226.199951172</ele>
        <time>2012-05-05T11:30:28Z</time>
      </trkpt>
      <trkpt lat="44.0201" lon="7.20376">
        <ele>1226.199951172</ele>
        <time>2012-05-05T11:30:32Z</time>
      </trkpt>
      <trkpt lat="44.02011" lon="7.20377">
        <ele>1222</ele>
        <time>2012-05-05T11:30:34Z</time>
      </trkpt>
      <trkpt lat="44.0201" lon="7.20377">
        <ele>1225.800048828</ele>
        <time>2012-05-05T11:30:36Z</time>
      </trkpt>
      <trkpt lat="44.02011" lon="7.20377">
        <ele>1225.800048828</ele>
        <time>2012-05-05T11:30:40Z</time>
      </trkpt>
      <trkpt lat="44.02012" lon="7.20378">
        <ele>1225.800048828</ele>
        <time>2012-05-05T11:30:45Z</time>
      </trkpt>
      <trkpt lat="44.02012" lon="7.20378">
        <ele>1225.800048828</ele>
        <time>2012-05-05T11:30:51Z</time>
      </trkpt>
      <trkpt lat="44.02013" lon="7.2038">
        <ele>1225.800048828</ele>
        <time>2012-05-05T11:30:57Z</time>
      </trkpt>
      <trkpt lat="44.02012" lon="7.20379">
        <ele>1225.800048828</ele>
        <time>2012-05-05T11:31:01Z</time>
      </trkpt>
      <trkpt lat="44.02012" lon="7.2038">
        <ele>1225.800048828</ele>
        <time>2012-05-05T11:31:04Z</time>
      </trkpt>
      <trkpt lat="44.02013" lon="7.2038">
        <ele>1225.800048828</ele>
        <time>2012-05-05T11:31:07Z</time>
      </trkpt>
      <trkpt lat="44.02012" lon="7.20381">
        <ele>1227</ele>
        <time>2012-05-05T11:31:08Z</time>
      </trkpt>
      <trkpt lat="44.02012" lon="7.20381">
        <ele>1227</ele>
        <time>2012-05-05T11:31:09Z</time>
      </trkpt>
      <trkpt lat="44.02008" lon="7.20383">
        <ele>1227</ele>
        <time>2012-05-05T11:31:15Z</time>
      </trkpt>
      <trkpt lat="44.01999" lon="7.20389">
        <ele>1227</ele>
        <time>2012-05-05T11:31:20Z</time>
      </trkpt>
      <trkpt lat="44.01999" lon="7.20389">
        <ele>1227</ele>
        <time>2012-05-05T11:31:23Z</time>
      </trkpt>
      <trkpt lat="44.01997" lon="7.20389">
        <ele>1227</ele>
        <time>2012-05-05T11:31:26Z</time>
      </trkpt>
      <trkpt lat="44.01995" lon="7.20391">
        <ele>1227</ele>
        <time>2012-05-05T11:31:28Z</time>
      </trkpt>
      <trkpt lat="44.01987" lon="7.20405">
        <ele>1227</ele>
        <time>2012-05-05T11:31:33Z</time>
      </trkpt>
      <trkpt lat="44.01985" lon="7.20407">
        <ele>1227</ele>
        <time>2012-05-05T11:31:34Z</time>
      </trkpt>
      <trkpt lat="44.01972" lon="7.20412">
        <ele>1227</ele>
        <time>2012-05-05T11:31:39Z</time>
      </trkpt>
      <trkpt lat="44.01957" lon="7.2042">
        <ele>1227</ele>
        <time>2012-05-05T11:31:45Z</time>
      </trkpt>
      <trkpt lat="44.01956" lon="7.2042">
        <ele>1223.800048828</ele>
        <time>2012-05-05T11:31:46Z</time>
      </trkpt>
      <trkpt lat="44.01956" lon="7.2042">
        <ele>1223.800048828</ele>
        <time>2012-05-05T11:31:48Z</time>
      </trkpt>
      <trkpt lat="44.01955" lon="7.2042">
        <ele>1220.599975586</ele>
        <time>2012-05-05T11:31:50Z</time>
      </trkpt>
      <trkpt lat="44.01955" lon="7.2042">
        <ele>1223.599975586</ele>
        <time>2012-05-05T11:31:52Z</time>
      </trkpt>
      <trkpt lat="44.01956" lon="7.20422">
        <ele>1223.599975586</ele>
        <time>2012-05-05T11:31:56Z</time>
      </trkpt>
      <trkpt lat="44.01957" lon="7.20422">
        <ele>1223.599975586</ele>
        <time>2012-05-05T11:32:02Z</time>
      </trkpt>
      <trkpt lat="44.01957" lon="7.20422">
        <ele>1223.599975586</ele>
        <time>2012-05-05T11:32:08Z</time>
      </trkpt>
      <trkpt lat="44.01956" lon="7.20419">
        <ele>1223.599975586</ele>
        <time>2012-05-05T11:32:14Z</time>
      </trkpt>
      <trkpt lat="44.01955" lon="7.2042">
        <ele>1223.599975586</ele>
        <time>2012-05-05T11:32:17Z</time>
      </trkpt>
      <trkpt lat="44.01951" lon="7.20422">
        <ele>1220</ele>
        <time>2012-05-05T11:32:19Z</time>
      </trkpt>
      <trkpt lat="44.01948" lon="7.20424">
        <ele>1217.400024414</ele>
        <time>2012-05-05T11:32:20Z</time>
      </trkpt>
      <trkpt lat="44.01933" lon="7.20429">
        <ele>1217.400024414</ele>
        <time>2012-05-05T11:32:23Z</time>
      </trkpt>
      <trkpt lat="44.01928" lon="7.20429">
        <ele>1216.400024414</ele>
        <time>2012-05-05T11:32:25Z</time>
      </trkpt>
      <trkpt lat="44.01924" lon="7.20428">
        <ele>1216.400024414</ele>
        <time>2012-05-05T11:32:27Z</time>
      </trkpt>
      <trkpt lat="44.01923" lon="7.20427">
        <ele>1216.400024414</ele>
        <time>2012-05-05T11:32:31Z</time>
      </trkpt>
      <trkpt lat="44.01922" lon="7.20427">
        <ele>1215.199951172</ele>
        <time>2012-05-05T11:32:33Z</time>
      </trkpt>
      <trkpt lat="44.01924" lon="7.20426">
        <ele>1215.199951172</ele>
        <time>2012-05-05T11:32:36Z</time>
      </trkpt>
      <trkpt lat="44.01924" lon="7.20426">
        <ele>1214</ele>
        <time>2012-05-05T11:32:38Z</time>
      </trkpt>
      <trkpt lat="44.01925" lon="7.20429">
        <ele>1214</ele>
        <time>2012-05-05T11:32:40Z</time>
      </trkpt>
      <trkpt lat="44.01921" lon="7.20429">
        <ele>1214</ele>
        <time>2012-05-05T11:32:44Z</time>
      </trkpt>
      <trkpt lat="44.01921" lon="7.20429">
        <ele>1214</ele>
        <time>2012-05-05T11:32:49Z</time>
      </trkpt>
      <trkpt lat="44.01921" lon="7.20429">
        <ele>1214</ele>
        <time>2012-05-05T11:32:50Z</time>
      </trkpt>
      <trkpt lat="44.01921" lon="7.20429">
        <ele>1214</ele>
        <time>2012-05-05T11:32:55Z</time>
      </trkpt>
      <trkpt lat="44.01921" lon="7.20429">
        <ele>1214</ele>
        <time>2012-05-05T11:32:57Z</time>
      </trkpt>
      <trkpt lat="44.01923" lon="7.20432">
        <ele>1214</ele>
        <time>2012-05-05T11:33:03Z</time>
      </trkpt>
      <trkpt lat="44.01924" lon="7.20428">
        <ele>1214</ele>
        <time>2012-05-05T11:33:08Z</time>
      </trkpt>
      <trkpt lat="44.01924" lon="7.20428">
        <ele>1214</ele>
        <time>2012-05-05T11:33:13Z</time>
      </trkpt>
      <trkpt lat="44.01924" lon="7.20428">
        <ele>1214</ele>
        <time>2012-05-05T11:33:15Z</time>
      </trkpt>
      <trkpt lat="44.01924" lon="7.20428">
        <ele>1214</ele>
        <time>2012-05-05T11:33:17Z</time>
      </trkpt>
      <trkpt lat="44.01924" lon="7.20428">
        <ele>1214</ele>
        <time>2012-05-05T11:33:19Z</time>
      </trkpt>
      <trkpt lat="44.01924" lon="7.20428">
        <ele>1214</ele>
        <time>2012-05-05T11:33:21Z</time>
      </trkpt>
      <trkpt lat="44.01923" lon="7.20429">
        <ele>1214</ele>
        <time>2012-05-05T11:33:25Z</time>
      </trkpt>
      <trkpt lat="44.01924" lon="7.20429">
        <ele>1214</ele>
        <time>2012-05-05T11:33:28Z</time>
      </trkpt>
      <trkpt lat="44.01923" lon="7.20429">
        <ele>1214</ele>
        <time>2012-05-05T11:33:34Z</time>
      </trkpt>
      <trkpt lat="44.01921" lon="7.20431">
        <ele>1214</ele>
        <time>2012-05-05T11:33:40Z</time>
      </trkpt>
      <trkpt lat="44.0192" lon="7.20431">
        <ele>1214</ele>
        <time>2012-05-05T11:33:41Z</time>
      </trkpt>
      <trkpt lat="44.01921" lon="7.2043">
        <ele>1214</ele>
        <time>2012-05-05T11:33:45Z</time>
      </trkpt>
      <trkpt lat="44.01921" lon="7.20432">
        <ele>1214</ele>
        <time>2012-05-05T11:33:55Z</time>
      </trkpt>
      <trkpt lat="44.01924" lon="7.20435">
        <ele>1214</ele>
        <time>2012-05-05T11:34:00Z</time>
      </trkpt>
      <trkpt lat="44.01924" lon="7.20435">
        <ele>1214</ele>
        <time>2012-05-05T11:34:01Z</time>
      </trkpt>
      <trkpt lat="44.01924" lon="7.20436">
        <ele>1214</ele>
        <time>2012-05-05T11:34:05Z</time>
      </trkpt>
      <trkpt lat="44.01924" lon="7.20436">
        <ele>1214</ele>
        <time>2012-05-05T11:34:06Z</time>
      </trkpt>
      <trkpt lat="44.01925" lon="7.20436">
        <ele>1214</ele>
        <time>2012-05-05T11:34:11Z</time>
      </trkpt>
      <trkpt lat="44.01925" lon="7.20435">
        <ele>1214</ele>
        <time>2012-05-05T11:34:18Z</time>
      </trkpt>
      <trkpt lat="44.01925" lon="7.20436">
        <ele>1214</ele>
        <time>2012-05-05T11:34:27Z</time>
      </trkpt>
      <trkpt lat="44.01922" lon="7.20433">
        <ele>1214</ele>
        <time>2012-05-05T11:34:31Z</time>
      </trkpt>
      <trkpt lat="44.01923" lon="7.20429">
        <ele>1214</ele>
        <time>2012-05-05T11:34:36Z</time>
      </trkpt>
      <trkpt lat="44.01923" lon="7.20428">
        <ele>1214</ele>
        <time>2012-05-05T11:34:41Z</time>
      </trkpt>
      <trkpt lat="44.01923" lon="7.20428">
        <ele>1214</ele>
        <time>2012-05-05T11:34:42Z</time>
      </trkpt>
      <trkpt lat="44.01923" lon="7.2043">
        <ele>1214</ele>
        <time>2012-05-05T11:34:46Z</time>
      </trkpt>
      <trkpt lat="44.01923" lon="7.2043">
        <ele>1214</ele>
        <time>2012-05-05T11:34:48Z</time>
      </trkpt>
      <trkpt lat="44.01922" lon="7.2043">
        <ele>1214</ele>
        <time>2012-05-05T11:34:50Z</time>
      </trkpt>
      <trkpt lat="44.01921" lon="7.20429">
        <ele>1214</ele>
        <time>2012-05-05T11:34:53Z</time>
      </trkpt>
      <trkpt lat="44.01921" lon="7.20428">
        <ele>1214</ele>
        <time>2012-05-05T11:34:54Z</time>
      </trkpt>
      <trkpt lat="44.01922" lon="7.20421">
        <ele>1212.800048828</ele>
        <time>2012-05-05T11:34:57Z</time>
      </trkpt>
      <trkpt lat="44.01929" lon="7.20412">
        <ele>1211.400024414</ele>
        <time>2012-05-05T11:35:00Z</time>
      </trkpt>
      <trkpt lat="44.01933" lon="7.20408">
        <ele>1211.400024414</ele>
        <time>2012-05-05T11:35:01Z</time>
      </trkpt>
      <trkpt lat="44.01938" lon="7.20403">
        <ele>1210.400024414</ele>
        <time>2012-05-05T11:35:03Z</time>
      </trkpt>
      <trkpt lat="44.01938" lon="7.20402">
        <ele>1210.400024414</ele>
        <time>2012-05-05T11:35:04Z</time>
      </trkpt>
      <trkpt lat="44.01939" lon="7.20402">
        <ele>1210.400024414</ele>
        <time>2012-05-05T11:35:09Z</time>
      </trkpt>
      <trkpt lat="44.01939" lon="7.20402">
        <ele>1210.400024414</ele>
        <time>2012-05-05T11:35:11Z</time>
      </trkpt>
      <trkpt lat="44.01938" lon="7.20403">
        <ele>1210.400024414</ele>
        <time>2012-05-05T11:35:17Z</time>
      </trkpt>
      <trkpt lat="44.01938" lon="7.20402">
        <ele>1207.599975586</ele>
        <time>2012-05-05T11:35:18Z</time>
      </trkpt>
      <trkpt lat="44.01939" lon="7.20401">
        <ele>1207.599975586</ele>
        <time>2012-05-05T11:35:21Z</time>
      </trkpt>
      <trkpt lat="44.01939" lon="7.20402">
        <ele>1207.599975586</ele>
        <time>2012-05-05T11:35:28Z</time>
      </trkpt>
      <trkpt lat="44.01939" lon="7.20401">
        <ele>1207.599975586</ele>
        <time>2012-05-05T11:35:33Z</time>
      </trkpt>
      <trkpt lat="44.01939" lon="7.20402">
        <ele>1207.599975586</ele>
        <time>2012-05-05T11:35:36Z</time>
      </trkpt>
      <trkpt lat="44.01939" lon="7.20402">
        <ele>1207.599975586</ele>
        <time>2012-05-05T11:35:42Z</time>
      </trkpt>
      <trkpt lat="44.01939" lon="7.20402">
        <ele>1207.599975586</ele>
        <time>2012-05-05T11:35:45Z</time>
      </trkpt>
      <trkpt lat="44.01939" lon="7.20402">
        <ele>1206.599975586</ele>
        <time>2012-05-05T11:35:49Z</time>
      </trkpt>
      <trkpt lat="44.01939" lon="7.20401">
        <ele>1209.599975586</ele>
        <time>2012-05-05T11:35:52Z</time>
      </trkpt>
      <trkpt lat="44.01939" lon="7.20401">
        <ele>1209.599975586</ele>
        <time>2012-05-05T11:35:56Z</time>
      </trkpt>
      <trkpt lat="44.01938" lon="7.20401">
        <ele>1209.599975586</ele>
        <time>2012-05-05T11:35:58Z</time>
      </trkpt>
      <trkpt lat="44.01938" lon="7.20399">
        <ele>1209.599975586</ele>
        <time>2012-05-05T11:36:03Z</time>
      </trkpt>
      <trkpt lat="44.01938" lon="7.20399">
        <ele>1209.599975586</ele>
        <time>2012-05-05T11:36:07Z</time>
      </trkpt>
      <trkpt lat="44.01938" lon="7.204">
        <ele>1209.599975586</ele>
        <time>2012-05-05T11:36:09Z</time>
      </trkpt>
      <trkpt lat="44.01938" lon="7.204">
        <ele>1209.599975586</ele>
        <time>2012-05-05T11:36:16Z</time>
      </trkpt>
      <trkpt lat="44.01938" lon="7.20399">
        <ele>1209.599975586</ele>
        <time>2012-05-05T11:36:20Z</time>
      </trkpt>
      <trkpt lat="44.01938" lon="7.20399">
        <ele>1209.599975586</ele>
        <time>2012-05-05T11:36:24Z</time>
      </trkpt>
      <trkpt lat="44.01938" lon="7.20399">
        <ele>1209.599975586</ele>
        <time>2012-05-05T11:36:25Z</time>
      </trkpt>
      <trkpt lat="44.01938" lon="7.20399">
        <ele>1209.599975586</ele>
        <time>2012-05-05T11:36:29Z</time>
      </trkpt>
      <trkpt lat="44.01938" lon="7.20399">
        <ele>1209.599975586</ele>
        <time>2012-05-05T11:36:31Z</time>
      </trkpt>
      <trkpt lat="44.01938" lon="7.204">
        <ele>1209.599975586</ele>
        <time>2012-05-05T11:36:37Z</time>
      </trkpt>
      <trkpt lat="44.01938" lon="7.204">
        <ele>1209.599975586</ele>
        <time>2012-05-05T11:36:42Z</time>
      </trkpt>
      <trkpt lat="44.01938" lon="7.20401">
        <ele>1209.599975586</ele>
        <time>2012-05-05T11:36:48Z</time>
      </trkpt>
      <trkpt lat="44.01937" lon="7.204">
        <ele>1209.599975586</ele>
        <time>2012-05-05T11:36:55Z</time>
      </trkpt>
      <trkpt lat="44.01937" lon="7.204">
        <ele>1211.599975586</ele>
        <time>2012-05-05T11:36:56Z</time>
      </trkpt>
      <trkpt lat="44.01936" lon="7.204">
        <ele>1211.599975586</ele>
        <time>2012-05-05T11:36:58Z</time>
      </trkpt>
      <trkpt lat="44.01937" lon="7.20399">
        <ele>1211.599975586</ele>
        <time>2012-05-05T11:37:02Z</time>
      </trkpt>
      <trkpt lat="44.01945" lon="7.20391">
        <ele>1208.599975586</ele>
        <time>2012-05-05T11:37:06Z</time>
      </trkpt>
      <trkpt lat="44.01955" lon="7.2038">
        <ele>1206.199951172</ele>
        <time>2012-05-05T11:37:09Z</time>
      </trkpt>
      <trkpt lat="44.01959" lon="7.20377">
        <ele>1205.199951172</ele>
        <time>2012-05-05T11:37:10Z</time>
      </trkpt>
      <trkpt lat="44.01964" lon="7.20374">
        <ele>1203</ele>
        <time>2012-05-05T11:37:11Z</time>
      </trkpt>
      <trkpt lat="44.01983" lon="7.20363">
        <ele>1203</ele>
        <time>2012-05-05T11:37:15Z</time>
      </trkpt>
      <trkpt lat="44.01988" lon="7.20361">
        <ele>1203</ele>
        <time>2012-05-05T11:37:16Z</time>
      </trkpt>
      <trkpt lat="44.01998" lon="7.20353">
        <ele>1203</ele>
        <time>2012-05-05T11:37:19Z</time>
      </trkpt>
      <trkpt lat="44.02001" lon="7.2035">
        <ele>1203</ele>
        <time>2012-05-05T11:37:20Z</time>
      </trkpt>
      <trkpt lat="44.02009" lon="7.20345">
        <ele>1201</ele>
        <time>2012-05-05T11:37:22Z</time>
      </trkpt>
      <trkpt lat="44.02017" lon="7.20338">
        <ele>1201</ele>
        <time>2012-05-05T11:37:24Z</time>
      </trkpt>
      <trkpt lat="44.02029" lon="7.20331">
        <ele>1201</ele>
        <time>2012-05-05T11:37:27Z</time>
      </trkpt>
      <trkpt lat="44.02033" lon="7.20328">
        <ele>1201</ele>
        <time>2012-05-05T11:37:28Z</time>
      </trkpt>
      <trkpt lat="44.02036" lon="7.20325">
        <ele>1199.800048828</ele>
        <time>2012-05-05T11:37:29Z</time>
      </trkpt>
      <trkpt lat="44.02046" lon="7.20318">
        <ele>1198.800048828</ele>
        <time>2012-05-05T11:37:31Z</time>
      </trkpt>
      <trkpt lat="44.02055" lon="7.20312">
        <ele>1198.800048828</ele>
        <time>2012-05-05T11:37:33Z</time>
      </trkpt>
      <trkpt lat="44.02065" lon="7.20304">
        <ele>1197.800048828</ele>
        <time>2012-05-05T11:37:35Z</time>
      </trkpt>
      <trkpt lat="44.02076" lon="7.20294">
        <ele>1196.599975586</ele>
        <time>2012-05-05T11:37:37Z</time>
      </trkpt>
      <trkpt lat="44.0208" lon="7.2029">
        <ele>1196.599975586</ele>
        <time>2012-05-05T11:37:38Z</time>
      </trkpt>
      <trkpt lat="44.02082" lon="7.20287">
        <ele>1195.599975586</ele>
        <time>2012-05-05T11:37:39Z</time>
      </trkpt>
      <trkpt lat="44.02084" lon="7.20286">
        <ele>1195.599975586</ele>
        <time>2012-05-05T11:37:40Z</time>
      </trkpt>
      <trkpt lat="44.02083" lon="7.20286">
        <ele>1195.599975586</ele>
        <time>2012-05-05T11:37:41Z</time>
      </trkpt>
      <trkpt lat="44.02083" lon="7.20286">
        <ele>1195.599975586</ele>
        <time>2012-05-05T11:37:42Z</time>
      </trkpt>
      <trkpt lat="44.02083" lon="7.20286">
        <ele>1195.599975586</ele>
        <time>2012-05-05T11:37:44Z</time>
      </trkpt>
      <trkpt lat="44.02082" lon="7.20284">
        <ele>1195.599975586</ele>
        <time>2012-05-05T11:37:47Z</time>
      </trkpt>
      <trkpt lat="44.02082" lon="7.20284">
        <ele>1195.599975586</ele>
        <time>2012-05-05T11:37:48Z</time>
      </trkpt>
      <trkpt lat="44.02083" lon="7.20284">
        <ele>1195.599975586</ele>
        <time>2012-05-05T11:37:51Z</time>
      </trkpt>
      <trkpt lat="44.02082" lon="7.20284">
        <ele>1195.599975586</ele>
        <time>2012-05-05T11:37:55Z</time>
      </trkpt>
      <trkpt lat="44.02082" lon="7.20284">
        <ele>1195.599975586</ele>
        <time>2012-05-05T11:37:59Z</time>
      </trkpt>
      <trkpt lat="44.02084" lon="7.20284">
        <ele>1195.599975586</ele>
        <time>2012-05-05T11:38:03Z</time>
      </trkpt>
      <trkpt lat="44.02092" lon="7.20274">
        <ele>1191</ele>
        <time>2012-05-05T11:38:07Z</time>
      </trkpt>
      <trkpt lat="44.02095" lon="7.20269">
        <ele>1189.800048828</ele>
        <time>2012-05-05T11:38:08Z</time>
      </trkpt>
      <trkpt lat="44.02103" lon="7.20255">
        <ele>1188.400024414</ele>
        <time>2012-05-05T11:38:11Z</time>
      </trkpt>
      <trkpt lat="44.02106" lon="7.20248">
        <ele>1185.599975586</ele>
        <time>2012-05-05T11:38:12Z</time>
      </trkpt>
      <trkpt lat="44.0211" lon="7.20241">
        <ele>1184</ele>
        <time>2012-05-05T11:38:13Z</time>
      </trkpt>
      <trkpt lat="44.02119" lon="7.20223">
        <ele>1184</ele>
        <time>2012-05-05T11:38:16Z</time>
      </trkpt>
      <trkpt lat="44.02122" lon="7.20217">
        <ele>1184</ele>
        <time>2012-05-05T11:38:17Z</time>
      </trkpt>
      <trkpt lat="44.02127" lon="7.20208">
        <ele>1184</ele>
        <time>2012-05-05T11:38:19Z</time>
      </trkpt>
      <trkpt lat="44.02132" lon="7.20199">
        <ele>1184</ele>
        <time>2012-05-05T11:38:21Z</time>
      </trkpt>
      <trkpt lat="44.02139" lon="7.20191">
        <ele>1184</ele>
        <time>2012-05-05T11:38:23Z</time>
      </trkpt>
      <trkpt lat="44.02143" lon="7.20187">
        <ele>1183</ele>
        <time>2012-05-05T11:38:24Z</time>
      </trkpt>
      <trkpt lat="44.02147" lon="7.20179">
        <ele>1183</ele>
        <time>2012-05-05T11:38:26Z</time>
      </trkpt>
      <trkpt lat="44.02151" lon="7.20168">
        <ele>1186.199951172</ele>
        <time>2012-05-05T11:38:29Z</time>
      </trkpt>
      <trkpt lat="44.02152" lon="7.20165">
        <ele>1186.199951172</ele>
        <time>2012-05-05T11:38:30Z</time>
      </trkpt>
      <trkpt lat="44.02154" lon="7.20162">
        <ele>1186.199951172</ele>
        <time>2012-05-05T11:38:31Z</time>
      </trkpt>
      <trkpt lat="44.02165" lon="7.2015">
        <ele>1182.199951172</ele>
        <time>2012-05-05T11:38:35Z</time>
      </trkpt>
      <trkpt lat="44.02166" lon="7.2015">
        <ele>1182.199951172</ele>
        <time>2012-05-05T11:38:38Z</time>
      </trkpt>
      <trkpt lat="44.02167" lon="7.20149">
        <ele>1182.199951172</ele>
        <time>2012-05-05T11:38:44Z</time>
      </trkpt>
      <trkpt lat="44.02167" lon="7.20149">
        <ele>1182.199951172</ele>
        <time>2012-05-05T11:38:48Z</time>
      </trkpt>
      <trkpt lat="44.02166" lon="7.20149">
        <ele>1182.199951172</ele>
        <time>2012-05-05T11:38:54Z</time>
      </trkpt>
      <trkpt lat="44.02167" lon="7.20148">
        <ele>1182.199951172</ele>
        <time>2012-05-05T11:38:57Z</time>
      </trkpt>
      <trkpt lat="44.02168" lon="7.20147">
        <ele>1182.199951172</ele>
        <time>2012-05-05T11:39:01Z</time>
      </trkpt>
      <trkpt lat="44.02167" lon="7.20146">
        <ele>1182.199951172</ele>
        <time>2012-05-05T11:39:06Z</time>
      </trkpt>
      <trkpt lat="44.0217" lon="7.20145">
        <ele>1182.199951172</ele>
        <time>2012-05-05T11:39:11Z</time>
      </trkpt>
      <trkpt lat="44.02178" lon="7.20137">
        <ele>1180.800048828</ele>
        <time>2012-05-05T11:39:17Z</time>
      </trkpt>
      <trkpt lat="44.02182" lon="7.20133">
        <ele>1179.400024414</ele>
        <time>2012-05-05T11:39:18Z</time>
      </trkpt>
      <trkpt lat="44.02189" lon="7.20126">
        <ele>1179.400024414</ele>
        <time>2012-05-05T11:39:20Z</time>
      </trkpt>
      <trkpt lat="44.02197" lon="7.20118">
        <ele>1176.800048828</ele>
        <time>2012-05-05T11:39:22Z</time>
      </trkpt>
      <trkpt lat="44.02201" lon="7.20117">
        <ele>1176.800048828</ele>
        <time>2012-05-05T11:39:23Z</time>
      </trkpt>
      <trkpt lat="44.02206" lon="7.20115">
        <ele>1175.599975586</ele>
        <time>2012-05-05T11:39:24Z</time>
      </trkpt>
      <trkpt lat="44.02212" lon="7.20109">
        <ele>1175.599975586</ele>
        <time>2012-05-05T11:39:26Z</time>
      </trkpt>
      <trkpt lat="44.02213" lon="7.20107">
        <ele>1175.599975586</ele>
        <time>2012-05-05T11:39:27Z</time>
      </trkpt>
      <trkpt lat="44.02215" lon="7.201">
        <ele>1175.599975586</ele>
        <time>2012-05-05T11:39:29Z</time>
      </trkpt>
      <trkpt lat="44.02217" lon="7.20093">
        <ele>1175.599975586</ele>
        <time>2012-05-05T11:39:31Z</time>
      </trkpt>
      <trkpt lat="44.02223" lon="7.20084">
        <ele>1175.599975586</ele>
        <time>2012-05-05T11:39:35Z</time>
      </trkpt>
      <trkpt lat="44.02224" lon="7.2008">
        <ele>1175.599975586</ele>
        <time>2012-05-05T11:39:36Z</time>
      </trkpt>
      <trkpt lat="44.02225" lon="7.20077">
        <ele>1175.599975586</ele>
        <time>2012-05-05T11:39:39Z</time>
      </trkpt>
      <trkpt lat="44.02225" lon="7.20074">
        <ele>1175.599975586</ele>
        <time>2012-05-05T11:39:42Z</time>
      </trkpt>
      <trkpt lat="44.02226" lon="7.20074">
        <ele>1175.599975586</ele>
        <time>2012-05-05T11:39:45Z</time>
      </trkpt>
      <trkpt lat="44.02227" lon="7.20072">
        <ele>1175.599975586</ele>
        <time>2012-05-05T11:39:52Z</time>
      </trkpt>
      <trkpt lat="44.02227" lon="7.2007">
        <ele>1175.599975586</ele>
        <time>2012-05-05T11:39:59Z</time>
      </trkpt>
      <trkpt lat="44.02227" lon="7.2007">
        <ele>1175.599975586</ele>
        <time>2012-05-05T11:40:06Z</time>
      </trkpt>
      <trkpt lat="44.02231" lon="7.20067">
        <ele>1175.599975586</ele>
        <time>2012-05-05T11:40:12Z</time>
      </trkpt>
      <trkpt lat="44.02233" lon="7.20063">
        <ele>1175.599975586</ele>
        <time>2012-05-05T11:40:17Z</time>
      </trkpt>
      <trkpt lat="44.02236" lon="7.20062">
        <ele>1175.599975586</ele>
        <time>2012-05-05T11:40:22Z</time>
      </trkpt>
      <trkpt lat="44.02242" lon="7.20065">
        <ele>1173.599975586</ele>
        <time>2012-05-05T11:40:25Z</time>
      </trkpt>
      <trkpt lat="44.02241" lon="7.20064">
        <ele>1173.599975586</ele>
        <time>2012-05-05T11:40:26Z</time>
      </trkpt>
      <trkpt lat="44.02254" lon="7.20067">
        <ele>1172.199951172</ele>
        <time>2012-05-05T11:40:32Z</time>
      </trkpt>
      <trkpt lat="44.02257" lon="7.20066">
        <ele>1170.800048828</ele>
        <time>2012-05-05T11:40:33Z</time>
      </trkpt>
      <trkpt lat="44.0226" lon="7.20063">
        <ele>1170.800048828</ele>
        <time>2012-05-05T11:40:36Z</time>
      </trkpt>
      <trkpt lat="44.02262" lon="7.2006">
        <ele>1170.800048828</ele>
        <time>2012-05-05T11:40:41Z</time>
      </trkpt>
      <trkpt lat="44.0226" lon="7.20055">
        <ele>1170.800048828</ele>
        <time>2012-05-05T11:40:47Z</time>
      </trkpt>
      <trkpt lat="44.0226" lon="7.20054">
        <ele>1169</ele>
        <time>2012-05-05T11:40:48Z</time>
      </trkpt>
      <trkpt lat="44.02256" lon="7.20047">
        <ele>1169</ele>
        <time>2012-05-05T11:40:52Z</time>
      </trkpt>
      <trkpt lat="44.02254" lon="7.20042">
        <ele>1168</ele>
        <time>2012-05-05T11:40:54Z</time>
      </trkpt>
      <trkpt lat="44.02254" lon="7.20035">
        <ele>1168</ele>
        <time>2012-05-05T11:40:57Z</time>
      </trkpt>
      <trkpt lat="44.02254" lon="7.20033">
        <ele>1168</ele>
        <time>2012-05-05T11:40:59Z</time>
      </trkpt>
      <trkpt lat="44.02251" lon="7.20031">
        <ele>1168</ele>
        <time>2012-05-05T11:41:01Z</time>
      </trkpt>
      <trkpt lat="44.02247" lon="7.20029">
        <ele>1171.199951172</ele>
        <time>2012-05-05T11:41:04Z</time>
      </trkpt>
      <trkpt lat="44.02241" lon="7.20025">
        <ele>1171.199951172</ele>
        <time>2012-05-05T11:41:07Z</time>
      </trkpt>
      <trkpt lat="44.02238" lon="7.20022">
        <ele>1172.800048828</ele>
        <time>2012-05-05T11:41:09Z</time>
      </trkpt>
      <trkpt lat="44.02231" lon="7.20017">
        <ele>1172.800048828</ele>
        <time>2012-05-05T11:41:12Z</time>
      </trkpt>
      <trkpt lat="44.02229" lon="7.20015">
        <ele>1172.800048828</ele>
        <time>2012-05-05T11:41:13Z</time>
      </trkpt>
      <trkpt lat="44.02215" lon="7.20013">
        <ele>1172.800048828</ele>
        <time>2012-05-05T11:41:18Z</time>
      </trkpt>
      <trkpt lat="44.02206" lon="7.20017">
        <ele>1172.800048828</ele>
        <time>2012-05-05T11:41:22Z</time>
      </trkpt>
      <trkpt lat="44.02203" lon="7.20017">
        <ele>1169.400024414</ele>
        <time>2012-05-05T11:41:23Z</time>
      </trkpt>
      <trkpt lat="44.02196" lon="7.20022">
        <ele>1166.599975586</ele>
        <time>2012-05-05T11:41:25Z</time>
      </trkpt>
      <trkpt lat="44.02192" lon="7.20024">
        <ele>1164.400024414</ele>
        <time>2012-05-05T11:41:26Z</time>
      </trkpt>
      <trkpt lat="44.02183" lon="7.20025">
        <ele>1167.599975586</ele>
        <time>2012-05-05T11:41:29Z</time>
      </trkpt>
      <trkpt lat="44.02178" lon="7.20025">
        <ele>1163.599975586</ele>
        <time>2012-05-05T11:41:30Z</time>
      </trkpt>
      <trkpt lat="44.02171" lon="7.20024">
        <ele>1162.400024414</ele>
        <time>2012-05-05T11:41:32Z</time>
      </trkpt>
      <trkpt lat="44.02168" lon="7.20022">
        <ele>1161.199951172</ele>
        <time>2012-05-05T11:41:33Z</time>
      </trkpt>
      <trkpt lat="44.02162" lon="7.20021">
        <ele>1161.199951172</ele>
        <time>2012-05-05T11:41:35Z</time>
      </trkpt>
      <trkpt lat="44.02158" lon="7.20021">
        <ele>1159.199951172</ele>
        <time>2012-05-05T11:41:36Z</time>
      </trkpt>
      <trkpt lat="44.02155" lon="7.20023">
        <ele>1162.599975586</ele>
        <time>2012-05-05T11:41:37Z</time>
      </trkpt>
      <trkpt lat="44.02152" lon="7.20026">
        <ele>1156.599975586</ele>
        <time>2012-05-05T11:41:38Z</time>
      </trkpt>
      <trkpt lat="44.02148" lon="7.20027">
        <ele>1155.199951172</ele>
        <time>2012-05-05T11:41:39Z</time>
      </trkpt>
      <trkpt lat="44.02137" lon="7.20031">
        <ele>1155.199951172</ele>
        <time>2012-05-05T11:41:42Z</time>
      </trkpt>
      <trkpt lat="44.02133" lon="7.20031">
        <ele>1153.800048828</ele>
        <time>2012-05-05T11:41:43Z</time>
      </trkpt>
      <trkpt lat="44.02119" lon="7.20027">
        <ele>1153.800048828</ele>
        <time>2012-05-05T11:41:47Z</time>
      </trkpt>
      <trkpt lat="44.02115" lon="7.20028">
        <ele>1153.800048828</ele>
        <time>2012-05-05T11:41:48Z</time>
      </trkpt>
      <trkpt lat="44.02105" lon="7.20032">
        <ele>1157</ele>
        <time>2012-05-05T11:41:51Z</time>
      </trkpt>
      <trkpt lat="44.02094" lon="7.20039">
        <ele>1157</ele>
        <time>2012-05-05T11:41:54Z</time>
      </trkpt>
      <trkpt lat="44.02086" lon="7.20043">
        <ele>1157</ele>
        <time>2012-05-05T11:41:56Z</time>
      </trkpt>
      <trkpt lat="44.02077" lon="7.20047">
        <ele>1154</ele>
        <time>2012-05-05T11:41:58Z</time>
      </trkpt>
      <trkpt lat="44.02068" lon="7.20055">
        <ele>1154</ele>
        <time>2012-05-05T11:42:00Z</time>
      </trkpt>
      <trkpt lat="44.02062" lon="7.20057">
        <ele>1151.400024414</ele>
        <time>2012-05-05T11:42:01Z</time>
      </trkpt>
      <trkpt lat="44.02058" lon="7.2006">
        <ele>1149</ele>
        <time>2012-05-05T11:42:02Z</time>
      </trkpt>
      <trkpt lat="44.02045" lon="7.20064">
        <ele>1149</ele>
        <time>2012-05-05T11:42:05Z</time>
      </trkpt>
      <trkpt lat="44.02035" lon="7.20066">
        <ele>1146.599975586</ele>
        <time>2012-05-05T11:42:07Z</time>
      </trkpt>
      <trkpt lat="44.0203" lon="7.20067">
        <ele>1145.400024414</ele>
        <time>2012-05-05T11:42:08Z</time>
      </trkpt>
      <trkpt lat="44.02019" lon="7.20065">
        <ele>1145.400024414</ele>
        <time>2012-05-05T11:42:10Z</time>
      </trkpt>
      <trkpt lat="44.02014" lon="7.20064">
        <ele>1144.400024414</ele>
        <time>2012-05-05T11:42:11Z</time>
      </trkpt>
      <trkpt lat="44.02009" lon="7.20064">
        <ele>1144.400024414</ele>
        <time>2012-05-05T11:42:12Z</time>
      </trkpt>
      <trkpt lat="44.01996" lon="7.20062">
        <ele>1143.199951172</ele>
        <time>2012-05-05T11:42:14Z</time>
      </trkpt>
      <trkpt lat="44.01991" lon="7.2006">
        <ele>1142.199951172</ele>
        <time>2012-05-05T11:42:15Z</time>
      </trkpt>
      <trkpt lat="44.01989" lon="7.20059">
        <ele>1142.199951172</ele>
        <time>2012-05-05T11:42:16Z</time>
      </trkpt>
      <trkpt lat="44.01989" lon="7.20059">
        <ele>1145.599975586</ele>
        <time>2012-05-05T11:42:19Z</time>
      </trkpt>
      <trkpt lat="44.0199" lon="7.2006">
        <ele>1145.599975586</ele>
        <time>2012-05-05T11:42:26Z</time>
      </trkpt>
      <trkpt lat="44.01986" lon="7.20057">
        <ele>1145.599975586</ele>
        <time>2012-05-05T11:42:31Z</time>
      </trkpt>
      <trkpt lat="44.01981" lon="7.20057">
        <ele>1145.599975586</ele>
        <time>2012-05-05T11:42:33Z</time>
      </trkpt>
      <trkpt lat="44.01975" lon="7.2006">
        <ele>1145.599975586</ele>
        <time>2012-05-05T11:42:35Z</time>
      </trkpt>
      <trkpt lat="44.01965" lon="7.20061">
        <ele>1142.199951172</ele>
        <time>2012-05-05T11:42:37Z</time>
      </trkpt>
      <trkpt lat="44.01955" lon="7.20064">
        <ele>1139.400024414</ele>
        <time>2012-05-05T11:42:39Z</time>
      </trkpt>
      <trkpt lat="44.01946" lon="7.20065">
        <ele>1136</ele>
        <time>2012-05-05T11:42:41Z</time>
      </trkpt>
      <trkpt lat="44.01942" lon="7.20067">
        <ele>1136</ele>
        <time>2012-05-05T11:42:42Z</time>
      </trkpt>
      <trkpt lat="44.0194" lon="7.20069">
        <ele>1139.199951172</ele>
        <time>2012-05-05T11:42:43Z</time>
      </trkpt>
      <trkpt lat="44.01925" lon="7.20075">
        <ele>1134</ele>
        <time>2012-05-05T11:42:47Z</time>
      </trkpt>
      <trkpt lat="44.01906" lon="7.20087">
        <ele>1132.400024414</ele>
        <time>2012-05-05T11:42:51Z</time>
      </trkpt>
      <trkpt lat="44.01902" lon="7.20089">
        <ele>1130.199951172</ele>
        <time>2012-05-05T11:42:52Z</time>
      </trkpt>
      <trkpt lat="44.01897" lon="7.20091">
        <ele>1128.599975586</ele>
        <time>2012-05-05T11:42:53Z</time>
      </trkpt>
      <trkpt lat="44.01888" lon="7.20095">
        <ele>1126.800048828</ele>
        <time>2012-05-05T11:42:55Z</time>
      </trkpt>
      <trkpt lat="44.01883" lon="7.20097">
        <ele>1124.800048828</ele>
        <time>2012-05-05T11:42:56Z</time>
      </trkpt>
      <trkpt lat="44.01878" lon="7.20098">
        <ele>1124.800048828</ele>
        <time>2012-05-05T11:42:57Z</time>
      </trkpt>
      <trkpt lat="44.01863" lon="7.20096">
        <ele>1124.800048828</ele>
        <time>2012-05-05T11:43:00Z</time>
      </trkpt>
      <trkpt lat="44.01858" lon="7.20094">
        <ele>1123.800048828</ele>
        <time>2012-05-05T11:43:01Z</time>
      </trkpt>
      <trkpt lat="44.01853" lon="7.20091">
        <ele>1123.800048828</ele>
        <time>2012-05-05T11:43:02Z</time>
      </trkpt>
      <trkpt lat="44.01848" lon="7.20089">
        <ele>1121.400024414</ele>
        <time>2012-05-05T11:43:03Z</time>
      </trkpt>
      <trkpt lat="44.01841" lon="7.20084">
        <ele>1121.400024414</ele>
        <time>2012-05-05T11:43:05Z</time>
      </trkpt>
      <trkpt lat="44.01832" lon="7.20078">
        <ele>1120.400024414</ele>
        <time>2012-05-05T11:43:07Z</time>
      </trkpt>
      <trkpt lat="44.01828" lon="7.20076">
        <ele>1115.599975586</ele>
        <time>2012-05-05T11:43:08Z</time>
      </trkpt>
      <trkpt lat="44.01824" lon="7.20073">
        <ele>1115.599975586</ele>
        <time>2012-05-05T11:43:09Z</time>
      </trkpt>
      <trkpt lat="44.01816" lon="7.20069">
        <ele>1115.599975586</ele>
        <time>2012-05-05T11:43:11Z</time>
      </trkpt>
      <trkpt lat="44.01808" lon="7.20066">
        <ele>1115.599975586</ele>
        <time>2012-05-05T11:43:13Z</time>
      </trkpt>
      <trkpt lat="44.018" lon="7.20061">
        <ele>1114.400024414</ele>
        <time>2012-05-05T11:43:15Z</time>
      </trkpt>
      <trkpt lat="44.01797" lon="7.20058">
        <ele>1113.400024414</ele>
        <time>2012-05-05T11:43:16Z</time>
      </trkpt>
      <trkpt lat="44.01795" lon="7.20056">
        <ele>1111</ele>
        <time>2012-05-05T11:43:17Z</time>
      </trkpt>
      <trkpt lat="44.01792" lon="7.20053">
        <ele>1111</ele>
        <time>2012-05-05T11:43:18Z</time>
      </trkpt>
      <trkpt lat="44.01788" lon="7.2005">
        <ele>1109.800048828</ele>
        <time>2012-05-05T11:43:19Z</time>
      </trkpt>
      <trkpt lat="44.01781" lon="7.20048">
        <ele>1108.800048828</ele>
        <time>2012-05-05T11:43:21Z</time>
      </trkpt>
      <trkpt lat="44.01765" lon="7.20049">
        <ele>1108.800048828</ele>
        <time>2012-05-05T11:43:25Z</time>
      </trkpt>
      <trkpt lat="44.01759" lon="7.2005">
        <ele>1106.599975586</ele>
        <time>2012-05-05T11:43:26Z</time>
      </trkpt>
      <trkpt lat="44.01749" lon="7.20048">
        <ele>1105.400024414</ele>
        <time>2012-05-05T11:43:28Z</time>
      </trkpt>
      <trkpt lat="44.01744" lon="7.20046">
        <ele>1105.400024414</ele>
        <time>2012-05-05T11:43:29Z</time>
      </trkpt>
      <trkpt lat="44.01739" lon="7.20043">
        <ele>1104.199951172</ele>
        <time>2012-05-05T11:43:30Z</time>
      </trkpt>
      <trkpt lat="44.0173" lon="7.20034">
        <ele>1103.199951172</ele>
        <time>2012-05-05T11:43:32Z</time>
      </trkpt>
      <trkpt lat="44.01727" lon="7.20029">
        <ele>1103.199951172</ele>
        <time>2012-05-05T11:43:33Z</time>
      </trkpt>
      <trkpt lat="44.01723" lon="7.20023">
        <ele>1102</ele>
        <time>2012-05-05T11:43:34Z</time>
      </trkpt>
      <trkpt lat="44.01721" lon="7.20018">
        <ele>1102</ele>
        <time>2012-05-05T11:43:35Z</time>
      </trkpt>
      <trkpt lat="44.01717" lon="7.20011">
        <ele>1101</ele>
        <time>2012-05-05T11:43:36Z</time>
      </trkpt>
      <trkpt lat="44.01712" lon="7.19999">
        <ele>1101</ele>
        <time>2012-05-05T11:43:38Z</time>
      </trkpt>
      <trkpt lat="44.01709" lon="7.19993">
        <ele>1100</ele>
        <time>2012-05-05T11:43:39Z</time>
      </trkpt>
      <trkpt lat="44.017" lon="7.19978">
        <ele>1100</ele>
        <time>2012-05-05T11:43:42Z</time>
      </trkpt>
      <trkpt lat="44.01697" lon="7.19973">
        <ele>1098.800048828</ele>
        <time>2012-05-05T11:43:43Z</time>
      </trkpt>
      <trkpt lat="44.01691" lon="7.19964">
        <ele>1098.800048828</ele>
        <time>2012-05-05T11:43:45Z</time>
      </trkpt>
      <trkpt lat="44.01682" lon="7.19956">
        <ele>1097.800048828</ele>
        <time>2012-05-05T11:43:47Z</time>
      </trkpt>
      <trkpt lat="44.01676" lon="7.19952">
        <ele>1096.599975586</ele>
        <time>2012-05-05T11:43:48Z</time>
      </trkpt>
      <trkpt lat="44.01671" lon="7.19949">
        <ele>1096.599975586</ele>
        <time>2012-05-05T11:43:49Z</time>
      </trkpt>
      <trkpt lat="44.0166" lon="7.1994">
        <ele>1095.400024414</ele>
        <time>2012-05-05T11:43:51Z</time>
      </trkpt>
      <trkpt lat="44.01654" lon="7.19936">
        <ele>1095.400024414</ele>
        <time>2012-05-05T11:43:52Z</time>
      </trkpt>
      <trkpt lat="44.01642" lon="7.19924">
        <ele>1094.400024414</ele>
        <time>2012-05-05T11:43:54Z</time>
      </trkpt>
      <trkpt lat="44.01638" lon="7.1992">
        <ele>1093.400024414</ele>
        <time>2012-05-05T11:43:55Z</time>
      </trkpt>
      <trkpt lat="44.01622" lon="7.19907">
        <ele>1092.400024414</ele>
        <time>2012-05-05T11:43:58Z</time>
      </trkpt>
      <trkpt lat="44.01614" lon="7.19901">
        <ele>1092.400024414</ele>
        <time>2012-05-05T11:44:00Z</time>
      </trkpt>
      <trkpt lat="44.0161" lon="7.199">
        <ele>1090.800048828</ele>
        <time>2012-05-05T11:44:01Z</time>
      </trkpt>
      <trkpt lat="44.01605" lon="7.19901">
        <ele>1090.800048828</ele>
        <time>2012-05-05T11:44:02Z</time>
      </trkpt>
      <trkpt lat="44.01594" lon="7.19901">
        <ele>1089.800048828</ele>
        <time>2012-05-05T11:44:04Z</time>
      </trkpt>
      <trkpt lat="44.01583" lon="7.199">
        <ele>1088.800048828</ele>
        <time>2012-05-05T11:44:06Z</time>
      </trkpt>
      <trkpt lat="44.01572" lon="7.199">
        <ele>1088.800048828</ele>
        <time>2012-05-05T11:44:08Z</time>
      </trkpt>
      <trkpt lat="44.01563" lon="7.19897">
        <ele>1088.800048828</ele>
        <time>2012-05-05T11:44:10Z</time>
      </trkpt>
      <trkpt lat="44.01559" lon="7.19895">
        <ele>1088.800048828</ele>
        <time>2012-05-05T11:44:11Z</time>
      </trkpt>
      <trkpt lat="44.01556" lon="7.19888">
        <ele>1084.800048828</ele>
        <time>2012-05-05T11:44:12Z</time>
      </trkpt>
      <trkpt lat="44.01552" lon="7.19877">
        <ele>1088</ele>
        <time>2012-05-05T11:44:14Z</time>
      </trkpt>
      <trkpt lat="44.0155" lon="7.19869">
        <ele>1088</ele>
        <time>2012-05-05T11:44:16Z</time>
      </trkpt>
      <trkpt lat="44.0155" lon="7.19867">
        <ele>1088</ele>
        <time>2012-05-05T11:44:18Z</time>
      </trkpt>
      <trkpt lat="44.0155" lon="7.19867">
        <ele>1088</ele>
        <time>2012-05-05T11:44:28Z</time>
      </trkpt>
      <trkpt lat="44.0155" lon="7.19867">
        <ele>1088</ele>
        <time>2012-05-05T11:44:32Z</time>
      </trkpt>
      <trkpt lat="44.0155" lon="7.19867">
        <ele>1088</ele>
        <time>2012-05-05T11:44:39Z</time>
      </trkpt>
      <trkpt lat="44.0155" lon="7.19866">
        <ele>1089.199951172</ele>
        <time>2012-05-05T11:44:45Z</time>
      </trkpt>
      <trkpt lat="44.01549" lon="7.19865">
        <ele>1089.199951172</ele>
        <time>2012-05-05T11:44:47Z</time>
      </trkpt>
      <trkpt lat="44.01544" lon="7.19852">
        <ele>1089.199951172</ele>
        <time>2012-05-05T11:44:51Z</time>
      </trkpt>
      <trkpt lat="44.01542" lon="7.19846">
        <ele>1086.199951172</ele>
        <time>2012-05-05T11:44:52Z</time>
      </trkpt>
      <trkpt lat="44.0154" lon="7.19841">
        <ele>1085</ele>
        <time>2012-05-05T11:44:53Z</time>
      </trkpt>
      <trkpt lat="44.01538" lon="7.19834">
        <ele>1083.599975586</ele>
        <time>2012-05-05T11:44:54Z</time>
      </trkpt>
      <trkpt lat="44.01535" lon="7.19822">
        <ele>1082.400024414</ele>
        <time>2012-05-05T11:44:56Z</time>
      </trkpt>
      <trkpt lat="44.01533" lon="7.19815">
        <ele>1080.599975586</ele>
        <time>2012-05-05T11:44:57Z</time>
      </trkpt>
      <trkpt lat="44.01534" lon="7.19793">
        <ele>1080.599975586</ele>
        <time>2012-05-05T11:45:00Z</time>
      </trkpt>
      <trkpt lat="44.01537" lon="7.19779">
        <ele>1080.599975586</ele>
        <time>2012-05-05T11:45:03Z</time>
      </trkpt>
      <trkpt lat="44.01538" lon="7.19776">
        <ele>1078.400024414</ele>
        <time>2012-05-05T11:45:04Z</time>
      </trkpt>
      <trkpt lat="44.01541" lon="7.19768">
        <ele>1078.400024414</ele>
        <time>2012-05-05T11:45:06Z</time>
      </trkpt>
      <trkpt lat="44.01544" lon="7.1976">
        <ele>1078.400024414</ele>
        <time>2012-05-05T11:45:08Z</time>
      </trkpt>
      <trkpt lat="44.01552" lon="7.19742">
        <ele>1076.400024414</ele>
        <time>2012-05-05T11:45:12Z</time>
      </trkpt>
      <trkpt lat="44.01556" lon="7.19726">
        <ele>1076.400024414</ele>
        <time>2012-05-05T11:45:16Z</time>
      </trkpt>
      <trkpt lat="44.01563" lon="7.19717">
        <ele>1076.400024414</ele>
        <time>2012-05-05T11:45:18Z</time>
      </trkpt>
      <trkpt lat="44.0157" lon="7.19709">
        <ele>1076.400024414</ele>
        <time>2012-05-05T11:45:20Z</time>
      </trkpt>
      <trkpt lat="44.01581" lon="7.19694">
        <ele>1075.199951172</ele>
        <time>2012-05-05T11:45:24Z</time>
      </trkpt>
      <trkpt lat="44.01588" lon="7.19668">
        <ele>1075.199951172</ele>
        <time>2012-05-05T11:45:29Z</time>
      </trkpt>
      <trkpt lat="44.01589" lon="7.19666">
        <ele>1075.199951172</ele>
        <time>2012-05-05T11:45:30Z</time>
      </trkpt>
      <trkpt lat="44.01592" lon="7.19661">
        <ele>1075.199951172</ele>
        <time>2012-05-05T11:45:32Z</time>
      </trkpt>
      <trkpt lat="44.0159" lon="7.19655">
        <ele>1075.199951172</ele>
        <time>2012-05-05T11:45:36Z</time>
      </trkpt>
      <trkpt lat="44.01588" lon="7.19654">
        <ele>1075.199951172</ele>
        <time>2012-05-05T11:45:37Z</time>
      </trkpt>
      <trkpt lat="44.0158" lon="7.19649">
        <ele>1075.199951172</ele>
        <time>2012-05-05T11:45:40Z</time>
      </trkpt>
      <trkpt lat="44.01574" lon="7.19646">
        <ele>1075.199951172</ele>
        <time>2012-05-05T11:45:44Z</time>
      </trkpt>
      <trkpt lat="44.01568" lon="7.19643">
        <ele>1075.199951172</ele>
        <time>2012-05-05T11:45:50Z</time>
      </trkpt>
      <trkpt lat="44.01565" lon="7.1964">
        <ele>1075.199951172</ele>
        <time>2012-05-05T11:45:56Z</time>
      </trkpt>
      <trkpt lat="44.01563" lon="7.19631">
        <ele>1075.199951172</ele>
        <time>2012-05-05T11:45:59Z</time>
      </trkpt>
      <trkpt lat="44.01562" lon="7.19629">
        <ele>1075.199951172</ele>
        <time>2012-05-05T11:46:04Z</time>
      </trkpt>
      <trkpt lat="44.0156" lon="7.19626">
        <ele>1075.199951172</ele>
        <time>2012-05-05T11:46:10Z</time>
      </trkpt>
      <trkpt lat="44.01557" lon="7.19622">
        <ele>1075.199951172</ele>
        <time>2012-05-05T11:46:18Z</time>
      </trkpt>
      <trkpt lat="44.01552" lon="7.19623">
        <ele>1075.199951172</ele>
        <time>2012-05-05T11:46:25Z</time>
      </trkpt>
      <trkpt lat="44.01549" lon="7.19624">
        <ele>1077.400024414</ele>
        <time>2012-05-05T11:46:29Z</time>
      </trkpt>
      <trkpt lat="44.01549" lon="7.19624">
        <ele>1077.400024414</ele>
        <time>2012-05-05T11:46:30Z</time>
      </trkpt>
      <trkpt lat="44.01545" lon="7.19622">
        <ele>1078.400024414</ele>
        <time>2012-05-05T11:46:34Z</time>
      </trkpt>
      <trkpt lat="44.01543" lon="7.19623">
        <ele>1078.400024414</ele>
        <time>2012-05-05T11:46:35Z</time>
      </trkpt>
      <trkpt lat="44.01542" lon="7.19622">
        <ele>1078.400024414</ele>
        <time>2012-05-05T11:46:40Z</time>
      </trkpt>
      <trkpt lat="44.01535" lon="7.19624">
        <ele>1078.400024414</ele>
        <time>2012-05-05T11:46:45Z</time>
      </trkpt>
      <trkpt lat="44.01529" lon="7.19622">
        <ele>1078.400024414</ele>
        <time>2012-05-05T11:46:49Z</time>
      </trkpt>
      <trkpt lat="44.01518" lon="7.19617">
        <ele>1078.400024414</ele>
        <time>2012-05-05T11:46:54Z</time>
      </trkpt>
      <trkpt lat="44.01507" lon="7.19612">
        <ele>1078.400024414</ele>
        <time>2012-05-05T11:46:59Z</time>
      </trkpt>
      <trkpt lat="44.01497" lon="7.19607">
        <ele>1078.400024414</ele>
        <time>2012-05-05T11:47:02Z</time>
      </trkpt>
      <trkpt lat="44.01479" lon="7.19606">
        <ele>1078.400024414</ele>
        <time>2012-05-05T11:47:08Z</time>
      </trkpt>
      <trkpt lat="44.01464" lon="7.19604">
        <ele>1078.400024414</ele>
        <time>2012-05-05T11:47:13Z</time>
      </trkpt>
      <trkpt lat="44.01445" lon="7.19599">
        <ele>1078.400024414</ele>
        <time>2012-05-05T11:47:19Z</time>
      </trkpt>
      <trkpt lat="44.01438" lon="7.19595">
        <ele>1075.400024414</ele>
        <time>2012-05-05T11:47:22Z</time>
      </trkpt>
      <trkpt lat="44.01432" lon="7.19593">
        <ele>1075.400024414</ele>
        <time>2012-05-05T11:47:24Z</time>
      </trkpt>
      <trkpt lat="44.01412" lon="7.19587">
        <ele>1075.400024414</ele>
        <time>2012-05-05T11:47:29Z</time>
      </trkpt>
      <trkpt lat="44.01409" lon="7.19584">
        <ele>1074.400024414</ele>
        <time>2012-05-05T11:47:30Z</time>
      </trkpt>
      <trkpt lat="44.01396" lon="7.19569">
        <ele>1074.400024414</ele>
        <time>2012-05-05T11:47:34Z</time>
      </trkpt>
      <trkpt lat="44.01383" lon="7.19558">
        <ele>1074.400024414</ele>
        <time>2012-05-05T11:47:38Z</time>
      </trkpt>
      <trkpt lat="44.01368" lon="7.19542">
        <ele>1074.400024414</ele>
        <time>2012-05-05T11:47:42Z</time>
      </trkpt>
      <trkpt lat="44.01355" lon="7.19528">
        <ele>1072.800048828</ele>
        <time>2012-05-05T11:47:46Z</time>
      </trkpt>
      <trkpt lat="44.01352" lon="7.19523">
        <ele>1072.800048828</ele>
        <time>2012-05-05T11:47:47Z</time>
      </trkpt>
      <trkpt lat="44.01348" lon="7.19519">
        <ele>1072.800048828</ele>
        <time>2012-05-05T11:47:48Z</time>
      </trkpt>
      <trkpt lat="44.01344" lon="7.19515">
        <ele>1071.599975586</ele>
        <time>2012-05-05T11:47:49Z</time>
      </trkpt>
      <trkpt lat="44.01341" lon="7.1951">
        <ele>1071.599975586</ele>
        <time>2012-05-05T11:47:50Z</time>
      </trkpt>
      <trkpt lat="44.01337" lon="7.195">
        <ele>1071.599975586</ele>
        <time>2012-05-05T11:47:52Z</time>
      </trkpt>
      <trkpt lat="44.01334" lon="7.19496">
        <ele>1071.599975586</ele>
        <time>2012-05-05T11:47:53Z</time>
      </trkpt>
      <trkpt lat="44.0133" lon="7.19488">
        <ele>1071.599975586</ele>
        <time>2012-05-05T11:47:55Z</time>
      </trkpt>
      <trkpt lat="44.01326" lon="7.19477">
        <ele>1071.599975586</ele>
        <time>2012-05-05T11:47:58Z</time>
      </trkpt>
      <trkpt lat="44.01326" lon="7.19477">
        <ele>1071.599975586</ele>
        <time>2012-05-05T11:48:02Z</time>
      </trkpt>
      <trkpt lat="44.01326" lon="7.19477">
        <ele>1071.599975586</ele>
        <time>2012-05-05T11:48:08Z</time>
      </trkpt>
      <trkpt lat="44.01325" lon="7.19477">
        <ele>1071.599975586</ele>
        <time>2012-05-05T11:48:13Z</time>
      </trkpt>
      <trkpt lat="44.01325" lon="7.19476">
        <ele>1069.800048828</ele>
        <time>2012-05-05T11:48:16Z</time>
      </trkpt>
      <trkpt lat="44.01325" lon="7.19476">
        <ele>1069.800048828</ele>
        <time>2012-05-05T11:48:19Z</time>
      </trkpt>
      <trkpt lat="44.01325" lon="7.19475">
        <ele>1069.800048828</ele>
        <time>2012-05-05T11:48:25Z</time>
      </trkpt>
      <trkpt lat="44.01325" lon="7.19475">
        <ele>1069.800048828</ele>
        <time>2012-05-05T11:48:26Z</time>
      </trkpt>
      <trkpt lat="44.01325" lon="7.19475">
        <ele>1069.800048828</ele>
        <time>2012-05-05T11:48:28Z</time>
      </trkpt>
      <trkpt lat="44.01324" lon="7.19476">
        <ele>1069.800048828</ele>
        <time>2012-05-05T11:48:32Z</time>
      </trkpt>
      <trkpt lat="44.01324" lon="7.19476">
        <ele>1069.800048828</ele>
        <time>2012-05-05T11:48:41Z</time>
      </trkpt>
      <trkpt lat="44.01324" lon="7.19476">
        <ele>1069.800048828</ele>
        <time>2012-05-05T11:48:45Z</time>
      </trkpt>
      <trkpt lat="44.01324" lon="7.19476">
        <ele>1069.800048828</ele>
        <time>2012-05-05T11:48:51Z</time>
      </trkpt>
      <trkpt lat="44.01324" lon="7.19476">
        <ele>1068.400024414</ele>
        <time>2012-05-05T11:48:52Z</time>
      </trkpt>
      <trkpt lat="44.01324" lon="7.19476">
        <ele>1066.199951172</ele>
        <time>2012-05-05T11:48:53Z</time>
      </trkpt>
      <trkpt lat="44.01324" lon="7.19476">
        <ele>1066.199951172</ele>
        <time>2012-05-05T11:48:54Z</time>
      </trkpt>
      <trkpt lat="44.01324" lon="7.19476">
        <ele>1069.800048828</ele>
        <time>2012-05-05T11:48:55Z</time>
      </trkpt>
      <trkpt lat="44.01324" lon="7.19476">
        <ele>1069.800048828</ele>
        <time>2012-05-05T11:48:56Z</time>
      </trkpt>
      <trkpt lat="44.01324" lon="7.19475">
        <ele>1069.800048828</ele>
        <time>2012-05-05T11:48:57Z</time>
      </trkpt>
      <trkpt lat="44.01324" lon="7.19475">
        <ele>1071</ele>
        <time>2012-05-05T11:48:58Z</time>
      </trkpt>
      <trkpt lat="44.01324" lon="7.19475">
        <ele>1071</ele>
        <time>2012-05-05T11:49:00Z</time>
      </trkpt>
      <trkpt lat="44.01323" lon="7.19475">
        <ele>1071</ele>
        <time>2012-05-05T11:49:09Z</time>
      </trkpt>
      <trkpt lat="44.01322" lon="7.19474">
        <ele>1071</ele>
        <time>2012-05-05T11:49:17Z</time>
      </trkpt>
      <trkpt lat="44.01322" lon="7.19473">
        <ele>1071</ele>
        <time>2012-05-05T11:49:21Z</time>
      </trkpt>
      <trkpt lat="44.01322" lon="7.19473">
        <ele>1071</ele>
        <time>2012-05-05T11:49:22Z</time>
      </trkpt>
      <trkpt lat="44.01322" lon="7.19473">
        <ele>1071</ele>
        <time>2012-05-05T11:49:32Z</time>
      </trkpt>
      <trkpt lat="44.01322" lon="7.19473">
        <ele>1071</ele>
        <time>2012-05-05T11:49:35Z</time>
      </trkpt>
      <trkpt lat="44.01322" lon="7.19473">
        <ele>1071</ele>
        <time>2012-05-05T11:49:36Z</time>
      </trkpt>
      <trkpt lat="44.01322" lon="7.19473">
        <ele>1071</ele>
        <time>2012-05-05T11:49:41Z</time>
      </trkpt>
      <trkpt lat="44.01322" lon="7.19473">
        <ele>1071</ele>
        <time>2012-05-05T11:49:44Z</time>
      </trkpt>
      <trkpt lat="44.01322" lon="7.19473">
        <ele>1071</ele>
        <time>2012-05-05T11:49:52Z</time>
      </trkpt>
      <trkpt lat="44.01322" lon="7.19475">
        <ele>1071</ele>
        <time>2012-05-05T11:50:00Z</time>
      </trkpt>
      <trkpt lat="44.01322" lon="7.19477">
        <ele>1071</ele>
        <time>2012-05-05T11:50:04Z</time>
      </trkpt>
      <trkpt lat="44.01322" lon="7.19478">
        <ele>1071</ele>
        <time>2012-05-05T11:50:10Z</time>
      </trkpt>
      <trkpt lat="44.01321" lon="7.19478">
        <ele>1071</ele>
        <time>2012-05-05T11:50:14Z</time>
      </trkpt>
      <trkpt lat="44.01321" lon="7.19478">
        <ele>1071</ele>
        <time>2012-05-05T11:50:19Z</time>
      </trkpt>
      <trkpt lat="44.01319" lon="7.19471">
        <ele>1071</ele>
        <time>2012-05-05T11:50:24Z</time>
      </trkpt>
      <trkpt lat="44.01317" lon="7.19465">
        <ele>1068</ele>
        <time>2012-05-05T11:50:26Z</time>
      </trkpt>
      <trkpt lat="44.01316" lon="7.19456">
        <ele>1066.400024414</ele>
        <time>2012-05-05T11:50:28Z</time>
      </trkpt>
      <trkpt lat="44.01315" lon="7.19451">
        <ele>1063.800048828</ele>
        <time>2012-05-05T11:50:29Z</time>
      </trkpt>
      <trkpt lat="44.01316" lon="7.19445">
        <ele>1062.400024414</ele>
        <time>2012-05-05T11:50:30Z</time>
      </trkpt>
      <trkpt lat="44.01317" lon="7.19425">
        <ele>1062.400024414</ele>
        <time>2012-05-05T11:50:33Z</time>
      </trkpt>
      <trkpt lat="44.01318" lon="7.19415">
        <ele>1061</ele>
        <time>2012-05-05T11:50:35Z</time>
      </trkpt>
      <trkpt lat="44.01319" lon="7.19409">
        <ele>1058.199951172</ele>
        <time>2012-05-05T11:50:36Z</time>
      </trkpt>
      <trkpt lat="44.01321" lon="7.19403">
        <ele>1057.199951172</ele>
        <time>2012-05-05T11:50:37Z</time>
      </trkpt>
      <trkpt lat="44.01323" lon="7.19385">
        <ele>1057.199951172</ele>
        <time>2012-05-05T11:50:40Z</time>
      </trkpt>
      <trkpt lat="44.01324" lon="7.19381">
        <ele>1056.199951172</ele>
        <time>2012-05-05T11:50:41Z</time>
      </trkpt>
      <trkpt lat="44.01325" lon="7.19377">
        <ele>1056.199951172</ele>
        <time>2012-05-05T11:50:42Z</time>
      </trkpt>
      <trkpt lat="44.01328" lon="7.1937">
        <ele>1053</ele>
        <time>2012-05-05T11:50:44Z</time>
      </trkpt>
      <trkpt lat="44.0133" lon="7.19366">
        <ele>1052</ele>
        <time>2012-05-05T11:50:45Z</time>
      </trkpt>
      <trkpt lat="44.01333" lon="7.19362">
        <ele>1052</ele>
        <time>2012-05-05T11:50:46Z</time>
      </trkpt>
      <trkpt lat="44.01342" lon="7.19352">
        <ele>1052</ele>
        <time>2012-05-05T11:50:49Z</time>
      </trkpt>
      <trkpt lat="44.01352" lon="7.19344">
        <ele>1055</ele>
        <time>2012-05-05T11:50:53Z</time>
      </trkpt>
      <trkpt lat="44.01354" lon="7.19342">
        <ele>1055</ele>
        <time>2012-05-05T11:50:54Z</time>
      </trkpt>
      <trkpt lat="44.0136" lon="7.19339">
        <ele>1056</ele>
        <time>2012-05-05T11:50:57Z</time>
      </trkpt>
      <trkpt lat="44.01364" lon="7.19336">
        <ele>1056</ele>
        <time>2012-05-05T11:51:00Z</time>
      </trkpt>
      <trkpt lat="44.01372" lon="7.19327">
        <ele>1056</ele>
        <time>2012-05-05T11:51:05Z</time>
      </trkpt>
      <trkpt lat="44.01375" lon="7.19326">
        <ele>1057.400024414</ele>
        <time>2012-05-05T11:51:07Z</time>
      </trkpt>
      <trkpt lat="44.01376" lon="7.19325">
        <ele>1057.400024414</ele>
        <time>2012-05-05T11:51:10Z</time>
      </trkpt>
      <trkpt lat="44.01377" lon="7.19324">
        <ele>1057.400024414</ele>
        <time>2012-05-05T11:51:13Z</time>
      </trkpt>
      <trkpt lat="44.01376" lon="7.19324">
        <ele>1057.400024414</ele>
        <time>2012-05-05T11:51:14Z</time>
      </trkpt>
      <trkpt lat="44.01376" lon="7.19324">
        <ele>1057.400024414</ele>
        <time>2012-05-05T11:51:15Z</time>
      </trkpt>
      <trkpt lat="44.01376" lon="7.19323">
        <ele>1057.400024414</ele>
        <time>2012-05-05T11:51:18Z</time>
      </trkpt>
      <trkpt lat="44.01375" lon="7.19323">
        <ele>1057.400024414</ele>
        <time>2012-05-05T11:51:20Z</time>
      </trkpt>
      <trkpt lat="44.01375" lon="7.19323">
        <ele>1054</ele>
        <time>2012-05-05T11:51:21Z</time>
      </trkpt>
      <trkpt lat="44.01377" lon="7.19321">
        <ele>1057.199951172</ele>
        <time>2012-05-05T11:51:23Z</time>
      </trkpt>
      <trkpt lat="44.01376" lon="7.19321">
        <ele>1057.199951172</ele>
        <time>2012-05-05T11:51:24Z</time>
      </trkpt>
      <trkpt lat="44.01378" lon="7.1932">
        <ele>1057.199951172</ele>
        <time>2012-05-05T11:51:29Z</time>
      </trkpt>
      <trkpt lat="44.01377" lon="7.19321">
        <ele>1054</ele>
        <time>2012-05-05T11:51:34Z</time>
      </trkpt>
      <trkpt lat="44.01378" lon="7.19318">
        <ele>1054</ele>
        <time>2012-05-05T11:51:38Z</time>
      </trkpt>
      <trkpt lat="44.01379" lon="7.19319">
        <ele>1057.400024414</ele>
        <time>2012-05-05T11:51:39Z</time>
      </trkpt>
      <trkpt lat="44.01379" lon="7.19318">
        <ele>1057.400024414</ele>
        <time>2012-05-05T11:51:41Z</time>
      </trkpt>
      <trkpt lat="44.01382" lon="7.19314">
        <ele>1058.400024414</ele>
        <time>2012-05-05T11:51:45Z</time>
      </trkpt>
      <trkpt lat="44.01383" lon="7.19313">
        <ele>1058.400024414</ele>
        <time>2012-05-05T11:51:47Z</time>
      </trkpt>
      <trkpt lat="44.01385" lon="7.19304">
        <ele>1058.400024414</ele>
        <time>2012-05-05T11:51:52Z</time>
      </trkpt>
      <trkpt lat="44.01385" lon="7.19301">
        <ele>1058.400024414</ele>
        <time>2012-05-05T11:51:53Z</time>
      </trkpt>
      <trkpt lat="44.01383" lon="7.19288">
        <ele>1058.400024414</ele>
        <time>2012-05-05T11:51:56Z</time>
      </trkpt>
      <trkpt lat="44.0138" lon="7.1928">
        <ele>1055</ele>
        <time>2012-05-05T11:51:58Z</time>
      </trkpt>
      <trkpt lat="44.01371" lon="7.1927">
        <ele>1054</ele>
        <time>2012-05-05T11:52:01Z</time>
      </trkpt>
      <trkpt lat="44.01363" lon="7.19262">
        <ele>1054</ele>
        <time>2012-05-05T11:52:05Z</time>
      </trkpt>
      <trkpt lat="44.01366" lon="7.19252">
        <ele>1054</ele>
        <time>2012-05-05T11:52:08Z</time>
      </trkpt>
      <trkpt lat="44.01369" lon="7.19245">
        <ele>1053</ele>
        <time>2012-05-05T11:52:10Z</time>
      </trkpt>
      <trkpt lat="44.01372" lon="7.1924">
        <ele>1051.800048828</ele>
        <time>2012-05-05T11:52:12Z</time>
      </trkpt>
      <trkpt lat="44.01371" lon="7.19232">
        <ele>1051.800048828</ele>
        <time>2012-05-05T11:52:15Z</time>
      </trkpt>
      <trkpt lat="44.01364" lon="7.19227">
        <ele>1051.800048828</ele>
        <time>2012-05-05T11:52:19Z</time>
      </trkpt>
      <trkpt lat="44.0136" lon="7.19223">
        <ele>1051.800048828</ele>
        <time>2012-05-05T11:52:23Z</time>
      </trkpt>
      <trkpt lat="44.01351" lon="7.1922">
        <ele>1051.800048828</ele>
        <time>2012-05-05T11:52:28Z</time>
      </trkpt>
      <trkpt lat="44.01343" lon="7.19217">
        <ele>1051.800048828</ele>
        <time>2012-05-05T11:52:31Z</time>
      </trkpt>
      <trkpt lat="44.0134" lon="7.19218">
        <ele>1051.800048828</ele>
        <time>2012-05-05T11:52:32Z</time>
      </trkpt>
      <trkpt lat="44.01329" lon="7.19216">
        <ele>1051.800048828</ele>
        <time>2012-05-05T11:52:36Z</time>
      </trkpt>
      <trkpt lat="44.01322" lon="7.19213">
        <ele>1051.800048828</ele>
        <time>2012-05-05T11:52:40Z</time>
      </trkpt>
      <trkpt lat="44.01321" lon="7.19213">
        <ele>1051.800048828</ele>
        <time>2012-05-05T11:52:41Z</time>
      </trkpt>
      <trkpt lat="44.01311" lon="7.19216">
        <ele>1051.800048828</ele>
        <time>2012-05-05T11:52:46Z</time>
      </trkpt>
      <trkpt lat="44.01304" lon="7.19217">
        <ele>1049.800048828</ele>
        <time>2012-05-05T11:52:48Z</time>
      </trkpt>
      <trkpt lat="44.01296" lon="7.19218">
        <ele>1049.800048828</ele>
        <time>2012-05-05T11:52:50Z</time>
      </trkpt>
      <trkpt lat="44.01291" lon="7.19218">
        <ele>1048.400024414</ele>
        <time>2012-05-05T11:52:51Z</time>
      </trkpt>
      <trkpt lat="44.01286" lon="7.19219">
        <ele>1044.599975586</ele>
        <time>2012-05-05T11:52:52Z</time>
      </trkpt>
      <trkpt lat="44.01277" lon="7.1922">
        <ele>1044.599975586</ele>
        <time>2012-05-05T11:52:54Z</time>
      </trkpt>
      <trkpt lat="44.01265" lon="7.19222">
        <ele>1043.599975586</ele>
        <time>2012-05-05T11:52:57Z</time>
      </trkpt>
      <trkpt lat="44.01261" lon="7.19223">
        <ele>1043.599975586</ele>
        <time>2012-05-05T11:52:58Z</time>
      </trkpt>
      <trkpt lat="44.01254" lon="7.19226">
        <ele>1042.400024414</ele>
        <time>2012-05-05T11:53:00Z</time>
      </trkpt>
      <trkpt lat="44.01251" lon="7.19228">
        <ele>1042.400024414</ele>
        <time>2012-05-05T11:53:01Z</time>
      </trkpt>
      <trkpt lat="44.01247" lon="7.19227">
        <ele>1042.400024414</ele>
        <time>2012-05-05T11:53:02Z</time>
      </trkpt>
      <trkpt lat="44.0124" lon="7.19226">
        <ele>1042.400024414</ele>
        <time>2012-05-05T11:53:04Z</time>
      </trkpt>
      <trkpt lat="44.01237" lon="7.19225">
        <ele>1041.199951172</ele>
        <time>2012-05-05T11:53:05Z</time>
      </trkpt>
      <trkpt lat="44.01229" lon="7.19221">
        <ele>1041.199951172</ele>
        <time>2012-05-05T11:53:07Z</time>
      </trkpt>
      <trkpt lat="44.01227" lon="7.1922">
        <ele>1041.199951172</ele>
        <time>2012-05-05T11:53:08Z</time>
      </trkpt>
      <trkpt lat="44.0122" lon="7.19216">
        <ele>1040</ele>
        <time>2012-05-05T11:53:11Z</time>
      </trkpt>
      <trkpt lat="44.01216" lon="7.19215">
        <ele>1038.800048828</ele>
        <time>2012-05-05T11:53:12Z</time>
      </trkpt>
      <trkpt lat="44.01208" lon="7.19213">
        <ele>1038.800048828</ele>
        <time>2012-05-05T11:53:14Z</time>
      </trkpt>
      <trkpt lat="44.01205" lon="7.19213">
        <ele>1037.599975586</ele>
        <time>2012-05-05T11:53:15Z</time>
      </trkpt>
      <trkpt lat="44.01198" lon="7.19214">
        <ele>1036</ele>
        <time>2012-05-05T11:53:17Z</time>
      </trkpt>
      <trkpt lat="44.01195" lon="7.19213">
        <ele>1035</ele>
        <time>2012-05-05T11:53:18Z</time>
      </trkpt>
      <trkpt lat="44.01191" lon="7.19212">
        <ele>1033.800048828</ele>
        <time>2012-05-05T11:53:19Z</time>
      </trkpt>
      <trkpt lat="44.01181" lon="7.19209">
        <ele>1032.199951172</ele>
        <time>2012-05-05T11:53:21Z</time>
      </trkpt>
      <trkpt lat="44.01176" lon="7.19206">
        <ele>1030.800048828</ele>
        <time>2012-05-05T11:53:22Z</time>
      </trkpt>
      <trkpt lat="44.01171" lon="7.19203">
        <ele>1029.599975586</ele>
        <time>2012-05-05T11:53:23Z</time>
      </trkpt>
      <trkpt lat="44.01165" lon="7.19198">
        <ele>1027.199951172</ele>
        <time>2012-05-05T11:53:24Z</time>
      </trkpt>
      <trkpt lat="44.0115" lon="7.19183">
        <ele>1027.199951172</ele>
        <time>2012-05-05T11:53:28Z</time>
      </trkpt>
      <trkpt lat="44.01146" lon="7.19179">
        <ele>1027.199951172</ele>
        <time>2012-05-05T11:53:29Z</time>
      </trkpt>
      <trkpt lat="44.01143" lon="7.19174">
        <ele>1025.400024414</ele>
        <time>2012-05-05T11:53:30Z</time>
      </trkpt>
      <trkpt lat="44.01139" lon="7.19163">
        <ele>1023.599975586</ele>
        <time>2012-05-05T11:53:32Z</time>
      </trkpt>
      <trkpt lat="44.01135" lon="7.19149">
        <ele>1020.200012207</ele>
        <time>2012-05-05T11:53:34Z</time>
      </trkpt>
      <trkpt lat="44.01133" lon="7.19141">
        <ele>1018.799987793</ele>
        <time>2012-05-05T11:53:35Z</time>
      </trkpt>
      <trkpt lat="44.0113" lon="7.19134">
        <ele>1018.799987793</ele>
        <time>2012-05-05T11:53:36Z</time>
      </trkpt>
      <trkpt lat="44.01125" lon="7.19119">
        <ele>1018.799987793</ele>
        <time>2012-05-05T11:53:39Z</time>
      </trkpt>
      <trkpt lat="44.01118" lon="7.19117">
        <ele>1017.400024414</ele>
        <time>2012-05-05T11:53:41Z</time>
      </trkpt>
      <trkpt lat="44.01114" lon="7.19116">
        <ele>1017.400024414</ele>
        <time>2012-05-05T11:53:42Z</time>
      </trkpt>
      <trkpt lat="44.01109" lon="7.19114">
        <ele>1015.599975586</ele>
        <time>2012-05-05T11:53:43Z</time>
      </trkpt>
      <trkpt lat="44.01088" lon="7.19106">
        <ele>1014.400024414</ele>
        <time>2012-05-05T11:53:47Z</time>
      </trkpt>
      <trkpt lat="44.01082" lon="7.19094">
        <ele>1013</ele>
        <time>2012-05-05T11:53:49Z</time>
      </trkpt>
      <trkpt lat="44.0108" lon="7.19088">
        <ele>1013</ele>
        <time>2012-05-05T11:53:50Z</time>
      </trkpt>
      <trkpt lat="44.01077" lon="7.19074">
        <ele>1011.799987793</ele>
        <time>2012-05-05T11:53:52Z</time>
      </trkpt>
      <trkpt lat="44.01076" lon="7.1907">
        <ele>1011.799987793</ele>
        <time>2012-05-05T11:53:53Z</time>
      </trkpt>
      <trkpt lat="44.01074" lon="7.19065">
        <ele>1011.799987793</ele>
        <time>2012-05-05T11:53:54Z</time>
      </trkpt>
      <trkpt lat="44.01062" lon="7.19049">
        <ele>1010.599975586</ele>
        <time>2012-05-05T11:53:58Z</time>
      </trkpt>
      <trkpt lat="44.01058" lon="7.19046">
        <ele>1010.599975586</ele>
        <time>2012-05-05T11:53:59Z</time>
      </trkpt>
      <trkpt lat="44.01051" lon="7.1904">
        <ele>1009.400024414</ele>
        <time>2012-05-05T11:54:01Z</time>
      </trkpt>
      <trkpt lat="44.01047" lon="7.19039">
        <ele>1008.200012207</ele>
        <time>2012-05-05T11:54:02Z</time>
      </trkpt>
      <trkpt lat="44.01044" lon="7.19037">
        <ele>1006.799987793</ele>
        <time>2012-05-05T11:54:03Z</time>
      </trkpt>
      <trkpt lat="44.0104" lon="7.19036">
        <ele>1006.799987793</ele>
        <time>2012-05-05T11:54:04Z</time>
      </trkpt>
      <trkpt lat="44.01027" lon="7.19027">
        <ele>1006.799987793</ele>
        <time>2012-05-05T11:54:08Z</time>
      </trkpt>
      <trkpt lat="44.01013" lon="7.19015">
        <ele>1004.599975586</ele>
        <time>2012-05-05T11:54:12Z</time>
      </trkpt>
      <trkpt lat="44.01009" lon="7.19013">
        <ele>1004.599975586</ele>
        <time>2012-05-05T11:54:13Z</time>
      </trkpt>
      <trkpt lat="44.01002" lon="7.19007">
        <ele>1003.599975586</ele>
        <time>2012-05-05T11:54:15Z</time>
      </trkpt>
      <trkpt lat="44.0099" lon="7.18999">
        <ele>1002.400024414</ele>
        <time>2012-05-05T11:54:18Z</time>
      </trkpt>
      <trkpt lat="44.00986" lon="7.18997">
        <ele>1001.400024414</ele>
        <time>2012-05-05T11:54:19Z</time>
      </trkpt>
      <trkpt lat="44.00982" lon="7.18995">
        <ele>1001.400024414</ele>
        <time>2012-05-05T11:54:20Z</time>
      </trkpt>
      <trkpt lat="44.00977" lon="7.18992">
        <ele>1000</ele>
        <time>2012-05-05T11:54:21Z</time>
      </trkpt>
      <trkpt lat="44.00966" lon="7.18986">
        <ele>998.400024414</ele>
        <time>2012-05-05T11:54:23Z</time>
      </trkpt>
      <trkpt lat="44.00961" lon="7.18982">
        <ele>998.400024414</ele>
        <time>2012-05-05T11:54:24Z</time>
      </trkpt>
      <trkpt lat="44.00958" lon="7.18978">
        <ele>997.400024414</ele>
        <time>2012-05-05T11:54:25Z</time>
      </trkpt>
      <trkpt lat="44.00956" lon="7.18973">
        <ele>996.200012207</ele>
        <time>2012-05-05T11:54:26Z</time>
      </trkpt>
      <trkpt lat="44.00954" lon="7.18968">
        <ele>995</ele>
        <time>2012-05-05T11:54:27Z</time>
      </trkpt>
      <trkpt lat="44.00952" lon="7.1896">
        <ele>993.799987793</ele>
        <time>2012-05-05T11:54:29Z</time>
      </trkpt>
      <trkpt lat="44.00952" lon="7.18957">
        <ele>993.799987793</ele>
        <time>2012-05-05T11:54:30Z</time>
      </trkpt>
      <trkpt lat="44.00952" lon="7.18953">
        <ele>992.200012207</ele>
        <time>2012-05-05T11:54:31Z</time>
      </trkpt>
      <trkpt lat="44.0095" lon="7.18944">
        <ele>991</ele>
        <time>2012-05-05T11:54:33Z</time>
      </trkpt>
      <trkpt lat="44.00949" lon="7.1894">
        <ele>991</ele>
        <time>2012-05-05T11:54:34Z</time>
      </trkpt>
      <trkpt lat="44.00948" lon="7.18936">
        <ele>989.799987793</ele>
        <time>2012-05-05T11:54:35Z</time>
      </trkpt>
      <trkpt lat="44.00948" lon="7.1893">
        <ele>988.599975586</ele>
        <time>2012-05-05T11:54:36Z</time>
      </trkpt>
      <trkpt lat="44.00948" lon="7.18926">
        <ele>988.599975586</ele>
        <time>2012-05-05T11:54:37Z</time>
      </trkpt>
      <trkpt lat="44.00949" lon="7.18923">
        <ele>987.599975586</ele>
        <time>2012-05-05T11:54:38Z</time>
      </trkpt>
      <trkpt lat="44.00952" lon="7.18913">
        <ele>986.400024414</ele>
        <time>2012-05-05T11:54:40Z</time>
      </trkpt>
      <trkpt lat="44.00955" lon="7.18902">
        <ele>985.200012207</ele>
        <time>2012-05-05T11:54:42Z</time>
      </trkpt>
      <trkpt lat="44.00961" lon="7.18889">
        <ele>984.200012207</ele>
        <time>2012-05-05T11:54:45Z</time>
      </trkpt>
      <trkpt lat="44.00969" lon="7.18874">
        <ele>986.799987793</ele>
        <time>2012-05-05T11:54:49Z</time>
      </trkpt>
      <trkpt lat="44.00977" lon="7.18863">
        <ele>983.400024414</ele>
        <time>2012-05-05T11:54:53Z</time>
      </trkpt>
      <trkpt lat="44.00979" lon="7.18861">
        <ele>983.400024414</ele>
        <time>2012-05-05T11:54:54Z</time>
      </trkpt>
      <trkpt lat="44.00982" lon="7.18853">
        <ele>981.200012207</ele>
        <time>2012-05-05T11:54:57Z</time>
      </trkpt>
      <trkpt lat="44.00983" lon="7.18852">
        <ele>981.200012207</ele>
        <time>2012-05-05T11:54:58Z</time>
      </trkpt>
      <trkpt lat="44.00985" lon="7.1885">
        <ele>981.200012207</ele>
        <time>2012-05-05T11:55:01Z</time>
      </trkpt>
      <trkpt lat="44.00985" lon="7.1885">
        <ele>981.200012207</ele>
        <time>2012-05-05T11:55:02Z</time>
      </trkpt>
      <trkpt lat="44.00985" lon="7.1885">
        <ele>981.200012207</ele>
        <time>2012-05-05T11:55:04Z</time>
      </trkpt>
      <trkpt lat="44.00986" lon="7.1885">
        <ele>980</ele>
        <time>2012-05-05T11:55:05Z</time>
      </trkpt>
      <trkpt lat="44.00985" lon="7.1885">
        <ele>980</ele>
        <time>2012-05-05T11:55:06Z</time>
      </trkpt>
      <trkpt lat="44.00984" lon="7.18851">
        <ele>980</ele>
        <time>2012-05-05T11:55:08Z</time>
      </trkpt>
      <trkpt lat="44.00983" lon="7.18852">
        <ele>980</ele>
        <time>2012-05-05T11:55:09Z</time>
      </trkpt>
      <trkpt lat="44.00983" lon="7.18853">
        <ele>980</ele>
        <time>2012-05-05T11:55:14Z</time>
      </trkpt>
      <trkpt lat="44.00983" lon="7.18853">
        <ele>980</ele>
        <time>2012-05-05T11:55:15Z</time>
      </trkpt>
      <trkpt lat="44.00979" lon="7.18858">
        <ele>980</ele>
        <time>2012-05-05T11:55:20Z</time>
      </trkpt>
      <trkpt lat="44.00979" lon="7.1886">
        <ele>983</ele>
        <time>2012-05-05T11:55:21Z</time>
      </trkpt>
      <trkpt lat="44.00978" lon="7.18862">
        <ele>984</ele>
        <time>2012-05-05T11:55:26Z</time>
      </trkpt>
      <trkpt lat="44.00979" lon="7.18861">
        <ele>984</ele>
        <time>2012-05-05T11:55:27Z</time>
      </trkpt>
      <trkpt lat="44.00979" lon="7.1886">
        <ele>984</ele>
        <time>2012-05-05T11:55:32Z</time>
      </trkpt>
      <trkpt lat="44.00978" lon="7.18859">
        <ele>984</ele>
        <time>2012-05-05T11:55:38Z</time>
      </trkpt>
      <trkpt lat="44.00978" lon="7.18859">
        <ele>985.200012207</ele>
        <time>2012-05-05T11:55:41Z</time>
      </trkpt>
      <trkpt lat="44.00977" lon="7.18859">
        <ele>985.200012207</ele>
        <time>2012-05-05T11:55:43Z</time>
      </trkpt>
      <trkpt lat="44.00978" lon="7.18855">
        <ele>985.200012207</ele>
        <time>2012-05-05T11:55:46Z</time>
      </trkpt>
      <trkpt lat="44.00979" lon="7.18852">
        <ele>982</ele>
        <time>2012-05-05T11:55:50Z</time>
      </trkpt>
      <trkpt lat="44.0098" lon="7.18851">
        <ele>982</ele>
        <time>2012-05-05T11:55:51Z</time>
      </trkpt>
      <trkpt lat="44.00982" lon="7.18851">
        <ele>980.599975586</ele>
        <time>2012-05-05T11:55:53Z</time>
      </trkpt>
      <trkpt lat="44.00982" lon="7.18851">
        <ele>980.599975586</ele>
        <time>2012-05-05T11:55:55Z</time>
      </trkpt>
      <trkpt lat="44.00982" lon="7.1885">
        <ele>980.599975586</ele>
        <time>2012-05-05T11:55:57Z</time>
      </trkpt>
      <trkpt lat="44.00984" lon="7.18849">
        <ele>980.599975586</ele>
        <time>2012-05-05T11:55:59Z</time>
      </trkpt>
      <trkpt lat="44.00985" lon="7.18847">
        <ele>980.599975586</ele>
        <time>2012-05-05T11:56:00Z</time>
      </trkpt>
      <trkpt lat="44.00988" lon="7.18844">
        <ele>980.599975586</ele>
        <time>2012-05-05T11:56:04Z</time>
      </trkpt>
      <trkpt lat="44.00989" lon="7.18843">
        <ele>979.599975586</ele>
        <time>2012-05-05T11:56:05Z</time>
      </trkpt>
      <trkpt lat="44.00989" lon="7.18843">
        <ele>979.599975586</ele>
        <time>2012-05-05T11:56:09Z</time>
      </trkpt>
      <trkpt lat="44.00986" lon="7.18845">
        <ele>979.599975586</ele>
        <time>2012-05-05T11:56:15Z</time>
      </trkpt>
      <trkpt lat="44.00982" lon="7.18848">
        <ele>979.599975586</ele>
        <time>2012-05-05T11:56:20Z</time>
      </trkpt>
      <trkpt lat="44.00983" lon="7.18847">
        <ele>979.599975586</ele>
        <time>2012-05-05T11:56:26Z</time>
      </trkpt>
      <trkpt lat="44.00983" lon="7.18846">
        <ele>979.599975586</ele>
        <time>2012-05-05T11:56:31Z</time>
      </trkpt>
      <trkpt lat="44.00983" lon="7.18846">
        <ele>979.599975586</ele>
        <time>2012-05-05T11:56:32Z</time>
      </trkpt>
      <trkpt lat="44.00983" lon="7.18845">
        <ele>979.599975586</ele>
        <time>2012-05-05T11:56:36Z</time>
      </trkpt>
      <trkpt lat="44.00983" lon="7.18845">
        <ele>979.599975586</ele>
        <time>2012-05-05T11:56:38Z</time>
      </trkpt>
      <trkpt lat="44.00982" lon="7.18847">
        <ele>979.599975586</ele>
        <time>2012-05-05T11:56:43Z</time>
      </trkpt>
      <trkpt lat="44.00982" lon="7.18849">
        <ele>979.599975586</ele>
        <time>2012-05-05T11:56:49Z</time>
      </trkpt>
      <trkpt lat="44.00982" lon="7.18848">
        <ele>979.599975586</ele>
        <time>2012-05-05T11:56:52Z</time>
      </trkpt>
      <trkpt lat="44.00982" lon="7.18849">
        <ele>979.599975586</ele>
        <time>2012-05-05T11:56:54Z</time>
      </trkpt>
      <trkpt lat="44.00982" lon="7.18849">
        <ele>979.599975586</ele>
        <time>2012-05-05T11:56:56Z</time>
      </trkpt>
      <trkpt lat="44.00982" lon="7.18848">
        <ele>979.599975586</ele>
        <time>2012-05-05T11:57:00Z</time>
      </trkpt>
      <trkpt lat="44.00983" lon="7.18848">
        <ele>979.599975586</ele>
        <time>2012-05-05T11:57:01Z</time>
      </trkpt>
      <trkpt lat="44.00982" lon="7.18846">
        <ele>979.599975586</ele>
        <time>2012-05-05T11:57:06Z</time>
      </trkpt>
      <trkpt lat="44.00981" lon="7.18847">
        <ele>979.599975586</ele>
        <time>2012-05-05T11:57:11Z</time>
      </trkpt>
      <trkpt lat="44.00975" lon="7.18851">
        <ele>979.599975586</ele>
        <time>2012-05-05T11:57:14Z</time>
      </trkpt>
      <trkpt lat="44.00968" lon="7.18858">
        <ele>979.599975586</ele>
        <time>2012-05-05T11:57:17Z</time>
      </trkpt>
      <trkpt lat="44.00962" lon="7.18864">
        <ele>979.599975586</ele>
        <time>2012-05-05T11:57:19Z</time>
      </trkpt>
      <trkpt lat="44.00959" lon="7.18868">
        <ele>978.200012207</ele>
        <time>2012-05-05T11:57:20Z</time>
      </trkpt>
      <trkpt lat="44.00951" lon="7.1888">
        <ele>978.200012207</ele>
        <time>2012-05-05T11:57:24Z</time>
      </trkpt>
      <trkpt lat="44.00941" lon="7.18896">
        <ele>978.200012207</ele>
        <time>2012-05-05T11:57:29Z</time>
      </trkpt>
      <trkpt lat="44.00932" lon="7.1891">
        <ele>978.200012207</ele>
        <time>2012-05-05T11:57:33Z</time>
      </trkpt>
      <trkpt lat="44.00929" lon="7.18914">
        <ele>978.200012207</ele>
        <time>2012-05-05T11:57:34Z</time>
      </trkpt>
      <trkpt lat="44.00922" lon="7.18934">
        <ele>978.200012207</ele>
        <time>2012-05-05T11:57:39Z</time>
      </trkpt>
      <trkpt lat="44.00921" lon="7.18939">
        <ele>977.200012207</ele>
        <time>2012-05-05T11:57:40Z</time>
      </trkpt>
      <trkpt lat="44.0092" lon="7.18952">
        <ele>976</ele>
        <time>2012-05-05T11:57:43Z</time>
      </trkpt>
      <trkpt lat="44.00921" lon="7.18956">
        <ele>976</ele>
        <time>2012-05-05T11:57:44Z</time>
      </trkpt>
      <trkpt lat="44.00923" lon="7.18967">
        <ele>976</ele>
        <time>2012-05-05T11:57:49Z</time>
      </trkpt>
      <trkpt lat="44.00923" lon="7.18969">
        <ele>976</ele>
        <time>2012-05-05T11:57:55Z</time>
      </trkpt>
      <trkpt lat="44.00924" lon="7.18974">
        <ele>975</ele>
        <time>2012-05-05T11:58:03Z</time>
      </trkpt>
      <trkpt lat="44.00924" lon="7.18977">
        <ele>975</ele>
        <time>2012-05-05T11:58:04Z</time>
      </trkpt>
      <trkpt lat="44.00926" lon="7.18985">
        <ele>973.799987793</ele>
        <time>2012-05-05T11:58:07Z</time>
      </trkpt>
      <trkpt lat="44.00929" lon="7.18992">
        <ele>973.799987793</ele>
        <time>2012-05-05T11:58:09Z</time>
      </trkpt>
      <trkpt lat="44.00932" lon="7.19">
        <ele>972.799987793</ele>
        <time>2012-05-05T11:58:12Z</time>
      </trkpt>
      <trkpt lat="44.00935" lon="7.19006">
        <ele>972.799987793</ele>
        <time>2012-05-05T11:58:15Z</time>
      </trkpt>
      <trkpt lat="44.00935" lon="7.19006">
        <ele>972.799987793</ele>
        <time>2012-05-05T11:58:17Z</time>
      </trkpt>
      <trkpt lat="44.00935" lon="7.19006">
        <ele>972.799987793</ele>
        <time>2012-05-05T11:58:19Z</time>
      </trkpt>
      <trkpt lat="44.00935" lon="7.19006">
        <ele>972.799987793</ele>
        <time>2012-05-05T11:58:25Z</time>
      </trkpt>
      <trkpt lat="44.00937" lon="7.19012">
        <ele>971.799987793</ele>
        <time>2012-05-05T11:58:32Z</time>
      </trkpt>
      <trkpt lat="44.00939" lon="7.19015">
        <ele>970.599975586</ele>
        <time>2012-05-05T11:58:33Z</time>
      </trkpt>
      <trkpt lat="44.0094" lon="7.19018">
        <ele>969.400024414</ele>
        <time>2012-05-05T11:58:34Z</time>
      </trkpt>
      <trkpt lat="44.00942" lon="7.19021">
        <ele>968.200012207</ele>
        <time>2012-05-05T11:58:35Z</time>
      </trkpt>
      <trkpt lat="44.00944" lon="7.19024">
        <ele>967.200012207</ele>
        <time>2012-05-05T11:58:36Z</time>
      </trkpt>
      <trkpt lat="44.00947" lon="7.19028">
        <ele>967.200012207</ele>
        <time>2012-05-05T11:58:37Z</time>
      </trkpt>
      <trkpt lat="44.0095" lon="7.19032">
        <ele>967.200012207</ele>
        <time>2012-05-05T11:58:38Z</time>
      </trkpt>
      <trkpt lat="44.00952" lon="7.19036">
        <ele>965.799987793</ele>
        <time>2012-05-05T11:58:39Z</time>
      </trkpt>
      <trkpt lat="44.00953" lon="7.19039">
        <ele>965.799987793</ele>
        <time>2012-05-05T11:58:40Z</time>
      </trkpt>
      <trkpt lat="44.00956" lon="7.19044">
        <ele>964.400024414</ele>
        <time>2012-05-05T11:58:42Z</time>
      </trkpt>
      <trkpt lat="44.00958" lon="7.19047">
        <ele>963</ele>
        <time>2012-05-05T11:58:43Z</time>
      </trkpt>
      <trkpt lat="44.00961" lon="7.1905">
        <ele>962</ele>
        <time>2012-05-05T11:58:44Z</time>
      </trkpt>
      <trkpt lat="44.00963" lon="7.19053">
        <ele>962</ele>
        <time>2012-05-05T11:58:45Z</time>
      </trkpt>
      <trkpt lat="44.00967" lon="7.1906">
        <ele>960.599975586</ele>
        <time>2012-05-05T11:58:47Z</time>
      </trkpt>
      <trkpt lat="44.00968" lon="7.19063">
        <ele>959.400024414</ele>
        <time>2012-05-05T11:58:48Z</time>
      </trkpt>
      <trkpt lat="44.00969" lon="7.19066">
        <ele>959.400024414</ele>
        <time>2012-05-05T11:58:49Z</time>
      </trkpt>
      <trkpt lat="44.0097" lon="7.19069">
        <ele>958.400024414</ele>
        <time>2012-05-05T11:58:50Z</time>
      </trkpt>
      <trkpt lat="44.00971" lon="7.19077">
        <ele>958.400024414</ele>
        <time>2012-05-05T11:58:53Z</time>
      </trkpt>
      <trkpt lat="44.00971" lon="7.19078">
        <ele>957</ele>
        <time>2012-05-05T11:58:54Z</time>
      </trkpt>
      <trkpt lat="44.00972" lon="7.1908">
        <ele>957</ele>
        <time>2012-05-05T11:58:57Z</time>
      </trkpt>
      <trkpt lat="44.00972" lon="7.1908">
        <ele>957</ele>
        <time>2012-05-05T11:59:02Z</time>
      </trkpt>
      <trkpt lat="44.00972" lon="7.1908">
        <ele>957</ele>
        <time>2012-05-05T11:59:03Z</time>
      </trkpt>
      <trkpt lat="44.00974" lon="7.19087">
        <ele>957</ele>
        <time>2012-05-05T11:59:13Z</time>
      </trkpt>
      <trkpt lat="44.00977" lon="7.19091">
        <ele>956</ele>
        <time>2012-05-05T11:59:15Z</time>
      </trkpt>
      <trkpt lat="44.0098" lon="7.19096">
        <ele>956</ele>
        <time>2012-05-05T11:59:17Z</time>
      </trkpt>
      <trkpt lat="44.00982" lon="7.19099">
        <ele>955</ele>
        <time>2012-05-05T11:59:18Z</time>
      </trkpt>
      <trkpt lat="44.00984" lon="7.19101">
        <ele>953.599975586</ele>
        <time>2012-05-05T11:59:19Z</time>
      </trkpt>
      <trkpt lat="44.00986" lon="7.19102">
        <ele>953.599975586</ele>
        <time>2012-05-05T11:59:20Z</time>
      </trkpt>
      <trkpt lat="44.00985" lon="7.19102">
        <ele>953.599975586</ele>
        <time>2012-05-05T11:59:22Z</time>
      </trkpt>
      <trkpt lat="44.00985" lon="7.19102">
        <ele>953.599975586</ele>
        <time>2012-05-05T11:59:24Z</time>
      </trkpt>
      <trkpt lat="44.00985" lon="7.19102">
        <ele>953.599975586</ele>
        <time>2012-05-05T11:59:27Z</time>
      </trkpt>
      <trkpt lat="44.00985" lon="7.19102">
        <ele>953.599975586</ele>
        <time>2012-05-05T11:59:31Z</time>
      </trkpt>
      <trkpt lat="44.00986" lon="7.19102">
        <ele>953.599975586</ele>
        <time>2012-05-05T11:59:34Z</time>
      </trkpt>
      <trkpt lat="44.00987" lon="7.19102">
        <ele>953.599975586</ele>
        <time>2012-05-05T11:59:38Z</time>
      </trkpt>
      <trkpt lat="44.00994" lon="7.19108">
        <ele>953.599975586</ele>
        <time>2012-05-05T11:59:42Z</time>
      </trkpt>
      <trkpt lat="44.00999" lon="7.19113">
        <ele>952.400024414</ele>
        <time>2012-05-05T11:59:44Z</time>
      </trkpt>
      <trkpt lat="44.00999" lon="7.19119">
        <ele>952.400024414</ele>
        <time>2012-05-05T11:59:46Z</time>
      </trkpt>
      <trkpt lat="44.00999" lon="7.19119">
        <ele>952.400024414</ele>
        <time>2012-05-05T11:59:49Z</time>
      </trkpt>
      <trkpt lat="44.00999" lon="7.19119">
        <ele>951</ele>
        <time>2012-05-05T11:59:50Z</time>
      </trkpt>
      <trkpt lat="44.00999" lon="7.19121">
        <ele>951</ele>
        <time>2012-05-05T11:59:53Z</time>
      </trkpt>
      <trkpt lat="44.00998" lon="7.19132">
        <ele>951</ele>
        <time>2012-05-05T11:59:57Z</time>
      </trkpt>
      <trkpt lat="44.00997" lon="7.19139">
        <ele>949.599975586</ele>
        <time>2012-05-05T11:59:59Z</time>
      </trkpt>
      <trkpt lat="44.00995" lon="7.19152">
        <ele>947.799987793</ele>
        <time>2012-05-05T12:00:02Z</time>
      </trkpt>
      <trkpt lat="44.00995" lon="7.19156">
        <ele>946.400024414</ele>
        <time>2012-05-05T12:00:03Z</time>
      </trkpt>
      <trkpt lat="44.00996" lon="7.1916">
        <ele>945.400024414</ele>
        <time>2012-05-05T12:00:04Z</time>
      </trkpt>
      <trkpt lat="44.00997" lon="7.19167">
        <ele>944.200012207</ele>
        <time>2012-05-05T12:00:06Z</time>
      </trkpt>
      <trkpt lat="44.00998" lon="7.19171">
        <ele>943</ele>
        <time>2012-05-05T12:00:07Z</time>
      </trkpt>
      <trkpt lat="44.01" lon="7.19175">
        <ele>942</ele>
        <time>2012-05-05T12:00:08Z</time>
      </trkpt>
      <trkpt lat="44.01003" lon="7.19184">
        <ele>941</ele>
        <time>2012-05-05T12:00:10Z</time>
      </trkpt>
      <trkpt lat="44.01004" lon="7.19188">
        <ele>941</ele>
        <time>2012-05-05T12:00:11Z</time>
      </trkpt>
      <trkpt lat="44.01005" lon="7.19192">
        <ele>940</ele>
        <time>2012-05-05T12:00:12Z</time>
      </trkpt>
      <trkpt lat="44.01006" lon="7.19197">
        <ele>937.400024414</ele>
        <time>2012-05-05T12:00:13Z</time>
      </trkpt>
      <trkpt lat="44.0101" lon="7.19204">
        <ele>935.799987793</ele>
        <time>2012-05-05T12:00:15Z</time>
      </trkpt>
      <trkpt lat="44.01012" lon="7.19206">
        <ele>935.799987793</ele>
        <time>2012-05-05T12:00:16Z</time>
      </trkpt>
      <trkpt lat="44.01013" lon="7.19206">
        <ele>934.599975586</ele>
        <time>2012-05-05T12:00:18Z</time>
      </trkpt>
      <trkpt lat="44.01014" lon="7.19207">
        <ele>934.599975586</ele>
        <time>2012-05-05T12:00:19Z</time>
      </trkpt>
      <trkpt lat="44.01015" lon="7.1921">
        <ele>934.599975586</ele>
        <time>2012-05-05T12:00:25Z</time>
      </trkpt>
      <trkpt lat="44.01014" lon="7.1921">
        <ele>931.599975586</ele>
        <time>2012-05-05T12:00:28Z</time>
      </trkpt>
      <trkpt lat="44.01014" lon="7.1921">
        <ele>931.599975586</ele>
        <time>2012-05-05T12:00:29Z</time>
      </trkpt>
      <trkpt lat="44.01015" lon="7.1921">
        <ele>931.599975586</ele>
        <time>2012-05-05T12:00:33Z</time>
      </trkpt>
      <trkpt lat="44.01016" lon="7.1921">
        <ele>931.599975586</ele>
        <time>2012-05-05T12:00:39Z</time>
      </trkpt>
      <trkpt lat="44.01018" lon="7.19211">
        <ele>934.599975586</ele>
        <time>2012-05-05T12:00:43Z</time>
      </trkpt>
      <trkpt lat="44.0102" lon="7.19214">
        <ele>934.599975586</ele>
        <time>2012-05-05T12:00:48Z</time>
      </trkpt>
      <trkpt lat="44.01021" lon="7.19214">
        <ele>934.599975586</ele>
        <time>2012-05-05T12:00:52Z</time>
      </trkpt>
      <trkpt lat="44.01019" lon="7.19212">
        <ele>934.599975586</ele>
        <time>2012-05-05T12:00:56Z</time>
      </trkpt>
      <trkpt lat="44.01018" lon="7.19211">
        <ele>934.599975586</ele>
        <time>2012-05-05T12:01:05Z</time>
      </trkpt>
      <trkpt lat="44.01014" lon="7.19208">
        <ele>934.599975586</ele>
        <time>2012-05-05T12:01:10Z</time>
      </trkpt>
      <trkpt lat="44.01014" lon="7.19207">
        <ele>934.599975586</ele>
        <time>2012-05-05T12:01:13Z</time>
      </trkpt>
      <trkpt lat="44.01012" lon="7.19208">
        <ele>934.599975586</ele>
        <time>2012-05-05T12:01:17Z</time>
      </trkpt>
      <trkpt lat="44.01014" lon="7.19208">
        <ele>934.599975586</ele>
        <time>2012-05-05T12:01:21Z</time>
      </trkpt>
      <trkpt lat="44.01014" lon="7.19208">
        <ele>934.599975586</ele>
        <time>2012-05-05T12:01:27Z</time>
      </trkpt>
      <trkpt lat="44.01012" lon="7.19206">
        <ele>934.599975586</ele>
        <time>2012-05-05T12:01:31Z</time>
      </trkpt>
      <trkpt lat="44.01014" lon="7.19206">
        <ele>934.599975586</ele>
        <time>2012-05-05T12:01:37Z</time>
      </trkpt>
      <trkpt lat="44.01013" lon="7.19205">
        <ele>934.599975586</ele>
        <time>2012-05-05T12:01:41Z</time>
      </trkpt>
      <trkpt lat="44.01013" lon="7.19205">
        <ele>935.799987793</ele>
        <time>2012-05-05T12:01:46Z</time>
      </trkpt>
      <trkpt lat="44.01013" lon="7.19205">
        <ele>935.799987793</ele>
        <time>2012-05-05T12:01:48Z</time>
      </trkpt>
      <trkpt lat="44.01013" lon="7.19205">
        <ele>935.799987793</ele>
        <time>2012-05-05T12:01:53Z</time>
      </trkpt>
      <trkpt lat="44.01013" lon="7.19205">
        <ele>935.799987793</ele>
        <time>2012-05-05T12:01:55Z</time>
      </trkpt>
      <trkpt lat="44.01013" lon="7.19208">
        <ele>935.799987793</ele>
        <time>2012-05-05T12:02:00Z</time>
      </trkpt>
      <trkpt lat="44.01013" lon="7.19208">
        <ele>935.799987793</ele>
        <time>2012-05-05T12:02:05Z</time>
      </trkpt>
      <trkpt lat="44.01013" lon="7.19208">
        <ele>935.799987793</ele>
        <time>2012-05-05T12:02:10Z</time>
      </trkpt>
      <trkpt lat="44.01014" lon="7.19209">
        <ele>932.799987793</ele>
        <time>2012-05-05T12:02:14Z</time>
      </trkpt>
      <trkpt lat="44.01014" lon="7.1921">
        <ele>932.799987793</ele>
        <time>2012-05-05T12:02:15Z</time>
      </trkpt>
      <trkpt lat="44.01015" lon="7.19212">
        <ele>932.799987793</ele>
        <time>2012-05-05T12:02:24Z</time>
      </trkpt>
      <trkpt lat="44.01015" lon="7.19214">
        <ele>932.799987793</ele>
        <time>2012-05-05T12:02:33Z</time>
      </trkpt>
      <trkpt lat="44.01016" lon="7.19214">
        <ele>932.799987793</ele>
        <time>2012-05-05T12:02:38Z</time>
      </trkpt>
      <trkpt lat="44.01015" lon="7.19216">
        <ele>932.799987793</ele>
        <time>2012-05-05T12:02:39Z</time>
      </trkpt>
      <trkpt lat="44.01015" lon="7.19216">
        <ele>932.799987793</ele>
        <time>2012-05-05T12:02:40Z</time>
      </trkpt>
      <trkpt lat="44.01014" lon="7.19214">
        <ele>932.799987793</ele>
        <time>2012-05-05T12:02:43Z</time>
      </trkpt>
      <trkpt lat="44.01014" lon="7.19214">
        <ele>932.799987793</ele>
        <time>2012-05-05T12:02:47Z</time>
      </trkpt>
      <trkpt lat="44.01013" lon="7.19212">
        <ele>932.799987793</ele>
        <time>2012-05-05T12:02:52Z</time>
      </trkpt>
      <trkpt lat="44.01012" lon="7.19212">
        <ele>932.799987793</ele>
        <time>2012-05-05T12:02:55Z</time>
      </trkpt>
      <trkpt lat="44.01012" lon="7.19211">
        <ele>932.799987793</ele>
        <time>2012-05-05T12:02:58Z</time>
      </trkpt>
      <trkpt lat="44.01009" lon="7.1921">
        <ele>932.799987793</ele>
        <time>2012-05-05T12:03:03Z</time>
      </trkpt>
      <trkpt lat="44.01004" lon="7.19207">
        <ele>931.799987793</ele>
        <time>2012-05-05T12:03:06Z</time>
      </trkpt>
      <trkpt lat="44.00999" lon="7.19203">
        <ele>931.799987793</ele>
        <time>2012-05-05T12:03:08Z</time>
      </trkpt>
      <trkpt lat="44.00997" lon="7.19199">
        <ele>930.799987793</ele>
        <time>2012-05-05T12:03:09Z</time>
      </trkpt>
      <trkpt lat="44.00989" lon="7.19189">
        <ele>930.799987793</ele>
        <time>2012-05-05T12:03:12Z</time>
      </trkpt>
      <trkpt lat="44.00986" lon="7.19184">
        <ele>930.799987793</ele>
        <time>2012-05-05T12:03:13Z</time>
      </trkpt>
      <trkpt lat="44.00983" lon="7.19179">
        <ele>929.599975586</ele>
        <time>2012-05-05T12:03:14Z</time>
      </trkpt>
      <trkpt lat="44.00977" lon="7.1917">
        <ele>928.200012207</ele>
        <time>2012-05-05T12:03:16Z</time>
      </trkpt>
      <trkpt lat="44.00972" lon="7.19159">
        <ele>927.200012207</ele>
        <time>2012-05-05T12:03:18Z</time>
      </trkpt>
      <trkpt lat="44.0097" lon="7.19153">
        <ele>927.200012207</ele>
        <time>2012-05-05T12:03:19Z</time>
      </trkpt>
      <trkpt lat="44.0097" lon="7.19142">
        <ele>927.200012207</ele>
        <time>2012-05-05T12:03:21Z</time>
      </trkpt>
      <trkpt lat="44.00965" lon="7.19132">
        <ele>927.200012207</ele>
        <time>2012-05-05T12:03:25Z</time>
      </trkpt>
      <trkpt lat="44.00963" lon="7.1913">
        <ele>927.200012207</ele>
        <time>2012-05-05T12:03:26Z</time>
      </trkpt>
      <trkpt lat="44.00953" lon="7.19123">
        <ele>927.200012207</ele>
        <time>2012-05-05T12:03:30Z</time>
      </trkpt>
      <trkpt lat="44.0095" lon="7.1912">
        <ele>927.200012207</ele>
        <time>2012-05-05T12:03:31Z</time>
      </trkpt>
      <trkpt lat="44.00941" lon="7.19101">
        <ele>924.799987793</ele>
        <time>2012-05-05T12:03:37Z</time>
      </trkpt>
      <trkpt lat="44.00938" lon="7.191">
        <ele>924.799987793</ele>
        <time>2012-05-05T12:03:38Z</time>
      </trkpt>
      <trkpt lat="44.00931" lon="7.19097">
        <ele>924.799987793</ele>
        <time>2012-05-05T12:03:40Z</time>
      </trkpt>
      <trkpt lat="44.00926" lon="7.19093">
        <ele>924.799987793</ele>
        <time>2012-05-05T12:03:42Z</time>
      </trkpt>
      <trkpt lat="44.00919" lon="7.19083">
        <ele>924.799987793</ele>
        <time>2012-05-05T12:03:45Z</time>
      </trkpt>
      <trkpt lat="44.00915" lon="7.19074">
        <ele>924.799987793</ele>
        <time>2012-05-05T12:03:47Z</time>
      </trkpt>
      <trkpt lat="44.00913" lon="7.19071">
        <ele>924.799987793</ele>
        <time>2012-05-05T12:03:48Z</time>
      </trkpt>
      <trkpt lat="44.00896" lon="7.19053">
        <ele>924.799987793</ele>
        <time>2012-05-05T12:03:54Z</time>
      </trkpt>
      <trkpt lat="44.00889" lon="7.19046">
        <ele>924.799987793</ele>
        <time>2012-05-05T12:03:56Z</time>
      </trkpt>
      <trkpt lat="44.00886" lon="7.19042">
        <ele>924.799987793</ele>
        <time>2012-05-05T12:03:57Z</time>
      </trkpt>
      <trkpt lat="44.00872" lon="7.1903">
        <ele>924.799987793</ele>
        <time>2012-05-05T12:04:02Z</time>
      </trkpt>
      <trkpt lat="44.00865" lon="7.19016">
        <ele>924.799987793</ele>
        <time>2012-05-05T12:04:06Z</time>
      </trkpt>
      <trkpt lat="44.00862" lon="7.18997">
        <ele>923.400024414</ele>
        <time>2012-05-05T12:04:11Z</time>
      </trkpt>
      <trkpt lat="44.00862" lon="7.18997">
        <ele>923.400024414</ele>
        <time>2012-05-05T12:04:14Z</time>
      </trkpt>
      <trkpt lat="44.00861" lon="7.18996">
        <ele>923.400024414</ele>
        <time>2012-05-05T12:04:16Z</time>
      </trkpt>
      <trkpt lat="44.0086" lon="7.18994">
        <ele>923.400024414</ele>
        <time>2012-05-05T12:04:29Z</time>
      </trkpt>
      <trkpt lat="44.00859" lon="7.18988">
        <ele>923.400024414</ele>
        <time>2012-05-05T12:04:33Z</time>
      </trkpt>
      <trkpt lat="44.00858" lon="7.18983">
        <ele>921.599975586</ele>
        <time>2012-05-05T12:04:34Z</time>
      </trkpt>
      <trkpt lat="44.00856" lon="7.18978">
        <ele>921.599975586</ele>
        <time>2012-05-05T12:04:36Z</time>
      </trkpt>
      <trkpt lat="44.00854" lon="7.18973">
        <ele>921.599975586</ele>
        <time>2012-05-05T12:04:38Z</time>
      </trkpt>
      <trkpt lat="44.00851" lon="7.18967">
        <ele>921.599975586</ele>
        <time>2012-05-05T12:04:40Z</time>
      </trkpt>
      <trkpt lat="44.0085" lon="7.18962">
        <ele>921.599975586</ele>
        <time>2012-05-05T12:04:43Z</time>
      </trkpt>
      <trkpt lat="44.00851" lon="7.18959">
        <ele>921.599975586</ele>
        <time>2012-05-05T12:04:44Z</time>
      </trkpt>
      <trkpt lat="44.00851" lon="7.18955">
        <ele>925</ele>
        <time>2012-05-05T12:04:45Z</time>
      </trkpt>
      <trkpt lat="44.00851" lon="7.18949">
        <ele>925</ele>
        <time>2012-05-05T12:04:47Z</time>
      </trkpt>
      <trkpt lat="44.00851" lon="7.18937">
        <ele>925</ele>
        <time>2012-05-05T12:04:50Z</time>
      </trkpt>
      <trkpt lat="44.00852" lon="7.18934">
        <ele>925</ele>
        <time>2012-05-05T12:04:51Z</time>
      </trkpt>
      <trkpt lat="44.00855" lon="7.18925">
        <ele>925</ele>
        <time>2012-05-05T12:04:55Z</time>
      </trkpt>
      <trkpt lat="44.00852" lon="7.18919">
        <ele>925</ele>
        <time>2012-05-05T12:05:02Z</time>
      </trkpt>
      <trkpt lat="44.00851" lon="7.18916">
        <ele>925</ele>
        <time>2012-05-05T12:05:08Z</time>
      </trkpt>
      <trkpt lat="44.00849" lon="7.18911">
        <ele>925</ele>
        <time>2012-05-05T12:05:13Z</time>
      </trkpt>
      <trkpt lat="44.00845" lon="7.18908">
        <ele>925</ele>
        <time>2012-05-05T12:05:18Z</time>
      </trkpt>
      <trkpt lat="44.00843" lon="7.18908">
        <ele>925</ele>
        <time>2012-05-05T12:05:23Z</time>
      </trkpt>
      <trkpt lat="44.0084" lon="7.18908">
        <ele>926.200012207</ele>
        <time>2012-05-05T12:05:27Z</time>
      </trkpt>
      <trkpt lat="44.00837" lon="7.18909">
        <ele>927.200012207</ele>
        <time>2012-05-05T12:05:31Z</time>
      </trkpt>
      <trkpt lat="44.00836" lon="7.18909">
        <ele>927.200012207</ele>
        <time>2012-05-05T12:05:33Z</time>
      </trkpt>
      <trkpt lat="44.00835" lon="7.1891">
        <ele>928.200012207</ele>
        <time>2012-05-05T12:05:35Z</time>
      </trkpt>
      <trkpt lat="44.00833" lon="7.1891">
        <ele>928.200012207</ele>
        <time>2012-05-05T12:05:38Z</time>
      </trkpt>
      <trkpt lat="44.00831" lon="7.18911">
        <ele>929.400024414</ele>
        <time>2012-05-05T12:05:40Z</time>
      </trkpt>
      <trkpt lat="44.00829" lon="7.18912">
        <ele>929.400024414</ele>
        <time>2012-05-05T12:05:42Z</time>
      </trkpt>
      <trkpt lat="44.00827" lon="7.18912">
        <ele>930.400024414</ele>
        <time>2012-05-05T12:05:44Z</time>
      </trkpt>
      <trkpt lat="44.00823" lon="7.18913">
        <ele>931.400024414</ele>
        <time>2012-05-05T12:05:48Z</time>
      </trkpt>
      <trkpt lat="44.00818" lon="7.1891">
        <ele>932.599975586</ele>
        <time>2012-05-05T12:05:53Z</time>
      </trkpt>
      <trkpt lat="44.00816" lon="7.18909">
        <ele>932.599975586</ele>
        <time>2012-05-05T12:05:55Z</time>
      </trkpt>
      <trkpt lat="44.00815" lon="7.18908">
        <ele>933.599975586</ele>
        <time>2012-05-05T12:05:57Z</time>
      </trkpt>
      <trkpt lat="44.00814" lon="7.18904">
        <ele>933.599975586</ele>
        <time>2012-05-05T12:06:01Z</time>
      </trkpt>
      <trkpt lat="44.00813" lon="7.18903">
        <ele>934.799987793</ele>
        <time>2012-05-05T12:06:02Z</time>
      </trkpt>
      <trkpt lat="44.0081" lon="7.18902">
        <ele>936</ele>
        <time>2012-05-05T12:06:07Z</time>
      </trkpt>
      <trkpt lat="44.00808" lon="7.18901">
        <ele>937</ele>
        <time>2012-05-05T12:06:08Z</time>
      </trkpt>
      <trkpt lat="44.00807" lon="7.189">
        <ele>937</ele>
        <time>2012-05-05T12:06:13Z</time>
      </trkpt>
      <trkpt lat="44.00804" lon="7.18898">
        <ele>938</ele>
        <time>2012-05-05T12:06:16Z</time>
      </trkpt>
      <trkpt lat="44.00801" lon="7.18896">
        <ele>939</ele>
        <time>2012-05-05T12:06:19Z</time>
      </trkpt>
      <trkpt lat="44.00797" lon="7.18892">
        <ele>939</ele>
        <time>2012-05-05T12:06:23Z</time>
      </trkpt>
      <trkpt lat="44.00794" lon="7.18885">
        <ele>940.200012207</ele>
        <time>2012-05-05T12:06:28Z</time>
      </trkpt>
      <trkpt lat="44.00794" lon="7.18884">
        <ele>940.200012207</ele>
        <time>2012-05-05T12:06:29Z</time>
      </trkpt>
      <trkpt lat="44.00793" lon="7.18883">
        <ele>940.200012207</ele>
        <time>2012-05-05T12:06:30Z</time>
      </trkpt>
      <trkpt lat="44.00793" lon="7.18882">
        <ele>941.400024414</ele>
        <time>2012-05-05T12:06:32Z</time>
      </trkpt>
      <trkpt lat="44.00789" lon="7.18875">
        <ele>941.400024414</ele>
        <time>2012-05-05T12:06:38Z</time>
      </trkpt>
      <trkpt lat="44.00787" lon="7.18868">
        <ele>942.400024414</ele>
        <time>2012-05-05T12:06:44Z</time>
      </trkpt>
      <trkpt lat="44.00785" lon="7.18862">
        <ele>943.400024414</ele>
        <time>2012-05-05T12:06:50Z</time>
      </trkpt>
      <trkpt lat="44.00784" lon="7.18854">
        <ele>944.400024414</ele>
        <time>2012-05-05T12:06:56Z</time>
      </trkpt>
      <trkpt lat="44.00784" lon="7.18852">
        <ele>944.400024414</ele>
        <time>2012-05-05T12:06:58Z</time>
      </trkpt>
      <trkpt lat="44.00782" lon="7.18844">
        <ele>944.400024414</ele>
        <time>2012-05-05T12:07:03Z</time>
      </trkpt>
      <trkpt lat="44.00782" lon="7.18842">
        <ele>944.400024414</ele>
        <time>2012-05-05T12:07:04Z</time>
      </trkpt>
      <trkpt lat="44.00782" lon="7.1884">
        <ele>945.599975586</ele>
        <time>2012-05-05T12:07:06Z</time>
      </trkpt>
      <trkpt lat="44.0078" lon="7.18836">
        <ele>945.599975586</ele>
        <time>2012-05-05T12:07:09Z</time>
      </trkpt>
      <trkpt lat="44.0078" lon="7.18831">
        <ele>939.400024414</ele>
        <time>2012-05-05T12:07:12Z</time>
      </trkpt>
      <trkpt lat="44.00779" lon="7.1883">
        <ele>943.799987793</ele>
        <time>2012-05-05T12:07:13Z</time>
      </trkpt>
      <trkpt lat="44.00779" lon="7.18829">
        <ele>945.200012207</ele>
        <time>2012-05-05T12:07:14Z</time>
      </trkpt>
      <trkpt lat="44.00779" lon="7.18828">
        <ele>945.200012207</ele>
        <time>2012-05-05T12:07:15Z</time>
      </trkpt>
      <trkpt lat="44.00779" lon="7.18827">
        <ele>948.400024414</ele>
        <time>2012-05-05T12:07:16Z</time>
      </trkpt>
      <trkpt lat="44.00778" lon="7.18824">
        <ele>944.599975586</ele>
        <time>2012-05-05T12:07:18Z</time>
      </trkpt>
      <trkpt lat="44.00776" lon="7.18821">
        <ele>944.599975586</ele>
        <time>2012-05-05T12:07:21Z</time>
      </trkpt>
      <trkpt lat="44.00774" lon="7.18814">
        <ele>944.599975586</ele>
        <time>2012-05-05T12:07:27Z</time>
      </trkpt>
      <trkpt lat="44.00772" lon="7.18805">
        <ele>944.599975586</ele>
        <time>2012-05-05T12:07:33Z</time>
      </trkpt>
      <trkpt lat="44.00772" lon="7.18805">
        <ele>943.400024414</ele>
        <time>2012-05-05T12:07:34Z</time>
      </trkpt>
      <trkpt lat="44.00771" lon="7.18804">
        <ele>951.400024414</ele>
        <time>2012-05-05T12:07:35Z</time>
      </trkpt>
      <trkpt lat="44.00771" lon="7.18802">
        <ele>947</ele>
        <time>2012-05-05T12:07:36Z</time>
      </trkpt>
      <trkpt lat="44.00769" lon="7.18799">
        <ele>942.599975586</ele>
        <time>2012-05-05T12:07:39Z</time>
      </trkpt>
      <trkpt lat="44.00768" lon="7.18798">
        <ele>940.200012207</ele>
        <time>2012-05-05T12:07:40Z</time>
      </trkpt>
      <trkpt lat="44.00767" lon="7.18796">
        <ele>947.200012207</ele>
        <time>2012-05-05T12:07:41Z</time>
      </trkpt>
      <trkpt lat="44.00767" lon="7.18795">
        <ele>949.400024414</ele>
        <time>2012-05-05T12:07:42Z</time>
      </trkpt>
      <trkpt lat="44.00765" lon="7.18792">
        <ele>949.400024414</ele>
        <time>2012-05-05T12:07:44Z</time>
      </trkpt>
      <trkpt lat="44.00763" lon="7.18791">
        <ele>949.400024414</ele>
        <time>2012-05-05T12:07:46Z</time>
      </trkpt>
      <trkpt lat="44.00762" lon="7.18789">
        <ele>949.400024414</ele>
        <time>2012-05-05T12:07:50Z</time>
      </trkpt>
      <trkpt lat="44.00759" lon="7.18782">
        <ele>949.400024414</ele>
        <time>2012-05-05T12:07:54Z</time>
      </trkpt>
      <trkpt lat="44.0076" lon="7.18778">
        <ele>949.400024414</ele>
        <time>2012-05-05T12:07:56Z</time>
      </trkpt>
      <trkpt lat="44.00761" lon="7.18774">
        <ele>949.400024414</ele>
        <time>2012-05-05T12:07:58Z</time>
      </trkpt>
      <trkpt lat="44.00763" lon="7.18763">
        <ele>949.400024414</ele>
        <time>2012-05-05T12:08:04Z</time>
      </trkpt>
      <trkpt lat="44.00764" lon="7.1876">
        <ele>946.200012207</ele>
        <time>2012-05-05T12:08:08Z</time>
      </trkpt>
      <trkpt lat="44.00764" lon="7.1876">
        <ele>946.200012207</ele>
        <time>2012-05-05T12:08:09Z</time>
      </trkpt>
      <trkpt lat="44.00764" lon="7.18757">
        <ele>946.200012207</ele>
        <time>2012-05-05T12:08:14Z</time>
      </trkpt>
      <trkpt lat="44.00765" lon="7.18754">
        <ele>946.200012207</ele>
        <time>2012-05-05T12:08:19Z</time>
      </trkpt>
      <trkpt lat="44.00767" lon="7.18749">
        <ele>946.200012207</ele>
        <time>2012-05-05T12:08:24Z</time>
      </trkpt>
      <trkpt lat="44.00768" lon="7.18747">
        <ele>949.200012207</ele>
        <time>2012-05-05T12:08:25Z</time>
      </trkpt>
      <trkpt lat="44.00772" lon="7.18739">
        <ele>949.200012207</ele>
        <time>2012-05-05T12:08:30Z</time>
      </trkpt>
      <trkpt lat="44.00774" lon="7.18736">
        <ele>950.400024414</ele>
        <time>2012-05-05T12:08:32Z</time>
      </trkpt>
      <trkpt lat="44.0078" lon="7.18734">
        <ele>950.400024414</ele>
        <time>2012-05-05T12:08:36Z</time>
      </trkpt>
      <trkpt lat="44.00787" lon="7.18732">
        <ele>950.400024414</ele>
        <time>2012-05-05T12:08:40Z</time>
      </trkpt>
      <trkpt lat="44.00791" lon="7.18732">
        <ele>951.400024414</ele>
        <time>2012-05-05T12:08:43Z</time>
      </trkpt>
      <trkpt lat="44.00793" lon="7.18731">
        <ele>951.400024414</ele>
        <time>2012-05-05T12:08:44Z</time>
      </trkpt>
      <trkpt lat="44.00796" lon="7.18729">
        <ele>951.400024414</ele>
        <time>2012-05-05T12:08:47Z</time>
      </trkpt>
      <trkpt lat="44.008" lon="7.18723">
        <ele>952.400024414</ele>
        <time>2012-05-05T12:08:51Z</time>
      </trkpt>
      <trkpt lat="44.00801" lon="7.18721">
        <ele>952.400024414</ele>
        <time>2012-05-05T12:08:52Z</time>
      </trkpt>
      <trkpt lat="44.00801" lon="7.18717">
        <ele>952.400024414</ele>
        <time>2012-05-05T12:08:54Z</time>
      </trkpt>
      <trkpt lat="44.008" lon="7.18715">
        <ele>952.400024414</ele>
        <time>2012-05-05T12:08:56Z</time>
      </trkpt>
      <trkpt lat="44.00797" lon="7.18709">
        <ele>952.400024414</ele>
        <time>2012-05-05T12:09:00Z</time>
      </trkpt>
      <trkpt lat="44.00791" lon="7.18702">
        <ele>952.400024414</ele>
        <time>2012-05-05T12:09:06Z</time>
      </trkpt>
      <trkpt lat="44.00788" lon="7.18696">
        <ele>952.400024414</ele>
        <time>2012-05-05T12:09:11Z</time>
      </trkpt>
      <trkpt lat="44.00784" lon="7.18685">
        <ele>952.400024414</ele>
        <time>2012-05-05T12:09:18Z</time>
      </trkpt>
      <trkpt lat="44.00783" lon="7.18684">
        <ele>953.599975586</ele>
        <time>2012-05-05T12:09:19Z</time>
      </trkpt>
      <trkpt lat="44.00778" lon="7.18671">
        <ele>954.799987793</ele>
        <time>2012-05-05T12:09:28Z</time>
      </trkpt>
      <trkpt lat="44.00777" lon="7.18669">
        <ele>954.799987793</ele>
        <time>2012-05-05T12:09:29Z</time>
      </trkpt>
      <trkpt lat="44.00776" lon="7.18664">
        <ele>955.799987793</ele>
        <time>2012-05-05T12:09:33Z</time>
      </trkpt>
      <trkpt lat="44.00775" lon="7.18664">
        <ele>955.799987793</ele>
        <time>2012-05-05T12:09:35Z</time>
      </trkpt>
      <trkpt lat="44.00774" lon="7.18658">
        <ele>955.799987793</ele>
        <time>2012-05-05T12:09:41Z</time>
      </trkpt>
      <trkpt lat="44.00774" lon="7.18657">
        <ele>956.799987793</ele>
        <time>2012-05-05T12:09:44Z</time>
      </trkpt>
      <trkpt lat="44.00774" lon="7.18655">
        <ele>956.799987793</ele>
        <time>2012-05-05T12:09:46Z</time>
      </trkpt>
      <trkpt lat="44.00773" lon="7.1865">
        <ele>957.799987793</ele>
        <time>2012-05-05T12:09:49Z</time>
      </trkpt>
      <trkpt lat="44.00771" lon="7.18645">
        <ele>957.799987793</ele>
        <time>2012-05-05T12:09:53Z</time>
      </trkpt>
      <trkpt lat="44.00768" lon="7.18641">
        <ele>959</ele>
        <time>2012-05-05T12:09:57Z</time>
      </trkpt>
      <trkpt lat="44.00766" lon="7.18634">
        <ele>956</ele>
        <time>2012-05-05T12:10:03Z</time>
      </trkpt>
      <trkpt lat="44.00765" lon="7.18632">
        <ele>956</ele>
        <time>2012-05-05T12:10:05Z</time>
      </trkpt>
      <trkpt lat="44.00763" lon="7.18627">
        <ele>956</ele>
        <time>2012-05-05T12:10:09Z</time>
      </trkpt>
      <trkpt lat="44.00759" lon="7.18621">
        <ele>956</ele>
        <time>2012-05-05T12:10:15Z</time>
      </trkpt>
      <trkpt lat="44.00757" lon="7.18618">
        <ele>958</ele>
        <time>2012-05-05T12:10:18Z</time>
      </trkpt>
      <trkpt lat="44.00755" lon="7.18615">
        <ele>958</ele>
        <time>2012-05-05T12:10:21Z</time>
      </trkpt>
      <trkpt lat="44.00754" lon="7.18612">
        <ele>958</ele>
        <time>2012-05-05T12:10:23Z</time>
      </trkpt>
      <trkpt lat="44.00754" lon="7.18611">
        <ele>959.200012207</ele>
        <time>2012-05-05T12:10:24Z</time>
      </trkpt>
      <trkpt lat="44.00753" lon="7.18602">
        <ele>959.200012207</ele>
        <time>2012-05-05T12:10:31Z</time>
      </trkpt>
      <trkpt lat="44.00754" lon="7.18594">
        <ele>960.200012207</ele>
        <time>2012-05-05T12:10:36Z</time>
      </trkpt>
      <trkpt lat="44.00754" lon="7.1859">
        <ele>960.200012207</ele>
        <time>2012-05-05T12:10:39Z</time>
      </trkpt>
      <trkpt lat="44.00756" lon="7.18584">
        <ele>961.200012207</ele>
        <time>2012-05-05T12:10:43Z</time>
      </trkpt>
      <trkpt lat="44.00758" lon="7.18576">
        <ele>962.400024414</ele>
        <time>2012-05-05T12:10:49Z</time>
      </trkpt>
      <trkpt lat="44.00761" lon="7.18567">
        <ele>963.400024414</ele>
        <time>2012-05-05T12:10:56Z</time>
      </trkpt>
      <trkpt lat="44.00763" lon="7.18563">
        <ele>963.400024414</ele>
        <time>2012-05-05T12:10:59Z</time>
      </trkpt>
      <trkpt lat="44.00764" lon="7.1856">
        <ele>964.400024414</ele>
        <time>2012-05-05T12:11:02Z</time>
      </trkpt>
      <trkpt lat="44.00765" lon="7.18557">
        <ele>964.400024414</ele>
        <time>2012-05-05T12:11:06Z</time>
      </trkpt>
      <trkpt lat="44.00765" lon="7.18557">
        <ele>965.400024414</ele>
        <time>2012-05-05T12:11:08Z</time>
      </trkpt>
      <trkpt lat="44.00766" lon="7.18555">
        <ele>965.400024414</ele>
        <time>2012-05-05T12:11:11Z</time>
      </trkpt>
      <trkpt lat="44.00767" lon="7.18547">
        <ele>966.400024414</ele>
        <time>2012-05-05T12:11:15Z</time>
      </trkpt>
      <trkpt lat="44.00768" lon="7.18538">
        <ele>967.599975586</ele>
        <time>2012-05-05T12:11:19Z</time>
      </trkpt>
      <trkpt lat="44.00769" lon="7.18534">
        <ele>967.599975586</ele>
        <time>2012-05-05T12:11:24Z</time>
      </trkpt>
      <trkpt lat="44.00769" lon="7.18533">
        <ele>968.599975586</ele>
        <time>2012-05-05T12:11:25Z</time>
      </trkpt>
      <trkpt lat="44.00771" lon="7.18527">
        <ele>969.599975586</ele>
        <time>2012-05-05T12:11:30Z</time>
      </trkpt>
      <trkpt lat="44.00771" lon="7.18524">
        <ele>969.599975586</ele>
        <time>2012-05-05T12:11:32Z</time>
      </trkpt>
      <trkpt lat="44.00768" lon="7.18517">
        <ele>970.599975586</ele>
        <time>2012-05-05T12:11:38Z</time>
      </trkpt>
      <trkpt lat="44.00768" lon="7.18515">
        <ele>970.599975586</ele>
        <time>2012-05-05T12:11:40Z</time>
      </trkpt>
      <trkpt lat="44.00768" lon="7.18514">
        <ele>970.599975586</ele>
        <time>2012-05-05T12:11:41Z</time>
      </trkpt>
      <trkpt lat="44.00769" lon="7.18511">
        <ele>971.799987793</ele>
        <time>2012-05-05T12:11:44Z</time>
      </trkpt>
      <trkpt lat="44.00768" lon="7.1851">
        <ele>971.799987793</ele>
        <time>2012-05-05T12:11:45Z</time>
      </trkpt>
      <trkpt lat="44.00768" lon="7.18508">
        <ele>971.799987793</ele>
        <time>2012-05-05T12:11:46Z</time>
      </trkpt>
      <trkpt lat="44.00769" lon="7.18506">
        <ele>972.799987793</ele>
        <time>2012-05-05T12:11:48Z</time>
      </trkpt>
      <trkpt lat="44.0077" lon="7.18501">
        <ele>973.799987793</ele>
        <time>2012-05-05T12:11:52Z</time>
      </trkpt>
      <trkpt lat="44.00771" lon="7.18498">
        <ele>973.799987793</ele>
        <time>2012-05-05T12:11:54Z</time>
      </trkpt>
      <trkpt lat="44.00774" lon="7.18491">
        <ele>975</ele>
        <time>2012-05-05T12:12:00Z</time>
      </trkpt>
      <trkpt lat="44.00775" lon="7.18489">
        <ele>975</ele>
        <time>2012-05-05T12:12:02Z</time>
      </trkpt>
      <trkpt lat="44.00776" lon="7.18488">
        <ele>975</ele>
        <time>2012-05-05T12:12:03Z</time>
      </trkpt>
      <trkpt lat="44.00777" lon="7.18486">
        <ele>975</ele>
        <time>2012-05-05T12:12:06Z</time>
      </trkpt>
      <trkpt lat="44.00778" lon="7.18483">
        <ele>976</ele>
        <time>2012-05-05T12:12:09Z</time>
      </trkpt>
      <trkpt lat="44.00778" lon="7.18482">
        <ele>976</ele>
        <time>2012-05-05T12:12:10Z</time>
      </trkpt>
      <trkpt lat="44.00782" lon="7.18476">
        <ele>976</ele>
        <time>2012-05-05T12:12:18Z</time>
      </trkpt>
      <trkpt lat="44.00784" lon="7.18472">
        <ele>977.200012207</ele>
        <time>2012-05-05T12:12:22Z</time>
      </trkpt>
      <trkpt lat="44.00786" lon="7.18469">
        <ele>977.200012207</ele>
        <time>2012-05-05T12:12:27Z</time>
      </trkpt>
      <trkpt lat="44.00788" lon="7.18465">
        <ele>978.200012207</ele>
        <time>2012-05-05T12:12:31Z</time>
      </trkpt>
      <trkpt lat="44.00789" lon="7.18462">
        <ele>978.200012207</ele>
        <time>2012-05-05T12:12:36Z</time>
      </trkpt>
      <trkpt lat="44.00789" lon="7.18462">
        <ele>979.200012207</ele>
        <time>2012-05-05T12:12:42Z</time>
      </trkpt>
      <trkpt lat="44.00791" lon="7.18458">
        <ele>979.200012207</ele>
        <time>2012-05-05T12:12:47Z</time>
      </trkpt>
      <trkpt lat="44.00792" lon="7.18457">
        <ele>980.200012207</ele>
        <time>2012-05-05T12:12:52Z</time>
      </trkpt>
      <trkpt lat="44.00793" lon="7.18454">
        <ele>980.200012207</ele>
        <time>2012-05-05T12:12:55Z</time>
      </trkpt>
      <trkpt lat="44.00793" lon="7.18454">
        <ele>981.200012207</ele>
        <time>2012-05-05T12:12:57Z</time>
      </trkpt>
      <trkpt lat="44.00795" lon="7.1845">
        <ele>981.200012207</ele>
        <time>2012-05-05T12:13:02Z</time>
      </trkpt>
      <trkpt lat="44.00796" lon="7.18448">
        <ele>982.400024414</ele>
        <time>2012-05-05T12:13:04Z</time>
      </trkpt>
      <trkpt lat="44.00798" lon="7.18444">
        <ele>982.400024414</ele>
        <time>2012-05-05T12:13:08Z</time>
      </trkpt>
      <trkpt lat="44.00799" lon="7.1844">
        <ele>983.400024414</ele>
        <time>2012-05-05T12:13:11Z</time>
      </trkpt>
      <trkpt lat="44.00801" lon="7.18435">
        <ele>984.599975586</ele>
        <time>2012-05-05T12:13:15Z</time>
      </trkpt>
      <trkpt lat="44.00801" lon="7.18434">
        <ele>984.599975586</ele>
        <time>2012-05-05T12:13:16Z</time>
      </trkpt>
      <trkpt lat="44.00804" lon="7.18428">
        <ele>985.599975586</ele>
        <time>2012-05-05T12:13:21Z</time>
      </trkpt>
      <trkpt lat="44.00806" lon="7.18425">
        <ele>985.599975586</ele>
        <time>2012-05-05T12:13:24Z</time>
      </trkpt>
      <trkpt lat="44.00807" lon="7.18425">
        <ele>986.599975586</ele>
        <time>2012-05-05T12:13:26Z</time>
      </trkpt>
      <trkpt lat="44.00807" lon="7.18424">
        <ele>986.599975586</ele>
        <time>2012-05-05T12:13:30Z</time>
      </trkpt>
      <trkpt lat="44.00807" lon="7.18423">
        <ele>986.599975586</ele>
        <time>2012-05-05T12:13:43Z</time>
      </trkpt>
      <trkpt lat="44.00807" lon="7.18423">
        <ele>986.599975586</ele>
        <time>2012-05-05T12:13:45Z</time>
      </trkpt>
      <trkpt lat="44.00808" lon="7.18421">
        <ele>986.599975586</ele>
        <time>2012-05-05T12:13:52Z</time>
      </trkpt>
      <trkpt lat="44.00807" lon="7.18421">
        <ele>986.599975586</ele>
        <time>2012-05-05T12:13:55Z</time>
      </trkpt>
      <trkpt lat="44.00808" lon="7.18419">
        <ele>983</ele>
        <time>2012-05-05T12:13:57Z</time>
      </trkpt>
      <trkpt lat="44.00808" lon="7.18418">
        <ele>983</ele>
        <time>2012-05-05T12:13:58Z</time>
      </trkpt>
      <trkpt lat="44.00809" lon="7.18415">
        <ele>983</ele>
        <time>2012-05-05T12:14:04Z</time>
      </trkpt>
      <trkpt lat="44.00809" lon="7.18416">
        <ele>983</ele>
        <time>2012-05-05T12:14:11Z</time>
      </trkpt>
      <trkpt lat="44.00809" lon="7.18416">
        <ele>982</ele>
        <time>2012-05-05T12:14:13Z</time>
      </trkpt>
      <trkpt lat="44.00809" lon="7.18415">
        <ele>987.599975586</ele>
        <time>2012-05-05T12:14:16Z</time>
      </trkpt>
      <trkpt lat="44.00809" lon="7.18415">
        <ele>994.799987793</ele>
        <time>2012-05-05T12:14:17Z</time>
      </trkpt>
      <trkpt lat="44.00809" lon="7.18415">
        <ele>983.200012207</ele>
        <time>2012-05-05T12:14:18Z</time>
      </trkpt>
      <trkpt lat="44.00809" lon="7.18415">
        <ele>981.799987793</ele>
        <time>2012-05-05T12:14:19Z</time>
      </trkpt>
      <trkpt lat="44.00809" lon="7.18415">
        <ele>981.799987793</ele>
        <time>2012-05-05T12:14:24Z</time>
      </trkpt>
      <trkpt lat="44.00809" lon="7.18415">
        <ele>984</ele>
        <time>2012-05-05T12:14:27Z</time>
      </trkpt>
      <trkpt lat="44.00809" lon="7.18416">
        <ele>984</ele>
        <time>2012-05-05T12:14:34Z</time>
      </trkpt>
      <trkpt lat="44.00809" lon="7.18416">
        <ele>985</ele>
        <time>2012-05-05T12:14:35Z</time>
      </trkpt>
      <trkpt lat="44.00809" lon="7.18415">
        <ele>985</ele>
        <time>2012-05-05T12:14:42Z</time>
      </trkpt>
      <trkpt lat="44.00809" lon="7.18416">
        <ele>985</ele>
        <time>2012-05-05T12:14:47Z</time>
      </trkpt>
      <trkpt lat="44.0081" lon="7.18413">
        <ele>985</ele>
        <time>2012-05-05T12:14:53Z</time>
      </trkpt>
      <trkpt lat="44.00812" lon="7.18409">
        <ele>985</ele>
        <time>2012-05-05T12:14:59Z</time>
      </trkpt>
      <trkpt lat="44.00812" lon="7.18409">
        <ele>986</ele>
        <time>2012-05-05T12:15:00Z</time>
      </trkpt>
      <trkpt lat="44.00812" lon="7.18406">
        <ele>986</ele>
        <time>2012-05-05T12:15:08Z</time>
      </trkpt>
      <trkpt lat="44.00812" lon="7.18404">
        <ele>987.200012207</ele>
        <time>2012-05-05T12:15:14Z</time>
      </trkpt>
      <trkpt lat="44.00813" lon="7.18402">
        <ele>987.200012207</ele>
        <time>2012-05-05T12:15:17Z</time>
      </trkpt>
      <trkpt lat="44.00812" lon="7.18396">
        <ele>987.200012207</ele>
        <time>2012-05-05T12:15:21Z</time>
      </trkpt>
      <trkpt lat="44.00807" lon="7.18395">
        <ele>987.200012207</ele>
        <time>2012-05-05T12:15:26Z</time>
      </trkpt>
      <trkpt lat="44.00805" lon="7.18396">
        <ele>987.200012207</ele>
        <time>2012-05-05T12:15:27Z</time>
      </trkpt>
      <trkpt lat="44.00798" lon="7.18398">
        <ele>987.200012207</ele>
        <time>2012-05-05T12:15:30Z</time>
      </trkpt>
      <trkpt lat="44.00793" lon="7.18398">
        <ele>987.200012207</ele>
        <time>2012-05-05T12:15:32Z</time>
      </trkpt>
      <trkpt lat="44.00784" lon="7.18397">
        <ele>987.200012207</ele>
        <time>2012-05-05T12:15:35Z</time>
      </trkpt>
      <trkpt lat="44.00773" lon="7.18395">
        <ele>987.200012207</ele>
        <time>2012-05-05T12:15:38Z</time>
      </trkpt>
      <trkpt lat="44.00756" lon="7.18388">
        <ele>987.200012207</ele>
        <time>2012-05-05T12:15:43Z</time>
      </trkpt>
      <trkpt lat="44.00738" lon="7.1838">
        <ele>987.200012207</ele>
        <time>2012-05-05T12:15:48Z</time>
      </trkpt>
      <trkpt lat="44.00735" lon="7.18375">
        <ele>987.200012207</ele>
        <time>2012-05-05T12:15:49Z</time>
      </trkpt>
      <trkpt lat="44.00732" lon="7.18363">
        <ele>987.200012207</ele>
        <time>2012-05-05T12:15:51Z</time>
      </trkpt>
      <trkpt lat="44.00726" lon="7.18346">
        <ele>987.200012207</ele>
        <time>2012-05-05T12:15:55Z</time>
      </trkpt>
      <trkpt lat="44.00719" lon="7.18343">
        <ele>987.200012207</ele>
        <time>2012-05-05T12:15:58Z</time>
      </trkpt>
      <trkpt lat="44.00713" lon="7.18344">
        <ele>987.200012207</ele>
        <time>2012-05-05T12:16:01Z</time>
      </trkpt>
      <trkpt lat="44.00704" lon="7.18344">
        <ele>987.200012207</ele>
        <time>2012-05-05T12:16:04Z</time>
      </trkpt>
      <trkpt lat="44.00696" lon="7.18347">
        <ele>987.200012207</ele>
        <time>2012-05-05T12:16:07Z</time>
      </trkpt>
      <trkpt lat="44.00686" lon="7.18349">
        <ele>985</ele>
        <time>2012-05-05T12:16:10Z</time>
      </trkpt>
      <trkpt lat="44.00673" lon="7.1835">
        <ele>983.799987793</ele>
        <time>2012-05-05T12:16:14Z</time>
      </trkpt>
      <trkpt lat="44.0067" lon="7.1835">
        <ele>981.599975586</ele>
        <time>2012-05-05T12:16:15Z</time>
      </trkpt>
      <trkpt lat="44.00658" lon="7.18344">
        <ele>981.599975586</ele>
        <time>2012-05-05T12:16:18Z</time>
      </trkpt>
      <trkpt lat="44.00649" lon="7.18336">
        <ele>980.200012207</ele>
        <time>2012-05-05T12:16:20Z</time>
      </trkpt>
      <trkpt lat="44.00646" lon="7.18331">
        <ele>979</ele>
        <time>2012-05-05T12:16:21Z</time>
      </trkpt>
      <trkpt lat="44.00638" lon="7.18321">
        <ele>979</ele>
        <time>2012-05-05T12:16:23Z</time>
      </trkpt>
      <trkpt lat="44.00634" lon="7.18315">
        <ele>977.799987793</ele>
        <time>2012-05-05T12:16:24Z</time>
      </trkpt>
      <trkpt lat="44.00629" lon="7.18309">
        <ele>976</ele>
        <time>2012-05-05T12:16:25Z</time>
      </trkpt>
      <trkpt lat="44.00621" lon="7.18298">
        <ele>973.200012207</ele>
        <time>2012-05-05T12:16:27Z</time>
      </trkpt>
      <trkpt lat="44.00618" lon="7.18293">
        <ele>972</ele>
        <time>2012-05-05T12:16:28Z</time>
      </trkpt>
      <trkpt lat="44.00615" lon="7.18287">
        <ele>976.599975586</ele>
        <time>2012-05-05T12:16:29Z</time>
      </trkpt>
      <trkpt lat="44.00613" lon="7.18282">
        <ele>976.599975586</ele>
        <time>2012-05-05T12:16:30Z</time>
      </trkpt>
      <trkpt lat="44.00608" lon="7.18264">
        <ele>976.599975586</ele>
        <time>2012-05-05T12:16:33Z</time>
      </trkpt>
      <trkpt lat="44.00608" lon="7.1826">
        <ele>976.599975586</ele>
        <time>2012-05-05T12:16:34Z</time>
      </trkpt>
      <trkpt lat="44.00606" lon="7.18256">
        <ele>976.599975586</ele>
        <time>2012-05-05T12:16:35Z</time>
      </trkpt>
      <trkpt lat="44.006" lon="7.18246">
        <ele>976.599975586</ele>
        <time>2012-05-05T12:16:38Z</time>
      </trkpt>
      <trkpt lat="44.00598" lon="7.18242">
        <ele>973</ele>
        <time>2012-05-05T12:16:39Z</time>
      </trkpt>
      <trkpt lat="44.00591" lon="7.18226">
        <ele>971.799987793</ele>
        <time>2012-05-05T12:16:43Z</time>
      </trkpt>
      <trkpt lat="44.0059" lon="7.18221">
        <ele>970.599975586</ele>
        <time>2012-05-05T12:16:44Z</time>
      </trkpt>
      <trkpt lat="44.00589" lon="7.18216">
        <ele>968</ele>
        <time>2012-05-05T12:16:45Z</time>
      </trkpt>
      <trkpt lat="44.0059" lon="7.18206">
        <ele>968</ele>
        <time>2012-05-05T12:16:47Z</time>
      </trkpt>
      <trkpt lat="44.00591" lon="7.18201">
        <ele>966.599975586</ele>
        <time>2012-05-05T12:16:48Z</time>
      </trkpt>
      <trkpt lat="44.00592" lon="7.18195">
        <ele>964.400024414</ele>
        <time>2012-05-05T12:16:49Z</time>
      </trkpt>
      <trkpt lat="44.00597" lon="7.18177">
        <ele>963.200012207</ele>
        <time>2012-05-05T12:16:52Z</time>
      </trkpt>
      <trkpt lat="44.00599" lon="7.18162">
        <ele>963.200012207</ele>
        <time>2012-05-05T12:16:54Z</time>
      </trkpt>
      <trkpt lat="44.006" lon="7.18154">
        <ele>960.799987793</ele>
        <time>2012-05-05T12:16:55Z</time>
      </trkpt>
      <trkpt lat="44.00602" lon="7.18147">
        <ele>958.599975586</ele>
        <time>2012-05-05T12:16:56Z</time>
      </trkpt>
      <trkpt lat="44.00604" lon="7.1814">
        <ele>957.400024414</ele>
        <time>2012-05-05T12:16:57Z</time>
      </trkpt>
      <trkpt lat="44.00607" lon="7.18134">
        <ele>952.400024414</ele>
        <time>2012-05-05T12:16:58Z</time>
      </trkpt>
      <trkpt lat="44.00609" lon="7.18127">
        <ele>951.400024414</ele>
        <time>2012-05-05T12:16:59Z</time>
      </trkpt>
      <trkpt lat="44.00611" lon="7.18121">
        <ele>957</ele>
        <time>2012-05-05T12:17:00Z</time>
      </trkpt>
      <trkpt lat="44.00612" lon="7.18114">
        <ele>958.200012207</ele>
        <time>2012-05-05T12:17:01Z</time>
      </trkpt>
      <trkpt lat="44.00609" lon="7.18102">
        <ele>958.200012207</ele>
        <time>2012-05-05T12:17:03Z</time>
      </trkpt>
      <trkpt lat="44.00607" lon="7.18095">
        <ele>958.200012207</ele>
        <time>2012-05-05T12:17:05Z</time>
      </trkpt>
      <trkpt lat="44.00607" lon="7.18092">
        <ele>958.200012207</ele>
        <time>2012-05-05T12:17:06Z</time>
      </trkpt>
      <trkpt lat="44.00607" lon="7.18089">
        <ele>958.200012207</ele>
        <time>2012-05-05T12:17:09Z</time>
      </trkpt>
      <trkpt lat="44.00607" lon="7.18088">
        <ele>958.200012207</ele>
        <time>2012-05-05T12:17:10Z</time>
      </trkpt>
      <trkpt lat="44.00605" lon="7.18081">
        <ele>958.200012207</ele>
        <time>2012-05-05T12:17:15Z</time>
      </trkpt>
      <trkpt lat="44.00604" lon="7.18077">
        <ele>958.200012207</ele>
        <time>2012-05-05T12:17:19Z</time>
      </trkpt>
      <trkpt lat="44.00602" lon="7.18077">
        <ele>958.200012207</ele>
        <time>2012-05-05T12:17:32Z</time>
      </trkpt>
      <trkpt lat="44.00594" lon="7.18074">
        <ele>958.200012207</ele>
        <time>2012-05-05T12:17:36Z</time>
      </trkpt>
      <trkpt lat="44.00591" lon="7.18072">
        <ele>955</ele>
        <time>2012-05-05T12:17:37Z</time>
      </trkpt>
      <trkpt lat="44.00584" lon="7.18069">
        <ele>953.799987793</ele>
        <time>2012-05-05T12:17:39Z</time>
      </trkpt>
      <trkpt lat="44.00578" lon="7.18062">
        <ele>953.799987793</ele>
        <time>2012-05-05T12:17:41Z</time>
      </trkpt>
      <trkpt lat="44.00567" lon="7.18051">
        <ele>953.799987793</ele>
        <time>2012-05-05T12:17:45Z</time>
      </trkpt>
      <trkpt lat="44.00545" lon="7.18045">
        <ele>953.799987793</ele>
        <time>2012-05-05T12:17:51Z</time>
      </trkpt>
      <trkpt lat="44.00539" lon="7.1804">
        <ele>953.799987793</ele>
        <time>2012-05-05T12:17:53Z</time>
      </trkpt>
      <trkpt lat="44.00536" lon="7.1803">
        <ele>953.799987793</ele>
        <time>2012-05-05T12:17:55Z</time>
      </trkpt>
      <trkpt lat="44.00541" lon="7.18011">
        <ele>953.799987793</ele>
        <time>2012-05-05T12:17:58Z</time>
      </trkpt>
      <trkpt lat="44.00548" lon="7.17998">
        <ele>953.799987793</ele>
        <time>2012-05-05T12:18:01Z</time>
      </trkpt>
      <trkpt lat="44.0055" lon="7.17993">
        <ele>953.799987793</ele>
        <time>2012-05-05T12:18:02Z</time>
      </trkpt>
      <trkpt lat="44.00551" lon="7.1798">
        <ele>953.799987793</ele>
        <time>2012-05-05T12:18:05Z</time>
      </trkpt>
      <trkpt lat="44.00549" lon="7.17977">
        <ele>953.799987793</ele>
        <time>2012-05-05T12:18:06Z</time>
      </trkpt>
      <trkpt lat="44.00543" lon="7.17971">
        <ele>952.599975586</ele>
        <time>2012-05-05T12:18:08Z</time>
      </trkpt>
      <trkpt lat="44.00537" lon="7.17965">
        <ele>952.599975586</ele>
        <time>2012-05-05T12:18:10Z</time>
      </trkpt>
      <trkpt lat="44.00529" lon="7.1795">
        <ele>952.599975586</ele>
        <time>2012-05-05T12:18:14Z</time>
      </trkpt>
      <trkpt lat="44.00521" lon="7.17916">
        <ele>952.599975586</ele>
        <time>2012-05-05T12:18:20Z</time>
      </trkpt>
      <trkpt lat="44.00519" lon="7.17912">
        <ele>951.400024414</ele>
        <time>2012-05-05T12:18:21Z</time>
      </trkpt>
      <trkpt lat="44.0051" lon="7.17898">
        <ele>951.400024414</ele>
        <time>2012-05-05T12:18:25Z</time>
      </trkpt>
      <trkpt lat="44.00503" lon="7.1788">
        <ele>951.400024414</ele>
        <time>2012-05-05T12:18:29Z</time>
      </trkpt>
      <trkpt lat="44.00503" lon="7.17874">
        <ele>950.200012207</ele>
        <time>2012-05-05T12:18:30Z</time>
      </trkpt>
      <trkpt lat="44.00507" lon="7.17862">
        <ele>950.200012207</ele>
        <time>2012-05-05T12:18:32Z</time>
      </trkpt>
      <trkpt lat="44.0051" lon="7.17857">
        <ele>948.799987793</ele>
        <time>2012-05-05T12:18:33Z</time>
      </trkpt>
      <trkpt lat="44.00512" lon="7.17845">
        <ele>948.799987793</ele>
        <time>2012-05-05T12:18:36Z</time>
      </trkpt>
      <trkpt lat="44.00505" lon="7.17839">
        <ele>948.799987793</ele>
        <time>2012-05-05T12:18:39Z</time>
      </trkpt>
      <trkpt lat="44.005" lon="7.17836">
        <ele>948.799987793</ele>
        <time>2012-05-05T12:18:41Z</time>
      </trkpt>
      <trkpt lat="44.0049" lon="7.17831">
        <ele>948.799987793</ele>
        <time>2012-05-05T12:18:44Z</time>
      </trkpt>
      <trkpt lat="44.00487" lon="7.1783">
        <ele>952</ele>
        <time>2012-05-05T12:18:45Z</time>
      </trkpt>
      <trkpt lat="44.00473" lon="7.17823">
        <ele>952</ele>
        <time>2012-05-05T12:18:50Z</time>
      </trkpt>
      <trkpt lat="44.00469" lon="7.17815">
        <ele>952</ele>
        <time>2012-05-05T12:18:53Z</time>
      </trkpt>
      <trkpt lat="44.00468" lon="7.17811">
        <ele>952</ele>
        <time>2012-05-05T12:18:54Z</time>
      </trkpt>
      <trkpt lat="44.00467" lon="7.17787">
        <ele>952</ele>
        <time>2012-05-05T12:18:58Z</time>
      </trkpt>
      <trkpt lat="44.00466" lon="7.1778">
        <ele>948.799987793</ele>
        <time>2012-05-05T12:18:59Z</time>
      </trkpt>
      <trkpt lat="44.00466" lon="7.17772">
        <ele>947.400024414</ele>
        <time>2012-05-05T12:19:00Z</time>
      </trkpt>
      <trkpt lat="44.00467" lon="7.17766">
        <ele>947.400024414</ele>
        <time>2012-05-05T12:19:01Z</time>
      </trkpt>
      <trkpt lat="44.0047" lon="7.1776">
        <ele>947.400024414</ele>
        <time>2012-05-05T12:19:02Z</time>
      </trkpt>
      <trkpt lat="44.00475" lon="7.17738">
        <ele>947.400024414</ele>
        <time>2012-05-05T12:19:06Z</time>
      </trkpt>
      <trkpt lat="44.00475" lon="7.1773">
        <ele>942.599975586</ele>
        <time>2012-05-05T12:19:07Z</time>
      </trkpt>
      <trkpt lat="44.00475" lon="7.17724">
        <ele>946.799987793</ele>
        <time>2012-05-05T12:19:08Z</time>
      </trkpt>
      <trkpt lat="44.00475" lon="7.17718">
        <ele>946.799987793</ele>
        <time>2012-05-05T12:19:09Z</time>
      </trkpt>
      <trkpt lat="44.00475" lon="7.17711">
        <ele>947.799987793</ele>
        <time>2012-05-05T12:19:10Z</time>
      </trkpt>
      <trkpt lat="44.00476" lon="7.17705">
        <ele>942</ele>
        <time>2012-05-05T12:19:11Z</time>
      </trkpt>
      <trkpt lat="44.00477" lon="7.17699">
        <ele>948</ele>
        <time>2012-05-05T12:19:12Z</time>
      </trkpt>
      <trkpt lat="44.00478" lon="7.17685">
        <ele>944.599975586</ele>
        <time>2012-05-05T12:19:14Z</time>
      </trkpt>
      <trkpt lat="44.00477" lon="7.17677">
        <ele>943</ele>
        <time>2012-05-05T12:19:15Z</time>
      </trkpt>
      <trkpt lat="44.00475" lon="7.1767">
        <ele>943</ele>
        <time>2012-05-05T12:19:16Z</time>
      </trkpt>
      <trkpt lat="44.00469" lon="7.17649">
        <ele>941.799987793</ele>
        <time>2012-05-05T12:19:19Z</time>
      </trkpt>
      <trkpt lat="44.0047" lon="7.17642">
        <ele>940.799987793</ele>
        <time>2012-05-05T12:19:20Z</time>
      </trkpt>
      <trkpt lat="44.00471" lon="7.17637">
        <ele>940.799987793</ele>
        <time>2012-05-05T12:19:21Z</time>
      </trkpt>
      <trkpt lat="44.00472" lon="7.17633">
        <ele>940.799987793</ele>
        <time>2012-05-05T12:19:22Z</time>
      </trkpt>
      <trkpt lat="44.00474" lon="7.17629">
        <ele>938</ele>
        <time>2012-05-05T12:19:23Z</time>
      </trkpt>
      <trkpt lat="44.00474" lon="7.17625">
        <ele>938</ele>
        <time>2012-05-05T12:19:24Z</time>
      </trkpt>
      <trkpt lat="44.00475" lon="7.17622">
        <ele>935</ele>
        <time>2012-05-05T12:19:25Z</time>
      </trkpt>
      <trkpt lat="44.00478" lon="7.17614">
        <ele>938.200012207</ele>
        <time>2012-05-05T12:19:27Z</time>
      </trkpt>
      <trkpt lat="44.00482" lon="7.1761">
        <ele>938.200012207</ele>
        <time>2012-05-05T12:19:29Z</time>
      </trkpt>
      <trkpt lat="44.00482" lon="7.17602">
        <ele>938.200012207</ele>
        <time>2012-05-05T12:19:33Z</time>
      </trkpt>
      <trkpt lat="44.00479" lon="7.17598">
        <ele>938.200012207</ele>
        <time>2012-05-05T12:19:39Z</time>
      </trkpt>
      <trkpt lat="44.00479" lon="7.17596">
        <ele>938.200012207</ele>
        <time>2012-05-05T12:19:49Z</time>
      </trkpt>
      <trkpt lat="44.00478" lon="7.17594">
        <ele>938.200012207</ele>
        <time>2012-05-05T12:19:55Z</time>
      </trkpt>
      <trkpt lat="44.00478" lon="7.17594">
        <ele>938.200012207</ele>
        <time>2012-05-05T12:19:57Z</time>
      </trkpt>
      <trkpt lat="44.00473" lon="7.17592">
        <ele>938.200012207</ele>
        <time>2012-05-05T12:20:01Z</time>
      </trkpt>
      <trkpt lat="44.00461" lon="7.17592">
        <ele>938.200012207</ele>
        <time>2012-05-05T12:20:05Z</time>
      </trkpt>
      <trkpt lat="44.00458" lon="7.1759">
        <ele>934.400024414</ele>
        <time>2012-05-05T12:20:06Z</time>
      </trkpt>
      <trkpt lat="44.00453" lon="7.17587">
        <ele>934.400024414</ele>
        <time>2012-05-05T12:20:08Z</time>
      </trkpt>
      <trkpt lat="44.00443" lon="7.17589">
        <ele>934.400024414</ele>
        <time>2012-05-05T12:20:12Z</time>
      </trkpt>
      <trkpt lat="44.00439" lon="7.1759">
        <ele>934.400024414</ele>
        <time>2012-05-05T12:20:13Z</time>
      </trkpt>
      <trkpt lat="44.00425" lon="7.17592">
        <ele>934.400024414</ele>
        <time>2012-05-05T12:20:17Z</time>
      </trkpt>
      <trkpt lat="44.00409" lon="7.17588">
        <ele>934.400024414</ele>
        <time>2012-05-05T12:20:21Z</time>
      </trkpt>
      <trkpt lat="44.00395" lon="7.17583">
        <ele>934.400024414</ele>
        <time>2012-05-05T12:20:24Z</time>
      </trkpt>
      <trkpt lat="44.00381" lon="7.17571">
        <ele>934.400024414</ele>
        <time>2012-05-05T12:20:28Z</time>
      </trkpt>
      <trkpt lat="44.00378" lon="7.17568">
        <ele>932.400024414</ele>
        <time>2012-05-05T12:20:29Z</time>
      </trkpt>
      <trkpt lat="44.00367" lon="7.17561">
        <ele>932.400024414</ele>
        <time>2012-05-05T12:20:32Z</time>
      </trkpt>
      <trkpt lat="44.00363" lon="7.17559">
        <ele>931</ele>
        <time>2012-05-05T12:20:33Z</time>
      </trkpt>
      <trkpt lat="44.00349" lon="7.17555">
        <ele>929.599975586</ele>
        <time>2012-05-05T12:20:36Z</time>
      </trkpt>
      <trkpt lat="44.00344" lon="7.17553">
        <ele>929.599975586</ele>
        <time>2012-05-05T12:20:37Z</time>
      </trkpt>
      <trkpt lat="44.0034" lon="7.17549">
        <ele>928.200012207</ele>
        <time>2012-05-05T12:20:38Z</time>
      </trkpt>
      <trkpt lat="44.00335" lon="7.17538">
        <ele>926.599975586</ele>
        <time>2012-05-05T12:20:40Z</time>
      </trkpt>
      <trkpt lat="44.00336" lon="7.17524">
        <ele>925.200012207</ele>
        <time>2012-05-05T12:20:42Z</time>
      </trkpt>
      <trkpt lat="44.00338" lon="7.17517">
        <ele>925.200012207</ele>
        <time>2012-05-05T12:20:43Z</time>
      </trkpt>
      <trkpt lat="44.0034" lon="7.17509">
        <ele>923.599975586</ele>
        <time>2012-05-05T12:20:44Z</time>
      </trkpt>
      <trkpt lat="44.00343" lon="7.17493">
        <ele>922.400024414</ele>
        <time>2012-05-05T12:20:46Z</time>
      </trkpt>
      <trkpt lat="44.00342" lon="7.17484">
        <ele>922.400024414</ele>
        <time>2012-05-05T12:20:47Z</time>
      </trkpt>
      <trkpt lat="44.00335" lon="7.17473">
        <ele>921</ele>
        <time>2012-05-05T12:20:49Z</time>
      </trkpt>
      <trkpt lat="44.00332" lon="7.17457">
        <ele>919.799987793</ele>
        <time>2012-05-05T12:20:52Z</time>
      </trkpt>
      <trkpt lat="44.00334" lon="7.17452">
        <ele>919.799987793</ele>
        <time>2012-05-05T12:20:53Z</time>
      </trkpt>
      <trkpt lat="44.00337" lon="7.17447">
        <ele>918.599975586</ele>
        <time>2012-05-05T12:20:54Z</time>
      </trkpt>
      <trkpt lat="44.00341" lon="7.17442">
        <ele>918.599975586</ele>
        <time>2012-05-05T12:20:55Z</time>
      </trkpt>
      <trkpt lat="44.00344" lon="7.17437">
        <ele>917.599975586</ele>
        <time>2012-05-05T12:20:56Z</time>
      </trkpt>
      <trkpt lat="44.00344" lon="7.17432">
        <ele>917.599975586</ele>
        <time>2012-05-05T12:20:57Z</time>
      </trkpt>
      <trkpt lat="44.00343" lon="7.17427">
        <ele>916.200012207</ele>
        <time>2012-05-05T12:20:58Z</time>
      </trkpt>
      <trkpt lat="44.0034" lon="7.17415">
        <ele>915.200012207</ele>
        <time>2012-05-05T12:21:00Z</time>
      </trkpt>
      <trkpt lat="44.00343" lon="7.17404">
        <ele>915.200012207</ele>
        <time>2012-05-05T12:21:02Z</time>
      </trkpt>
      <trkpt lat="44.00345" lon="7.17392">
        <ele>915.200012207</ele>
        <time>2012-05-05T12:21:05Z</time>
      </trkpt>
      <trkpt lat="44.00342" lon="7.17388">
        <ele>915.200012207</ele>
        <time>2012-05-05T12:21:07Z</time>
      </trkpt>
      <trkpt lat="44.00339" lon="7.17387">
        <ele>915.200012207</ele>
        <time>2012-05-05T12:21:08Z</time>
      </trkpt>
      <trkpt lat="44.00337" lon="7.17384">
        <ele>915.200012207</ele>
        <time>2012-05-05T12:21:09Z</time>
      </trkpt>
      <trkpt lat="44.00328" lon="7.17375">
        <ele>915.200012207</ele>
        <time>2012-05-05T12:21:12Z</time>
      </trkpt>
      <trkpt lat="44.00317" lon="7.1737">
        <ele>915.200012207</ele>
        <time>2012-05-05T12:21:15Z</time>
      </trkpt>
      <trkpt lat="44.00313" lon="7.17371">
        <ele>915.200012207</ele>
        <time>2012-05-05T12:21:16Z</time>
      </trkpt>
      <trkpt lat="44.00296" lon="7.17373">
        <ele>915.200012207</ele>
        <time>2012-05-05T12:21:20Z</time>
      </trkpt>
      <trkpt lat="44.00293" lon="7.17375">
        <ele>915.200012207</ele>
        <time>2012-05-05T12:21:21Z</time>
      </trkpt>
      <trkpt lat="44.00273" lon="7.17381">
        <ele>915.200012207</ele>
        <time>2012-05-05T12:21:25Z</time>
      </trkpt>
      <trkpt lat="44.00257" lon="7.17383">
        <ele>915.200012207</ele>
        <time>2012-05-05T12:21:28Z</time>
      </trkpt>
      <trkpt lat="44.00252" lon="7.17384">
        <ele>914.200012207</ele>
        <time>2012-05-05T12:21:29Z</time>
      </trkpt>
      <trkpt lat="44.00243" lon="7.17384">
        <ele>914.200012207</ele>
        <time>2012-05-05T12:21:31Z</time>
      </trkpt>
      <trkpt lat="44.00238" lon="7.17384">
        <ele>913</ele>
        <time>2012-05-05T12:21:32Z</time>
      </trkpt>
      <trkpt lat="44.00233" lon="7.17384">
        <ele>912</ele>
        <time>2012-05-05T12:21:33Z</time>
      </trkpt>
      <trkpt lat="44.00227" lon="7.17383">
        <ele>910.799987793</ele>
        <time>2012-05-05T12:21:34Z</time>
      </trkpt>
      <trkpt lat="44.00222" lon="7.1738">
        <ele>909.599975586</ele>
        <time>2012-05-05T12:21:35Z</time>
      </trkpt>
      <trkpt lat="44.00216" lon="7.17373">
        <ele>908</ele>
        <time>2012-05-05T12:21:37Z</time>
      </trkpt>
      <trkpt lat="44.00215" lon="7.17368">
        <ele>907</ele>
        <time>2012-05-05T12:21:38Z</time>
      </trkpt>
      <trkpt lat="44.00215" lon="7.17362">
        <ele>905.799987793</ele>
        <time>2012-05-05T12:21:39Z</time>
      </trkpt>
      <trkpt lat="44.00214" lon="7.1735">
        <ele>904.799987793</ele>
        <time>2012-05-05T12:21:41Z</time>
      </trkpt>
      <trkpt lat="44.00213" lon="7.17343">
        <ele>903.200012207</ele>
        <time>2012-05-05T12:21:42Z</time>
      </trkpt>
      <trkpt lat="44.00212" lon="7.17329">
        <ele>902.200012207</ele>
        <time>2012-05-05T12:21:44Z</time>
      </trkpt>
      <trkpt lat="44.0021" lon="7.17317">
        <ele>901</ele>
        <time>2012-05-05T12:21:46Z</time>
      </trkpt>
      <trkpt lat="44.00208" lon="7.17311">
        <ele>901</ele>
        <time>2012-05-05T12:21:47Z</time>
      </trkpt>
      <trkpt lat="44.00205" lon="7.17307">
        <ele>900</ele>
        <time>2012-05-05T12:21:48Z</time>
      </trkpt>
      <trkpt lat="44.00203" lon="7.17302">
        <ele>900</ele>
        <time>2012-05-05T12:21:49Z</time>
      </trkpt>
      <trkpt lat="44.00199" lon="7.17291">
        <ele>898.400024414</ele>
        <time>2012-05-05T12:21:51Z</time>
      </trkpt>
      <trkpt lat="44.00197" lon="7.17285">
        <ele>898.400024414</ele>
        <time>2012-05-05T12:21:52Z</time>
      </trkpt>
      <trkpt lat="44.00196" lon="7.17278">
        <ele>897</ele>
        <time>2012-05-05T12:21:53Z</time>
      </trkpt>
      <trkpt lat="44.00196" lon="7.17264">
        <ele>897</ele>
        <time>2012-05-05T12:21:55Z</time>
      </trkpt>
      <trkpt lat="44.00196" lon="7.17258">
        <ele>896</ele>
        <time>2012-05-05T12:21:56Z</time>
      </trkpt>
      <trkpt lat="44.00198" lon="7.17243">
        <ele>894.799987793</ele>
        <time>2012-05-05T12:21:58Z</time>
      </trkpt>
      <trkpt lat="44.00198" lon="7.17235">
        <ele>894.799987793</ele>
        <time>2012-05-05T12:21:59Z</time>
      </trkpt>
      <trkpt lat="44.00201" lon="7.17222">
        <ele>894.799987793</ele>
        <time>2012-05-05T12:22:01Z</time>
      </trkpt>
      <trkpt lat="44.00203" lon="7.17216">
        <ele>893.599975586</ele>
        <time>2012-05-05T12:22:02Z</time>
      </trkpt>
      <trkpt lat="44.00207" lon="7.17209">
        <ele>893.599975586</ele>
        <time>2012-05-05T12:22:04Z</time>
      </trkpt>
      <trkpt lat="44.00208" lon="7.17206">
        <ele>893.599975586</ele>
        <time>2012-05-05T12:22:05Z</time>
      </trkpt>
      <trkpt lat="44.00211" lon="7.172">
        <ele>893.599975586</ele>
        <time>2012-05-05T12:22:07Z</time>
      </trkpt>
      <trkpt lat="44.00213" lon="7.17197">
        <ele>892.400024414</ele>
        <time>2012-05-05T12:22:08Z</time>
      </trkpt>
      <trkpt lat="44.00214" lon="7.17192">
        <ele>892.400024414</ele>
        <time>2012-05-05T12:22:10Z</time>
      </trkpt>
      <trkpt lat="44.00214" lon="7.17189">
        <ele>891.400024414</ele>
        <time>2012-05-05T12:22:11Z</time>
      </trkpt>
      <trkpt lat="44.00218" lon="7.17179">
        <ele>891.400024414</ele>
        <time>2012-05-05T12:22:15Z</time>
      </trkpt>
      <trkpt lat="44.00218" lon="7.17178">
        <ele>891.400024414</ele>
        <time>2012-05-05T12:22:16Z</time>
      </trkpt>
      <trkpt lat="44.00222" lon="7.17164">
        <ele>891.400024414</ele>
        <time>2012-05-05T12:22:22Z</time>
      </trkpt>
      <trkpt lat="44.00221" lon="7.1716">
        <ele>891.400024414</ele>
        <time>2012-05-05T12:22:23Z</time>
      </trkpt>
      <trkpt lat="44.00217" lon="7.17155">
        <ele>891.400024414</ele>
        <time>2012-05-05T12:22:25Z</time>
      </trkpt>
      <trkpt lat="44.00201" lon="7.1714">
        <ele>891.400024414</ele>
        <time>2012-05-05T12:22:30Z</time>
      </trkpt>
      <trkpt lat="44.00181" lon="7.17129">
        <ele>893.599975586</ele>
        <time>2012-05-05T12:22:35Z</time>
      </trkpt>
      <trkpt lat="44.00177" lon="7.17128">
        <ele>893.599975586</ele>
        <time>2012-05-05T12:22:36Z</time>
      </trkpt>
      <trkpt lat="44.00158" lon="7.1712">
        <ele>893.599975586</ele>
        <time>2012-05-05T12:22:41Z</time>
      </trkpt>
      <trkpt lat="44.00155" lon="7.1712">
        <ele>893.599975586</ele>
        <time>2012-05-05T12:22:42Z</time>
      </trkpt>
      <trkpt lat="44.00137" lon="7.17126">
        <ele>893.599975586</ele>
        <time>2012-05-05T12:22:46Z</time>
      </trkpt>
      <trkpt lat="44.00126" lon="7.17129">
        <ele>894.599975586</ele>
        <time>2012-05-05T12:22:48Z</time>
      </trkpt>
      <trkpt lat="44.00121" lon="7.17131">
        <ele>891</ele>
        <time>2012-05-05T12:22:49Z</time>
      </trkpt>
      <trkpt lat="44.00115" lon="7.17132">
        <ele>889.200012207</ele>
        <time>2012-05-05T12:22:50Z</time>
      </trkpt>
      <trkpt lat="44.0011" lon="7.17133">
        <ele>889.200012207</ele>
        <time>2012-05-05T12:22:51Z</time>
      </trkpt>
      <trkpt lat="44.00104" lon="7.17132">
        <ele>889.200012207</ele>
        <time>2012-05-05T12:22:52Z</time>
      </trkpt>
      <trkpt lat="44.00094" lon="7.1713">
        <ele>888.200012207</ele>
        <time>2012-05-05T12:22:54Z</time>
      </trkpt>
      <trkpt lat="44.00088" lon="7.17129">
        <ele>888.200012207</ele>
        <time>2012-05-05T12:22:55Z</time>
      </trkpt>
      <trkpt lat="44.00084" lon="7.17128">
        <ele>888.200012207</ele>
        <time>2012-05-05T12:22:56Z</time>
      </trkpt>
      <trkpt lat="44.00079" lon="7.17126">
        <ele>887</ele>
        <time>2012-05-05T12:22:57Z</time>
      </trkpt>
      <trkpt lat="44.00074" lon="7.17121">
        <ele>887</ele>
        <time>2012-05-05T12:22:59Z</time>
      </trkpt>
      <trkpt lat="44.00073" lon="7.17116">
        <ele>887</ele>
        <time>2012-05-05T12:23:02Z</time>
      </trkpt>
      <trkpt lat="44.00074" lon="7.17116">
        <ele>887</ele>
        <time>2012-05-05T12:23:07Z</time>
      </trkpt>
      <trkpt lat="44.00074" lon="7.17116">
        <ele>887</ele>
        <time>2012-05-05T12:23:08Z</time>
      </trkpt>
      <trkpt lat="44.00074" lon="7.17117">
        <ele>887</ele>
        <time>2012-05-05T12:23:09Z</time>
      </trkpt>
      <trkpt lat="44.00074" lon="7.1712">
        <ele>887</ele>
        <time>2012-05-05T12:23:12Z</time>
      </trkpt>
      <trkpt lat="44.00077" lon="7.17125">
        <ele>887</ele>
        <time>2012-05-05T12:23:16Z</time>
      </trkpt>
      <trkpt lat="44.00078" lon="7.17126">
        <ele>887</ele>
        <time>2012-05-05T12:23:17Z</time>
      </trkpt>
      <trkpt lat="44.00079" lon="7.17126">
        <ele>887</ele>
        <time>2012-05-05T12:23:23Z</time>
      </trkpt>
      <trkpt lat="44.00078" lon="7.17126">
        <ele>887</ele>
        <time>2012-05-05T12:23:27Z</time>
      </trkpt>
      <trkpt lat="44.00079" lon="7.17125">
        <ele>887</ele>
        <time>2012-05-05T12:23:30Z</time>
      </trkpt>
      <trkpt lat="44.00079" lon="7.17126">
        <ele>886</ele>
        <time>2012-05-05T12:23:34Z</time>
      </trkpt>
      <trkpt lat="44.00079" lon="7.17126">
        <ele>886</ele>
        <time>2012-05-05T12:23:36Z</time>
      </trkpt>
      <trkpt lat="44.00077" lon="7.17127">
        <ele>886</ele>
        <time>2012-05-05T12:23:40Z</time>
      </trkpt>
      <trkpt lat="44.00075" lon="7.17125">
        <ele>886</ele>
        <time>2012-05-05T12:23:42Z</time>
      </trkpt>
      <trkpt lat="44.00074" lon="7.17122">
        <ele>889</ele>
        <time>2012-05-05T12:23:44Z</time>
      </trkpt>
      <trkpt lat="44.00073" lon="7.17118">
        <ele>889</ele>
        <time>2012-05-05T12:23:47Z</time>
      </trkpt>
      <trkpt lat="44.00073" lon="7.17117">
        <ele>889</ele>
        <time>2012-05-05T12:23:52Z</time>
      </trkpt>
      <trkpt lat="44.00073" lon="7.17116">
        <ele>889</ele>
        <time>2012-05-05T12:23:56Z</time>
      </trkpt>
      <trkpt lat="44.00073" lon="7.17112">
        <ele>889</ele>
        <time>2012-05-05T12:24:01Z</time>
      </trkpt>
      <trkpt lat="44.00079" lon="7.17097">
        <ele>889</ele>
        <time>2012-05-05T12:24:05Z</time>
      </trkpt>
      <trkpt lat="44.00081" lon="7.17094">
        <ele>886</ele>
        <time>2012-05-05T12:24:06Z</time>
      </trkpt>
      <trkpt lat="44.00083" lon="7.17088">
        <ele>883.799987793</ele>
        <time>2012-05-05T12:24:07Z</time>
      </trkpt>
      <trkpt lat="44.00086" lon="7.17084">
        <ele>882.599975586</ele>
        <time>2012-05-05T12:24:08Z</time>
      </trkpt>
      <trkpt lat="44.0009" lon="7.1707">
        <ele>882.599975586</ele>
        <time>2012-05-05T12:24:10Z</time>
      </trkpt>
      <trkpt lat="44.00089" lon="7.17064">
        <ele>882.599975586</ele>
        <time>2012-05-05T12:24:11Z</time>
      </trkpt>
      <trkpt lat="44.00087" lon="7.17051">
        <ele>878.400024414</ele>
        <time>2012-05-05T12:24:13Z</time>
      </trkpt>
      <trkpt lat="44.00086" lon="7.17045">
        <ele>877</ele>
        <time>2012-05-05T12:24:14Z</time>
      </trkpt>
      <trkpt lat="44.00085" lon="7.17027">
        <ele>877</ele>
        <time>2012-05-05T12:24:17Z</time>
      </trkpt>
      <trkpt lat="44.00089" lon="7.17018">
        <ele>873.400024414</ele>
        <time>2012-05-05T12:24:19Z</time>
      </trkpt>
      <trkpt lat="44.00092" lon="7.17013">
        <ele>870.599975586</ele>
        <time>2012-05-05T12:24:20Z</time>
      </trkpt>
      <trkpt lat="44.00094" lon="7.17008">
        <ele>871.400024414</ele>
        <time>2012-05-05T12:24:21Z</time>
      </trkpt>
      <trkpt lat="44.00102" lon="7.16984">
        <ele>871.400024414</ele>
        <time>2012-05-05T12:24:25Z</time>
      </trkpt>
      <trkpt lat="44.00114" lon="7.16974">
        <ele>869</ele>
        <time>2012-05-05T12:24:29Z</time>
      </trkpt>
      <trkpt lat="44.0012" lon="7.16958">
        <ele>868</ele>
        <time>2012-05-05T12:24:32Z</time>
      </trkpt>
      <trkpt lat="44.00123" lon="7.16953">
        <ele>868</ele>
        <time>2012-05-05T12:24:33Z</time>
      </trkpt>
      <trkpt lat="44.00126" lon="7.16948">
        <ele>868</ele>
        <time>2012-05-05T12:24:34Z</time>
      </trkpt>
      <trkpt lat="44.00129" lon="7.16944">
        <ele>868</ele>
        <time>2012-05-05T12:24:35Z</time>
      </trkpt>
      <trkpt lat="44.00132" lon="7.16941">
        <ele>866.799987793</ele>
        <time>2012-05-05T12:24:36Z</time>
      </trkpt>
      <trkpt lat="44.00137" lon="7.16937">
        <ele>866.799987793</ele>
        <time>2012-05-05T12:24:37Z</time>
      </trkpt>
      <trkpt lat="44.00146" lon="7.16919">
        <ele>866.799987793</ele>
        <time>2012-05-05T12:24:40Z</time>
      </trkpt>
      <trkpt lat="44.00153" lon="7.16905">
        <ele>866.799987793</ele>
        <time>2012-05-05T12:24:43Z</time>
      </trkpt>
      <trkpt lat="44.00146" lon="7.16896">
        <ele>865.799987793</ele>
        <time>2012-05-05T12:24:46Z</time>
      </trkpt>
      <trkpt lat="44.00135" lon="7.1689">
        <ele>865.799987793</ele>
        <time>2012-05-05T12:24:49Z</time>
      </trkpt>
      <trkpt lat="44.00132" lon="7.16887">
        <ele>865.799987793</ele>
        <time>2012-05-05T12:24:50Z</time>
      </trkpt>
      <trkpt lat="44.00128" lon="7.16884">
        <ele>865.799987793</ele>
        <time>2012-05-05T12:24:51Z</time>
      </trkpt>
      <trkpt lat="44.00105" lon="7.1687">
        <ele>865.799987793</ele>
        <time>2012-05-05T12:24:57Z</time>
      </trkpt>
      <trkpt lat="44.00093" lon="7.16863">
        <ele>865.799987793</ele>
        <time>2012-05-05T12:25:00Z</time>
      </trkpt>
      <trkpt lat="44.00081" lon="7.16854">
        <ele>865.799987793</ele>
        <time>2012-05-05T12:25:03Z</time>
      </trkpt>
      <trkpt lat="44.00064" lon="7.16843">
        <ele>865.799987793</ele>
        <time>2012-05-05T12:25:07Z</time>
      </trkpt>
      <trkpt lat="44.00058" lon="7.16841">
        <ele>865.799987793</ele>
        <time>2012-05-05T12:25:08Z</time>
      </trkpt>
      <trkpt lat="44.00053" lon="7.16839">
        <ele>863.599975586</ele>
        <time>2012-05-05T12:25:09Z</time>
      </trkpt>
      <trkpt lat="44.00042" lon="7.16831">
        <ele>863.599975586</ele>
        <time>2012-05-05T12:25:12Z</time>
      </trkpt>
      <trkpt lat="44.00039" lon="7.16826">
        <ele>862.400024414</ele>
        <time>2012-05-05T12:25:13Z</time>
      </trkpt>
      <trkpt lat="44.00038" lon="7.1682">
        <ele>861.200012207</ele>
        <time>2012-05-05T12:25:14Z</time>
      </trkpt>
      <trkpt lat="44.00038" lon="7.16816">
        <ele>859.400024414</ele>
        <time>2012-05-05T12:25:15Z</time>
      </trkpt>
      <trkpt lat="44.00038" lon="7.16811">
        <ele>859.400024414</ele>
        <time>2012-05-05T12:25:16Z</time>
      </trkpt>
      <trkpt lat="44.00039" lon="7.16807">
        <ele>859.400024414</ele>
        <time>2012-05-05T12:25:17Z</time>
      </trkpt>
      <trkpt lat="44.0004" lon="7.16802">
        <ele>859.400024414</ele>
        <time>2012-05-05T12:25:19Z</time>
      </trkpt>
      <trkpt lat="44.00042" lon="7.16794">
        <ele>859.400024414</ele>
        <time>2012-05-05T12:25:24Z</time>
      </trkpt>
      <trkpt lat="44.00043" lon="7.1679">
        <ele>859.400024414</ele>
        <time>2012-05-05T12:25:31Z</time>
      </trkpt>
      <trkpt lat="44.00045" lon="7.16776">
        <ele>858.200012207</ele>
        <time>2012-05-05T12:25:35Z</time>
      </trkpt>
      <trkpt lat="44.00045" lon="7.16772">
        <ele>858.200012207</ele>
        <time>2012-05-05T12:25:36Z</time>
      </trkpt>
      <trkpt lat="44.00044" lon="7.16768">
        <ele>858.200012207</ele>
        <time>2012-05-05T12:25:37Z</time>
      </trkpt>
      <trkpt lat="44.00038" lon="7.16762">
        <ele>858.200012207</ele>
        <time>2012-05-05T12:25:39Z</time>
      </trkpt>
      <trkpt lat="44.00031" lon="7.16759">
        <ele>858.200012207</ele>
        <time>2012-05-05T12:25:41Z</time>
      </trkpt>
      <trkpt lat="44.00024" lon="7.16755">
        <ele>854.599975586</ele>
        <time>2012-05-05T12:25:43Z</time>
      </trkpt>
      <trkpt lat="44.00021" lon="7.16753">
        <ele>857.799987793</ele>
        <time>2012-05-05T12:25:44Z</time>
      </trkpt>
      <trkpt lat="44.0002" lon="7.16749">
        <ele>857.799987793</ele>
        <time>2012-05-05T12:25:45Z</time>
      </trkpt>
      <trkpt lat="44.00019" lon="7.16745">
        <ele>859</ele>
        <time>2012-05-05T12:25:46Z</time>
      </trkpt>
      <trkpt lat="44.00012" lon="7.16721">
        <ele>859</ele>
        <time>2012-05-05T12:25:51Z</time>
      </trkpt>
      <trkpt lat="44.00012" lon="7.16715">
        <ele>855.599975586</ele>
        <time>2012-05-05T12:25:52Z</time>
      </trkpt>
      <trkpt lat="44.00015" lon="7.16704">
        <ele>854.599975586</ele>
        <time>2012-05-05T12:25:54Z</time>
      </trkpt>
      <trkpt lat="44.00031" lon="7.1668">
        <ele>854.599975586</ele>
        <time>2012-05-05T12:25:58Z</time>
      </trkpt>
      <trkpt lat="44.00035" lon="7.16674">
        <ele>852.599975586</ele>
        <time>2012-05-05T12:25:59Z</time>
      </trkpt>
      <trkpt lat="44.00039" lon="7.16662">
        <ele>851.400024414</ele>
        <time>2012-05-05T12:26:01Z</time>
      </trkpt>
      <trkpt lat="44.00043" lon="7.16655">
        <ele>851.400024414</ele>
        <time>2012-05-05T12:26:02Z</time>
      </trkpt>
      <trkpt lat="44.00046" lon="7.16649">
        <ele>850.400024414</ele>
        <time>2012-05-05T12:26:03Z</time>
      </trkpt>
      <trkpt lat="44.00048" lon="7.16644">
        <ele>849.200012207</ele>
        <time>2012-05-05T12:26:04Z</time>
      </trkpt>
      <trkpt lat="44.00051" lon="7.16631">
        <ele>848.200012207</ele>
        <time>2012-05-05T12:26:06Z</time>
      </trkpt>
      <trkpt lat="44.00054" lon="7.16624">
        <ele>848.200012207</ele>
        <time>2012-05-05T12:26:07Z</time>
      </trkpt>
      <trkpt lat="44.00055" lon="7.16618">
        <ele>848.200012207</ele>
        <time>2012-05-05T12:26:08Z</time>
      </trkpt>
      <trkpt lat="44.00056" lon="7.16611">
        <ele>847.200012207</ele>
        <time>2012-05-05T12:26:09Z</time>
      </trkpt>
      <trkpt lat="44.00057" lon="7.16604">
        <ele>847.200012207</ele>
        <time>2012-05-05T12:26:10Z</time>
      </trkpt>
      <trkpt lat="44.0006" lon="7.16599">
        <ele>845.799987793</ele>
        <time>2012-05-05T12:26:11Z</time>
      </trkpt>
      <trkpt lat="44.00072" lon="7.16577">
        <ele>844.599975586</ele>
        <time>2012-05-05T12:26:14Z</time>
      </trkpt>
      <trkpt lat="44.00076" lon="7.16572">
        <ele>844.599975586</ele>
        <time>2012-05-05T12:26:15Z</time>
      </trkpt>
      <trkpt lat="44.00085" lon="7.16561">
        <ele>843.400024414</ele>
        <time>2012-05-05T12:26:17Z</time>
      </trkpt>
      <trkpt lat="44.00089" lon="7.16555">
        <ele>843.400024414</ele>
        <time>2012-05-05T12:26:18Z</time>
      </trkpt>
      <trkpt lat="44.00092" lon="7.16548">
        <ele>843.400024414</ele>
        <time>2012-05-05T12:26:19Z</time>
      </trkpt>
      <trkpt lat="44.00095" lon="7.16542">
        <ele>842.400024414</ele>
        <time>2012-05-05T12:26:20Z</time>
      </trkpt>
      <trkpt lat="44.001" lon="7.16522">
        <ele>842.400024414</ele>
        <time>2012-05-05T12:26:23Z</time>
      </trkpt>
      <trkpt lat="44.001" lon="7.16515">
        <ele>842.400024414</ele>
        <time>2012-05-05T12:26:25Z</time>
      </trkpt>
      <trkpt lat="44.00099" lon="7.16512">
        <ele>842.400024414</ele>
        <time>2012-05-05T12:26:26Z</time>
      </trkpt>
      <trkpt lat="44.00096" lon="7.16507">
        <ele>841.200012207</ele>
        <time>2012-05-05T12:26:27Z</time>
      </trkpt>
      <trkpt lat="44.00096" lon="7.16496">
        <ele>841.200012207</ele>
        <time>2012-05-05T12:26:29Z</time>
      </trkpt>
      <trkpt lat="44.00105" lon="7.16486">
        <ele>840</ele>
        <time>2012-05-05T12:26:32Z</time>
      </trkpt>
      <trkpt lat="44.00111" lon="7.16478">
        <ele>839</ele>
        <time>2012-05-05T12:26:36Z</time>
      </trkpt>
      <trkpt lat="44.0011" lon="7.16475">
        <ele>839</ele>
        <time>2012-05-05T12:26:41Z</time>
      </trkpt>
      <trkpt lat="44.0011" lon="7.16474">
        <ele>839</ele>
        <time>2012-05-05T12:26:42Z</time>
      </trkpt>
      <trkpt lat="44.00102" lon="7.16464">
        <ele>839</ele>
        <time>2012-05-05T12:26:48Z</time>
      </trkpt>
      <trkpt lat="44.00098" lon="7.16459">
        <ele>839</ele>
        <time>2012-05-05T12:26:50Z</time>
      </trkpt>
      <trkpt lat="44.00091" lon="7.16458">
        <ele>839</ele>
        <time>2012-05-05T12:26:52Z</time>
      </trkpt>
      <trkpt lat="44.00084" lon="7.16457">
        <ele>836.799987793</ele>
        <time>2012-05-05T12:26:54Z</time>
      </trkpt>
      <trkpt lat="44.00073" lon="7.16454">
        <ele>834.200012207</ele>
        <time>2012-05-05T12:26:57Z</time>
      </trkpt>
      <trkpt lat="44.0006" lon="7.16452">
        <ele>837.400024414</ele>
        <time>2012-05-05T12:27:01Z</time>
      </trkpt>
      <trkpt lat="44.00057" lon="7.16448">
        <ele>837.400024414</ele>
        <time>2012-05-05T12:27:02Z</time>
      </trkpt>
      <trkpt lat="44.00051" lon="7.16432">
        <ele>837.400024414</ele>
        <time>2012-05-05T12:27:06Z</time>
      </trkpt>
      <trkpt lat="44.00048" lon="7.16416">
        <ele>838.799987793</ele>
        <time>2012-05-05T12:27:12Z</time>
      </trkpt>
      <trkpt lat="44.00045" lon="7.16409">
        <ele>838.799987793</ele>
        <time>2012-05-05T12:27:17Z</time>
      </trkpt>
      <trkpt lat="44.00044" lon="7.16408">
        <ele>838.799987793</ele>
        <time>2012-05-05T12:27:18Z</time>
      </trkpt>
      <trkpt lat="44.00043" lon="7.16407">
        <ele>839.799987793</ele>
        <time>2012-05-05T12:27:19Z</time>
      </trkpt>
      <trkpt lat="44.00041" lon="7.16407">
        <ele>839.799987793</ele>
        <time>2012-05-05T12:27:22Z</time>
      </trkpt>
      <trkpt lat="44.00038" lon="7.16405">
        <ele>841</ele>
        <time>2012-05-05T12:27:25Z</time>
      </trkpt>
      <trkpt lat="44.00036" lon="7.16404">
        <ele>841</ele>
        <time>2012-05-05T12:27:26Z</time>
      </trkpt>
      <trkpt lat="44.0003" lon="7.16402">
        <ele>841</ele>
        <time>2012-05-05T12:27:31Z</time>
      </trkpt>
      <trkpt lat="44.00029" lon="7.16403">
        <ele>841</ele>
        <time>2012-05-05T12:27:38Z</time>
      </trkpt>
      <trkpt lat="44.00029" lon="7.16403">
        <ele>841</ele>
        <time>2012-05-05T12:27:50Z</time>
      </trkpt>
      <trkpt lat="44.00028" lon="7.16403">
        <ele>841</ele>
        <time>2012-05-05T12:28:04Z</time>
      </trkpt>
      <trkpt lat="44.00028" lon="7.16403">
        <ele>841</ele>
        <time>2012-05-05T12:28:05Z</time>
      </trkpt>
      <trkpt lat="44.00028" lon="7.16404">
        <ele>841</ele>
        <time>2012-05-05T12:28:08Z</time>
      </trkpt>
      <trkpt lat="44.00028" lon="7.16403">
        <ele>841</ele>
        <time>2012-05-05T12:28:11Z</time>
      </trkpt>
      <trkpt lat="44.00028" lon="7.16404">
        <ele>841</ele>
        <time>2012-05-05T12:28:13Z</time>
      </trkpt>
      <trkpt lat="44.00028" lon="7.16403">
        <ele>841</ele>
        <time>2012-05-05T12:28:16Z</time>
      </trkpt>
      <trkpt lat="44.00028" lon="7.16403">
        <ele>841</ele>
        <time>2012-05-05T12:28:17Z</time>
      </trkpt>
      <trkpt lat="44.00028" lon="7.16403">
        <ele>841</ele>
        <time>2012-05-05T12:28:19Z</time>
      </trkpt>
      <trkpt lat="44.00028" lon="7.16403">
        <ele>841</ele>
        <time>2012-05-05T12:28:21Z</time>
      </trkpt>
      <trkpt lat="44.00028" lon="7.16403">
        <ele>841</ele>
        <time>2012-05-05T12:28:30Z</time>
      </trkpt>
      <trkpt lat="44.00025" lon="7.16402">
        <ele>841</ele>
        <time>2012-05-05T12:28:37Z</time>
      </trkpt>
      <trkpt lat="44.00024" lon="7.16402">
        <ele>841</ele>
        <time>2012-05-05T12:28:38Z</time>
      </trkpt>
      <trkpt lat="44.00009" lon="7.164">
        <ele>841</ele>
        <time>2012-05-05T12:28:43Z</time>
      </trkpt>
      <trkpt lat="44.00006" lon="7.16399">
        <ele>837.799987793</ele>
        <time>2012-05-05T12:28:44Z</time>
      </trkpt>
      <trkpt lat="43.99988" lon="7.1639">
        <ele>837.799987793</ele>
        <time>2012-05-05T12:28:49Z</time>
      </trkpt>
      <trkpt lat="43.99971" lon="7.1638">
        <ele>837.799987793</ele>
        <time>2012-05-05T12:28:55Z</time>
      </trkpt>
      <trkpt lat="43.9996" lon="7.1638">
        <ele>837.799987793</ele>
        <time>2012-05-05T12:28:58Z</time>
      </trkpt>
      <trkpt lat="43.99956" lon="7.16382">
        <ele>837.799987793</ele>
        <time>2012-05-05T12:28:59Z</time>
      </trkpt>
      <trkpt lat="43.99936" lon="7.16387">
        <ele>837.799987793</ele>
        <time>2012-05-05T12:29:03Z</time>
      </trkpt>
      <trkpt lat="43.99932" lon="7.16387">
        <ele>837.799987793</ele>
        <time>2012-05-05T12:29:04Z</time>
      </trkpt>
      <trkpt lat="43.99915" lon="7.16387">
        <ele>837.799987793</ele>
        <time>2012-05-05T12:29:08Z</time>
      </trkpt>
      <trkpt lat="43.99906" lon="7.16388">
        <ele>837.799987793</ele>
        <time>2012-05-05T12:29:10Z</time>
      </trkpt>
      <trkpt lat="43.99895" lon="7.16388">
        <ele>837.799987793</ele>
        <time>2012-05-05T12:29:13Z</time>
      </trkpt>
      <trkpt lat="43.99892" lon="7.16388">
        <ele>837.799987793</ele>
        <time>2012-05-05T12:29:14Z</time>
      </trkpt>
      <trkpt lat="43.99873" lon="7.16393">
        <ele>837.799987793</ele>
        <time>2012-05-05T12:29:19Z</time>
      </trkpt>
      <trkpt lat="43.99868" lon="7.16396">
        <ele>832.799987793</ele>
        <time>2012-05-05T12:29:20Z</time>
      </trkpt>
      <trkpt lat="43.99863" lon="7.16397">
        <ele>832.799987793</ele>
        <time>2012-05-05T12:29:21Z</time>
      </trkpt>
      <trkpt lat="43.99857" lon="7.16398">
        <ele>836.400024414</ele>
        <time>2012-05-05T12:29:22Z</time>
      </trkpt>
      <trkpt lat="43.99851" lon="7.16399">
        <ele>836.400024414</ele>
        <time>2012-05-05T12:29:23Z</time>
      </trkpt>
      <trkpt lat="43.99835" lon="7.16397">
        <ele>836.400024414</ele>
        <time>2012-05-05T12:29:26Z</time>
      </trkpt>
      <trkpt lat="43.99825" lon="7.16391">
        <ele>836.400024414</ele>
        <time>2012-05-05T12:29:28Z</time>
      </trkpt>
      <trkpt lat="43.99816" lon="7.16384">
        <ele>836.400024414</ele>
        <time>2012-05-05T12:29:30Z</time>
      </trkpt>
      <trkpt lat="43.99811" lon="7.1638">
        <ele>836.400024414</ele>
        <time>2012-05-05T12:29:31Z</time>
      </trkpt>
      <trkpt lat="43.99805" lon="7.16377">
        <ele>834.200012207</ele>
        <time>2012-05-05T12:29:32Z</time>
      </trkpt>
      <trkpt lat="43.998" lon="7.16374">
        <ele>834.200012207</ele>
        <time>2012-05-05T12:29:33Z</time>
      </trkpt>
      <trkpt lat="43.99794" lon="7.1637">
        <ele>833</ele>
        <time>2012-05-05T12:29:34Z</time>
      </trkpt>
      <trkpt lat="43.99786" lon="7.16359">
        <ele>831.400024414</ele>
        <time>2012-05-05T12:29:36Z</time>
      </trkpt>
      <trkpt lat="43.99784" lon="7.16354">
        <ele>830.400024414</ele>
        <time>2012-05-05T12:29:37Z</time>
      </trkpt>
      <trkpt lat="43.99782" lon="7.16348">
        <ele>829</ele>
        <time>2012-05-05T12:29:38Z</time>
      </trkpt>
      <trkpt lat="43.99782" lon="7.16342">
        <ele>827.799987793</ele>
        <time>2012-05-05T12:29:39Z</time>
      </trkpt>
      <trkpt lat="43.99783" lon="7.16337">
        <ele>827.799987793</ele>
        <time>2012-05-05T12:29:40Z</time>
      </trkpt>
      <trkpt lat="43.99784" lon="7.16332">
        <ele>826.599975586</ele>
        <time>2012-05-05T12:29:41Z</time>
      </trkpt>
      <trkpt lat="43.99785" lon="7.16325">
        <ele>825.599975586</ele>
        <time>2012-05-05T12:29:42Z</time>
      </trkpt>
      <trkpt lat="43.99786" lon="7.16319">
        <ele>824.200012207</ele>
        <time>2012-05-05T12:29:43Z</time>
      </trkpt>
      <trkpt lat="43.99789" lon="7.16314">
        <ele>824.200012207</ele>
        <time>2012-05-05T12:29:44Z</time>
      </trkpt>
      <trkpt lat="43.99791" lon="7.16309">
        <ele>823</ele>
        <time>2012-05-05T12:29:45Z</time>
      </trkpt>
      <trkpt lat="43.99795" lon="7.16297">
        <ele>821.599975586</ele>
        <time>2012-05-05T12:29:47Z</time>
      </trkpt>
      <trkpt lat="43.99797" lon="7.16292">
        <ele>821.599975586</ele>
        <time>2012-05-05T12:29:48Z</time>
      </trkpt>
      <trkpt lat="43.99799" lon="7.16286">
        <ele>820.400024414</ele>
        <time>2012-05-05T12:29:49Z</time>
      </trkpt>
      <trkpt lat="43.998" lon="7.16281">
        <ele>819.200012207</ele>
        <time>2012-05-05T12:29:50Z</time>
      </trkpt>
      <trkpt lat="43.99801" lon="7.16276">
        <ele>818.200012207</ele>
        <time>2012-05-05T12:29:51Z</time>
      </trkpt>
      <trkpt lat="43.99802" lon="7.16269">
        <ele>818.200012207</ele>
        <time>2012-05-05T12:29:52Z</time>
      </trkpt>
      <trkpt lat="43.99803" lon="7.16264">
        <ele>817.200012207</ele>
        <time>2012-05-05T12:29:53Z</time>
      </trkpt>
      <trkpt lat="43.99802" lon="7.16259">
        <ele>816</ele>
        <time>2012-05-05T12:29:54Z</time>
      </trkpt>
      <trkpt lat="43.998" lon="7.16254">
        <ele>814.599975586</ele>
        <time>2012-05-05T12:29:55Z</time>
      </trkpt>
      <trkpt lat="43.99798" lon="7.1625">
        <ele>814.599975586</ele>
        <time>2012-05-05T12:29:56Z</time>
      </trkpt>
      <trkpt lat="43.99796" lon="7.16245">
        <ele>813.599975586</ele>
        <time>2012-05-05T12:29:57Z</time>
      </trkpt>
      <trkpt lat="43.99791" lon="7.16235">
        <ele>812.400024414</ele>
        <time>2012-05-05T12:29:59Z</time>
      </trkpt>
      <trkpt lat="43.99788" lon="7.16231">
        <ele>812.400024414</ele>
        <time>2012-05-05T12:30:00Z</time>
      </trkpt>
      <trkpt lat="43.99781" lon="7.16222">
        <ele>811.200012207</ele>
        <time>2012-05-05T12:30:02Z</time>
      </trkpt>
      <trkpt lat="43.99771" lon="7.16206">
        <ele>810.200012207</ele>
        <time>2012-05-05T12:30:05Z</time>
      </trkpt>
      <trkpt lat="43.99768" lon="7.16202">
        <ele>810.200012207</ele>
        <time>2012-05-05T12:30:06Z</time>
      </trkpt>
      <trkpt lat="43.99763" lon="7.16192">
        <ele>808.799987793</ele>
        <time>2012-05-05T12:30:08Z</time>
      </trkpt>
      <trkpt lat="43.99756" lon="7.16183">
        <ele>808.799987793</ele>
        <time>2012-05-05T12:30:10Z</time>
      </trkpt>
      <trkpt lat="43.99753" lon="7.16178">
        <ele>807.799987793</ele>
        <time>2012-05-05T12:30:11Z</time>
      </trkpt>
      <trkpt lat="43.99746" lon="7.16163">
        <ele>806.400024414</ele>
        <time>2012-05-05T12:30:14Z</time>
      </trkpt>
      <trkpt lat="43.99744" lon="7.16159">
        <ele>806.400024414</ele>
        <time>2012-05-05T12:30:15Z</time>
      </trkpt>
      <trkpt lat="43.99743" lon="7.16155">
        <ele>806.400024414</ele>
        <time>2012-05-05T12:30:16Z</time>
      </trkpt>
      <trkpt lat="43.99745" lon="7.16151">
        <ele>805.200012207</ele>
        <time>2012-05-05T12:30:17Z</time>
      </trkpt>
      <trkpt lat="43.99747" lon="7.16148">
        <ele>805.200012207</ele>
        <time>2012-05-05T12:30:18Z</time>
      </trkpt>
      <trkpt lat="43.99752" lon="7.16144">
        <ele>804</ele>
        <time>2012-05-05T12:30:20Z</time>
      </trkpt>
      <trkpt lat="43.99758" lon="7.16139">
        <ele>802.799987793</ele>
        <time>2012-05-05T12:30:23Z</time>
      </trkpt>
      <trkpt lat="43.99754" lon="7.16138">
        <ele>801.799987793</ele>
        <time>2012-05-05T12:30:26Z</time>
      </trkpt>
      <trkpt lat="43.99752" lon="7.16139">
        <ele>801.799987793</ele>
        <time>2012-05-05T12:30:27Z</time>
      </trkpt>
      <trkpt lat="43.99745" lon="7.1614">
        <ele>800.799987793</ele>
        <time>2012-05-05T12:30:29Z</time>
      </trkpt>
      <trkpt lat="43.99742" lon="7.16141">
        <ele>799.400024414</ele>
        <time>2012-05-05T12:30:30Z</time>
      </trkpt>
      <trkpt lat="43.99738" lon="7.16142">
        <ele>799.400024414</ele>
        <time>2012-05-05T12:30:31Z</time>
      </trkpt>
      <trkpt lat="43.9973" lon="7.16145">
        <ele>798.400024414</ele>
        <time>2012-05-05T12:30:33Z</time>
      </trkpt>
      <trkpt lat="43.99725" lon="7.16143">
        <ele>798.400024414</ele>
        <time>2012-05-05T12:30:35Z</time>
      </trkpt>
      <trkpt lat="43.99725" lon="7.1614">
        <ele>797.200012207</ele>
        <time>2012-05-05T12:30:36Z</time>
      </trkpt>
      <trkpt lat="43.9973" lon="7.16135">
        <ele>797.200012207</ele>
        <time>2012-05-05T12:30:38Z</time>
      </trkpt>
      <trkpt lat="43.99733" lon="7.16134">
        <ele>796</ele>
        <time>2012-05-05T12:30:39Z</time>
      </trkpt>
      <trkpt lat="43.99736" lon="7.16132">
        <ele>796</ele>
        <time>2012-05-05T12:30:41Z</time>
      </trkpt>
      <trkpt lat="43.99735" lon="7.16131">
        <ele>795</ele>
        <time>2012-05-05T12:30:42Z</time>
      </trkpt>
      <trkpt lat="43.99731" lon="7.16132">
        <ele>795</ele>
        <time>2012-05-05T12:30:44Z</time>
      </trkpt>
      <trkpt lat="43.99728" lon="7.16132">
        <ele>793.799987793</ele>
        <time>2012-05-05T12:30:45Z</time>
      </trkpt>
      <trkpt lat="43.99719" lon="7.16131">
        <ele>792.799987793</ele>
        <time>2012-05-05T12:30:48Z</time>
      </trkpt>
      <trkpt lat="43.99716" lon="7.16131">
        <ele>792.799987793</ele>
        <time>2012-05-05T12:30:49Z</time>
      </trkpt>
      <trkpt lat="43.99711" lon="7.16132">
        <ele>791.799987793</ele>
        <time>2012-05-05T12:30:51Z</time>
      </trkpt>
      <trkpt lat="43.99707" lon="7.16131">
        <ele>791.799987793</ele>
        <time>2012-05-05T12:30:54Z</time>
      </trkpt>
      <trkpt lat="43.99706" lon="7.1613">
        <ele>790.799987793</ele>
        <time>2012-05-05T12:30:55Z</time>
      </trkpt>
      <trkpt lat="43.99705" lon="7.16127">
        <ele>789.799987793</ele>
        <time>2012-05-05T12:30:57Z</time>
      </trkpt>
      <trkpt lat="43.99705" lon="7.16125">
        <ele>789.799987793</ele>
        <time>2012-05-05T12:30:58Z</time>
      </trkpt>
      <trkpt lat="43.99708" lon="7.16123">
        <ele>788.599975586</ele>
        <time>2012-05-05T12:31:00Z</time>
      </trkpt>
      <trkpt lat="43.9971" lon="7.16122">
        <ele>788.599975586</ele>
        <time>2012-05-05T12:31:01Z</time>
      </trkpt>
      <trkpt lat="43.99713" lon="7.16119">
        <ele>787.400024414</ele>
        <time>2012-05-05T12:31:02Z</time>
      </trkpt>
      <trkpt lat="43.99718" lon="7.16115">
        <ele>786</ele>
        <time>2012-05-05T12:31:04Z</time>
      </trkpt>
      <trkpt lat="43.99722" lon="7.16109">
        <ele>784.799987793</ele>
        <time>2012-05-05T12:31:06Z</time>
      </trkpt>
      <trkpt lat="43.99725" lon="7.16108">
        <ele>783.599975586</ele>
        <time>2012-05-05T12:31:07Z</time>
      </trkpt>
      <trkpt lat="43.99728" lon="7.16107">
        <ele>783.599975586</ele>
        <time>2012-05-05T12:31:08Z</time>
      </trkpt>
      <trkpt lat="43.99731" lon="7.16105">
        <ele>782.599975586</ele>
        <time>2012-05-05T12:31:09Z</time>
      </trkpt>
      <trkpt lat="43.99734" lon="7.16103">
        <ele>781.599975586</ele>
        <time>2012-05-05T12:31:10Z</time>
      </trkpt>
      <trkpt lat="43.99737" lon="7.16102">
        <ele>780.200012207</ele>
        <time>2012-05-05T12:31:11Z</time>
      </trkpt>
      <trkpt lat="43.99743" lon="7.16098">
        <ele>778.599975586</ele>
        <time>2012-05-05T12:31:13Z</time>
      </trkpt>
      <trkpt lat="43.99746" lon="7.16096">
        <ele>778.599975586</ele>
        <time>2012-05-05T12:31:14Z</time>
      </trkpt>
      <trkpt lat="43.9975" lon="7.16095">
        <ele>777.200012207</ele>
        <time>2012-05-05T12:31:15Z</time>
      </trkpt>
      <trkpt lat="43.99755" lon="7.16089">
        <ele>776</ele>
        <time>2012-05-05T12:31:17Z</time>
      </trkpt>
      <trkpt lat="43.99758" lon="7.16087">
        <ele>776</ele>
        <time>2012-05-05T12:31:18Z</time>
      </trkpt>
      <trkpt lat="43.99761" lon="7.16085">
        <ele>774.799987793</ele>
        <time>2012-05-05T12:31:19Z</time>
      </trkpt>
      <trkpt lat="43.99767" lon="7.16081">
        <ele>773.400024414</ele>
        <time>2012-05-05T12:31:21Z</time>
      </trkpt>
      <trkpt lat="43.99772" lon="7.16076">
        <ele>772</ele>
        <time>2012-05-05T12:31:23Z</time>
      </trkpt>
      <trkpt lat="43.99777" lon="7.16072">
        <ele>770.400024414</ele>
        <time>2012-05-05T12:31:25Z</time>
      </trkpt>
      <trkpt lat="43.99781" lon="7.16067">
        <ele>769</ele>
        <time>2012-05-05T12:31:27Z</time>
      </trkpt>
      <trkpt lat="43.99783" lon="7.16064">
        <ele>769</ele>
        <time>2012-05-05T12:31:28Z</time>
      </trkpt>
      <trkpt lat="43.99784" lon="7.16063">
        <ele>767.599975586</ele>
        <time>2012-05-05T12:31:29Z</time>
      </trkpt>
      <trkpt lat="43.99788" lon="7.1606">
        <ele>766.599975586</ele>
        <time>2012-05-05T12:31:31Z</time>
      </trkpt>
      <trkpt lat="43.99797" lon="7.16053">
        <ele>765.599975586</ele>
        <time>2012-05-05T12:31:34Z</time>
      </trkpt>
      <trkpt lat="43.99803" lon="7.16048">
        <ele>764.200012207</ele>
        <time>2012-05-05T12:31:36Z</time>
      </trkpt>
      <trkpt lat="43.9981" lon="7.1604">
        <ele>763</ele>
        <time>2012-05-05T12:31:38Z</time>
      </trkpt>
      <trkpt lat="43.99814" lon="7.16037">
        <ele>762</ele>
        <time>2012-05-05T12:31:39Z</time>
      </trkpt>
      <trkpt lat="43.9982" lon="7.1603">
        <ele>760.599975586</ele>
        <time>2012-05-05T12:31:41Z</time>
      </trkpt>
      <trkpt lat="43.99825" lon="7.16021">
        <ele>759.400024414</ele>
        <time>2012-05-05T12:31:43Z</time>
      </trkpt>
      <trkpt lat="43.99828" lon="7.16014">
        <ele>759.400024414</ele>
        <time>2012-05-05T12:31:45Z</time>
      </trkpt>
      <trkpt lat="43.99828" lon="7.16012">
        <ele>759.400024414</ele>
        <time>2012-05-05T12:31:46Z</time>
      </trkpt>
      <trkpt lat="43.99826" lon="7.1601">
        <ele>758.400024414</ele>
        <time>2012-05-05T12:31:47Z</time>
      </trkpt>
      <trkpt lat="43.99819" lon="7.16009">
        <ele>757.400024414</ele>
        <time>2012-05-05T12:31:50Z</time>
      </trkpt>
      <trkpt lat="43.99814" lon="7.16008">
        <ele>756</ele>
        <time>2012-05-05T12:31:52Z</time>
      </trkpt>
      <trkpt lat="43.99804" lon="7.16005">
        <ele>756</ele>
        <time>2012-05-05T12:31:55Z</time>
      </trkpt>
      <trkpt lat="43.998" lon="7.16004">
        <ele>756</ele>
        <time>2012-05-05T12:31:56Z</time>
      </trkpt>
      <trkpt lat="43.99797" lon="7.16003">
        <ele>755</ele>
        <time>2012-05-05T12:31:57Z</time>
      </trkpt>
      <trkpt lat="43.99782" lon="7.15995">
        <ele>753.799987793</ele>
        <time>2012-05-05T12:32:01Z</time>
      </trkpt>
      <trkpt lat="43.99772" lon="7.15983">
        <ele>753.799987793</ele>
        <time>2012-05-05T12:32:05Z</time>
      </trkpt>
      <trkpt lat="43.99771" lon="7.15982">
        <ele>752.799987793</ele>
        <time>2012-05-05T12:32:06Z</time>
      </trkpt>
      <trkpt lat="43.99771" lon="7.15981">
        <ele>752.799987793</ele>
        <time>2012-05-05T12:32:08Z</time>
      </trkpt>
      <trkpt lat="43.9977" lon="7.15982">
        <ele>752.799987793</ele>
        <time>2012-05-05T12:32:12Z</time>
      </trkpt>
      <trkpt lat="43.9977" lon="7.15982">
        <ele>752.799987793</ele>
        <time>2012-05-05T12:32:13Z</time>
      </trkpt>
      <trkpt lat="43.99769" lon="7.15983">
        <ele>751.799987793</ele>
        <time>2012-05-05T12:32:18Z</time>
      </trkpt>
      <trkpt lat="43.99769" lon="7.15983">
        <ele>751.799987793</ele>
        <time>2012-05-05T12:32:19Z</time>
      </trkpt>
      <trkpt lat="43.99769" lon="7.15983">
        <ele>750.599975586</ele>
        <time>2012-05-05T12:32:23Z</time>
      </trkpt>
      <trkpt lat="43.99768" lon="7.15983">
        <ele>750.599975586</ele>
        <time>2012-05-05T12:32:24Z</time>
      </trkpt>
      <trkpt lat="43.99767" lon="7.15984">
        <ele>750.599975586</ele>
        <time>2012-05-05T12:32:29Z</time>
      </trkpt>
      <trkpt lat="43.99769" lon="7.15983">
        <ele>750.599975586</ele>
        <time>2012-05-05T12:32:35Z</time>
      </trkpt>
      <trkpt lat="43.99773" lon="7.15987">
        <ele>750.599975586</ele>
        <time>2012-05-05T12:32:39Z</time>
      </trkpt>
      <trkpt lat="43.99773" lon="7.15987">
        <ele>750.599975586</ele>
        <time>2012-05-05T12:32:41Z</time>
      </trkpt>
      <trkpt lat="43.99773" lon="7.15987">
        <ele>750.599975586</ele>
        <time>2012-05-05T12:32:44Z</time>
      </trkpt>
      <trkpt lat="43.99773" lon="7.15987">
        <ele>750.599975586</ele>
        <time>2012-05-05T12:32:50Z</time>
      </trkpt>
      <trkpt lat="43.9977" lon="7.15986">
        <ele>750.599975586</ele>
        <time>2012-05-05T12:32:53Z</time>
      </trkpt>
      <trkpt lat="43.99768" lon="7.15986">
        <ele>750.599975586</ele>
        <time>2012-05-05T12:32:57Z</time>
      </trkpt>
      <trkpt lat="43.99768" lon="7.15986">
        <ele>750.599975586</ele>
        <time>2012-05-05T12:32:59Z</time>
      </trkpt>
      <trkpt lat="43.99767" lon="7.15988">
        <ele>750.599975586</ele>
        <time>2012-05-05T12:33:05Z</time>
      </trkpt>
      <trkpt lat="43.99768" lon="7.15988">
        <ele>750.599975586</ele>
        <time>2012-05-05T12:33:10Z</time>
      </trkpt>
      <trkpt lat="43.99768" lon="7.15986">
        <ele>750.599975586</ele>
        <time>2012-05-05T12:33:15Z</time>
      </trkpt>
      <trkpt lat="43.99767" lon="7.15986">
        <ele>750.599975586</ele>
        <time>2012-05-05T12:33:19Z</time>
      </trkpt>
      <trkpt lat="43.99767" lon="7.15985">
        <ele>750.599975586</ele>
        <time>2012-05-05T12:33:26Z</time>
      </trkpt>
      <trkpt lat="43.99768" lon="7.15985">
        <ele>750.599975586</ele>
        <time>2012-05-05T12:33:27Z</time>
      </trkpt>
      <trkpt lat="43.99767" lon="7.15982">
        <ele>750.599975586</ele>
        <time>2012-05-05T12:33:36Z</time>
      </trkpt>
      <trkpt lat="43.99763" lon="7.15971">
        <ele>750.599975586</ele>
        <time>2012-05-05T12:33:41Z</time>
      </trkpt>
      <trkpt lat="43.9975" lon="7.15958">
        <ele>750.599975586</ele>
        <time>2012-05-05T12:33:48Z</time>
      </trkpt>
      <trkpt lat="43.99748" lon="7.15956">
        <ele>752.799987793</ele>
        <time>2012-05-05T12:33:49Z</time>
      </trkpt>
      <trkpt lat="43.99744" lon="7.15949">
        <ele>752.799987793</ele>
        <time>2012-05-05T12:33:52Z</time>
      </trkpt>
      <trkpt lat="43.99742" lon="7.15947">
        <ele>754</ele>
        <time>2012-05-05T12:33:53Z</time>
      </trkpt>
      <trkpt lat="43.99739" lon="7.15943">
        <ele>754</ele>
        <time>2012-05-05T12:33:55Z</time>
      </trkpt>
      <trkpt lat="43.99735" lon="7.15936">
        <ele>754</ele>
        <time>2012-05-05T12:33:58Z</time>
      </trkpt>
      <trkpt lat="43.99731" lon="7.15929">
        <ele>754</ele>
        <time>2012-05-05T12:34:01Z</time>
      </trkpt>
      <trkpt lat="43.99729" lon="7.15927">
        <ele>755</ele>
        <time>2012-05-05T12:34:02Z</time>
      </trkpt>
      <trkpt lat="43.99725" lon="7.15921">
        <ele>755</ele>
        <time>2012-05-05T12:34:05Z</time>
      </trkpt>
      <trkpt lat="43.99724" lon="7.15919">
        <ele>756.200012207</ele>
        <time>2012-05-05T12:34:06Z</time>
      </trkpt>
      <trkpt lat="43.99717" lon="7.15911">
        <ele>756.200012207</ele>
        <time>2012-05-05T12:34:10Z</time>
      </trkpt>
      <trkpt lat="43.99715" lon="7.15909">
        <ele>757.200012207</ele>
        <time>2012-05-05T12:34:11Z</time>
      </trkpt>
      <trkpt lat="43.99714" lon="7.15907">
        <ele>757.200012207</ele>
        <time>2012-05-05T12:34:12Z</time>
      </trkpt>
      <trkpt lat="43.9971" lon="7.15903">
        <ele>758.599975586</ele>
        <time>2012-05-05T12:34:14Z</time>
      </trkpt>
      <trkpt lat="43.99703" lon="7.15891">
        <ele>758.599975586</ele>
        <time>2012-05-05T12:34:19Z</time>
      </trkpt>
      <trkpt lat="43.99701" lon="7.15885">
        <ele>759.599975586</ele>
        <time>2012-05-05T12:34:21Z</time>
      </trkpt>
      <trkpt lat="43.99701" lon="7.1587">
        <ele>759.599975586</ele>
        <time>2012-05-05T12:34:26Z</time>
      </trkpt>
      <trkpt lat="43.99702" lon="7.15848">
        <ele>759.599975586</ele>
        <time>2012-05-05T12:34:33Z</time>
      </trkpt>
      <trkpt lat="43.99697" lon="7.15826">
        <ele>760.799987793</ele>
        <time>2012-05-05T12:34:40Z</time>
      </trkpt>
      <trkpt lat="43.99696" lon="7.15823">
        <ele>760.799987793</ele>
        <time>2012-05-05T12:34:41Z</time>
      </trkpt>
      <trkpt lat="43.99696" lon="7.15817">
        <ele>761.799987793</ele>
        <time>2012-05-05T12:34:43Z</time>
      </trkpt>
      <trkpt lat="43.99695" lon="7.15807">
        <ele>763.400024414</ele>
        <time>2012-05-05T12:34:46Z</time>
      </trkpt>
      <trkpt lat="43.99695" lon="7.158">
        <ele>763.400024414</ele>
        <time>2012-05-05T12:34:48Z</time>
      </trkpt>
      <trkpt lat="43.99701" lon="7.15773">
        <ele>763.400024414</ele>
        <time>2012-05-05T12:34:57Z</time>
      </trkpt>
      <trkpt lat="43.99706" lon="7.15755">
        <ele>765.400024414</ele>
        <time>2012-05-05T12:35:03Z</time>
      </trkpt>
      <trkpt lat="43.99709" lon="7.15747">
        <ele>765.400024414</ele>
        <time>2012-05-05T12:35:06Z</time>
      </trkpt>
      <trkpt lat="43.99714" lon="7.15735">
        <ele>766.400024414</ele>
        <time>2012-05-05T12:35:10Z</time>
      </trkpt>
      <trkpt lat="43.99725" lon="7.15708">
        <ele>767.599975586</ele>
        <time>2012-05-05T12:35:19Z</time>
      </trkpt>
      <trkpt lat="43.99733" lon="7.15685">
        <ele>768.599975586</ele>
        <time>2012-05-05T12:35:26Z</time>
      </trkpt>
      <trkpt lat="43.99736" lon="7.15679">
        <ele>768.599975586</ele>
        <time>2012-05-05T12:35:28Z</time>
      </trkpt>
      <trkpt lat="43.99743" lon="7.15662">
        <ele>769.799987793</ele>
        <time>2012-05-05T12:35:33Z</time>
      </trkpt>
      <trkpt lat="43.99749" lon="7.15649">
        <ele>769.799987793</ele>
        <time>2012-05-05T12:35:37Z</time>
      </trkpt>
      <trkpt lat="43.99756" lon="7.15636">
        <ele>770.799987793</ele>
        <time>2012-05-05T12:35:41Z</time>
      </trkpt>
      <trkpt lat="43.99764" lon="7.15619">
        <ele>770.799987793</ele>
        <time>2012-05-05T12:35:46Z</time>
      </trkpt>
      <trkpt lat="43.99774" lon="7.15583">
        <ele>770.799987793</ele>
        <time>2012-05-05T12:35:55Z</time>
      </trkpt>
      <trkpt lat="43.99774" lon="7.15556">
        <ele>770.799987793</ele>
        <time>2012-05-05T12:36:01Z</time>
      </trkpt>
      <trkpt lat="43.99772" lon="7.15551">
        <ele>771.799987793</ele>
        <time>2012-05-05T12:36:02Z</time>
      </trkpt>
      <trkpt lat="43.99762" lon="7.15531">
        <ele>771.799987793</ele>
        <time>2012-05-05T12:36:07Z</time>
      </trkpt>
      <trkpt lat="43.99745" lon="7.15516">
        <ele>771.799987793</ele>
        <time>2012-05-05T12:36:12Z</time>
      </trkpt>
      <trkpt lat="43.99722" lon="7.15491">
        <ele>771.799987793</ele>
        <time>2012-05-05T12:36:18Z</time>
      </trkpt>
      <trkpt lat="43.99719" lon="7.15486">
        <ele>771.799987793</ele>
        <time>2012-05-05T12:36:19Z</time>
      </trkpt>
      <trkpt lat="43.99715" lon="7.15475">
        <ele>772.799987793</ele>
        <time>2012-05-05T12:36:21Z</time>
      </trkpt>
      <trkpt lat="43.99714" lon="7.15468">
        <ele>772.799987793</ele>
        <time>2012-05-05T12:36:22Z</time>
      </trkpt>
      <trkpt lat="43.99713" lon="7.15461">
        <ele>772.799987793</ele>
        <time>2012-05-05T12:36:23Z</time>
      </trkpt>
      <trkpt lat="43.99712" lon="7.1543">
        <ele>772.799987793</ele>
        <time>2012-05-05T12:36:28Z</time>
      </trkpt>
      <trkpt lat="43.99713" lon="7.15424">
        <ele>772.799987793</ele>
        <time>2012-05-05T12:36:29Z</time>
      </trkpt>
      <trkpt lat="43.99714" lon="7.15414">
        <ele>774</ele>
        <time>2012-05-05T12:36:31Z</time>
      </trkpt>
      <trkpt lat="43.99718" lon="7.15393">
        <ele>774</ele>
        <time>2012-05-05T12:36:35Z</time>
      </trkpt>
      <trkpt lat="43.9972" lon="7.15389">
        <ele>774</ele>
        <time>2012-05-05T12:36:36Z</time>
      </trkpt>
      <trkpt lat="43.99725" lon="7.15379">
        <ele>775</ele>
        <time>2012-05-05T12:36:38Z</time>
      </trkpt>
      <trkpt lat="43.9974" lon="7.15359">
        <ele>775</ele>
        <time>2012-05-05T12:36:43Z</time>
      </trkpt>
      <trkpt lat="43.99755" lon="7.15345">
        <ele>775</ele>
        <time>2012-05-05T12:36:47Z</time>
      </trkpt>
      <trkpt lat="43.99758" lon="7.15341">
        <ele>773</ele>
        <time>2012-05-05T12:36:48Z</time>
      </trkpt>
      <trkpt lat="43.99761" lon="7.15338">
        <ele>773</ele>
        <time>2012-05-05T12:36:49Z</time>
      </trkpt>
      <trkpt lat="43.99765" lon="7.15332">
        <ele>771.799987793</ele>
        <time>2012-05-05T12:36:52Z</time>
      </trkpt>
      <trkpt lat="43.99767" lon="7.1533">
        <ele>771.799987793</ele>
        <time>2012-05-05T12:36:53Z</time>
      </trkpt>
      <trkpt lat="43.9977" lon="7.15327">
        <ele>771.799987793</ele>
        <time>2012-05-05T12:36:55Z</time>
      </trkpt>
      <trkpt lat="43.99768" lon="7.15323">
        <ele>771.799987793</ele>
        <time>2012-05-05T12:36:57Z</time>
      </trkpt>
      <trkpt lat="43.99763" lon="7.15323">
        <ele>771.799987793</ele>
        <time>2012-05-05T12:37:00Z</time>
      </trkpt>
      <trkpt lat="43.99763" lon="7.15321">
        <ele>769.799987793</ele>
        <time>2012-05-05T12:37:01Z</time>
      </trkpt>
      <trkpt lat="43.99766" lon="7.15316">
        <ele>768.599975586</ele>
        <time>2012-05-05T12:37:04Z</time>
      </trkpt>
      <trkpt lat="43.99766" lon="7.15315">
        <ele>768.599975586</ele>
        <time>2012-05-05T12:37:05Z</time>
      </trkpt>
      <trkpt lat="43.99762" lon="7.15315">
        <ele>768.599975586</ele>
        <time>2012-05-05T12:37:08Z</time>
      </trkpt>
      <trkpt lat="43.9976" lon="7.15314">
        <ele>767.599975586</ele>
        <time>2012-05-05T12:37:09Z</time>
      </trkpt>
      <trkpt lat="43.99762" lon="7.15309">
        <ele>767.599975586</ele>
        <time>2012-05-05T12:37:12Z</time>
      </trkpt>
      <trkpt lat="43.99765" lon="7.15307">
        <ele>766.599975586</ele>
        <time>2012-05-05T12:37:14Z</time>
      </trkpt>
      <trkpt lat="43.99765" lon="7.15305">
        <ele>766.599975586</ele>
        <time>2012-05-05T12:37:15Z</time>
      </trkpt>
      <trkpt lat="43.99763" lon="7.15303">
        <ele>766.599975586</ele>
        <time>2012-05-05T12:37:17Z</time>
      </trkpt>
      <trkpt lat="43.99761" lon="7.15302">
        <ele>765.599975586</ele>
        <time>2012-05-05T12:37:19Z</time>
      </trkpt>
      <trkpt lat="43.99758" lon="7.15297">
        <ele>764.400024414</ele>
        <time>2012-05-05T12:37:21Z</time>
      </trkpt>
      <trkpt lat="43.99755" lon="7.15293">
        <ele>764.400024414</ele>
        <time>2012-05-05T12:37:23Z</time>
      </trkpt>
      <trkpt lat="43.9975" lon="7.15291">
        <ele>764.400024414</ele>
        <time>2012-05-05T12:37:26Z</time>
      </trkpt>
      <trkpt lat="43.99747" lon="7.1529">
        <ele>763.400024414</ele>
        <time>2012-05-05T12:37:27Z</time>
      </trkpt>
      <trkpt lat="43.99736" lon="7.1529">
        <ele>763.400024414</ele>
        <time>2012-05-05T12:37:31Z</time>
      </trkpt>
      <trkpt lat="43.99727" lon="7.15292">
        <ele>762.200012207</ele>
        <time>2012-05-05T12:37:35Z</time>
      </trkpt>
      <trkpt lat="43.99726" lon="7.15292">
        <ele>762.200012207</ele>
        <time>2012-05-05T12:37:36Z</time>
      </trkpt>
      <trkpt lat="43.99725" lon="7.15287">
        <ele>762.200012207</ele>
        <time>2012-05-05T12:37:38Z</time>
      </trkpt>
      <trkpt lat="43.99727" lon="7.15284">
        <ele>760.200012207</ele>
        <time>2012-05-05T12:37:39Z</time>
      </trkpt>
      <trkpt lat="43.99727" lon="7.15282">
        <ele>758.599975586</ele>
        <time>2012-05-05T12:37:40Z</time>
      </trkpt>
      <trkpt lat="43.99724" lon="7.15281">
        <ele>758.599975586</ele>
        <time>2012-05-05T12:37:42Z</time>
      </trkpt>
      <trkpt lat="43.99721" lon="7.15281">
        <ele>757.400024414</ele>
        <time>2012-05-05T12:37:43Z</time>
      </trkpt>
      <trkpt lat="43.99719" lon="7.15279">
        <ele>756.400024414</ele>
        <time>2012-05-05T12:37:44Z</time>
      </trkpt>
      <trkpt lat="43.99717" lon="7.15277">
        <ele>756.400024414</ele>
        <time>2012-05-05T12:37:45Z</time>
      </trkpt>
      <trkpt lat="43.99715" lon="7.15276">
        <ele>755</ele>
        <time>2012-05-05T12:37:46Z</time>
      </trkpt>
      <trkpt lat="43.99712" lon="7.15277">
        <ele>753</ele>
        <time>2012-05-05T12:37:48Z</time>
      </trkpt>
      <trkpt lat="43.99711" lon="7.15276">
        <ele>752</ele>
        <time>2012-05-05T12:37:49Z</time>
      </trkpt>
      <trkpt lat="43.9971" lon="7.15275">
        <ele>752</ele>
        <time>2012-05-05T12:37:50Z</time>
      </trkpt>
      <trkpt lat="43.99708" lon="7.1527">
        <ele>750.799987793</ele>
        <time>2012-05-05T12:37:52Z</time>
      </trkpt>
      <trkpt lat="43.99708" lon="7.15268">
        <ele>749.799987793</ele>
        <time>2012-05-05T12:37:53Z</time>
      </trkpt>
      <trkpt lat="43.99709" lon="7.15262">
        <ele>748.400024414</ele>
        <time>2012-05-05T12:37:55Z</time>
      </trkpt>
      <trkpt lat="43.9971" lon="7.15259">
        <ele>747.400024414</ele>
        <time>2012-05-05T12:37:56Z</time>
      </trkpt>
      <trkpt lat="43.99711" lon="7.15256">
        <ele>746.200012207</ele>
        <time>2012-05-05T12:37:57Z</time>
      </trkpt>
      <trkpt lat="43.99712" lon="7.1525">
        <ele>745</ele>
        <time>2012-05-05T12:37:59Z</time>
      </trkpt>
      <trkpt lat="43.99713" lon="7.15247">
        <ele>743.799987793</ele>
        <time>2012-05-05T12:38:00Z</time>
      </trkpt>
      <trkpt lat="43.99715" lon="7.15242">
        <ele>742.400024414</ele>
        <time>2012-05-05T12:38:02Z</time>
      </trkpt>
      <trkpt lat="43.99716" lon="7.1524">
        <ele>742.400024414</ele>
        <time>2012-05-05T12:38:03Z</time>
      </trkpt>
      <trkpt lat="43.99718" lon="7.15237">
        <ele>741</ele>
        <time>2012-05-05T12:38:04Z</time>
      </trkpt>
      <trkpt lat="43.99722" lon="7.15232">
        <ele>738.799987793</ele>
        <time>2012-05-05T12:38:07Z</time>
      </trkpt>
      <trkpt lat="43.99724" lon="7.1523">
        <ele>738.799987793</ele>
        <time>2012-05-05T12:38:08Z</time>
      </trkpt>
      <trkpt lat="43.99725" lon="7.15227">
        <ele>737.799987793</ele>
        <time>2012-05-05T12:38:09Z</time>
      </trkpt>
      <trkpt lat="43.99726" lon="7.15223">
        <ele>736.599975586</ele>
        <time>2012-05-05T12:38:11Z</time>
      </trkpt>
      <trkpt lat="43.99725" lon="7.15219">
        <ele>735.599975586</ele>
        <time>2012-05-05T12:38:13Z</time>
      </trkpt>
      <trkpt lat="43.99725" lon="7.15217">
        <ele>734.400024414</ele>
        <time>2012-05-05T12:38:14Z</time>
      </trkpt>
      <trkpt lat="43.99727" lon="7.15216">
        <ele>733.400024414</ele>
        <time>2012-05-05T12:38:16Z</time>
      </trkpt>
      <trkpt lat="43.99728" lon="7.15215">
        <ele>733.400024414</ele>
        <time>2012-05-05T12:38:17Z</time>
      </trkpt>
      <trkpt lat="43.99729" lon="7.15214">
        <ele>732.400024414</ele>
        <time>2012-05-05T12:38:18Z</time>
      </trkpt>
      <trkpt lat="43.99731" lon="7.15209">
        <ele>731.200012207</ele>
        <time>2012-05-05T12:38:20Z</time>
      </trkpt>
      <trkpt lat="43.99732" lon="7.15207">
        <ele>731.200012207</ele>
        <time>2012-05-05T12:38:21Z</time>
      </trkpt>
      <trkpt lat="43.99732" lon="7.15205">
        <ele>730.200012207</ele>
        <time>2012-05-05T12:38:22Z</time>
      </trkpt>
      <trkpt lat="43.99729" lon="7.15205">
        <ele>729.200012207</ele>
        <time>2012-05-05T12:38:25Z</time>
      </trkpt>
      <trkpt lat="43.99727" lon="7.15205">
        <ele>728</ele>
        <time>2012-05-05T12:38:27Z</time>
      </trkpt>
      <trkpt lat="43.99728" lon="7.15202">
        <ele>727</ele>
        <time>2012-05-05T12:38:29Z</time>
      </trkpt>
      <trkpt lat="43.99731" lon="7.15196">
        <ele>726</ele>
        <time>2012-05-05T12:38:33Z</time>
      </trkpt>
      <trkpt lat="43.99727" lon="7.15194">
        <ele>724.799987793</ele>
        <time>2012-05-05T12:38:35Z</time>
      </trkpt>
      <trkpt lat="43.99724" lon="7.15194">
        <ele>723.599975586</ele>
        <time>2012-05-05T12:38:37Z</time>
      </trkpt>
      <trkpt lat="43.99721" lon="7.15193">
        <ele>722.400024414</ele>
        <time>2012-05-05T12:38:39Z</time>
      </trkpt>
      <trkpt lat="43.99721" lon="7.1519">
        <ele>722.400024414</ele>
        <time>2012-05-05T12:38:41Z</time>
      </trkpt>
      <trkpt lat="43.99722" lon="7.15189">
        <ele>721.200012207</ele>
        <time>2012-05-05T12:38:42Z</time>
      </trkpt>
      <trkpt lat="43.99721" lon="7.15186">
        <ele>720.200012207</ele>
        <time>2012-05-05T12:38:45Z</time>
      </trkpt>
      <trkpt lat="43.99721" lon="7.15186">
        <ele>720.200012207</ele>
        <time>2012-05-05T12:38:46Z</time>
      </trkpt>
      <trkpt lat="43.9972" lon="7.15185">
        <ele>720.200012207</ele>
        <time>2012-05-05T12:38:47Z</time>
      </trkpt>
      <trkpt lat="43.99718" lon="7.15185">
        <ele>718.799987793</ele>
        <time>2012-05-05T12:38:49Z</time>
      </trkpt>
      <trkpt lat="43.99714" lon="7.15185">
        <ele>718.799987793</ele>
        <time>2012-05-05T12:38:51Z</time>
      </trkpt>
      <trkpt lat="43.9971" lon="7.15183">
        <ele>717.599975586</ele>
        <time>2012-05-05T12:38:53Z</time>
      </trkpt>
      <trkpt lat="43.99709" lon="7.15178">
        <ele>717.599975586</ele>
        <time>2012-05-05T12:38:55Z</time>
      </trkpt>
      <trkpt lat="43.99712" lon="7.15174">
        <ele>716.599975586</ele>
        <time>2012-05-05T12:38:57Z</time>
      </trkpt>
      <trkpt lat="43.99714" lon="7.1517">
        <ele>715.599975586</ele>
        <time>2012-05-05T12:38:58Z</time>
      </trkpt>
      <trkpt lat="43.99715" lon="7.15167">
        <ele>715.599975586</ele>
        <time>2012-05-05T12:38:59Z</time>
      </trkpt>
      <trkpt lat="43.99715" lon="7.15164">
        <ele>715.599975586</ele>
        <time>2012-05-05T12:39:00Z</time>
      </trkpt>
      <trkpt lat="43.99714" lon="7.15162">
        <ele>714.599975586</ele>
        <time>2012-05-05T12:39:01Z</time>
      </trkpt>
      <trkpt lat="43.99712" lon="7.1516">
        <ele>714.599975586</ele>
        <time>2012-05-05T12:39:02Z</time>
      </trkpt>
      <trkpt lat="43.99709" lon="7.15158">
        <ele>713.400024414</ele>
        <time>2012-05-05T12:39:03Z</time>
      </trkpt>
      <trkpt lat="43.99703" lon="7.15149">
        <ele>713.400024414</ele>
        <time>2012-05-05T12:39:05Z</time>
      </trkpt>
      <trkpt lat="43.99701" lon="7.15145">
        <ele>712.400024414</ele>
        <time>2012-05-05T12:39:06Z</time>
      </trkpt>
      <trkpt lat="43.99693" lon="7.15133">
        <ele>711.400024414</ele>
        <time>2012-05-05T12:39:09Z</time>
      </trkpt>
      <trkpt lat="43.99691" lon="7.1512">
        <ele>710.200012207</ele>
        <time>2012-05-05T12:39:11Z</time>
      </trkpt>
      <trkpt lat="43.9969" lon="7.15112">
        <ele>710.200012207</ele>
        <time>2012-05-05T12:39:12Z</time>
      </trkpt>
      <trkpt lat="43.9969" lon="7.15103">
        <ele>709</ele>
        <time>2012-05-05T12:39:13Z</time>
      </trkpt>
      <trkpt lat="43.99689" lon="7.15088">
        <ele>707.400024414</ele>
        <time>2012-05-05T12:39:15Z</time>
      </trkpt>
      <trkpt lat="43.99688" lon="7.15083">
        <ele>707.400024414</ele>
        <time>2012-05-05T12:39:16Z</time>
      </trkpt>
      <trkpt lat="43.99686" lon="7.15077">
        <ele>706.400024414</ele>
        <time>2012-05-05T12:39:17Z</time>
      </trkpt>
      <trkpt lat="43.99678" lon="7.15069">
        <ele>706.400024414</ele>
        <time>2012-05-05T12:39:19Z</time>
      </trkpt>
      <trkpt lat="43.99674" lon="7.15066">
        <ele>705.200012207</ele>
        <time>2012-05-05T12:39:20Z</time>
      </trkpt>
      <trkpt lat="43.99671" lon="7.15064">
        <ele>705.200012207</ele>
        <time>2012-05-05T12:39:21Z</time>
      </trkpt>
      <trkpt lat="43.99664" lon="7.1506">
        <ele>703.799987793</ele>
        <time>2012-05-05T12:39:23Z</time>
      </trkpt>
      <trkpt lat="43.99661" lon="7.15056">
        <ele>703.799987793</ele>
        <time>2012-05-05T12:39:24Z</time>
      </trkpt>
      <trkpt lat="43.99655" lon="7.15046">
        <ele>702.599975586</ele>
        <time>2012-05-05T12:39:26Z</time>
      </trkpt>
      <trkpt lat="43.99652" lon="7.15041">
        <ele>702.599975586</ele>
        <time>2012-05-05T12:39:27Z</time>
      </trkpt>
      <trkpt lat="43.99648" lon="7.15029">
        <ele>702.599975586</ele>
        <time>2012-05-05T12:39:29Z</time>
      </trkpt>
      <trkpt lat="43.99647" lon="7.15024">
        <ele>701.599975586</ele>
        <time>2012-05-05T12:39:30Z</time>
      </trkpt>
      <trkpt lat="43.99646" lon="7.1502">
        <ele>701.599975586</ele>
        <time>2012-05-05T12:39:31Z</time>
      </trkpt>
      <trkpt lat="43.99642" lon="7.15005">
        <ele>701.599975586</ele>
        <time>2012-05-05T12:39:34Z</time>
      </trkpt>
      <trkpt lat="43.9964" lon="7.14992">
        <ele>700.599975586</ele>
        <time>2012-05-05T12:39:37Z</time>
      </trkpt>
      <trkpt lat="43.99642" lon="7.14973">
        <ele>700.599975586</ele>
        <time>2012-05-05T12:39:42Z</time>
      </trkpt>
      <trkpt lat="43.99643" lon="7.14971">
        <ele>699.400024414</ele>
        <time>2012-05-05T12:39:43Z</time>
      </trkpt>
      <trkpt lat="43.99644" lon="7.14968">
        <ele>699.400024414</ele>
        <time>2012-05-05T12:39:44Z</time>
      </trkpt>
      <trkpt lat="43.99645" lon="7.14963">
        <ele>698.400024414</ele>
        <time>2012-05-05T12:39:46Z</time>
      </trkpt>
      <trkpt lat="43.99646" lon="7.14962">
        <ele>698.400024414</ele>
        <time>2012-05-05T12:39:48Z</time>
      </trkpt>
      <trkpt lat="43.99648" lon="7.14962">
        <ele>698.400024414</ele>
        <time>2012-05-05T12:39:50Z</time>
      </trkpt>
      <trkpt lat="43.99649" lon="7.14962">
        <ele>698.400024414</ele>
        <time>2012-05-05T12:39:53Z</time>
      </trkpt>
      <trkpt lat="43.99649" lon="7.1496">
        <ele>698.400024414</ele>
        <time>2012-05-05T12:39:55Z</time>
      </trkpt>
      <trkpt lat="43.99649" lon="7.1496">
        <ele>698.400024414</ele>
        <time>2012-05-05T12:40:01Z</time>
      </trkpt>
    </trkseg>
  </trk>
</gpx>